<?xml version="1.0" encoding="UTF-8" standalone="no" ?>
<gpx xmlns="http://www.topografix.com/GPX/1/1" xmlns:xsi="http://www.w3.org/2001/XMLSchema-instance" xsi:schemaLocation="http://www.topografix.com/GPX/1/1 http://www.topografix.com/GPX/1/1/gpx.xsd" version="1.1" creator="VisuGPX - https://www.visugpx.com">
  <metadata>
    <name>VTT : La Clape coté Sud -</name>
    <desc><![CDATA[Boucle entre Narbonne plage (départ) & Gruissan . Magnifique trace entre mer , étangs , pinèdes , singles , des paysages sublimes. Parcours fait en musculaire possible en VTTAE .]]></desc>
  </metadata>
  <trk>
    <name><![CDATA[VTT : Single de le Clape-]]></name>
    <trkseg>
      <trkpt lat="43.15482" lon="3.15485">
        <ele>7.8000001907349</ele>
        <time>2014-11-23T08:22:36.000Z</time>
      </trkpt>
      <trkpt lat="43.15477" lon="3.15474">
        <ele>7.8000001907349</ele>
        <time>2014-11-23T08:22:39.000Z</time>
      </trkpt>
      <trkpt lat="43.15475" lon="3.1547">
        <ele>8</ele>
        <time>2014-11-23T08:22:40.000Z</time>
      </trkpt>
      <trkpt lat="43.15473" lon="3.15467">
        <ele>8</ele>
        <time>2014-11-23T08:22:41.000Z</time>
      </trkpt>
      <trkpt lat="43.15456" lon="3.15441">
        <ele>8</ele>
        <time>2014-11-23T08:22:47.000Z</time>
      </trkpt>
      <trkpt lat="43.15454" lon="3.15437">
        <ele>8</ele>
        <time>2014-11-23T08:22:48.000Z</time>
      </trkpt>
      <trkpt lat="43.15449" lon="3.15427">
        <ele>8</ele>
        <time>2014-11-23T08:22:50.000Z</time>
      </trkpt>
      <trkpt lat="43.15445" lon="3.15416">
        <ele>8</ele>
        <time>2014-11-23T08:22:52.000Z</time>
      </trkpt>
      <trkpt lat="43.15428" lon="3.1538">
        <ele>8</ele>
        <time>2014-11-23T08:22:59.000Z</time>
      </trkpt>
      <trkpt lat="43.15425" lon="3.15376">
        <ele>8</ele>
        <time>2014-11-23T08:23:00.000Z</time>
      </trkpt>
      <trkpt lat="43.15411" lon="3.15353">
        <ele>8</ele>
        <time>2014-11-23T08:23:05.000Z</time>
      </trkpt>
      <trkpt lat="43.15385" lon="3.1532">
        <ele>8</ele>
        <time>2014-11-23T08:23:13.000Z</time>
      </trkpt>
      <trkpt lat="43.15353" lon="3.1528">
        <ele>8</ele>
        <time>2014-11-23T08:23:22.000Z</time>
      </trkpt>
      <trkpt lat="43.15337" lon="3.15252">
        <ele>8</ele>
        <time>2014-11-23T08:23:27.000Z</time>
      </trkpt>
      <trkpt lat="43.15335" lon="3.15246">
        <ele>8</ele>
        <time>2014-11-23T08:23:28.000Z</time>
      </trkpt>
      <trkpt lat="43.15325" lon="3.1522">
        <ele>8</ele>
        <time>2014-11-23T08:23:32.000Z</time>
      </trkpt>
      <trkpt lat="43.15323" lon="3.15214">
        <ele>8</ele>
        <time>2014-11-23T08:23:33.000Z</time>
      </trkpt>
      <trkpt lat="43.1531" lon="3.15175">
        <ele>8</ele>
        <time>2014-11-23T08:23:39.000Z</time>
      </trkpt>
      <trkpt lat="43.15294" lon="3.15128">
        <ele>8</ele>
        <time>2014-11-23T08:23:46.000Z</time>
      </trkpt>
      <trkpt lat="43.15289" lon="3.15117">
        <ele>8</ele>
        <time>2014-11-23T08:23:48.000Z</time>
      </trkpt>
      <trkpt lat="43.15277" lon="3.15102">
        <ele>8</ele>
        <time>2014-11-23T08:23:51.000Z</time>
      </trkpt>
      <trkpt lat="43.15247" lon="3.1507">
        <ele>8</ele>
        <time>2014-11-23T08:23:58.000Z</time>
      </trkpt>
      <trkpt lat="43.15239" lon="3.15049">
        <ele>8</ele>
        <time>2014-11-23T08:24:01.000Z</time>
      </trkpt>
      <trkpt lat="43.15237" lon="3.15042">
        <ele>8</ele>
        <time>2014-11-23T08:24:02.000Z</time>
      </trkpt>
      <trkpt lat="43.15235" lon="3.15021">
        <ele>8</ele>
        <time>2014-11-23T08:24:05.000Z</time>
      </trkpt>
      <trkpt lat="43.15234" lon="3.15014">
        <ele>8</ele>
        <time>2014-11-23T08:24:06.000Z</time>
      </trkpt>
      <trkpt lat="43.15235" lon="3.14989">
        <ele>8</ele>
        <time>2014-11-23T08:24:10.000Z</time>
      </trkpt>
      <trkpt lat="43.15236" lon="3.14984">
        <ele>8</ele>
        <time>2014-11-23T08:24:11.000Z</time>
      </trkpt>
      <trkpt lat="43.15239" lon="3.14979">
        <ele>8</ele>
        <time>2014-11-23T08:24:12.000Z</time>
      </trkpt>
      <trkpt lat="43.15242" lon="3.14964">
        <ele>8</ele>
        <time>2014-11-23T08:24:15.000Z</time>
      </trkpt>
      <trkpt lat="43.15236" lon="3.1495">
        <ele>8</ele>
        <time>2014-11-23T08:24:18.000Z</time>
      </trkpt>
      <trkpt lat="43.15235" lon="3.14948">
        <ele>8</ele>
        <time>2014-11-23T08:24:19.000Z</time>
      </trkpt>
      <trkpt lat="43.15235" lon="3.14945">
        <ele>8</ele>
        <time>2014-11-23T08:24:20.000Z</time>
      </trkpt>
      <trkpt lat="43.15236" lon="3.14942">
        <ele>8</ele>
        <time>2014-11-23T08:24:21.000Z</time>
      </trkpt>
      <trkpt lat="43.15242" lon="3.14943">
        <ele>8</ele>
        <time>2014-11-23T08:24:24.000Z</time>
      </trkpt>
      <trkpt lat="43.15251" lon="3.1494">
        <ele>8</ele>
        <time>2014-11-23T08:24:28.000Z</time>
      </trkpt>
      <trkpt lat="43.15266" lon="3.14933">
        <ele>8</ele>
        <time>2014-11-23T08:24:33.000Z</time>
      </trkpt>
      <trkpt lat="43.15277" lon="3.14934">
        <ele>8.3999996185303</ele>
        <time>2014-11-23T08:24:36.000Z</time>
      </trkpt>
      <trkpt lat="43.15281" lon="3.14934">
        <ele>8.8000001907349</ele>
        <time>2014-11-23T08:24:37.000Z</time>
      </trkpt>
      <trkpt lat="43.15284" lon="3.14936">
        <ele>9.1999998092651</ele>
        <time>2014-11-23T08:24:38.000Z</time>
      </trkpt>
      <trkpt lat="43.15288" lon="3.14938">
        <ele>9.6000003814697</ele>
        <time>2014-11-23T08:24:39.000Z</time>
      </trkpt>
      <trkpt lat="43.15291" lon="3.14939">
        <ele>10</ele>
        <time>2014-11-23T08:24:40.000Z</time>
      </trkpt>
      <trkpt lat="43.15308" lon="3.14944">
        <ele>10</ele>
        <time>2014-11-23T08:24:45.000Z</time>
      </trkpt>
      <trkpt lat="43.1532" lon="3.14934">
        <ele>10</ele>
        <time>2014-11-23T08:24:49.000Z</time>
      </trkpt>
      <trkpt lat="43.15332" lon="3.14917">
        <ele>10</ele>
        <time>2014-11-23T08:24:54.000Z</time>
      </trkpt>
      <trkpt lat="43.15347" lon="3.14905">
        <ele>10</ele>
        <time>2014-11-23T08:24:59.000Z</time>
      </trkpt>
      <trkpt lat="43.15355" lon="3.14895">
        <ele>10</ele>
        <time>2014-11-23T08:25:02.000Z</time>
      </trkpt>
      <trkpt lat="43.15355" lon="3.14891">
        <ele>10</ele>
        <time>2014-11-23T08:25:03.000Z</time>
      </trkpt>
      <trkpt lat="43.15355" lon="3.14877">
        <ele>10</ele>
        <time>2014-11-23T08:25:06.000Z</time>
      </trkpt>
      <trkpt lat="43.15355" lon="3.14862">
        <ele>10</ele>
        <time>2014-11-23T08:25:09.000Z</time>
      </trkpt>
      <trkpt lat="43.15362" lon="3.1484">
        <ele>10</ele>
        <time>2014-11-23T08:25:14.000Z</time>
      </trkpt>
      <trkpt lat="43.15369" lon="3.1483">
        <ele>10.39999961853</ele>
        <time>2014-11-23T08:25:17.000Z</time>
      </trkpt>
      <trkpt lat="43.15371" lon="3.14827">
        <ele>11.39999961853</ele>
        <time>2014-11-23T08:25:18.000Z</time>
      </trkpt>
      <trkpt lat="43.15375" lon="3.14825">
        <ele>11.800000190735</ele>
        <time>2014-11-23T08:25:19.000Z</time>
      </trkpt>
      <trkpt lat="43.15378" lon="3.14824">
        <ele>12.199999809265</ele>
        <time>2014-11-23T08:25:20.000Z</time>
      </trkpt>
      <trkpt lat="43.15395" lon="3.14816">
        <ele>12.199999809265</ele>
        <time>2014-11-23T08:25:26.000Z</time>
      </trkpt>
      <trkpt lat="43.15416" lon="3.14811">
        <ele>12.199999809265</ele>
        <time>2014-11-23T08:25:32.000Z</time>
      </trkpt>
      <trkpt lat="43.15432" lon="3.14806">
        <ele>12.60000038147</ele>
        <time>2014-11-23T08:25:37.000Z</time>
      </trkpt>
      <trkpt lat="43.15436" lon="3.14805">
        <ele>13</ele>
        <time>2014-11-23T08:25:38.000Z</time>
      </trkpt>
      <trkpt lat="43.15439" lon="3.14803">
        <ele>13.39999961853</ele>
        <time>2014-11-23T08:25:39.000Z</time>
      </trkpt>
      <trkpt lat="43.15441" lon="3.14801">
        <ele>13.800000190735</ele>
        <time>2014-11-23T08:25:40.000Z</time>
      </trkpt>
      <trkpt lat="43.15444" lon="3.14798">
        <ele>14.199999809265</ele>
        <time>2014-11-23T08:25:41.000Z</time>
      </trkpt>
      <trkpt lat="43.15451" lon="3.14789">
        <ele>14.199999809265</ele>
        <time>2014-11-23T08:25:44.000Z</time>
      </trkpt>
      <trkpt lat="43.1546" lon="3.14772">
        <ele>14.199999809265</ele>
        <time>2014-11-23T08:25:50.000Z</time>
      </trkpt>
      <trkpt lat="43.15464" lon="3.14747">
        <ele>14.199999809265</ele>
        <time>2014-11-23T08:25:55.000Z</time>
      </trkpt>
      <trkpt lat="43.15463" lon="3.14716">
        <ele>14.199999809265</ele>
        <time>2014-11-23T08:26:01.000Z</time>
      </trkpt>
      <trkpt lat="43.15457" lon="3.1469">
        <ele>14.199999809265</ele>
        <time>2014-11-23T08:26:06.000Z</time>
      </trkpt>
      <trkpt lat="43.15457" lon="3.14676">
        <ele>14.60000038147</ele>
        <time>2014-11-23T08:26:09.000Z</time>
      </trkpt>
      <trkpt lat="43.15459" lon="3.14672">
        <ele>15</ele>
        <time>2014-11-23T08:26:10.000Z</time>
      </trkpt>
      <trkpt lat="43.15461" lon="3.14668">
        <ele>15.39999961853</ele>
        <time>2014-11-23T08:26:11.000Z</time>
      </trkpt>
      <trkpt lat="43.15463" lon="3.14665">
        <ele>15.800000190735</ele>
        <time>2014-11-23T08:26:12.000Z</time>
      </trkpt>
      <trkpt lat="43.15465" lon="3.14663">
        <ele>16.200000762939</ele>
        <time>2014-11-23T08:26:13.000Z</time>
      </trkpt>
      <trkpt lat="43.15468" lon="3.14661">
        <ele>16.200000762939</ele>
        <time>2014-11-23T08:26:14.000Z</time>
      </trkpt>
      <trkpt lat="43.15485" lon="3.14653">
        <ele>16.200000762939</ele>
        <time>2014-11-23T08:26:20.000Z</time>
      </trkpt>
      <trkpt lat="43.155" lon="3.14643">
        <ele>16.200000762939</ele>
        <time>2014-11-23T08:26:25.000Z</time>
      </trkpt>
      <trkpt lat="43.15511" lon="3.14636">
        <ele>16.60000038147</ele>
        <time>2014-11-23T08:26:29.000Z</time>
      </trkpt>
      <trkpt lat="43.15514" lon="3.14634">
        <ele>17.200000762939</ele>
        <time>2014-11-23T08:26:30.000Z</time>
      </trkpt>
      <trkpt lat="43.15516" lon="3.14633">
        <ele>17.60000038147</ele>
        <time>2014-11-23T08:26:31.000Z</time>
      </trkpt>
      <trkpt lat="43.15519" lon="3.14632">
        <ele>18.39999961853</ele>
        <time>2014-11-23T08:26:32.000Z</time>
      </trkpt>
      <trkpt lat="43.15534" lon="3.14626">
        <ele>18.39999961853</ele>
        <time>2014-11-23T08:26:38.000Z</time>
      </trkpt>
      <trkpt lat="43.15543" lon="3.14625">
        <ele>18.799999237061</ele>
        <time>2014-11-23T08:26:41.000Z</time>
      </trkpt>
      <trkpt lat="43.15547" lon="3.14623">
        <ele>19.200000762939</ele>
        <time>2014-11-23T08:26:42.000Z</time>
      </trkpt>
      <trkpt lat="43.1555" lon="3.14621">
        <ele>19.60000038147</ele>
        <time>2014-11-23T08:26:43.000Z</time>
      </trkpt>
      <trkpt lat="43.15553" lon="3.1462">
        <ele>20</ele>
        <time>2014-11-23T08:26:44.000Z</time>
      </trkpt>
      <trkpt lat="43.15556" lon="3.14617">
        <ele>20.39999961853</ele>
        <time>2014-11-23T08:26:45.000Z</time>
      </trkpt>
      <trkpt lat="43.15564" lon="3.14607">
        <ele>20.39999961853</ele>
        <time>2014-11-23T08:26:48.000Z</time>
      </trkpt>
      <trkpt lat="43.15579" lon="3.14586">
        <ele>20.39999961853</ele>
        <time>2014-11-23T08:26:55.000Z</time>
      </trkpt>
      <trkpt lat="43.15584" lon="3.14567">
        <ele>20.799999237061</ele>
        <time>2014-11-23T08:26:59.000Z</time>
      </trkpt>
      <trkpt lat="43.15584" lon="3.14562">
        <ele>21.200000762939</ele>
        <time>2014-11-23T08:27:00.000Z</time>
      </trkpt>
      <trkpt lat="43.15585" lon="3.14557">
        <ele>21.60000038147</ele>
        <time>2014-11-23T08:27:01.000Z</time>
      </trkpt>
      <trkpt lat="43.15586" lon="3.14553">
        <ele>22</ele>
        <time>2014-11-23T08:27:02.000Z</time>
      </trkpt>
      <trkpt lat="43.15586" lon="3.14548">
        <ele>22.60000038147</ele>
        <time>2014-11-23T08:27:03.000Z</time>
      </trkpt>
      <trkpt lat="43.15584" lon="3.1453">
        <ele>22.60000038147</ele>
        <time>2014-11-23T08:27:07.000Z</time>
      </trkpt>
      <trkpt lat="43.15583" lon="3.14525">
        <ele>22.60000038147</ele>
        <time>2014-11-23T08:27:11.000Z</time>
      </trkpt>
      <trkpt lat="43.15583" lon="3.14525">
        <ele>22.60000038147</ele>
        <time>2014-11-23T08:27:12.000Z</time>
      </trkpt>
      <trkpt lat="43.15583" lon="3.14522">
        <ele>22.60000038147</ele>
        <time>2014-11-23T08:27:22.000Z</time>
      </trkpt>
      <trkpt lat="43.15581" lon="3.1452">
        <ele>22.60000038147</ele>
        <time>2014-11-23T08:27:24.000Z</time>
      </trkpt>
      <trkpt lat="43.15582" lon="3.1452">
        <ele>22.60000038147</ele>
        <time>2014-11-23T08:27:25.000Z</time>
      </trkpt>
      <trkpt lat="43.15582" lon="3.14522">
        <ele>22.60000038147</ele>
        <time>2014-11-23T08:27:33.000Z</time>
      </trkpt>
      <trkpt lat="43.15582" lon="3.14524">
        <ele>22.60000038147</ele>
        <time>2014-11-23T08:27:34.000Z</time>
      </trkpt>
      <trkpt lat="43.15586" lon="3.14544">
        <ele>22.60000038147</ele>
        <time>2014-11-23T08:27:39.000Z</time>
      </trkpt>
      <trkpt lat="43.15584" lon="3.14564">
        <ele>22.60000038147</ele>
        <time>2014-11-23T08:27:43.000Z</time>
      </trkpt>
      <trkpt lat="43.15576" lon="3.14582">
        <ele>22.60000038147</ele>
        <time>2014-11-23T08:27:48.000Z</time>
      </trkpt>
      <trkpt lat="43.15568" lon="3.14581">
        <ele>22.60000038147</ele>
        <time>2014-11-23T08:27:52.000Z</time>
      </trkpt>
      <trkpt lat="43.15565" lon="3.14582">
        <ele>22.60000038147</ele>
        <time>2014-11-23T08:27:53.000Z</time>
      </trkpt>
      <trkpt lat="43.15558" lon="3.14591">
        <ele>22.60000038147</ele>
        <time>2014-11-23T08:27:57.000Z</time>
      </trkpt>
      <trkpt lat="43.15548" lon="3.14595">
        <ele>22.60000038147</ele>
        <time>2014-11-23T08:28:02.000Z</time>
      </trkpt>
      <trkpt lat="43.15534" lon="3.14594">
        <ele>22.60000038147</ele>
        <time>2014-11-23T08:28:07.000Z</time>
      </trkpt>
      <trkpt lat="43.1553" lon="3.1459">
        <ele>23</ele>
        <time>2014-11-23T08:28:09.000Z</time>
      </trkpt>
      <trkpt lat="43.15527" lon="3.14589">
        <ele>23.39999961853</ele>
        <time>2014-11-23T08:28:10.000Z</time>
      </trkpt>
      <trkpt lat="43.15525" lon="3.14588">
        <ele>23.799999237061</ele>
        <time>2014-11-23T08:28:11.000Z</time>
      </trkpt>
      <trkpt lat="43.15523" lon="3.14587">
        <ele>24.60000038147</ele>
        <time>2014-11-23T08:28:12.000Z</time>
      </trkpt>
      <trkpt lat="43.15519" lon="3.14585">
        <ele>24.60000038147</ele>
        <time>2014-11-23T08:28:14.000Z</time>
      </trkpt>
      <trkpt lat="43.15512" lon="3.1458">
        <ele>24.60000038147</ele>
        <time>2014-11-23T08:28:17.000Z</time>
      </trkpt>
      <trkpt lat="43.1551" lon="3.14578">
        <ele>25.200000762939</ele>
        <time>2014-11-23T08:28:18.000Z</time>
      </trkpt>
      <trkpt lat="43.15507" lon="3.14577">
        <ele>25.60000038147</ele>
        <time>2014-11-23T08:28:19.000Z</time>
      </trkpt>
      <trkpt lat="43.15505" lon="3.14575">
        <ele>26</ele>
        <time>2014-11-23T08:28:20.000Z</time>
      </trkpt>
      <trkpt lat="43.15503" lon="3.14574">
        <ele>26.39999961853</ele>
        <time>2014-11-23T08:28:21.000Z</time>
      </trkpt>
      <trkpt lat="43.15501" lon="3.14572">
        <ele>27</ele>
        <time>2014-11-23T08:28:22.000Z</time>
      </trkpt>
      <trkpt lat="43.15499" lon="3.1457">
        <ele>27</ele>
        <time>2014-11-23T08:28:23.000Z</time>
      </trkpt>
      <trkpt lat="43.15485" lon="3.14571">
        <ele>27</ele>
        <time>2014-11-23T08:28:28.000Z</time>
      </trkpt>
      <trkpt lat="43.15471" lon="3.14582">
        <ele>27</ele>
        <time>2014-11-23T08:28:34.000Z</time>
      </trkpt>
      <trkpt lat="43.15454" lon="3.14602">
        <ele>27.39999961853</ele>
        <time>2014-11-23T08:28:42.000Z</time>
      </trkpt>
      <trkpt lat="43.15452" lon="3.14605">
        <ele>27.799999237061</ele>
        <time>2014-11-23T08:28:43.000Z</time>
      </trkpt>
      <trkpt lat="43.1545" lon="3.14607">
        <ele>28.200000762939</ele>
        <time>2014-11-23T08:28:44.000Z</time>
      </trkpt>
      <trkpt lat="43.15447" lon="3.14609">
        <ele>28.60000038147</ele>
        <time>2014-11-23T08:28:45.000Z</time>
      </trkpt>
      <trkpt lat="43.15445" lon="3.14611">
        <ele>29</ele>
        <time>2014-11-23T08:28:46.000Z</time>
      </trkpt>
      <trkpt lat="43.15441" lon="3.14615">
        <ele>29</ele>
        <time>2014-11-23T08:28:48.000Z</time>
      </trkpt>
      <trkpt lat="43.15428" lon="3.14626">
        <ele>29</ele>
        <time>2014-11-23T08:28:54.000Z</time>
      </trkpt>
      <trkpt lat="43.15419" lon="3.14633">
        <ele>29.39999961853</ele>
        <time>2014-11-23T08:28:58.000Z</time>
      </trkpt>
      <trkpt lat="43.15418" lon="3.14636">
        <ele>29.799999237061</ele>
        <time>2014-11-23T08:28:59.000Z</time>
      </trkpt>
      <trkpt lat="43.15415" lon="3.14637">
        <ele>30.200000762939</ele>
        <time>2014-11-23T08:29:00.000Z</time>
      </trkpt>
      <trkpt lat="43.15413" lon="3.14639">
        <ele>31</ele>
        <time>2014-11-23T08:29:01.000Z</time>
      </trkpt>
      <trkpt lat="43.15402" lon="3.1465">
        <ele>31</ele>
        <time>2014-11-23T08:29:06.000Z</time>
      </trkpt>
      <trkpt lat="43.15398" lon="3.14653">
        <ele>31.39999961853</ele>
        <time>2014-11-23T08:29:08.000Z</time>
      </trkpt>
      <trkpt lat="43.15396" lon="3.14655">
        <ele>31.799999237061</ele>
        <time>2014-11-23T08:29:09.000Z</time>
      </trkpt>
      <trkpt lat="43.15394" lon="3.14657">
        <ele>32.200000762939</ele>
        <time>2014-11-23T08:29:10.000Z</time>
      </trkpt>
      <trkpt lat="43.15392" lon="3.14658">
        <ele>32.599998474121</ele>
        <time>2014-11-23T08:29:11.000Z</time>
      </trkpt>
      <trkpt lat="43.15391" lon="3.1466">
        <ele>33</ele>
        <time>2014-11-23T08:29:12.000Z</time>
      </trkpt>
      <trkpt lat="43.15387" lon="3.1466">
        <ele>33</ele>
        <time>2014-11-23T08:29:14.000Z</time>
      </trkpt>
      <trkpt lat="43.15384" lon="3.14654">
        <ele>33</ele>
        <time>2014-11-23T08:29:16.000Z</time>
      </trkpt>
      <trkpt lat="43.15386" lon="3.14648">
        <ele>33</ele>
        <time>2014-11-23T08:29:19.000Z</time>
      </trkpt>
      <trkpt lat="43.15393" lon="3.14641">
        <ele>33</ele>
        <time>2014-11-23T08:29:22.000Z</time>
      </trkpt>
      <trkpt lat="43.15397" lon="3.14631">
        <ele>33</ele>
        <time>2014-11-23T08:29:25.000Z</time>
      </trkpt>
      <trkpt lat="43.15399" lon="3.1463">
        <ele>33</ele>
        <time>2014-11-23T08:29:26.000Z</time>
      </trkpt>
      <trkpt lat="43.15403" lon="3.14621">
        <ele>33</ele>
        <time>2014-11-23T08:29:29.000Z</time>
      </trkpt>
      <trkpt lat="43.15406" lon="3.14611">
        <ele>33.400001525879</ele>
        <time>2014-11-23T08:29:32.000Z</time>
      </trkpt>
      <trkpt lat="43.15407" lon="3.14607">
        <ele>33.799999237061</ele>
        <time>2014-11-23T08:29:33.000Z</time>
      </trkpt>
      <trkpt lat="43.15408" lon="3.14604">
        <ele>34.400001525879</ele>
        <time>2014-11-23T08:29:34.000Z</time>
      </trkpt>
      <trkpt lat="43.15409" lon="3.146">
        <ele>34.799999237061</ele>
        <time>2014-11-23T08:29:35.000Z</time>
      </trkpt>
      <trkpt lat="43.15411" lon="3.14597">
        <ele>35.200000762939</ele>
        <time>2014-11-23T08:29:36.000Z</time>
      </trkpt>
      <trkpt lat="43.15417" lon="3.14581">
        <ele>35.200000762939</ele>
        <time>2014-11-23T08:29:41.000Z</time>
      </trkpt>
      <trkpt lat="43.15424" lon="3.14569">
        <ele>35.599998474121</ele>
        <time>2014-11-23T08:29:46.000Z</time>
      </trkpt>
      <trkpt lat="43.15424" lon="3.14567">
        <ele>36</ele>
        <time>2014-11-23T08:29:47.000Z</time>
      </trkpt>
      <trkpt lat="43.15425" lon="3.14565">
        <ele>36.400001525879</ele>
        <time>2014-11-23T08:29:48.000Z</time>
      </trkpt>
      <trkpt lat="43.15425" lon="3.14563">
        <ele>37</ele>
        <time>2014-11-23T08:29:49.000Z</time>
      </trkpt>
      <trkpt lat="43.15426" lon="3.14561">
        <ele>37.400001525879</ele>
        <time>2014-11-23T08:29:50.000Z</time>
      </trkpt>
      <trkpt lat="43.15428" lon="3.14558">
        <ele>37.400001525879</ele>
        <time>2014-11-23T08:29:52.000Z</time>
      </trkpt>
      <trkpt lat="43.1543" lon="3.14551">
        <ele>37.799999237061</ele>
        <time>2014-11-23T08:29:55.000Z</time>
      </trkpt>
      <trkpt lat="43.1543" lon="3.14549">
        <ele>38.200000762939</ele>
        <time>2014-11-23T08:29:56.000Z</time>
      </trkpt>
      <trkpt lat="43.1543" lon="3.14546">
        <ele>38.799999237061</ele>
        <time>2014-11-23T08:29:57.000Z</time>
      </trkpt>
      <trkpt lat="43.15431" lon="3.14544">
        <ele>39.200000762939</ele>
        <time>2014-11-23T08:29:58.000Z</time>
      </trkpt>
      <trkpt lat="43.15431" lon="3.14542">
        <ele>39.599998474121</ele>
        <time>2014-11-23T08:29:59.000Z</time>
      </trkpt>
      <trkpt lat="43.15429" lon="3.14538">
        <ele>39.599998474121</ele>
        <time>2014-11-23T08:30:01.000Z</time>
      </trkpt>
      <trkpt lat="43.15427" lon="3.14533">
        <ele>39.599998474121</ele>
        <time>2014-11-23T08:30:04.000Z</time>
      </trkpt>
      <trkpt lat="43.15425" lon="3.14528">
        <ele>39.599998474121</ele>
        <time>2014-11-23T08:30:07.000Z</time>
      </trkpt>
      <trkpt lat="43.15423" lon="3.14526">
        <ele>39.599998474121</ele>
        <time>2014-11-23T08:30:09.000Z</time>
      </trkpt>
      <trkpt lat="43.15421" lon="3.14524">
        <ele>40</ele>
        <time>2014-11-23T08:30:12.000Z</time>
      </trkpt>
      <trkpt lat="43.1542" lon="3.14524">
        <ele>40.400001525879</ele>
        <time>2014-11-23T08:30:13.000Z</time>
      </trkpt>
      <trkpt lat="43.15419" lon="3.14524">
        <ele>40.799999237061</ele>
        <time>2014-11-23T08:30:14.000Z</time>
      </trkpt>
      <trkpt lat="43.15418" lon="3.14524">
        <ele>41.200000762939</ele>
        <time>2014-11-23T08:30:15.000Z</time>
      </trkpt>
      <trkpt lat="43.15419" lon="3.14524">
        <ele>41.599998474121</ele>
        <time>2014-11-23T08:30:16.000Z</time>
      </trkpt>
      <trkpt lat="43.15414" lon="3.14521">
        <ele>41.599998474121</ele>
        <time>2014-11-23T08:34:21.000Z</time>
      </trkpt>
      <trkpt lat="43.15413" lon="3.1452">
        <ele>41.599998474121</ele>
        <time>2014-11-23T08:34:22.000Z</time>
      </trkpt>
      <trkpt lat="43.15412" lon="3.14518">
        <ele>41.599998474121</ele>
        <time>2014-11-23T08:34:23.000Z</time>
      </trkpt>
      <trkpt lat="43.15407" lon="3.14513">
        <ele>41.599998474121</ele>
        <time>2014-11-23T08:34:26.000Z</time>
      </trkpt>
      <trkpt lat="43.15397" lon="3.14506">
        <ele>41.599998474121</ele>
        <time>2014-11-23T08:34:31.000Z</time>
      </trkpt>
      <trkpt lat="43.15394" lon="3.14502">
        <ele>41.599998474121</ele>
        <time>2014-11-23T08:34:33.000Z</time>
      </trkpt>
      <trkpt lat="43.1538" lon="3.14492">
        <ele>41.599998474121</ele>
        <time>2014-11-23T08:34:40.000Z</time>
      </trkpt>
      <trkpt lat="43.15376" lon="3.1449">
        <ele>41.599998474121</ele>
        <time>2014-11-23T08:34:44.000Z</time>
      </trkpt>
      <trkpt lat="43.15376" lon="3.1449">
        <ele>41.599998474121</ele>
        <time>2014-11-23T08:34:45.000Z</time>
      </trkpt>
      <trkpt lat="43.15374" lon="3.14487">
        <ele>41.599998474121</ele>
        <time>2014-11-23T08:34:57.000Z</time>
      </trkpt>
      <trkpt lat="43.1537" lon="3.14481">
        <ele>41.599998474121</ele>
        <time>2014-11-23T08:34:59.000Z</time>
      </trkpt>
      <trkpt lat="43.1536" lon="3.14472">
        <ele>41.200000762939</ele>
        <time>2014-11-23T08:35:02.000Z</time>
      </trkpt>
      <trkpt lat="43.15356" lon="3.14468">
        <ele>40.799999237061</ele>
        <time>2014-11-23T08:35:03.000Z</time>
      </trkpt>
      <trkpt lat="43.15352" lon="3.14464">
        <ele>40.400001525879</ele>
        <time>2014-11-23T08:35:04.000Z</time>
      </trkpt>
      <trkpt lat="43.15347" lon="3.14462">
        <ele>40</ele>
        <time>2014-11-23T08:35:05.000Z</time>
      </trkpt>
      <trkpt lat="43.15342" lon="3.14459">
        <ele>39.599998474121</ele>
        <time>2014-11-23T08:35:06.000Z</time>
      </trkpt>
      <trkpt lat="43.15334" lon="3.14452">
        <ele>39.599998474121</ele>
        <time>2014-11-23T08:35:08.000Z</time>
      </trkpt>
      <trkpt lat="43.15317" lon="3.14439">
        <ele>39.599998474121</ele>
        <time>2014-11-23T08:35:13.000Z</time>
      </trkpt>
      <trkpt lat="43.15298" lon="3.14429">
        <ele>40</ele>
        <time>2014-11-23T08:35:19.000Z</time>
      </trkpt>
      <trkpt lat="43.15296" lon="3.14427">
        <ele>40.400001525879</ele>
        <time>2014-11-23T08:35:20.000Z</time>
      </trkpt>
      <trkpt lat="43.15293" lon="3.14424">
        <ele>40.799999237061</ele>
        <time>2014-11-23T08:35:21.000Z</time>
      </trkpt>
      <trkpt lat="43.15291" lon="3.14421">
        <ele>41.400001525879</ele>
        <time>2014-11-23T08:35:22.000Z</time>
      </trkpt>
      <trkpt lat="43.15289" lon="3.14418">
        <ele>41.799999237061</ele>
        <time>2014-11-23T08:35:23.000Z</time>
      </trkpt>
      <trkpt lat="43.15288" lon="3.14415">
        <ele>41.799999237061</ele>
        <time>2014-11-23T08:35:24.000Z</time>
      </trkpt>
      <trkpt lat="43.15286" lon="3.14398">
        <ele>41.799999237061</ele>
        <time>2014-11-23T08:35:30.000Z</time>
      </trkpt>
      <trkpt lat="43.15286" lon="3.14393">
        <ele>42.200000762939</ele>
        <time>2014-11-23T08:35:32.000Z</time>
      </trkpt>
      <trkpt lat="43.15286" lon="3.14391">
        <ele>42.599998474121</ele>
        <time>2014-11-23T08:35:33.000Z</time>
      </trkpt>
      <trkpt lat="43.15287" lon="3.14389">
        <ele>43</ele>
        <time>2014-11-23T08:35:34.000Z</time>
      </trkpt>
      <trkpt lat="43.15288" lon="3.14387">
        <ele>43.400001525879</ele>
        <time>2014-11-23T08:35:35.000Z</time>
      </trkpt>
      <trkpt lat="43.15289" lon="3.14384">
        <ele>43.799999237061</ele>
        <time>2014-11-23T08:35:36.000Z</time>
      </trkpt>
      <trkpt lat="43.15291" lon="3.1438">
        <ele>43.799999237061</ele>
        <time>2014-11-23T08:35:38.000Z</time>
      </trkpt>
      <trkpt lat="43.15296" lon="3.14367">
        <ele>43.799999237061</ele>
        <time>2014-11-23T08:35:44.000Z</time>
      </trkpt>
      <trkpt lat="43.15298" lon="3.14362">
        <ele>44.200000762939</ele>
        <time>2014-11-23T08:35:46.000Z</time>
      </trkpt>
      <trkpt lat="43.15299" lon="3.1436">
        <ele>44.599998474121</ele>
        <time>2014-11-23T08:35:47.000Z</time>
      </trkpt>
      <trkpt lat="43.153" lon="3.14357">
        <ele>45</ele>
        <time>2014-11-23T08:35:48.000Z</time>
      </trkpt>
      <trkpt lat="43.15301" lon="3.14355">
        <ele>45.400001525879</ele>
        <time>2014-11-23T08:35:49.000Z</time>
      </trkpt>
      <trkpt lat="43.15302" lon="3.14353">
        <ele>46</ele>
        <time>2014-11-23T08:35:50.000Z</time>
      </trkpt>
      <trkpt lat="43.15304" lon="3.14348">
        <ele>46</ele>
        <time>2014-11-23T08:35:52.000Z</time>
      </trkpt>
      <trkpt lat="43.15309" lon="3.14337">
        <ele>46</ele>
        <time>2014-11-23T08:35:57.000Z</time>
      </trkpt>
      <trkpt lat="43.15314" lon="3.14327">
        <ele>46.400001525879</ele>
        <time>2014-11-23T08:36:01.000Z</time>
      </trkpt>
      <trkpt lat="43.15315" lon="3.14324">
        <ele>47.200000762939</ele>
        <time>2014-11-23T08:36:02.000Z</time>
      </trkpt>
      <trkpt lat="43.15315" lon="3.14322">
        <ele>47.599998474121</ele>
        <time>2014-11-23T08:36:03.000Z</time>
      </trkpt>
      <trkpt lat="43.15317" lon="3.1432">
        <ele>48</ele>
        <time>2014-11-23T08:36:04.000Z</time>
      </trkpt>
      <trkpt lat="43.15323" lon="3.14306">
        <ele>48</ele>
        <time>2014-11-23T08:36:10.000Z</time>
      </trkpt>
      <trkpt lat="43.1533" lon="3.1429">
        <ele>48.400001525879</ele>
        <time>2014-11-23T08:36:16.000Z</time>
      </trkpt>
      <trkpt lat="43.15331" lon="3.14287">
        <ele>48.799999237061</ele>
        <time>2014-11-23T08:36:17.000Z</time>
      </trkpt>
      <trkpt lat="43.15333" lon="3.14284">
        <ele>49.200000762939</ele>
        <time>2014-11-23T08:36:18.000Z</time>
      </trkpt>
      <trkpt lat="43.15334" lon="3.14282">
        <ele>49.599998474121</ele>
        <time>2014-11-23T08:36:19.000Z</time>
      </trkpt>
      <trkpt lat="43.15335" lon="3.14279">
        <ele>50.200000762939</ele>
        <time>2014-11-23T08:36:20.000Z</time>
      </trkpt>
      <trkpt lat="43.1534" lon="3.14267">
        <ele>50.200000762939</ele>
        <time>2014-11-23T08:36:25.000Z</time>
      </trkpt>
      <trkpt lat="43.15344" lon="3.14259">
        <ele>50.599998474121</ele>
        <time>2014-11-23T08:36:28.000Z</time>
      </trkpt>
      <trkpt lat="43.15345" lon="3.14256">
        <ele>51</ele>
        <time>2014-11-23T08:36:29.000Z</time>
      </trkpt>
      <trkpt lat="43.15346" lon="3.14254">
        <ele>51.400001525879</ele>
        <time>2014-11-23T08:36:30.000Z</time>
      </trkpt>
      <trkpt lat="43.15347" lon="3.14252">
        <ele>51.799999237061</ele>
        <time>2014-11-23T08:36:31.000Z</time>
      </trkpt>
      <trkpt lat="43.15348" lon="3.1425">
        <ele>52.200000762939</ele>
        <time>2014-11-23T08:36:32.000Z</time>
      </trkpt>
      <trkpt lat="43.15356" lon="3.14232">
        <ele>52.200000762939</ele>
        <time>2014-11-23T08:36:39.000Z</time>
      </trkpt>
      <trkpt lat="43.15361" lon="3.14219">
        <ele>52.599998474121</ele>
        <time>2014-11-23T08:36:44.000Z</time>
      </trkpt>
      <trkpt lat="43.15362" lon="3.14217">
        <ele>53</ele>
        <time>2014-11-23T08:36:45.000Z</time>
      </trkpt>
      <trkpt lat="43.15363" lon="3.14215">
        <ele>53.400001525879</ele>
        <time>2014-11-23T08:36:46.000Z</time>
      </trkpt>
      <trkpt lat="43.15364" lon="3.14212">
        <ele>53.799999237061</ele>
        <time>2014-11-23T08:36:47.000Z</time>
      </trkpt>
      <trkpt lat="43.15365" lon="3.1421">
        <ele>54.200000762939</ele>
        <time>2014-11-23T08:36:48.000Z</time>
      </trkpt>
      <trkpt lat="43.15373" lon="3.14192">
        <ele>54.200000762939</ele>
        <time>2014-11-23T08:36:56.000Z</time>
      </trkpt>
      <trkpt lat="43.15378" lon="3.14182">
        <ele>54.599998474121</ele>
        <time>2014-11-23T08:37:00.000Z</time>
      </trkpt>
      <trkpt lat="43.15379" lon="3.14181">
        <ele>55</ele>
        <time>2014-11-23T08:37:01.000Z</time>
      </trkpt>
      <trkpt lat="43.1538" lon="3.14178">
        <ele>55.400001525879</ele>
        <time>2014-11-23T08:37:02.000Z</time>
      </trkpt>
      <trkpt lat="43.15381" lon="3.14176">
        <ele>55.799999237061</ele>
        <time>2014-11-23T08:37:03.000Z</time>
      </trkpt>
      <trkpt lat="43.15382" lon="3.14173">
        <ele>56.200000762939</ele>
        <time>2014-11-23T08:37:04.000Z</time>
      </trkpt>
      <trkpt lat="43.15392" lon="3.14151">
        <ele>56.599998474121</ele>
        <time>2014-11-23T08:37:14.000Z</time>
      </trkpt>
      <trkpt lat="43.15393" lon="3.14149">
        <ele>57</ele>
        <time>2014-11-23T08:37:15.000Z</time>
      </trkpt>
      <trkpt lat="43.15394" lon="3.14146">
        <ele>57.799999237061</ele>
        <time>2014-11-23T08:37:16.000Z</time>
      </trkpt>
      <trkpt lat="43.15395" lon="3.14144">
        <ele>58.200000762939</ele>
        <time>2014-11-23T08:37:17.000Z</time>
      </trkpt>
      <trkpt lat="43.15403" lon="3.14127">
        <ele>58.200000762939</ele>
        <time>2014-11-23T08:37:24.000Z</time>
      </trkpt>
      <trkpt lat="43.15411" lon="3.1411">
        <ele>58.200000762939</ele>
        <time>2014-11-23T08:37:31.000Z</time>
      </trkpt>
      <trkpt lat="43.15412" lon="3.14107">
        <ele>58.599998474121</ele>
        <time>2014-11-23T08:37:32.000Z</time>
      </trkpt>
      <trkpt lat="43.15413" lon="3.14105">
        <ele>59</ele>
        <time>2014-11-23T08:37:33.000Z</time>
      </trkpt>
      <trkpt lat="43.15415" lon="3.14102">
        <ele>59.599998474121</ele>
        <time>2014-11-23T08:37:34.000Z</time>
      </trkpt>
      <trkpt lat="43.15416" lon="3.14099">
        <ele>60</ele>
        <time>2014-11-23T08:37:35.000Z</time>
      </trkpt>
      <trkpt lat="43.15417" lon="3.14096">
        <ele>60.400001525879</ele>
        <time>2014-11-23T08:37:36.000Z</time>
      </trkpt>
      <trkpt lat="43.15421" lon="3.14086">
        <ele>60.400001525879</ele>
        <time>2014-11-23T08:37:40.000Z</time>
      </trkpt>
      <trkpt lat="43.15429" lon="3.14069">
        <ele>60.400001525879</ele>
        <time>2014-11-23T08:37:46.000Z</time>
      </trkpt>
      <trkpt lat="43.15439" lon="3.14045">
        <ele>60.400001525879</ele>
        <time>2014-11-23T08:37:55.000Z</time>
      </trkpt>
      <trkpt lat="43.1544" lon="3.14039">
        <ele>60.400001525879</ele>
        <time>2014-11-23T08:37:57.000Z</time>
      </trkpt>
      <trkpt lat="43.15439" lon="3.14033">
        <ele>60.400001525879</ele>
        <time>2014-11-23T08:37:59.000Z</time>
      </trkpt>
      <trkpt lat="43.15435" lon="3.14012">
        <ele>60.400001525879</ele>
        <time>2014-11-23T08:38:05.000Z</time>
      </trkpt>
      <trkpt lat="43.15429" lon="3.13984">
        <ele>60.400001525879</ele>
        <time>2014-11-23T08:38:12.000Z</time>
      </trkpt>
      <trkpt lat="43.15425" lon="3.13954">
        <ele>60.400001525879</ele>
        <time>2014-11-23T08:38:18.000Z</time>
      </trkpt>
      <trkpt lat="43.15424" lon="3.13908">
        <ele>60.400001525879</ele>
        <time>2014-11-23T08:38:25.000Z</time>
      </trkpt>
      <trkpt lat="43.15424" lon="3.13884">
        <ele>60</ele>
        <time>2014-11-23T08:38:28.000Z</time>
      </trkpt>
      <trkpt lat="43.15423" lon="3.13876">
        <ele>59.400001525879</ele>
        <time>2014-11-23T08:38:29.000Z</time>
      </trkpt>
      <trkpt lat="43.15422" lon="3.13867">
        <ele>58.599998474121</ele>
        <time>2014-11-23T08:38:30.000Z</time>
      </trkpt>
      <trkpt lat="43.15422" lon="3.13859">
        <ele>58.200000762939</ele>
        <time>2014-11-23T08:38:31.000Z</time>
      </trkpt>
      <trkpt lat="43.1542" lon="3.13843">
        <ele>57.799999237061</ele>
        <time>2014-11-23T08:38:33.000Z</time>
      </trkpt>
      <trkpt lat="43.1542" lon="3.13834">
        <ele>57.400001525879</ele>
        <time>2014-11-23T08:38:34.000Z</time>
      </trkpt>
      <trkpt lat="43.1542" lon="3.13825">
        <ele>57</ele>
        <time>2014-11-23T08:38:35.000Z</time>
      </trkpt>
      <trkpt lat="43.15422" lon="3.13817">
        <ele>56.599998474121</ele>
        <time>2014-11-23T08:38:36.000Z</time>
      </trkpt>
      <trkpt lat="43.15424" lon="3.13809">
        <ele>56.200000762939</ele>
        <time>2014-11-23T08:38:37.000Z</time>
      </trkpt>
      <trkpt lat="43.15426" lon="3.13802">
        <ele>56.200000762939</ele>
        <time>2014-11-23T08:38:38.000Z</time>
      </trkpt>
      <trkpt lat="43.15428" lon="3.13795">
        <ele>56.200000762939</ele>
        <time>2014-11-23T08:38:39.000Z</time>
      </trkpt>
      <trkpt lat="43.15431" lon="3.13789">
        <ele>56.200000762939</ele>
        <time>2014-11-23T08:38:40.000Z</time>
      </trkpt>
      <trkpt lat="43.15437" lon="3.1377">
        <ele>56.200000762939</ele>
        <time>2014-11-23T08:38:43.000Z</time>
      </trkpt>
      <trkpt lat="43.15439" lon="3.13764">
        <ele>56.200000762939</ele>
        <time>2014-11-23T08:38:44.000Z</time>
      </trkpt>
      <trkpt lat="43.15445" lon="3.13743">
        <ele>56.200000762939</ele>
        <time>2014-11-23T08:38:48.000Z</time>
      </trkpt>
      <trkpt lat="43.15453" lon="3.13723">
        <ele>56.200000762939</ele>
        <time>2014-11-23T08:38:52.000Z</time>
      </trkpt>
      <trkpt lat="43.15455" lon="3.13714">
        <ele>56.200000762939</ele>
        <time>2014-11-23T08:38:54.000Z</time>
      </trkpt>
      <trkpt lat="43.15453" lon="3.137">
        <ele>56.200000762939</ele>
        <time>2014-11-23T08:38:57.000Z</time>
      </trkpt>
      <trkpt lat="43.15444" lon="3.13678">
        <ele>56.200000762939</ele>
        <time>2014-11-23T08:39:02.000Z</time>
      </trkpt>
      <trkpt lat="43.1543" lon="3.13666">
        <ele>56.200000762939</ele>
        <time>2014-11-23T08:39:06.000Z</time>
      </trkpt>
      <trkpt lat="43.15426" lon="3.13663">
        <ele>56.200000762939</ele>
        <time>2014-11-23T08:39:07.000Z</time>
      </trkpt>
      <trkpt lat="43.15418" lon="3.13657">
        <ele>56.200000762939</ele>
        <time>2014-11-23T08:39:09.000Z</time>
      </trkpt>
      <trkpt lat="43.15405" lon="3.13653">
        <ele>56.200000762939</ele>
        <time>2014-11-23T08:39:12.000Z</time>
      </trkpt>
      <trkpt lat="43.15394" lon="3.13654">
        <ele>56.200000762939</ele>
        <time>2014-11-23T08:39:17.000Z</time>
      </trkpt>
      <trkpt lat="43.15392" lon="3.13654">
        <ele>56.200000762939</ele>
        <time>2014-11-23T08:39:19.000Z</time>
      </trkpt>
      <trkpt lat="43.15395" lon="3.13654">
        <ele>56.200000762939</ele>
        <time>2014-11-23T08:39:27.000Z</time>
      </trkpt>
      <trkpt lat="43.15397" lon="3.13654">
        <ele>56.200000762939</ele>
        <time>2014-11-23T08:39:28.000Z</time>
      </trkpt>
      <trkpt lat="43.15413" lon="3.13655">
        <ele>56.200000762939</ele>
        <time>2014-11-23T08:39:32.000Z</time>
      </trkpt>
      <trkpt lat="43.15428" lon="3.13664">
        <ele>56.200000762939</ele>
        <time>2014-11-23T08:39:36.000Z</time>
      </trkpt>
      <trkpt lat="43.1543" lon="3.13667">
        <ele>56.200000762939</ele>
        <time>2014-11-23T08:39:37.000Z</time>
      </trkpt>
      <trkpt lat="43.15435" lon="3.1367">
        <ele>56.200000762939</ele>
        <time>2014-11-23T08:39:39.000Z</time>
      </trkpt>
      <trkpt lat="43.15439" lon="3.13673">
        <ele>56.200000762939</ele>
        <time>2014-11-23T08:39:41.000Z</time>
      </trkpt>
      <trkpt lat="43.1544" lon="3.13674">
        <ele>56.200000762939</ele>
        <time>2014-11-23T08:39:42.000Z</time>
      </trkpt>
      <trkpt lat="43.15444" lon="3.13682">
        <ele>56.200000762939</ele>
        <time>2014-11-23T08:39:45.000Z</time>
      </trkpt>
      <trkpt lat="43.1545" lon="3.13691">
        <ele>56.200000762939</ele>
        <time>2014-11-23T08:39:49.000Z</time>
      </trkpt>
      <trkpt lat="43.15453" lon="3.137">
        <ele>56.200000762939</ele>
        <time>2014-11-23T08:39:53.000Z</time>
      </trkpt>
      <trkpt lat="43.15454" lon="3.13701">
        <ele>56.200000762939</ele>
        <time>2014-11-23T08:39:57.000Z</time>
      </trkpt>
      <trkpt lat="43.1546" lon="3.137">
        <ele>56.200000762939</ele>
        <time>2014-11-23T08:40:01.000Z</time>
      </trkpt>
      <trkpt lat="43.15457" lon="3.13693">
        <ele>56.200000762939</ele>
        <time>2014-11-23T08:40:06.000Z</time>
      </trkpt>
      <trkpt lat="43.15452" lon="3.13697">
        <ele>56.200000762939</ele>
        <time>2014-11-23T08:40:09.000Z</time>
      </trkpt>
      <trkpt lat="43.15456" lon="3.13703">
        <ele>56.200000762939</ele>
        <time>2014-11-23T08:40:12.000Z</time>
      </trkpt>
      <trkpt lat="43.15467" lon="3.13707">
        <ele>56.200000762939</ele>
        <time>2014-11-23T08:40:17.000Z</time>
      </trkpt>
      <trkpt lat="43.1547" lon="3.13709">
        <ele>56.200000762939</ele>
        <time>2014-11-23T08:40:18.000Z</time>
      </trkpt>
      <trkpt lat="43.15473" lon="3.13714">
        <ele>56.200000762939</ele>
        <time>2014-11-23T08:40:20.000Z</time>
      </trkpt>
      <trkpt lat="43.15475" lon="3.13713">
        <ele>56.200000762939</ele>
        <time>2014-11-23T08:40:21.000Z</time>
      </trkpt>
      <trkpt lat="43.15474" lon="3.1371">
        <ele>56.200000762939</ele>
        <time>2014-11-23T08:40:24.000Z</time>
      </trkpt>
      <trkpt lat="43.15473" lon="3.13711">
        <ele>56.200000762939</ele>
        <time>2014-11-23T08:40:25.000Z</time>
      </trkpt>
      <trkpt lat="43.15472" lon="3.13711">
        <ele>56.200000762939</ele>
        <time>2014-11-23T08:40:27.000Z</time>
      </trkpt>
      <trkpt lat="43.15469" lon="3.13709">
        <ele>56.200000762939</ele>
        <time>2014-11-23T08:40:29.000Z</time>
      </trkpt>
      <trkpt lat="43.15462" lon="3.13699">
        <ele>56.200000762939</ele>
        <time>2014-11-23T08:40:34.000Z</time>
      </trkpt>
      <trkpt lat="43.15462" lon="3.13698">
        <ele>56.200000762939</ele>
        <time>2014-11-23T08:40:35.000Z</time>
      </trkpt>
      <trkpt lat="43.15462" lon="3.13697">
        <ele>56.200000762939</ele>
        <time>2014-11-23T08:40:37.000Z</time>
      </trkpt>
      <trkpt lat="43.15463" lon="3.13694">
        <ele>56.200000762939</ele>
        <time>2014-11-23T08:40:38.000Z</time>
      </trkpt>
      <trkpt lat="43.15466" lon="3.13675">
        <ele>56.200000762939</ele>
        <time>2014-11-23T08:40:43.000Z</time>
      </trkpt>
      <trkpt lat="43.15466" lon="3.13673">
        <ele>56.200000762939</ele>
        <time>2014-11-23T08:40:45.000Z</time>
      </trkpt>
      <trkpt lat="43.15466" lon="3.13678">
        <ele>56.200000762939</ele>
        <time>2014-11-23T08:40:51.000Z</time>
      </trkpt>
      <trkpt lat="43.15465" lon="3.13691">
        <ele>56.200000762939</ele>
        <time>2014-11-23T08:40:55.000Z</time>
      </trkpt>
      <trkpt lat="43.15463" lon="3.13697">
        <ele>56.200000762939</ele>
        <time>2014-11-23T08:40:57.000Z</time>
      </trkpt>
      <trkpt lat="43.15458" lon="3.13698">
        <ele>56.200000762939</ele>
        <time>2014-11-23T08:40:59.000Z</time>
      </trkpt>
      <trkpt lat="43.15454" lon="3.13689">
        <ele>56.200000762939</ele>
        <time>2014-11-23T08:41:02.000Z</time>
      </trkpt>
      <trkpt lat="43.15453" lon="3.13686">
        <ele>56.200000762939</ele>
        <time>2014-11-23T08:41:03.000Z</time>
      </trkpt>
      <trkpt lat="43.15441" lon="3.13675">
        <ele>56.200000762939</ele>
        <time>2014-11-23T08:41:08.000Z</time>
      </trkpt>
      <trkpt lat="43.15425" lon="3.1366">
        <ele>56.200000762939</ele>
        <time>2014-11-23T08:41:13.000Z</time>
      </trkpt>
      <trkpt lat="43.15421" lon="3.13658">
        <ele>56.200000762939</ele>
        <time>2014-11-23T08:41:14.000Z</time>
      </trkpt>
      <trkpt lat="43.15409" lon="3.13653">
        <ele>56.200000762939</ele>
        <time>2014-11-23T08:41:19.000Z</time>
      </trkpt>
      <trkpt lat="43.15409" lon="3.13653">
        <ele>56.200000762939</ele>
        <time>2014-11-23T08:41:21.000Z</time>
      </trkpt>
      <trkpt lat="43.15411" lon="3.13654">
        <ele>56.200000762939</ele>
        <time>2014-11-23T08:41:23.000Z</time>
      </trkpt>
      <trkpt lat="43.15413" lon="3.13656">
        <ele>56.200000762939</ele>
        <time>2014-11-23T08:41:25.000Z</time>
      </trkpt>
      <trkpt lat="43.15417" lon="3.13658">
        <ele>56.200000762939</ele>
        <time>2014-11-23T08:41:27.000Z</time>
      </trkpt>
      <trkpt lat="43.15428" lon="3.13665">
        <ele>56.200000762939</ele>
        <time>2014-11-23T08:41:31.000Z</time>
      </trkpt>
      <trkpt lat="43.15431" lon="3.13668">
        <ele>56.200000762939</ele>
        <time>2014-11-23T08:41:32.000Z</time>
      </trkpt>
      <trkpt lat="43.1544" lon="3.13676">
        <ele>56.200000762939</ele>
        <time>2014-11-23T08:41:37.000Z</time>
      </trkpt>
      <trkpt lat="43.1545" lon="3.13693">
        <ele>56.200000762939</ele>
        <time>2014-11-23T08:41:43.000Z</time>
      </trkpt>
      <trkpt lat="43.15457" lon="3.13701">
        <ele>56.200000762939</ele>
        <time>2014-11-23T08:41:47.000Z</time>
      </trkpt>
      <trkpt lat="43.15459" lon="3.13701">
        <ele>56.200000762939</ele>
        <time>2014-11-23T08:41:48.000Z</time>
      </trkpt>
      <trkpt lat="43.15464" lon="3.13694">
        <ele>56.200000762939</ele>
        <time>2014-11-23T08:41:52.000Z</time>
      </trkpt>
      <trkpt lat="43.15465" lon="3.13684">
        <ele>56.200000762939</ele>
        <time>2014-11-23T08:41:55.000Z</time>
      </trkpt>
      <trkpt lat="43.15466" lon="3.13673">
        <ele>56.200000762939</ele>
        <time>2014-11-23T08:41:58.000Z</time>
      </trkpt>
      <trkpt lat="43.15468" lon="3.13648">
        <ele>56.200000762939</ele>
        <time>2014-11-23T08:42:05.000Z</time>
      </trkpt>
      <trkpt lat="43.1547" lon="3.13628">
        <ele>56.599998474121</ele>
        <time>2014-11-23T08:42:11.000Z</time>
      </trkpt>
      <trkpt lat="43.15471" lon="3.13626">
        <ele>57.400001525879</ele>
        <time>2014-11-23T08:42:12.000Z</time>
      </trkpt>
      <trkpt lat="43.15471" lon="3.13623">
        <ele>57.799999237061</ele>
        <time>2014-11-23T08:42:13.000Z</time>
      </trkpt>
      <trkpt lat="43.15471" lon="3.13621">
        <ele>58.200000762939</ele>
        <time>2014-11-23T08:42:14.000Z</time>
      </trkpt>
      <trkpt lat="43.15471" lon="3.13617">
        <ele>58.200000762939</ele>
        <time>2014-11-23T08:42:16.000Z</time>
      </trkpt>
      <trkpt lat="43.15472" lon="3.13614">
        <ele>58.200000762939</ele>
        <time>2014-11-23T08:42:26.000Z</time>
      </trkpt>
      <trkpt lat="43.15472" lon="3.13612">
        <ele>58.200000762939</ele>
        <time>2014-11-23T08:42:27.000Z</time>
      </trkpt>
      <trkpt lat="43.15474" lon="3.13589">
        <ele>58.200000762939</ele>
        <time>2014-11-23T08:42:33.000Z</time>
      </trkpt>
      <trkpt lat="43.15475" lon="3.13585">
        <ele>58.200000762939</ele>
        <time>2014-11-23T08:42:34.000Z</time>
      </trkpt>
      <trkpt lat="43.15481" lon="3.13579">
        <ele>58.200000762939</ele>
        <time>2014-11-23T08:42:37.000Z</time>
      </trkpt>
      <trkpt lat="43.15485" lon="3.13579">
        <ele>58.200000762939</ele>
        <time>2014-11-23T08:42:39.000Z</time>
      </trkpt>
      <trkpt lat="43.15488" lon="3.1358">
        <ele>58.200000762939</ele>
        <time>2014-11-23T08:42:40.000Z</time>
      </trkpt>
      <trkpt lat="43.1549" lon="3.13582">
        <ele>58.200000762939</ele>
        <time>2014-11-23T08:42:41.000Z</time>
      </trkpt>
      <trkpt lat="43.15494" lon="3.13581">
        <ele>58.200000762939</ele>
        <time>2014-11-23T08:42:44.000Z</time>
      </trkpt>
      <trkpt lat="43.15488" lon="3.13577">
        <ele>58.200000762939</ele>
        <time>2014-11-23T08:42:48.000Z</time>
      </trkpt>
      <trkpt lat="43.1548" lon="3.13571">
        <ele>58.200000762939</ele>
        <time>2014-11-23T08:42:51.000Z</time>
      </trkpt>
      <trkpt lat="43.1548" lon="3.13562">
        <ele>58.200000762939</ele>
        <time>2014-11-23T08:42:54.000Z</time>
      </trkpt>
      <trkpt lat="43.15481" lon="3.13545">
        <ele>58.200000762939</ele>
        <time>2014-11-23T08:43:00.000Z</time>
      </trkpt>
      <trkpt lat="43.15481" lon="3.13534">
        <ele>58.599998474121</ele>
        <time>2014-11-23T08:43:03.000Z</time>
      </trkpt>
      <trkpt lat="43.15481" lon="3.13531">
        <ele>59</ele>
        <time>2014-11-23T08:43:04.000Z</time>
      </trkpt>
      <trkpt lat="43.15482" lon="3.13528">
        <ele>59.400001525879</ele>
        <time>2014-11-23T08:43:05.000Z</time>
      </trkpt>
      <trkpt lat="43.15482" lon="3.13525">
        <ele>59.799999237061</ele>
        <time>2014-11-23T08:43:06.000Z</time>
      </trkpt>
      <trkpt lat="43.15483" lon="3.13521">
        <ele>60.200000762939</ele>
        <time>2014-11-23T08:43:07.000Z</time>
      </trkpt>
      <trkpt lat="43.15483" lon="3.13518">
        <ele>60.200000762939</ele>
        <time>2014-11-23T08:43:08.000Z</time>
      </trkpt>
      <trkpt lat="43.15483" lon="3.13513">
        <ele>60.200000762939</ele>
        <time>2014-11-23T08:43:10.000Z</time>
      </trkpt>
      <trkpt lat="43.15479" lon="3.13508">
        <ele>60.200000762939</ele>
        <time>2014-11-23T08:43:12.000Z</time>
      </trkpt>
      <trkpt lat="43.15471" lon="3.13504">
        <ele>60.200000762939</ele>
        <time>2014-11-23T08:43:14.000Z</time>
      </trkpt>
      <trkpt lat="43.15468" lon="3.13502">
        <ele>60.200000762939</ele>
        <time>2014-11-23T08:43:15.000Z</time>
      </trkpt>
      <trkpt lat="43.15464" lon="3.135">
        <ele>60.200000762939</ele>
        <time>2014-11-23T08:43:16.000Z</time>
      </trkpt>
      <trkpt lat="43.1546" lon="3.13498">
        <ele>60.200000762939</ele>
        <time>2014-11-23T08:43:17.000Z</time>
      </trkpt>
      <trkpt lat="43.15442" lon="3.13491">
        <ele>60.200000762939</ele>
        <time>2014-11-23T08:43:22.000Z</time>
      </trkpt>
      <trkpt lat="43.15424" lon="3.13483">
        <ele>60.200000762939</ele>
        <time>2014-11-23T08:43:28.000Z</time>
      </trkpt>
      <trkpt lat="43.1542" lon="3.13479">
        <ele>60.200000762939</ele>
        <time>2014-11-23T08:43:31.000Z</time>
      </trkpt>
      <trkpt lat="43.15412" lon="3.13472">
        <ele>60.200000762939</ele>
        <time>2014-11-23T08:43:36.000Z</time>
      </trkpt>
      <trkpt lat="43.15412" lon="3.13471">
        <ele>60.200000762939</ele>
        <time>2014-11-23T08:43:37.000Z</time>
      </trkpt>
      <trkpt lat="43.15412" lon="3.13471">
        <ele>60.200000762939</ele>
        <time>2014-11-23T08:43:56.000Z</time>
      </trkpt>
      <trkpt lat="43.1541" lon="3.13471">
        <ele>60.200000762939</ele>
        <time>2014-11-23T08:43:57.000Z</time>
      </trkpt>
      <trkpt lat="43.15404" lon="3.13469">
        <ele>60.200000762939</ele>
        <time>2014-11-23T08:44:00.000Z</time>
      </trkpt>
      <trkpt lat="43.15402" lon="3.13473">
        <ele>60.200000762939</ele>
        <time>2014-11-23T08:44:02.000Z</time>
      </trkpt>
      <trkpt lat="43.15392" lon="3.13475">
        <ele>60.200000762939</ele>
        <time>2014-11-23T08:44:05.000Z</time>
      </trkpt>
      <trkpt lat="43.15389" lon="3.13476">
        <ele>60.200000762939</ele>
        <time>2014-11-23T08:44:06.000Z</time>
      </trkpt>
      <trkpt lat="43.1537" lon="3.13476">
        <ele>60.200000762939</ele>
        <time>2014-11-23T08:44:11.000Z</time>
      </trkpt>
      <trkpt lat="43.15366" lon="3.13475">
        <ele>60.200000762939</ele>
        <time>2014-11-23T08:44:12.000Z</time>
      </trkpt>
      <trkpt lat="43.15354" lon="3.13471">
        <ele>60.200000762939</ele>
        <time>2014-11-23T08:44:15.000Z</time>
      </trkpt>
      <trkpt lat="43.15345" lon="3.13467">
        <ele>60.200000762939</ele>
        <time>2014-11-23T08:44:17.000Z</time>
      </trkpt>
      <trkpt lat="43.15336" lon="3.13463">
        <ele>59.799999237061</ele>
        <time>2014-11-23T08:44:19.000Z</time>
      </trkpt>
      <trkpt lat="43.15333" lon="3.13463">
        <ele>59.400001525879</ele>
        <time>2014-11-23T08:44:20.000Z</time>
      </trkpt>
      <trkpt lat="43.15329" lon="3.13461">
        <ele>59</ele>
        <time>2014-11-23T08:44:21.000Z</time>
      </trkpt>
      <trkpt lat="43.15326" lon="3.1346">
        <ele>58.599998474121</ele>
        <time>2014-11-23T08:44:22.000Z</time>
      </trkpt>
      <trkpt lat="43.15323" lon="3.13458">
        <ele>58.200000762939</ele>
        <time>2014-11-23T08:44:23.000Z</time>
      </trkpt>
      <trkpt lat="43.15311" lon="3.13454">
        <ele>57.799999237061</ele>
        <time>2014-11-23T08:44:26.000Z</time>
      </trkpt>
      <trkpt lat="43.15307" lon="3.13453">
        <ele>57.400001525879</ele>
        <time>2014-11-23T08:44:27.000Z</time>
      </trkpt>
      <trkpt lat="43.15302" lon="3.13453">
        <ele>57</ele>
        <time>2014-11-23T08:44:28.000Z</time>
      </trkpt>
      <trkpt lat="43.15298" lon="3.13452">
        <ele>56.599998474121</ele>
        <time>2014-11-23T08:44:29.000Z</time>
      </trkpt>
      <trkpt lat="43.15294" lon="3.13451">
        <ele>56.200000762939</ele>
        <time>2014-11-23T08:44:30.000Z</time>
      </trkpt>
      <trkpt lat="43.15286" lon="3.13447">
        <ele>56.200000762939</ele>
        <time>2014-11-23T08:44:32.000Z</time>
      </trkpt>
      <trkpt lat="43.15283" lon="3.13447">
        <ele>55.599998474121</ele>
        <time>2014-11-23T08:44:33.000Z</time>
      </trkpt>
      <trkpt lat="43.1528" lon="3.13445">
        <ele>55.200000762939</ele>
        <time>2014-11-23T08:44:34.000Z</time>
      </trkpt>
      <trkpt lat="43.15277" lon="3.13443">
        <ele>54.799999237061</ele>
        <time>2014-11-23T08:44:35.000Z</time>
      </trkpt>
      <trkpt lat="43.15274" lon="3.13441">
        <ele>54.200000762939</ele>
        <time>2014-11-23T08:44:36.000Z</time>
      </trkpt>
      <trkpt lat="43.15271" lon="3.13441">
        <ele>53.799999237061</ele>
        <time>2014-11-23T08:44:37.000Z</time>
      </trkpt>
      <trkpt lat="43.15268" lon="3.1344">
        <ele>53.200000762939</ele>
        <time>2014-11-23T08:44:38.000Z</time>
      </trkpt>
      <trkpt lat="43.15266" lon="3.1344">
        <ele>52.599998474121</ele>
        <time>2014-11-23T08:44:39.000Z</time>
      </trkpt>
      <trkpt lat="43.15264" lon="3.13439">
        <ele>52</ele>
        <time>2014-11-23T08:44:40.000Z</time>
      </trkpt>
      <trkpt lat="43.15263" lon="3.13437">
        <ele>51.599998474121</ele>
        <time>2014-11-23T08:44:41.000Z</time>
      </trkpt>
      <trkpt lat="43.15261" lon="3.13433">
        <ele>51.599998474121</ele>
        <time>2014-11-23T08:44:43.000Z</time>
      </trkpt>
      <trkpt lat="43.15258" lon="3.13432">
        <ele>51.200000762939</ele>
        <time>2014-11-23T08:44:45.000Z</time>
      </trkpt>
      <trkpt lat="43.15256" lon="3.13433">
        <ele>50.599998474121</ele>
        <time>2014-11-23T08:44:46.000Z</time>
      </trkpt>
      <trkpt lat="43.15253" lon="3.13433">
        <ele>50.200000762939</ele>
        <time>2014-11-23T08:44:47.000Z</time>
      </trkpt>
      <trkpt lat="43.1525" lon="3.13432">
        <ele>49.799999237061</ele>
        <time>2014-11-23T08:44:48.000Z</time>
      </trkpt>
      <trkpt lat="43.15249" lon="3.13432">
        <ele>49.400001525879</ele>
        <time>2014-11-23T08:44:49.000Z</time>
      </trkpt>
      <trkpt lat="43.15247" lon="3.13433">
        <ele>49.400001525879</ele>
        <time>2014-11-23T08:44:50.000Z</time>
      </trkpt>
      <trkpt lat="43.15246" lon="3.13432">
        <ele>49.400001525879</ele>
        <time>2014-11-23T08:44:51.000Z</time>
      </trkpt>
      <trkpt lat="43.15246" lon="3.13432">
        <ele>49</ele>
        <time>2014-11-23T08:44:52.000Z</time>
      </trkpt>
      <trkpt lat="43.15246" lon="3.13431">
        <ele>48.599998474121</ele>
        <time>2014-11-23T08:44:53.000Z</time>
      </trkpt>
      <trkpt lat="43.15246" lon="3.1343">
        <ele>48.200000762939</ele>
        <time>2014-11-23T08:44:54.000Z</time>
      </trkpt>
      <trkpt lat="43.15246" lon="3.13429">
        <ele>47.799999237061</ele>
        <time>2014-11-23T08:44:55.000Z</time>
      </trkpt>
      <trkpt lat="43.15245" lon="3.13427">
        <ele>47.400001525879</ele>
        <time>2014-11-23T08:44:56.000Z</time>
      </trkpt>
      <trkpt lat="43.15244" lon="3.13426">
        <ele>47.400001525879</ele>
        <time>2014-11-23T08:44:57.000Z</time>
      </trkpt>
      <trkpt lat="43.15238" lon="3.13426">
        <ele>47.400001525879</ele>
        <time>2014-11-23T08:44:59.000Z</time>
      </trkpt>
      <trkpt lat="43.15225" lon="3.13431">
        <ele>46.799999237061</ele>
        <time>2014-11-23T08:45:03.000Z</time>
      </trkpt>
      <trkpt lat="43.15221" lon="3.13431">
        <ele>46.400001525879</ele>
        <time>2014-11-23T08:45:04.000Z</time>
      </trkpt>
      <trkpt lat="43.15218" lon="3.13431">
        <ele>46</ele>
        <time>2014-11-23T08:45:05.000Z</time>
      </trkpt>
      <trkpt lat="43.15214" lon="3.13428">
        <ele>45.200000762939</ele>
        <time>2014-11-23T08:45:06.000Z</time>
      </trkpt>
      <trkpt lat="43.15209" lon="3.1342">
        <ele>44.799999237061</ele>
        <time>2014-11-23T08:45:08.000Z</time>
      </trkpt>
      <trkpt lat="43.15207" lon="3.13416">
        <ele>44.400001525879</ele>
        <time>2014-11-23T08:45:09.000Z</time>
      </trkpt>
      <trkpt lat="43.15205" lon="3.13413">
        <ele>43.799999237061</ele>
        <time>2014-11-23T08:45:10.000Z</time>
      </trkpt>
      <trkpt lat="43.15202" lon="3.1341">
        <ele>43.400001525879</ele>
        <time>2014-11-23T08:45:11.000Z</time>
      </trkpt>
      <trkpt lat="43.15199" lon="3.13407">
        <ele>43</ele>
        <time>2014-11-23T08:45:12.000Z</time>
      </trkpt>
      <trkpt lat="43.15192" lon="3.13405">
        <ele>43</ele>
        <time>2014-11-23T08:45:14.000Z</time>
      </trkpt>
      <trkpt lat="43.15173" lon="3.13408">
        <ele>42.599998474121</ele>
        <time>2014-11-23T08:45:18.000Z</time>
      </trkpt>
      <trkpt lat="43.15168" lon="3.13408">
        <ele>42.200000762939</ele>
        <time>2014-11-23T08:45:19.000Z</time>
      </trkpt>
      <trkpt lat="43.15163" lon="3.13406">
        <ele>41.599998474121</ele>
        <time>2014-11-23T08:45:20.000Z</time>
      </trkpt>
      <trkpt lat="43.1516" lon="3.13404">
        <ele>41.200000762939</ele>
        <time>2014-11-23T08:45:21.000Z</time>
      </trkpt>
      <trkpt lat="43.15157" lon="3.13401">
        <ele>40.799999237061</ele>
        <time>2014-11-23T08:45:22.000Z</time>
      </trkpt>
      <trkpt lat="43.15155" lon="3.13399">
        <ele>40.200000762939</ele>
        <time>2014-11-23T08:45:23.000Z</time>
      </trkpt>
      <trkpt lat="43.15153" lon="3.13398">
        <ele>39.799999237061</ele>
        <time>2014-11-23T08:45:24.000Z</time>
      </trkpt>
      <trkpt lat="43.1515" lon="3.13397">
        <ele>39.200000762939</ele>
        <time>2014-11-23T08:45:25.000Z</time>
      </trkpt>
      <trkpt lat="43.15148" lon="3.13396">
        <ele>38.799999237061</ele>
        <time>2014-11-23T08:45:26.000Z</time>
      </trkpt>
      <trkpt lat="43.15146" lon="3.13396">
        <ele>38.799999237061</ele>
        <time>2014-11-23T08:45:27.000Z</time>
      </trkpt>
      <trkpt lat="43.15143" lon="3.13398">
        <ele>38.799999237061</ele>
        <time>2014-11-23T08:45:30.000Z</time>
      </trkpt>
      <trkpt lat="43.15139" lon="3.13401">
        <ele>38.200000762939</ele>
        <time>2014-11-23T08:45:32.000Z</time>
      </trkpt>
      <trkpt lat="43.15135" lon="3.134">
        <ele>37.799999237061</ele>
        <time>2014-11-23T08:45:33.000Z</time>
      </trkpt>
      <trkpt lat="43.15131" lon="3.13399">
        <ele>37.400001525879</ele>
        <time>2014-11-23T08:45:34.000Z</time>
      </trkpt>
      <trkpt lat="43.15128" lon="3.13398">
        <ele>37</ele>
        <time>2014-11-23T08:45:35.000Z</time>
      </trkpt>
      <trkpt lat="43.15125" lon="3.13398">
        <ele>36.599998474121</ele>
        <time>2014-11-23T08:45:36.000Z</time>
      </trkpt>
      <trkpt lat="43.1512" lon="3.13397">
        <ele>36.599998474121</ele>
        <time>2014-11-23T08:45:38.000Z</time>
      </trkpt>
      <trkpt lat="43.15118" lon="3.13396">
        <ele>36.599998474121</ele>
        <time>2014-11-23T08:45:39.000Z</time>
      </trkpt>
      <trkpt lat="43.15115" lon="3.13387">
        <ele>36.200000762939</ele>
        <time>2014-11-23T08:45:42.000Z</time>
      </trkpt>
      <trkpt lat="43.15115" lon="3.13385">
        <ele>35.799999237061</ele>
        <time>2014-11-23T08:45:43.000Z</time>
      </trkpt>
      <trkpt lat="43.15116" lon="3.13384">
        <ele>35.400001525879</ele>
        <time>2014-11-23T08:45:44.000Z</time>
      </trkpt>
      <trkpt lat="43.15116" lon="3.13382">
        <ele>35</ele>
        <time>2014-11-23T08:45:45.000Z</time>
      </trkpt>
      <trkpt lat="43.15116" lon="3.1338">
        <ele>34.599998474121</ele>
        <time>2014-11-23T08:45:46.000Z</time>
      </trkpt>
      <trkpt lat="43.15116" lon="3.1337">
        <ele>34.599998474121</ele>
        <time>2014-11-23T08:45:51.000Z</time>
      </trkpt>
      <trkpt lat="43.15116" lon="3.13367">
        <ele>34.599998474121</ele>
        <time>2014-11-23T08:46:07.000Z</time>
      </trkpt>
      <trkpt lat="43.15117" lon="3.13364">
        <ele>34.599998474121</ele>
        <time>2014-11-23T08:46:08.000Z</time>
      </trkpt>
      <trkpt lat="43.15119" lon="3.13361">
        <ele>34.599998474121</ele>
        <time>2014-11-23T08:46:09.000Z</time>
      </trkpt>
      <trkpt lat="43.15124" lon="3.13351">
        <ele>34.599998474121</ele>
        <time>2014-11-23T08:46:13.000Z</time>
      </trkpt>
      <trkpt lat="43.15123" lon="3.13345">
        <ele>34.599998474121</ele>
        <time>2014-11-23T08:46:15.000Z</time>
      </trkpt>
      <trkpt lat="43.15121" lon="3.13342">
        <ele>34</ele>
        <time>2014-11-23T08:46:16.000Z</time>
      </trkpt>
      <trkpt lat="43.15118" lon="3.13338">
        <ele>33.599998474121</ele>
        <time>2014-11-23T08:46:17.000Z</time>
      </trkpt>
      <trkpt lat="43.15115" lon="3.13335">
        <ele>33.200000762939</ele>
        <time>2014-11-23T08:46:18.000Z</time>
      </trkpt>
      <trkpt lat="43.15113" lon="3.13332">
        <ele>32.799999237061</ele>
        <time>2014-11-23T08:46:19.000Z</time>
      </trkpt>
      <trkpt lat="43.15111" lon="3.1333">
        <ele>32.400001525879</ele>
        <time>2014-11-23T08:46:20.000Z</time>
      </trkpt>
      <trkpt lat="43.15107" lon="3.13327">
        <ele>32.400001525879</ele>
        <time>2014-11-23T08:46:22.000Z</time>
      </trkpt>
      <trkpt lat="43.151" lon="3.13326">
        <ele>32.400001525879</ele>
        <time>2014-11-23T08:46:24.000Z</time>
      </trkpt>
      <trkpt lat="43.15091" lon="3.13326">
        <ele>32.400001525879</ele>
        <time>2014-11-23T08:46:28.000Z</time>
      </trkpt>
      <trkpt lat="43.15086" lon="3.13324">
        <ele>32.400001525879</ele>
        <time>2014-11-23T08:46:30.000Z</time>
      </trkpt>
      <trkpt lat="43.15084" lon="3.13324">
        <ele>32.799999237061</ele>
        <time>2014-11-23T08:46:31.000Z</time>
      </trkpt>
      <trkpt lat="43.15082" lon="3.13325">
        <ele>33.200000762939</ele>
        <time>2014-11-23T08:46:32.000Z</time>
      </trkpt>
      <trkpt lat="43.1508" lon="3.13326">
        <ele>33.599998474121</ele>
        <time>2014-11-23T08:46:33.000Z</time>
      </trkpt>
      <trkpt lat="43.15078" lon="3.13329">
        <ele>34</ele>
        <time>2014-11-23T08:46:34.000Z</time>
      </trkpt>
      <trkpt lat="43.15076" lon="3.13331">
        <ele>34.400001525879</ele>
        <time>2014-11-23T08:46:35.000Z</time>
      </trkpt>
      <trkpt lat="43.15066" lon="3.13343">
        <ele>34.400001525879</ele>
        <time>2014-11-23T08:46:39.000Z</time>
      </trkpt>
      <trkpt lat="43.15056" lon="3.13354">
        <ele>34.400001525879</ele>
        <time>2014-11-23T08:46:42.000Z</time>
      </trkpt>
      <trkpt lat="43.15049" lon="3.1336">
        <ele>34.400001525879</ele>
        <time>2014-11-23T08:46:44.000Z</time>
      </trkpt>
      <trkpt lat="43.15034" lon="3.13365">
        <ele>34</ele>
        <time>2014-11-23T08:46:48.000Z</time>
      </trkpt>
      <trkpt lat="43.1503" lon="3.13365">
        <ele>33.599998474121</ele>
        <time>2014-11-23T08:46:49.000Z</time>
      </trkpt>
      <trkpt lat="43.15027" lon="3.13365">
        <ele>33.200000762939</ele>
        <time>2014-11-23T08:46:50.000Z</time>
      </trkpt>
      <trkpt lat="43.15023" lon="3.13364">
        <ele>32.599998474121</ele>
        <time>2014-11-23T08:46:51.000Z</time>
      </trkpt>
      <trkpt lat="43.15019" lon="3.13362">
        <ele>32.200000762939</ele>
        <time>2014-11-23T08:46:52.000Z</time>
      </trkpt>
      <trkpt lat="43.15011" lon="3.13357">
        <ele>32.200000762939</ele>
        <time>2014-11-23T08:46:54.000Z</time>
      </trkpt>
      <trkpt lat="43.15003" lon="3.13346">
        <ele>32.200000762939</ele>
        <time>2014-11-23T08:46:58.000Z</time>
      </trkpt>
      <trkpt lat="43.15001" lon="3.13344">
        <ele>32.200000762939</ele>
        <time>2014-11-23T08:46:59.000Z</time>
      </trkpt>
      <trkpt lat="43.14996" lon="3.13339">
        <ele>32.200000762939</ele>
        <time>2014-11-23T08:47:02.000Z</time>
      </trkpt>
      <trkpt lat="43.14983" lon="3.13329">
        <ele>32.200000762939</ele>
        <time>2014-11-23T08:47:07.000Z</time>
      </trkpt>
      <trkpt lat="43.14977" lon="3.13321">
        <ele>32.200000762939</ele>
        <time>2014-11-23T08:47:09.000Z</time>
      </trkpt>
      <trkpt lat="43.14972" lon="3.13314">
        <ele>32.200000762939</ele>
        <time>2014-11-23T08:47:11.000Z</time>
      </trkpt>
      <trkpt lat="43.14963" lon="3.13315">
        <ele>31.799999237061</ele>
        <time>2014-11-23T08:47:14.000Z</time>
      </trkpt>
      <trkpt lat="43.14959" lon="3.13316">
        <ele>31.39999961853</ele>
        <time>2014-11-23T08:47:15.000Z</time>
      </trkpt>
      <trkpt lat="43.14955" lon="3.13317">
        <ele>31</ele>
        <time>2014-11-23T08:47:16.000Z</time>
      </trkpt>
      <trkpt lat="43.1495" lon="3.13317">
        <ele>30.60000038147</ele>
        <time>2014-11-23T08:47:17.000Z</time>
      </trkpt>
      <trkpt lat="43.14946" lon="3.13317">
        <ele>30.200000762939</ele>
        <time>2014-11-23T08:47:18.000Z</time>
      </trkpt>
      <trkpt lat="43.14942" lon="3.13317">
        <ele>30.200000762939</ele>
        <time>2014-11-23T08:47:19.000Z</time>
      </trkpt>
      <trkpt lat="43.14938" lon="3.13316">
        <ele>29.60000038147</ele>
        <time>2014-11-23T08:47:20.000Z</time>
      </trkpt>
      <trkpt lat="43.14935" lon="3.13316">
        <ele>29.200000762939</ele>
        <time>2014-11-23T08:47:21.000Z</time>
      </trkpt>
      <trkpt lat="43.14932" lon="3.13314">
        <ele>28.799999237061</ele>
        <time>2014-11-23T08:47:22.000Z</time>
      </trkpt>
      <trkpt lat="43.14929" lon="3.13312">
        <ele>28.39999961853</ele>
        <time>2014-11-23T08:47:23.000Z</time>
      </trkpt>
      <trkpt lat="43.14927" lon="3.1331">
        <ele>27.799999237061</ele>
        <time>2014-11-23T08:47:24.000Z</time>
      </trkpt>
      <trkpt lat="43.14922" lon="3.13303">
        <ele>27.799999237061</ele>
        <time>2014-11-23T08:47:27.000Z</time>
      </trkpt>
      <trkpt lat="43.14917" lon="3.13292">
        <ele>27.799999237061</ele>
        <time>2014-11-23T08:47:32.000Z</time>
      </trkpt>
      <trkpt lat="43.14915" lon="3.1329">
        <ele>27.799999237061</ele>
        <time>2014-11-23T08:47:33.000Z</time>
      </trkpt>
      <trkpt lat="43.14912" lon="3.13287">
        <ele>27.799999237061</ele>
        <time>2014-11-23T08:47:36.000Z</time>
      </trkpt>
      <trkpt lat="43.1491" lon="3.13283">
        <ele>25.799999237061</ele>
        <time>2014-11-23T08:47:58.000Z</time>
      </trkpt>
      <trkpt lat="43.14909" lon="3.13282">
        <ele>25.799999237061</ele>
        <time>2014-11-23T08:48:00.000Z</time>
      </trkpt>
      <trkpt lat="43.14907" lon="3.13281">
        <ele>25.799999237061</ele>
        <time>2014-11-23T08:48:09.000Z</time>
      </trkpt>
      <trkpt lat="43.14905" lon="3.13279">
        <ele>25.799999237061</ele>
        <time>2014-11-23T08:48:10.000Z</time>
      </trkpt>
      <trkpt lat="43.14893" lon="3.13271">
        <ele>25.799999237061</ele>
        <time>2014-11-23T08:48:15.000Z</time>
      </trkpt>
      <trkpt lat="43.14883" lon="3.13266">
        <ele>25.799999237061</ele>
        <time>2014-11-23T08:48:19.000Z</time>
      </trkpt>
      <trkpt lat="43.1488" lon="3.13267">
        <ele>25.799999237061</ele>
        <time>2014-11-23T08:48:20.000Z</time>
      </trkpt>
      <trkpt lat="43.14867" lon="3.13267">
        <ele>25.799999237061</ele>
        <time>2014-11-23T08:48:24.000Z</time>
      </trkpt>
      <trkpt lat="43.14848" lon="3.13264">
        <ele>25.799999237061</ele>
        <time>2014-11-23T08:48:30.000Z</time>
      </trkpt>
      <trkpt lat="43.14822" lon="3.13263">
        <ele>25.799999237061</ele>
        <time>2014-11-23T08:48:37.000Z</time>
      </trkpt>
      <trkpt lat="43.14814" lon="3.13262">
        <ele>25.39999961853</ele>
        <time>2014-11-23T08:48:39.000Z</time>
      </trkpt>
      <trkpt lat="43.14811" lon="3.13262">
        <ele>25</ele>
        <time>2014-11-23T08:48:40.000Z</time>
      </trkpt>
      <trkpt lat="43.14808" lon="3.13262">
        <ele>24.39999961853</ele>
        <time>2014-11-23T08:48:41.000Z</time>
      </trkpt>
      <trkpt lat="43.14804" lon="3.13262">
        <ele>24</ele>
        <time>2014-11-23T08:48:42.000Z</time>
      </trkpt>
      <trkpt lat="43.14801" lon="3.13262">
        <ele>23.60000038147</ele>
        <time>2014-11-23T08:48:43.000Z</time>
      </trkpt>
      <trkpt lat="43.14797" lon="3.13263">
        <ele>23.200000762939</ele>
        <time>2014-11-23T08:48:44.000Z</time>
      </trkpt>
      <trkpt lat="43.14792" lon="3.13267">
        <ele>22.799999237061</ele>
        <time>2014-11-23T08:48:45.000Z</time>
      </trkpt>
      <trkpt lat="43.14788" lon="3.13272">
        <ele>22.39999961853</ele>
        <time>2014-11-23T08:48:46.000Z</time>
      </trkpt>
      <trkpt lat="43.14784" lon="3.13278">
        <ele>21.799999237061</ele>
        <time>2014-11-23T08:48:47.000Z</time>
      </trkpt>
      <trkpt lat="43.1478" lon="3.13283">
        <ele>21.200000762939</ele>
        <time>2014-11-23T08:48:48.000Z</time>
      </trkpt>
      <trkpt lat="43.14776" lon="3.13289">
        <ele>20.60000038147</ele>
        <time>2014-11-23T08:48:49.000Z</time>
      </trkpt>
      <trkpt lat="43.14772" lon="3.13295">
        <ele>19.39999961853</ele>
        <time>2014-11-23T08:48:50.000Z</time>
      </trkpt>
      <trkpt lat="43.14767" lon="3.13299">
        <ele>18.799999237061</ele>
        <time>2014-11-23T08:48:51.000Z</time>
      </trkpt>
      <trkpt lat="43.14762" lon="3.13304">
        <ele>18.200000762939</ele>
        <time>2014-11-23T08:48:52.000Z</time>
      </trkpt>
      <trkpt lat="43.14757" lon="3.13308">
        <ele>17.799999237061</ele>
        <time>2014-11-23T08:48:53.000Z</time>
      </trkpt>
      <trkpt lat="43.14752" lon="3.13312">
        <ele>17.200000762939</ele>
        <time>2014-11-23T08:48:54.000Z</time>
      </trkpt>
      <trkpt lat="43.14747" lon="3.13316">
        <ele>16.799999237061</ele>
        <time>2014-11-23T08:48:55.000Z</time>
      </trkpt>
      <trkpt lat="43.14741" lon="3.13319">
        <ele>16.200000762939</ele>
        <time>2014-11-23T08:48:56.000Z</time>
      </trkpt>
      <trkpt lat="43.14736" lon="3.13321">
        <ele>15.800000190735</ele>
        <time>2014-11-23T08:48:57.000Z</time>
      </trkpt>
      <trkpt lat="43.1473" lon="3.13326">
        <ele>15.199999809265</ele>
        <time>2014-11-23T08:48:58.000Z</time>
      </trkpt>
      <trkpt lat="43.14725" lon="3.1333">
        <ele>14.60000038147</ele>
        <time>2014-11-23T08:48:59.000Z</time>
      </trkpt>
      <trkpt lat="43.14719" lon="3.13334">
        <ele>14</ele>
        <time>2014-11-23T08:49:00.000Z</time>
      </trkpt>
      <trkpt lat="43.14713" lon="3.13337">
        <ele>13.199999809265</ele>
        <time>2014-11-23T08:49:01.000Z</time>
      </trkpt>
      <trkpt lat="43.14707" lon="3.13337">
        <ele>12.60000038147</ele>
        <time>2014-11-23T08:49:02.000Z</time>
      </trkpt>
      <trkpt lat="43.147" lon="3.13338">
        <ele>12</ele>
        <time>2014-11-23T08:49:03.000Z</time>
      </trkpt>
      <trkpt lat="43.14693" lon="3.13338">
        <ele>11.199999809265</ele>
        <time>2014-11-23T08:49:04.000Z</time>
      </trkpt>
      <trkpt lat="43.14686" lon="3.13338">
        <ele>10.60000038147</ele>
        <time>2014-11-23T08:49:05.000Z</time>
      </trkpt>
      <trkpt lat="43.14672" lon="3.13339">
        <ele>10.199999809265</ele>
        <time>2014-11-23T08:49:07.000Z</time>
      </trkpt>
      <trkpt lat="43.14665" lon="3.1334">
        <ele>9.6000003814697</ele>
        <time>2014-11-23T08:49:08.000Z</time>
      </trkpt>
      <trkpt lat="43.14658" lon="3.13341">
        <ele>9.1999998092651</ele>
        <time>2014-11-23T08:49:09.000Z</time>
      </trkpt>
      <trkpt lat="43.14652" lon="3.13341">
        <ele>8.6000003814697</ele>
        <time>2014-11-23T08:49:10.000Z</time>
      </trkpt>
      <trkpt lat="43.14646" lon="3.13341">
        <ele>8.1999998092651</ele>
        <time>2014-11-23T08:49:11.000Z</time>
      </trkpt>
      <trkpt lat="43.1464" lon="3.1334">
        <ele>8.1999998092651</ele>
        <time>2014-11-23T08:49:12.000Z</time>
      </trkpt>
      <trkpt lat="43.14629" lon="3.13337">
        <ele>7.4000000953674</ele>
        <time>2014-11-23T08:49:14.000Z</time>
      </trkpt>
      <trkpt lat="43.14624" lon="3.13335">
        <ele>6.8000001907349</ele>
        <time>2014-11-23T08:49:15.000Z</time>
      </trkpt>
      <trkpt lat="43.1462" lon="3.13334">
        <ele>6.4000000953674</ele>
        <time>2014-11-23T08:49:16.000Z</time>
      </trkpt>
      <trkpt lat="43.14615" lon="3.13334">
        <ele>6</ele>
        <time>2014-11-23T08:49:17.000Z</time>
      </trkpt>
      <trkpt lat="43.14608" lon="3.13335">
        <ele>6</ele>
        <time>2014-11-23T08:49:20.000Z</time>
      </trkpt>
      <trkpt lat="43.14602" lon="3.13337">
        <ele>6</ele>
        <time>2014-11-23T08:49:23.000Z</time>
      </trkpt>
      <trkpt lat="43.14599" lon="3.13336">
        <ele>6</ele>
        <time>2014-11-23T08:49:24.000Z</time>
      </trkpt>
      <trkpt lat="43.14588" lon="3.1333">
        <ele>6</ele>
        <time>2014-11-23T08:49:29.000Z</time>
      </trkpt>
      <trkpt lat="43.14587" lon="3.1333">
        <ele>6</ele>
        <time>2014-11-23T08:49:31.000Z</time>
      </trkpt>
      <trkpt lat="43.14584" lon="3.13332">
        <ele>6</ele>
        <time>2014-11-23T08:50:48.000Z</time>
      </trkpt>
      <trkpt lat="43.14582" lon="3.1333">
        <ele>6</ele>
        <time>2014-11-23T08:50:49.000Z</time>
      </trkpt>
      <trkpt lat="43.14582" lon="3.13326">
        <ele>6</ele>
        <time>2014-11-23T08:50:51.000Z</time>
      </trkpt>
      <trkpt lat="43.14584" lon="3.13327">
        <ele>6</ele>
        <time>2014-11-23T08:50:54.000Z</time>
      </trkpt>
      <trkpt lat="43.14581" lon="3.1333">
        <ele>6</ele>
        <time>2014-11-23T08:50:57.000Z</time>
      </trkpt>
      <trkpt lat="43.14581" lon="3.13323">
        <ele>6</ele>
        <time>2014-11-23T08:51:01.000Z</time>
      </trkpt>
      <trkpt lat="43.14584" lon="3.13327">
        <ele>6</ele>
        <time>2014-11-23T08:51:05.000Z</time>
      </trkpt>
      <trkpt lat="43.14579" lon="3.13334">
        <ele>6</ele>
        <time>2014-11-23T08:51:10.000Z</time>
      </trkpt>
      <trkpt lat="43.14583" lon="3.13337">
        <ele>6</ele>
        <time>2014-11-23T08:51:14.000Z</time>
      </trkpt>
      <trkpt lat="43.14582" lon="3.13328">
        <ele>6</ele>
        <time>2014-11-23T08:51:17.000Z</time>
      </trkpt>
      <trkpt lat="43.14582" lon="3.1332">
        <ele>6</ele>
        <time>2014-11-23T08:51:19.000Z</time>
      </trkpt>
      <trkpt lat="43.14584" lon="3.13311">
        <ele>6</ele>
        <time>2014-11-23T08:51:21.000Z</time>
      </trkpt>
      <trkpt lat="43.14594" lon="3.13296">
        <ele>6</ele>
        <time>2014-11-23T08:51:26.000Z</time>
      </trkpt>
      <trkpt lat="43.14599" lon="3.1329">
        <ele>6</ele>
        <time>2014-11-23T08:51:28.000Z</time>
      </trkpt>
      <trkpt lat="43.14604" lon="3.13282">
        <ele>6</ele>
        <time>2014-11-23T08:51:30.000Z</time>
      </trkpt>
      <trkpt lat="43.14622" lon="3.13255">
        <ele>6</ele>
        <time>2014-11-23T08:51:36.000Z</time>
      </trkpt>
      <trkpt lat="43.14643" lon="3.13221">
        <ele>6</ele>
        <time>2014-11-23T08:51:43.000Z</time>
      </trkpt>
      <trkpt lat="43.14652" lon="3.13206">
        <ele>6</ele>
        <time>2014-11-23T08:51:46.000Z</time>
      </trkpt>
      <trkpt lat="43.1466" lon="3.13194">
        <ele>6</ele>
        <time>2014-11-23T08:51:49.000Z</time>
      </trkpt>
      <trkpt lat="43.14664" lon="3.13169">
        <ele>6</ele>
        <time>2014-11-23T08:51:54.000Z</time>
      </trkpt>
      <trkpt lat="43.14665" lon="3.13164">
        <ele>6.4000000953674</ele>
        <time>2014-11-23T08:51:55.000Z</time>
      </trkpt>
      <trkpt lat="43.14665" lon="3.13159">
        <ele>6.8000001907349</ele>
        <time>2014-11-23T08:51:56.000Z</time>
      </trkpt>
      <trkpt lat="43.14665" lon="3.13154">
        <ele>7.1999998092651</ele>
        <time>2014-11-23T08:51:57.000Z</time>
      </trkpt>
      <trkpt lat="43.14665" lon="3.13149">
        <ele>7.5999999046326</ele>
        <time>2014-11-23T08:51:58.000Z</time>
      </trkpt>
      <trkpt lat="43.14665" lon="3.13145">
        <ele>8</ele>
        <time>2014-11-23T08:51:59.000Z</time>
      </trkpt>
      <trkpt lat="43.14667" lon="3.13132">
        <ele>8</ele>
        <time>2014-11-23T08:52:02.000Z</time>
      </trkpt>
      <trkpt lat="43.14667" lon="3.13113">
        <ele>8</ele>
        <time>2014-11-23T08:52:08.000Z</time>
      </trkpt>
      <trkpt lat="43.14666" lon="3.1311">
        <ele>8</ele>
        <time>2014-11-23T08:52:27.000Z</time>
      </trkpt>
      <trkpt lat="43.14667" lon="3.13101">
        <ele>8</ele>
        <time>2014-11-23T08:52:29.000Z</time>
      </trkpt>
      <trkpt lat="43.14668" lon="3.13082">
        <ele>8.3999996185303</ele>
        <time>2014-11-23T08:52:33.000Z</time>
      </trkpt>
      <trkpt lat="43.14669" lon="3.13078">
        <ele>9</ele>
        <time>2014-11-23T08:52:34.000Z</time>
      </trkpt>
      <trkpt lat="43.14669" lon="3.13074">
        <ele>9.3999996185303</ele>
        <time>2014-11-23T08:52:35.000Z</time>
      </trkpt>
      <trkpt lat="43.1467" lon="3.1307">
        <ele>9.8000001907349</ele>
        <time>2014-11-23T08:52:36.000Z</time>
      </trkpt>
      <trkpt lat="43.1467" lon="3.13066">
        <ele>10.39999961853</ele>
        <time>2014-11-23T08:52:37.000Z</time>
      </trkpt>
      <trkpt lat="43.14672" lon="3.13038">
        <ele>10.800000190735</ele>
        <time>2014-11-23T08:52:44.000Z</time>
      </trkpt>
      <trkpt lat="43.14673" lon="3.13034">
        <ele>11.199999809265</ele>
        <time>2014-11-23T08:52:45.000Z</time>
      </trkpt>
      <trkpt lat="43.14673" lon="3.13031">
        <ele>11.60000038147</ele>
        <time>2014-11-23T08:52:46.000Z</time>
      </trkpt>
      <trkpt lat="43.14673" lon="3.13027">
        <ele>12</ele>
        <time>2014-11-23T08:52:47.000Z</time>
      </trkpt>
      <trkpt lat="43.14673" lon="3.13024">
        <ele>12.39999961853</ele>
        <time>2014-11-23T08:52:48.000Z</time>
      </trkpt>
      <trkpt lat="43.14674" lon="3.13017">
        <ele>12.39999961853</ele>
        <time>2014-11-23T08:52:50.000Z</time>
      </trkpt>
      <trkpt lat="43.14676" lon="3.13">
        <ele>12.800000190735</ele>
        <time>2014-11-23T08:52:55.000Z</time>
      </trkpt>
      <trkpt lat="43.14676" lon="3.12996">
        <ele>13.199999809265</ele>
        <time>2014-11-23T08:52:56.000Z</time>
      </trkpt>
      <trkpt lat="43.14676" lon="3.12993">
        <ele>13.60000038147</ele>
        <time>2014-11-23T08:52:57.000Z</time>
      </trkpt>
      <trkpt lat="43.14677" lon="3.1299">
        <ele>14.60000038147</ele>
        <time>2014-11-23T08:52:58.000Z</time>
      </trkpt>
      <trkpt lat="43.14679" lon="3.12975">
        <ele>14.60000038147</ele>
        <time>2014-11-23T08:53:02.000Z</time>
      </trkpt>
      <trkpt lat="43.14682" lon="3.12956">
        <ele>15</ele>
        <time>2014-11-23T08:53:07.000Z</time>
      </trkpt>
      <trkpt lat="43.14683" lon="3.12953">
        <ele>15.39999961853</ele>
        <time>2014-11-23T08:53:08.000Z</time>
      </trkpt>
      <trkpt lat="43.14685" lon="3.12949">
        <ele>15.800000190735</ele>
        <time>2014-11-23T08:53:09.000Z</time>
      </trkpt>
      <trkpt lat="43.14687" lon="3.12946">
        <ele>16.200000762939</ele>
        <time>2014-11-23T08:53:10.000Z</time>
      </trkpt>
      <trkpt lat="43.14689" lon="3.12943">
        <ele>16.60000038147</ele>
        <time>2014-11-23T08:53:11.000Z</time>
      </trkpt>
      <trkpt lat="43.14697" lon="3.12936">
        <ele>16.60000038147</ele>
        <time>2014-11-23T08:53:14.000Z</time>
      </trkpt>
      <trkpt lat="43.1471" lon="3.12921">
        <ele>16.60000038147</ele>
        <time>2014-11-23T08:53:20.000Z</time>
      </trkpt>
      <trkpt lat="43.14712" lon="3.12915">
        <ele>17</ele>
        <time>2014-11-23T08:53:22.000Z</time>
      </trkpt>
      <trkpt lat="43.14712" lon="3.12912">
        <ele>17.39999961853</ele>
        <time>2014-11-23T08:53:23.000Z</time>
      </trkpt>
      <trkpt lat="43.14711" lon="3.12909">
        <ele>17.799999237061</ele>
        <time>2014-11-23T08:53:24.000Z</time>
      </trkpt>
      <trkpt lat="43.14711" lon="3.12905">
        <ele>18.200000762939</ele>
        <time>2014-11-23T08:53:25.000Z</time>
      </trkpt>
      <trkpt lat="43.14712" lon="3.12901">
        <ele>18.60000038147</ele>
        <time>2014-11-23T08:53:26.000Z</time>
      </trkpt>
      <trkpt lat="43.14711" lon="3.12887">
        <ele>18.60000038147</ele>
        <time>2014-11-23T08:53:30.000Z</time>
      </trkpt>
      <trkpt lat="43.14707" lon="3.12869">
        <ele>18.60000038147</ele>
        <time>2014-11-23T08:53:35.000Z</time>
      </trkpt>
      <trkpt lat="43.14703" lon="3.12858">
        <ele>19</ele>
        <time>2014-11-23T08:53:38.000Z</time>
      </trkpt>
      <trkpt lat="43.14702" lon="3.12854">
        <ele>19.39999961853</ele>
        <time>2014-11-23T08:53:39.000Z</time>
      </trkpt>
      <trkpt lat="43.14701" lon="3.12851">
        <ele>19.799999237061</ele>
        <time>2014-11-23T08:53:40.000Z</time>
      </trkpt>
      <trkpt lat="43.147" lon="3.12848">
        <ele>20.39999961853</ele>
        <time>2014-11-23T08:53:41.000Z</time>
      </trkpt>
      <trkpt lat="43.14699" lon="3.12846">
        <ele>20.799999237061</ele>
        <time>2014-11-23T08:53:42.000Z</time>
      </trkpt>
      <trkpt lat="43.14691" lon="3.12838">
        <ele>20.799999237061</ele>
        <time>2014-11-23T08:53:46.000Z</time>
      </trkpt>
      <trkpt lat="43.14669" lon="3.12832">
        <ele>20.799999237061</ele>
        <time>2014-11-23T08:53:54.000Z</time>
      </trkpt>
      <trkpt lat="43.14655" lon="3.12822">
        <ele>20.799999237061</ele>
        <time>2014-11-23T08:54:00.000Z</time>
      </trkpt>
      <trkpt lat="43.14647" lon="3.12806">
        <ele>20.799999237061</ele>
        <time>2014-11-23T08:54:05.000Z</time>
      </trkpt>
      <trkpt lat="43.14641" lon="3.12786">
        <ele>21.200000762939</ele>
        <time>2014-11-23T08:54:10.000Z</time>
      </trkpt>
      <trkpt lat="43.1464" lon="3.12782">
        <ele>22</ele>
        <time>2014-11-23T08:54:11.000Z</time>
      </trkpt>
      <trkpt lat="43.14639" lon="3.12779">
        <ele>22.39999961853</ele>
        <time>2014-11-23T08:54:12.000Z</time>
      </trkpt>
      <trkpt lat="43.14638" lon="3.12775">
        <ele>22.799999237061</ele>
        <time>2014-11-23T08:54:13.000Z</time>
      </trkpt>
      <trkpt lat="43.14631" lon="3.12756">
        <ele>22.799999237061</ele>
        <time>2014-11-23T08:54:18.000Z</time>
      </trkpt>
      <trkpt lat="43.1462" lon="3.12748">
        <ele>22.799999237061</ele>
        <time>2014-11-23T08:54:22.000Z</time>
      </trkpt>
      <trkpt lat="43.14598" lon="3.12742">
        <ele>22.799999237061</ele>
        <time>2014-11-23T08:54:28.000Z</time>
      </trkpt>
      <trkpt lat="43.14584" lon="3.12731">
        <ele>22.799999237061</ele>
        <time>2014-11-23T08:54:32.000Z</time>
      </trkpt>
      <trkpt lat="43.14581" lon="3.12727">
        <ele>22.799999237061</ele>
        <time>2014-11-23T08:54:33.000Z</time>
      </trkpt>
      <trkpt lat="43.14568" lon="3.12694">
        <ele>22.799999237061</ele>
        <time>2014-11-23T08:54:40.000Z</time>
      </trkpt>
      <trkpt lat="43.14564" lon="3.12667">
        <ele>22.799999237061</ele>
        <time>2014-11-23T08:54:45.000Z</time>
      </trkpt>
      <trkpt lat="43.14565" lon="3.1266">
        <ele>22.799999237061</ele>
        <time>2014-11-23T08:54:46.000Z</time>
      </trkpt>
      <trkpt lat="43.14573" lon="3.12644">
        <ele>22.799999237061</ele>
        <time>2014-11-23T08:54:49.000Z</time>
      </trkpt>
      <trkpt lat="43.14576" lon="3.1264">
        <ele>22.799999237061</ele>
        <time>2014-11-23T08:54:50.000Z</time>
      </trkpt>
      <trkpt lat="43.14579" lon="3.12635">
        <ele>22.799999237061</ele>
        <time>2014-11-23T08:54:51.000Z</time>
      </trkpt>
      <trkpt lat="43.14585" lon="3.12621">
        <ele>22.799999237061</ele>
        <time>2014-11-23T08:54:54.000Z</time>
      </trkpt>
      <trkpt lat="43.14582" lon="3.12599">
        <ele>22.799999237061</ele>
        <time>2014-11-23T08:54:59.000Z</time>
      </trkpt>
      <trkpt lat="43.14581" lon="3.1259">
        <ele>23.200000762939</ele>
        <time>2014-11-23T08:55:01.000Z</time>
      </trkpt>
      <trkpt lat="43.1458" lon="3.12586">
        <ele>23.60000038147</ele>
        <time>2014-11-23T08:55:02.000Z</time>
      </trkpt>
      <trkpt lat="43.14579" lon="3.12582">
        <ele>24</ele>
        <time>2014-11-23T08:55:03.000Z</time>
      </trkpt>
      <trkpt lat="43.14579" lon="3.12578">
        <ele>24.39999961853</ele>
        <time>2014-11-23T08:55:04.000Z</time>
      </trkpt>
      <trkpt lat="43.14577" lon="3.12574">
        <ele>24.799999237061</ele>
        <time>2014-11-23T08:55:05.000Z</time>
      </trkpt>
      <trkpt lat="43.14577" lon="3.12569">
        <ele>24.799999237061</ele>
        <time>2014-11-23T08:55:06.000Z</time>
      </trkpt>
      <trkpt lat="43.14573" lon="3.12544">
        <ele>24.799999237061</ele>
        <time>2014-11-23T08:55:12.000Z</time>
      </trkpt>
      <trkpt lat="43.1457" lon="3.12522">
        <ele>25.200000762939</ele>
        <time>2014-11-23T08:55:18.000Z</time>
      </trkpt>
      <trkpt lat="43.14569" lon="3.12519">
        <ele>25.799999237061</ele>
        <time>2014-11-23T08:55:19.000Z</time>
      </trkpt>
      <trkpt lat="43.14568" lon="3.12515">
        <ele>26.200000762939</ele>
        <time>2014-11-23T08:55:20.000Z</time>
      </trkpt>
      <trkpt lat="43.14568" lon="3.12511">
        <ele>26.60000038147</ele>
        <time>2014-11-23T08:55:21.000Z</time>
      </trkpt>
      <trkpt lat="43.14567" lon="3.12507">
        <ele>27</ele>
        <time>2014-11-23T08:55:22.000Z</time>
      </trkpt>
      <trkpt lat="43.14566" lon="3.12497">
        <ele>27</ele>
        <time>2014-11-23T08:55:24.000Z</time>
      </trkpt>
      <trkpt lat="43.14566" lon="3.12475">
        <ele>27.39999961853</ele>
        <time>2014-11-23T08:55:29.000Z</time>
      </trkpt>
      <trkpt lat="43.14566" lon="3.12471">
        <ele>27.799999237061</ele>
        <time>2014-11-23T08:55:30.000Z</time>
      </trkpt>
      <trkpt lat="43.14567" lon="3.12467">
        <ele>28.200000762939</ele>
        <time>2014-11-23T08:55:31.000Z</time>
      </trkpt>
      <trkpt lat="43.14568" lon="3.12463">
        <ele>28.60000038147</ele>
        <time>2014-11-23T08:55:32.000Z</time>
      </trkpt>
      <trkpt lat="43.14569" lon="3.12459">
        <ele>29</ele>
        <time>2014-11-23T08:55:33.000Z</time>
      </trkpt>
      <trkpt lat="43.14571" lon="3.12451">
        <ele>29</ele>
        <time>2014-11-23T08:55:35.000Z</time>
      </trkpt>
      <trkpt lat="43.14578" lon="3.12434">
        <ele>29.39999961853</ele>
        <time>2014-11-23T08:55:40.000Z</time>
      </trkpt>
      <trkpt lat="43.14579" lon="3.1243">
        <ele>29.799999237061</ele>
        <time>2014-11-23T08:55:41.000Z</time>
      </trkpt>
      <trkpt lat="43.1458" lon="3.12427">
        <ele>30.200000762939</ele>
        <time>2014-11-23T08:55:42.000Z</time>
      </trkpt>
      <trkpt lat="43.14581" lon="3.12423">
        <ele>30.60000038147</ele>
        <time>2014-11-23T08:55:43.000Z</time>
      </trkpt>
      <trkpt lat="43.14581" lon="3.12419">
        <ele>31</ele>
        <time>2014-11-23T08:55:44.000Z</time>
      </trkpt>
      <trkpt lat="43.14582" lon="3.12414">
        <ele>31</ele>
        <time>2014-11-23T08:55:45.000Z</time>
      </trkpt>
      <trkpt lat="43.14581" lon="3.12388">
        <ele>31</ele>
        <time>2014-11-23T08:55:50.000Z</time>
      </trkpt>
      <trkpt lat="43.1458" lon="3.12366">
        <ele>31</ele>
        <time>2014-11-23T08:55:55.000Z</time>
      </trkpt>
      <trkpt lat="43.14575" lon="3.12342">
        <ele>31</ele>
        <time>2014-11-23T08:55:59.000Z</time>
      </trkpt>
      <trkpt lat="43.14574" lon="3.12336">
        <ele>31</ele>
        <time>2014-11-23T08:56:00.000Z</time>
      </trkpt>
      <trkpt lat="43.14567" lon="3.12311">
        <ele>31</ele>
        <time>2014-11-23T08:56:04.000Z</time>
      </trkpt>
      <trkpt lat="43.14564" lon="3.12298">
        <ele>31</ele>
        <time>2014-11-23T08:56:06.000Z</time>
      </trkpt>
      <trkpt lat="43.1456" lon="3.12254">
        <ele>31</ele>
        <time>2014-11-23T08:56:12.000Z</time>
      </trkpt>
      <trkpt lat="43.14548" lon="3.12213">
        <ele>31</ele>
        <time>2014-11-23T08:56:18.000Z</time>
      </trkpt>
      <trkpt lat="43.14538" lon="3.12178">
        <ele>31</ele>
        <time>2014-11-23T08:56:23.000Z</time>
      </trkpt>
      <trkpt lat="43.14535" lon="3.12172">
        <ele>31</ele>
        <time>2014-11-23T08:56:24.000Z</time>
      </trkpt>
      <trkpt lat="43.14518" lon="3.12158">
        <ele>31</ele>
        <time>2014-11-23T08:56:28.000Z</time>
      </trkpt>
      <trkpt lat="43.14509" lon="3.12155">
        <ele>31</ele>
        <time>2014-11-23T08:56:30.000Z</time>
      </trkpt>
      <trkpt lat="43.14492" lon="3.12149">
        <ele>31</ele>
        <time>2014-11-23T08:56:34.000Z</time>
      </trkpt>
      <trkpt lat="43.14475" lon="3.12146">
        <ele>31</ele>
        <time>2014-11-23T08:56:39.000Z</time>
      </trkpt>
      <trkpt lat="43.14466" lon="3.12141">
        <ele>31.39999961853</ele>
        <time>2014-11-23T08:56:43.000Z</time>
      </trkpt>
      <trkpt lat="43.14465" lon="3.12139">
        <ele>31.799999237061</ele>
        <time>2014-11-23T08:56:44.000Z</time>
      </trkpt>
      <trkpt lat="43.14463" lon="3.12138">
        <ele>32.400001525879</ele>
        <time>2014-11-23T08:56:45.000Z</time>
      </trkpt>
      <trkpt lat="43.14462" lon="3.12136">
        <ele>32.799999237061</ele>
        <time>2014-11-23T08:56:46.000Z</time>
      </trkpt>
      <trkpt lat="43.1446" lon="3.12134">
        <ele>33.200000762939</ele>
        <time>2014-11-23T08:56:47.000Z</time>
      </trkpt>
      <trkpt lat="43.14457" lon="3.12128">
        <ele>33.599998474121</ele>
        <time>2014-11-23T08:56:50.000Z</time>
      </trkpt>
      <trkpt lat="43.14456" lon="3.12127">
        <ele>34</ele>
        <time>2014-11-23T08:56:51.000Z</time>
      </trkpt>
      <trkpt lat="43.14455" lon="3.12125">
        <ele>34.400001525879</ele>
        <time>2014-11-23T08:56:52.000Z</time>
      </trkpt>
      <trkpt lat="43.14454" lon="3.12123">
        <ele>34.799999237061</ele>
        <time>2014-11-23T08:56:53.000Z</time>
      </trkpt>
      <trkpt lat="43.14453" lon="3.12121">
        <ele>35.200000762939</ele>
        <time>2014-11-23T08:56:54.000Z</time>
      </trkpt>
      <trkpt lat="43.1445" lon="3.12118">
        <ele>35.599998474121</ele>
        <time>2014-11-23T08:56:56.000Z</time>
      </trkpt>
      <trkpt lat="43.14449" lon="3.12117">
        <ele>36</ele>
        <time>2014-11-23T08:56:57.000Z</time>
      </trkpt>
      <trkpt lat="43.14448" lon="3.12115">
        <ele>36.400001525879</ele>
        <time>2014-11-23T08:56:58.000Z</time>
      </trkpt>
      <trkpt lat="43.14447" lon="3.12114">
        <ele>36.799999237061</ele>
        <time>2014-11-23T08:56:59.000Z</time>
      </trkpt>
      <trkpt lat="43.14445" lon="3.12112">
        <ele>37.200000762939</ele>
        <time>2014-11-23T08:57:00.000Z</time>
      </trkpt>
      <trkpt lat="43.1444" lon="3.12105">
        <ele>38.200000762939</ele>
        <time>2014-11-23T08:57:04.000Z</time>
      </trkpt>
      <trkpt lat="43.1444" lon="3.12104">
        <ele>38.599998474121</ele>
        <time>2014-11-23T08:57:05.000Z</time>
      </trkpt>
      <trkpt lat="43.14439" lon="3.12103">
        <ele>39</ele>
        <time>2014-11-23T08:57:06.000Z</time>
      </trkpt>
      <trkpt lat="43.14438" lon="3.12101">
        <ele>39.400001525879</ele>
        <time>2014-11-23T08:57:07.000Z</time>
      </trkpt>
      <trkpt lat="43.14431" lon="3.12091">
        <ele>39.799999237061</ele>
        <time>2014-11-23T08:57:13.000Z</time>
      </trkpt>
      <trkpt lat="43.1443" lon="3.12089">
        <ele>40.200000762939</ele>
        <time>2014-11-23T08:57:14.000Z</time>
      </trkpt>
      <trkpt lat="43.14429" lon="3.12087">
        <ele>40.599998474121</ele>
        <time>2014-11-23T08:57:15.000Z</time>
      </trkpt>
      <trkpt lat="43.14428" lon="3.12085">
        <ele>41</ele>
        <time>2014-11-23T08:57:16.000Z</time>
      </trkpt>
      <trkpt lat="43.14427" lon="3.12083">
        <ele>41.400001525879</ele>
        <time>2014-11-23T08:57:17.000Z</time>
      </trkpt>
      <trkpt lat="43.14426" lon="3.12081">
        <ele>41.400001525879</ele>
        <time>2014-11-23T08:57:18.000Z</time>
      </trkpt>
      <trkpt lat="43.1442" lon="3.12073">
        <ele>41.799999237061</ele>
        <time>2014-11-23T08:57:22.000Z</time>
      </trkpt>
      <trkpt lat="43.14419" lon="3.12071">
        <ele>42.400001525879</ele>
        <time>2014-11-23T08:57:23.000Z</time>
      </trkpt>
      <trkpt lat="43.14417" lon="3.12068">
        <ele>42.799999237061</ele>
        <time>2014-11-23T08:57:24.000Z</time>
      </trkpt>
      <trkpt lat="43.14416" lon="3.12066">
        <ele>43.200000762939</ele>
        <time>2014-11-23T08:57:25.000Z</time>
      </trkpt>
      <trkpt lat="43.14414" lon="3.12064">
        <ele>43.599998474121</ele>
        <time>2014-11-23T08:57:26.000Z</time>
      </trkpt>
      <trkpt lat="43.14408" lon="3.12055">
        <ele>43.599998474121</ele>
        <time>2014-11-23T08:57:30.000Z</time>
      </trkpt>
      <trkpt lat="43.14407" lon="3.12052">
        <ele>44</ele>
        <time>2014-11-23T08:57:31.000Z</time>
      </trkpt>
      <trkpt lat="43.14406" lon="3.1205">
        <ele>44.400001525879</ele>
        <time>2014-11-23T08:57:32.000Z</time>
      </trkpt>
      <trkpt lat="43.14405" lon="3.12049">
        <ele>45</ele>
        <time>2014-11-23T08:57:33.000Z</time>
      </trkpt>
      <trkpt lat="43.14404" lon="3.12047">
        <ele>45.400001525879</ele>
        <time>2014-11-23T08:57:34.000Z</time>
      </trkpt>
      <trkpt lat="43.14403" lon="3.12045">
        <ele>45.799999237061</ele>
        <time>2014-11-23T08:57:35.000Z</time>
      </trkpt>
      <trkpt lat="43.14402" lon="3.12043">
        <ele>45.799999237061</ele>
        <time>2014-11-23T08:57:36.000Z</time>
      </trkpt>
      <trkpt lat="43.14393" lon="3.12028">
        <ele>45.799999237061</ele>
        <time>2014-11-23T08:57:42.000Z</time>
      </trkpt>
      <trkpt lat="43.1439" lon="3.1202">
        <ele>46.200000762939</ele>
        <time>2014-11-23T08:57:45.000Z</time>
      </trkpt>
      <trkpt lat="43.14388" lon="3.12017">
        <ele>46.599998474121</ele>
        <time>2014-11-23T08:57:46.000Z</time>
      </trkpt>
      <trkpt lat="43.14387" lon="3.12015">
        <ele>47.200000762939</ele>
        <time>2014-11-23T08:57:47.000Z</time>
      </trkpt>
      <trkpt lat="43.14386" lon="3.12012">
        <ele>47.599998474121</ele>
        <time>2014-11-23T08:57:48.000Z</time>
      </trkpt>
      <trkpt lat="43.14385" lon="3.1201">
        <ele>48</ele>
        <time>2014-11-23T08:57:49.000Z</time>
      </trkpt>
      <trkpt lat="43.14381" lon="3.11998">
        <ele>48</ele>
        <time>2014-11-23T08:57:54.000Z</time>
      </trkpt>
      <trkpt lat="43.14375" lon="3.11989">
        <ele>48.400001525879</ele>
        <time>2014-11-23T08:57:58.000Z</time>
      </trkpt>
      <trkpt lat="43.14374" lon="3.11986">
        <ele>48.799999237061</ele>
        <time>2014-11-23T08:57:59.000Z</time>
      </trkpt>
      <trkpt lat="43.14373" lon="3.11984">
        <ele>49.200000762939</ele>
        <time>2014-11-23T08:58:00.000Z</time>
      </trkpt>
      <trkpt lat="43.14371" lon="3.11981">
        <ele>49.799999237061</ele>
        <time>2014-11-23T08:58:01.000Z</time>
      </trkpt>
      <trkpt lat="43.1437" lon="3.1198">
        <ele>50.200000762939</ele>
        <time>2014-11-23T08:58:02.000Z</time>
      </trkpt>
      <trkpt lat="43.14366" lon="3.11974">
        <ele>50.200000762939</ele>
        <time>2014-11-23T08:58:05.000Z</time>
      </trkpt>
      <trkpt lat="43.14359" lon="3.11961">
        <ele>50.200000762939</ele>
        <time>2014-11-23T08:58:11.000Z</time>
      </trkpt>
      <trkpt lat="43.14356" lon="3.11957">
        <ele>50.599998474121</ele>
        <time>2014-11-23T08:58:13.000Z</time>
      </trkpt>
      <trkpt lat="43.14355" lon="3.11956">
        <ele>51</ele>
        <time>2014-11-23T08:58:14.000Z</time>
      </trkpt>
      <trkpt lat="43.14354" lon="3.11955">
        <ele>51.400001525879</ele>
        <time>2014-11-23T08:58:15.000Z</time>
      </trkpt>
      <trkpt lat="43.14354" lon="3.11955">
        <ele>51.799999237061</ele>
        <time>2014-11-23T08:58:16.000Z</time>
      </trkpt>
      <trkpt lat="43.14353" lon="3.1195">
        <ele>52.200000762939</ele>
        <time>2014-11-23T08:59:33.000Z</time>
      </trkpt>
      <trkpt lat="43.1435" lon="3.11943">
        <ele>52.200000762939</ele>
        <time>2014-11-23T08:59:36.000Z</time>
      </trkpt>
      <trkpt lat="43.14343" lon="3.11925">
        <ele>52.200000762939</ele>
        <time>2014-11-23T08:59:40.000Z</time>
      </trkpt>
      <trkpt lat="43.14338" lon="3.11901">
        <ele>52.200000762939</ele>
        <time>2014-11-23T08:59:45.000Z</time>
      </trkpt>
      <trkpt lat="43.14336" lon="3.11873">
        <ele>52.200000762939</ele>
        <time>2014-11-23T08:59:50.000Z</time>
      </trkpt>
      <trkpt lat="43.14334" lon="3.11867">
        <ele>52.200000762939</ele>
        <time>2014-11-23T08:59:51.000Z</time>
      </trkpt>
      <trkpt lat="43.14332" lon="3.11853">
        <ele>52.200000762939</ele>
        <time>2014-11-23T08:59:53.000Z</time>
      </trkpt>
      <trkpt lat="43.14331" lon="3.11847">
        <ele>52.200000762939</ele>
        <time>2014-11-23T08:59:54.000Z</time>
      </trkpt>
      <trkpt lat="43.14331" lon="3.1184">
        <ele>52.200000762939</ele>
        <time>2014-11-23T08:59:55.000Z</time>
      </trkpt>
      <trkpt lat="43.14332" lon="3.11822">
        <ele>52.200000762939</ele>
        <time>2014-11-23T08:59:58.000Z</time>
      </trkpt>
      <trkpt lat="43.14327" lon="3.11803">
        <ele>52.200000762939</ele>
        <time>2014-11-23T09:00:02.000Z</time>
      </trkpt>
      <trkpt lat="43.14322" lon="3.1179">
        <ele>52.200000762939</ele>
        <time>2014-11-23T09:00:06.000Z</time>
      </trkpt>
      <trkpt lat="43.14317" lon="3.11776">
        <ele>52.599998474121</ele>
        <time>2014-11-23T09:00:10.000Z</time>
      </trkpt>
      <trkpt lat="43.14316" lon="3.11773">
        <ele>53</ele>
        <time>2014-11-23T09:00:11.000Z</time>
      </trkpt>
      <trkpt lat="43.14315" lon="3.11769">
        <ele>53.400001525879</ele>
        <time>2014-11-23T09:00:12.000Z</time>
      </trkpt>
      <trkpt lat="43.14314" lon="3.11766">
        <ele>54</ele>
        <time>2014-11-23T09:00:13.000Z</time>
      </trkpt>
      <trkpt lat="43.14313" lon="3.11763">
        <ele>54.400001525879</ele>
        <time>2014-11-23T09:00:14.000Z</time>
      </trkpt>
      <trkpt lat="43.1431" lon="3.11748">
        <ele>54.400001525879</ele>
        <time>2014-11-23T09:00:18.000Z</time>
      </trkpt>
      <trkpt lat="43.14308" lon="3.11737">
        <ele>54.799999237061</ele>
        <time>2014-11-23T09:00:21.000Z</time>
      </trkpt>
      <trkpt lat="43.14308" lon="3.11734">
        <ele>55.799999237061</ele>
        <time>2014-11-23T09:00:22.000Z</time>
      </trkpt>
      <trkpt lat="43.14308" lon="3.1173">
        <ele>56.200000762939</ele>
        <time>2014-11-23T09:00:23.000Z</time>
      </trkpt>
      <trkpt lat="43.14307" lon="3.11727">
        <ele>56.599998474121</ele>
        <time>2014-11-23T09:00:24.000Z</time>
      </trkpt>
      <trkpt lat="43.14307" lon="3.11724">
        <ele>56.599998474121</ele>
        <time>2014-11-23T09:00:25.000Z</time>
      </trkpt>
      <trkpt lat="43.14303" lon="3.11709">
        <ele>57.200000762939</ele>
        <time>2014-11-23T09:00:29.000Z</time>
      </trkpt>
      <trkpt lat="43.14301" lon="3.11705">
        <ele>57.599998474121</ele>
        <time>2014-11-23T09:00:30.000Z</time>
      </trkpt>
      <trkpt lat="43.14299" lon="3.11701">
        <ele>58</ele>
        <time>2014-11-23T09:00:31.000Z</time>
      </trkpt>
      <trkpt lat="43.14298" lon="3.11697">
        <ele>58.400001525879</ele>
        <time>2014-11-23T09:00:32.000Z</time>
      </trkpt>
      <trkpt lat="43.14295" lon="3.11693">
        <ele>58.799999237061</ele>
        <time>2014-11-23T09:00:33.000Z</time>
      </trkpt>
      <trkpt lat="43.14288" lon="3.11675">
        <ele>58.799999237061</ele>
        <time>2014-11-23T09:00:38.000Z</time>
      </trkpt>
      <trkpt lat="43.14273" lon="3.11649">
        <ele>58.799999237061</ele>
        <time>2014-11-23T09:00:45.000Z</time>
      </trkpt>
      <trkpt lat="43.14264" lon="3.11622">
        <ele>58.799999237061</ele>
        <time>2014-11-23T09:00:52.000Z</time>
      </trkpt>
      <trkpt lat="43.1426" lon="3.11598">
        <ele>59.200000762939</ele>
        <time>2014-11-23T09:00:57.000Z</time>
      </trkpt>
      <trkpt lat="43.14259" lon="3.11594">
        <ele>59.599998474121</ele>
        <time>2014-11-23T09:00:58.000Z</time>
      </trkpt>
      <trkpt lat="43.14259" lon="3.11589">
        <ele>60</ele>
        <time>2014-11-23T09:00:59.000Z</time>
      </trkpt>
      <trkpt lat="43.14259" lon="3.11583">
        <ele>60.400001525879</ele>
        <time>2014-11-23T09:01:00.000Z</time>
      </trkpt>
      <trkpt lat="43.14258" lon="3.11578">
        <ele>61</ele>
        <time>2014-11-23T09:01:01.000Z</time>
      </trkpt>
      <trkpt lat="43.14256" lon="3.11557">
        <ele>61</ele>
        <time>2014-11-23T09:01:05.000Z</time>
      </trkpt>
      <trkpt lat="43.14251" lon="3.11525">
        <ele>61</ele>
        <time>2014-11-23T09:01:12.000Z</time>
      </trkpt>
      <trkpt lat="43.14262" lon="3.11503">
        <ele>61</ele>
        <time>2014-11-23T09:01:18.000Z</time>
      </trkpt>
      <trkpt lat="43.14273" lon="3.11481">
        <ele>61</ele>
        <time>2014-11-23T09:01:23.000Z</time>
      </trkpt>
      <trkpt lat="43.14288" lon="3.11456">
        <ele>61</ele>
        <time>2014-11-23T09:01:30.000Z</time>
      </trkpt>
      <trkpt lat="43.14299" lon="3.11432">
        <ele>61</ele>
        <time>2014-11-23T09:01:36.000Z</time>
      </trkpt>
      <trkpt lat="43.14308" lon="3.11414">
        <ele>61.400001525879</ele>
        <time>2014-11-23T09:01:41.000Z</time>
      </trkpt>
      <trkpt lat="43.1431" lon="3.11412">
        <ele>61.799999237061</ele>
        <time>2014-11-23T09:01:42.000Z</time>
      </trkpt>
      <trkpt lat="43.14311" lon="3.1141">
        <ele>62.200000762939</ele>
        <time>2014-11-23T09:01:43.000Z</time>
      </trkpt>
      <trkpt lat="43.14312" lon="3.11408">
        <ele>62.599998474121</ele>
        <time>2014-11-23T09:01:44.000Z</time>
      </trkpt>
      <trkpt lat="43.14313" lon="3.11406">
        <ele>63</ele>
        <time>2014-11-23T09:01:45.000Z</time>
      </trkpt>
      <trkpt lat="43.14316" lon="3.11398">
        <ele>63</ele>
        <time>2014-11-23T09:01:48.000Z</time>
      </trkpt>
      <trkpt lat="43.1433" lon="3.11376">
        <ele>63</ele>
        <time>2014-11-23T09:01:54.000Z</time>
      </trkpt>
      <trkpt lat="43.14348" lon="3.11364">
        <ele>63</ele>
        <time>2014-11-23T09:01:59.000Z</time>
      </trkpt>
      <trkpt lat="43.14373" lon="3.11357">
        <ele>63</ele>
        <time>2014-11-23T09:02:06.000Z</time>
      </trkpt>
      <trkpt lat="43.14395" lon="3.1135">
        <ele>63.400001525879</ele>
        <time>2014-11-23T09:02:13.000Z</time>
      </trkpt>
      <trkpt lat="43.14398" lon="3.11349">
        <ele>64</ele>
        <time>2014-11-23T09:02:14.000Z</time>
      </trkpt>
      <trkpt lat="43.14401" lon="3.11348">
        <ele>64.400001525879</ele>
        <time>2014-11-23T09:02:15.000Z</time>
      </trkpt>
      <trkpt lat="43.14404" lon="3.11347">
        <ele>65</ele>
        <time>2014-11-23T09:02:16.000Z</time>
      </trkpt>
      <trkpt lat="43.14407" lon="3.11347">
        <ele>65.599998474121</ele>
        <time>2014-11-23T09:02:17.000Z</time>
      </trkpt>
      <trkpt lat="43.14418" lon="3.11345">
        <ele>65.599998474121</ele>
        <time>2014-11-23T09:02:21.000Z</time>
      </trkpt>
      <trkpt lat="43.14429" lon="3.1134">
        <ele>65.599998474121</ele>
        <time>2014-11-23T09:02:25.000Z</time>
      </trkpt>
      <trkpt lat="43.14442" lon="3.11329">
        <ele>65.599998474121</ele>
        <time>2014-11-23T09:02:30.000Z</time>
      </trkpt>
      <trkpt lat="43.14444" lon="3.11326">
        <ele>66</ele>
        <time>2014-11-23T09:02:31.000Z</time>
      </trkpt>
      <trkpt lat="43.14446" lon="3.11324">
        <ele>66.400001525879</ele>
        <time>2014-11-23T09:02:32.000Z</time>
      </trkpt>
      <trkpt lat="43.14448" lon="3.11321">
        <ele>66.800003051758</ele>
        <time>2014-11-23T09:02:33.000Z</time>
      </trkpt>
      <trkpt lat="43.1445" lon="3.11319">
        <ele>67.199996948242</ele>
        <time>2014-11-23T09:02:34.000Z</time>
      </trkpt>
      <trkpt lat="43.14452" lon="3.11315">
        <ele>67.599998474121</ele>
        <time>2014-11-23T09:02:35.000Z</time>
      </trkpt>
      <trkpt lat="43.14456" lon="3.11309">
        <ele>67.599998474121</ele>
        <time>2014-11-23T09:02:37.000Z</time>
      </trkpt>
      <trkpt lat="43.14465" lon="3.11292">
        <ele>68</ele>
        <time>2014-11-23T09:02:42.000Z</time>
      </trkpt>
      <trkpt lat="43.14466" lon="3.11289">
        <ele>68.400001525879</ele>
        <time>2014-11-23T09:02:43.000Z</time>
      </trkpt>
      <trkpt lat="43.14468" lon="3.11286">
        <ele>68.800003051758</ele>
        <time>2014-11-23T09:02:44.000Z</time>
      </trkpt>
      <trkpt lat="43.1447" lon="3.11283">
        <ele>69.199996948242</ele>
        <time>2014-11-23T09:02:45.000Z</time>
      </trkpt>
      <trkpt lat="43.14473" lon="3.1128">
        <ele>69.599998474121</ele>
        <time>2014-11-23T09:02:46.000Z</time>
      </trkpt>
      <trkpt lat="43.14481" lon="3.1127">
        <ele>69.599998474121</ele>
        <time>2014-11-23T09:02:50.000Z</time>
      </trkpt>
      <trkpt lat="43.1449" lon="3.11261">
        <ele>69.599998474121</ele>
        <time>2014-11-23T09:02:56.000Z</time>
      </trkpt>
      <trkpt lat="43.14494" lon="3.11258">
        <ele>70</ele>
        <time>2014-11-23T09:02:59.000Z</time>
      </trkpt>
      <trkpt lat="43.14496" lon="3.11256">
        <ele>70.400001525879</ele>
        <time>2014-11-23T09:03:00.000Z</time>
      </trkpt>
      <trkpt lat="43.14498" lon="3.11254">
        <ele>70.800003051758</ele>
        <time>2014-11-23T09:03:01.000Z</time>
      </trkpt>
      <trkpt lat="43.145" lon="3.11252">
        <ele>71.199996948242</ele>
        <time>2014-11-23T09:03:02.000Z</time>
      </trkpt>
      <trkpt lat="43.14502" lon="3.11251">
        <ele>71.599998474121</ele>
        <time>2014-11-23T09:03:03.000Z</time>
      </trkpt>
      <trkpt lat="43.1451" lon="3.11242">
        <ele>71.599998474121</ele>
        <time>2014-11-23T09:03:07.000Z</time>
      </trkpt>
      <trkpt lat="43.14524" lon="3.11228">
        <ele>71.599998474121</ele>
        <time>2014-11-23T09:03:13.000Z</time>
      </trkpt>
      <trkpt lat="43.14541" lon="3.11207">
        <ele>71.599998474121</ele>
        <time>2014-11-23T09:03:21.000Z</time>
      </trkpt>
      <trkpt lat="43.14546" lon="3.11203">
        <ele>72</ele>
        <time>2014-11-23T09:03:23.000Z</time>
      </trkpt>
      <trkpt lat="43.14548" lon="3.112">
        <ele>72.400001525879</ele>
        <time>2014-11-23T09:03:24.000Z</time>
      </trkpt>
      <trkpt lat="43.1455" lon="3.11197">
        <ele>72.800003051758</ele>
        <time>2014-11-23T09:03:25.000Z</time>
      </trkpt>
      <trkpt lat="43.14553" lon="3.11194">
        <ele>73.199996948242</ele>
        <time>2014-11-23T09:03:26.000Z</time>
      </trkpt>
      <trkpt lat="43.14556" lon="3.11192">
        <ele>73.800003051758</ele>
        <time>2014-11-23T09:03:27.000Z</time>
      </trkpt>
      <trkpt lat="43.14572" lon="3.11178">
        <ele>73.800003051758</ele>
        <time>2014-11-23T09:03:34.000Z</time>
      </trkpt>
      <trkpt lat="43.14586" lon="3.11169">
        <ele>73.800003051758</ele>
        <time>2014-11-23T09:03:40.000Z</time>
      </trkpt>
      <trkpt lat="43.14588" lon="3.11166">
        <ele>74.199996948242</ele>
        <time>2014-11-23T09:03:41.000Z</time>
      </trkpt>
      <trkpt lat="43.14591" lon="3.11164">
        <ele>74.599998474121</ele>
        <time>2014-11-23T09:03:42.000Z</time>
      </trkpt>
      <trkpt lat="43.14594" lon="3.11161">
        <ele>75</ele>
        <time>2014-11-23T09:03:43.000Z</time>
      </trkpt>
      <trkpt lat="43.14596" lon="3.11159">
        <ele>75.400001525879</ele>
        <time>2014-11-23T09:03:44.000Z</time>
      </trkpt>
      <trkpt lat="43.14598" lon="3.11157">
        <ele>75.800003051758</ele>
        <time>2014-11-23T09:03:45.000Z</time>
      </trkpt>
      <trkpt lat="43.146" lon="3.11155">
        <ele>75.800003051758</ele>
        <time>2014-11-23T09:03:46.000Z</time>
      </trkpt>
      <trkpt lat="43.14609" lon="3.11143">
        <ele>75.800003051758</ele>
        <time>2014-11-23T09:03:51.000Z</time>
      </trkpt>
      <trkpt lat="43.1462" lon="3.11131">
        <ele>76.199996948242</ele>
        <time>2014-11-23T09:03:56.000Z</time>
      </trkpt>
      <trkpt lat="43.14622" lon="3.11129">
        <ele>76.599998474121</ele>
        <time>2014-11-23T09:03:57.000Z</time>
      </trkpt>
      <trkpt lat="43.14625" lon="3.11127">
        <ele>77</ele>
        <time>2014-11-23T09:03:58.000Z</time>
      </trkpt>
      <trkpt lat="43.14627" lon="3.11126">
        <ele>77.400001525879</ele>
        <time>2014-11-23T09:03:59.000Z</time>
      </trkpt>
      <trkpt lat="43.1463" lon="3.11124">
        <ele>77.800003051758</ele>
        <time>2014-11-23T09:04:00.000Z</time>
      </trkpt>
      <trkpt lat="43.14639" lon="3.11115">
        <ele>77.800003051758</ele>
        <time>2014-11-23T09:04:04.000Z</time>
      </trkpt>
      <trkpt lat="43.14652" lon="3.111">
        <ele>77.800003051758</ele>
        <time>2014-11-23T09:04:11.000Z</time>
      </trkpt>
      <trkpt lat="43.14659" lon="3.11094">
        <ele>78.400001525879</ele>
        <time>2014-11-23T09:04:14.000Z</time>
      </trkpt>
      <trkpt lat="43.14661" lon="3.11091">
        <ele>78.800003051758</ele>
        <time>2014-11-23T09:04:15.000Z</time>
      </trkpt>
      <trkpt lat="43.14663" lon="3.11088">
        <ele>79.199996948242</ele>
        <time>2014-11-23T09:04:16.000Z</time>
      </trkpt>
      <trkpt lat="43.14665" lon="3.11086">
        <ele>79.599998474121</ele>
        <time>2014-11-23T09:04:17.000Z</time>
      </trkpt>
      <trkpt lat="43.14668" lon="3.11084">
        <ele>80.199996948242</ele>
        <time>2014-11-23T09:04:18.000Z</time>
      </trkpt>
      <trkpt lat="43.14679" lon="3.11068">
        <ele>80.199996948242</ele>
        <time>2014-11-23T09:04:24.000Z</time>
      </trkpt>
      <trkpt lat="43.1468" lon="3.11065">
        <ele>80.599998474121</ele>
        <time>2014-11-23T09:04:25.000Z</time>
      </trkpt>
      <trkpt lat="43.14681" lon="3.11062">
        <ele>81</ele>
        <time>2014-11-23T09:04:26.000Z</time>
      </trkpt>
      <trkpt lat="43.14682" lon="3.11059">
        <ele>81.400001525879</ele>
        <time>2014-11-23T09:04:27.000Z</time>
      </trkpt>
      <trkpt lat="43.14684" lon="3.11056">
        <ele>81.800003051758</ele>
        <time>2014-11-23T09:04:28.000Z</time>
      </trkpt>
      <trkpt lat="43.14686" lon="3.11055">
        <ele>82.199996948242</ele>
        <time>2014-11-23T09:04:29.000Z</time>
      </trkpt>
      <trkpt lat="43.14688" lon="3.11053">
        <ele>82.199996948242</ele>
        <time>2014-11-23T09:04:30.000Z</time>
      </trkpt>
      <trkpt lat="43.14696" lon="3.11041">
        <ele>82.199996948242</ele>
        <time>2014-11-23T09:04:35.000Z</time>
      </trkpt>
      <trkpt lat="43.14702" lon="3.11032">
        <ele>82.599998474121</ele>
        <time>2014-11-23T09:04:39.000Z</time>
      </trkpt>
      <trkpt lat="43.14704" lon="3.11029">
        <ele>83</ele>
        <time>2014-11-23T09:04:40.000Z</time>
      </trkpt>
      <trkpt lat="43.14705" lon="3.11027">
        <ele>83.400001525879</ele>
        <time>2014-11-23T09:04:41.000Z</time>
      </trkpt>
      <trkpt lat="43.14706" lon="3.11023">
        <ele>83.800003051758</ele>
        <time>2014-11-23T09:04:42.000Z</time>
      </trkpt>
      <trkpt lat="43.14707" lon="3.11019">
        <ele>84.199996948242</ele>
        <time>2014-11-23T09:04:43.000Z</time>
      </trkpt>
      <trkpt lat="43.14714" lon="3.10996">
        <ele>84.199996948242</ele>
        <time>2014-11-23T09:04:48.000Z</time>
      </trkpt>
      <trkpt lat="43.14727" lon="3.10979">
        <ele>84.199996948242</ele>
        <time>2014-11-23T09:04:54.000Z</time>
      </trkpt>
      <trkpt lat="43.1474" lon="3.10973">
        <ele>84.199996948242</ele>
        <time>2014-11-23T09:05:00.000Z</time>
      </trkpt>
      <trkpt lat="43.14754" lon="3.10977">
        <ele>84.199996948242</ele>
        <time>2014-11-23T09:05:05.000Z</time>
      </trkpt>
      <trkpt lat="43.14758" lon="3.1098">
        <ele>84.800003051758</ele>
        <time>2014-11-23T09:05:07.000Z</time>
      </trkpt>
      <trkpt lat="43.1476" lon="3.10982">
        <ele>85.199996948242</ele>
        <time>2014-11-23T09:05:08.000Z</time>
      </trkpt>
      <trkpt lat="43.14763" lon="3.10983">
        <ele>85.599998474121</ele>
        <time>2014-11-23T09:05:09.000Z</time>
      </trkpt>
      <trkpt lat="43.14764" lon="3.10984">
        <ele>86</ele>
        <time>2014-11-23T09:05:10.000Z</time>
      </trkpt>
      <trkpt lat="43.14766" lon="3.10985">
        <ele>86.400001525879</ele>
        <time>2014-11-23T09:05:11.000Z</time>
      </trkpt>
      <trkpt lat="43.14778" lon="3.10995">
        <ele>86.400001525879</ele>
        <time>2014-11-23T09:05:16.000Z</time>
      </trkpt>
      <trkpt lat="43.14786" lon="3.11015">
        <ele>86.400001525879</ele>
        <time>2014-11-23T09:05:21.000Z</time>
      </trkpt>
      <trkpt lat="43.14787" lon="3.11026">
        <ele>86.400001525879</ele>
        <time>2014-11-23T09:05:24.000Z</time>
      </trkpt>
      <trkpt lat="43.14788" lon="3.11033">
        <ele>86.400001525879</ele>
        <time>2014-11-23T09:05:26.000Z</time>
      </trkpt>
      <trkpt lat="43.1479" lon="3.1104">
        <ele>86.800003051758</ele>
        <time>2014-11-23T09:05:28.000Z</time>
      </trkpt>
      <trkpt lat="43.14792" lon="3.11043">
        <ele>87.199996948242</ele>
        <time>2014-11-23T09:05:29.000Z</time>
      </trkpt>
      <trkpt lat="43.14794" lon="3.11045">
        <ele>87.800003051758</ele>
        <time>2014-11-23T09:05:30.000Z</time>
      </trkpt>
      <trkpt lat="43.14796" lon="3.11047">
        <ele>88.199996948242</ele>
        <time>2014-11-23T09:05:31.000Z</time>
      </trkpt>
      <trkpt lat="43.14799" lon="3.11048">
        <ele>88.599998474121</ele>
        <time>2014-11-23T09:05:32.000Z</time>
      </trkpt>
      <trkpt lat="43.14812" lon="3.11056">
        <ele>88.599998474121</ele>
        <time>2014-11-23T09:05:38.000Z</time>
      </trkpt>
      <trkpt lat="43.14816" lon="3.11058">
        <ele>89</ele>
        <time>2014-11-23T09:05:40.000Z</time>
      </trkpt>
      <trkpt lat="43.14818" lon="3.1106">
        <ele>89.400001525879</ele>
        <time>2014-11-23T09:05:41.000Z</time>
      </trkpt>
      <trkpt lat="43.1482" lon="3.11062">
        <ele>89.800003051758</ele>
        <time>2014-11-23T09:05:42.000Z</time>
      </trkpt>
      <trkpt lat="43.14823" lon="3.11063">
        <ele>90.400001525879</ele>
        <time>2014-11-23T09:05:43.000Z</time>
      </trkpt>
      <trkpt lat="43.14825" lon="3.11064">
        <ele>90.800003051758</ele>
        <time>2014-11-23T09:05:44.000Z</time>
      </trkpt>
      <trkpt lat="43.1483" lon="3.11066">
        <ele>90.800003051758</ele>
        <time>2014-11-23T09:05:46.000Z</time>
      </trkpt>
      <trkpt lat="43.14847" lon="3.11065">
        <ele>90.800003051758</ele>
        <time>2014-11-23T09:05:51.000Z</time>
      </trkpt>
      <trkpt lat="43.14862" lon="3.11064">
        <ele>90.800003051758</ele>
        <time>2014-11-23T09:05:57.000Z</time>
      </trkpt>
      <trkpt lat="43.14864" lon="3.11063">
        <ele>91.199996948242</ele>
        <time>2014-11-23T09:05:58.000Z</time>
      </trkpt>
      <trkpt lat="43.14867" lon="3.11063">
        <ele>91.599998474121</ele>
        <time>2014-11-23T09:05:59.000Z</time>
      </trkpt>
      <trkpt lat="43.14869" lon="3.11063">
        <ele>92</ele>
        <time>2014-11-23T09:06:00.000Z</time>
      </trkpt>
      <trkpt lat="43.14872" lon="3.11062">
        <ele>92.400001525879</ele>
        <time>2014-11-23T09:06:01.000Z</time>
      </trkpt>
      <trkpt lat="43.14874" lon="3.11062">
        <ele>92.800003051758</ele>
        <time>2014-11-23T09:06:02.000Z</time>
      </trkpt>
      <trkpt lat="43.14887" lon="3.11065">
        <ele>92.800003051758</ele>
        <time>2014-11-23T09:06:08.000Z</time>
      </trkpt>
      <trkpt lat="43.149" lon="3.11078">
        <ele>92.800003051758</ele>
        <time>2014-11-23T09:06:13.000Z</time>
      </trkpt>
      <trkpt lat="43.14908" lon="3.1109">
        <ele>92.800003051758</ele>
        <time>2014-11-23T09:06:18.000Z</time>
      </trkpt>
      <trkpt lat="43.14909" lon="3.11093">
        <ele>93.199996948242</ele>
        <time>2014-11-23T09:06:19.000Z</time>
      </trkpt>
      <trkpt lat="43.14911" lon="3.11095">
        <ele>93.599998474121</ele>
        <time>2014-11-23T09:06:20.000Z</time>
      </trkpt>
      <trkpt lat="43.14912" lon="3.11096">
        <ele>94</ele>
        <time>2014-11-23T09:06:21.000Z</time>
      </trkpt>
      <trkpt lat="43.14914" lon="3.11097">
        <ele>94.400001525879</ele>
        <time>2014-11-23T09:06:22.000Z</time>
      </trkpt>
      <trkpt lat="43.14916" lon="3.11097">
        <ele>94.800003051758</ele>
        <time>2014-11-23T09:06:23.000Z</time>
      </trkpt>
      <trkpt lat="43.14928" lon="3.11097">
        <ele>94.800003051758</ele>
        <time>2014-11-23T09:06:29.000Z</time>
      </trkpt>
      <trkpt lat="43.1493" lon="3.11096">
        <ele>95.199996948242</ele>
        <time>2014-11-23T09:06:30.000Z</time>
      </trkpt>
      <trkpt lat="43.14932" lon="3.11095">
        <ele>95.800003051758</ele>
        <time>2014-11-23T09:06:31.000Z</time>
      </trkpt>
      <trkpt lat="43.14934" lon="3.11093">
        <ele>96.199996948242</ele>
        <time>2014-11-23T09:06:32.000Z</time>
      </trkpt>
      <trkpt lat="43.14935" lon="3.11092">
        <ele>96.599998474121</ele>
        <time>2014-11-23T09:06:33.000Z</time>
      </trkpt>
      <trkpt lat="43.14937" lon="3.11091">
        <ele>97.199996948242</ele>
        <time>2014-11-23T09:06:34.000Z</time>
      </trkpt>
      <trkpt lat="43.14938" lon="3.11089">
        <ele>97.199996948242</ele>
        <time>2014-11-23T09:06:35.000Z</time>
      </trkpt>
      <trkpt lat="43.14952" lon="3.11079">
        <ele>97.199996948242</ele>
        <time>2014-11-23T09:06:42.000Z</time>
      </trkpt>
      <trkpt lat="43.1496" lon="3.1108">
        <ele>97.199996948242</ele>
        <time>2014-11-23T09:06:46.000Z</time>
      </trkpt>
      <trkpt lat="43.14962" lon="3.1108">
        <ele>97.599998474121</ele>
        <time>2014-11-23T09:06:47.000Z</time>
      </trkpt>
      <trkpt lat="43.14964" lon="3.11081">
        <ele>98</ele>
        <time>2014-11-23T09:06:48.000Z</time>
      </trkpt>
      <trkpt lat="43.14966" lon="3.11081">
        <ele>98.400001525879</ele>
        <time>2014-11-23T09:06:49.000Z</time>
      </trkpt>
      <trkpt lat="43.14968" lon="3.11081">
        <ele>98.800003051758</ele>
        <time>2014-11-23T09:06:50.000Z</time>
      </trkpt>
      <trkpt lat="43.14969" lon="3.11081">
        <ele>99.199996948242</ele>
        <time>2014-11-23T09:06:51.000Z</time>
      </trkpt>
      <trkpt lat="43.14975" lon="3.11081">
        <ele>99.199996948242</ele>
        <time>2014-11-23T09:06:54.000Z</time>
      </trkpt>
      <trkpt lat="43.14979" lon="3.11081">
        <ele>99.599998474121</ele>
        <time>2014-11-23T09:06:56.000Z</time>
      </trkpt>
      <trkpt lat="43.14981" lon="3.11082">
        <ele>100</ele>
        <time>2014-11-23T09:06:57.000Z</time>
      </trkpt>
      <trkpt lat="43.14983" lon="3.11081">
        <ele>100.40000152588</ele>
        <time>2014-11-23T09:06:58.000Z</time>
      </trkpt>
      <trkpt lat="43.14985" lon="3.11081">
        <ele>101.40000152588</ele>
        <time>2014-11-23T09:06:59.000Z</time>
      </trkpt>
      <trkpt lat="43.14992" lon="3.11084">
        <ele>101.80000305176</ele>
        <time>2014-11-23T09:07:03.000Z</time>
      </trkpt>
      <trkpt lat="43.14993" lon="3.11085">
        <ele>102.19999694824</ele>
        <time>2014-11-23T09:07:04.000Z</time>
      </trkpt>
      <trkpt lat="43.14996" lon="3.11085">
        <ele>102.59999847412</ele>
        <time>2014-11-23T09:07:05.000Z</time>
      </trkpt>
      <trkpt lat="43.14998" lon="3.11085">
        <ele>103</ele>
        <time>2014-11-23T09:07:06.000Z</time>
      </trkpt>
      <trkpt lat="43.15" lon="3.11084">
        <ele>103.40000152588</ele>
        <time>2014-11-23T09:07:07.000Z</time>
      </trkpt>
      <trkpt lat="43.1501" lon="3.11081">
        <ele>103.40000152588</ele>
        <time>2014-11-23T09:07:13.000Z</time>
      </trkpt>
      <trkpt lat="43.15012" lon="3.1108">
        <ele>103.80000305176</ele>
        <time>2014-11-23T09:07:14.000Z</time>
      </trkpt>
      <trkpt lat="43.15014" lon="3.1108">
        <ele>104.19999694824</ele>
        <time>2014-11-23T09:07:15.000Z</time>
      </trkpt>
      <trkpt lat="43.15015" lon="3.11079">
        <ele>104.59999847412</ele>
        <time>2014-11-23T09:07:16.000Z</time>
      </trkpt>
      <trkpt lat="43.15017" lon="3.11078">
        <ele>105</ele>
        <time>2014-11-23T09:07:17.000Z</time>
      </trkpt>
      <trkpt lat="43.15019" lon="3.11078">
        <ele>105.40000152588</ele>
        <time>2014-11-23T09:07:18.000Z</time>
      </trkpt>
      <trkpt lat="43.15023" lon="3.11075">
        <ele>105.40000152588</ele>
        <time>2014-11-23T09:07:21.000Z</time>
      </trkpt>
      <trkpt lat="43.15033" lon="3.11075">
        <ele>105.40000152588</ele>
        <time>2014-11-23T09:07:27.000Z</time>
      </trkpt>
      <trkpt lat="43.15035" lon="3.11075">
        <ele>105.80000305176</ele>
        <time>2014-11-23T09:07:28.000Z</time>
      </trkpt>
      <trkpt lat="43.15036" lon="3.11075">
        <ele>106.19999694824</ele>
        <time>2014-11-23T09:07:29.000Z</time>
      </trkpt>
      <trkpt lat="43.15038" lon="3.11075">
        <ele>106.59999847412</ele>
        <time>2014-11-23T09:07:30.000Z</time>
      </trkpt>
      <trkpt lat="43.1504" lon="3.11075">
        <ele>107</ele>
        <time>2014-11-23T09:07:31.000Z</time>
      </trkpt>
      <trkpt lat="43.15042" lon="3.11075">
        <ele>107.59999847412</ele>
        <time>2014-11-23T09:07:32.000Z</time>
      </trkpt>
      <trkpt lat="43.15044" lon="3.11076">
        <ele>107.59999847412</ele>
        <time>2014-11-23T09:07:33.000Z</time>
      </trkpt>
      <trkpt lat="43.15055" lon="3.11081">
        <ele>107.59999847412</ele>
        <time>2014-11-23T09:07:39.000Z</time>
      </trkpt>
      <trkpt lat="43.15057" lon="3.11082">
        <ele>108</ele>
        <time>2014-11-23T09:07:40.000Z</time>
      </trkpt>
      <trkpt lat="43.15059" lon="3.11083">
        <ele>108.40000152588</ele>
        <time>2014-11-23T09:07:41.000Z</time>
      </trkpt>
      <trkpt lat="43.1506" lon="3.11085">
        <ele>108.80000305176</ele>
        <time>2014-11-23T09:07:42.000Z</time>
      </trkpt>
      <trkpt lat="43.15062" lon="3.11087">
        <ele>109.19999694824</ele>
        <time>2014-11-23T09:07:43.000Z</time>
      </trkpt>
      <trkpt lat="43.15062" lon="3.11088">
        <ele>109.59999847412</ele>
        <time>2014-11-23T09:07:44.000Z</time>
      </trkpt>
      <trkpt lat="43.15063" lon="3.1109">
        <ele>109.59999847412</ele>
        <time>2014-11-23T09:07:45.000Z</time>
      </trkpt>
      <trkpt lat="43.15064" lon="3.11096">
        <ele>109.59999847412</ele>
        <time>2014-11-23T09:07:50.000Z</time>
      </trkpt>
      <trkpt lat="43.15065" lon="3.11097">
        <ele>109.59999847412</ele>
        <time>2014-11-23T09:07:51.000Z</time>
      </trkpt>
      <trkpt lat="43.15067" lon="3.11103">
        <ele>109.59999847412</ele>
        <time>2014-11-23T09:07:54.000Z</time>
      </trkpt>
      <trkpt lat="43.15068" lon="3.11105">
        <ele>109.59999847412</ele>
        <time>2014-11-23T09:07:57.000Z</time>
      </trkpt>
      <trkpt lat="43.15067" lon="3.11105">
        <ele>109.59999847412</ele>
        <time>2014-11-23T09:07:58.000Z</time>
      </trkpt>
      <trkpt lat="43.15066" lon="3.11103">
        <ele>109.59999847412</ele>
        <time>2014-11-23T09:08:29.000Z</time>
      </trkpt>
      <trkpt lat="43.15066" lon="3.11103">
        <ele>109.59999847412</ele>
        <time>2014-11-23T09:08:30.000Z</time>
      </trkpt>
      <trkpt lat="43.15064" lon="3.11095">
        <ele>109.59999847412</ele>
        <time>2014-11-23T09:08:38.000Z</time>
      </trkpt>
      <trkpt lat="43.15064" lon="3.11095">
        <ele>109.59999847412</ele>
        <time>2014-11-23T09:08:39.000Z</time>
      </trkpt>
      <trkpt lat="43.15066" lon="3.11099">
        <ele>109.59999847412</ele>
        <time>2014-11-23T09:09:01.000Z</time>
      </trkpt>
      <trkpt lat="43.15067" lon="3.11102">
        <ele>109.59999847412</ele>
        <time>2014-11-23T09:09:02.000Z</time>
      </trkpt>
      <trkpt lat="43.1507" lon="3.11117">
        <ele>109.59999847412</ele>
        <time>2014-11-23T09:09:07.000Z</time>
      </trkpt>
      <trkpt lat="43.1508" lon="3.11125">
        <ele>109.59999847412</ele>
        <time>2014-11-23T09:09:11.000Z</time>
      </trkpt>
      <trkpt lat="43.15091" lon="3.11136">
        <ele>110</ele>
        <time>2014-11-23T09:09:16.000Z</time>
      </trkpt>
      <trkpt lat="43.15092" lon="3.11138">
        <ele>110.40000152588</ele>
        <time>2014-11-23T09:09:17.000Z</time>
      </trkpt>
      <trkpt lat="43.15094" lon="3.1114">
        <ele>110.80000305176</ele>
        <time>2014-11-23T09:09:18.000Z</time>
      </trkpt>
      <trkpt lat="43.15096" lon="3.11143">
        <ele>111.19999694824</ele>
        <time>2014-11-23T09:09:19.000Z</time>
      </trkpt>
      <trkpt lat="43.15098" lon="3.11145">
        <ele>111.59999847412</ele>
        <time>2014-11-23T09:09:20.000Z</time>
      </trkpt>
      <trkpt lat="43.15106" lon="3.11153">
        <ele>111.59999847412</ele>
        <time>2014-11-23T09:09:24.000Z</time>
      </trkpt>
      <trkpt lat="43.15119" lon="3.11154">
        <ele>112</ele>
        <time>2014-11-23T09:09:30.000Z</time>
      </trkpt>
      <trkpt lat="43.15121" lon="3.11154">
        <ele>112.40000152588</ele>
        <time>2014-11-23T09:09:31.000Z</time>
      </trkpt>
      <trkpt lat="43.15123" lon="3.11154">
        <ele>112.80000305176</ele>
        <time>2014-11-23T09:09:32.000Z</time>
      </trkpt>
      <trkpt lat="43.15125" lon="3.11154">
        <ele>113.19999694824</ele>
        <time>2014-11-23T09:09:33.000Z</time>
      </trkpt>
      <trkpt lat="43.15127" lon="3.11154">
        <ele>113.59999847412</ele>
        <time>2014-11-23T09:09:34.000Z</time>
      </trkpt>
      <trkpt lat="43.15132" lon="3.11153">
        <ele>113.59999847412</ele>
        <time>2014-11-23T09:09:36.000Z</time>
      </trkpt>
      <trkpt lat="43.15142" lon="3.11148">
        <ele>113.59999847412</ele>
        <time>2014-11-23T09:09:42.000Z</time>
      </trkpt>
      <trkpt lat="43.15149" lon="3.11143">
        <ele>113.59999847412</ele>
        <time>2014-11-23T09:09:48.000Z</time>
      </trkpt>
      <trkpt lat="43.15152" lon="3.11141">
        <ele>114</ele>
        <time>2014-11-23T09:09:51.000Z</time>
      </trkpt>
      <trkpt lat="43.15154" lon="3.1114">
        <ele>114.40000152588</ele>
        <time>2014-11-23T09:09:52.000Z</time>
      </trkpt>
      <trkpt lat="43.15154" lon="3.11139">
        <ele>115.19999694824</ele>
        <time>2014-11-23T09:09:53.000Z</time>
      </trkpt>
      <trkpt lat="43.15156" lon="3.11139">
        <ele>115.59999847412</ele>
        <time>2014-11-23T09:09:54.000Z</time>
      </trkpt>
      <trkpt lat="43.15163" lon="3.11133">
        <ele>115.59999847412</ele>
        <time>2014-11-23T09:10:01.000Z</time>
      </trkpt>
      <trkpt lat="43.15165" lon="3.11133">
        <ele>115.59999847412</ele>
        <time>2014-11-23T09:10:03.000Z</time>
      </trkpt>
      <trkpt lat="43.15172" lon="3.11132">
        <ele>115.59999847412</ele>
        <time>2014-11-23T09:10:08.000Z</time>
      </trkpt>
      <trkpt lat="43.15175" lon="3.11132">
        <ele>115.59999847412</ele>
        <time>2014-11-23T09:10:10.000Z</time>
      </trkpt>
      <trkpt lat="43.15183" lon="3.1113">
        <ele>115.59999847412</ele>
        <time>2014-11-23T09:10:13.000Z</time>
      </trkpt>
      <trkpt lat="43.15194" lon="3.11133">
        <ele>115.59999847412</ele>
        <time>2014-11-23T09:10:18.000Z</time>
      </trkpt>
      <trkpt lat="43.15199" lon="3.11131">
        <ele>115.59999847412</ele>
        <time>2014-11-23T09:10:22.000Z</time>
      </trkpt>
      <trkpt lat="43.15211" lon="3.11129">
        <ele>115.59999847412</ele>
        <time>2014-11-23T09:10:28.000Z</time>
      </trkpt>
      <trkpt lat="43.15226" lon="3.11126">
        <ele>115.19999694824</ele>
        <time>2014-11-23T09:10:32.000Z</time>
      </trkpt>
      <trkpt lat="43.1523" lon="3.11125">
        <ele>114.80000305176</ele>
        <time>2014-11-23T09:10:33.000Z</time>
      </trkpt>
      <trkpt lat="43.15235" lon="3.11124">
        <ele>114.40000152588</ele>
        <time>2014-11-23T09:10:34.000Z</time>
      </trkpt>
      <trkpt lat="43.1524" lon="3.11123">
        <ele>114</ele>
        <time>2014-11-23T09:10:35.000Z</time>
      </trkpt>
      <trkpt lat="43.15244" lon="3.11122">
        <ele>113.59999847412</ele>
        <time>2014-11-23T09:10:36.000Z</time>
      </trkpt>
      <trkpt lat="43.15249" lon="3.1112">
        <ele>113.59999847412</ele>
        <time>2014-11-23T09:10:37.000Z</time>
      </trkpt>
      <trkpt lat="43.15259" lon="3.11115">
        <ele>113.59999847412</ele>
        <time>2014-11-23T09:10:39.000Z</time>
      </trkpt>
      <trkpt lat="43.15271" lon="3.11104">
        <ele>112.59999847412</ele>
        <time>2014-11-23T09:10:42.000Z</time>
      </trkpt>
      <trkpt lat="43.15275" lon="3.11101">
        <ele>112.19999694824</ele>
        <time>2014-11-23T09:10:43.000Z</time>
      </trkpt>
      <trkpt lat="43.15279" lon="3.11096">
        <ele>111.80000305176</ele>
        <time>2014-11-23T09:10:44.000Z</time>
      </trkpt>
      <trkpt lat="43.15283" lon="3.11092">
        <ele>111.19999694824</ele>
        <time>2014-11-23T09:10:45.000Z</time>
      </trkpt>
      <trkpt lat="43.15301" lon="3.11071">
        <ele>111.19999694824</ele>
        <time>2014-11-23T09:10:50.000Z</time>
      </trkpt>
      <trkpt lat="43.15304" lon="3.11069">
        <ele>111.19999694824</ele>
        <time>2014-11-23T09:10:51.000Z</time>
      </trkpt>
      <trkpt lat="43.15314" lon="3.11053">
        <ele>111.19999694824</ele>
        <time>2014-11-23T09:10:56.000Z</time>
      </trkpt>
      <trkpt lat="43.15315" lon="3.11049">
        <ele>111.19999694824</ele>
        <time>2014-11-23T09:10:57.000Z</time>
      </trkpt>
      <trkpt lat="43.15316" lon="3.11038">
        <ele>111.19999694824</ele>
        <time>2014-11-23T09:11:01.000Z</time>
      </trkpt>
      <trkpt lat="43.1532" lon="3.11022">
        <ele>111.19999694824</ele>
        <time>2014-11-23T09:11:07.000Z</time>
      </trkpt>
      <trkpt lat="43.15324" lon="3.11006">
        <ele>111.19999694824</ele>
        <time>2014-11-23T09:11:13.000Z</time>
      </trkpt>
      <trkpt lat="43.15325" lon="3.11001">
        <ele>111.59999847412</ele>
        <time>2014-11-23T09:11:15.000Z</time>
      </trkpt>
      <trkpt lat="43.15326" lon="3.10998">
        <ele>112</ele>
        <time>2014-11-23T09:11:16.000Z</time>
      </trkpt>
      <trkpt lat="43.15327" lon="3.10995">
        <ele>112.59999847412</ele>
        <time>2014-11-23T09:11:17.000Z</time>
      </trkpt>
      <trkpt lat="43.15328" lon="3.10992">
        <ele>113</ele>
        <time>2014-11-23T09:11:18.000Z</time>
      </trkpt>
      <trkpt lat="43.15328" lon="3.10989">
        <ele>113.40000152588</ele>
        <time>2014-11-23T09:11:19.000Z</time>
      </trkpt>
      <trkpt lat="43.15334" lon="3.1097">
        <ele>113.40000152588</ele>
        <time>2014-11-23T09:11:26.000Z</time>
      </trkpt>
      <trkpt lat="43.1534" lon="3.10954">
        <ele>113.40000152588</ele>
        <time>2014-11-23T09:11:31.000Z</time>
      </trkpt>
      <trkpt lat="43.15342" lon="3.10936">
        <ele>113.40000152588</ele>
        <time>2014-11-23T09:11:37.000Z</time>
      </trkpt>
      <trkpt lat="43.15344" lon="3.10928">
        <ele>113.80000305176</ele>
        <time>2014-11-23T09:11:40.000Z</time>
      </trkpt>
      <trkpt lat="43.15345" lon="3.10925">
        <ele>114.19999694824</ele>
        <time>2014-11-23T09:11:41.000Z</time>
      </trkpt>
      <trkpt lat="43.15345" lon="3.10923">
        <ele>114.59999847412</ele>
        <time>2014-11-23T09:11:42.000Z</time>
      </trkpt>
      <trkpt lat="43.15346" lon="3.10921">
        <ele>115</ele>
        <time>2014-11-23T09:11:43.000Z</time>
      </trkpt>
      <trkpt lat="43.15347" lon="3.10919">
        <ele>115.40000152588</ele>
        <time>2014-11-23T09:11:44.000Z</time>
      </trkpt>
      <trkpt lat="43.15348" lon="3.10917">
        <ele>115.40000152588</ele>
        <time>2014-11-23T09:11:45.000Z</time>
      </trkpt>
      <trkpt lat="43.15352" lon="3.10904">
        <ele>115.40000152588</ele>
        <time>2014-11-23T09:11:51.000Z</time>
      </trkpt>
      <trkpt lat="43.15353" lon="3.10902">
        <ele>116</ele>
        <time>2014-11-23T09:11:52.000Z</time>
      </trkpt>
      <trkpt lat="43.15354" lon="3.109">
        <ele>116.40000152588</ele>
        <time>2014-11-23T09:11:53.000Z</time>
      </trkpt>
      <trkpt lat="43.15355" lon="3.10899">
        <ele>116.80000305176</ele>
        <time>2014-11-23T09:11:54.000Z</time>
      </trkpt>
      <trkpt lat="43.15357" lon="3.10897">
        <ele>117.40000152588</ele>
        <time>2014-11-23T09:11:55.000Z</time>
      </trkpt>
      <trkpt lat="43.15358" lon="3.10896">
        <ele>117.80000305176</ele>
        <time>2014-11-23T09:11:56.000Z</time>
      </trkpt>
      <trkpt lat="43.15361" lon="3.10894">
        <ele>117.80000305176</ele>
        <time>2014-11-23T09:11:58.000Z</time>
      </trkpt>
      <trkpt lat="43.15366" lon="3.10886">
        <ele>117.80000305176</ele>
        <time>2014-11-23T09:12:02.000Z</time>
      </trkpt>
      <trkpt lat="43.15369" lon="3.10878">
        <ele>118.19999694824</ele>
        <time>2014-11-23T09:12:06.000Z</time>
      </trkpt>
      <trkpt lat="43.15369" lon="3.10876">
        <ele>118.59999847412</ele>
        <time>2014-11-23T09:12:07.000Z</time>
      </trkpt>
      <trkpt lat="43.15369" lon="3.10874">
        <ele>119</ele>
        <time>2014-11-23T09:12:08.000Z</time>
      </trkpt>
      <trkpt lat="43.1537" lon="3.10872">
        <ele>119.40000152588</ele>
        <time>2014-11-23T09:12:09.000Z</time>
      </trkpt>
      <trkpt lat="43.15371" lon="3.1087">
        <ele>119.80000305176</ele>
        <time>2014-11-23T09:12:10.000Z</time>
      </trkpt>
      <trkpt lat="43.15371" lon="3.10868">
        <ele>119.80000305176</ele>
        <time>2014-11-23T09:12:11.000Z</time>
      </trkpt>
      <trkpt lat="43.15372" lon="3.10864">
        <ele>119.80000305176</ele>
        <time>2014-11-23T09:12:13.000Z</time>
      </trkpt>
      <trkpt lat="43.15377" lon="3.10857">
        <ele>120.19999694824</ele>
        <time>2014-11-23T09:12:17.000Z</time>
      </trkpt>
      <trkpt lat="43.15378" lon="3.10856">
        <ele>120.59999847412</ele>
        <time>2014-11-23T09:12:18.000Z</time>
      </trkpt>
      <trkpt lat="43.1538" lon="3.10854">
        <ele>121</ele>
        <time>2014-11-23T09:12:19.000Z</time>
      </trkpt>
      <trkpt lat="43.15381" lon="3.10853">
        <ele>121.40000152588</ele>
        <time>2014-11-23T09:12:20.000Z</time>
      </trkpt>
      <trkpt lat="43.15382" lon="3.10851">
        <ele>122</ele>
        <time>2014-11-23T09:12:21.000Z</time>
      </trkpt>
      <trkpt lat="43.15387" lon="3.10845">
        <ele>122</ele>
        <time>2014-11-23T09:12:25.000Z</time>
      </trkpt>
      <trkpt lat="43.15388" lon="3.10843">
        <ele>122.40000152588</ele>
        <time>2014-11-23T09:12:26.000Z</time>
      </trkpt>
      <trkpt lat="43.1539" lon="3.10842">
        <ele>122.80000305176</ele>
        <time>2014-11-23T09:12:27.000Z</time>
      </trkpt>
      <trkpt lat="43.15391" lon="3.10842">
        <ele>123.19999694824</ele>
        <time>2014-11-23T09:12:28.000Z</time>
      </trkpt>
      <trkpt lat="43.15393" lon="3.10841">
        <ele>123.80000305176</ele>
        <time>2014-11-23T09:12:29.000Z</time>
      </trkpt>
      <trkpt lat="43.15394" lon="3.1084">
        <ele>124.19999694824</ele>
        <time>2014-11-23T09:12:30.000Z</time>
      </trkpt>
      <trkpt lat="43.15395" lon="3.10839">
        <ele>124.19999694824</ele>
        <time>2014-11-23T09:12:31.000Z</time>
      </trkpt>
      <trkpt lat="43.15403" lon="3.10835">
        <ele>124.59999847412</ele>
        <time>2014-11-23T09:12:37.000Z</time>
      </trkpt>
      <trkpt lat="43.15405" lon="3.10835">
        <ele>125</ele>
        <time>2014-11-23T09:12:38.000Z</time>
      </trkpt>
      <trkpt lat="43.15407" lon="3.10834">
        <ele>125.40000152588</ele>
        <time>2014-11-23T09:12:39.000Z</time>
      </trkpt>
      <trkpt lat="43.15409" lon="3.10834">
        <ele>125.80000305176</ele>
        <time>2014-11-23T09:12:40.000Z</time>
      </trkpt>
      <trkpt lat="43.1541" lon="3.10833">
        <ele>126.40000152588</ele>
        <time>2014-11-23T09:12:41.000Z</time>
      </trkpt>
      <trkpt lat="43.15417" lon="3.10832">
        <ele>126.40000152588</ele>
        <time>2014-11-23T09:12:45.000Z</time>
      </trkpt>
      <trkpt lat="43.15419" lon="3.10832">
        <ele>126.80000305176</ele>
        <time>2014-11-23T09:12:46.000Z</time>
      </trkpt>
      <trkpt lat="43.15421" lon="3.10831">
        <ele>127.19999694824</ele>
        <time>2014-11-23T09:12:47.000Z</time>
      </trkpt>
      <trkpt lat="43.15423" lon="3.10831">
        <ele>127.59999847412</ele>
        <time>2014-11-23T09:12:48.000Z</time>
      </trkpt>
      <trkpt lat="43.15425" lon="3.10832">
        <ele>128</ele>
        <time>2014-11-23T09:12:49.000Z</time>
      </trkpt>
      <trkpt lat="43.15427" lon="3.10832">
        <ele>128.39999389648</ele>
        <time>2014-11-23T09:12:50.000Z</time>
      </trkpt>
      <trkpt lat="43.1543" lon="3.10832">
        <ele>128.39999389648</ele>
        <time>2014-11-23T09:12:52.000Z</time>
      </trkpt>
      <trkpt lat="43.15438" lon="3.10834">
        <ele>129</ele>
        <time>2014-11-23T09:12:57.000Z</time>
      </trkpt>
      <trkpt lat="43.1544" lon="3.10834">
        <ele>129.39999389648</ele>
        <time>2014-11-23T09:12:58.000Z</time>
      </trkpt>
      <trkpt lat="43.15441" lon="3.10835">
        <ele>129.80000305176</ele>
        <time>2014-11-23T09:12:59.000Z</time>
      </trkpt>
      <trkpt lat="43.15443" lon="3.10835">
        <ele>130.19999694824</ele>
        <time>2014-11-23T09:13:00.000Z</time>
      </trkpt>
      <trkpt lat="43.15445" lon="3.10836">
        <ele>130.60000610352</ele>
        <time>2014-11-23T09:13:01.000Z</time>
      </trkpt>
      <trkpt lat="43.15453" lon="3.10841">
        <ele>131</ele>
        <time>2014-11-23T09:13:06.000Z</time>
      </trkpt>
      <trkpt lat="43.15455" lon="3.10842">
        <ele>131.39999389648</ele>
        <time>2014-11-23T09:13:07.000Z</time>
      </trkpt>
      <trkpt lat="43.15456" lon="3.10843">
        <ele>131.80000305176</ele>
        <time>2014-11-23T09:13:08.000Z</time>
      </trkpt>
      <trkpt lat="43.15458" lon="3.10844">
        <ele>132.39999389648</ele>
        <time>2014-11-23T09:13:09.000Z</time>
      </trkpt>
      <trkpt lat="43.1546" lon="3.10844">
        <ele>132.80000305176</ele>
        <time>2014-11-23T09:13:10.000Z</time>
      </trkpt>
      <trkpt lat="43.15461" lon="3.10846">
        <ele>132.80000305176</ele>
        <time>2014-11-23T09:13:11.000Z</time>
      </trkpt>
      <trkpt lat="43.15469" lon="3.10852">
        <ele>132.80000305176</ele>
        <time>2014-11-23T09:13:16.000Z</time>
      </trkpt>
      <trkpt lat="43.15472" lon="3.10854">
        <ele>133.19999694824</ele>
        <time>2014-11-23T09:13:18.000Z</time>
      </trkpt>
      <trkpt lat="43.15474" lon="3.10855">
        <ele>133.60000610352</ele>
        <time>2014-11-23T09:13:19.000Z</time>
      </trkpt>
      <trkpt lat="43.15475" lon="3.10856">
        <ele>134</ele>
        <time>2014-11-23T09:13:20.000Z</time>
      </trkpt>
      <trkpt lat="43.15477" lon="3.10857">
        <ele>134.39999389648</ele>
        <time>2014-11-23T09:13:21.000Z</time>
      </trkpt>
      <trkpt lat="43.15478" lon="3.10858">
        <ele>134.80000305176</ele>
        <time>2014-11-23T09:13:22.000Z</time>
      </trkpt>
      <trkpt lat="43.15479" lon="3.1086">
        <ele>134.80000305176</ele>
        <time>2014-11-23T09:13:23.000Z</time>
      </trkpt>
      <trkpt lat="43.15487" lon="3.10865">
        <ele>134.80000305176</ele>
        <time>2014-11-23T09:13:28.000Z</time>
      </trkpt>
      <trkpt lat="43.15491" lon="3.10866">
        <ele>135.39999389648</ele>
        <time>2014-11-23T09:13:30.000Z</time>
      </trkpt>
      <trkpt lat="43.15492" lon="3.10867">
        <ele>135.80000305176</ele>
        <time>2014-11-23T09:13:31.000Z</time>
      </trkpt>
      <trkpt lat="43.15494" lon="3.10867">
        <ele>136.19999694824</ele>
        <time>2014-11-23T09:13:32.000Z</time>
      </trkpt>
      <trkpt lat="43.15496" lon="3.10868">
        <ele>136.60000610352</ele>
        <time>2014-11-23T09:13:33.000Z</time>
      </trkpt>
      <trkpt lat="43.15497" lon="3.10869">
        <ele>137.19999694824</ele>
        <time>2014-11-23T09:13:34.000Z</time>
      </trkpt>
      <trkpt lat="43.15506" lon="3.10875">
        <ele>137.60000610352</ele>
        <time>2014-11-23T09:13:40.000Z</time>
      </trkpt>
      <trkpt lat="43.15508" lon="3.10876">
        <ele>138</ele>
        <time>2014-11-23T09:13:41.000Z</time>
      </trkpt>
      <trkpt lat="43.15509" lon="3.10877">
        <ele>138.39999389648</ele>
        <time>2014-11-23T09:13:42.000Z</time>
      </trkpt>
      <trkpt lat="43.1551" lon="3.10879">
        <ele>138.80000305176</ele>
        <time>2014-11-23T09:13:43.000Z</time>
      </trkpt>
      <trkpt lat="43.15512" lon="3.1088">
        <ele>139.19999694824</ele>
        <time>2014-11-23T09:13:44.000Z</time>
      </trkpt>
      <trkpt lat="43.15516" lon="3.10884">
        <ele>139.19999694824</ele>
        <time>2014-11-23T09:13:47.000Z</time>
      </trkpt>
      <trkpt lat="43.1552" lon="3.10889">
        <ele>139.60000610352</ele>
        <time>2014-11-23T09:13:50.000Z</time>
      </trkpt>
      <trkpt lat="43.15521" lon="3.1089">
        <ele>140</ele>
        <time>2014-11-23T09:13:51.000Z</time>
      </trkpt>
      <trkpt lat="43.15523" lon="3.10892">
        <ele>140.39999389648</ele>
        <time>2014-11-23T09:13:52.000Z</time>
      </trkpt>
      <trkpt lat="43.15524" lon="3.10893">
        <ele>140.80000305176</ele>
        <time>2014-11-23T09:13:53.000Z</time>
      </trkpt>
      <trkpt lat="43.15526" lon="3.10894">
        <ele>141.19999694824</ele>
        <time>2014-11-23T09:13:54.000Z</time>
      </trkpt>
      <trkpt lat="43.15533" lon="3.10899">
        <ele>141.19999694824</ele>
        <time>2014-11-23T09:13:59.000Z</time>
      </trkpt>
      <trkpt lat="43.15536" lon="3.10902">
        <ele>141.60000610352</ele>
        <time>2014-11-23T09:14:01.000Z</time>
      </trkpt>
      <trkpt lat="43.15538" lon="3.10903">
        <ele>142</ele>
        <time>2014-11-23T09:14:02.000Z</time>
      </trkpt>
      <trkpt lat="43.15539" lon="3.10904">
        <ele>142.60000610352</ele>
        <time>2014-11-23T09:14:03.000Z</time>
      </trkpt>
      <trkpt lat="43.15541" lon="3.10904">
        <ele>143</ele>
        <time>2014-11-23T09:14:04.000Z</time>
      </trkpt>
      <trkpt lat="43.15543" lon="3.10904">
        <ele>143.39999389648</ele>
        <time>2014-11-23T09:14:05.000Z</time>
      </trkpt>
      <trkpt lat="43.15545" lon="3.10906">
        <ele>143.39999389648</ele>
        <time>2014-11-23T09:14:07.000Z</time>
      </trkpt>
      <trkpt lat="43.15551" lon="3.10909">
        <ele>143.80000305176</ele>
        <time>2014-11-23T09:14:10.000Z</time>
      </trkpt>
      <trkpt lat="43.15552" lon="3.1091">
        <ele>144.19999694824</ele>
        <time>2014-11-23T09:14:11.000Z</time>
      </trkpt>
      <trkpt lat="43.15553" lon="3.10912">
        <ele>144.60000610352</ele>
        <time>2014-11-23T09:14:12.000Z</time>
      </trkpt>
      <trkpt lat="43.15555" lon="3.10913">
        <ele>145.19999694824</ele>
        <time>2014-11-23T09:14:13.000Z</time>
      </trkpt>
      <trkpt lat="43.15556" lon="3.10914">
        <ele>145.60000610352</ele>
        <time>2014-11-23T09:14:14.000Z</time>
      </trkpt>
      <trkpt lat="43.15561" lon="3.10916">
        <ele>145.60000610352</ele>
        <time>2014-11-23T09:14:17.000Z</time>
      </trkpt>
      <trkpt lat="43.15564" lon="3.10919">
        <ele>146</ele>
        <time>2014-11-23T09:14:19.000Z</time>
      </trkpt>
      <trkpt lat="43.15565" lon="3.10921">
        <ele>146.39999389648</ele>
        <time>2014-11-23T09:14:20.000Z</time>
      </trkpt>
      <trkpt lat="43.15567" lon="3.10922">
        <ele>147</ele>
        <time>2014-11-23T09:14:21.000Z</time>
      </trkpt>
      <trkpt lat="43.15569" lon="3.10922">
        <ele>147.39999389648</ele>
        <time>2014-11-23T09:14:22.000Z</time>
      </trkpt>
      <trkpt lat="43.15569" lon="3.10921">
        <ele>147.80000305176</ele>
        <time>2014-11-23T09:14:23.000Z</time>
      </trkpt>
      <trkpt lat="43.15569" lon="3.10921">
        <ele>147.80000305176</ele>
        <time>2014-11-23T09:14:24.000Z</time>
      </trkpt>
      <trkpt lat="43.15585" lon="3.10884">
        <ele>152.19999694824</ele>
        <time>2014-11-23T09:16:42.000Z</time>
      </trkpt>
      <trkpt lat="43.15588" lon="3.10877">
        <ele>152.19999694824</ele>
        <time>2014-11-23T09:16:45.000Z</time>
      </trkpt>
      <trkpt lat="43.15591" lon="3.1087">
        <ele>152.19999694824</ele>
        <time>2014-11-23T09:16:47.000Z</time>
      </trkpt>
      <trkpt lat="43.15593" lon="3.1086">
        <ele>152.80000305176</ele>
        <time>2014-11-23T09:16:51.000Z</time>
      </trkpt>
      <trkpt lat="43.15592" lon="3.10857">
        <ele>153.19999694824</ele>
        <time>2014-11-23T09:16:52.000Z</time>
      </trkpt>
      <trkpt lat="43.15592" lon="3.10855">
        <ele>153.80000305176</ele>
        <time>2014-11-23T09:16:53.000Z</time>
      </trkpt>
      <trkpt lat="43.15593" lon="3.10852">
        <ele>154.60000610352</ele>
        <time>2014-11-23T09:16:54.000Z</time>
      </trkpt>
      <trkpt lat="43.15593" lon="3.10847">
        <ele>154.60000610352</ele>
        <time>2014-11-23T09:16:56.000Z</time>
      </trkpt>
      <trkpt lat="43.15595" lon="3.10838">
        <ele>154.60000610352</ele>
        <time>2014-11-23T09:17:00.000Z</time>
      </trkpt>
      <trkpt lat="43.15594" lon="3.10835">
        <ele>154.60000610352</ele>
        <time>2014-11-23T09:17:01.000Z</time>
      </trkpt>
      <trkpt lat="43.15594" lon="3.10832">
        <ele>155</ele>
        <time>2014-11-23T09:17:02.000Z</time>
      </trkpt>
      <trkpt lat="43.15593" lon="3.10829">
        <ele>155.39999389648</ele>
        <time>2014-11-23T09:17:03.000Z</time>
      </trkpt>
      <trkpt lat="43.15593" lon="3.10827">
        <ele>155.80000305176</ele>
        <time>2014-11-23T09:17:04.000Z</time>
      </trkpt>
      <trkpt lat="43.15592" lon="3.10824">
        <ele>156.19999694824</ele>
        <time>2014-11-23T09:17:05.000Z</time>
      </trkpt>
      <trkpt lat="43.15592" lon="3.10821">
        <ele>156.60000610352</ele>
        <time>2014-11-23T09:17:06.000Z</time>
      </trkpt>
      <trkpt lat="43.15593" lon="3.10819">
        <ele>156.60000610352</ele>
        <time>2014-11-23T09:17:07.000Z</time>
      </trkpt>
      <trkpt lat="43.15593" lon="3.10807">
        <ele>157.19999694824</ele>
        <time>2014-11-23T09:17:12.000Z</time>
      </trkpt>
      <trkpt lat="43.15591" lon="3.10805">
        <ele>157.60000610352</ele>
        <time>2014-11-23T09:17:13.000Z</time>
      </trkpt>
      <trkpt lat="43.15591" lon="3.10802">
        <ele>158</ele>
        <time>2014-11-23T09:17:14.000Z</time>
      </trkpt>
      <trkpt lat="43.15591" lon="3.108">
        <ele>158.39999389648</ele>
        <time>2014-11-23T09:17:15.000Z</time>
      </trkpt>
      <trkpt lat="43.15591" lon="3.10797">
        <ele>158.80000305176</ele>
        <time>2014-11-23T09:17:16.000Z</time>
      </trkpt>
      <trkpt lat="43.1559" lon="3.10793">
        <ele>158.80000305176</ele>
        <time>2014-11-23T09:17:18.000Z</time>
      </trkpt>
      <trkpt lat="43.15589" lon="3.10789">
        <ele>159.19999694824</ele>
        <time>2014-11-23T09:17:20.000Z</time>
      </trkpt>
      <trkpt lat="43.1559" lon="3.10786">
        <ele>159.60000610352</ele>
        <time>2014-11-23T09:17:21.000Z</time>
      </trkpt>
      <trkpt lat="43.1559" lon="3.10783">
        <ele>160.19999694824</ele>
        <time>2014-11-23T09:17:22.000Z</time>
      </trkpt>
      <trkpt lat="43.1559" lon="3.10781">
        <ele>160.60000610352</ele>
        <time>2014-11-23T09:17:23.000Z</time>
      </trkpt>
      <trkpt lat="43.1559" lon="3.10779">
        <ele>161</ele>
        <time>2014-11-23T09:17:24.000Z</time>
      </trkpt>
      <trkpt lat="43.15589" lon="3.10776">
        <ele>161</ele>
        <time>2014-11-23T09:17:25.000Z</time>
      </trkpt>
      <trkpt lat="43.15584" lon="3.10769">
        <ele>161</ele>
        <time>2014-11-23T09:17:29.000Z</time>
      </trkpt>
      <trkpt lat="43.15584" lon="3.10766">
        <ele>161</ele>
        <time>2014-11-23T09:17:30.000Z</time>
      </trkpt>
      <trkpt lat="43.15584" lon="3.1076">
        <ele>161.39999389648</ele>
        <time>2014-11-23T09:17:32.000Z</time>
      </trkpt>
      <trkpt lat="43.15583" lon="3.10759">
        <ele>161.80000305176</ele>
        <time>2014-11-23T09:17:33.000Z</time>
      </trkpt>
      <trkpt lat="43.15583" lon="3.10757">
        <ele>162.19999694824</ele>
        <time>2014-11-23T09:17:34.000Z</time>
      </trkpt>
      <trkpt lat="43.15582" lon="3.10754">
        <ele>162.60000610352</ele>
        <time>2014-11-23T09:17:35.000Z</time>
      </trkpt>
      <trkpt lat="43.15581" lon="3.10752">
        <ele>163</ele>
        <time>2014-11-23T09:17:36.000Z</time>
      </trkpt>
      <trkpt lat="43.1558" lon="3.1074">
        <ele>163</ele>
        <time>2014-11-23T09:17:41.000Z</time>
      </trkpt>
      <trkpt lat="43.15578" lon="3.10732">
        <ele>163.39999389648</ele>
        <time>2014-11-23T09:17:45.000Z</time>
      </trkpt>
      <trkpt lat="43.15578" lon="3.10729">
        <ele>163.80000305176</ele>
        <time>2014-11-23T09:17:46.000Z</time>
      </trkpt>
      <trkpt lat="43.15577" lon="3.10727">
        <ele>164.19999694824</ele>
        <time>2014-11-23T09:17:47.000Z</time>
      </trkpt>
      <trkpt lat="43.15576" lon="3.10725">
        <ele>164.60000610352</ele>
        <time>2014-11-23T09:17:48.000Z</time>
      </trkpt>
      <trkpt lat="43.15576" lon="3.10723">
        <ele>165</ele>
        <time>2014-11-23T09:17:49.000Z</time>
      </trkpt>
      <trkpt lat="43.15571" lon="3.10709">
        <ele>165</ele>
        <time>2014-11-23T09:17:55.000Z</time>
      </trkpt>
      <trkpt lat="43.15567" lon="3.10692">
        <ele>165</ele>
        <time>2014-11-23T09:18:02.000Z</time>
      </trkpt>
      <trkpt lat="43.15565" lon="3.10684">
        <ele>165.39999389648</ele>
        <time>2014-11-23T09:18:05.000Z</time>
      </trkpt>
      <trkpt lat="43.15565" lon="3.10682">
        <ele>165.80000305176</ele>
        <time>2014-11-23T09:18:06.000Z</time>
      </trkpt>
      <trkpt lat="43.15565" lon="3.1068">
        <ele>166.19999694824</ele>
        <time>2014-11-23T09:18:07.000Z</time>
      </trkpt>
      <trkpt lat="43.15565" lon="3.10677">
        <ele>167</ele>
        <time>2014-11-23T09:18:08.000Z</time>
      </trkpt>
      <trkpt lat="43.15561" lon="3.10661">
        <ele>167</ele>
        <time>2014-11-23T09:18:15.000Z</time>
      </trkpt>
      <trkpt lat="43.15559" lon="3.10651">
        <ele>167.60000610352</ele>
        <time>2014-11-23T09:18:19.000Z</time>
      </trkpt>
      <trkpt lat="43.15559" lon="3.10649">
        <ele>168</ele>
        <time>2014-11-23T09:18:20.000Z</time>
      </trkpt>
      <trkpt lat="43.15559" lon="3.10647">
        <ele>168.39999389648</ele>
        <time>2014-11-23T09:18:21.000Z</time>
      </trkpt>
      <trkpt lat="43.15559" lon="3.10645">
        <ele>169</ele>
        <time>2014-11-23T09:18:22.000Z</time>
      </trkpt>
      <trkpt lat="43.15559" lon="3.10642">
        <ele>169.39999389648</ele>
        <time>2014-11-23T09:18:23.000Z</time>
      </trkpt>
      <trkpt lat="43.15561" lon="3.10627">
        <ele>169.39999389648</ele>
        <time>2014-11-23T09:18:29.000Z</time>
      </trkpt>
      <trkpt lat="43.15561" lon="3.10621">
        <ele>169.39999389648</ele>
        <time>2014-11-23T09:18:34.000Z</time>
      </trkpt>
      <trkpt lat="43.15562" lon="3.10621">
        <ele>169.39999389648</ele>
        <time>2014-11-23T09:24:14.000Z</time>
      </trkpt>
      <trkpt lat="43.15564" lon="3.10607">
        <ele>169.39999389648</ele>
        <time>2014-11-23T09:24:19.000Z</time>
      </trkpt>
      <trkpt lat="43.1556" lon="3.10595">
        <ele>169.39999389648</ele>
        <time>2014-11-23T09:24:24.000Z</time>
      </trkpt>
      <trkpt lat="43.15556" lon="3.10578">
        <ele>169.39999389648</ele>
        <time>2014-11-23T09:24:29.000Z</time>
      </trkpt>
      <trkpt lat="43.15553" lon="3.1056">
        <ele>169</ele>
        <time>2014-11-23T09:24:33.000Z</time>
      </trkpt>
      <trkpt lat="43.15553" lon="3.10555">
        <ele>168.60000610352</ele>
        <time>2014-11-23T09:24:34.000Z</time>
      </trkpt>
      <trkpt lat="43.15553" lon="3.10549">
        <ele>168</ele>
        <time>2014-11-23T09:24:35.000Z</time>
      </trkpt>
      <trkpt lat="43.15553" lon="3.10543">
        <ele>167.60000610352</ele>
        <time>2014-11-23T09:24:36.000Z</time>
      </trkpt>
      <trkpt lat="43.15553" lon="3.10538">
        <ele>167.19999694824</ele>
        <time>2014-11-23T09:24:37.000Z</time>
      </trkpt>
      <trkpt lat="43.15557" lon="3.1052">
        <ele>167.19999694824</ele>
        <time>2014-11-23T09:24:40.000Z</time>
      </trkpt>
      <trkpt lat="43.15558" lon="3.10514">
        <ele>166.80000305176</ele>
        <time>2014-11-23T09:24:41.000Z</time>
      </trkpt>
      <trkpt lat="43.1556" lon="3.10509">
        <ele>166.19999694824</ele>
        <time>2014-11-23T09:24:42.000Z</time>
      </trkpt>
      <trkpt lat="43.1556" lon="3.10504">
        <ele>165.39999389648</ele>
        <time>2014-11-23T09:24:43.000Z</time>
      </trkpt>
      <trkpt lat="43.15559" lon="3.10501">
        <ele>164.80000305176</ele>
        <time>2014-11-23T09:24:44.000Z</time>
      </trkpt>
      <trkpt lat="43.15555" lon="3.10479">
        <ele>164.80000305176</ele>
        <time>2014-11-23T09:24:49.000Z</time>
      </trkpt>
      <trkpt lat="43.15552" lon="3.10461">
        <ele>164.80000305176</ele>
        <time>2014-11-23T09:24:53.000Z</time>
      </trkpt>
      <trkpt lat="43.15548" lon="3.10453">
        <ele>164.80000305176</ele>
        <time>2014-11-23T09:24:55.000Z</time>
      </trkpt>
      <trkpt lat="43.15547" lon="3.10442">
        <ele>164.80000305176</ele>
        <time>2014-11-23T09:24:57.000Z</time>
      </trkpt>
      <trkpt lat="43.15546" lon="3.10437">
        <ele>164.39999389648</ele>
        <time>2014-11-23T09:24:58.000Z</time>
      </trkpt>
      <trkpt lat="43.15545" lon="3.10431">
        <ele>164</ele>
        <time>2014-11-23T09:24:59.000Z</time>
      </trkpt>
      <trkpt lat="43.15544" lon="3.10426">
        <ele>163.60000610352</ele>
        <time>2014-11-23T09:25:00.000Z</time>
      </trkpt>
      <trkpt lat="43.15542" lon="3.1042">
        <ele>163.19999694824</ele>
        <time>2014-11-23T09:25:01.000Z</time>
      </trkpt>
      <trkpt lat="43.1554" lon="3.10415">
        <ele>162.80000305176</ele>
        <time>2014-11-23T09:25:02.000Z</time>
      </trkpt>
      <trkpt lat="43.15538" lon="3.104">
        <ele>162.80000305176</ele>
        <time>2014-11-23T09:25:06.000Z</time>
      </trkpt>
      <trkpt lat="43.15533" lon="3.1038">
        <ele>162.39999389648</ele>
        <time>2014-11-23T09:25:11.000Z</time>
      </trkpt>
      <trkpt lat="43.15532" lon="3.10375">
        <ele>162</ele>
        <time>2014-11-23T09:25:12.000Z</time>
      </trkpt>
      <trkpt lat="43.15532" lon="3.10371">
        <ele>161.39999389648</ele>
        <time>2014-11-23T09:25:13.000Z</time>
      </trkpt>
      <trkpt lat="43.1553" lon="3.10368">
        <ele>161</ele>
        <time>2014-11-23T09:25:14.000Z</time>
      </trkpt>
      <trkpt lat="43.15528" lon="3.10365">
        <ele>160.60000610352</ele>
        <time>2014-11-23T09:25:15.000Z</time>
      </trkpt>
      <trkpt lat="43.15527" lon="3.10362">
        <ele>160.60000610352</ele>
        <time>2014-11-23T09:25:16.000Z</time>
      </trkpt>
      <trkpt lat="43.15527" lon="3.10356">
        <ele>160.60000610352</ele>
        <time>2014-11-23T09:25:18.000Z</time>
      </trkpt>
      <trkpt lat="43.15528" lon="3.10354">
        <ele>160.19999694824</ele>
        <time>2014-11-23T09:25:21.000Z</time>
      </trkpt>
      <trkpt lat="43.15529" lon="3.10349">
        <ele>159.80000305176</ele>
        <time>2014-11-23T09:25:22.000Z</time>
      </trkpt>
      <trkpt lat="43.1553" lon="3.10344">
        <ele>159.39999389648</ele>
        <time>2014-11-23T09:25:23.000Z</time>
      </trkpt>
      <trkpt lat="43.15532" lon="3.10338">
        <ele>159</ele>
        <time>2014-11-23T09:25:24.000Z</time>
      </trkpt>
      <trkpt lat="43.15533" lon="3.10332">
        <ele>158.60000610352</ele>
        <time>2014-11-23T09:25:25.000Z</time>
      </trkpt>
      <trkpt lat="43.15535" lon="3.10327">
        <ele>158.19999694824</ele>
        <time>2014-11-23T09:25:26.000Z</time>
      </trkpt>
      <trkpt lat="43.15537" lon="3.10323">
        <ele>157.60000610352</ele>
        <time>2014-11-23T09:25:27.000Z</time>
      </trkpt>
      <trkpt lat="43.1554" lon="3.10319">
        <ele>157.19999694824</ele>
        <time>2014-11-23T09:25:28.000Z</time>
      </trkpt>
      <trkpt lat="43.15542" lon="3.10316">
        <ele>156.80000305176</ele>
        <time>2014-11-23T09:25:29.000Z</time>
      </trkpt>
      <trkpt lat="43.15542" lon="3.10311">
        <ele>156.39999389648</ele>
        <time>2014-11-23T09:25:30.000Z</time>
      </trkpt>
      <trkpt lat="43.15542" lon="3.10294">
        <ele>156.39999389648</ele>
        <time>2014-11-23T09:25:33.000Z</time>
      </trkpt>
      <trkpt lat="43.15544" lon="3.10284">
        <ele>156.39999389648</ele>
        <time>2014-11-23T09:25:35.000Z</time>
      </trkpt>
      <trkpt lat="43.15548" lon="3.10266">
        <ele>156.39999389648</ele>
        <time>2014-11-23T09:25:38.000Z</time>
      </trkpt>
      <trkpt lat="43.15549" lon="3.10259">
        <ele>156.39999389648</ele>
        <time>2014-11-23T09:25:39.000Z</time>
      </trkpt>
      <trkpt lat="43.15552" lon="3.10237">
        <ele>156.39999389648</ele>
        <time>2014-11-23T09:25:42.000Z</time>
      </trkpt>
      <trkpt lat="43.15549" lon="3.10221">
        <ele>156</ele>
        <time>2014-11-23T09:25:44.000Z</time>
      </trkpt>
      <trkpt lat="43.15548" lon="3.10214">
        <ele>155.60000610352</ele>
        <time>2014-11-23T09:25:45.000Z</time>
      </trkpt>
      <trkpt lat="43.15548" lon="3.10207">
        <ele>155</ele>
        <time>2014-11-23T09:25:46.000Z</time>
      </trkpt>
      <trkpt lat="43.15548" lon="3.102">
        <ele>154.60000610352</ele>
        <time>2014-11-23T09:25:47.000Z</time>
      </trkpt>
      <trkpt lat="43.15548" lon="3.10194">
        <ele>154.19999694824</ele>
        <time>2014-11-23T09:25:48.000Z</time>
      </trkpt>
      <trkpt lat="43.15547" lon="3.10188">
        <ele>154.19999694824</ele>
        <time>2014-11-23T09:25:49.000Z</time>
      </trkpt>
      <trkpt lat="43.15545" lon="3.10183">
        <ele>154.19999694824</ele>
        <time>2014-11-23T09:25:50.000Z</time>
      </trkpt>
      <trkpt lat="43.15545" lon="3.1017">
        <ele>154.19999694824</ele>
        <time>2014-11-23T09:25:53.000Z</time>
      </trkpt>
      <trkpt lat="43.15546" lon="3.10154">
        <ele>154.19999694824</ele>
        <time>2014-11-23T09:25:57.000Z</time>
      </trkpt>
      <trkpt lat="43.15545" lon="3.10137">
        <ele>154.19999694824</ele>
        <time>2014-11-23T09:26:02.000Z</time>
      </trkpt>
      <trkpt lat="43.15543" lon="3.10116">
        <ele>154.19999694824</ele>
        <time>2014-11-23T09:26:08.000Z</time>
      </trkpt>
      <trkpt lat="43.15545" lon="3.10104">
        <ele>154.19999694824</ele>
        <time>2014-11-23T09:26:12.000Z</time>
      </trkpt>
      <trkpt lat="43.15545" lon="3.10085">
        <ele>154.19999694824</ele>
        <time>2014-11-23T09:26:17.000Z</time>
      </trkpt>
      <trkpt lat="43.15543" lon="3.10056">
        <ele>154.19999694824</ele>
        <time>2014-11-23T09:26:23.000Z</time>
      </trkpt>
      <trkpt lat="43.15545" lon="3.10042">
        <ele>154.19999694824</ele>
        <time>2014-11-23T09:26:27.000Z</time>
      </trkpt>
      <trkpt lat="43.15545" lon="3.10037">
        <ele>154.19999694824</ele>
        <time>2014-11-23T09:26:29.000Z</time>
      </trkpt>
      <trkpt lat="43.15543" lon="3.10032">
        <ele>154.19999694824</ele>
        <time>2014-11-23T09:26:31.000Z</time>
      </trkpt>
      <trkpt lat="43.15542" lon="3.10024">
        <ele>154.19999694824</ele>
        <time>2014-11-23T09:26:35.000Z</time>
      </trkpt>
      <trkpt lat="43.1554" lon="3.10009">
        <ele>154.19999694824</ele>
        <time>2014-11-23T09:26:40.000Z</time>
      </trkpt>
      <trkpt lat="43.15541" lon="3.09998">
        <ele>154.19999694824</ele>
        <time>2014-11-23T09:26:43.000Z</time>
      </trkpt>
      <trkpt lat="43.15542" lon="3.09994">
        <ele>154.19999694824</ele>
        <time>2014-11-23T09:26:44.000Z</time>
      </trkpt>
      <trkpt lat="43.15546" lon="3.09976">
        <ele>154.19999694824</ele>
        <time>2014-11-23T09:26:49.000Z</time>
      </trkpt>
      <trkpt lat="43.15552" lon="3.09956">
        <ele>154.19999694824</ele>
        <time>2014-11-23T09:26:54.000Z</time>
      </trkpt>
      <trkpt lat="43.15551" lon="3.09952">
        <ele>154.19999694824</ele>
        <time>2014-11-23T09:26:55.000Z</time>
      </trkpt>
      <trkpt lat="43.15553" lon="3.09946">
        <ele>154.19999694824</ele>
        <time>2014-11-23T09:26:57.000Z</time>
      </trkpt>
      <trkpt lat="43.15558" lon="3.0993">
        <ele>154.19999694824</ele>
        <time>2014-11-23T09:27:01.000Z</time>
      </trkpt>
      <trkpt lat="43.15559" lon="3.09926">
        <ele>154.19999694824</ele>
        <time>2014-11-23T09:27:02.000Z</time>
      </trkpt>
      <trkpt lat="43.15558" lon="3.09923">
        <ele>154.19999694824</ele>
        <time>2014-11-23T09:27:03.000Z</time>
      </trkpt>
      <trkpt lat="43.15558" lon="3.09921">
        <ele>154.19999694824</ele>
        <time>2014-11-23T09:27:04.000Z</time>
      </trkpt>
      <trkpt lat="43.15556" lon="3.09904">
        <ele>154.19999694824</ele>
        <time>2014-11-23T09:27:09.000Z</time>
      </trkpt>
      <trkpt lat="43.15552" lon="3.09886">
        <ele>154.19999694824</ele>
        <time>2014-11-23T09:27:13.000Z</time>
      </trkpt>
      <trkpt lat="43.15551" lon="3.09872">
        <ele>154.19999694824</ele>
        <time>2014-11-23T09:27:17.000Z</time>
      </trkpt>
      <trkpt lat="43.15548" lon="3.09859">
        <ele>153.80000305176</ele>
        <time>2014-11-23T09:27:20.000Z</time>
      </trkpt>
      <trkpt lat="43.15547" lon="3.09855">
        <ele>153.39999389648</ele>
        <time>2014-11-23T09:27:21.000Z</time>
      </trkpt>
      <trkpt lat="43.15547" lon="3.09852">
        <ele>153</ele>
        <time>2014-11-23T09:27:22.000Z</time>
      </trkpt>
      <trkpt lat="43.15546" lon="3.09848">
        <ele>152.39999389648</ele>
        <time>2014-11-23T09:27:23.000Z</time>
      </trkpt>
      <trkpt lat="43.15545" lon="3.09845">
        <ele>152</ele>
        <time>2014-11-23T09:27:24.000Z</time>
      </trkpt>
      <trkpt lat="43.15545" lon="3.09836">
        <ele>152</ele>
        <time>2014-11-23T09:27:27.000Z</time>
      </trkpt>
      <trkpt lat="43.15547" lon="3.09815">
        <ele>152</ele>
        <time>2014-11-23T09:27:32.000Z</time>
      </trkpt>
      <trkpt lat="43.15547" lon="3.09811">
        <ele>152</ele>
        <time>2014-11-23T09:27:33.000Z</time>
      </trkpt>
      <trkpt lat="43.15546" lon="3.0979">
        <ele>152</ele>
        <time>2014-11-23T09:27:37.000Z</time>
      </trkpt>
      <trkpt lat="43.15542" lon="3.09768">
        <ele>152</ele>
        <time>2014-11-23T09:27:42.000Z</time>
      </trkpt>
      <trkpt lat="43.1554" lon="3.09766">
        <ele>152</ele>
        <time>2014-11-23T09:27:46.000Z</time>
      </trkpt>
      <trkpt lat="43.15539" lon="3.09764">
        <ele>152</ele>
        <time>2014-11-23T09:27:54.000Z</time>
      </trkpt>
      <trkpt lat="43.15535" lon="3.09744">
        <ele>152</ele>
        <time>2014-11-23T09:27:58.000Z</time>
      </trkpt>
      <trkpt lat="43.15533" lon="3.09728">
        <ele>152</ele>
        <time>2014-11-23T09:28:00.000Z</time>
      </trkpt>
      <trkpt lat="43.15532" lon="3.09714">
        <ele>152</ele>
        <time>2014-11-23T09:28:02.000Z</time>
      </trkpt>
      <trkpt lat="43.15531" lon="3.09709">
        <ele>152</ele>
        <time>2014-11-23T09:28:03.000Z</time>
      </trkpt>
      <trkpt lat="43.15527" lon="3.09701">
        <ele>152</ele>
        <time>2014-11-23T09:28:05.000Z</time>
      </trkpt>
      <trkpt lat="43.15524" lon="3.09687">
        <ele>152</ele>
        <time>2014-11-23T09:28:09.000Z</time>
      </trkpt>
      <trkpt lat="43.15519" lon="3.09674">
        <ele>152</ele>
        <time>2014-11-23T09:28:13.000Z</time>
      </trkpt>
      <trkpt lat="43.1551" lon="3.0966">
        <ele>152</ele>
        <time>2014-11-23T09:28:18.000Z</time>
      </trkpt>
      <trkpt lat="43.15498" lon="3.09653">
        <ele>152</ele>
        <time>2014-11-23T09:28:23.000Z</time>
      </trkpt>
      <trkpt lat="43.15491" lon="3.09649">
        <ele>152</ele>
        <time>2014-11-23T09:28:26.000Z</time>
      </trkpt>
      <trkpt lat="43.15489" lon="3.09644">
        <ele>152</ele>
        <time>2014-11-23T09:28:28.000Z</time>
      </trkpt>
      <trkpt lat="43.15483" lon="3.09628">
        <ele>152</ele>
        <time>2014-11-23T09:28:33.000Z</time>
      </trkpt>
      <trkpt lat="43.15479" lon="3.09621">
        <ele>151.60000610352</ele>
        <time>2014-11-23T09:28:35.000Z</time>
      </trkpt>
      <trkpt lat="43.15478" lon="3.09619">
        <ele>151.19999694824</ele>
        <time>2014-11-23T09:28:36.000Z</time>
      </trkpt>
      <trkpt lat="43.15477" lon="3.09617">
        <ele>150.80000305176</ele>
        <time>2014-11-23T09:28:37.000Z</time>
      </trkpt>
      <trkpt lat="43.15476" lon="3.09615">
        <ele>150.39999389648</ele>
        <time>2014-11-23T09:28:38.000Z</time>
      </trkpt>
      <trkpt lat="43.15475" lon="3.09612">
        <ele>150</ele>
        <time>2014-11-23T09:28:39.000Z</time>
      </trkpt>
      <trkpt lat="43.15469" lon="3.09608">
        <ele>150</ele>
        <time>2014-11-23T09:28:41.000Z</time>
      </trkpt>
      <trkpt lat="43.15465" lon="3.09604">
        <ele>149.60000610352</ele>
        <time>2014-11-23T09:28:43.000Z</time>
      </trkpt>
      <trkpt lat="43.15464" lon="3.09603">
        <ele>149.19999694824</ele>
        <time>2014-11-23T09:28:44.000Z</time>
      </trkpt>
      <trkpt lat="43.15464" lon="3.09601">
        <ele>148</ele>
        <time>2014-11-23T09:29:11.000Z</time>
      </trkpt>
      <trkpt lat="43.1546" lon="3.09596">
        <ele>148</ele>
        <time>2014-11-23T09:29:13.000Z</time>
      </trkpt>
      <trkpt lat="43.15455" lon="3.09591">
        <ele>148</ele>
        <time>2014-11-23T09:29:15.000Z</time>
      </trkpt>
      <trkpt lat="43.15443" lon="3.09579">
        <ele>148</ele>
        <time>2014-11-23T09:29:19.000Z</time>
      </trkpt>
      <trkpt lat="43.15416" lon="3.09561">
        <ele>148</ele>
        <time>2014-11-23T09:29:26.000Z</time>
      </trkpt>
      <trkpt lat="43.15399" lon="3.09541">
        <ele>148</ele>
        <time>2014-11-23T09:29:32.000Z</time>
      </trkpt>
      <trkpt lat="43.15384" lon="3.09519">
        <ele>148</ele>
        <time>2014-11-23T09:29:38.000Z</time>
      </trkpt>
      <trkpt lat="43.1538" lon="3.09511">
        <ele>147.60000610352</ele>
        <time>2014-11-23T09:29:40.000Z</time>
      </trkpt>
      <trkpt lat="43.15378" lon="3.09505">
        <ele>147</ele>
        <time>2014-11-23T09:29:41.000Z</time>
      </trkpt>
      <trkpt lat="43.15376" lon="3.095">
        <ele>146.60000610352</ele>
        <time>2014-11-23T09:29:42.000Z</time>
      </trkpt>
      <trkpt lat="43.15373" lon="3.09495">
        <ele>146.19999694824</ele>
        <time>2014-11-23T09:29:43.000Z</time>
      </trkpt>
      <trkpt lat="43.1537" lon="3.09491">
        <ele>145.80000305176</ele>
        <time>2014-11-23T09:29:44.000Z</time>
      </trkpt>
      <trkpt lat="43.15358" lon="3.09474">
        <ele>145.80000305176</ele>
        <time>2014-11-23T09:29:48.000Z</time>
      </trkpt>
      <trkpt lat="43.15353" lon="3.09466">
        <ele>145.80000305176</ele>
        <time>2014-11-23T09:29:50.000Z</time>
      </trkpt>
      <trkpt lat="43.15344" lon="3.0945">
        <ele>145.80000305176</ele>
        <time>2014-11-23T09:29:55.000Z</time>
      </trkpt>
      <trkpt lat="43.15338" lon="3.09433">
        <ele>145.80000305176</ele>
        <time>2014-11-23T09:30:01.000Z</time>
      </trkpt>
      <trkpt lat="43.15336" lon="3.09428">
        <ele>146.19999694824</ele>
        <time>2014-11-23T09:30:03.000Z</time>
      </trkpt>
      <trkpt lat="43.15335" lon="3.09425">
        <ele>146.80000305176</ele>
        <time>2014-11-23T09:30:04.000Z</time>
      </trkpt>
      <trkpt lat="43.15334" lon="3.09423">
        <ele>147.60000610352</ele>
        <time>2014-11-23T09:30:05.000Z</time>
      </trkpt>
      <trkpt lat="43.15333" lon="3.09421">
        <ele>148</ele>
        <time>2014-11-23T09:30:06.000Z</time>
      </trkpt>
      <trkpt lat="43.15332" lon="3.09419">
        <ele>148</ele>
        <time>2014-11-23T09:30:07.000Z</time>
      </trkpt>
      <trkpt lat="43.15324" lon="3.09402">
        <ele>148</ele>
        <time>2014-11-23T09:30:14.000Z</time>
      </trkpt>
      <trkpt lat="43.15315" lon="3.09384">
        <ele>148</ele>
        <time>2014-11-23T09:30:20.000Z</time>
      </trkpt>
      <trkpt lat="43.15314" lon="3.0938">
        <ele>148.39999389648</ele>
        <time>2014-11-23T09:30:21.000Z</time>
      </trkpt>
      <trkpt lat="43.15312" lon="3.09377">
        <ele>148.80000305176</ele>
        <time>2014-11-23T09:30:22.000Z</time>
      </trkpt>
      <trkpt lat="43.15309" lon="3.09373">
        <ele>149.19999694824</ele>
        <time>2014-11-23T09:30:23.000Z</time>
      </trkpt>
      <trkpt lat="43.15307" lon="3.09369">
        <ele>149.60000610352</ele>
        <time>2014-11-23T09:30:24.000Z</time>
      </trkpt>
      <trkpt lat="43.15305" lon="3.09366">
        <ele>150</ele>
        <time>2014-11-23T09:30:25.000Z</time>
      </trkpt>
      <trkpt lat="43.15299" lon="3.09355">
        <ele>150</ele>
        <time>2014-11-23T09:30:28.000Z</time>
      </trkpt>
      <trkpt lat="43.15287" lon="3.09333">
        <ele>150</ele>
        <time>2014-11-23T09:30:34.000Z</time>
      </trkpt>
      <trkpt lat="43.15272" lon="3.09313">
        <ele>150</ele>
        <time>2014-11-23T09:30:41.000Z</time>
      </trkpt>
      <trkpt lat="43.15258" lon="3.09293">
        <ele>150</ele>
        <time>2014-11-23T09:30:48.000Z</time>
      </trkpt>
      <trkpt lat="43.15255" lon="3.09288">
        <ele>150.39999389648</ele>
        <time>2014-11-23T09:30:50.000Z</time>
      </trkpt>
      <trkpt lat="43.15253" lon="3.09285">
        <ele>151</ele>
        <time>2014-11-23T09:30:51.000Z</time>
      </trkpt>
      <trkpt lat="43.15251" lon="3.09282">
        <ele>151.39999389648</ele>
        <time>2014-11-23T09:30:52.000Z</time>
      </trkpt>
      <trkpt lat="43.1525" lon="3.0928">
        <ele>151.80000305176</ele>
        <time>2014-11-23T09:30:53.000Z</time>
      </trkpt>
      <trkpt lat="43.15248" lon="3.09278">
        <ele>152.19999694824</ele>
        <time>2014-11-23T09:30:54.000Z</time>
      </trkpt>
      <trkpt lat="43.15238" lon="3.09269">
        <ele>152.19999694824</ele>
        <time>2014-11-23T09:30:59.000Z</time>
      </trkpt>
      <trkpt lat="43.15237" lon="3.09266">
        <ele>152.19999694824</ele>
        <time>2014-11-23T09:31:00.000Z</time>
      </trkpt>
      <trkpt lat="43.15236" lon="3.09251">
        <ele>152.19999694824</ele>
        <time>2014-11-23T09:31:05.000Z</time>
      </trkpt>
      <trkpt lat="43.1524" lon="3.09233">
        <ele>152.19999694824</ele>
        <time>2014-11-23T09:31:10.000Z</time>
      </trkpt>
      <trkpt lat="43.15244" lon="3.09213">
        <ele>152.19999694824</ele>
        <time>2014-11-23T09:31:16.000Z</time>
      </trkpt>
      <trkpt lat="43.15251" lon="3.09188">
        <ele>152.19999694824</ele>
        <time>2014-11-23T09:31:22.000Z</time>
      </trkpt>
      <trkpt lat="43.15254" lon="3.09171">
        <ele>152.19999694824</ele>
        <time>2014-11-23T09:31:25.000Z</time>
      </trkpt>
      <trkpt lat="43.15254" lon="3.09158">
        <ele>152.19999694824</ele>
        <time>2014-11-23T09:31:27.000Z</time>
      </trkpt>
      <trkpt lat="43.15257" lon="3.09135">
        <ele>151.80000305176</ele>
        <time>2014-11-23T09:31:31.000Z</time>
      </trkpt>
      <trkpt lat="43.15257" lon="3.09128">
        <ele>151.39999389648</ele>
        <time>2014-11-23T09:31:32.000Z</time>
      </trkpt>
      <trkpt lat="43.15258" lon="3.09122">
        <ele>151</ele>
        <time>2014-11-23T09:31:33.000Z</time>
      </trkpt>
      <trkpt lat="43.15258" lon="3.09116">
        <ele>150.60000610352</ele>
        <time>2014-11-23T09:31:34.000Z</time>
      </trkpt>
      <trkpt lat="43.1526" lon="3.09111">
        <ele>150.19999694824</ele>
        <time>2014-11-23T09:31:35.000Z</time>
      </trkpt>
      <trkpt lat="43.15263" lon="3.09101">
        <ele>149.60000610352</ele>
        <time>2014-11-23T09:31:37.000Z</time>
      </trkpt>
      <trkpt lat="43.15265" lon="3.09096">
        <ele>149.19999694824</ele>
        <time>2014-11-23T09:31:38.000Z</time>
      </trkpt>
      <trkpt lat="43.15267" lon="3.0909">
        <ele>148.80000305176</ele>
        <time>2014-11-23T09:31:39.000Z</time>
      </trkpt>
      <trkpt lat="43.15269" lon="3.09084">
        <ele>148.39999389648</ele>
        <time>2014-11-23T09:31:40.000Z</time>
      </trkpt>
      <trkpt lat="43.15271" lon="3.09078">
        <ele>148</ele>
        <time>2014-11-23T09:31:41.000Z</time>
      </trkpt>
      <trkpt lat="43.15271" lon="3.09071">
        <ele>147.39999389648</ele>
        <time>2014-11-23T09:31:42.000Z</time>
      </trkpt>
      <trkpt lat="43.15271" lon="3.09065">
        <ele>147</ele>
        <time>2014-11-23T09:31:43.000Z</time>
      </trkpt>
      <trkpt lat="43.1527" lon="3.0906">
        <ele>146.19999694824</ele>
        <time>2014-11-23T09:31:44.000Z</time>
      </trkpt>
      <trkpt lat="43.15267" lon="3.09056">
        <ele>145.80000305176</ele>
        <time>2014-11-23T09:31:45.000Z</time>
      </trkpt>
      <trkpt lat="43.15264" lon="3.09053">
        <ele>145.80000305176</ele>
        <time>2014-11-23T09:31:46.000Z</time>
      </trkpt>
      <trkpt lat="43.1526" lon="3.0905">
        <ele>145.80000305176</ele>
        <time>2014-11-23T09:31:47.000Z</time>
      </trkpt>
      <trkpt lat="43.15258" lon="3.09046">
        <ele>145.80000305176</ele>
        <time>2014-11-23T09:31:48.000Z</time>
      </trkpt>
      <trkpt lat="43.15257" lon="3.09036">
        <ele>145.80000305176</ele>
        <time>2014-11-23T09:31:50.000Z</time>
      </trkpt>
      <trkpt lat="43.15262" lon="3.09009">
        <ele>145.80000305176</ele>
        <time>2014-11-23T09:31:55.000Z</time>
      </trkpt>
      <trkpt lat="43.15265" lon="3.08997">
        <ele>145.80000305176</ele>
        <time>2014-11-23T09:31:57.000Z</time>
      </trkpt>
      <trkpt lat="43.15268" lon="3.08991">
        <ele>145.39999389648</ele>
        <time>2014-11-23T09:31:58.000Z</time>
      </trkpt>
      <trkpt lat="43.15271" lon="3.08985">
        <ele>144.80000305176</ele>
        <time>2014-11-23T09:31:59.000Z</time>
      </trkpt>
      <trkpt lat="43.15273" lon="3.08979">
        <ele>144.39999389648</ele>
        <time>2014-11-23T09:32:00.000Z</time>
      </trkpt>
      <trkpt lat="43.15276" lon="3.08973">
        <ele>144</ele>
        <time>2014-11-23T09:32:01.000Z</time>
      </trkpt>
      <trkpt lat="43.15279" lon="3.08967">
        <ele>143.60000610352</ele>
        <time>2014-11-23T09:32:02.000Z</time>
      </trkpt>
      <trkpt lat="43.15284" lon="3.08953">
        <ele>143.60000610352</ele>
        <time>2014-11-23T09:32:04.000Z</time>
      </trkpt>
      <trkpt lat="43.15286" lon="3.08945">
        <ele>143.19999694824</ele>
        <time>2014-11-23T09:32:05.000Z</time>
      </trkpt>
      <trkpt lat="43.15288" lon="3.08937">
        <ele>142.80000305176</ele>
        <time>2014-11-23T09:32:06.000Z</time>
      </trkpt>
      <trkpt lat="43.15289" lon="3.0893">
        <ele>142.39999389648</ele>
        <time>2014-11-23T09:32:07.000Z</time>
      </trkpt>
      <trkpt lat="43.15291" lon="3.08922">
        <ele>142</ele>
        <time>2014-11-23T09:32:08.000Z</time>
      </trkpt>
      <trkpt lat="43.15293" lon="3.08915">
        <ele>141.60000610352</ele>
        <time>2014-11-23T09:32:09.000Z</time>
      </trkpt>
      <trkpt lat="43.15299" lon="3.08891">
        <ele>141.60000610352</ele>
        <time>2014-11-23T09:32:12.000Z</time>
      </trkpt>
      <trkpt lat="43.15301" lon="3.08875">
        <ele>141</ele>
        <time>2014-11-23T09:32:14.000Z</time>
      </trkpt>
      <trkpt lat="43.15302" lon="3.08868">
        <ele>140.60000610352</ele>
        <time>2014-11-23T09:32:15.000Z</time>
      </trkpt>
      <trkpt lat="43.15303" lon="3.08861">
        <ele>140.19999694824</ele>
        <time>2014-11-23T09:32:16.000Z</time>
      </trkpt>
      <trkpt lat="43.15303" lon="3.08853">
        <ele>139.80000305176</ele>
        <time>2014-11-23T09:32:17.000Z</time>
      </trkpt>
      <trkpt lat="43.15304" lon="3.08846">
        <ele>139.39999389648</ele>
        <time>2014-11-23T09:32:18.000Z</time>
      </trkpt>
      <trkpt lat="43.15308" lon="3.08824">
        <ele>139.39999389648</ele>
        <time>2014-11-23T09:32:21.000Z</time>
      </trkpt>
      <trkpt lat="43.15309" lon="3.08809">
        <ele>139.39999389648</ele>
        <time>2014-11-23T09:32:23.000Z</time>
      </trkpt>
      <trkpt lat="43.1531" lon="3.08795">
        <ele>139.39999389648</ele>
        <time>2014-11-23T09:32:25.000Z</time>
      </trkpt>
      <trkpt lat="43.15311" lon="3.08788">
        <ele>139</ele>
        <time>2014-11-23T09:32:26.000Z</time>
      </trkpt>
      <trkpt lat="43.15312" lon="3.08781">
        <ele>138.39999389648</ele>
        <time>2014-11-23T09:32:27.000Z</time>
      </trkpt>
      <trkpt lat="43.15312" lon="3.08774">
        <ele>138</ele>
        <time>2014-11-23T09:32:28.000Z</time>
      </trkpt>
      <trkpt lat="43.15313" lon="3.08767">
        <ele>137.60000610352</ele>
        <time>2014-11-23T09:32:29.000Z</time>
      </trkpt>
      <trkpt lat="43.15314" lon="3.08759">
        <ele>137.19999694824</ele>
        <time>2014-11-23T09:32:30.000Z</time>
      </trkpt>
      <trkpt lat="43.15318" lon="3.08733">
        <ele>137.19999694824</ele>
        <time>2014-11-23T09:32:34.000Z</time>
      </trkpt>
      <trkpt lat="43.15322" lon="3.0872">
        <ele>136.80000305176</ele>
        <time>2014-11-23T09:32:36.000Z</time>
      </trkpt>
      <trkpt lat="43.15324" lon="3.08713">
        <ele>136.19999694824</ele>
        <time>2014-11-23T09:32:37.000Z</time>
      </trkpt>
      <trkpt lat="43.15326" lon="3.08706">
        <ele>135.80000305176</ele>
        <time>2014-11-23T09:32:38.000Z</time>
      </trkpt>
      <trkpt lat="43.15327" lon="3.087">
        <ele>135.39999389648</ele>
        <time>2014-11-23T09:32:39.000Z</time>
      </trkpt>
      <trkpt lat="43.15329" lon="3.08694">
        <ele>134.80000305176</ele>
        <time>2014-11-23T09:32:40.000Z</time>
      </trkpt>
      <trkpt lat="43.15338" lon="3.08668">
        <ele>134.80000305176</ele>
        <time>2014-11-23T09:32:44.000Z</time>
      </trkpt>
      <trkpt lat="43.15348" lon="3.08637">
        <ele>134.80000305176</ele>
        <time>2014-11-23T09:32:49.000Z</time>
      </trkpt>
      <trkpt lat="43.1535" lon="3.08631">
        <ele>134.80000305176</ele>
        <time>2014-11-23T09:32:50.000Z</time>
      </trkpt>
      <trkpt lat="43.1536" lon="3.08617">
        <ele>134.80000305176</ele>
        <time>2014-11-23T09:32:53.000Z</time>
      </trkpt>
      <trkpt lat="43.15363" lon="3.08615">
        <ele>134.80000305176</ele>
        <time>2014-11-23T09:32:54.000Z</time>
      </trkpt>
      <trkpt lat="43.1537" lon="3.08609">
        <ele>134.80000305176</ele>
        <time>2014-11-23T09:32:57.000Z</time>
      </trkpt>
      <trkpt lat="43.1537" lon="3.08605">
        <ele>134.80000305176</ele>
        <time>2014-11-23T09:32:58.000Z</time>
      </trkpt>
      <trkpt lat="43.1537" lon="3.08596">
        <ele>134.80000305176</ele>
        <time>2014-11-23T09:33:01.000Z</time>
      </trkpt>
      <trkpt lat="43.1537" lon="3.08588">
        <ele>134.80000305176</ele>
        <time>2014-11-23T09:33:03.000Z</time>
      </trkpt>
      <trkpt lat="43.15375" lon="3.08566">
        <ele>134.80000305176</ele>
        <time>2014-11-23T09:33:09.000Z</time>
      </trkpt>
      <trkpt lat="43.1538" lon="3.08539">
        <ele>134.80000305176</ele>
        <time>2014-11-23T09:33:16.000Z</time>
      </trkpt>
      <trkpt lat="43.15384" lon="3.08518">
        <ele>134.80000305176</ele>
        <time>2014-11-23T09:33:21.000Z</time>
      </trkpt>
      <trkpt lat="43.15386" lon="3.0849">
        <ele>134.80000305176</ele>
        <time>2014-11-23T09:33:28.000Z</time>
      </trkpt>
      <trkpt lat="43.15389" lon="3.0846">
        <ele>134.80000305176</ele>
        <time>2014-11-23T09:33:35.000Z</time>
      </trkpt>
      <trkpt lat="43.15391" lon="3.08447">
        <ele>135.19999694824</ele>
        <time>2014-11-23T09:33:38.000Z</time>
      </trkpt>
      <trkpt lat="43.15392" lon="3.08443">
        <ele>135.80000305176</ele>
        <time>2014-11-23T09:33:39.000Z</time>
      </trkpt>
      <trkpt lat="43.15394" lon="3.08438">
        <ele>136.19999694824</ele>
        <time>2014-11-23T09:33:40.000Z</time>
      </trkpt>
      <trkpt lat="43.15395" lon="3.08434">
        <ele>136.60000610352</ele>
        <time>2014-11-23T09:33:41.000Z</time>
      </trkpt>
      <trkpt lat="43.15396" lon="3.08429">
        <ele>137</ele>
        <time>2014-11-23T09:33:42.000Z</time>
      </trkpt>
      <trkpt lat="43.15404" lon="3.08395">
        <ele>137</ele>
        <time>2014-11-23T09:33:49.000Z</time>
      </trkpt>
      <trkpt lat="43.15406" lon="3.08369">
        <ele>137</ele>
        <time>2014-11-23T09:33:54.000Z</time>
      </trkpt>
      <trkpt lat="43.15408" lon="3.08347">
        <ele>137</ele>
        <time>2014-11-23T09:33:59.000Z</time>
      </trkpt>
      <trkpt lat="43.1541" lon="3.08311">
        <ele>137</ele>
        <time>2014-11-23T09:34:06.000Z</time>
      </trkpt>
      <trkpt lat="43.1541" lon="3.08275">
        <ele>137.39999389648</ele>
        <time>2014-11-23T09:34:13.000Z</time>
      </trkpt>
      <trkpt lat="43.1541" lon="3.08269">
        <ele>137.80000305176</ele>
        <time>2014-11-23T09:34:14.000Z</time>
      </trkpt>
      <trkpt lat="43.15409" lon="3.08264">
        <ele>138.19999694824</ele>
        <time>2014-11-23T09:34:15.000Z</time>
      </trkpt>
      <trkpt lat="43.15409" lon="3.08258">
        <ele>138.60000610352</ele>
        <time>2014-11-23T09:34:16.000Z</time>
      </trkpt>
      <trkpt lat="43.15409" lon="3.08253">
        <ele>139</ele>
        <time>2014-11-23T09:34:17.000Z</time>
      </trkpt>
      <trkpt lat="43.15409" lon="3.0823">
        <ele>139</ele>
        <time>2014-11-23T09:34:21.000Z</time>
      </trkpt>
      <trkpt lat="43.15409" lon="3.08224">
        <ele>139</ele>
        <time>2014-11-23T09:34:22.000Z</time>
      </trkpt>
      <trkpt lat="43.15412" lon="3.08206">
        <ele>139</ele>
        <time>2014-11-23T09:34:25.000Z</time>
      </trkpt>
      <trkpt lat="43.15412" lon="3.08193">
        <ele>139</ele>
        <time>2014-11-23T09:34:27.000Z</time>
      </trkpt>
      <trkpt lat="43.15411" lon="3.08156">
        <ele>139</ele>
        <time>2014-11-23T09:34:33.000Z</time>
      </trkpt>
      <trkpt lat="43.15411" lon="3.0815">
        <ele>139</ele>
        <time>2014-11-23T09:34:34.000Z</time>
      </trkpt>
      <trkpt lat="43.15406" lon="3.08114">
        <ele>139</ele>
        <time>2014-11-23T09:34:41.000Z</time>
      </trkpt>
      <trkpt lat="43.15404" lon="3.08097">
        <ele>139</ele>
        <time>2014-11-23T09:34:44.000Z</time>
      </trkpt>
      <trkpt lat="43.15405" lon="3.0808">
        <ele>139</ele>
        <time>2014-11-23T09:34:47.000Z</time>
      </trkpt>
      <trkpt lat="43.15408" lon="3.08063">
        <ele>139</ele>
        <time>2014-11-23T09:34:50.000Z</time>
      </trkpt>
      <trkpt lat="43.15411" lon="3.08053">
        <ele>139</ele>
        <time>2014-11-23T09:34:52.000Z</time>
      </trkpt>
      <trkpt lat="43.15413" lon="3.08047">
        <ele>139</ele>
        <time>2014-11-23T09:34:53.000Z</time>
      </trkpt>
      <trkpt lat="43.15423" lon="3.08006">
        <ele>138.60000610352</ele>
        <time>2014-11-23T09:35:00.000Z</time>
      </trkpt>
      <trkpt lat="43.15423" lon="3.08">
        <ele>138.19999694824</ele>
        <time>2014-11-23T09:35:01.000Z</time>
      </trkpt>
      <trkpt lat="43.15424" lon="3.07994">
        <ele>137.39999389648</ele>
        <time>2014-11-23T09:35:02.000Z</time>
      </trkpt>
      <trkpt lat="43.15424" lon="3.07989">
        <ele>137</ele>
        <time>2014-11-23T09:35:03.000Z</time>
      </trkpt>
      <trkpt lat="43.15423" lon="3.07978">
        <ele>137</ele>
        <time>2014-11-23T09:35:05.000Z</time>
      </trkpt>
      <trkpt lat="43.15422" lon="3.0795">
        <ele>137</ele>
        <time>2014-11-23T09:35:11.000Z</time>
      </trkpt>
      <trkpt lat="43.15415" lon="3.07932">
        <ele>137</ele>
        <time>2014-11-23T09:35:15.000Z</time>
      </trkpt>
      <trkpt lat="43.15404" lon="3.07926">
        <ele>137</ele>
        <time>2014-11-23T09:35:19.000Z</time>
      </trkpt>
      <trkpt lat="43.15391" lon="3.07919">
        <ele>137</ele>
        <time>2014-11-23T09:35:24.000Z</time>
      </trkpt>
      <trkpt lat="43.15376" lon="3.07903">
        <ele>137</ele>
        <time>2014-11-23T09:35:31.000Z</time>
      </trkpt>
      <trkpt lat="43.15359" lon="3.07888">
        <ele>137</ele>
        <time>2014-11-23T09:35:38.000Z</time>
      </trkpt>
      <trkpt lat="43.15347" lon="3.07873">
        <ele>137</ele>
        <time>2014-11-23T09:35:44.000Z</time>
      </trkpt>
      <trkpt lat="43.15333" lon="3.07861">
        <ele>137.39999389648</ele>
        <time>2014-11-23T09:35:50.000Z</time>
      </trkpt>
      <trkpt lat="43.1533" lon="3.07859">
        <ele>137.80000305176</ele>
        <time>2014-11-23T09:35:51.000Z</time>
      </trkpt>
      <trkpt lat="43.15328" lon="3.07856">
        <ele>138.60000610352</ele>
        <time>2014-11-23T09:35:52.000Z</time>
      </trkpt>
      <trkpt lat="43.15325" lon="3.07854">
        <ele>139</ele>
        <time>2014-11-23T09:35:53.000Z</time>
      </trkpt>
      <trkpt lat="43.15311" lon="3.07841">
        <ele>139</ele>
        <time>2014-11-23T09:35:59.000Z</time>
      </trkpt>
      <trkpt lat="43.15296" lon="3.07826">
        <ele>139</ele>
        <time>2014-11-23T09:36:05.000Z</time>
      </trkpt>
      <trkpt lat="43.15287" lon="3.07817">
        <ele>139.39999389648</ele>
        <time>2014-11-23T09:36:09.000Z</time>
      </trkpt>
      <trkpt lat="43.15285" lon="3.07815">
        <ele>139.80000305176</ele>
        <time>2014-11-23T09:36:10.000Z</time>
      </trkpt>
      <trkpt lat="43.15282" lon="3.07812">
        <ele>140.39999389648</ele>
        <time>2014-11-23T09:36:11.000Z</time>
      </trkpt>
      <trkpt lat="43.1528" lon="3.0781">
        <ele>140.80000305176</ele>
        <time>2014-11-23T09:36:12.000Z</time>
      </trkpt>
      <trkpt lat="43.15277" lon="3.07807">
        <ele>141.19999694824</ele>
        <time>2014-11-23T09:36:13.000Z</time>
      </trkpt>
      <trkpt lat="43.15268" lon="3.07798">
        <ele>141.19999694824</ele>
        <time>2014-11-23T09:36:17.000Z</time>
      </trkpt>
      <trkpt lat="43.15248" lon="3.07778">
        <ele>141.19999694824</ele>
        <time>2014-11-23T09:36:26.000Z</time>
      </trkpt>
      <trkpt lat="43.15235" lon="3.07764">
        <ele>141.19999694824</ele>
        <time>2014-11-23T09:36:32.000Z</time>
      </trkpt>
      <trkpt lat="43.15224" lon="3.07751">
        <ele>141.19999694824</ele>
        <time>2014-11-23T09:36:37.000Z</time>
      </trkpt>
      <trkpt lat="43.15221" lon="3.0775">
        <ele>141.60000610352</ele>
        <time>2014-11-23T09:36:38.000Z</time>
      </trkpt>
      <trkpt lat="43.15219" lon="3.07748">
        <ele>142</ele>
        <time>2014-11-23T09:36:39.000Z</time>
      </trkpt>
      <trkpt lat="43.15218" lon="3.07747">
        <ele>142.39999389648</ele>
        <time>2014-11-23T09:36:40.000Z</time>
      </trkpt>
      <trkpt lat="43.15216" lon="3.07745">
        <ele>143</ele>
        <time>2014-11-23T09:36:41.000Z</time>
      </trkpt>
      <trkpt lat="43.15214" lon="3.07744">
        <ele>143.39999389648</ele>
        <time>2014-11-23T09:36:42.000Z</time>
      </trkpt>
      <trkpt lat="43.15202" lon="3.07739">
        <ele>143.39999389648</ele>
        <time>2014-11-23T09:36:48.000Z</time>
      </trkpt>
      <trkpt lat="43.15188" lon="3.0773">
        <ele>143.39999389648</ele>
        <time>2014-11-23T09:36:54.000Z</time>
      </trkpt>
      <trkpt lat="43.15175" lon="3.07723">
        <ele>143.39999389648</ele>
        <time>2014-11-23T09:36:59.000Z</time>
      </trkpt>
      <trkpt lat="43.15154" lon="3.07714">
        <ele>143.39999389648</ele>
        <time>2014-11-23T09:37:07.000Z</time>
      </trkpt>
      <trkpt lat="43.15139" lon="3.07708">
        <ele>143.39999389648</ele>
        <time>2014-11-23T09:37:13.000Z</time>
      </trkpt>
      <trkpt lat="43.15121" lon="3.07702">
        <ele>143.39999389648</ele>
        <time>2014-11-23T09:37:19.000Z</time>
      </trkpt>
      <trkpt lat="43.15101" lon="3.07693">
        <ele>143.39999389648</ele>
        <time>2014-11-23T09:37:25.000Z</time>
      </trkpt>
      <trkpt lat="43.1508" lon="3.07687">
        <ele>143.39999389648</ele>
        <time>2014-11-23T09:37:31.000Z</time>
      </trkpt>
      <trkpt lat="43.15065" lon="3.07688">
        <ele>143.39999389648</ele>
        <time>2014-11-23T09:37:36.000Z</time>
      </trkpt>
      <trkpt lat="43.15063" lon="3.07692">
        <ele>143.39999389648</ele>
        <time>2014-11-23T09:37:39.000Z</time>
      </trkpt>
      <trkpt lat="43.15066" lon="3.07688">
        <ele>143.39999389648</ele>
        <time>2014-11-23T09:37:44.000Z</time>
      </trkpt>
      <trkpt lat="43.15069" lon="3.07683">
        <ele>143.39999389648</ele>
        <time>2014-11-23T09:37:48.000Z</time>
      </trkpt>
      <trkpt lat="43.15067" lon="3.0768">
        <ele>143.39999389648</ele>
        <time>2014-11-23T09:37:50.000Z</time>
      </trkpt>
      <trkpt lat="43.15063" lon="3.07678">
        <ele>143.39999389648</ele>
        <time>2014-11-23T09:37:52.000Z</time>
      </trkpt>
      <trkpt lat="43.15061" lon="3.07678">
        <ele>143.39999389648</ele>
        <time>2014-11-23T09:37:53.000Z</time>
      </trkpt>
      <trkpt lat="43.15058" lon="3.07678">
        <ele>143</ele>
        <time>2014-11-23T09:37:54.000Z</time>
      </trkpt>
      <trkpt lat="43.15055" lon="3.07678">
        <ele>142.60000610352</ele>
        <time>2014-11-23T09:37:55.000Z</time>
      </trkpt>
      <trkpt lat="43.15053" lon="3.07678">
        <ele>141.60000610352</ele>
        <time>2014-11-23T09:37:56.000Z</time>
      </trkpt>
      <trkpt lat="43.15051" lon="3.07678">
        <ele>141.19999694824</ele>
        <time>2014-11-23T09:37:57.000Z</time>
      </trkpt>
      <trkpt lat="43.15049" lon="3.07681">
        <ele>141.19999694824</ele>
        <time>2014-11-23T09:37:58.000Z</time>
      </trkpt>
      <trkpt lat="43.15046" lon="3.07686">
        <ele>141.19999694824</ele>
        <time>2014-11-23T09:38:00.000Z</time>
      </trkpt>
      <trkpt lat="43.15039" lon="3.07693">
        <ele>141.19999694824</ele>
        <time>2014-11-23T09:38:06.000Z</time>
      </trkpt>
      <trkpt lat="43.15024" lon="3.077">
        <ele>141.19999694824</ele>
        <time>2014-11-23T09:38:15.000Z</time>
      </trkpt>
      <trkpt lat="43.15016" lon="3.07705">
        <ele>141.19999694824</ele>
        <time>2014-11-23T09:38:19.000Z</time>
      </trkpt>
      <trkpt lat="43.15009" lon="3.07713">
        <ele>141.19999694824</ele>
        <time>2014-11-23T09:38:23.000Z</time>
      </trkpt>
      <trkpt lat="43.15006" lon="3.07717">
        <ele>141.19999694824</ele>
        <time>2014-11-23T09:38:25.000Z</time>
      </trkpt>
      <trkpt lat="43.15004" lon="3.07719">
        <ele>141.60000610352</ele>
        <time>2014-11-23T09:38:26.000Z</time>
      </trkpt>
      <trkpt lat="43.15003" lon="3.07722">
        <ele>142</ele>
        <time>2014-11-23T09:38:27.000Z</time>
      </trkpt>
      <trkpt lat="43.15002" lon="3.07725">
        <ele>142.39999389648</ele>
        <time>2014-11-23T09:38:28.000Z</time>
      </trkpt>
      <trkpt lat="43.15001" lon="3.07727">
        <ele>142.80000305176</ele>
        <time>2014-11-23T09:38:29.000Z</time>
      </trkpt>
      <trkpt lat="43.14999" lon="3.07729">
        <ele>143.19999694824</ele>
        <time>2014-11-23T09:38:30.000Z</time>
      </trkpt>
      <trkpt lat="43.14999" lon="3.07733">
        <ele>143.19999694824</ele>
        <time>2014-11-23T09:38:32.000Z</time>
      </trkpt>
      <trkpt lat="43.14995" lon="3.07747">
        <ele>143.19999694824</ele>
        <time>2014-11-23T09:38:38.000Z</time>
      </trkpt>
      <trkpt lat="43.14994" lon="3.07752">
        <ele>143.80000305176</ele>
        <time>2014-11-23T09:38:40.000Z</time>
      </trkpt>
      <trkpt lat="43.14994" lon="3.07755">
        <ele>144.19999694824</ele>
        <time>2014-11-23T09:38:41.000Z</time>
      </trkpt>
      <trkpt lat="43.14995" lon="3.07757">
        <ele>144.60000610352</ele>
        <time>2014-11-23T09:38:42.000Z</time>
      </trkpt>
      <trkpt lat="43.14995" lon="3.0776">
        <ele>145</ele>
        <time>2014-11-23T09:38:43.000Z</time>
      </trkpt>
      <trkpt lat="43.14995" lon="3.07763">
        <ele>145.39999389648</ele>
        <time>2014-11-23T09:38:44.000Z</time>
      </trkpt>
      <trkpt lat="43.14995" lon="3.07765">
        <ele>145.39999389648</ele>
        <time>2014-11-23T09:38:45.000Z</time>
      </trkpt>
      <trkpt lat="43.14991" lon="3.0778">
        <ele>145.39999389648</ele>
        <time>2014-11-23T09:38:51.000Z</time>
      </trkpt>
      <trkpt lat="43.14989" lon="3.07784">
        <ele>145.80000305176</ele>
        <time>2014-11-23T09:38:53.000Z</time>
      </trkpt>
      <trkpt lat="43.14988" lon="3.07786">
        <ele>146.19999694824</ele>
        <time>2014-11-23T09:38:54.000Z</time>
      </trkpt>
      <trkpt lat="43.14987" lon="3.07788">
        <ele>146.80000305176</ele>
        <time>2014-11-23T09:38:55.000Z</time>
      </trkpt>
      <trkpt lat="43.14986" lon="3.0779">
        <ele>147.19999694824</ele>
        <time>2014-11-23T09:38:56.000Z</time>
      </trkpt>
      <trkpt lat="43.14985" lon="3.07792">
        <ele>147.80000305176</ele>
        <time>2014-11-23T09:38:57.000Z</time>
      </trkpt>
      <trkpt lat="43.14975" lon="3.07804">
        <ele>147.80000305176</ele>
        <time>2014-11-23T09:39:04.000Z</time>
      </trkpt>
      <trkpt lat="43.14967" lon="3.07811">
        <ele>148.19999694824</ele>
        <time>2014-11-23T09:39:08.000Z</time>
      </trkpt>
      <trkpt lat="43.14966" lon="3.07813">
        <ele>148.60000610352</ele>
        <time>2014-11-23T09:39:09.000Z</time>
      </trkpt>
      <trkpt lat="43.14965" lon="3.07815">
        <ele>149</ele>
        <time>2014-11-23T09:39:10.000Z</time>
      </trkpt>
      <trkpt lat="43.14963" lon="3.07817">
        <ele>149.80000305176</ele>
        <time>2014-11-23T09:39:11.000Z</time>
      </trkpt>
      <trkpt lat="43.14962" lon="3.07819">
        <ele>149.80000305176</ele>
        <time>2014-11-23T09:39:12.000Z</time>
      </trkpt>
      <trkpt lat="43.14959" lon="3.0782">
        <ele>149.80000305176</ele>
        <time>2014-11-23T09:39:14.000Z</time>
      </trkpt>
      <trkpt lat="43.14955" lon="3.07823">
        <ele>149.80000305176</ele>
        <time>2014-11-23T09:39:16.000Z</time>
      </trkpt>
      <trkpt lat="43.14944" lon="3.07824">
        <ele>149.80000305176</ele>
        <time>2014-11-23T09:39:20.000Z</time>
      </trkpt>
      <trkpt lat="43.14936" lon="3.07828">
        <ele>149.80000305176</ele>
        <time>2014-11-23T09:39:23.000Z</time>
      </trkpt>
      <trkpt lat="43.14935" lon="3.07829">
        <ele>149.80000305176</ele>
        <time>2014-11-23T09:39:24.000Z</time>
      </trkpt>
      <trkpt lat="43.14933" lon="3.07834">
        <ele>149.80000305176</ele>
        <time>2014-11-23T09:39:26.000Z</time>
      </trkpt>
      <trkpt lat="43.14931" lon="3.07836">
        <ele>149.80000305176</ele>
        <time>2014-11-23T09:39:28.000Z</time>
      </trkpt>
      <trkpt lat="43.14928" lon="3.07835">
        <ele>149.80000305176</ele>
        <time>2014-11-23T09:39:30.000Z</time>
      </trkpt>
      <trkpt lat="43.14923" lon="3.07834">
        <ele>149.80000305176</ele>
        <time>2014-11-23T09:39:33.000Z</time>
      </trkpt>
      <trkpt lat="43.14924" lon="3.07834">
        <ele>149.80000305176</ele>
        <time>2014-11-23T09:39:34.000Z</time>
      </trkpt>
      <trkpt lat="43.1493" lon="3.07836">
        <ele>151.80000305176</ele>
        <time>2014-11-23T09:39:50.000Z</time>
      </trkpt>
      <trkpt lat="43.1493" lon="3.07835">
        <ele>151.80000305176</ele>
        <time>2014-11-23T09:39:52.000Z</time>
      </trkpt>
      <trkpt lat="43.14931" lon="3.07834">
        <ele>151.80000305176</ele>
        <time>2014-11-23T09:39:53.000Z</time>
      </trkpt>
      <trkpt lat="43.14934" lon="3.0783">
        <ele>151.80000305176</ele>
        <time>2014-11-23T09:39:55.000Z</time>
      </trkpt>
      <trkpt lat="43.14945" lon="3.07826">
        <ele>151.39999389648</ele>
        <time>2014-11-23T09:39:59.000Z</time>
      </trkpt>
      <trkpt lat="43.14948" lon="3.07826">
        <ele>150.60000610352</ele>
        <time>2014-11-23T09:40:00.000Z</time>
      </trkpt>
      <trkpt lat="43.14949" lon="3.07826">
        <ele>150</ele>
        <time>2014-11-23T09:40:01.000Z</time>
      </trkpt>
      <trkpt lat="43.14951" lon="3.07825">
        <ele>149.60000610352</ele>
        <time>2014-11-23T09:40:02.000Z</time>
      </trkpt>
      <trkpt lat="43.14953" lon="3.07824">
        <ele>149.60000610352</ele>
        <time>2014-11-23T09:40:03.000Z</time>
      </trkpt>
      <trkpt lat="43.1496" lon="3.07827">
        <ele>149.60000610352</ele>
        <time>2014-11-23T09:40:07.000Z</time>
      </trkpt>
      <trkpt lat="43.14961" lon="3.07829">
        <ele>149.60000610352</ele>
        <time>2014-11-23T09:40:08.000Z</time>
      </trkpt>
      <trkpt lat="43.14962" lon="3.07831">
        <ele>149.60000610352</ele>
        <time>2014-11-23T09:40:10.000Z</time>
      </trkpt>
      <trkpt lat="43.14962" lon="3.07828">
        <ele>149.60000610352</ele>
        <time>2014-11-23T09:40:16.000Z</time>
      </trkpt>
      <trkpt lat="43.14962" lon="3.07825">
        <ele>149.60000610352</ele>
        <time>2014-11-23T09:40:17.000Z</time>
      </trkpt>
      <trkpt lat="43.14968" lon="3.07813">
        <ele>149.60000610352</ele>
        <time>2014-11-23T09:40:21.000Z</time>
      </trkpt>
      <trkpt lat="43.14974" lon="3.07807">
        <ele>149.60000610352</ele>
        <time>2014-11-23T09:40:23.000Z</time>
      </trkpt>
      <trkpt lat="43.14981" lon="3.07802">
        <ele>149.60000610352</ele>
        <time>2014-11-23T09:40:25.000Z</time>
      </trkpt>
      <trkpt lat="43.14991" lon="3.07782">
        <ele>149.60000610352</ele>
        <time>2014-11-23T09:40:29.000Z</time>
      </trkpt>
      <trkpt lat="43.14993" lon="3.07776">
        <ele>149.19999694824</ele>
        <time>2014-11-23T09:40:32.000Z</time>
      </trkpt>
      <trkpt lat="43.14993" lon="3.07776">
        <ele>148.80000305176</ele>
        <time>2014-11-23T09:40:33.000Z</time>
      </trkpt>
      <trkpt lat="43.14992" lon="3.07777">
        <ele>147.60000610352</ele>
        <time>2014-11-23T09:40:53.000Z</time>
      </trkpt>
      <trkpt lat="43.14991" lon="3.07779">
        <ele>147.60000610352</ele>
        <time>2014-11-23T09:40:54.000Z</time>
      </trkpt>
      <trkpt lat="43.14991" lon="3.07778">
        <ele>147.60000610352</ele>
        <time>2014-11-23T09:40:55.000Z</time>
      </trkpt>
      <trkpt lat="43.14991" lon="3.0778">
        <ele>147.60000610352</ele>
        <time>2014-11-23T09:41:03.000Z</time>
      </trkpt>
      <trkpt lat="43.1499" lon="3.07782">
        <ele>147.60000610352</ele>
        <time>2014-11-23T09:41:04.000Z</time>
      </trkpt>
      <trkpt lat="43.14985" lon="3.07791">
        <ele>147.60000610352</ele>
        <time>2014-11-23T09:41:08.000Z</time>
      </trkpt>
      <trkpt lat="43.14977" lon="3.07803">
        <ele>147.60000610352</ele>
        <time>2014-11-23T09:41:14.000Z</time>
      </trkpt>
      <trkpt lat="43.14973" lon="3.07805">
        <ele>148</ele>
        <time>2014-11-23T09:41:16.000Z</time>
      </trkpt>
      <trkpt lat="43.14971" lon="3.07806">
        <ele>148.39999389648</ele>
        <time>2014-11-23T09:41:17.000Z</time>
      </trkpt>
      <trkpt lat="43.14969" lon="3.07808">
        <ele>148.80000305176</ele>
        <time>2014-11-23T09:41:18.000Z</time>
      </trkpt>
      <trkpt lat="43.14967" lon="3.07811">
        <ele>149.19999694824</ele>
        <time>2014-11-23T09:41:19.000Z</time>
      </trkpt>
      <trkpt lat="43.14966" lon="3.07812">
        <ele>149.60000610352</ele>
        <time>2014-11-23T09:41:20.000Z</time>
      </trkpt>
      <trkpt lat="43.14957" lon="3.07821">
        <ele>149.60000610352</ele>
        <time>2014-11-23T09:41:25.000Z</time>
      </trkpt>
      <trkpt lat="43.14946" lon="3.07824">
        <ele>149.60000610352</ele>
        <time>2014-11-23T09:41:30.000Z</time>
      </trkpt>
      <trkpt lat="43.14935" lon="3.07829">
        <ele>149.60000610352</ele>
        <time>2014-11-23T09:41:35.000Z</time>
      </trkpt>
      <trkpt lat="43.14926" lon="3.07835">
        <ele>149.60000610352</ele>
        <time>2014-11-23T09:41:40.000Z</time>
      </trkpt>
      <trkpt lat="43.14924" lon="3.07834">
        <ele>149.60000610352</ele>
        <time>2014-11-23T09:41:41.000Z</time>
      </trkpt>
      <trkpt lat="43.14922" lon="3.07833">
        <ele>150</ele>
        <time>2014-11-23T09:41:42.000Z</time>
      </trkpt>
      <trkpt lat="43.1492" lon="3.07832">
        <ele>150.60000610352</ele>
        <time>2014-11-23T09:41:43.000Z</time>
      </trkpt>
      <trkpt lat="43.14918" lon="3.07831">
        <ele>151</ele>
        <time>2014-11-23T09:41:44.000Z</time>
      </trkpt>
      <trkpt lat="43.14917" lon="3.07829">
        <ele>151.39999389648</ele>
        <time>2014-11-23T09:41:45.000Z</time>
      </trkpt>
      <trkpt lat="43.14917" lon="3.07827">
        <ele>151.80000305176</ele>
        <time>2014-11-23T09:41:46.000Z</time>
      </trkpt>
      <trkpt lat="43.14918" lon="3.07824">
        <ele>151.80000305176</ele>
        <time>2014-11-23T09:41:47.000Z</time>
      </trkpt>
      <trkpt lat="43.14913" lon="3.07819">
        <ele>151.80000305176</ele>
        <time>2014-11-23T09:41:50.000Z</time>
      </trkpt>
      <trkpt lat="43.14909" lon="3.07819">
        <ele>151.80000305176</ele>
        <time>2014-11-23T09:41:52.000Z</time>
      </trkpt>
      <trkpt lat="43.14905" lon="3.07817">
        <ele>151.80000305176</ele>
        <time>2014-11-23T09:41:54.000Z</time>
      </trkpt>
      <trkpt lat="43.14904" lon="3.07816">
        <ele>151.80000305176</ele>
        <time>2014-11-23T09:41:55.000Z</time>
      </trkpt>
      <trkpt lat="43.14896" lon="3.07809">
        <ele>151.80000305176</ele>
        <time>2014-11-23T09:42:00.000Z</time>
      </trkpt>
      <trkpt lat="43.14893" lon="3.07807">
        <ele>152.19999694824</ele>
        <time>2014-11-23T09:42:02.000Z</time>
      </trkpt>
      <trkpt lat="43.14891" lon="3.07806">
        <ele>152.60000610352</ele>
        <time>2014-11-23T09:42:03.000Z</time>
      </trkpt>
      <trkpt lat="43.1489" lon="3.07804">
        <ele>153</ele>
        <time>2014-11-23T09:42:04.000Z</time>
      </trkpt>
      <trkpt lat="43.14888" lon="3.07803">
        <ele>153.80000305176</ele>
        <time>2014-11-23T09:42:05.000Z</time>
      </trkpt>
      <trkpt lat="43.14886" lon="3.07802">
        <ele>153.80000305176</ele>
        <time>2014-11-23T09:42:06.000Z</time>
      </trkpt>
      <trkpt lat="43.14877" lon="3.07792">
        <ele>153.80000305176</ele>
        <time>2014-11-23T09:42:12.000Z</time>
      </trkpt>
      <trkpt lat="43.14869" lon="3.0778">
        <ele>154.39999389648</ele>
        <time>2014-11-23T09:42:18.000Z</time>
      </trkpt>
      <trkpt lat="43.14868" lon="3.07778">
        <ele>155</ele>
        <time>2014-11-23T09:42:19.000Z</time>
      </trkpt>
      <trkpt lat="43.14867" lon="3.07776">
        <ele>155.60000610352</ele>
        <time>2014-11-23T09:42:20.000Z</time>
      </trkpt>
      <trkpt lat="43.14866" lon="3.07774">
        <ele>156</ele>
        <time>2014-11-23T09:42:21.000Z</time>
      </trkpt>
      <trkpt lat="43.14864" lon="3.07772">
        <ele>156.60000610352</ele>
        <time>2014-11-23T09:42:22.000Z</time>
      </trkpt>
      <trkpt lat="43.14858" lon="3.07762">
        <ele>156.60000610352</ele>
        <time>2014-11-23T09:42:26.000Z</time>
      </trkpt>
      <trkpt lat="43.14849" lon="3.07752">
        <ele>156.60000610352</ele>
        <time>2014-11-23T09:42:31.000Z</time>
      </trkpt>
      <trkpt lat="43.1484" lon="3.07742">
        <ele>157</ele>
        <time>2014-11-23T09:42:37.000Z</time>
      </trkpt>
      <trkpt lat="43.14839" lon="3.0774">
        <ele>157.39999389648</ele>
        <time>2014-11-23T09:42:38.000Z</time>
      </trkpt>
      <trkpt lat="43.14837" lon="3.07738">
        <ele>157.80000305176</ele>
        <time>2014-11-23T09:42:39.000Z</time>
      </trkpt>
      <trkpt lat="43.14835" lon="3.07736">
        <ele>158.39999389648</ele>
        <time>2014-11-23T09:42:40.000Z</time>
      </trkpt>
      <trkpt lat="43.14834" lon="3.07734">
        <ele>158.80000305176</ele>
        <time>2014-11-23T09:42:41.000Z</time>
      </trkpt>
      <trkpt lat="43.14829" lon="3.07729">
        <ele>158.80000305176</ele>
        <time>2014-11-23T09:42:44.000Z</time>
      </trkpt>
      <trkpt lat="43.14817" lon="3.07716">
        <ele>158.80000305176</ele>
        <time>2014-11-23T09:42:50.000Z</time>
      </trkpt>
      <trkpt lat="43.14801" lon="3.07697">
        <ele>158.80000305176</ele>
        <time>2014-11-23T09:42:57.000Z</time>
      </trkpt>
      <trkpt lat="43.14794" lon="3.07688">
        <ele>158.80000305176</ele>
        <time>2014-11-23T09:43:00.000Z</time>
      </trkpt>
      <trkpt lat="43.14789" lon="3.07684">
        <ele>158.80000305176</ele>
        <time>2014-11-23T09:43:02.000Z</time>
      </trkpt>
      <trkpt lat="43.14786" lon="3.07676">
        <ele>158.80000305176</ele>
        <time>2014-11-23T09:43:06.000Z</time>
      </trkpt>
      <trkpt lat="43.14785" lon="3.07676">
        <ele>158.80000305176</ele>
        <time>2014-11-23T09:43:08.000Z</time>
      </trkpt>
      <trkpt lat="43.14784" lon="3.07676">
        <ele>158.80000305176</ele>
        <time>2014-11-23T09:43:10.000Z</time>
      </trkpt>
      <trkpt lat="43.14783" lon="3.07675">
        <ele>158.80000305176</ele>
        <time>2014-11-23T09:43:11.000Z</time>
      </trkpt>
      <trkpt lat="43.14776" lon="3.07668">
        <ele>158.80000305176</ele>
        <time>2014-11-23T09:43:15.000Z</time>
      </trkpt>
      <trkpt lat="43.14773" lon="3.07664">
        <ele>158.80000305176</ele>
        <time>2014-11-23T09:43:17.000Z</time>
      </trkpt>
      <trkpt lat="43.14769" lon="3.0766">
        <ele>159.19999694824</ele>
        <time>2014-11-23T09:43:19.000Z</time>
      </trkpt>
      <trkpt lat="43.14767" lon="3.07658">
        <ele>159.60000610352</ele>
        <time>2014-11-23T09:43:20.000Z</time>
      </trkpt>
      <trkpt lat="43.14765" lon="3.07656">
        <ele>160</ele>
        <time>2014-11-23T09:43:21.000Z</time>
      </trkpt>
      <trkpt lat="43.14764" lon="3.07654">
        <ele>160.39999389648</ele>
        <time>2014-11-23T09:43:22.000Z</time>
      </trkpt>
      <trkpt lat="43.14762" lon="3.07652">
        <ele>160.80000305176</ele>
        <time>2014-11-23T09:43:23.000Z</time>
      </trkpt>
      <trkpt lat="43.1476" lon="3.0765">
        <ele>160.80000305176</ele>
        <time>2014-11-23T09:43:24.000Z</time>
      </trkpt>
      <trkpt lat="43.14757" lon="3.07647">
        <ele>161.19999694824</ele>
        <time>2014-11-23T09:43:26.000Z</time>
      </trkpt>
      <trkpt lat="43.14755" lon="3.07646">
        <ele>161.80000305176</ele>
        <time>2014-11-23T09:43:27.000Z</time>
      </trkpt>
      <trkpt lat="43.14752" lon="3.07645">
        <ele>162.19999694824</ele>
        <time>2014-11-23T09:43:28.000Z</time>
      </trkpt>
      <trkpt lat="43.1475" lon="3.07644">
        <ele>162.60000610352</ele>
        <time>2014-11-23T09:43:29.000Z</time>
      </trkpt>
      <trkpt lat="43.14748" lon="3.07642">
        <ele>163</ele>
        <time>2014-11-23T09:43:30.000Z</time>
      </trkpt>
      <trkpt lat="43.14742" lon="3.07638">
        <ele>163</ele>
        <time>2014-11-23T09:43:33.000Z</time>
      </trkpt>
      <trkpt lat="43.14742" lon="3.07637">
        <ele>163</ele>
        <time>2014-11-23T09:43:35.000Z</time>
      </trkpt>
      <trkpt lat="43.14739" lon="3.07636">
        <ele>163</ele>
        <time>2014-11-23T09:47:52.000Z</time>
      </trkpt>
      <trkpt lat="43.14737" lon="3.07635">
        <ele>163</ele>
        <time>2014-11-23T09:47:53.000Z</time>
      </trkpt>
      <trkpt lat="43.14733" lon="3.07633">
        <ele>163</ele>
        <time>2014-11-23T09:47:55.000Z</time>
      </trkpt>
      <trkpt lat="43.14725" lon="3.07629">
        <ele>163</ele>
        <time>2014-11-23T09:47:58.000Z</time>
      </trkpt>
      <trkpt lat="43.14712" lon="3.07621">
        <ele>163</ele>
        <time>2014-11-23T09:48:03.000Z</time>
      </trkpt>
      <trkpt lat="43.14706" lon="3.0762">
        <ele>163</ele>
        <time>2014-11-23T09:48:05.000Z</time>
      </trkpt>
      <trkpt lat="43.147" lon="3.07616">
        <ele>163</ele>
        <time>2014-11-23T09:48:07.000Z</time>
      </trkpt>
      <trkpt lat="43.14692" lon="3.07614">
        <ele>162.60000610352</ele>
        <time>2014-11-23T09:48:09.000Z</time>
      </trkpt>
      <trkpt lat="43.14689" lon="3.07613">
        <ele>162.19999694824</ele>
        <time>2014-11-23T09:48:10.000Z</time>
      </trkpt>
      <trkpt lat="43.14687" lon="3.07614">
        <ele>161.80000305176</ele>
        <time>2014-11-23T09:48:11.000Z</time>
      </trkpt>
      <trkpt lat="43.14684" lon="3.07612">
        <ele>161.39999389648</ele>
        <time>2014-11-23T09:48:12.000Z</time>
      </trkpt>
      <trkpt lat="43.1468" lon="3.07609">
        <ele>161</ele>
        <time>2014-11-23T09:48:13.000Z</time>
      </trkpt>
      <trkpt lat="43.14674" lon="3.07606">
        <ele>160.60000610352</ele>
        <time>2014-11-23T09:48:15.000Z</time>
      </trkpt>
      <trkpt lat="43.14671" lon="3.07604">
        <ele>160.19999694824</ele>
        <time>2014-11-23T09:48:16.000Z</time>
      </trkpt>
      <trkpt lat="43.14669" lon="3.07603">
        <ele>159.80000305176</ele>
        <time>2014-11-23T09:48:17.000Z</time>
      </trkpt>
      <trkpt lat="43.14667" lon="3.07602">
        <ele>159.39999389648</ele>
        <time>2014-11-23T09:48:18.000Z</time>
      </trkpt>
      <trkpt lat="43.14664" lon="3.07601">
        <ele>159</ele>
        <time>2014-11-23T09:48:19.000Z</time>
      </trkpt>
      <trkpt lat="43.14661" lon="3.07599">
        <ele>159</ele>
        <time>2014-11-23T09:48:20.000Z</time>
      </trkpt>
      <trkpt lat="43.14654" lon="3.07598">
        <ele>159</ele>
        <time>2014-11-23T09:48:23.000Z</time>
      </trkpt>
      <trkpt lat="43.14651" lon="3.07598">
        <ele>159</ele>
        <time>2014-11-23T09:48:24.000Z</time>
      </trkpt>
      <trkpt lat="43.14648" lon="3.07595">
        <ele>158.60000610352</ele>
        <time>2014-11-23T09:48:25.000Z</time>
      </trkpt>
      <trkpt lat="43.14644" lon="3.07595">
        <ele>158.19999694824</ele>
        <time>2014-11-23T09:48:26.000Z</time>
      </trkpt>
      <trkpt lat="43.1464" lon="3.07595">
        <ele>157.80000305176</ele>
        <time>2014-11-23T09:48:27.000Z</time>
      </trkpt>
      <trkpt lat="43.14636" lon="3.07594">
        <ele>157.39999389648</ele>
        <time>2014-11-23T09:48:28.000Z</time>
      </trkpt>
      <trkpt lat="43.14632" lon="3.07592">
        <ele>157</ele>
        <time>2014-11-23T09:48:29.000Z</time>
      </trkpt>
      <trkpt lat="43.14622" lon="3.0759">
        <ele>157</ele>
        <time>2014-11-23T09:48:32.000Z</time>
      </trkpt>
      <trkpt lat="43.14619" lon="3.07588">
        <ele>156.39999389648</ele>
        <time>2014-11-23T09:48:33.000Z</time>
      </trkpt>
      <trkpt lat="43.14616" lon="3.07586">
        <ele>156</ele>
        <time>2014-11-23T09:48:34.000Z</time>
      </trkpt>
      <trkpt lat="43.14614" lon="3.07585">
        <ele>155.39999389648</ele>
        <time>2014-11-23T09:48:35.000Z</time>
      </trkpt>
      <trkpt lat="43.14611" lon="3.07584">
        <ele>155</ele>
        <time>2014-11-23T09:48:36.000Z</time>
      </trkpt>
      <trkpt lat="43.14608" lon="3.07583">
        <ele>154.60000610352</ele>
        <time>2014-11-23T09:48:37.000Z</time>
      </trkpt>
      <trkpt lat="43.14598" lon="3.0758">
        <ele>154.60000610352</ele>
        <time>2014-11-23T09:48:41.000Z</time>
      </trkpt>
      <trkpt lat="43.14592" lon="3.07579">
        <ele>154</ele>
        <time>2014-11-23T09:48:43.000Z</time>
      </trkpt>
      <trkpt lat="43.14589" lon="3.07578">
        <ele>153.60000610352</ele>
        <time>2014-11-23T09:48:44.000Z</time>
      </trkpt>
      <trkpt lat="43.14586" lon="3.07577">
        <ele>153.19999694824</ele>
        <time>2014-11-23T09:48:45.000Z</time>
      </trkpt>
      <trkpt lat="43.14583" lon="3.07576">
        <ele>152.80000305176</ele>
        <time>2014-11-23T09:48:46.000Z</time>
      </trkpt>
      <trkpt lat="43.1458" lon="3.07576">
        <ele>152.39999389648</ele>
        <time>2014-11-23T09:48:47.000Z</time>
      </trkpt>
      <trkpt lat="43.14574" lon="3.07574">
        <ele>151.80000305176</ele>
        <time>2014-11-23T09:48:49.000Z</time>
      </trkpt>
      <trkpt lat="43.14572" lon="3.07572">
        <ele>151.39999389648</ele>
        <time>2014-11-23T09:48:50.000Z</time>
      </trkpt>
      <trkpt lat="43.14569" lon="3.07571">
        <ele>150.80000305176</ele>
        <time>2014-11-23T09:48:51.000Z</time>
      </trkpt>
      <trkpt lat="43.14566" lon="3.0757">
        <ele>150.39999389648</ele>
        <time>2014-11-23T09:48:52.000Z</time>
      </trkpt>
      <trkpt lat="43.14563" lon="3.07569">
        <ele>150</ele>
        <time>2014-11-23T09:48:53.000Z</time>
      </trkpt>
      <trkpt lat="43.14553" lon="3.07568">
        <ele>149.39999389648</ele>
        <time>2014-11-23T09:48:56.000Z</time>
      </trkpt>
      <trkpt lat="43.14549" lon="3.07568">
        <ele>149</ele>
        <time>2014-11-23T09:48:57.000Z</time>
      </trkpt>
      <trkpt lat="43.14547" lon="3.07567">
        <ele>148.60000610352</ele>
        <time>2014-11-23T09:48:58.000Z</time>
      </trkpt>
      <trkpt lat="43.14544" lon="3.07565">
        <ele>148</ele>
        <time>2014-11-23T09:48:59.000Z</time>
      </trkpt>
      <trkpt lat="43.14541" lon="3.07564">
        <ele>147.60000610352</ele>
        <time>2014-11-23T09:49:00.000Z</time>
      </trkpt>
      <trkpt lat="43.14535" lon="3.07562">
        <ele>147.19999694824</ele>
        <time>2014-11-23T09:49:03.000Z</time>
      </trkpt>
      <trkpt lat="43.14533" lon="3.07562">
        <ele>146.60000610352</ele>
        <time>2014-11-23T09:49:04.000Z</time>
      </trkpt>
      <trkpt lat="43.14531" lon="3.07562">
        <ele>145.80000305176</ele>
        <time>2014-11-23T09:49:05.000Z</time>
      </trkpt>
      <trkpt lat="43.14528" lon="3.07562">
        <ele>145.19999694824</ele>
        <time>2014-11-23T09:49:06.000Z</time>
      </trkpt>
      <trkpt lat="43.14525" lon="3.07562">
        <ele>144.80000305176</ele>
        <time>2014-11-23T09:49:07.000Z</time>
      </trkpt>
      <trkpt lat="43.14522" lon="3.07563">
        <ele>144.19999694824</ele>
        <time>2014-11-23T09:49:08.000Z</time>
      </trkpt>
      <trkpt lat="43.14519" lon="3.07563">
        <ele>143.60000610352</ele>
        <time>2014-11-23T09:49:09.000Z</time>
      </trkpt>
      <trkpt lat="43.14518" lon="3.07563">
        <ele>143.19999694824</ele>
        <time>2014-11-23T09:49:10.000Z</time>
      </trkpt>
      <trkpt lat="43.14516" lon="3.07563">
        <ele>142.80000305176</ele>
        <time>2014-11-23T09:49:11.000Z</time>
      </trkpt>
      <trkpt lat="43.14513" lon="3.07563">
        <ele>142.39999389648</ele>
        <time>2014-11-23T09:49:12.000Z</time>
      </trkpt>
      <trkpt lat="43.14511" lon="3.07562">
        <ele>142</ele>
        <time>2014-11-23T09:49:13.000Z</time>
      </trkpt>
      <trkpt lat="43.14509" lon="3.07562">
        <ele>141.60000610352</ele>
        <time>2014-11-23T09:49:14.000Z</time>
      </trkpt>
      <trkpt lat="43.14506" lon="3.07562">
        <ele>141.19999694824</ele>
        <time>2014-11-23T09:49:15.000Z</time>
      </trkpt>
      <trkpt lat="43.14503" lon="3.0756">
        <ele>140.60000610352</ele>
        <time>2014-11-23T09:49:16.000Z</time>
      </trkpt>
      <trkpt lat="43.145" lon="3.07558">
        <ele>140.19999694824</ele>
        <time>2014-11-23T09:49:17.000Z</time>
      </trkpt>
      <trkpt lat="43.14498" lon="3.07554">
        <ele>139.80000305176</ele>
        <time>2014-11-23T09:49:18.000Z</time>
      </trkpt>
      <trkpt lat="43.14496" lon="3.07549">
        <ele>139.19999694824</ele>
        <time>2014-11-23T09:49:19.000Z</time>
      </trkpt>
      <trkpt lat="43.14495" lon="3.07546">
        <ele>138.80000305176</ele>
        <time>2014-11-23T09:49:20.000Z</time>
      </trkpt>
      <trkpt lat="43.14492" lon="3.07541">
        <ele>138.80000305176</ele>
        <time>2014-11-23T09:49:22.000Z</time>
      </trkpt>
      <trkpt lat="43.14488" lon="3.07538">
        <ele>138.39999389648</ele>
        <time>2014-11-23T09:49:24.000Z</time>
      </trkpt>
      <trkpt lat="43.14486" lon="3.07536">
        <ele>138</ele>
        <time>2014-11-23T09:49:25.000Z</time>
      </trkpt>
      <trkpt lat="43.14484" lon="3.07535">
        <ele>137.39999389648</ele>
        <time>2014-11-23T09:49:26.000Z</time>
      </trkpt>
      <trkpt lat="43.14482" lon="3.07533">
        <ele>137</ele>
        <time>2014-11-23T09:49:27.000Z</time>
      </trkpt>
      <trkpt lat="43.14481" lon="3.07532">
        <ele>136.60000610352</ele>
        <time>2014-11-23T09:49:28.000Z</time>
      </trkpt>
      <trkpt lat="43.14473" lon="3.07519">
        <ele>136.60000610352</ele>
        <time>2014-11-23T09:49:33.000Z</time>
      </trkpt>
      <trkpt lat="43.14467" lon="3.07511">
        <ele>136.60000610352</ele>
        <time>2014-11-23T09:49:37.000Z</time>
      </trkpt>
      <trkpt lat="43.14456" lon="3.07499">
        <ele>137</ele>
        <time>2014-11-23T09:49:43.000Z</time>
      </trkpt>
      <trkpt lat="43.14454" lon="3.07497">
        <ele>137.60000610352</ele>
        <time>2014-11-23T09:49:44.000Z</time>
      </trkpt>
      <trkpt lat="43.14453" lon="3.07495">
        <ele>138</ele>
        <time>2014-11-23T09:49:45.000Z</time>
      </trkpt>
      <trkpt lat="43.14451" lon="3.07493">
        <ele>138.39999389648</ele>
        <time>2014-11-23T09:49:46.000Z</time>
      </trkpt>
      <trkpt lat="43.14449" lon="3.07492">
        <ele>138.80000305176</ele>
        <time>2014-11-23T09:49:47.000Z</time>
      </trkpt>
      <trkpt lat="43.14441" lon="3.07481">
        <ele>138.80000305176</ele>
        <time>2014-11-23T09:49:52.000Z</time>
      </trkpt>
      <trkpt lat="43.14435" lon="3.07474">
        <ele>139.19999694824</ele>
        <time>2014-11-23T09:49:56.000Z</time>
      </trkpt>
      <trkpt lat="43.14433" lon="3.07473">
        <ele>139.80000305176</ele>
        <time>2014-11-23T09:49:57.000Z</time>
      </trkpt>
      <trkpt lat="43.14432" lon="3.07471">
        <ele>140.19999694824</ele>
        <time>2014-11-23T09:49:58.000Z</time>
      </trkpt>
      <trkpt lat="43.1443" lon="3.07469">
        <ele>140.60000610352</ele>
        <time>2014-11-23T09:49:59.000Z</time>
      </trkpt>
      <trkpt lat="43.14429" lon="3.07467">
        <ele>141.19999694824</ele>
        <time>2014-11-23T09:50:00.000Z</time>
      </trkpt>
      <trkpt lat="43.14427" lon="3.07453">
        <ele>141.19999694824</ele>
        <time>2014-11-23T09:50:04.000Z</time>
      </trkpt>
      <trkpt lat="43.14428" lon="3.07441">
        <ele>141.19999694824</ele>
        <time>2014-11-23T09:50:08.000Z</time>
      </trkpt>
      <trkpt lat="43.14428" lon="3.07446">
        <ele>141.19999694824</ele>
        <time>2014-11-23T09:50:13.000Z</time>
      </trkpt>
      <trkpt lat="43.14427" lon="3.07452">
        <ele>141.19999694824</ele>
        <time>2014-11-23T09:50:16.000Z</time>
      </trkpt>
      <trkpt lat="43.14425" lon="3.07455">
        <ele>141.19999694824</ele>
        <time>2014-11-23T09:50:21.000Z</time>
      </trkpt>
      <trkpt lat="43.14423" lon="3.07454">
        <ele>141.19999694824</ele>
        <time>2014-11-23T09:50:22.000Z</time>
      </trkpt>
      <trkpt lat="43.14422" lon="3.07451">
        <ele>141.19999694824</ele>
        <time>2014-11-23T09:50:25.000Z</time>
      </trkpt>
      <trkpt lat="43.14422" lon="3.07451">
        <ele>141.19999694824</ele>
        <time>2014-11-23T09:50:26.000Z</time>
      </trkpt>
      <trkpt lat="43.14421" lon="3.07448">
        <ele>141.19999694824</ele>
        <time>2014-11-23T09:50:28.000Z</time>
      </trkpt>
      <trkpt lat="43.1442" lon="3.07447">
        <ele>141.19999694824</ele>
        <time>2014-11-23T09:50:31.000Z</time>
      </trkpt>
      <trkpt lat="43.14418" lon="3.07443">
        <ele>141.19999694824</ele>
        <time>2014-11-23T09:50:37.000Z</time>
      </trkpt>
      <trkpt lat="43.14418" lon="3.0744">
        <ele>141.19999694824</ele>
        <time>2014-11-23T09:50:38.000Z</time>
      </trkpt>
      <trkpt lat="43.14412" lon="3.07425">
        <ele>141.19999694824</ele>
        <time>2014-11-23T09:50:44.000Z</time>
      </trkpt>
      <trkpt lat="43.1441" lon="3.07417">
        <ele>141.60000610352</ele>
        <time>2014-11-23T09:50:47.000Z</time>
      </trkpt>
      <trkpt lat="43.14409" lon="3.07414">
        <ele>142</ele>
        <time>2014-11-23T09:50:48.000Z</time>
      </trkpt>
      <trkpt lat="43.14408" lon="3.07411">
        <ele>142.39999389648</ele>
        <time>2014-11-23T09:50:49.000Z</time>
      </trkpt>
      <trkpt lat="43.14408" lon="3.0741">
        <ele>142.80000305176</ele>
        <time>2014-11-23T09:50:50.000Z</time>
      </trkpt>
      <trkpt lat="43.14408" lon="3.07407">
        <ele>143.19999694824</ele>
        <time>2014-11-23T09:50:51.000Z</time>
      </trkpt>
      <trkpt lat="43.14408" lon="3.07404">
        <ele>143.19999694824</ele>
        <time>2014-11-23T09:50:52.000Z</time>
      </trkpt>
      <trkpt lat="43.14408" lon="3.074">
        <ele>143.19999694824</ele>
        <time>2014-11-23T09:50:53.000Z</time>
      </trkpt>
      <trkpt lat="43.14408" lon="3.0738">
        <ele>143.19999694824</ele>
        <time>2014-11-23T09:50:59.000Z</time>
      </trkpt>
      <trkpt lat="43.14404" lon="3.07364">
        <ele>143.19999694824</ele>
        <time>2014-11-23T09:51:04.000Z</time>
      </trkpt>
      <trkpt lat="43.14399" lon="3.07345">
        <ele>143.19999694824</ele>
        <time>2014-11-23T09:51:09.000Z</time>
      </trkpt>
      <trkpt lat="43.1439" lon="3.07325">
        <ele>143.19999694824</ele>
        <time>2014-11-23T09:51:15.000Z</time>
      </trkpt>
      <trkpt lat="43.14379" lon="3.07298">
        <ele>143.19999694824</ele>
        <time>2014-11-23T09:51:21.000Z</time>
      </trkpt>
      <trkpt lat="43.14367" lon="3.07275">
        <ele>143.19999694824</ele>
        <time>2014-11-23T09:51:27.000Z</time>
      </trkpt>
      <trkpt lat="43.14358" lon="3.07259">
        <ele>143.19999694824</ele>
        <time>2014-11-23T09:51:32.000Z</time>
      </trkpt>
      <trkpt lat="43.14356" lon="3.07255">
        <ele>142.39999389648</ele>
        <time>2014-11-23T09:51:33.000Z</time>
      </trkpt>
      <trkpt lat="43.14354" lon="3.07251">
        <ele>142</ele>
        <time>2014-11-23T09:51:34.000Z</time>
      </trkpt>
      <trkpt lat="43.14353" lon="3.07247">
        <ele>141.60000610352</ele>
        <time>2014-11-23T09:51:35.000Z</time>
      </trkpt>
      <trkpt lat="43.14351" lon="3.07243">
        <ele>141.19999694824</ele>
        <time>2014-11-23T09:51:36.000Z</time>
      </trkpt>
      <trkpt lat="43.14342" lon="3.07222">
        <ele>140.80000305176</ele>
        <time>2014-11-23T09:51:40.000Z</time>
      </trkpt>
      <trkpt lat="43.14341" lon="3.07218">
        <ele>140.19999694824</ele>
        <time>2014-11-23T09:51:41.000Z</time>
      </trkpt>
      <trkpt lat="43.14339" lon="3.07214">
        <ele>139.80000305176</ele>
        <time>2014-11-23T09:51:42.000Z</time>
      </trkpt>
      <trkpt lat="43.14337" lon="3.0721">
        <ele>139.39999389648</ele>
        <time>2014-11-23T09:51:43.000Z</time>
      </trkpt>
      <trkpt lat="43.14335" lon="3.07205">
        <ele>139</ele>
        <time>2014-11-23T09:51:44.000Z</time>
      </trkpt>
      <trkpt lat="43.14331" lon="3.07197">
        <ele>139</ele>
        <time>2014-11-23T09:51:46.000Z</time>
      </trkpt>
      <trkpt lat="43.14325" lon="3.07188">
        <ele>138.39999389648</ele>
        <time>2014-11-23T09:51:49.000Z</time>
      </trkpt>
      <trkpt lat="43.14322" lon="3.07185">
        <ele>138</ele>
        <time>2014-11-23T09:51:50.000Z</time>
      </trkpt>
      <trkpt lat="43.1432" lon="3.07181">
        <ele>137.60000610352</ele>
        <time>2014-11-23T09:51:51.000Z</time>
      </trkpt>
      <trkpt lat="43.14318" lon="3.07177">
        <ele>137</ele>
        <time>2014-11-23T09:51:52.000Z</time>
      </trkpt>
      <trkpt lat="43.14316" lon="3.07174">
        <ele>136.60000610352</ele>
        <time>2014-11-23T09:51:53.000Z</time>
      </trkpt>
      <trkpt lat="43.14312" lon="3.07163">
        <ele>136.19999694824</ele>
        <time>2014-11-23T09:51:56.000Z</time>
      </trkpt>
      <trkpt lat="43.1431" lon="3.07161">
        <ele>135.80000305176</ele>
        <time>2014-11-23T09:51:57.000Z</time>
      </trkpt>
      <trkpt lat="43.14309" lon="3.07159">
        <ele>135</ele>
        <time>2014-11-23T09:51:58.000Z</time>
      </trkpt>
      <trkpt lat="43.14308" lon="3.07156">
        <ele>134.60000610352</ele>
        <time>2014-11-23T09:51:59.000Z</time>
      </trkpt>
      <trkpt lat="43.14305" lon="3.07151">
        <ele>134.60000610352</ele>
        <time>2014-11-23T09:52:01.000Z</time>
      </trkpt>
      <trkpt lat="43.14303" lon="3.07148">
        <ele>134.19999694824</ele>
        <time>2014-11-23T09:52:02.000Z</time>
      </trkpt>
      <trkpt lat="43.14302" lon="3.07145">
        <ele>133.80000305176</ele>
        <time>2014-11-23T09:52:03.000Z</time>
      </trkpt>
      <trkpt lat="43.14301" lon="3.07142">
        <ele>133.39999389648</ele>
        <time>2014-11-23T09:52:04.000Z</time>
      </trkpt>
      <trkpt lat="43.143" lon="3.0714">
        <ele>133</ele>
        <time>2014-11-23T09:52:05.000Z</time>
      </trkpt>
      <trkpt lat="43.143" lon="3.07137">
        <ele>132.60000610352</ele>
        <time>2014-11-23T09:52:06.000Z</time>
      </trkpt>
      <trkpt lat="43.14296" lon="3.07129">
        <ele>132</ele>
        <time>2014-11-23T09:52:09.000Z</time>
      </trkpt>
      <trkpt lat="43.14294" lon="3.07126">
        <ele>131.39999389648</ele>
        <time>2014-11-23T09:52:10.000Z</time>
      </trkpt>
      <trkpt lat="43.14293" lon="3.07125">
        <ele>131</ele>
        <time>2014-11-23T09:52:11.000Z</time>
      </trkpt>
      <trkpt lat="43.14291" lon="3.07124">
        <ele>130.39999389648</ele>
        <time>2014-11-23T09:52:12.000Z</time>
      </trkpt>
      <trkpt lat="43.14289" lon="3.07121">
        <ele>130</ele>
        <time>2014-11-23T09:52:13.000Z</time>
      </trkpt>
      <trkpt lat="43.14288" lon="3.07117">
        <ele>129.39999389648</ele>
        <time>2014-11-23T09:52:14.000Z</time>
      </trkpt>
      <trkpt lat="43.14286" lon="3.07114">
        <ele>129</ele>
        <time>2014-11-23T09:52:15.000Z</time>
      </trkpt>
      <trkpt lat="43.14284" lon="3.07112">
        <ele>128.60000610352</ele>
        <time>2014-11-23T09:52:16.000Z</time>
      </trkpt>
      <trkpt lat="43.14282" lon="3.07109">
        <ele>128</ele>
        <time>2014-11-23T09:52:17.000Z</time>
      </trkpt>
      <trkpt lat="43.1428" lon="3.07106">
        <ele>127.59999847412</ele>
        <time>2014-11-23T09:52:18.000Z</time>
      </trkpt>
      <trkpt lat="43.14278" lon="3.07104">
        <ele>127</ele>
        <time>2014-11-23T09:52:19.000Z</time>
      </trkpt>
      <trkpt lat="43.14276" lon="3.07102">
        <ele>126.59999847412</ele>
        <time>2014-11-23T09:52:20.000Z</time>
      </trkpt>
      <trkpt lat="43.14275" lon="3.07099">
        <ele>126</ele>
        <time>2014-11-23T09:52:21.000Z</time>
      </trkpt>
      <trkpt lat="43.14272" lon="3.07097">
        <ele>125</ele>
        <time>2014-11-23T09:52:22.000Z</time>
      </trkpt>
      <trkpt lat="43.1427" lon="3.07094">
        <ele>124.59999847412</ele>
        <time>2014-11-23T09:52:23.000Z</time>
      </trkpt>
      <trkpt lat="43.14267" lon="3.0709">
        <ele>124.19999694824</ele>
        <time>2014-11-23T09:52:24.000Z</time>
      </trkpt>
      <trkpt lat="43.14264" lon="3.07087">
        <ele>123.80000305176</ele>
        <time>2014-11-23T09:52:25.000Z</time>
      </trkpt>
      <trkpt lat="43.14261" lon="3.07084">
        <ele>123.40000152588</ele>
        <time>2014-11-23T09:52:26.000Z</time>
      </trkpt>
      <trkpt lat="43.14256" lon="3.07081">
        <ele>123</ele>
        <time>2014-11-23T09:52:28.000Z</time>
      </trkpt>
      <trkpt lat="43.14253" lon="3.0708">
        <ele>122.59999847412</ele>
        <time>2014-11-23T09:52:29.000Z</time>
      </trkpt>
      <trkpt lat="43.1425" lon="3.07077">
        <ele>122.19999694824</ele>
        <time>2014-11-23T09:52:30.000Z</time>
      </trkpt>
      <trkpt lat="43.14247" lon="3.07075">
        <ele>121.80000305176</ele>
        <time>2014-11-23T09:52:31.000Z</time>
      </trkpt>
      <trkpt lat="43.14243" lon="3.07073">
        <ele>121.40000152588</ele>
        <time>2014-11-23T09:52:32.000Z</time>
      </trkpt>
      <trkpt lat="43.14233" lon="3.07069">
        <ele>121.40000152588</ele>
        <time>2014-11-23T09:52:35.000Z</time>
      </trkpt>
      <trkpt lat="43.1423" lon="3.07068">
        <ele>120.80000305176</ele>
        <time>2014-11-23T09:52:36.000Z</time>
      </trkpt>
      <trkpt lat="43.14226" lon="3.07066">
        <ele>120.40000152588</ele>
        <time>2014-11-23T09:52:37.000Z</time>
      </trkpt>
      <trkpt lat="43.14222" lon="3.07064">
        <ele>120</ele>
        <time>2014-11-23T09:52:38.000Z</time>
      </trkpt>
      <trkpt lat="43.14219" lon="3.07061">
        <ele>119.40000152588</ele>
        <time>2014-11-23T09:52:39.000Z</time>
      </trkpt>
      <trkpt lat="43.14215" lon="3.0706">
        <ele>119</ele>
        <time>2014-11-23T09:52:40.000Z</time>
      </trkpt>
      <trkpt lat="43.14211" lon="3.07057">
        <ele>118.59999847412</ele>
        <time>2014-11-23T09:52:41.000Z</time>
      </trkpt>
      <trkpt lat="43.14208" lon="3.07054">
        <ele>118.19999694824</ele>
        <time>2014-11-23T09:52:42.000Z</time>
      </trkpt>
      <trkpt lat="43.14204" lon="3.07052">
        <ele>117.80000305176</ele>
        <time>2014-11-23T09:52:43.000Z</time>
      </trkpt>
      <trkpt lat="43.142" lon="3.0705">
        <ele>117.40000152588</ele>
        <time>2014-11-23T09:52:44.000Z</time>
      </trkpt>
      <trkpt lat="43.14195" lon="3.07049">
        <ele>117</ele>
        <time>2014-11-23T09:52:45.000Z</time>
      </trkpt>
      <trkpt lat="43.14188" lon="3.07046">
        <ele>116.40000152588</ele>
        <time>2014-11-23T09:52:47.000Z</time>
      </trkpt>
      <trkpt lat="43.14185" lon="3.07045">
        <ele>116</ele>
        <time>2014-11-23T09:52:48.000Z</time>
      </trkpt>
      <trkpt lat="43.14181" lon="3.07044">
        <ele>115.40000152588</ele>
        <time>2014-11-23T09:52:49.000Z</time>
      </trkpt>
      <trkpt lat="43.14178" lon="3.07042">
        <ele>115</ele>
        <time>2014-11-23T09:52:50.000Z</time>
      </trkpt>
      <trkpt lat="43.14174" lon="3.07041">
        <ele>114.40000152588</ele>
        <time>2014-11-23T09:52:51.000Z</time>
      </trkpt>
      <trkpt lat="43.1417" lon="3.07041">
        <ele>114.40000152588</ele>
        <time>2014-11-23T09:52:52.000Z</time>
      </trkpt>
      <trkpt lat="43.14163" lon="3.07041">
        <ele>114</ele>
        <time>2014-11-23T09:52:54.000Z</time>
      </trkpt>
      <trkpt lat="43.14161" lon="3.0704">
        <ele>113.40000152588</ele>
        <time>2014-11-23T09:52:55.000Z</time>
      </trkpt>
      <trkpt lat="43.14158" lon="3.0704">
        <ele>113</ele>
        <time>2014-11-23T09:52:56.000Z</time>
      </trkpt>
      <trkpt lat="43.14155" lon="3.07039">
        <ele>112.40000152588</ele>
        <time>2014-11-23T09:52:57.000Z</time>
      </trkpt>
      <trkpt lat="43.14151" lon="3.07038">
        <ele>112</ele>
        <time>2014-11-23T09:52:58.000Z</time>
      </trkpt>
      <trkpt lat="43.14145" lon="3.07037">
        <ele>111.59999847412</ele>
        <time>2014-11-23T09:53:00.000Z</time>
      </trkpt>
      <trkpt lat="43.14143" lon="3.07037">
        <ele>111.19999694824</ele>
        <time>2014-11-23T09:53:01.000Z</time>
      </trkpt>
      <trkpt lat="43.14141" lon="3.07036">
        <ele>110.80000305176</ele>
        <time>2014-11-23T09:53:02.000Z</time>
      </trkpt>
      <trkpt lat="43.1414" lon="3.07032">
        <ele>110.40000152588</ele>
        <time>2014-11-23T09:53:03.000Z</time>
      </trkpt>
      <trkpt lat="43.14136" lon="3.0703">
        <ele>110</ele>
        <time>2014-11-23T09:53:04.000Z</time>
      </trkpt>
      <trkpt lat="43.14133" lon="3.0703">
        <ele>109.59999847412</ele>
        <time>2014-11-23T09:53:05.000Z</time>
      </trkpt>
      <trkpt lat="43.1413" lon="3.0703">
        <ele>109</ele>
        <time>2014-11-23T09:53:06.000Z</time>
      </trkpt>
      <trkpt lat="43.14127" lon="3.07031">
        <ele>108.59999847412</ele>
        <time>2014-11-23T09:53:07.000Z</time>
      </trkpt>
      <trkpt lat="43.14125" lon="3.07031">
        <ele>108.19999694824</ele>
        <time>2014-11-23T09:53:08.000Z</time>
      </trkpt>
      <trkpt lat="43.14125" lon="3.0703">
        <ele>107.80000305176</ele>
        <time>2014-11-23T09:53:09.000Z</time>
      </trkpt>
      <trkpt lat="43.14125" lon="3.0703">
        <ele>107.80000305176</ele>
        <time>2014-11-23T09:53:10.000Z</time>
      </trkpt>
      <trkpt lat="43.14122" lon="3.07029">
        <ele>105.80000305176</ele>
        <time>2014-11-23T09:54:38.000Z</time>
      </trkpt>
      <trkpt lat="43.14116" lon="3.07027">
        <ele>105.80000305176</ele>
        <time>2014-11-23T09:54:40.000Z</time>
      </trkpt>
      <trkpt lat="43.14102" lon="3.07024">
        <ele>105.40000152588</ele>
        <time>2014-11-23T09:54:43.000Z</time>
      </trkpt>
      <trkpt lat="43.14096" lon="3.07023">
        <ele>104.80000305176</ele>
        <time>2014-11-23T09:54:44.000Z</time>
      </trkpt>
      <trkpt lat="43.1409" lon="3.07022">
        <ele>104.40000152588</ele>
        <time>2014-11-23T09:54:45.000Z</time>
      </trkpt>
      <trkpt lat="43.14083" lon="3.07022">
        <ele>104</ele>
        <time>2014-11-23T09:54:46.000Z</time>
      </trkpt>
      <trkpt lat="43.14076" lon="3.0702">
        <ele>103.59999847412</ele>
        <time>2014-11-23T09:54:47.000Z</time>
      </trkpt>
      <trkpt lat="43.14069" lon="3.07019">
        <ele>103</ele>
        <time>2014-11-23T09:54:48.000Z</time>
      </trkpt>
      <trkpt lat="43.14062" lon="3.07017">
        <ele>102.59999847412</ele>
        <time>2014-11-23T09:54:49.000Z</time>
      </trkpt>
      <trkpt lat="43.14054" lon="3.07015">
        <ele>101.19999694824</ele>
        <time>2014-11-23T09:54:50.000Z</time>
      </trkpt>
      <trkpt lat="43.14047" lon="3.07013">
        <ele>100.59999847412</ele>
        <time>2014-11-23T09:54:51.000Z</time>
      </trkpt>
      <trkpt lat="43.1404" lon="3.07009">
        <ele>100</ele>
        <time>2014-11-23T09:54:52.000Z</time>
      </trkpt>
      <trkpt lat="43.14033" lon="3.07007">
        <ele>99.400001525879</ele>
        <time>2014-11-23T09:54:53.000Z</time>
      </trkpt>
      <trkpt lat="43.14012" lon="3.07">
        <ele>99</ele>
        <time>2014-11-23T09:54:56.000Z</time>
      </trkpt>
      <trkpt lat="43.14006" lon="3.06997">
        <ele>98.599998474121</ele>
        <time>2014-11-23T09:54:57.000Z</time>
      </trkpt>
      <trkpt lat="43.14" lon="3.06992">
        <ele>98.199996948242</ele>
        <time>2014-11-23T09:54:58.000Z</time>
      </trkpt>
      <trkpt lat="43.13995" lon="3.06987">
        <ele>97.800003051758</ele>
        <time>2014-11-23T09:54:59.000Z</time>
      </trkpt>
      <trkpt lat="43.1399" lon="3.06982">
        <ele>97.400001525879</ele>
        <time>2014-11-23T09:55:00.000Z</time>
      </trkpt>
      <trkpt lat="43.13975" lon="3.06964">
        <ele>97.400001525879</ele>
        <time>2014-11-23T09:55:03.000Z</time>
      </trkpt>
      <trkpt lat="43.13966" lon="3.06952">
        <ele>97.400001525879</ele>
        <time>2014-11-23T09:55:05.000Z</time>
      </trkpt>
      <trkpt lat="43.13958" lon="3.06938">
        <ele>97.400001525879</ele>
        <time>2014-11-23T09:55:08.000Z</time>
      </trkpt>
      <trkpt lat="43.13954" lon="3.06936">
        <ele>97.400001525879</ele>
        <time>2014-11-23T09:55:10.000Z</time>
      </trkpt>
      <trkpt lat="43.13951" lon="3.0694">
        <ele>97.400001525879</ele>
        <time>2014-11-23T09:55:12.000Z</time>
      </trkpt>
      <trkpt lat="43.13952" lon="3.0694">
        <ele>97</ele>
        <time>2014-11-23T09:55:13.000Z</time>
      </trkpt>
      <trkpt lat="43.13952" lon="3.0694">
        <ele>96.599998474121</ele>
        <time>2014-11-23T09:55:14.000Z</time>
      </trkpt>
      <trkpt lat="43.13952" lon="3.0694">
        <ele>95.800003051758</ele>
        <time>2014-11-23T09:55:15.000Z</time>
      </trkpt>
      <trkpt lat="43.13953" lon="3.06939">
        <ele>95.400001525879</ele>
        <time>2014-11-23T09:55:16.000Z</time>
      </trkpt>
      <trkpt lat="43.13955" lon="3.06938">
        <ele>95.400001525879</ele>
        <time>2014-11-23T09:55:18.000Z</time>
      </trkpt>
      <trkpt lat="43.13955" lon="3.06938">
        <ele>95.400001525879</ele>
        <time>2014-11-23T09:55:20.000Z</time>
      </trkpt>
      <trkpt lat="43.13956" lon="3.06939">
        <ele>95.400001525879</ele>
        <time>2014-11-23T09:55:21.000Z</time>
      </trkpt>
      <trkpt lat="43.13958" lon="3.06941">
        <ele>95.400001525879</ele>
        <time>2014-11-23T09:55:22.000Z</time>
      </trkpt>
      <trkpt lat="43.13965" lon="3.06955">
        <ele>95.400001525879</ele>
        <time>2014-11-23T09:55:26.000Z</time>
      </trkpt>
      <trkpt lat="43.13967" lon="3.06958">
        <ele>95.400001525879</ele>
        <time>2014-11-23T09:55:27.000Z</time>
      </trkpt>
      <trkpt lat="43.13977" lon="3.06967">
        <ele>95.400001525879</ele>
        <time>2014-11-23T09:55:31.000Z</time>
      </trkpt>
      <trkpt lat="43.13991" lon="3.06982">
        <ele>95.400001525879</ele>
        <time>2014-11-23T09:55:37.000Z</time>
      </trkpt>
      <trkpt lat="43.13996" lon="3.06985">
        <ele>95.800003051758</ele>
        <time>2014-11-23T09:55:39.000Z</time>
      </trkpt>
      <trkpt lat="43.13998" lon="3.06987">
        <ele>96.199996948242</ele>
        <time>2014-11-23T09:55:40.000Z</time>
      </trkpt>
      <trkpt lat="43.14" lon="3.0699">
        <ele>96.599998474121</ele>
        <time>2014-11-23T09:55:41.000Z</time>
      </trkpt>
      <trkpt lat="43.14002" lon="3.06992">
        <ele>97</ele>
        <time>2014-11-23T09:55:42.000Z</time>
      </trkpt>
      <trkpt lat="43.14005" lon="3.06993">
        <ele>97.400001525879</ele>
        <time>2014-11-23T09:55:43.000Z</time>
      </trkpt>
      <trkpt lat="43.14013" lon="3.07">
        <ele>97.400001525879</ele>
        <time>2014-11-23T09:55:47.000Z</time>
      </trkpt>
      <trkpt lat="43.14025" lon="3.07004">
        <ele>97.400001525879</ele>
        <time>2014-11-23T09:55:52.000Z</time>
      </trkpt>
      <trkpt lat="43.14043" lon="3.07009">
        <ele>97.400001525879</ele>
        <time>2014-11-23T09:55:59.000Z</time>
      </trkpt>
      <trkpt lat="43.14042" lon="3.07009">
        <ele>97.400001525879</ele>
        <time>2014-11-23T09:56:01.000Z</time>
      </trkpt>
      <trkpt lat="43.14041" lon="3.07009">
        <ele>97.400001525879</ele>
        <time>2014-11-23T09:56:08.000Z</time>
      </trkpt>
      <trkpt lat="43.14037" lon="3.07008">
        <ele>97.400001525879</ele>
        <time>2014-11-23T09:56:11.000Z</time>
      </trkpt>
      <trkpt lat="43.14025" lon="3.07005">
        <ele>97.400001525879</ele>
        <time>2014-11-23T09:56:15.000Z</time>
      </trkpt>
      <trkpt lat="43.14015" lon="3.07002">
        <ele>97.400001525879</ele>
        <time>2014-11-23T09:56:21.000Z</time>
      </trkpt>
      <trkpt lat="43.14014" lon="3.07003">
        <ele>97.400001525879</ele>
        <time>2014-11-23T09:56:22.000Z</time>
      </trkpt>
      <trkpt lat="43.14013" lon="3.07005">
        <ele>97.400001525879</ele>
        <time>2014-11-23T09:56:25.000Z</time>
      </trkpt>
      <trkpt lat="43.1401" lon="3.07008">
        <ele>97.400001525879</ele>
        <time>2014-11-23T09:56:32.000Z</time>
      </trkpt>
      <trkpt lat="43.14008" lon="3.07011">
        <ele>99.599998474121</ele>
        <time>2014-11-23T09:57:15.000Z</time>
      </trkpt>
      <trkpt lat="43.14007" lon="3.07014">
        <ele>99.599998474121</ele>
        <time>2014-11-23T09:57:17.000Z</time>
      </trkpt>
      <trkpt lat="43.14006" lon="3.07014">
        <ele>99.599998474121</ele>
        <time>2014-11-23T09:57:19.000Z</time>
      </trkpt>
      <trkpt lat="43.14012" lon="3.07004">
        <ele>99.599998474121</ele>
        <time>2014-11-23T09:58:01.000Z</time>
      </trkpt>
      <trkpt lat="43.1401" lon="3.07002">
        <ele>99.599998474121</ele>
        <time>2014-11-23T09:58:02.000Z</time>
      </trkpt>
      <trkpt lat="43.13997" lon="3.06991">
        <ele>99.599998474121</ele>
        <time>2014-11-23T09:58:07.000Z</time>
      </trkpt>
      <trkpt lat="43.13982" lon="3.06978">
        <ele>99.599998474121</ele>
        <time>2014-11-23T09:58:14.000Z</time>
      </trkpt>
      <trkpt lat="43.13983" lon="3.06978">
        <ele>99.599998474121</ele>
        <time>2014-11-23T09:58:15.000Z</time>
      </trkpt>
      <trkpt lat="43.13982" lon="3.06976">
        <ele>99.599998474121</ele>
        <time>2014-11-23T09:58:26.000Z</time>
      </trkpt>
      <trkpt lat="43.1398" lon="3.06974">
        <ele>99.599998474121</ele>
        <time>2014-11-23T09:58:27.000Z</time>
      </trkpt>
      <trkpt lat="43.13975" lon="3.06968">
        <ele>99.199996948242</ele>
        <time>2014-11-23T09:58:29.000Z</time>
      </trkpt>
      <trkpt lat="43.13972" lon="3.06965">
        <ele>98.800003051758</ele>
        <time>2014-11-23T09:58:30.000Z</time>
      </trkpt>
      <trkpt lat="43.1397" lon="3.06964">
        <ele>98.400001525879</ele>
        <time>2014-11-23T09:58:31.000Z</time>
      </trkpt>
      <trkpt lat="43.13968" lon="3.06965">
        <ele>97.800003051758</ele>
        <time>2014-11-23T09:58:32.000Z</time>
      </trkpt>
      <trkpt lat="43.13969" lon="3.06966">
        <ele>97.400001525879</ele>
        <time>2014-11-23T09:58:33.000Z</time>
      </trkpt>
      <trkpt lat="43.13969" lon="3.06966">
        <ele>97.400001525879</ele>
        <time>2014-11-23T09:58:34.000Z</time>
      </trkpt>
      <trkpt lat="43.13968" lon="3.06969">
        <ele>97.400001525879</ele>
        <time>2014-11-23T09:58:36.000Z</time>
      </trkpt>
      <trkpt lat="43.13966" lon="3.06971">
        <ele>97.400001525879</ele>
        <time>2014-11-23T09:58:37.000Z</time>
      </trkpt>
      <trkpt lat="43.13967" lon="3.06971">
        <ele>97.400001525879</ele>
        <time>2014-11-23T09:58:38.000Z</time>
      </trkpt>
      <trkpt lat="43.13964" lon="3.06972">
        <ele>97.400001525879</ele>
        <time>2014-11-23T09:58:40.000Z</time>
      </trkpt>
      <trkpt lat="43.13965" lon="3.06972">
        <ele>97.400001525879</ele>
        <time>2014-11-23T09:58:41.000Z</time>
      </trkpt>
      <trkpt lat="43.13964" lon="3.06974">
        <ele>97.400001525879</ele>
        <time>2014-11-23T09:58:42.000Z</time>
      </trkpt>
      <trkpt lat="43.13964" lon="3.06975">
        <ele>97.400001525879</ele>
        <time>2014-11-23T09:58:43.000Z</time>
      </trkpt>
      <trkpt lat="43.13961" lon="3.06977">
        <ele>97.400001525879</ele>
        <time>2014-11-23T09:58:48.000Z</time>
      </trkpt>
      <trkpt lat="43.13961" lon="3.06976">
        <ele>97.400001525879</ele>
        <time>2014-11-23T09:58:49.000Z</time>
      </trkpt>
      <trkpt lat="43.1396" lon="3.06977">
        <ele>97.400001525879</ele>
        <time>2014-11-23T09:58:51.000Z</time>
      </trkpt>
      <trkpt lat="43.1396" lon="3.06979">
        <ele>97.400001525879</ele>
        <time>2014-11-23T09:58:52.000Z</time>
      </trkpt>
      <trkpt lat="43.13959" lon="3.06982">
        <ele>97.400001525879</ele>
        <time>2014-11-23T09:58:56.000Z</time>
      </trkpt>
      <trkpt lat="43.13959" lon="3.0698">
        <ele>97.400001525879</ele>
        <time>2014-11-23T09:58:57.000Z</time>
      </trkpt>
      <trkpt lat="43.13959" lon="3.06976">
        <ele>97.400001525879</ele>
        <time>2014-11-23T09:59:00.000Z</time>
      </trkpt>
      <trkpt lat="43.13957" lon="3.06976">
        <ele>97.400001525879</ele>
        <time>2014-11-23T09:59:01.000Z</time>
      </trkpt>
      <trkpt lat="43.13956" lon="3.06975">
        <ele>97.400001525879</ele>
        <time>2014-11-23T09:59:03.000Z</time>
      </trkpt>
      <trkpt lat="43.13956" lon="3.06975">
        <ele>97.400001525879</ele>
        <time>2014-11-23T09:59:04.000Z</time>
      </trkpt>
      <trkpt lat="43.13956" lon="3.06975">
        <ele>97.400001525879</ele>
        <time>2014-11-23T09:59:09.000Z</time>
      </trkpt>
      <trkpt lat="43.13955" lon="3.06973">
        <ele>97.400001525879</ele>
        <time>2014-11-23T09:59:10.000Z</time>
      </trkpt>
      <trkpt lat="43.13951" lon="3.06972">
        <ele>97.400001525879</ele>
        <time>2014-11-23T09:59:12.000Z</time>
      </trkpt>
      <trkpt lat="43.13947" lon="3.06967">
        <ele>97.400001525879</ele>
        <time>2014-11-23T09:59:14.000Z</time>
      </trkpt>
      <trkpt lat="43.13943" lon="3.0696">
        <ele>97.400001525879</ele>
        <time>2014-11-23T09:59:17.000Z</time>
      </trkpt>
      <trkpt lat="43.13941" lon="3.06959">
        <ele>97.400001525879</ele>
        <time>2014-11-23T09:59:18.000Z</time>
      </trkpt>
      <trkpt lat="43.13937" lon="3.06955">
        <ele>97.400001525879</ele>
        <time>2014-11-23T09:59:22.000Z</time>
      </trkpt>
      <trkpt lat="43.13935" lon="3.06958">
        <ele>97.400001525879</ele>
        <time>2014-11-23T09:59:27.000Z</time>
      </trkpt>
      <trkpt lat="43.13935" lon="3.0696">
        <ele>97.400001525879</ele>
        <time>2014-11-23T09:59:29.000Z</time>
      </trkpt>
      <trkpt lat="43.13936" lon="3.06964">
        <ele>97.400001525879</ele>
        <time>2014-11-23T09:59:32.000Z</time>
      </trkpt>
      <trkpt lat="43.13939" lon="3.06979">
        <ele>97.400001525879</ele>
        <time>2014-11-23T09:59:37.000Z</time>
      </trkpt>
      <trkpt lat="43.13938" lon="3.06986">
        <ele>97.400001525879</ele>
        <time>2014-11-23T09:59:39.000Z</time>
      </trkpt>
      <trkpt lat="43.13936" lon="3.06985">
        <ele>97.400001525879</ele>
        <time>2014-11-23T09:59:40.000Z</time>
      </trkpt>
      <trkpt lat="43.13934" lon="3.06986">
        <ele>97.400001525879</ele>
        <time>2014-11-23T10:00:01.000Z</time>
      </trkpt>
      <trkpt lat="43.13929" lon="3.06992">
        <ele>97.400001525879</ele>
        <time>2014-11-23T10:00:04.000Z</time>
      </trkpt>
      <trkpt lat="43.13923" lon="3.06997">
        <ele>97</ele>
        <time>2014-11-23T10:00:06.000Z</time>
      </trkpt>
      <trkpt lat="43.13921" lon="3.07">
        <ele>96.599998474121</ele>
        <time>2014-11-23T10:00:07.000Z</time>
      </trkpt>
      <trkpt lat="43.1392" lon="3.07003">
        <ele>96.199996948242</ele>
        <time>2014-11-23T10:00:08.000Z</time>
      </trkpt>
      <trkpt lat="43.13919" lon="3.07006">
        <ele>95.800003051758</ele>
        <time>2014-11-23T10:00:09.000Z</time>
      </trkpt>
      <trkpt lat="43.13916" lon="3.07009">
        <ele>95.400001525879</ele>
        <time>2014-11-23T10:00:10.000Z</time>
      </trkpt>
      <trkpt lat="43.13913" lon="3.07015">
        <ele>95.400001525879</ele>
        <time>2014-11-23T10:00:12.000Z</time>
      </trkpt>
      <trkpt lat="43.13911" lon="3.07018">
        <ele>94.800003051758</ele>
        <time>2014-11-23T10:00:13.000Z</time>
      </trkpt>
      <trkpt lat="43.13909" lon="3.07022">
        <ele>94.400001525879</ele>
        <time>2014-11-23T10:00:14.000Z</time>
      </trkpt>
      <trkpt lat="43.13907" lon="3.07024">
        <ele>93.800003051758</ele>
        <time>2014-11-23T10:00:15.000Z</time>
      </trkpt>
      <trkpt lat="43.13905" lon="3.07026">
        <ele>93.400001525879</ele>
        <time>2014-11-23T10:00:16.000Z</time>
      </trkpt>
      <trkpt lat="43.13903" lon="3.07028">
        <ele>92.800003051758</ele>
        <time>2014-11-23T10:00:17.000Z</time>
      </trkpt>
      <trkpt lat="43.139" lon="3.07032">
        <ele>92.800003051758</ele>
        <time>2014-11-23T10:00:19.000Z</time>
      </trkpt>
      <trkpt lat="43.139" lon="3.07036">
        <ele>92.800003051758</ele>
        <time>2014-11-23T10:00:20.000Z</time>
      </trkpt>
      <trkpt lat="43.13898" lon="3.07041">
        <ele>92.400001525879</ele>
        <time>2014-11-23T10:00:22.000Z</time>
      </trkpt>
      <trkpt lat="43.13897" lon="3.07044">
        <ele>92</ele>
        <time>2014-11-23T10:00:23.000Z</time>
      </trkpt>
      <trkpt lat="43.13895" lon="3.07048">
        <ele>91.599998474121</ele>
        <time>2014-11-23T10:00:24.000Z</time>
      </trkpt>
      <trkpt lat="43.13893" lon="3.07051">
        <ele>91.199996948242</ele>
        <time>2014-11-23T10:00:25.000Z</time>
      </trkpt>
      <trkpt lat="43.13892" lon="3.07055">
        <ele>90.599998474121</ele>
        <time>2014-11-23T10:00:26.000Z</time>
      </trkpt>
      <trkpt lat="43.1389" lon="3.07059">
        <ele>90.199996948242</ele>
        <time>2014-11-23T10:00:27.000Z</time>
      </trkpt>
      <trkpt lat="43.13888" lon="3.07062">
        <ele>89.800003051758</ele>
        <time>2014-11-23T10:00:28.000Z</time>
      </trkpt>
      <trkpt lat="43.13886" lon="3.07065">
        <ele>89.199996948242</ele>
        <time>2014-11-23T10:00:29.000Z</time>
      </trkpt>
      <trkpt lat="43.13884" lon="3.07069">
        <ele>88.800003051758</ele>
        <time>2014-11-23T10:00:30.000Z</time>
      </trkpt>
      <trkpt lat="43.13883" lon="3.07074">
        <ele>88.199996948242</ele>
        <time>2014-11-23T10:00:31.000Z</time>
      </trkpt>
      <trkpt lat="43.1388" lon="3.07085">
        <ele>87.800003051758</ele>
        <time>2014-11-23T10:00:33.000Z</time>
      </trkpt>
      <trkpt lat="43.13879" lon="3.0709">
        <ele>87.199996948242</ele>
        <time>2014-11-23T10:00:34.000Z</time>
      </trkpt>
      <trkpt lat="43.13878" lon="3.07095">
        <ele>86.800003051758</ele>
        <time>2014-11-23T10:00:35.000Z</time>
      </trkpt>
      <trkpt lat="43.13878" lon="3.071">
        <ele>85.800003051758</ele>
        <time>2014-11-23T10:00:36.000Z</time>
      </trkpt>
      <trkpt lat="43.13877" lon="3.0711">
        <ele>85.400001525879</ele>
        <time>2014-11-23T10:00:38.000Z</time>
      </trkpt>
      <trkpt lat="43.13878" lon="3.07115">
        <ele>85</ele>
        <time>2014-11-23T10:00:39.000Z</time>
      </trkpt>
      <trkpt lat="43.13878" lon="3.0712">
        <ele>84.599998474121</ele>
        <time>2014-11-23T10:00:40.000Z</time>
      </trkpt>
      <trkpt lat="43.13878" lon="3.07125">
        <ele>84</ele>
        <time>2014-11-23T10:00:41.000Z</time>
      </trkpt>
      <trkpt lat="43.13876" lon="3.07127">
        <ele>83.599998474121</ele>
        <time>2014-11-23T10:00:42.000Z</time>
      </trkpt>
      <trkpt lat="43.13874" lon="3.07127">
        <ele>83.599998474121</ele>
        <time>2014-11-23T10:00:43.000Z</time>
      </trkpt>
      <trkpt lat="43.13869" lon="3.07119">
        <ele>83.199996948242</ele>
        <time>2014-11-23T10:00:46.000Z</time>
      </trkpt>
      <trkpt lat="43.13867" lon="3.07117">
        <ele>82.800003051758</ele>
        <time>2014-11-23T10:00:47.000Z</time>
      </trkpt>
      <trkpt lat="43.13864" lon="3.07114">
        <ele>82.400001525879</ele>
        <time>2014-11-23T10:00:48.000Z</time>
      </trkpt>
      <trkpt lat="43.13862" lon="3.07111">
        <ele>82</ele>
        <time>2014-11-23T10:00:49.000Z</time>
      </trkpt>
      <trkpt lat="43.13861" lon="3.07106">
        <ele>81.599998474121</ele>
        <time>2014-11-23T10:00:50.000Z</time>
      </trkpt>
      <trkpt lat="43.1386" lon="3.07102">
        <ele>81.599998474121</ele>
        <time>2014-11-23T10:00:51.000Z</time>
      </trkpt>
      <trkpt lat="43.13851" lon="3.07095">
        <ele>81.199996948242</ele>
        <time>2014-11-23T10:00:54.000Z</time>
      </trkpt>
      <trkpt lat="43.13849" lon="3.07092">
        <ele>80.800003051758</ele>
        <time>2014-11-23T10:00:55.000Z</time>
      </trkpt>
      <trkpt lat="43.13846" lon="3.07088">
        <ele>80.199996948242</ele>
        <time>2014-11-23T10:00:56.000Z</time>
      </trkpt>
      <trkpt lat="43.13843" lon="3.07085">
        <ele>79.800003051758</ele>
        <time>2014-11-23T10:00:57.000Z</time>
      </trkpt>
      <trkpt lat="43.1384" lon="3.07083">
        <ele>79.400001525879</ele>
        <time>2014-11-23T10:00:58.000Z</time>
      </trkpt>
      <trkpt lat="43.13834" lon="3.07079">
        <ele>79.400001525879</ele>
        <time>2014-11-23T10:01:00.000Z</time>
      </trkpt>
      <trkpt lat="43.13831" lon="3.07077">
        <ele>79</ele>
        <time>2014-11-23T10:01:01.000Z</time>
      </trkpt>
      <trkpt lat="43.13829" lon="3.07077">
        <ele>78.599998474121</ele>
        <time>2014-11-23T10:01:02.000Z</time>
      </trkpt>
      <trkpt lat="43.13827" lon="3.07076">
        <ele>78</ele>
        <time>2014-11-23T10:01:03.000Z</time>
      </trkpt>
      <trkpt lat="43.13825" lon="3.07075">
        <ele>77.599998474121</ele>
        <time>2014-11-23T10:01:04.000Z</time>
      </trkpt>
      <trkpt lat="43.13822" lon="3.07074">
        <ele>77.199996948242</ele>
        <time>2014-11-23T10:01:05.000Z</time>
      </trkpt>
      <trkpt lat="43.13821" lon="3.07072">
        <ele>77.199996948242</ele>
        <time>2014-11-23T10:01:06.000Z</time>
      </trkpt>
      <trkpt lat="43.13818" lon="3.07068">
        <ele>76.800003051758</ele>
        <time>2014-11-23T10:01:08.000Z</time>
      </trkpt>
      <trkpt lat="43.13815" lon="3.07066">
        <ele>76.400001525879</ele>
        <time>2014-11-23T10:01:09.000Z</time>
      </trkpt>
      <trkpt lat="43.13813" lon="3.07065">
        <ele>76</ele>
        <time>2014-11-23T10:01:10.000Z</time>
      </trkpt>
      <trkpt lat="43.1381" lon="3.07063">
        <ele>75.599998474121</ele>
        <time>2014-11-23T10:01:11.000Z</time>
      </trkpt>
      <trkpt lat="43.13807" lon="3.0706">
        <ele>75.199996948242</ele>
        <time>2014-11-23T10:01:12.000Z</time>
      </trkpt>
      <trkpt lat="43.13793" lon="3.07047">
        <ele>75.199996948242</ele>
        <time>2014-11-23T10:01:16.000Z</time>
      </trkpt>
      <trkpt lat="43.13768" lon="3.07021">
        <ele>75.199996948242</ele>
        <time>2014-11-23T10:01:23.000Z</time>
      </trkpt>
      <trkpt lat="43.13761" lon="3.07013">
        <ele>74.199996948242</ele>
        <time>2014-11-23T10:01:25.000Z</time>
      </trkpt>
      <trkpt lat="43.13757" lon="3.07009">
        <ele>73.599998474121</ele>
        <time>2014-11-23T10:01:26.000Z</time>
      </trkpt>
      <trkpt lat="43.13753" lon="3.07004">
        <ele>73.199996948242</ele>
        <time>2014-11-23T10:01:27.000Z</time>
      </trkpt>
      <trkpt lat="43.13748" lon="3.06999">
        <ele>72.599998474121</ele>
        <time>2014-11-23T10:01:28.000Z</time>
      </trkpt>
      <trkpt lat="43.1374" lon="3.0699">
        <ele>72.199996948242</ele>
        <time>2014-11-23T10:01:30.000Z</time>
      </trkpt>
      <trkpt lat="43.13736" lon="3.06987">
        <ele>71.800003051758</ele>
        <time>2014-11-23T10:01:31.000Z</time>
      </trkpt>
      <trkpt lat="43.13733" lon="3.06986">
        <ele>71.400001525879</ele>
        <time>2014-11-23T10:01:32.000Z</time>
      </trkpt>
      <trkpt lat="43.13731" lon="3.06986">
        <ele>71</ele>
        <time>2014-11-23T10:01:33.000Z</time>
      </trkpt>
      <trkpt lat="43.13729" lon="3.06988">
        <ele>70.599998474121</ele>
        <time>2014-11-23T10:01:34.000Z</time>
      </trkpt>
      <trkpt lat="43.13727" lon="3.06991">
        <ele>70.599998474121</ele>
        <time>2014-11-23T10:01:36.000Z</time>
      </trkpt>
      <trkpt lat="43.13729" lon="3.06997">
        <ele>70.599998474121</ele>
        <time>2014-11-23T10:01:39.000Z</time>
      </trkpt>
      <trkpt lat="43.1373" lon="3.07">
        <ele>70.599998474121</ele>
        <time>2014-11-23T10:01:40.000Z</time>
      </trkpt>
      <trkpt lat="43.1373" lon="3.07003">
        <ele>70.599998474121</ele>
        <time>2014-11-23T10:01:43.000Z</time>
      </trkpt>
      <trkpt lat="43.13729" lon="3.07006">
        <ele>68.599998474121</ele>
        <time>2014-11-23T10:02:04.000Z</time>
      </trkpt>
      <trkpt lat="43.13724" lon="3.07023">
        <ele>68.599998474121</ele>
        <time>2014-11-23T10:02:09.000Z</time>
      </trkpt>
      <trkpt lat="43.13723" lon="3.07026">
        <ele>68.599998474121</ele>
        <time>2014-11-23T10:02:10.000Z</time>
      </trkpt>
      <trkpt lat="43.13717" lon="3.07027">
        <ele>68.599998474121</ele>
        <time>2014-11-23T10:02:12.000Z</time>
      </trkpt>
      <trkpt lat="43.13711" lon="3.07028">
        <ele>69.400001525879</ele>
        <time>2014-11-23T10:02:15.000Z</time>
      </trkpt>
      <trkpt lat="43.13709" lon="3.07028">
        <ele>69.800003051758</ele>
        <time>2014-11-23T10:02:16.000Z</time>
      </trkpt>
      <trkpt lat="43.13706" lon="3.07028">
        <ele>70.199996948242</ele>
        <time>2014-11-23T10:02:17.000Z</time>
      </trkpt>
      <trkpt lat="43.13703" lon="3.07027">
        <ele>70.599998474121</ele>
        <time>2014-11-23T10:02:18.000Z</time>
      </trkpt>
      <trkpt lat="43.13695" lon="3.07023">
        <ele>70.599998474121</ele>
        <time>2014-11-23T10:02:22.000Z</time>
      </trkpt>
      <trkpt lat="43.13692" lon="3.07021">
        <ele>70.599998474121</ele>
        <time>2014-11-23T10:02:23.000Z</time>
      </trkpt>
      <trkpt lat="43.13689" lon="3.07019">
        <ele>70.599998474121</ele>
        <time>2014-11-23T10:02:24.000Z</time>
      </trkpt>
      <trkpt lat="43.13683" lon="3.07017">
        <ele>70.599998474121</ele>
        <time>2014-11-23T10:02:26.000Z</time>
      </trkpt>
      <trkpt lat="43.13676" lon="3.07009">
        <ele>70</ele>
        <time>2014-11-23T10:02:30.000Z</time>
      </trkpt>
      <trkpt lat="43.13674" lon="3.07007">
        <ele>69.599998474121</ele>
        <time>2014-11-23T10:02:31.000Z</time>
      </trkpt>
      <trkpt lat="43.1367" lon="3.07004">
        <ele>69.199996948242</ele>
        <time>2014-11-23T10:02:32.000Z</time>
      </trkpt>
      <trkpt lat="43.13667" lon="3.07003">
        <ele>68.800003051758</ele>
        <time>2014-11-23T10:02:33.000Z</time>
      </trkpt>
      <trkpt lat="43.13664" lon="3.07004">
        <ele>68.400001525879</ele>
        <time>2014-11-23T10:02:34.000Z</time>
      </trkpt>
      <trkpt lat="43.13661" lon="3.07008">
        <ele>68.400001525879</ele>
        <time>2014-11-23T10:02:36.000Z</time>
      </trkpt>
      <trkpt lat="43.13655" lon="3.07011">
        <ele>68.400001525879</ele>
        <time>2014-11-23T10:02:39.000Z</time>
      </trkpt>
      <trkpt lat="43.13652" lon="3.07012">
        <ele>68.400001525879</ele>
        <time>2014-11-23T10:02:40.000Z</time>
      </trkpt>
      <trkpt lat="43.13651" lon="3.07014">
        <ele>68.400001525879</ele>
        <time>2014-11-23T10:02:41.000Z</time>
      </trkpt>
      <trkpt lat="43.13644" lon="3.07018">
        <ele>68.400001525879</ele>
        <time>2014-11-23T10:02:44.000Z</time>
      </trkpt>
      <trkpt lat="43.13627" lon="3.07017">
        <ele>68.400001525879</ele>
        <time>2014-11-23T10:02:48.000Z</time>
      </trkpt>
      <trkpt lat="43.13607" lon="3.07023">
        <ele>68.400001525879</ele>
        <time>2014-11-23T10:02:52.000Z</time>
      </trkpt>
      <trkpt lat="43.13592" lon="3.07024">
        <ele>68</ele>
        <time>2014-11-23T10:02:55.000Z</time>
      </trkpt>
      <trkpt lat="43.13586" lon="3.07022">
        <ele>67.400001525879</ele>
        <time>2014-11-23T10:02:56.000Z</time>
      </trkpt>
      <trkpt lat="43.13579" lon="3.07019">
        <ele>67</ele>
        <time>2014-11-23T10:02:57.000Z</time>
      </trkpt>
      <trkpt lat="43.13573" lon="3.07017">
        <ele>66.400001525879</ele>
        <time>2014-11-23T10:02:58.000Z</time>
      </trkpt>
      <trkpt lat="43.13566" lon="3.07016">
        <ele>65.800003051758</ele>
        <time>2014-11-23T10:02:59.000Z</time>
      </trkpt>
      <trkpt lat="43.1356" lon="3.07015">
        <ele>65.199996948242</ele>
        <time>2014-11-23T10:03:00.000Z</time>
      </trkpt>
      <trkpt lat="43.13555" lon="3.07013">
        <ele>64.599998474121</ele>
        <time>2014-11-23T10:03:01.000Z</time>
      </trkpt>
      <trkpt lat="43.13551" lon="3.07011">
        <ele>64</ele>
        <time>2014-11-23T10:03:02.000Z</time>
      </trkpt>
      <trkpt lat="43.13547" lon="3.0701">
        <ele>64</ele>
        <time>2014-11-23T10:03:03.000Z</time>
      </trkpt>
      <trkpt lat="43.13541" lon="3.07017">
        <ele>64</ele>
        <time>2014-11-23T10:03:06.000Z</time>
      </trkpt>
      <trkpt lat="43.13538" lon="3.07025">
        <ele>64</ele>
        <time>2014-11-23T10:03:09.000Z</time>
      </trkpt>
      <trkpt lat="43.13537" lon="3.07033">
        <ele>64</ele>
        <time>2014-11-23T10:03:12.000Z</time>
      </trkpt>
      <trkpt lat="43.13536" lon="3.07047">
        <ele>64</ele>
        <time>2014-11-23T10:03:17.000Z</time>
      </trkpt>
      <trkpt lat="43.13536" lon="3.07059">
        <ele>64</ele>
        <time>2014-11-23T10:03:21.000Z</time>
      </trkpt>
      <trkpt lat="43.13535" lon="3.07078">
        <ele>64</ele>
        <time>2014-11-23T10:03:27.000Z</time>
      </trkpt>
      <trkpt lat="43.13531" lon="3.07101">
        <ele>64</ele>
        <time>2014-11-23T10:03:34.000Z</time>
      </trkpt>
      <trkpt lat="43.1353" lon="3.07112">
        <ele>64.400001525879</ele>
        <time>2014-11-23T10:03:37.000Z</time>
      </trkpt>
      <trkpt lat="43.13529" lon="3.07115">
        <ele>65</ele>
        <time>2014-11-23T10:03:38.000Z</time>
      </trkpt>
      <trkpt lat="43.13529" lon="3.07118">
        <ele>65.400001525879</ele>
        <time>2014-11-23T10:03:39.000Z</time>
      </trkpt>
      <trkpt lat="43.13529" lon="3.07121">
        <ele>65.800003051758</ele>
        <time>2014-11-23T10:03:40.000Z</time>
      </trkpt>
      <trkpt lat="43.13529" lon="3.07124">
        <ele>66.199996948242</ele>
        <time>2014-11-23T10:03:41.000Z</time>
      </trkpt>
      <trkpt lat="43.13528" lon="3.07143">
        <ele>66.199996948242</ele>
        <time>2014-11-23T10:03:47.000Z</time>
      </trkpt>
      <trkpt lat="43.13528" lon="3.0715">
        <ele>66.599998474121</ele>
        <time>2014-11-23T10:03:49.000Z</time>
      </trkpt>
      <trkpt lat="43.13528" lon="3.07154">
        <ele>67</ele>
        <time>2014-11-23T10:03:50.000Z</time>
      </trkpt>
      <trkpt lat="43.13527" lon="3.07157">
        <ele>67.400001525879</ele>
        <time>2014-11-23T10:03:51.000Z</time>
      </trkpt>
      <trkpt lat="43.13528" lon="3.07161">
        <ele>67.800003051758</ele>
        <time>2014-11-23T10:03:52.000Z</time>
      </trkpt>
      <trkpt lat="43.13528" lon="3.07165">
        <ele>68.199996948242</ele>
        <time>2014-11-23T10:03:53.000Z</time>
      </trkpt>
      <trkpt lat="43.13528" lon="3.07167">
        <ele>68.199996948242</ele>
        <time>2014-11-23T10:03:54.000Z</time>
      </trkpt>
      <trkpt lat="43.13526" lon="3.07172">
        <ele>68.199996948242</ele>
        <time>2014-11-23T10:03:56.000Z</time>
      </trkpt>
      <trkpt lat="43.13521" lon="3.07181">
        <ele>68.599998474121</ele>
        <time>2014-11-23T10:03:59.000Z</time>
      </trkpt>
      <trkpt lat="43.13519" lon="3.07184">
        <ele>69</ele>
        <time>2014-11-23T10:04:00.000Z</time>
      </trkpt>
      <trkpt lat="43.13516" lon="3.07186">
        <ele>69.400001525879</ele>
        <time>2014-11-23T10:04:01.000Z</time>
      </trkpt>
      <trkpt lat="43.13513" lon="3.07188">
        <ele>69.800003051758</ele>
        <time>2014-11-23T10:04:02.000Z</time>
      </trkpt>
      <trkpt lat="43.13509" lon="3.0719">
        <ele>70.199996948242</ele>
        <time>2014-11-23T10:04:03.000Z</time>
      </trkpt>
      <trkpt lat="43.13505" lon="3.07199">
        <ele>70.199996948242</ele>
        <time>2014-11-23T10:04:05.000Z</time>
      </trkpt>
      <trkpt lat="43.13506" lon="3.07215">
        <ele>70.199996948242</ele>
        <time>2014-11-23T10:04:09.000Z</time>
      </trkpt>
      <trkpt lat="43.13513" lon="3.0723">
        <ele>70.199996948242</ele>
        <time>2014-11-23T10:04:14.000Z</time>
      </trkpt>
      <trkpt lat="43.13512" lon="3.07241">
        <ele>70.199996948242</ele>
        <time>2014-11-23T10:04:18.000Z</time>
      </trkpt>
      <trkpt lat="43.13505" lon="3.07256">
        <ele>70.199996948242</ele>
        <time>2014-11-23T10:04:23.000Z</time>
      </trkpt>
      <trkpt lat="43.13498" lon="3.07266">
        <ele>70.199996948242</ele>
        <time>2014-11-23T10:04:27.000Z</time>
      </trkpt>
      <trkpt lat="43.13496" lon="3.07267">
        <ele>70.599998474121</ele>
        <time>2014-11-23T10:04:28.000Z</time>
      </trkpt>
      <trkpt lat="43.13496" lon="3.07269">
        <ele>71</ele>
        <time>2014-11-23T10:04:29.000Z</time>
      </trkpt>
      <trkpt lat="43.13495" lon="3.07272">
        <ele>71.599998474121</ele>
        <time>2014-11-23T10:04:30.000Z</time>
      </trkpt>
      <trkpt lat="43.13495" lon="3.07275">
        <ele>72</ele>
        <time>2014-11-23T10:04:31.000Z</time>
      </trkpt>
      <trkpt lat="43.13495" lon="3.07278">
        <ele>72.400001525879</ele>
        <time>2014-11-23T10:04:32.000Z</time>
      </trkpt>
      <trkpt lat="43.13501" lon="3.07289">
        <ele>72.400001525879</ele>
        <time>2014-11-23T10:04:36.000Z</time>
      </trkpt>
      <trkpt lat="43.13507" lon="3.07301">
        <ele>72.400001525879</ele>
        <time>2014-11-23T10:04:40.000Z</time>
      </trkpt>
      <trkpt lat="43.13507" lon="3.07304">
        <ele>72.400001525879</ele>
        <time>2014-11-23T10:04:41.000Z</time>
      </trkpt>
      <trkpt lat="43.13507" lon="3.07307">
        <ele>72.400001525879</ele>
        <time>2014-11-23T10:04:42.000Z</time>
      </trkpt>
      <trkpt lat="43.1351" lon="3.07316">
        <ele>72.800003051758</ele>
        <time>2014-11-23T10:04:45.000Z</time>
      </trkpt>
      <trkpt lat="43.13511" lon="3.07318">
        <ele>73.199996948242</ele>
        <time>2014-11-23T10:04:46.000Z</time>
      </trkpt>
      <trkpt lat="43.13511" lon="3.07321">
        <ele>73.599998474121</ele>
        <time>2014-11-23T10:04:47.000Z</time>
      </trkpt>
      <trkpt lat="43.1351" lon="3.07322">
        <ele>74</ele>
        <time>2014-11-23T10:04:48.000Z</time>
      </trkpt>
      <trkpt lat="43.13509" lon="3.07322">
        <ele>74.400001525879</ele>
        <time>2014-11-23T10:04:49.000Z</time>
      </trkpt>
      <trkpt lat="43.13507" lon="3.07322">
        <ele>74.400001525879</ele>
        <time>2014-11-23T10:04:50.000Z</time>
      </trkpt>
      <trkpt lat="43.135" lon="3.0732">
        <ele>74.400001525879</ele>
        <time>2014-11-23T10:04:53.000Z</time>
      </trkpt>
      <trkpt lat="43.13498" lon="3.07319">
        <ele>74.800003051758</ele>
        <time>2014-11-23T10:04:54.000Z</time>
      </trkpt>
      <trkpt lat="43.13497" lon="3.07319">
        <ele>75.199996948242</ele>
        <time>2014-11-23T10:04:55.000Z</time>
      </trkpt>
      <trkpt lat="43.13495" lon="3.07318">
        <ele>75.599998474121</ele>
        <time>2014-11-23T10:04:56.000Z</time>
      </trkpt>
      <trkpt lat="43.13493" lon="3.07318">
        <ele>76</ele>
        <time>2014-11-23T10:04:57.000Z</time>
      </trkpt>
      <trkpt lat="43.13492" lon="3.07318">
        <ele>76.400001525879</ele>
        <time>2014-11-23T10:04:58.000Z</time>
      </trkpt>
      <trkpt lat="43.13485" lon="3.07315">
        <ele>76.800003051758</ele>
        <time>2014-11-23T10:05:02.000Z</time>
      </trkpt>
      <trkpt lat="43.13483" lon="3.07315">
        <ele>77.199996948242</ele>
        <time>2014-11-23T10:05:03.000Z</time>
      </trkpt>
      <trkpt lat="43.13481" lon="3.07314">
        <ele>77.800003051758</ele>
        <time>2014-11-23T10:05:04.000Z</time>
      </trkpt>
      <trkpt lat="43.13479" lon="3.07314">
        <ele>78.199996948242</ele>
        <time>2014-11-23T10:05:05.000Z</time>
      </trkpt>
      <trkpt lat="43.13478" lon="3.07314">
        <ele>78.599998474121</ele>
        <time>2014-11-23T10:05:06.000Z</time>
      </trkpt>
      <trkpt lat="43.13473" lon="3.07313">
        <ele>78.599998474121</ele>
        <time>2014-11-23T10:05:08.000Z</time>
      </trkpt>
      <trkpt lat="43.13465" lon="3.07312">
        <ele>79</ele>
        <time>2014-11-23T10:05:12.000Z</time>
      </trkpt>
      <trkpt lat="43.13463" lon="3.07312">
        <ele>79.400001525879</ele>
        <time>2014-11-23T10:05:13.000Z</time>
      </trkpt>
      <trkpt lat="43.13461" lon="3.07312">
        <ele>79.800003051758</ele>
        <time>2014-11-23T10:05:14.000Z</time>
      </trkpt>
      <trkpt lat="43.13458" lon="3.07313">
        <ele>80.199996948242</ele>
        <time>2014-11-23T10:05:15.000Z</time>
      </trkpt>
      <trkpt lat="43.13456" lon="3.07313">
        <ele>80.599998474121</ele>
        <time>2014-11-23T10:05:16.000Z</time>
      </trkpt>
      <trkpt lat="43.13448" lon="3.07314">
        <ele>80.599998474121</ele>
        <time>2014-11-23T10:05:19.000Z</time>
      </trkpt>
      <trkpt lat="43.13446" lon="3.07315">
        <ele>80.599998474121</ele>
        <time>2014-11-23T10:05:20.000Z</time>
      </trkpt>
      <trkpt lat="43.13438" lon="3.07316">
        <ele>80.599998474121</ele>
        <time>2014-11-23T10:05:24.000Z</time>
      </trkpt>
      <trkpt lat="43.13436" lon="3.07317">
        <ele>80.599998474121</ele>
        <time>2014-11-23T10:05:25.000Z</time>
      </trkpt>
      <trkpt lat="43.13429" lon="3.0732">
        <ele>80.599998474121</ele>
        <time>2014-11-23T10:05:29.000Z</time>
      </trkpt>
      <trkpt lat="43.13427" lon="3.0732">
        <ele>80.599998474121</ele>
        <time>2014-11-23T10:05:30.000Z</time>
      </trkpt>
      <trkpt lat="43.13422" lon="3.07323">
        <ele>81.400001525879</ele>
        <time>2014-11-23T10:05:33.000Z</time>
      </trkpt>
      <trkpt lat="43.1342" lon="3.07325">
        <ele>81.800003051758</ele>
        <time>2014-11-23T10:05:34.000Z</time>
      </trkpt>
      <trkpt lat="43.13418" lon="3.07327">
        <ele>82.199996948242</ele>
        <time>2014-11-23T10:05:35.000Z</time>
      </trkpt>
      <trkpt lat="43.13417" lon="3.0733">
        <ele>82.599998474121</ele>
        <time>2014-11-23T10:05:36.000Z</time>
      </trkpt>
      <trkpt lat="43.13411" lon="3.0734">
        <ele>82.599998474121</ele>
        <time>2014-11-23T10:05:41.000Z</time>
      </trkpt>
      <trkpt lat="43.13408" lon="3.07344">
        <ele>83</ele>
        <time>2014-11-23T10:05:43.000Z</time>
      </trkpt>
      <trkpt lat="43.13406" lon="3.07347">
        <ele>83.400001525879</ele>
        <time>2014-11-23T10:05:44.000Z</time>
      </trkpt>
      <trkpt lat="43.13405" lon="3.07349">
        <ele>83.800003051758</ele>
        <time>2014-11-23T10:05:45.000Z</time>
      </trkpt>
      <trkpt lat="43.13404" lon="3.07351">
        <ele>84.400001525879</ele>
        <time>2014-11-23T10:05:46.000Z</time>
      </trkpt>
      <trkpt lat="43.13404" lon="3.07354">
        <ele>84.800003051758</ele>
        <time>2014-11-23T10:05:47.000Z</time>
      </trkpt>
      <trkpt lat="43.13401" lon="3.07364">
        <ele>85.199996948242</ele>
        <time>2014-11-23T10:05:51.000Z</time>
      </trkpt>
      <trkpt lat="43.134" lon="3.07367">
        <ele>85.599998474121</ele>
        <time>2014-11-23T10:05:52.000Z</time>
      </trkpt>
      <trkpt lat="43.134" lon="3.07369">
        <ele>86.199996948242</ele>
        <time>2014-11-23T10:05:53.000Z</time>
      </trkpt>
      <trkpt lat="43.134" lon="3.07371">
        <ele>86.599998474121</ele>
        <time>2014-11-23T10:05:54.000Z</time>
      </trkpt>
      <trkpt lat="43.134" lon="3.07373">
        <ele>87</ele>
        <time>2014-11-23T10:05:55.000Z</time>
      </trkpt>
      <trkpt lat="43.134" lon="3.0738">
        <ele>88</ele>
        <time>2014-11-23T10:05:58.000Z</time>
      </trkpt>
      <trkpt lat="43.13399" lon="3.07382">
        <ele>88.400001525879</ele>
        <time>2014-11-23T10:05:59.000Z</time>
      </trkpt>
      <trkpt lat="43.13399" lon="3.07384">
        <ele>89</ele>
        <time>2014-11-23T10:06:00.000Z</time>
      </trkpt>
      <trkpt lat="43.13397" lon="3.07386">
        <ele>89.400001525879</ele>
        <time>2014-11-23T10:06:01.000Z</time>
      </trkpt>
      <trkpt lat="43.13397" lon="3.07389">
        <ele>89.800003051758</ele>
        <time>2014-11-23T10:06:02.000Z</time>
      </trkpt>
      <trkpt lat="43.13396" lon="3.0739">
        <ele>90.400001525879</ele>
        <time>2014-11-23T10:06:03.000Z</time>
      </trkpt>
      <trkpt lat="43.13393" lon="3.07402">
        <ele>91.800003051758</ele>
        <time>2014-11-23T10:07:15.000Z</time>
      </trkpt>
      <trkpt lat="43.13393" lon="3.07404">
        <ele>92.199996948242</ele>
        <time>2014-11-23T10:07:16.000Z</time>
      </trkpt>
      <trkpt lat="43.13393" lon="3.07406">
        <ele>92.599998474121</ele>
        <time>2014-11-23T10:07:17.000Z</time>
      </trkpt>
      <trkpt lat="43.13393" lon="3.07407">
        <ele>93</ele>
        <time>2014-11-23T10:07:18.000Z</time>
      </trkpt>
      <trkpt lat="43.13384" lon="3.07435">
        <ele>95.800003051758</ele>
        <time>2014-11-23T10:08:19.000Z</time>
      </trkpt>
      <trkpt lat="43.13382" lon="3.07442">
        <ele>95.800003051758</ele>
        <time>2014-11-23T10:08:22.000Z</time>
      </trkpt>
      <trkpt lat="43.13382" lon="3.07446">
        <ele>96.400001525879</ele>
        <time>2014-11-23T10:08:23.000Z</time>
      </trkpt>
      <trkpt lat="43.13382" lon="3.07449">
        <ele>96.800003051758</ele>
        <time>2014-11-23T10:08:24.000Z</time>
      </trkpt>
      <trkpt lat="43.13381" lon="3.07451">
        <ele>97.199996948242</ele>
        <time>2014-11-23T10:08:25.000Z</time>
      </trkpt>
      <trkpt lat="43.1338" lon="3.07454">
        <ele>98.199996948242</ele>
        <time>2014-11-23T10:08:26.000Z</time>
      </trkpt>
      <trkpt lat="43.13379" lon="3.07457">
        <ele>98.599998474121</ele>
        <time>2014-11-23T10:08:27.000Z</time>
      </trkpt>
      <trkpt lat="43.13378" lon="3.0746">
        <ele>99</ele>
        <time>2014-11-23T10:08:28.000Z</time>
      </trkpt>
      <trkpt lat="43.13377" lon="3.07463">
        <ele>99.599998474121</ele>
        <time>2014-11-23T10:08:29.000Z</time>
      </trkpt>
      <trkpt lat="43.13377" lon="3.07466">
        <ele>100</ele>
        <time>2014-11-23T10:08:30.000Z</time>
      </trkpt>
      <trkpt lat="43.13376" lon="3.0747">
        <ele>100.40000152588</ele>
        <time>2014-11-23T10:08:31.000Z</time>
      </trkpt>
      <trkpt lat="43.13376" lon="3.07473">
        <ele>100.80000305176</ele>
        <time>2014-11-23T10:08:32.000Z</time>
      </trkpt>
      <trkpt lat="43.13375" lon="3.07476">
        <ele>101.19999694824</ele>
        <time>2014-11-23T10:08:33.000Z</time>
      </trkpt>
      <trkpt lat="43.13375" lon="3.07477">
        <ele>101.59999847412</ele>
        <time>2014-11-23T10:08:34.000Z</time>
      </trkpt>
      <trkpt lat="43.13368" lon="3.07492">
        <ele>102.40000152588</ele>
        <time>2014-11-23T10:09:27.000Z</time>
      </trkpt>
      <trkpt lat="43.13367" lon="3.07492">
        <ele>102.40000152588</ele>
        <time>2014-11-23T10:09:28.000Z</time>
      </trkpt>
      <trkpt lat="43.13363" lon="3.07495">
        <ele>102.80000305176</ele>
        <time>2014-11-23T10:09:32.000Z</time>
      </trkpt>
      <trkpt lat="43.13363" lon="3.07495">
        <ele>103.19999694824</ele>
        <time>2014-11-23T10:09:33.000Z</time>
      </trkpt>
      <trkpt lat="43.13362" lon="3.07495">
        <ele>103.59999847412</ele>
        <time>2014-11-23T10:09:34.000Z</time>
      </trkpt>
      <trkpt lat="43.13361" lon="3.07496">
        <ele>104.19999694824</ele>
        <time>2014-11-23T10:09:35.000Z</time>
      </trkpt>
      <trkpt lat="43.1336" lon="3.07496">
        <ele>104.59999847412</ele>
        <time>2014-11-23T10:09:36.000Z</time>
      </trkpt>
      <trkpt lat="43.13357" lon="3.07494">
        <ele>104.59999847412</ele>
        <time>2014-11-23T10:09:39.000Z</time>
      </trkpt>
      <trkpt lat="43.13355" lon="3.07493">
        <ele>104.59999847412</ele>
        <time>2014-11-23T10:09:41.000Z</time>
      </trkpt>
      <trkpt lat="43.13349" lon="3.07493">
        <ele>104.59999847412</ele>
        <time>2014-11-23T10:09:46.000Z</time>
      </trkpt>
      <trkpt lat="43.13345" lon="3.07496">
        <ele>106.59999847412</ele>
        <time>2014-11-23T10:17:55.000Z</time>
      </trkpt>
      <trkpt lat="43.13344" lon="3.07495">
        <ele>106.59999847412</ele>
        <time>2014-11-23T10:17:56.000Z</time>
      </trkpt>
      <trkpt lat="43.13336" lon="3.07493">
        <ele>106.59999847412</ele>
        <time>2014-11-23T10:18:03.000Z</time>
      </trkpt>
      <trkpt lat="43.13334" lon="3.07492">
        <ele>107</ele>
        <time>2014-11-23T10:18:05.000Z</time>
      </trkpt>
      <trkpt lat="43.13333" lon="3.07492">
        <ele>107.40000152588</ele>
        <time>2014-11-23T10:18:06.000Z</time>
      </trkpt>
      <trkpt lat="43.13332" lon="3.07492">
        <ele>107.80000305176</ele>
        <time>2014-11-23T10:18:07.000Z</time>
      </trkpt>
      <trkpt lat="43.13331" lon="3.07492">
        <ele>108.59999847412</ele>
        <time>2014-11-23T10:18:08.000Z</time>
      </trkpt>
      <trkpt lat="43.13328" lon="3.07492">
        <ele>108.59999847412</ele>
        <time>2014-11-23T10:18:12.000Z</time>
      </trkpt>
      <trkpt lat="43.13328" lon="3.07492">
        <ele>108.59999847412</ele>
        <time>2014-11-23T10:18:13.000Z</time>
      </trkpt>
      <trkpt lat="43.13325" lon="3.07491">
        <ele>108.59999847412</ele>
        <time>2014-11-23T10:18:38.000Z</time>
      </trkpt>
      <trkpt lat="43.13322" lon="3.0749">
        <ele>108.59999847412</ele>
        <time>2014-11-23T10:18:40.000Z</time>
      </trkpt>
      <trkpt lat="43.13309" lon="3.07486">
        <ele>109</ele>
        <time>2014-11-23T10:18:46.000Z</time>
      </trkpt>
      <trkpt lat="43.13307" lon="3.07485">
        <ele>109.40000152588</ele>
        <time>2014-11-23T10:18:47.000Z</time>
      </trkpt>
      <trkpt lat="43.13305" lon="3.07485">
        <ele>109.80000305176</ele>
        <time>2014-11-23T10:18:48.000Z</time>
      </trkpt>
      <trkpt lat="43.13302" lon="3.07484">
        <ele>110.19999694824</ele>
        <time>2014-11-23T10:18:49.000Z</time>
      </trkpt>
      <trkpt lat="43.133" lon="3.07484">
        <ele>110.59999847412</ele>
        <time>2014-11-23T10:18:50.000Z</time>
      </trkpt>
      <trkpt lat="43.13295" lon="3.07483">
        <ele>110.59999847412</ele>
        <time>2014-11-23T10:18:53.000Z</time>
      </trkpt>
      <trkpt lat="43.13287" lon="3.07481">
        <ele>111.19999694824</ele>
        <time>2014-11-23T10:18:56.000Z</time>
      </trkpt>
      <trkpt lat="43.13285" lon="3.0748">
        <ele>111.59999847412</ele>
        <time>2014-11-23T10:18:57.000Z</time>
      </trkpt>
      <trkpt lat="43.13283" lon="3.07479">
        <ele>112.59999847412</ele>
        <time>2014-11-23T10:18:58.000Z</time>
      </trkpt>
      <trkpt lat="43.13281" lon="3.07479">
        <ele>113</ele>
        <time>2014-11-23T10:18:59.000Z</time>
      </trkpt>
      <trkpt lat="43.13277" lon="3.07477">
        <ele>113</ele>
        <time>2014-11-23T10:19:01.000Z</time>
      </trkpt>
      <trkpt lat="43.13273" lon="3.07475">
        <ele>113.40000152588</ele>
        <time>2014-11-23T10:19:03.000Z</time>
      </trkpt>
      <trkpt lat="43.1327" lon="3.07474">
        <ele>113.80000305176</ele>
        <time>2014-11-23T10:19:04.000Z</time>
      </trkpt>
      <trkpt lat="43.13268" lon="3.07473">
        <ele>114.19999694824</ele>
        <time>2014-11-23T10:19:05.000Z</time>
      </trkpt>
      <trkpt lat="43.13265" lon="3.07472">
        <ele>114.80000305176</ele>
        <time>2014-11-23T10:19:06.000Z</time>
      </trkpt>
      <trkpt lat="43.13263" lon="3.07471">
        <ele>115.19999694824</ele>
        <time>2014-11-23T10:19:07.000Z</time>
      </trkpt>
      <trkpt lat="43.13252" lon="3.07469">
        <ele>115.59999847412</ele>
        <time>2014-11-23T10:19:12.000Z</time>
      </trkpt>
      <trkpt lat="43.1325" lon="3.07469">
        <ele>116</ele>
        <time>2014-11-23T10:19:13.000Z</time>
      </trkpt>
      <trkpt lat="43.13249" lon="3.0747">
        <ele>116.40000152588</ele>
        <time>2014-11-23T10:19:14.000Z</time>
      </trkpt>
      <trkpt lat="43.13247" lon="3.0747">
        <ele>116.80000305176</ele>
        <time>2014-11-23T10:19:15.000Z</time>
      </trkpt>
      <trkpt lat="43.13245" lon="3.07471">
        <ele>117.19999694824</ele>
        <time>2014-11-23T10:19:16.000Z</time>
      </trkpt>
      <trkpt lat="43.13242" lon="3.07474">
        <ele>117.19999694824</ele>
        <time>2014-11-23T10:19:19.000Z</time>
      </trkpt>
      <trkpt lat="43.13239" lon="3.07475">
        <ele>117.19999694824</ele>
        <time>2014-11-23T10:19:58.000Z</time>
      </trkpt>
      <trkpt lat="43.13233" lon="3.07479">
        <ele>117.19999694824</ele>
        <time>2014-11-23T10:20:01.000Z</time>
      </trkpt>
      <trkpt lat="43.13226" lon="3.07484">
        <ele>116.80000305176</ele>
        <time>2014-11-23T10:20:04.000Z</time>
      </trkpt>
      <trkpt lat="43.13224" lon="3.07486">
        <ele>116.40000152588</ele>
        <time>2014-11-23T10:20:05.000Z</time>
      </trkpt>
      <trkpt lat="43.13223" lon="3.0749">
        <ele>115.80000305176</ele>
        <time>2014-11-23T10:20:06.000Z</time>
      </trkpt>
      <trkpt lat="43.13221" lon="3.07494">
        <ele>115.40000152588</ele>
        <time>2014-11-23T10:20:07.000Z</time>
      </trkpt>
      <trkpt lat="43.13219" lon="3.07499">
        <ele>114.80000305176</ele>
        <time>2014-11-23T10:20:08.000Z</time>
      </trkpt>
      <trkpt lat="43.13217" lon="3.07503">
        <ele>114.19999694824</ele>
        <time>2014-11-23T10:20:09.000Z</time>
      </trkpt>
      <trkpt lat="43.13216" lon="3.07507">
        <ele>113.40000152588</ele>
        <time>2014-11-23T10:20:10.000Z</time>
      </trkpt>
      <trkpt lat="43.13214" lon="3.07511">
        <ele>112.80000305176</ele>
        <time>2014-11-23T10:20:11.000Z</time>
      </trkpt>
      <trkpt lat="43.13213" lon="3.07514">
        <ele>111.80000305176</ele>
        <time>2014-11-23T10:20:12.000Z</time>
      </trkpt>
      <trkpt lat="43.13211" lon="3.07517">
        <ele>111.19999694824</ele>
        <time>2014-11-23T10:20:13.000Z</time>
      </trkpt>
      <trkpt lat="43.13209" lon="3.0752">
        <ele>110.80000305176</ele>
        <time>2014-11-23T10:20:14.000Z</time>
      </trkpt>
      <trkpt lat="43.13206" lon="3.07523">
        <ele>110.19999694824</ele>
        <time>2014-11-23T10:20:15.000Z</time>
      </trkpt>
      <trkpt lat="43.13204" lon="3.07527">
        <ele>109.40000152588</ele>
        <time>2014-11-23T10:20:16.000Z</time>
      </trkpt>
      <trkpt lat="43.13202" lon="3.07531">
        <ele>108.80000305176</ele>
        <time>2014-11-23T10:20:17.000Z</time>
      </trkpt>
      <trkpt lat="43.132" lon="3.07534">
        <ele>108</ele>
        <time>2014-11-23T10:20:18.000Z</time>
      </trkpt>
      <trkpt lat="43.13199" lon="3.07537">
        <ele>107.40000152588</ele>
        <time>2014-11-23T10:20:19.000Z</time>
      </trkpt>
      <trkpt lat="43.13198" lon="3.07541">
        <ele>106.59999847412</ele>
        <time>2014-11-23T10:20:20.000Z</time>
      </trkpt>
      <trkpt lat="43.13196" lon="3.07544">
        <ele>105.80000305176</ele>
        <time>2014-11-23T10:20:21.000Z</time>
      </trkpt>
      <trkpt lat="43.13194" lon="3.07547">
        <ele>105.19999694824</ele>
        <time>2014-11-23T10:20:22.000Z</time>
      </trkpt>
      <trkpt lat="43.13192" lon="3.07549">
        <ele>104.59999847412</ele>
        <time>2014-11-23T10:20:23.000Z</time>
      </trkpt>
      <trkpt lat="43.1319" lon="3.0755">
        <ele>103.80000305176</ele>
        <time>2014-11-23T10:20:24.000Z</time>
      </trkpt>
      <trkpt lat="43.13188" lon="3.07551">
        <ele>103</ele>
        <time>2014-11-23T10:20:25.000Z</time>
      </trkpt>
      <trkpt lat="43.13186" lon="3.07551">
        <ele>102.19999694824</ele>
        <time>2014-11-23T10:20:26.000Z</time>
      </trkpt>
      <trkpt lat="43.13184" lon="3.07551">
        <ele>101.40000152588</ele>
        <time>2014-11-23T10:20:27.000Z</time>
      </trkpt>
      <trkpt lat="43.13182" lon="3.07551">
        <ele>100.59999847412</ele>
        <time>2014-11-23T10:20:28.000Z</time>
      </trkpt>
      <trkpt lat="43.1318" lon="3.07551">
        <ele>99.800003051758</ele>
        <time>2014-11-23T10:20:29.000Z</time>
      </trkpt>
      <trkpt lat="43.13178" lon="3.07551">
        <ele>99.400001525879</ele>
        <time>2014-11-23T10:20:30.000Z</time>
      </trkpt>
      <trkpt lat="43.13175" lon="3.0755">
        <ele>99</ele>
        <time>2014-11-23T10:20:31.000Z</time>
      </trkpt>
      <trkpt lat="43.13173" lon="3.07549">
        <ele>98.400001525879</ele>
        <time>2014-11-23T10:20:32.000Z</time>
      </trkpt>
      <trkpt lat="43.13171" lon="3.07547">
        <ele>98</ele>
        <time>2014-11-23T10:20:33.000Z</time>
      </trkpt>
      <trkpt lat="43.13168" lon="3.07544">
        <ele>97.199996948242</ele>
        <time>2014-11-23T10:20:34.000Z</time>
      </trkpt>
      <trkpt lat="43.13162" lon="3.07541">
        <ele>96.599998474121</ele>
        <time>2014-11-23T10:20:35.000Z</time>
      </trkpt>
      <trkpt lat="43.13156" lon="3.07539">
        <ele>96</ele>
        <time>2014-11-23T10:20:36.000Z</time>
      </trkpt>
      <trkpt lat="43.13148" lon="3.07536">
        <ele>94.400001525879</ele>
        <time>2014-11-23T10:20:37.000Z</time>
      </trkpt>
      <trkpt lat="43.13141" lon="3.07533">
        <ele>93.199996948242</ele>
        <time>2014-11-23T10:20:38.000Z</time>
      </trkpt>
      <trkpt lat="43.13132" lon="3.07529">
        <ele>92.199996948242</ele>
        <time>2014-11-23T10:20:39.000Z</time>
      </trkpt>
      <trkpt lat="43.13124" lon="3.07526">
        <ele>91</ele>
        <time>2014-11-23T10:20:40.000Z</time>
      </trkpt>
      <trkpt lat="43.13116" lon="3.07523">
        <ele>90</ele>
        <time>2014-11-23T10:20:41.000Z</time>
      </trkpt>
      <trkpt lat="43.13108" lon="3.07521">
        <ele>88.800003051758</ele>
        <time>2014-11-23T10:20:42.000Z</time>
      </trkpt>
      <trkpt lat="43.131" lon="3.07519">
        <ele>87.800003051758</ele>
        <time>2014-11-23T10:20:43.000Z</time>
      </trkpt>
      <trkpt lat="43.13093" lon="3.07516">
        <ele>87</ele>
        <time>2014-11-23T10:20:44.000Z</time>
      </trkpt>
      <trkpt lat="43.13086" lon="3.07514">
        <ele>86.199996948242</ele>
        <time>2014-11-23T10:20:45.000Z</time>
      </trkpt>
      <trkpt lat="43.13078" lon="3.07511">
        <ele>85.400001525879</ele>
        <time>2014-11-23T10:20:46.000Z</time>
      </trkpt>
      <trkpt lat="43.13072" lon="3.07507">
        <ele>84.599998474121</ele>
        <time>2014-11-23T10:20:47.000Z</time>
      </trkpt>
      <trkpt lat="43.13065" lon="3.07505">
        <ele>83.800003051758</ele>
        <time>2014-11-23T10:20:48.000Z</time>
      </trkpt>
      <trkpt lat="43.1306" lon="3.07503">
        <ele>83</ele>
        <time>2014-11-23T10:20:49.000Z</time>
      </trkpt>
      <trkpt lat="43.13056" lon="3.075">
        <ele>82.199996948242</ele>
        <time>2014-11-23T10:20:50.000Z</time>
      </trkpt>
      <trkpt lat="43.13052" lon="3.07498">
        <ele>81.599998474121</ele>
        <time>2014-11-23T10:20:51.000Z</time>
      </trkpt>
      <trkpt lat="43.13048" lon="3.07499">
        <ele>81</ele>
        <time>2014-11-23T10:20:52.000Z</time>
      </trkpt>
      <trkpt lat="43.13043" lon="3.07501">
        <ele>80.400001525879</ele>
        <time>2014-11-23T10:20:53.000Z</time>
      </trkpt>
      <trkpt lat="43.13038" lon="3.07501">
        <ele>79.800003051758</ele>
        <time>2014-11-23T10:20:54.000Z</time>
      </trkpt>
      <trkpt lat="43.13036" lon="3.07501">
        <ele>79.199996948242</ele>
        <time>2014-11-23T10:20:55.000Z</time>
      </trkpt>
      <trkpt lat="43.13035" lon="3.07501">
        <ele>78.599998474121</ele>
        <time>2014-11-23T10:20:56.000Z</time>
      </trkpt>
      <trkpt lat="43.13034" lon="3.07498">
        <ele>78</ele>
        <time>2014-11-23T10:20:57.000Z</time>
      </trkpt>
      <trkpt lat="43.13035" lon="3.07496">
        <ele>77.400001525879</ele>
        <time>2014-11-23T10:20:58.000Z</time>
      </trkpt>
      <trkpt lat="43.13036" lon="3.07494">
        <ele>76.800003051758</ele>
        <time>2014-11-23T10:20:59.000Z</time>
      </trkpt>
      <trkpt lat="43.13037" lon="3.07491">
        <ele>76.800003051758</ele>
        <time>2014-11-23T10:21:00.000Z</time>
      </trkpt>
      <trkpt lat="43.13042" lon="3.07479">
        <ele>76.800003051758</ele>
        <time>2014-11-23T10:21:05.000Z</time>
      </trkpt>
      <trkpt lat="43.13044" lon="3.07475">
        <ele>76.800003051758</ele>
        <time>2014-11-23T10:21:07.000Z</time>
      </trkpt>
      <trkpt lat="43.13041" lon="3.07474">
        <ele>76.800003051758</ele>
        <time>2014-11-23T10:21:09.000Z</time>
      </trkpt>
      <trkpt lat="43.1304" lon="3.07487">
        <ele>76.800003051758</ele>
        <time>2014-11-23T10:21:13.000Z</time>
      </trkpt>
      <trkpt lat="43.13035" lon="3.07501">
        <ele>76.800003051758</ele>
        <time>2014-11-23T10:21:17.000Z</time>
      </trkpt>
      <trkpt lat="43.13016" lon="3.07524">
        <ele>76.800003051758</ele>
        <time>2014-11-23T10:21:24.000Z</time>
      </trkpt>
      <trkpt lat="43.13003" lon="3.07546">
        <ele>76.800003051758</ele>
        <time>2014-11-23T10:21:30.000Z</time>
      </trkpt>
      <trkpt lat="43.12993" lon="3.07581">
        <ele>76.800003051758</ele>
        <time>2014-11-23T10:21:37.000Z</time>
      </trkpt>
      <trkpt lat="43.12993" lon="3.07585">
        <ele>76.800003051758</ele>
        <time>2014-11-23T10:21:38.000Z</time>
      </trkpt>
      <trkpt lat="43.12993" lon="3.07585">
        <ele>76.800003051758</ele>
        <time>2014-11-23T10:21:40.000Z</time>
      </trkpt>
      <trkpt lat="43.12997" lon="3.0757">
        <ele>76.800003051758</ele>
        <time>2014-11-23T10:21:46.000Z</time>
      </trkpt>
      <trkpt lat="43.13" lon="3.07556">
        <ele>76.800003051758</ele>
        <time>2014-11-23T10:21:52.000Z</time>
      </trkpt>
      <trkpt lat="43.12997" lon="3.07556">
        <ele>76.800003051758</ele>
        <time>2014-11-23T10:21:55.000Z</time>
      </trkpt>
      <trkpt lat="43.12997" lon="3.07571">
        <ele>76.800003051758</ele>
        <time>2014-11-23T10:22:01.000Z</time>
      </trkpt>
      <trkpt lat="43.12991" lon="3.07593">
        <ele>76.800003051758</ele>
        <time>2014-11-23T10:22:07.000Z</time>
      </trkpt>
      <trkpt lat="43.12985" lon="3.0762">
        <ele>76.800003051758</ele>
        <time>2014-11-23T10:22:13.000Z</time>
      </trkpt>
      <trkpt lat="43.12983" lon="3.07641">
        <ele>76.800003051758</ele>
        <time>2014-11-23T10:22:18.000Z</time>
      </trkpt>
      <trkpt lat="43.12987" lon="3.07661">
        <ele>76.800003051758</ele>
        <time>2014-11-23T10:22:24.000Z</time>
      </trkpt>
      <trkpt lat="43.12987" lon="3.0768">
        <ele>77.199996948242</ele>
        <time>2014-11-23T10:22:29.000Z</time>
      </trkpt>
      <trkpt lat="43.12987" lon="3.07685">
        <ele>77.800003051758</ele>
        <time>2014-11-23T10:22:30.000Z</time>
      </trkpt>
      <trkpt lat="43.12987" lon="3.07689">
        <ele>78.199996948242</ele>
        <time>2014-11-23T10:22:31.000Z</time>
      </trkpt>
      <trkpt lat="43.12987" lon="3.07694">
        <ele>78.599998474121</ele>
        <time>2014-11-23T10:22:32.000Z</time>
      </trkpt>
      <trkpt lat="43.12987" lon="3.07698">
        <ele>79.199996948242</ele>
        <time>2014-11-23T10:22:33.000Z</time>
      </trkpt>
      <trkpt lat="43.12987" lon="3.07713">
        <ele>79.199996948242</ele>
        <time>2014-11-23T10:22:36.000Z</time>
      </trkpt>
      <trkpt lat="43.12986" lon="3.07735">
        <ele>79.199996948242</ele>
        <time>2014-11-23T10:22:41.000Z</time>
      </trkpt>
      <trkpt lat="43.12986" lon="3.07736">
        <ele>79.199996948242</ele>
        <time>2014-11-23T10:22:42.000Z</time>
      </trkpt>
      <trkpt lat="43.12988" lon="3.07734">
        <ele>79.199996948242</ele>
        <time>2014-11-23T10:22:44.000Z</time>
      </trkpt>
      <trkpt lat="43.12982" lon="3.07727">
        <ele>79.199996948242</ele>
        <time>2014-11-23T10:22:48.000Z</time>
      </trkpt>
      <trkpt lat="43.12969" lon="3.07722">
        <ele>79.199996948242</ele>
        <time>2014-11-23T10:22:54.000Z</time>
      </trkpt>
      <trkpt lat="43.12961" lon="3.0772">
        <ele>78.599998474121</ele>
        <time>2014-11-23T10:22:57.000Z</time>
      </trkpt>
      <trkpt lat="43.12959" lon="3.07719">
        <ele>78.199996948242</ele>
        <time>2014-11-23T10:22:58.000Z</time>
      </trkpt>
      <trkpt lat="43.12956" lon="3.07718">
        <ele>77.800003051758</ele>
        <time>2014-11-23T10:22:59.000Z</time>
      </trkpt>
      <trkpt lat="43.12952" lon="3.07716">
        <ele>77.199996948242</ele>
        <time>2014-11-23T10:23:00.000Z</time>
      </trkpt>
      <trkpt lat="43.12949" lon="3.07715">
        <ele>76.599998474121</ele>
        <time>2014-11-23T10:23:01.000Z</time>
      </trkpt>
      <trkpt lat="43.12947" lon="3.07714">
        <ele>75.800003051758</ele>
        <time>2014-11-23T10:23:02.000Z</time>
      </trkpt>
      <trkpt lat="43.12945" lon="3.07712">
        <ele>75.199996948242</ele>
        <time>2014-11-23T10:23:03.000Z</time>
      </trkpt>
      <trkpt lat="43.12943" lon="3.0771">
        <ele>74.599998474121</ele>
        <time>2014-11-23T10:23:04.000Z</time>
      </trkpt>
      <trkpt lat="43.12941" lon="3.07708">
        <ele>74.599998474121</ele>
        <time>2014-11-23T10:23:05.000Z</time>
      </trkpt>
      <trkpt lat="43.12937" lon="3.07707">
        <ele>74.599998474121</ele>
        <time>2014-11-23T10:23:07.000Z</time>
      </trkpt>
      <trkpt lat="43.12931" lon="3.07702">
        <ele>75</ele>
        <time>2014-11-23T10:23:10.000Z</time>
      </trkpt>
      <trkpt lat="43.12929" lon="3.07701">
        <ele>75.599998474121</ele>
        <time>2014-11-23T10:23:11.000Z</time>
      </trkpt>
      <trkpt lat="43.12927" lon="3.07701">
        <ele>76</ele>
        <time>2014-11-23T10:23:12.000Z</time>
      </trkpt>
      <trkpt lat="43.12925" lon="3.07701">
        <ele>76.400001525879</ele>
        <time>2014-11-23T10:23:13.000Z</time>
      </trkpt>
      <trkpt lat="43.12924" lon="3.07701">
        <ele>76.800003051758</ele>
        <time>2014-11-23T10:23:14.000Z</time>
      </trkpt>
      <trkpt lat="43.1292" lon="3.07699">
        <ele>76.800003051758</ele>
        <time>2014-11-23T10:23:17.000Z</time>
      </trkpt>
      <trkpt lat="43.12919" lon="3.07699">
        <ele>76.800003051758</ele>
        <time>2014-11-23T10:23:18.000Z</time>
      </trkpt>
      <trkpt lat="43.12918" lon="3.07698">
        <ele>76.800003051758</ele>
        <time>2014-11-23T10:23:19.000Z</time>
      </trkpt>
      <trkpt lat="43.12916" lon="3.07697">
        <ele>76.800003051758</ele>
        <time>2014-11-23T10:23:22.000Z</time>
      </trkpt>
      <trkpt lat="43.12912" lon="3.07695">
        <ele>76.800003051758</ele>
        <time>2014-11-23T10:23:24.000Z</time>
      </trkpt>
      <trkpt lat="43.12898" lon="3.07687">
        <ele>76.800003051758</ele>
        <time>2014-11-23T10:23:29.000Z</time>
      </trkpt>
      <trkpt lat="43.12888" lon="3.07685">
        <ele>76.400001525879</ele>
        <time>2014-11-23T10:23:32.000Z</time>
      </trkpt>
      <trkpt lat="43.12885" lon="3.07684">
        <ele>75.800003051758</ele>
        <time>2014-11-23T10:23:33.000Z</time>
      </trkpt>
      <trkpt lat="43.12883" lon="3.07684">
        <ele>75.400001525879</ele>
        <time>2014-11-23T10:23:34.000Z</time>
      </trkpt>
      <trkpt lat="43.12882" lon="3.07684">
        <ele>75</ele>
        <time>2014-11-23T10:23:35.000Z</time>
      </trkpt>
      <trkpt lat="43.12879" lon="3.07683">
        <ele>74.400001525879</ele>
        <time>2014-11-23T10:23:36.000Z</time>
      </trkpt>
      <trkpt lat="43.12876" lon="3.07682">
        <ele>73.800003051758</ele>
        <time>2014-11-23T10:23:37.000Z</time>
      </trkpt>
      <trkpt lat="43.12874" lon="3.07681">
        <ele>73.199996948242</ele>
        <time>2014-11-23T10:23:38.000Z</time>
      </trkpt>
      <trkpt lat="43.12871" lon="3.07679">
        <ele>72.599998474121</ele>
        <time>2014-11-23T10:23:39.000Z</time>
      </trkpt>
      <trkpt lat="43.12868" lon="3.07679">
        <ele>72</ele>
        <time>2014-11-23T10:23:40.000Z</time>
      </trkpt>
      <trkpt lat="43.12866" lon="3.07678">
        <ele>71.400001525879</ele>
        <time>2014-11-23T10:23:41.000Z</time>
      </trkpt>
      <trkpt lat="43.12863" lon="3.07677">
        <ele>70.800003051758</ele>
        <time>2014-11-23T10:23:42.000Z</time>
      </trkpt>
      <trkpt lat="43.1286" lon="3.07675">
        <ele>70.199996948242</ele>
        <time>2014-11-23T10:23:43.000Z</time>
      </trkpt>
      <trkpt lat="43.12857" lon="3.07674">
        <ele>69.400001525879</ele>
        <time>2014-11-23T10:23:44.000Z</time>
      </trkpt>
      <trkpt lat="43.12855" lon="3.07672">
        <ele>68.800003051758</ele>
        <time>2014-11-23T10:23:45.000Z</time>
      </trkpt>
      <trkpt lat="43.12853" lon="3.07671">
        <ele>68.199996948242</ele>
        <time>2014-11-23T10:23:46.000Z</time>
      </trkpt>
      <trkpt lat="43.1285" lon="3.0767">
        <ele>67.400001525879</ele>
        <time>2014-11-23T10:23:47.000Z</time>
      </trkpt>
      <trkpt lat="43.12848" lon="3.07669">
        <ele>66.800003051758</ele>
        <time>2014-11-23T10:23:48.000Z</time>
      </trkpt>
      <trkpt lat="43.12846" lon="3.07668">
        <ele>66.199996948242</ele>
        <time>2014-11-23T10:23:49.000Z</time>
      </trkpt>
      <trkpt lat="43.12844" lon="3.07667">
        <ele>65.599998474121</ele>
        <time>2014-11-23T10:23:50.000Z</time>
      </trkpt>
      <trkpt lat="43.12843" lon="3.07664">
        <ele>65</ele>
        <time>2014-11-23T10:23:51.000Z</time>
      </trkpt>
      <trkpt lat="43.12841" lon="3.07662">
        <ele>64.400001525879</ele>
        <time>2014-11-23T10:23:52.000Z</time>
      </trkpt>
      <trkpt lat="43.12838" lon="3.0766">
        <ele>63.799999237061</ele>
        <time>2014-11-23T10:23:53.000Z</time>
      </trkpt>
      <trkpt lat="43.12835" lon="3.07658">
        <ele>62.599998474121</ele>
        <time>2014-11-23T10:23:54.000Z</time>
      </trkpt>
      <trkpt lat="43.12832" lon="3.07655">
        <ele>62</ele>
        <time>2014-11-23T10:23:55.000Z</time>
      </trkpt>
      <trkpt lat="43.12829" lon="3.07653">
        <ele>61.599998474121</ele>
        <time>2014-11-23T10:23:56.000Z</time>
      </trkpt>
      <trkpt lat="43.12827" lon="3.0765">
        <ele>61</ele>
        <time>2014-11-23T10:23:57.000Z</time>
      </trkpt>
      <trkpt lat="43.12824" lon="3.07648">
        <ele>60.599998474121</ele>
        <time>2014-11-23T10:23:58.000Z</time>
      </trkpt>
      <trkpt lat="43.12821" lon="3.07647">
        <ele>60</ele>
        <time>2014-11-23T10:23:59.000Z</time>
      </trkpt>
      <trkpt lat="43.12818" lon="3.07645">
        <ele>59.599998474121</ele>
        <time>2014-11-23T10:24:00.000Z</time>
      </trkpt>
      <trkpt lat="43.12816" lon="3.07642">
        <ele>59</ele>
        <time>2014-11-23T10:24:01.000Z</time>
      </trkpt>
      <trkpt lat="43.12814" lon="3.07638">
        <ele>58.599998474121</ele>
        <time>2014-11-23T10:24:02.000Z</time>
      </trkpt>
      <trkpt lat="43.12813" lon="3.07634">
        <ele>58</ele>
        <time>2014-11-23T10:24:03.000Z</time>
      </trkpt>
      <trkpt lat="43.12812" lon="3.0763">
        <ele>57.599998474121</ele>
        <time>2014-11-23T10:24:04.000Z</time>
      </trkpt>
      <trkpt lat="43.12812" lon="3.07626">
        <ele>57</ele>
        <time>2014-11-23T10:24:05.000Z</time>
      </trkpt>
      <trkpt lat="43.12812" lon="3.07621">
        <ele>56.599998474121</ele>
        <time>2014-11-23T10:24:06.000Z</time>
      </trkpt>
      <trkpt lat="43.12813" lon="3.07616">
        <ele>56</ele>
        <time>2014-11-23T10:24:07.000Z</time>
      </trkpt>
      <trkpt lat="43.12814" lon="3.07611">
        <ele>55.599998474121</ele>
        <time>2014-11-23T10:24:08.000Z</time>
      </trkpt>
      <trkpt lat="43.12814" lon="3.07606">
        <ele>55</ele>
        <time>2014-11-23T10:24:09.000Z</time>
      </trkpt>
      <trkpt lat="43.12814" lon="3.07601">
        <ele>54.400001525879</ele>
        <time>2014-11-23T10:24:10.000Z</time>
      </trkpt>
      <trkpt lat="43.12813" lon="3.07596">
        <ele>53.799999237061</ele>
        <time>2014-11-23T10:24:11.000Z</time>
      </trkpt>
      <trkpt lat="43.12811" lon="3.07592">
        <ele>53.799999237061</ele>
        <time>2014-11-23T10:24:12.000Z</time>
      </trkpt>
      <trkpt lat="43.12808" lon="3.07589">
        <ele>53.400001525879</ele>
        <time>2014-11-23T10:24:13.000Z</time>
      </trkpt>
      <trkpt lat="43.12804" lon="3.07587">
        <ele>53</ele>
        <time>2014-11-23T10:24:14.000Z</time>
      </trkpt>
      <trkpt lat="43.12801" lon="3.07585">
        <ele>52.599998474121</ele>
        <time>2014-11-23T10:24:15.000Z</time>
      </trkpt>
      <trkpt lat="43.12797" lon="3.07584">
        <ele>52.200000762939</ele>
        <time>2014-11-23T10:24:16.000Z</time>
      </trkpt>
      <trkpt lat="43.12794" lon="3.07582">
        <ele>51.799999237061</ele>
        <time>2014-11-23T10:24:17.000Z</time>
      </trkpt>
      <trkpt lat="43.12784" lon="3.07574">
        <ele>51.799999237061</ele>
        <time>2014-11-23T10:24:20.000Z</time>
      </trkpt>
      <trkpt lat="43.12775" lon="3.07568">
        <ele>51.200000762939</ele>
        <time>2014-11-23T10:24:22.000Z</time>
      </trkpt>
      <trkpt lat="43.12771" lon="3.07565">
        <ele>50.599998474121</ele>
        <time>2014-11-23T10:24:23.000Z</time>
      </trkpt>
      <trkpt lat="43.12767" lon="3.07562">
        <ele>50.200000762939</ele>
        <time>2014-11-23T10:24:24.000Z</time>
      </trkpt>
      <trkpt lat="43.12764" lon="3.07559">
        <ele>49.599998474121</ele>
        <time>2014-11-23T10:24:25.000Z</time>
      </trkpt>
      <trkpt lat="43.12759" lon="3.07557">
        <ele>49</ele>
        <time>2014-11-23T10:24:26.000Z</time>
      </trkpt>
      <trkpt lat="43.12742" lon="3.07546">
        <ele>49</ele>
        <time>2014-11-23T10:24:30.000Z</time>
      </trkpt>
      <trkpt lat="43.12738" lon="3.07543">
        <ele>48.599998474121</ele>
        <time>2014-11-23T10:24:31.000Z</time>
      </trkpt>
      <trkpt lat="43.12734" lon="3.0754">
        <ele>48.200000762939</ele>
        <time>2014-11-23T10:24:32.000Z</time>
      </trkpt>
      <trkpt lat="43.12731" lon="3.07536">
        <ele>47.799999237061</ele>
        <time>2014-11-23T10:24:33.000Z</time>
      </trkpt>
      <trkpt lat="43.12727" lon="3.07532">
        <ele>47.400001525879</ele>
        <time>2014-11-23T10:24:34.000Z</time>
      </trkpt>
      <trkpt lat="43.12722" lon="3.07529">
        <ele>47</ele>
        <time>2014-11-23T10:24:35.000Z</time>
      </trkpt>
      <trkpt lat="43.12716" lon="3.07525">
        <ele>46.400001525879</ele>
        <time>2014-11-23T10:24:36.000Z</time>
      </trkpt>
      <trkpt lat="43.12712" lon="3.07522">
        <ele>46</ele>
        <time>2014-11-23T10:24:37.000Z</time>
      </trkpt>
      <trkpt lat="43.12707" lon="3.07518">
        <ele>45.599998474121</ele>
        <time>2014-11-23T10:24:38.000Z</time>
      </trkpt>
      <trkpt lat="43.12703" lon="3.07513">
        <ele>45</ele>
        <time>2014-11-23T10:24:39.000Z</time>
      </trkpt>
      <trkpt lat="43.12699" lon="3.07508">
        <ele>44.599998474121</ele>
        <time>2014-11-23T10:24:40.000Z</time>
      </trkpt>
      <trkpt lat="43.12685" lon="3.07494">
        <ele>44.200000762939</ele>
        <time>2014-11-23T10:24:43.000Z</time>
      </trkpt>
      <trkpt lat="43.1268" lon="3.0749">
        <ele>43.599998474121</ele>
        <time>2014-11-23T10:24:44.000Z</time>
      </trkpt>
      <trkpt lat="43.12676" lon="3.07486">
        <ele>42.799999237061</ele>
        <time>2014-11-23T10:24:45.000Z</time>
      </trkpt>
      <trkpt lat="43.12672" lon="3.07481">
        <ele>42.400001525879</ele>
        <time>2014-11-23T10:24:46.000Z</time>
      </trkpt>
      <trkpt lat="43.12657" lon="3.07471">
        <ele>42.400001525879</ele>
        <time>2014-11-23T10:24:49.000Z</time>
      </trkpt>
      <trkpt lat="43.12652" lon="3.07468">
        <ele>41.799999237061</ele>
        <time>2014-11-23T10:24:50.000Z</time>
      </trkpt>
      <trkpt lat="43.12647" lon="3.07466">
        <ele>41.400001525879</ele>
        <time>2014-11-23T10:24:51.000Z</time>
      </trkpt>
      <trkpt lat="43.12642" lon="3.07465">
        <ele>41</ele>
        <time>2014-11-23T10:24:52.000Z</time>
      </trkpt>
      <trkpt lat="43.12637" lon="3.07463">
        <ele>40.599998474121</ele>
        <time>2014-11-23T10:24:53.000Z</time>
      </trkpt>
      <trkpt lat="43.12632" lon="3.07461">
        <ele>40.200000762939</ele>
        <time>2014-11-23T10:24:54.000Z</time>
      </trkpt>
      <trkpt lat="43.12623" lon="3.07457">
        <ele>39.599998474121</ele>
        <time>2014-11-23T10:24:56.000Z</time>
      </trkpt>
      <trkpt lat="43.12619" lon="3.07456">
        <ele>39.200000762939</ele>
        <time>2014-11-23T10:24:57.000Z</time>
      </trkpt>
      <trkpt lat="43.12614" lon="3.07454">
        <ele>38.799999237061</ele>
        <time>2014-11-23T10:24:58.000Z</time>
      </trkpt>
      <trkpt lat="43.12609" lon="3.07452">
        <ele>38.400001525879</ele>
        <time>2014-11-23T10:24:59.000Z</time>
      </trkpt>
      <trkpt lat="43.12604" lon="3.0745">
        <ele>38</ele>
        <time>2014-11-23T10:25:00.000Z</time>
      </trkpt>
      <trkpt lat="43.12587" lon="3.07442">
        <ele>38</ele>
        <time>2014-11-23T10:25:04.000Z</time>
      </trkpt>
      <trkpt lat="43.12582" lon="3.07441">
        <ele>38</ele>
        <time>2014-11-23T10:25:05.000Z</time>
      </trkpt>
      <trkpt lat="43.12577" lon="3.07439">
        <ele>38</ele>
        <time>2014-11-23T10:25:06.000Z</time>
      </trkpt>
      <trkpt lat="43.12561" lon="3.07433">
        <ele>38</ele>
        <time>2014-11-23T10:25:10.000Z</time>
      </trkpt>
      <trkpt lat="43.12542" lon="3.07429">
        <ele>38</ele>
        <time>2014-11-23T10:25:15.000Z</time>
      </trkpt>
      <trkpt lat="43.12533" lon="3.07429">
        <ele>38</ele>
        <time>2014-11-23T10:25:17.000Z</time>
      </trkpt>
      <trkpt lat="43.12518" lon="3.07434">
        <ele>38</ele>
        <time>2014-11-23T10:25:20.000Z</time>
      </trkpt>
      <trkpt lat="43.12496" lon="3.07442">
        <ele>37.400001525879</ele>
        <time>2014-11-23T10:25:24.000Z</time>
      </trkpt>
      <trkpt lat="43.12491" lon="3.07443">
        <ele>37</ele>
        <time>2014-11-23T10:25:25.000Z</time>
      </trkpt>
      <trkpt lat="43.12486" lon="3.07446">
        <ele>36.599998474121</ele>
        <time>2014-11-23T10:25:26.000Z</time>
      </trkpt>
      <trkpt lat="43.12481" lon="3.0745">
        <ele>36</ele>
        <time>2014-11-23T10:25:27.000Z</time>
      </trkpt>
      <trkpt lat="43.12477" lon="3.07455">
        <ele>35.400001525879</ele>
        <time>2014-11-23T10:25:28.000Z</time>
      </trkpt>
      <trkpt lat="43.12473" lon="3.07461">
        <ele>34.799999237061</ele>
        <time>2014-11-23T10:25:29.000Z</time>
      </trkpt>
      <trkpt lat="43.12469" lon="3.07468">
        <ele>34.200000762939</ele>
        <time>2014-11-23T10:25:30.000Z</time>
      </trkpt>
      <trkpt lat="43.12467" lon="3.07476">
        <ele>33.599998474121</ele>
        <time>2014-11-23T10:25:31.000Z</time>
      </trkpt>
      <trkpt lat="43.12465" lon="3.07485">
        <ele>32.799999237061</ele>
        <time>2014-11-23T10:25:32.000Z</time>
      </trkpt>
      <trkpt lat="43.12462" lon="3.07493">
        <ele>32.200000762939</ele>
        <time>2014-11-23T10:25:33.000Z</time>
      </trkpt>
      <trkpt lat="43.12459" lon="3.075">
        <ele>30.799999237061</ele>
        <time>2014-11-23T10:25:34.000Z</time>
      </trkpt>
      <trkpt lat="43.12456" lon="3.07507">
        <ele>30.39999961853</ele>
        <time>2014-11-23T10:25:35.000Z</time>
      </trkpt>
      <trkpt lat="43.12451" lon="3.07512">
        <ele>30</ele>
        <time>2014-11-23T10:25:36.000Z</time>
      </trkpt>
      <trkpt lat="43.12446" lon="3.07517">
        <ele>29.60000038147</ele>
        <time>2014-11-23T10:25:37.000Z</time>
      </trkpt>
      <trkpt lat="43.12441" lon="3.07521">
        <ele>29.200000762939</ele>
        <time>2014-11-23T10:25:38.000Z</time>
      </trkpt>
      <trkpt lat="43.12436" lon="3.07524">
        <ele>28.799999237061</ele>
        <time>2014-11-23T10:25:39.000Z</time>
      </trkpt>
      <trkpt lat="43.12425" lon="3.07526">
        <ele>28.39999961853</ele>
        <time>2014-11-23T10:25:41.000Z</time>
      </trkpt>
      <trkpt lat="43.12419" lon="3.07526">
        <ele>28</ele>
        <time>2014-11-23T10:25:42.000Z</time>
      </trkpt>
      <trkpt lat="43.12414" lon="3.07526">
        <ele>27.60000038147</ele>
        <time>2014-11-23T10:25:43.000Z</time>
      </trkpt>
      <trkpt lat="43.1241" lon="3.07528">
        <ele>27.200000762939</ele>
        <time>2014-11-23T10:25:44.000Z</time>
      </trkpt>
      <trkpt lat="43.12405" lon="3.07529">
        <ele>26.799999237061</ele>
        <time>2014-11-23T10:25:45.000Z</time>
      </trkpt>
      <trkpt lat="43.12401" lon="3.0753">
        <ele>26.799999237061</ele>
        <time>2014-11-23T10:25:46.000Z</time>
      </trkpt>
      <trkpt lat="43.12392" lon="3.0753">
        <ele>26.799999237061</ele>
        <time>2014-11-23T10:25:48.000Z</time>
      </trkpt>
      <trkpt lat="43.12388" lon="3.07529">
        <ele>26.799999237061</ele>
        <time>2014-11-23T10:25:49.000Z</time>
      </trkpt>
      <trkpt lat="43.12374" lon="3.07527">
        <ele>26.799999237061</ele>
        <time>2014-11-23T10:25:52.000Z</time>
      </trkpt>
      <trkpt lat="43.12339" lon="3.0752">
        <ele>26.799999237061</ele>
        <time>2014-11-23T10:25:59.000Z</time>
      </trkpt>
      <trkpt lat="43.12334" lon="3.07516">
        <ele>26.39999961853</ele>
        <time>2014-11-23T10:26:00.000Z</time>
      </trkpt>
      <trkpt lat="43.1233" lon="3.07512">
        <ele>26</ele>
        <time>2014-11-23T10:26:01.000Z</time>
      </trkpt>
      <trkpt lat="43.12326" lon="3.07509">
        <ele>25.60000038147</ele>
        <time>2014-11-23T10:26:02.000Z</time>
      </trkpt>
      <trkpt lat="43.12323" lon="3.07505">
        <ele>25.200000762939</ele>
        <time>2014-11-23T10:26:03.000Z</time>
      </trkpt>
      <trkpt lat="43.12322" lon="3.07501">
        <ele>24.60000038147</ele>
        <time>2014-11-23T10:26:04.000Z</time>
      </trkpt>
      <trkpt lat="43.12321" lon="3.07496">
        <ele>24.60000038147</ele>
        <time>2014-11-23T10:26:05.000Z</time>
      </trkpt>
      <trkpt lat="43.12323" lon="3.07467">
        <ele>24.60000038147</ele>
        <time>2014-11-23T10:26:11.000Z</time>
      </trkpt>
      <trkpt lat="43.12324" lon="3.07438">
        <ele>24.60000038147</ele>
        <time>2014-11-23T10:26:17.000Z</time>
      </trkpt>
      <trkpt lat="43.12325" lon="3.07419">
        <ele>24.60000038147</ele>
        <time>2014-11-23T10:26:21.000Z</time>
      </trkpt>
      <trkpt lat="43.12325" lon="3.07398">
        <ele>24.60000038147</ele>
        <time>2014-11-23T10:26:25.000Z</time>
      </trkpt>
      <trkpt lat="43.12323" lon="3.07382">
        <ele>24.60000038147</ele>
        <time>2014-11-23T10:26:28.000Z</time>
      </trkpt>
      <trkpt lat="43.12317" lon="3.0735">
        <ele>24.60000038147</ele>
        <time>2014-11-23T10:26:34.000Z</time>
      </trkpt>
      <trkpt lat="43.12316" lon="3.07345">
        <ele>24.60000038147</ele>
        <time>2014-11-23T10:26:35.000Z</time>
      </trkpt>
      <trkpt lat="43.12316" lon="3.0732">
        <ele>24.60000038147</ele>
        <time>2014-11-23T10:26:40.000Z</time>
      </trkpt>
      <trkpt lat="43.12321" lon="3.07293">
        <ele>24.60000038147</ele>
        <time>2014-11-23T10:26:46.000Z</time>
      </trkpt>
      <trkpt lat="43.1233" lon="3.07259">
        <ele>24.60000038147</ele>
        <time>2014-11-23T10:26:53.000Z</time>
      </trkpt>
      <trkpt lat="43.12334" lon="3.07244">
        <ele>25.200000762939</ele>
        <time>2014-11-23T10:26:56.000Z</time>
      </trkpt>
      <trkpt lat="43.12336" lon="3.07238">
        <ele>25.60000038147</ele>
        <time>2014-11-23T10:26:57.000Z</time>
      </trkpt>
      <trkpt lat="43.12337" lon="3.07233">
        <ele>26</ele>
        <time>2014-11-23T10:26:58.000Z</time>
      </trkpt>
      <trkpt lat="43.12339" lon="3.07227">
        <ele>26.39999961853</ele>
        <time>2014-11-23T10:26:59.000Z</time>
      </trkpt>
      <trkpt lat="43.1234" lon="3.07221">
        <ele>26.799999237061</ele>
        <time>2014-11-23T10:27:00.000Z</time>
      </trkpt>
      <trkpt lat="43.12352" lon="3.07176">
        <ele>26.799999237061</ele>
        <time>2014-11-23T10:27:07.000Z</time>
      </trkpt>
      <trkpt lat="43.12354" lon="3.0717">
        <ele>26.799999237061</ele>
        <time>2014-11-23T10:27:08.000Z</time>
      </trkpt>
      <trkpt lat="43.12366" lon="3.07122">
        <ele>26.799999237061</ele>
        <time>2014-11-23T10:27:15.000Z</time>
      </trkpt>
      <trkpt lat="43.12372" lon="3.071">
        <ele>27.200000762939</ele>
        <time>2014-11-23T10:27:18.000Z</time>
      </trkpt>
      <trkpt lat="43.12374" lon="3.07093">
        <ele>27.60000038147</ele>
        <time>2014-11-23T10:27:19.000Z</time>
      </trkpt>
      <trkpt lat="43.12375" lon="3.07085">
        <ele>28</ele>
        <time>2014-11-23T10:27:20.000Z</time>
      </trkpt>
      <trkpt lat="43.12377" lon="3.07079">
        <ele>28.39999961853</ele>
        <time>2014-11-23T10:27:21.000Z</time>
      </trkpt>
      <trkpt lat="43.12379" lon="3.07072">
        <ele>28.799999237061</ele>
        <time>2014-11-23T10:27:22.000Z</time>
      </trkpt>
      <trkpt lat="43.12381" lon="3.07064">
        <ele>28.799999237061</ele>
        <time>2014-11-23T10:27:23.000Z</time>
      </trkpt>
      <trkpt lat="43.12398" lon="3.07">
        <ele>28.799999237061</ele>
        <time>2014-11-23T10:27:32.000Z</time>
      </trkpt>
      <trkpt lat="43.12406" lon="3.06969">
        <ele>28.799999237061</ele>
        <time>2014-11-23T10:27:37.000Z</time>
      </trkpt>
      <trkpt lat="43.12408" lon="3.06963">
        <ele>28.799999237061</ele>
        <time>2014-11-23T10:27:38.000Z</time>
      </trkpt>
      <trkpt lat="43.1241" lon="3.06958">
        <ele>28.799999237061</ele>
        <time>2014-11-23T10:27:39.000Z</time>
      </trkpt>
      <trkpt lat="43.12411" lon="3.06941">
        <ele>29.200000762939</ele>
        <time>2014-11-23T10:27:43.000Z</time>
      </trkpt>
      <trkpt lat="43.12409" lon="3.06938">
        <ele>29.60000038147</ele>
        <time>2014-11-23T10:27:44.000Z</time>
      </trkpt>
      <trkpt lat="43.12406" lon="3.06936">
        <ele>30</ele>
        <time>2014-11-23T10:27:45.000Z</time>
      </trkpt>
      <trkpt lat="43.12402" lon="3.06935">
        <ele>30.39999961853</ele>
        <time>2014-11-23T10:27:46.000Z</time>
      </trkpt>
      <trkpt lat="43.12398" lon="3.06933">
        <ele>30.799999237061</ele>
        <time>2014-11-23T10:27:47.000Z</time>
      </trkpt>
      <trkpt lat="43.12393" lon="3.06925">
        <ele>30.799999237061</ele>
        <time>2014-11-23T10:27:49.000Z</time>
      </trkpt>
      <trkpt lat="43.12392" lon="3.06908">
        <ele>30.799999237061</ele>
        <time>2014-11-23T10:27:53.000Z</time>
      </trkpt>
      <trkpt lat="43.12392" lon="3.06905">
        <ele>30.799999237061</ele>
        <time>2014-11-23T10:27:54.000Z</time>
      </trkpt>
      <trkpt lat="43.12393" lon="3.06895">
        <ele>31.200000762939</ele>
        <time>2014-11-23T10:27:57.000Z</time>
      </trkpt>
      <trkpt lat="43.12394" lon="3.06892">
        <ele>31.799999237061</ele>
        <time>2014-11-23T10:27:58.000Z</time>
      </trkpt>
      <trkpt lat="43.12394" lon="3.06889">
        <ele>32.200000762939</ele>
        <time>2014-11-23T10:27:59.000Z</time>
      </trkpt>
      <trkpt lat="43.12394" lon="3.06886">
        <ele>32.599998474121</ele>
        <time>2014-11-23T10:28:00.000Z</time>
      </trkpt>
      <trkpt lat="43.12394" lon="3.06883">
        <ele>33.200000762939</ele>
        <time>2014-11-23T10:28:01.000Z</time>
      </trkpt>
      <trkpt lat="43.12389" lon="3.06875">
        <ele>33.200000762939</ele>
        <time>2014-11-23T10:28:04.000Z</time>
      </trkpt>
      <trkpt lat="43.12384" lon="3.06875">
        <ele>33.599998474121</ele>
        <time>2014-11-23T10:28:06.000Z</time>
      </trkpt>
      <trkpt lat="43.12381" lon="3.06877">
        <ele>34</ele>
        <time>2014-11-23T10:28:07.000Z</time>
      </trkpt>
      <trkpt lat="43.12378" lon="3.06878">
        <ele>34.400001525879</ele>
        <time>2014-11-23T10:28:08.000Z</time>
      </trkpt>
      <trkpt lat="43.12376" lon="3.06879">
        <ele>34.799999237061</ele>
        <time>2014-11-23T10:28:09.000Z</time>
      </trkpt>
      <trkpt lat="43.12373" lon="3.06879">
        <ele>35.200000762939</ele>
        <time>2014-11-23T10:28:10.000Z</time>
      </trkpt>
      <trkpt lat="43.12365" lon="3.06881">
        <ele>35.200000762939</ele>
        <time>2014-11-23T10:28:13.000Z</time>
      </trkpt>
      <trkpt lat="43.1236" lon="3.06883">
        <ele>35.200000762939</ele>
        <time>2014-11-23T10:28:15.000Z</time>
      </trkpt>
      <trkpt lat="43.12358" lon="3.06884">
        <ele>35.599998474121</ele>
        <time>2014-11-23T10:28:16.000Z</time>
      </trkpt>
      <trkpt lat="43.12355" lon="3.06885">
        <ele>36</ele>
        <time>2014-11-23T10:28:17.000Z</time>
      </trkpt>
      <trkpt lat="43.12353" lon="3.06885">
        <ele>36.400001525879</ele>
        <time>2014-11-23T10:28:18.000Z</time>
      </trkpt>
      <trkpt lat="43.12351" lon="3.06886">
        <ele>36.799999237061</ele>
        <time>2014-11-23T10:28:19.000Z</time>
      </trkpt>
      <trkpt lat="43.1235" lon="3.06886">
        <ele>37.200000762939</ele>
        <time>2014-11-23T10:28:20.000Z</time>
      </trkpt>
      <trkpt lat="43.12337" lon="3.06888">
        <ele>37.200000762939</ele>
        <time>2014-11-23T10:28:25.000Z</time>
      </trkpt>
      <trkpt lat="43.12329" lon="3.06885">
        <ele>37.599998474121</ele>
        <time>2014-11-23T10:28:28.000Z</time>
      </trkpt>
      <trkpt lat="43.12327" lon="3.06883">
        <ele>38</ele>
        <time>2014-11-23T10:28:29.000Z</time>
      </trkpt>
      <trkpt lat="43.12324" lon="3.06882">
        <ele>38.400001525879</ele>
        <time>2014-11-23T10:28:30.000Z</time>
      </trkpt>
      <trkpt lat="43.12322" lon="3.0688">
        <ele>38.799999237061</ele>
        <time>2014-11-23T10:28:31.000Z</time>
      </trkpt>
      <trkpt lat="43.1232" lon="3.06877">
        <ele>39.200000762939</ele>
        <time>2014-11-23T10:28:32.000Z</time>
      </trkpt>
      <trkpt lat="43.12313" lon="3.06867">
        <ele>39.200000762939</ele>
        <time>2014-11-23T10:28:36.000Z</time>
      </trkpt>
      <trkpt lat="43.12297" lon="3.0685">
        <ele>39.599998474121</ele>
        <time>2014-11-23T10:28:43.000Z</time>
      </trkpt>
      <trkpt lat="43.12295" lon="3.06848">
        <ele>40.200000762939</ele>
        <time>2014-11-23T10:28:44.000Z</time>
      </trkpt>
      <trkpt lat="43.12293" lon="3.06847">
        <ele>40.599998474121</ele>
        <time>2014-11-23T10:28:45.000Z</time>
      </trkpt>
      <trkpt lat="43.1229" lon="3.06846">
        <ele>41</ele>
        <time>2014-11-23T10:28:46.000Z</time>
      </trkpt>
      <trkpt lat="43.12288" lon="3.06844">
        <ele>41.400001525879</ele>
        <time>2014-11-23T10:28:47.000Z</time>
      </trkpt>
      <trkpt lat="43.12285" lon="3.06843">
        <ele>41.400001525879</ele>
        <time>2014-11-23T10:28:48.000Z</time>
      </trkpt>
      <trkpt lat="43.12273" lon="3.06824">
        <ele>41.400001525879</ele>
        <time>2014-11-23T10:28:54.000Z</time>
      </trkpt>
      <trkpt lat="43.1227" lon="3.068">
        <ele>41.400001525879</ele>
        <time>2014-11-23T10:28:59.000Z</time>
      </trkpt>
      <trkpt lat="43.12268" lon="3.06794">
        <ele>41.400001525879</ele>
        <time>2014-11-23T10:29:00.000Z</time>
      </trkpt>
      <trkpt lat="43.12265" lon="3.06782">
        <ele>41.400001525879</ele>
        <time>2014-11-23T10:29:02.000Z</time>
      </trkpt>
      <trkpt lat="43.12255" lon="3.06763">
        <ele>41.400001525879</ele>
        <time>2014-11-23T10:29:05.000Z</time>
      </trkpt>
      <trkpt lat="43.12246" lon="3.06752">
        <ele>41.400001525879</ele>
        <time>2014-11-23T10:29:07.000Z</time>
      </trkpt>
      <trkpt lat="43.12239" lon="3.06741">
        <ele>41.400001525879</ele>
        <time>2014-11-23T10:29:09.000Z</time>
      </trkpt>
      <trkpt lat="43.12232" lon="3.06732">
        <ele>41.400001525879</ele>
        <time>2014-11-23T10:29:11.000Z</time>
      </trkpt>
      <trkpt lat="43.12221" lon="3.06713">
        <ele>41.400001525879</ele>
        <time>2014-11-23T10:29:15.000Z</time>
      </trkpt>
      <trkpt lat="43.12205" lon="3.06689">
        <ele>41.400001525879</ele>
        <time>2014-11-23T10:29:21.000Z</time>
      </trkpt>
      <trkpt lat="43.12202" lon="3.06685">
        <ele>41.400001525879</ele>
        <time>2014-11-23T10:29:22.000Z</time>
      </trkpt>
      <trkpt lat="43.12193" lon="3.06685">
        <ele>41.400001525879</ele>
        <time>2014-11-23T10:29:24.000Z</time>
      </trkpt>
      <trkpt lat="43.12186" lon="3.06689">
        <ele>41.400001525879</ele>
        <time>2014-11-23T10:29:26.000Z</time>
      </trkpt>
      <trkpt lat="43.12174" lon="3.0669">
        <ele>41.400001525879</ele>
        <time>2014-11-23T10:29:29.000Z</time>
      </trkpt>
      <trkpt lat="43.12155" lon="3.06688">
        <ele>41.400001525879</ele>
        <time>2014-11-23T10:29:35.000Z</time>
      </trkpt>
      <trkpt lat="43.12138" lon="3.06689">
        <ele>42.200000762939</ele>
        <time>2014-11-23T10:29:40.000Z</time>
      </trkpt>
      <trkpt lat="43.12134" lon="3.0669">
        <ele>42.599998474121</ele>
        <time>2014-11-23T10:29:41.000Z</time>
      </trkpt>
      <trkpt lat="43.1213" lon="3.0669">
        <ele>43</ele>
        <time>2014-11-23T10:29:42.000Z</time>
      </trkpt>
      <trkpt lat="43.12126" lon="3.0669">
        <ele>43.400001525879</ele>
        <time>2014-11-23T10:29:43.000Z</time>
      </trkpt>
      <trkpt lat="43.12105" lon="3.06688">
        <ele>43.400001525879</ele>
        <time>2014-11-23T10:29:48.000Z</time>
      </trkpt>
      <trkpt lat="43.12091" lon="3.06686">
        <ele>43.400001525879</ele>
        <time>2014-11-23T10:29:51.000Z</time>
      </trkpt>
      <trkpt lat="43.12083" lon="3.06682">
        <ele>43.400001525879</ele>
        <time>2014-11-23T10:29:53.000Z</time>
      </trkpt>
      <trkpt lat="43.12067" lon="3.06671">
        <ele>43.400001525879</ele>
        <time>2014-11-23T10:29:58.000Z</time>
      </trkpt>
      <trkpt lat="43.12052" lon="3.06658">
        <ele>43.400001525879</ele>
        <time>2014-11-23T10:30:04.000Z</time>
      </trkpt>
      <trkpt lat="43.12047" lon="3.06656">
        <ele>43.799999237061</ele>
        <time>2014-11-23T10:30:06.000Z</time>
      </trkpt>
      <trkpt lat="43.12044" lon="3.06655">
        <ele>44.400001525879</ele>
        <time>2014-11-23T10:30:07.000Z</time>
      </trkpt>
      <trkpt lat="43.12041" lon="3.06653">
        <ele>44.799999237061</ele>
        <time>2014-11-23T10:30:08.000Z</time>
      </trkpt>
      <trkpt lat="43.12038" lon="3.06651">
        <ele>45.400001525879</ele>
        <time>2014-11-23T10:30:09.000Z</time>
      </trkpt>
      <trkpt lat="43.12036" lon="3.0665">
        <ele>45.799999237061</ele>
        <time>2014-11-23T10:30:10.000Z</time>
      </trkpt>
      <trkpt lat="43.12021" lon="3.06642">
        <ele>45.799999237061</ele>
        <time>2014-11-23T10:30:14.000Z</time>
      </trkpt>
      <trkpt lat="43.12008" lon="3.06635">
        <ele>45.799999237061</ele>
        <time>2014-11-23T10:30:17.000Z</time>
      </trkpt>
      <trkpt lat="43.11999" lon="3.06624">
        <ele>45.799999237061</ele>
        <time>2014-11-23T10:30:19.000Z</time>
      </trkpt>
      <trkpt lat="43.11994" lon="3.0662">
        <ele>45.400001525879</ele>
        <time>2014-11-23T10:30:20.000Z</time>
      </trkpt>
      <trkpt lat="43.11988" lon="3.06617">
        <ele>45</ele>
        <time>2014-11-23T10:30:21.000Z</time>
      </trkpt>
      <trkpt lat="43.11982" lon="3.06615">
        <ele>44.599998474121</ele>
        <time>2014-11-23T10:30:22.000Z</time>
      </trkpt>
      <trkpt lat="43.11976" lon="3.06613">
        <ele>44.200000762939</ele>
        <time>2014-11-23T10:30:23.000Z</time>
      </trkpt>
      <trkpt lat="43.11971" lon="3.06611">
        <ele>43.799999237061</ele>
        <time>2014-11-23T10:30:24.000Z</time>
      </trkpt>
      <trkpt lat="43.11946" lon="3.06605">
        <ele>43.799999237061</ele>
        <time>2014-11-23T10:30:28.000Z</time>
      </trkpt>
      <trkpt lat="43.11941" lon="3.06605">
        <ele>43.799999237061</ele>
        <time>2014-11-23T10:30:29.000Z</time>
      </trkpt>
      <trkpt lat="43.11937" lon="3.06605">
        <ele>42.799999237061</ele>
        <time>2014-11-23T10:30:30.000Z</time>
      </trkpt>
      <trkpt lat="43.11935" lon="3.06605">
        <ele>42.400001525879</ele>
        <time>2014-11-23T10:30:31.000Z</time>
      </trkpt>
      <trkpt lat="43.11934" lon="3.06604">
        <ele>42</ele>
        <time>2014-11-23T10:30:32.000Z</time>
      </trkpt>
      <trkpt lat="43.11934" lon="3.06602">
        <ele>41.599998474121</ele>
        <time>2014-11-23T10:30:33.000Z</time>
      </trkpt>
      <trkpt lat="43.11935" lon="3.06598">
        <ele>41.599998474121</ele>
        <time>2014-11-23T10:30:35.000Z</time>
      </trkpt>
      <trkpt lat="43.11933" lon="3.0659">
        <ele>41.599998474121</ele>
        <time>2014-11-23T10:30:38.000Z</time>
      </trkpt>
      <trkpt lat="43.11931" lon="3.06587">
        <ele>41.599998474121</ele>
        <time>2014-11-23T10:30:39.000Z</time>
      </trkpt>
      <trkpt lat="43.1193" lon="3.0657">
        <ele>41.599998474121</ele>
        <time>2014-11-23T10:30:43.000Z</time>
      </trkpt>
      <trkpt lat="43.1193" lon="3.06558">
        <ele>41.599998474121</ele>
        <time>2014-11-23T10:30:47.000Z</time>
      </trkpt>
      <trkpt lat="43.1193" lon="3.06558">
        <ele>41.599998474121</ele>
        <time>2014-11-23T10:30:48.000Z</time>
      </trkpt>
      <trkpt lat="43.1193" lon="3.06555">
        <ele>41.599998474121</ele>
        <time>2014-11-23T10:30:55.000Z</time>
      </trkpt>
      <trkpt lat="43.11931" lon="3.06553">
        <ele>41.599998474121</ele>
        <time>2014-11-23T10:30:56.000Z</time>
      </trkpt>
      <trkpt lat="43.11934" lon="3.06541">
        <ele>41.599998474121</ele>
        <time>2014-11-23T10:31:00.000Z</time>
      </trkpt>
      <trkpt lat="43.11935" lon="3.06537">
        <ele>42</ele>
        <time>2014-11-23T10:31:02.000Z</time>
      </trkpt>
      <trkpt lat="43.11936" lon="3.06535">
        <ele>42.599998474121</ele>
        <time>2014-11-23T10:31:03.000Z</time>
      </trkpt>
      <trkpt lat="43.11936" lon="3.06532">
        <ele>43</ele>
        <time>2014-11-23T10:31:04.000Z</time>
      </trkpt>
      <trkpt lat="43.11937" lon="3.0653">
        <ele>43.400001525879</ele>
        <time>2014-11-23T10:31:05.000Z</time>
      </trkpt>
      <trkpt lat="43.11938" lon="3.06528">
        <ele>44</ele>
        <time>2014-11-23T10:31:06.000Z</time>
      </trkpt>
      <trkpt lat="43.11941" lon="3.0652">
        <ele>44</ele>
        <time>2014-11-23T10:31:10.000Z</time>
      </trkpt>
      <trkpt lat="43.11949" lon="3.06507">
        <ele>44</ele>
        <time>2014-11-23T10:31:17.000Z</time>
      </trkpt>
      <trkpt lat="43.11952" lon="3.06501">
        <ele>44.400001525879</ele>
        <time>2014-11-23T10:31:20.000Z</time>
      </trkpt>
      <trkpt lat="43.11953" lon="3.06499">
        <ele>44.799999237061</ele>
        <time>2014-11-23T10:31:21.000Z</time>
      </trkpt>
      <trkpt lat="43.11954" lon="3.06497">
        <ele>45.200000762939</ele>
        <time>2014-11-23T10:31:22.000Z</time>
      </trkpt>
      <trkpt lat="43.11956" lon="3.06495">
        <ele>45.599998474121</ele>
        <time>2014-11-23T10:31:23.000Z</time>
      </trkpt>
      <trkpt lat="43.11957" lon="3.06494">
        <ele>46</ele>
        <time>2014-11-23T10:31:24.000Z</time>
      </trkpt>
      <trkpt lat="43.11962" lon="3.06482">
        <ele>46</ele>
        <time>2014-11-23T10:31:29.000Z</time>
      </trkpt>
      <trkpt lat="43.11967" lon="3.06471">
        <ele>46.400001525879</ele>
        <time>2014-11-23T10:31:33.000Z</time>
      </trkpt>
      <trkpt lat="43.11968" lon="3.06469">
        <ele>46.799999237061</ele>
        <time>2014-11-23T10:31:34.000Z</time>
      </trkpt>
      <trkpt lat="43.11969" lon="3.06467">
        <ele>47.200000762939</ele>
        <time>2014-11-23T10:31:35.000Z</time>
      </trkpt>
      <trkpt lat="43.1197" lon="3.06464">
        <ele>47.599998474121</ele>
        <time>2014-11-23T10:31:36.000Z</time>
      </trkpt>
      <trkpt lat="43.11971" lon="3.06462">
        <ele>48</ele>
        <time>2014-11-23T10:31:37.000Z</time>
      </trkpt>
      <trkpt lat="43.11974" lon="3.06448">
        <ele>48</ele>
        <time>2014-11-23T10:31:42.000Z</time>
      </trkpt>
      <trkpt lat="43.11974" lon="3.06442">
        <ele>49</ele>
        <time>2014-11-23T10:31:44.000Z</time>
      </trkpt>
      <trkpt lat="43.11975" lon="3.06438">
        <ele>49.400001525879</ele>
        <time>2014-11-23T10:31:45.000Z</time>
      </trkpt>
      <trkpt lat="43.11975" lon="3.06435">
        <ele>50</ele>
        <time>2014-11-23T10:31:46.000Z</time>
      </trkpt>
      <trkpt lat="43.11975" lon="3.06432">
        <ele>50.400001525879</ele>
        <time>2014-11-23T10:31:47.000Z</time>
      </trkpt>
      <trkpt lat="43.11976" lon="3.06429">
        <ele>50.400001525879</ele>
        <time>2014-11-23T10:31:48.000Z</time>
      </trkpt>
      <trkpt lat="43.11976" lon="3.0642">
        <ele>50.400001525879</ele>
        <time>2014-11-23T10:31:51.000Z</time>
      </trkpt>
      <trkpt lat="43.11977" lon="3.06414">
        <ele>50.400001525879</ele>
        <time>2014-11-23T10:31:53.000Z</time>
      </trkpt>
      <trkpt lat="43.11979" lon="3.06399">
        <ele>50.400001525879</ele>
        <time>2014-11-23T10:31:57.000Z</time>
      </trkpt>
      <trkpt lat="43.1198" lon="3.06383">
        <ele>50.400001525879</ele>
        <time>2014-11-23T10:32:01.000Z</time>
      </trkpt>
      <trkpt lat="43.11981" lon="3.06369">
        <ele>50.400001525879</ele>
        <time>2014-11-23T10:32:06.000Z</time>
      </trkpt>
      <trkpt lat="43.11983" lon="3.06366">
        <ele>50.400001525879</ele>
        <time>2014-11-23T10:32:08.000Z</time>
      </trkpt>
      <trkpt lat="43.11987" lon="3.06361">
        <ele>50.400001525879</ele>
        <time>2014-11-23T10:32:10.000Z</time>
      </trkpt>
      <trkpt lat="43.11987" lon="3.0635">
        <ele>50.400001525879</ele>
        <time>2014-11-23T10:32:13.000Z</time>
      </trkpt>
      <trkpt lat="43.11987" lon="3.06333">
        <ele>50.400001525879</ele>
        <time>2014-11-23T10:32:19.000Z</time>
      </trkpt>
      <trkpt lat="43.11987" lon="3.0633">
        <ele>50.400001525879</ele>
        <time>2014-11-23T10:32:20.000Z</time>
      </trkpt>
      <trkpt lat="43.11992" lon="3.06322">
        <ele>50.400001525879</ele>
        <time>2014-11-23T10:32:23.000Z</time>
      </trkpt>
      <trkpt lat="43.11991" lon="3.06311">
        <ele>50.400001525879</ele>
        <time>2014-11-23T10:32:26.000Z</time>
      </trkpt>
      <trkpt lat="43.11991" lon="3.06299">
        <ele>50.400001525879</ele>
        <time>2014-11-23T10:32:30.000Z</time>
      </trkpt>
      <trkpt lat="43.11984" lon="3.06287">
        <ele>50.400001525879</ele>
        <time>2014-11-23T10:32:34.000Z</time>
      </trkpt>
      <trkpt lat="43.11981" lon="3.0628">
        <ele>50.400001525879</ele>
        <time>2014-11-23T10:32:36.000Z</time>
      </trkpt>
      <trkpt lat="43.11979" lon="3.06277">
        <ele>50.400001525879</ele>
        <time>2014-11-23T10:32:37.000Z</time>
      </trkpt>
      <trkpt lat="43.11969" lon="3.06262">
        <ele>50.400001525879</ele>
        <time>2014-11-23T10:32:41.000Z</time>
      </trkpt>
      <trkpt lat="43.11958" lon="3.06258">
        <ele>50.400001525879</ele>
        <time>2014-11-23T10:32:45.000Z</time>
      </trkpt>
      <trkpt lat="43.11947" lon="3.06261">
        <ele>50.400001525879</ele>
        <time>2014-11-23T10:32:50.000Z</time>
      </trkpt>
      <trkpt lat="43.11945" lon="3.06261">
        <ele>50.799999237061</ele>
        <time>2014-11-23T10:32:51.000Z</time>
      </trkpt>
      <trkpt lat="43.11942" lon="3.06262">
        <ele>51.400001525879</ele>
        <time>2014-11-23T10:32:52.000Z</time>
      </trkpt>
      <trkpt lat="43.1194" lon="3.06262">
        <ele>51.799999237061</ele>
        <time>2014-11-23T10:32:53.000Z</time>
      </trkpt>
      <trkpt lat="43.11939" lon="3.06263">
        <ele>52.200000762939</ele>
        <time>2014-11-23T10:32:54.000Z</time>
      </trkpt>
      <trkpt lat="43.11937" lon="3.06264">
        <ele>52.599998474121</ele>
        <time>2014-11-23T10:32:55.000Z</time>
      </trkpt>
      <trkpt lat="43.11935" lon="3.06265">
        <ele>52.599998474121</ele>
        <time>2014-11-23T10:32:56.000Z</time>
      </trkpt>
      <trkpt lat="43.11925" lon="3.06268">
        <ele>53</ele>
        <time>2014-11-23T10:33:00.000Z</time>
      </trkpt>
      <trkpt lat="43.11923" lon="3.06268">
        <ele>53.400001525879</ele>
        <time>2014-11-23T10:33:01.000Z</time>
      </trkpt>
      <trkpt lat="43.11922" lon="3.06268">
        <ele>54</ele>
        <time>2014-11-23T10:33:02.000Z</time>
      </trkpt>
      <trkpt lat="43.1192" lon="3.06268">
        <ele>54.400001525879</ele>
        <time>2014-11-23T10:33:03.000Z</time>
      </trkpt>
      <trkpt lat="43.1192" lon="3.06268">
        <ele>54.799999237061</ele>
        <time>2014-11-23T10:33:04.000Z</time>
      </trkpt>
      <trkpt lat="43.11919" lon="3.06274">
        <ele>54.799999237061</ele>
        <time>2014-11-23T10:34:18.000Z</time>
      </trkpt>
      <trkpt lat="43.11919" lon="3.06277">
        <ele>55.200000762939</ele>
        <time>2014-11-23T10:34:19.000Z</time>
      </trkpt>
      <trkpt lat="43.11918" lon="3.06279">
        <ele>55.799999237061</ele>
        <time>2014-11-23T10:34:20.000Z</time>
      </trkpt>
      <trkpt lat="43.11917" lon="3.06281">
        <ele>56.200000762939</ele>
        <time>2014-11-23T10:34:21.000Z</time>
      </trkpt>
      <trkpt lat="43.11917" lon="3.06284">
        <ele>56.599998474121</ele>
        <time>2014-11-23T10:34:22.000Z</time>
      </trkpt>
      <trkpt lat="43.11917" lon="3.06287">
        <ele>57</ele>
        <time>2014-11-23T10:34:23.000Z</time>
      </trkpt>
      <trkpt lat="43.11918" lon="3.06304">
        <ele>57</ele>
        <time>2014-11-23T10:34:28.000Z</time>
      </trkpt>
      <trkpt lat="43.11919" lon="3.06323">
        <ele>57</ele>
        <time>2014-11-23T10:34:34.000Z</time>
      </trkpt>
      <trkpt lat="43.11919" lon="3.06329">
        <ele>57.400001525879</ele>
        <time>2014-11-23T10:34:36.000Z</time>
      </trkpt>
      <trkpt lat="43.11919" lon="3.06332">
        <ele>58.400001525879</ele>
        <time>2014-11-23T10:34:37.000Z</time>
      </trkpt>
      <trkpt lat="43.1192" lon="3.06335">
        <ele>58.799999237061</ele>
        <time>2014-11-23T10:34:38.000Z</time>
      </trkpt>
      <trkpt lat="43.1192" lon="3.06338">
        <ele>59.200000762939</ele>
        <time>2014-11-23T10:34:39.000Z</time>
      </trkpt>
      <trkpt lat="43.1192" lon="3.06344">
        <ele>59.200000762939</ele>
        <time>2014-11-23T10:34:41.000Z</time>
      </trkpt>
      <trkpt lat="43.11918" lon="3.06365">
        <ele>59.200000762939</ele>
        <time>2014-11-23T10:34:47.000Z</time>
      </trkpt>
      <trkpt lat="43.11915" lon="3.06395">
        <ele>59.200000762939</ele>
        <time>2014-11-23T10:34:55.000Z</time>
      </trkpt>
      <trkpt lat="43.11915" lon="3.06408">
        <ele>59.599998474121</ele>
        <time>2014-11-23T10:34:58.000Z</time>
      </trkpt>
      <trkpt lat="43.11914" lon="3.06413">
        <ele>60</ele>
        <time>2014-11-23T10:34:59.000Z</time>
      </trkpt>
      <trkpt lat="43.11914" lon="3.06418">
        <ele>60.400001525879</ele>
        <time>2014-11-23T10:35:00.000Z</time>
      </trkpt>
      <trkpt lat="43.11913" lon="3.06423">
        <ele>61.400001525879</ele>
        <time>2014-11-23T10:35:01.000Z</time>
      </trkpt>
      <trkpt lat="43.11915" lon="3.06443">
        <ele>61.400001525879</ele>
        <time>2014-11-23T10:35:05.000Z</time>
      </trkpt>
      <trkpt lat="43.11917" lon="3.06469">
        <ele>61.400001525879</ele>
        <time>2014-11-23T10:35:10.000Z</time>
      </trkpt>
      <trkpt lat="43.11916" lon="3.06473">
        <ele>61.400001525879</ele>
        <time>2014-11-23T10:35:11.000Z</time>
      </trkpt>
      <trkpt lat="43.11912" lon="3.06484">
        <ele>61.400001525879</ele>
        <time>2014-11-23T10:35:14.000Z</time>
      </trkpt>
      <trkpt lat="43.11911" lon="3.06492">
        <ele>61</ele>
        <time>2014-11-23T10:35:16.000Z</time>
      </trkpt>
      <trkpt lat="43.1191" lon="3.06495">
        <ele>60.599998474121</ele>
        <time>2014-11-23T10:35:17.000Z</time>
      </trkpt>
      <trkpt lat="43.1191" lon="3.06498">
        <ele>60</ele>
        <time>2014-11-23T10:35:18.000Z</time>
      </trkpt>
      <trkpt lat="43.1191" lon="3.065">
        <ele>59.599998474121</ele>
        <time>2014-11-23T10:35:19.000Z</time>
      </trkpt>
      <trkpt lat="43.1191" lon="3.065">
        <ele>59.200000762939</ele>
        <time>2014-11-23T10:35:20.000Z</time>
      </trkpt>
      <trkpt lat="43.11909" lon="3.06502">
        <ele>59.200000762939</ele>
        <time>2014-11-23T10:35:22.000Z</time>
      </trkpt>
      <trkpt lat="43.11907" lon="3.06503">
        <ele>59.200000762939</ele>
        <time>2014-11-23T10:35:24.000Z</time>
      </trkpt>
      <trkpt lat="43.11905" lon="3.06503">
        <ele>57.200000762939</ele>
        <time>2014-11-23T10:35:49.000Z</time>
      </trkpt>
      <trkpt lat="43.11903" lon="3.06498">
        <ele>57.200000762939</ele>
        <time>2014-11-23T10:35:51.000Z</time>
      </trkpt>
      <trkpt lat="43.11899" lon="3.06481">
        <ele>57.200000762939</ele>
        <time>2014-11-23T10:35:56.000Z</time>
      </trkpt>
      <trkpt lat="43.11899" lon="3.06477">
        <ele>57.200000762939</ele>
        <time>2014-11-23T10:35:57.000Z</time>
      </trkpt>
      <trkpt lat="43.119" lon="3.06471">
        <ele>57.200000762939</ele>
        <time>2014-11-23T10:35:59.000Z</time>
      </trkpt>
      <trkpt lat="43.11899" lon="3.06451">
        <ele>57.200000762939</ele>
        <time>2014-11-23T10:36:04.000Z</time>
      </trkpt>
      <trkpt lat="43.11898" lon="3.06447">
        <ele>57.599998474121</ele>
        <time>2014-11-23T10:36:05.000Z</time>
      </trkpt>
      <trkpt lat="43.11897" lon="3.06444">
        <ele>58.200000762939</ele>
        <time>2014-11-23T10:36:06.000Z</time>
      </trkpt>
      <trkpt lat="43.11896" lon="3.06439">
        <ele>58.599998474121</ele>
        <time>2014-11-23T10:36:07.000Z</time>
      </trkpt>
      <trkpt lat="43.11896" lon="3.06435">
        <ele>59</ele>
        <time>2014-11-23T10:36:08.000Z</time>
      </trkpt>
      <trkpt lat="43.11895" lon="3.06431">
        <ele>59.400001525879</ele>
        <time>2014-11-23T10:36:09.000Z</time>
      </trkpt>
      <trkpt lat="43.11893" lon="3.06427">
        <ele>59.400001525879</ele>
        <time>2014-11-23T10:36:11.000Z</time>
      </trkpt>
      <trkpt lat="43.11893" lon="3.06427">
        <ele>59.400001525879</ele>
        <time>2014-11-23T10:36:12.000Z</time>
      </trkpt>
      <trkpt lat="43.11893" lon="3.06424">
        <ele>59.400001525879</ele>
        <time>2014-11-23T10:38:29.000Z</time>
      </trkpt>
      <trkpt lat="43.11892" lon="3.06421">
        <ele>59.400001525879</ele>
        <time>2014-11-23T10:38:30.000Z</time>
      </trkpt>
      <trkpt lat="43.1189" lon="3.06411">
        <ele>59.400001525879</ele>
        <time>2014-11-23T10:38:33.000Z</time>
      </trkpt>
      <trkpt lat="43.1189" lon="3.06409">
        <ele>59.400001525879</ele>
        <time>2014-11-23T10:38:34.000Z</time>
      </trkpt>
      <trkpt lat="43.11889" lon="3.06409">
        <ele>59.400001525879</ele>
        <time>2014-11-23T10:38:36.000Z</time>
      </trkpt>
      <trkpt lat="43.1189" lon="3.06407">
        <ele>59.400001525879</ele>
        <time>2014-11-23T10:40:49.000Z</time>
      </trkpt>
      <trkpt lat="43.11888" lon="3.064">
        <ele>59.400001525879</ele>
        <time>2014-11-23T10:40:53.000Z</time>
      </trkpt>
      <trkpt lat="43.11885" lon="3.06391">
        <ele>59.400001525879</ele>
        <time>2014-11-23T10:40:58.000Z</time>
      </trkpt>
      <trkpt lat="43.11883" lon="3.06378">
        <ele>59.400001525879</ele>
        <time>2014-11-23T10:41:03.000Z</time>
      </trkpt>
      <trkpt lat="43.11878" lon="3.06361">
        <ele>59.400001525879</ele>
        <time>2014-11-23T10:41:08.000Z</time>
      </trkpt>
      <trkpt lat="43.11873" lon="3.0634">
        <ele>59.400001525879</ele>
        <time>2014-11-23T10:41:13.000Z</time>
      </trkpt>
      <trkpt lat="43.11865" lon="3.06314">
        <ele>59.400001525879</ele>
        <time>2014-11-23T10:41:19.000Z</time>
      </trkpt>
      <trkpt lat="43.11856" lon="3.06289">
        <ele>59.400001525879</ele>
        <time>2014-11-23T10:41:24.000Z</time>
      </trkpt>
      <trkpt lat="43.11854" lon="3.06278">
        <ele>59.400001525879</ele>
        <time>2014-11-23T10:41:26.000Z</time>
      </trkpt>
      <trkpt lat="43.11852" lon="3.06267">
        <ele>59.400001525879</ele>
        <time>2014-11-23T10:41:28.000Z</time>
      </trkpt>
      <trkpt lat="43.11846" lon="3.06249">
        <ele>59.400001525879</ele>
        <time>2014-11-23T10:41:32.000Z</time>
      </trkpt>
      <trkpt lat="43.11844" lon="3.06225">
        <ele>59.400001525879</ele>
        <time>2014-11-23T10:41:37.000Z</time>
      </trkpt>
      <trkpt lat="43.11845" lon="3.06216">
        <ele>59.400001525879</ele>
        <time>2014-11-23T10:41:40.000Z</time>
      </trkpt>
      <trkpt lat="43.11844" lon="3.06206">
        <ele>59.400001525879</ele>
        <time>2014-11-23T10:41:43.000Z</time>
      </trkpt>
      <trkpt lat="43.11845" lon="3.06203">
        <ele>59.400001525879</ele>
        <time>2014-11-23T10:41:44.000Z</time>
      </trkpt>
      <trkpt lat="43.11844" lon="3.06194">
        <ele>59.400001525879</ele>
        <time>2014-11-23T10:41:46.000Z</time>
      </trkpt>
      <trkpt lat="43.11842" lon="3.06189">
        <ele>59.400001525879</ele>
        <time>2014-11-23T10:41:47.000Z</time>
      </trkpt>
      <trkpt lat="43.11833" lon="3.06156">
        <ele>59.400001525879</ele>
        <time>2014-11-23T10:41:53.000Z</time>
      </trkpt>
      <trkpt lat="43.11832" lon="3.06144">
        <ele>59.400001525879</ele>
        <time>2014-11-23T10:41:55.000Z</time>
      </trkpt>
      <trkpt lat="43.1183" lon="3.06133">
        <ele>59.400001525879</ele>
        <time>2014-11-23T10:41:57.000Z</time>
      </trkpt>
      <trkpt lat="43.11828" lon="3.06128">
        <ele>59.400001525879</ele>
        <time>2014-11-23T10:41:58.000Z</time>
      </trkpt>
      <trkpt lat="43.11823" lon="3.06104">
        <ele>59.400001525879</ele>
        <time>2014-11-23T10:42:02.000Z</time>
      </trkpt>
      <trkpt lat="43.11827" lon="3.06087">
        <ele>59.400001525879</ele>
        <time>2014-11-23T10:42:05.000Z</time>
      </trkpt>
      <trkpt lat="43.11824" lon="3.06067">
        <ele>59.400001525879</ele>
        <time>2014-11-23T10:42:08.000Z</time>
      </trkpt>
      <trkpt lat="43.11823" lon="3.0606">
        <ele>59.400001525879</ele>
        <time>2014-11-23T10:42:09.000Z</time>
      </trkpt>
      <trkpt lat="43.11818" lon="3.06039">
        <ele>59.400001525879</ele>
        <time>2014-11-23T10:42:12.000Z</time>
      </trkpt>
      <trkpt lat="43.11816" lon="3.06029">
        <ele>59.400001525879</ele>
        <time>2014-11-23T10:42:15.000Z</time>
      </trkpt>
      <trkpt lat="43.11814" lon="3.06026">
        <ele>59.400001525879</ele>
        <time>2014-11-23T10:42:16.000Z</time>
      </trkpt>
      <trkpt lat="43.11809" lon="3.06021">
        <ele>59</ele>
        <time>2014-11-23T10:42:18.000Z</time>
      </trkpt>
      <trkpt lat="43.11805" lon="3.0602">
        <ele>58.599998474121</ele>
        <time>2014-11-23T10:42:19.000Z</time>
      </trkpt>
      <trkpt lat="43.118" lon="3.06019">
        <ele>58.200000762939</ele>
        <time>2014-11-23T10:42:20.000Z</time>
      </trkpt>
      <trkpt lat="43.11798" lon="3.06018">
        <ele>57.799999237061</ele>
        <time>2014-11-23T10:42:21.000Z</time>
      </trkpt>
      <trkpt lat="43.11795" lon="3.06017">
        <ele>57.400001525879</ele>
        <time>2014-11-23T10:42:22.000Z</time>
      </trkpt>
      <trkpt lat="43.11791" lon="3.06014">
        <ele>57</ele>
        <time>2014-11-23T10:42:26.000Z</time>
      </trkpt>
      <trkpt lat="43.1179" lon="3.06014">
        <ele>56.599998474121</ele>
        <time>2014-11-23T10:42:27.000Z</time>
      </trkpt>
      <trkpt lat="43.1179" lon="3.06014">
        <ele>55.599998474121</ele>
        <time>2014-11-23T10:42:28.000Z</time>
      </trkpt>
      <trkpt lat="43.11789" lon="3.0601">
        <ele>55.200000762939</ele>
        <time>2014-11-23T10:42:46.000Z</time>
      </trkpt>
      <trkpt lat="43.11788" lon="3.06009">
        <ele>55.200000762939</ele>
        <time>2014-11-23T10:42:47.000Z</time>
      </trkpt>
      <trkpt lat="43.11779" lon="3.06006">
        <ele>55.200000762939</ele>
        <time>2014-11-23T10:42:52.000Z</time>
      </trkpt>
      <trkpt lat="43.11777" lon="3.06005">
        <ele>54.400001525879</ele>
        <time>2014-11-23T10:42:53.000Z</time>
      </trkpt>
      <trkpt lat="43.11775" lon="3.06004">
        <ele>54</ele>
        <time>2014-11-23T10:42:54.000Z</time>
      </trkpt>
      <trkpt lat="43.11773" lon="3.06003">
        <ele>53.599998474121</ele>
        <time>2014-11-23T10:42:55.000Z</time>
      </trkpt>
      <trkpt lat="43.11771" lon="3.06003">
        <ele>53</ele>
        <time>2014-11-23T10:42:56.000Z</time>
      </trkpt>
      <trkpt lat="43.11769" lon="3.06003">
        <ele>52.599998474121</ele>
        <time>2014-11-23T10:42:57.000Z</time>
      </trkpt>
      <trkpt lat="43.11768" lon="3.06003">
        <ele>52</ele>
        <time>2014-11-23T10:42:58.000Z</time>
      </trkpt>
      <trkpt lat="43.11766" lon="3.06002">
        <ele>51.599998474121</ele>
        <time>2014-11-23T10:42:59.000Z</time>
      </trkpt>
      <trkpt lat="43.11765" lon="3.06001">
        <ele>51</ele>
        <time>2014-11-23T10:43:00.000Z</time>
      </trkpt>
      <trkpt lat="43.11764" lon="3.05999">
        <ele>50.599998474121</ele>
        <time>2014-11-23T10:43:01.000Z</time>
      </trkpt>
      <trkpt lat="43.11763" lon="3.05998">
        <ele>50</ele>
        <time>2014-11-23T10:43:02.000Z</time>
      </trkpt>
      <trkpt lat="43.11761" lon="3.05996">
        <ele>49.400001525879</ele>
        <time>2014-11-23T10:43:03.000Z</time>
      </trkpt>
      <trkpt lat="43.1176" lon="3.05995">
        <ele>49</ele>
        <time>2014-11-23T10:43:04.000Z</time>
      </trkpt>
      <trkpt lat="43.11756" lon="3.05992">
        <ele>48.400001525879</ele>
        <time>2014-11-23T10:43:07.000Z</time>
      </trkpt>
      <trkpt lat="43.11754" lon="3.05992">
        <ele>48</ele>
        <time>2014-11-23T10:43:08.000Z</time>
      </trkpt>
      <trkpt lat="43.11753" lon="3.05991">
        <ele>47.400001525879</ele>
        <time>2014-11-23T10:43:09.000Z</time>
      </trkpt>
      <trkpt lat="43.11752" lon="3.0599">
        <ele>47</ele>
        <time>2014-11-23T10:43:10.000Z</time>
      </trkpt>
      <trkpt lat="43.1175" lon="3.05988">
        <ele>46.400001525879</ele>
        <time>2014-11-23T10:43:11.000Z</time>
      </trkpt>
      <trkpt lat="43.11747" lon="3.05988">
        <ele>46</ele>
        <time>2014-11-23T10:43:12.000Z</time>
      </trkpt>
      <trkpt lat="43.11745" lon="3.05986">
        <ele>45.599998474121</ele>
        <time>2014-11-23T10:43:13.000Z</time>
      </trkpt>
      <trkpt lat="43.11743" lon="3.05985">
        <ele>45.200000762939</ele>
        <time>2014-11-23T10:43:14.000Z</time>
      </trkpt>
      <trkpt lat="43.11742" lon="3.05985">
        <ele>44.799999237061</ele>
        <time>2014-11-23T10:43:15.000Z</time>
      </trkpt>
      <trkpt lat="43.11741" lon="3.05984">
        <ele>44.400001525879</ele>
        <time>2014-11-23T10:43:16.000Z</time>
      </trkpt>
      <trkpt lat="43.11739" lon="3.05983">
        <ele>43.400001525879</ele>
        <time>2014-11-23T10:43:17.000Z</time>
      </trkpt>
      <trkpt lat="43.11738" lon="3.05982">
        <ele>43</ele>
        <time>2014-11-23T10:43:18.000Z</time>
      </trkpt>
      <trkpt lat="43.11735" lon="3.05982">
        <ele>42.599998474121</ele>
        <time>2014-11-23T10:43:19.000Z</time>
      </trkpt>
      <trkpt lat="43.11733" lon="3.05983">
        <ele>42</ele>
        <time>2014-11-23T10:43:20.000Z</time>
      </trkpt>
      <trkpt lat="43.11731" lon="3.05985">
        <ele>41.400001525879</ele>
        <time>2014-11-23T10:43:21.000Z</time>
      </trkpt>
      <trkpt lat="43.11728" lon="3.05986">
        <ele>41</ele>
        <time>2014-11-23T10:43:22.000Z</time>
      </trkpt>
      <trkpt lat="43.11727" lon="3.05987">
        <ele>40.400001525879</ele>
        <time>2014-11-23T10:43:23.000Z</time>
      </trkpt>
      <trkpt lat="43.11726" lon="3.05989">
        <ele>39.799999237061</ele>
        <time>2014-11-23T10:43:24.000Z</time>
      </trkpt>
      <trkpt lat="43.11724" lon="3.0599">
        <ele>39.200000762939</ele>
        <time>2014-11-23T10:43:25.000Z</time>
      </trkpt>
      <trkpt lat="43.11724" lon="3.05991">
        <ele>38.599998474121</ele>
        <time>2014-11-23T10:43:26.000Z</time>
      </trkpt>
      <trkpt lat="43.11723" lon="3.05992">
        <ele>38</ele>
        <time>2014-11-23T10:43:27.000Z</time>
      </trkpt>
      <trkpt lat="43.11722" lon="3.05993">
        <ele>37.400001525879</ele>
        <time>2014-11-23T10:43:28.000Z</time>
      </trkpt>
      <trkpt lat="43.11721" lon="3.05995">
        <ele>37.400001525879</ele>
        <time>2014-11-23T10:43:29.000Z</time>
      </trkpt>
      <trkpt lat="43.11715" lon="3.06">
        <ele>37</ele>
        <time>2014-11-23T10:43:31.000Z</time>
      </trkpt>
      <trkpt lat="43.11712" lon="3.06001">
        <ele>36.599998474121</ele>
        <time>2014-11-23T10:43:32.000Z</time>
      </trkpt>
      <trkpt lat="43.11709" lon="3.06002">
        <ele>36</ele>
        <time>2014-11-23T10:43:33.000Z</time>
      </trkpt>
      <trkpt lat="43.11706" lon="3.06003">
        <ele>35.400001525879</ele>
        <time>2014-11-23T10:43:34.000Z</time>
      </trkpt>
      <trkpt lat="43.11703" lon="3.06004">
        <ele>34.799999237061</ele>
        <time>2014-11-23T10:43:35.000Z</time>
      </trkpt>
      <trkpt lat="43.11701" lon="3.06005">
        <ele>34.200000762939</ele>
        <time>2014-11-23T10:43:36.000Z</time>
      </trkpt>
      <trkpt lat="43.11698" lon="3.06007">
        <ele>33.599998474121</ele>
        <time>2014-11-23T10:43:37.000Z</time>
      </trkpt>
      <trkpt lat="43.11696" lon="3.06008">
        <ele>33</ele>
        <time>2014-11-23T10:43:38.000Z</time>
      </trkpt>
      <trkpt lat="43.11693" lon="3.0601">
        <ele>32.599998474121</ele>
        <time>2014-11-23T10:43:39.000Z</time>
      </trkpt>
      <trkpt lat="43.1169" lon="3.06012">
        <ele>32</ele>
        <time>2014-11-23T10:43:40.000Z</time>
      </trkpt>
      <trkpt lat="43.11686" lon="3.06013">
        <ele>31.200000762939</ele>
        <time>2014-11-23T10:43:41.000Z</time>
      </trkpt>
      <trkpt lat="43.11683" lon="3.06015">
        <ele>29.799999237061</ele>
        <time>2014-11-23T10:43:42.000Z</time>
      </trkpt>
      <trkpt lat="43.11678" lon="3.06015">
        <ele>29.200000762939</ele>
        <time>2014-11-23T10:43:43.000Z</time>
      </trkpt>
      <trkpt lat="43.11675" lon="3.06015">
        <ele>28.39999961853</ele>
        <time>2014-11-23T10:43:44.000Z</time>
      </trkpt>
      <trkpt lat="43.11671" lon="3.06016">
        <ele>27.799999237061</ele>
        <time>2014-11-23T10:43:45.000Z</time>
      </trkpt>
      <trkpt lat="43.11667" lon="3.06018">
        <ele>27.200000762939</ele>
        <time>2014-11-23T10:43:46.000Z</time>
      </trkpt>
      <trkpt lat="43.11664" lon="3.0602">
        <ele>26.39999961853</ele>
        <time>2014-11-23T10:43:47.000Z</time>
      </trkpt>
      <trkpt lat="43.11661" lon="3.06023">
        <ele>25.60000038147</ele>
        <time>2014-11-23T10:43:48.000Z</time>
      </trkpt>
      <trkpt lat="43.11658" lon="3.06026">
        <ele>24.60000038147</ele>
        <time>2014-11-23T10:43:49.000Z</time>
      </trkpt>
      <trkpt lat="43.11654" lon="3.0603">
        <ele>23.60000038147</ele>
        <time>2014-11-23T10:43:50.000Z</time>
      </trkpt>
      <trkpt lat="43.1165" lon="3.06036">
        <ele>22.799999237061</ele>
        <time>2014-11-23T10:43:51.000Z</time>
      </trkpt>
      <trkpt lat="43.11646" lon="3.06043">
        <ele>21.799999237061</ele>
        <time>2014-11-23T10:43:52.000Z</time>
      </trkpt>
      <trkpt lat="43.11643" lon="3.06048">
        <ele>21</ele>
        <time>2014-11-23T10:43:53.000Z</time>
      </trkpt>
      <trkpt lat="43.11639" lon="3.06053">
        <ele>20.200000762939</ele>
        <time>2014-11-23T10:43:54.000Z</time>
      </trkpt>
      <trkpt lat="43.11635" lon="3.06057">
        <ele>19.39999961853</ele>
        <time>2014-11-23T10:43:55.000Z</time>
      </trkpt>
      <trkpt lat="43.11631" lon="3.06061">
        <ele>18.60000038147</ele>
        <time>2014-11-23T10:43:56.000Z</time>
      </trkpt>
      <trkpt lat="43.11626" lon="3.06066">
        <ele>17.799999237061</ele>
        <time>2014-11-23T10:43:57.000Z</time>
      </trkpt>
      <trkpt lat="43.1162" lon="3.06067">
        <ele>17</ele>
        <time>2014-11-23T10:43:58.000Z</time>
      </trkpt>
      <trkpt lat="43.11614" lon="3.06068">
        <ele>16.200000762939</ele>
        <time>2014-11-23T10:43:59.000Z</time>
      </trkpt>
      <trkpt lat="43.11609" lon="3.06069">
        <ele>15.39999961853</ele>
        <time>2014-11-23T10:44:00.000Z</time>
      </trkpt>
      <trkpt lat="43.11603" lon="3.0607">
        <ele>14.60000038147</ele>
        <time>2014-11-23T10:44:01.000Z</time>
      </trkpt>
      <trkpt lat="43.11598" lon="3.06073">
        <ele>13.800000190735</ele>
        <time>2014-11-23T10:44:02.000Z</time>
      </trkpt>
      <trkpt lat="43.11592" lon="3.06077">
        <ele>13</ele>
        <time>2014-11-23T10:44:03.000Z</time>
      </trkpt>
      <trkpt lat="43.11585" lon="3.06081">
        <ele>12.199999809265</ele>
        <time>2014-11-23T10:44:04.000Z</time>
      </trkpt>
      <trkpt lat="43.11578" lon="3.06085">
        <ele>11.39999961853</ele>
        <time>2014-11-23T10:44:05.000Z</time>
      </trkpt>
      <trkpt lat="43.11572" lon="3.06089">
        <ele>10.60000038147</ele>
        <time>2014-11-23T10:44:06.000Z</time>
      </trkpt>
      <trkpt lat="43.11565" lon="3.06093">
        <ele>9.1999998092651</ele>
        <time>2014-11-23T10:44:07.000Z</time>
      </trkpt>
      <trkpt lat="43.11559" lon="3.06095">
        <ele>8.3999996185303</ele>
        <time>2014-11-23T10:44:08.000Z</time>
      </trkpt>
      <trkpt lat="43.11553" lon="3.06095">
        <ele>7.5999999046326</ele>
        <time>2014-11-23T10:44:09.000Z</time>
      </trkpt>
      <trkpt lat="43.11547" lon="3.06094">
        <ele>6.8000001907349</ele>
        <time>2014-11-23T10:44:10.000Z</time>
      </trkpt>
      <trkpt lat="43.11532" lon="3.06085">
        <ele>6.8000001907349</ele>
        <time>2014-11-23T10:44:13.000Z</time>
      </trkpt>
      <trkpt lat="43.11524" lon="3.0608">
        <ele>6.4000000953674</ele>
        <time>2014-11-23T10:44:15.000Z</time>
      </trkpt>
      <trkpt lat="43.11521" lon="3.06075">
        <ele>6</ele>
        <time>2014-11-23T10:44:16.000Z</time>
      </trkpt>
      <trkpt lat="43.11518" lon="3.0607">
        <ele>5.4000000953674</ele>
        <time>2014-11-23T10:44:17.000Z</time>
      </trkpt>
      <trkpt lat="43.11515" lon="3.06064">
        <ele>5</ele>
        <time>2014-11-23T10:44:18.000Z</time>
      </trkpt>
      <trkpt lat="43.1151" lon="3.0606">
        <ele>4.5999999046326</ele>
        <time>2014-11-23T10:44:19.000Z</time>
      </trkpt>
      <trkpt lat="43.11505" lon="3.06056">
        <ele>4.5999999046326</ele>
        <time>2014-11-23T10:44:20.000Z</time>
      </trkpt>
      <trkpt lat="43.115" lon="3.06052">
        <ele>4.5999999046326</ele>
        <time>2014-11-23T10:44:21.000Z</time>
      </trkpt>
      <trkpt lat="43.11492" lon="3.06046">
        <ele>4.5999999046326</ele>
        <time>2014-11-23T10:44:23.000Z</time>
      </trkpt>
      <trkpt lat="43.11491" lon="3.06047">
        <ele>4.5999999046326</ele>
        <time>2014-11-23T10:44:24.000Z</time>
      </trkpt>
      <trkpt lat="43.11491" lon="3.06047">
        <ele>4.5999999046326</ele>
        <time>2014-11-23T10:44:25.000Z</time>
      </trkpt>
      <trkpt lat="43.11488" lon="3.06047">
        <ele>4.5999999046326</ele>
        <time>2014-11-23T10:44:31.000Z</time>
      </trkpt>
      <trkpt lat="43.11487" lon="3.0605">
        <ele>4.5999999046326</ele>
        <time>2014-11-23T10:44:32.000Z</time>
      </trkpt>
      <trkpt lat="43.11484" lon="3.0606">
        <ele>4.5999999046326</ele>
        <time>2014-11-23T10:44:35.000Z</time>
      </trkpt>
      <trkpt lat="43.11482" lon="3.06081">
        <ele>4.5999999046326</ele>
        <time>2014-11-23T10:44:39.000Z</time>
      </trkpt>
      <trkpt lat="43.11481" lon="3.06086">
        <ele>4.5999999046326</ele>
        <time>2014-11-23T10:44:40.000Z</time>
      </trkpt>
      <trkpt lat="43.11477" lon="3.06097">
        <ele>4.5999999046326</ele>
        <time>2014-11-23T10:44:42.000Z</time>
      </trkpt>
      <trkpt lat="43.11477" lon="3.06109">
        <ele>4.5999999046326</ele>
        <time>2014-11-23T10:44:44.000Z</time>
      </trkpt>
      <trkpt lat="43.11477" lon="3.06128">
        <ele>4.5999999046326</ele>
        <time>2014-11-23T10:44:47.000Z</time>
      </trkpt>
      <trkpt lat="43.11483" lon="3.06139">
        <ele>4.5999999046326</ele>
        <time>2014-11-23T10:44:49.000Z</time>
      </trkpt>
      <trkpt lat="43.11489" lon="3.06148">
        <ele>4.5999999046326</ele>
        <time>2014-11-23T10:44:51.000Z</time>
      </trkpt>
      <trkpt lat="43.11491" lon="3.06153">
        <ele>4.5999999046326</ele>
        <time>2014-11-23T10:44:52.000Z</time>
      </trkpt>
      <trkpt lat="43.11492" lon="3.06166">
        <ele>4.5999999046326</ele>
        <time>2014-11-23T10:44:54.000Z</time>
      </trkpt>
      <trkpt lat="43.11491" lon="3.06177">
        <ele>4.5999999046326</ele>
        <time>2014-11-23T10:44:56.000Z</time>
      </trkpt>
      <trkpt lat="43.1149" lon="3.06187">
        <ele>4.5999999046326</ele>
        <time>2014-11-23T10:44:58.000Z</time>
      </trkpt>
      <trkpt lat="43.11491" lon="3.06209">
        <ele>4.5999999046326</ele>
        <time>2014-11-23T10:45:02.000Z</time>
      </trkpt>
      <trkpt lat="43.11489" lon="3.06231">
        <ele>4.5999999046326</ele>
        <time>2014-11-23T10:45:06.000Z</time>
      </trkpt>
      <trkpt lat="43.11489" lon="3.06237">
        <ele>4.5999999046326</ele>
        <time>2014-11-23T10:45:07.000Z</time>
      </trkpt>
      <trkpt lat="43.11486" lon="3.06267">
        <ele>4.5999999046326</ele>
        <time>2014-11-23T10:45:12.000Z</time>
      </trkpt>
      <trkpt lat="43.11483" lon="3.06271">
        <ele>4.5999999046326</ele>
        <time>2014-11-23T10:45:13.000Z</time>
      </trkpt>
      <trkpt lat="43.11472" lon="3.0628">
        <ele>4.5999999046326</ele>
        <time>2014-11-23T10:45:16.000Z</time>
      </trkpt>
      <trkpt lat="43.11468" lon="3.06284">
        <ele>4.5999999046326</ele>
        <time>2014-11-23T10:45:17.000Z</time>
      </trkpt>
      <trkpt lat="43.11458" lon="3.06293">
        <ele>4.5999999046326</ele>
        <time>2014-11-23T10:45:20.000Z</time>
      </trkpt>
      <trkpt lat="43.11442" lon="3.06305">
        <ele>4.5999999046326</ele>
        <time>2014-11-23T10:45:24.000Z</time>
      </trkpt>
      <trkpt lat="43.11427" lon="3.06318">
        <ele>4.5999999046326</ele>
        <time>2014-11-23T10:45:28.000Z</time>
      </trkpt>
      <trkpt lat="43.11424" lon="3.06322">
        <ele>4.5999999046326</ele>
        <time>2014-11-23T10:45:29.000Z</time>
      </trkpt>
      <trkpt lat="43.11418" lon="3.06332">
        <ele>4.5999999046326</ele>
        <time>2014-11-23T10:45:31.000Z</time>
      </trkpt>
      <trkpt lat="43.11414" lon="3.06358">
        <ele>4.5999999046326</ele>
        <time>2014-11-23T10:45:36.000Z</time>
      </trkpt>
      <trkpt lat="43.11422" lon="3.06379">
        <ele>4.5999999046326</ele>
        <time>2014-11-23T10:45:40.000Z</time>
      </trkpt>
      <trkpt lat="43.11423" lon="3.06385">
        <ele>4.5999999046326</ele>
        <time>2014-11-23T10:45:41.000Z</time>
      </trkpt>
      <trkpt lat="43.11422" lon="3.06398">
        <ele>4.5999999046326</ele>
        <time>2014-11-23T10:45:43.000Z</time>
      </trkpt>
      <trkpt lat="43.1141" lon="3.06415">
        <ele>4.5999999046326</ele>
        <time>2014-11-23T10:45:47.000Z</time>
      </trkpt>
      <trkpt lat="43.11391" lon="3.06424">
        <ele>4.5999999046326</ele>
        <time>2014-11-23T10:45:52.000Z</time>
      </trkpt>
      <trkpt lat="43.11378" lon="3.06429">
        <ele>4.5999999046326</ele>
        <time>2014-11-23T10:45:55.000Z</time>
      </trkpt>
      <trkpt lat="43.11373" lon="3.0643">
        <ele>4.5999999046326</ele>
        <time>2014-11-23T10:45:56.000Z</time>
      </trkpt>
      <trkpt lat="43.11369" lon="3.06432">
        <ele>4.5999999046326</ele>
        <time>2014-11-23T10:45:57.000Z</time>
      </trkpt>
      <trkpt lat="43.11355" lon="3.0644">
        <ele>4.5999999046326</ele>
        <time>2014-11-23T10:46:00.000Z</time>
      </trkpt>
      <trkpt lat="43.11343" lon="3.06447">
        <ele>4.5999999046326</ele>
        <time>2014-11-23T10:46:03.000Z</time>
      </trkpt>
      <trkpt lat="43.11322" lon="3.06461">
        <ele>4.5999999046326</ele>
        <time>2014-11-23T10:46:08.000Z</time>
      </trkpt>
      <trkpt lat="43.11316" lon="3.06471">
        <ele>4.5999999046326</ele>
        <time>2014-11-23T10:46:10.000Z</time>
      </trkpt>
      <trkpt lat="43.11314" lon="3.06476">
        <ele>4.5999999046326</ele>
        <time>2014-11-23T10:46:11.000Z</time>
      </trkpt>
      <trkpt lat="43.1131" lon="3.06487">
        <ele>4.5999999046326</ele>
        <time>2014-11-23T10:46:13.000Z</time>
      </trkpt>
      <trkpt lat="43.11304" lon="3.06497">
        <ele>4.5999999046326</ele>
        <time>2014-11-23T10:46:15.000Z</time>
      </trkpt>
      <trkpt lat="43.11294" lon="3.06509">
        <ele>4.5999999046326</ele>
        <time>2014-11-23T10:46:18.000Z</time>
      </trkpt>
      <trkpt lat="43.11277" lon="3.06518">
        <ele>4.5999999046326</ele>
        <time>2014-11-23T10:46:22.000Z</time>
      </trkpt>
      <trkpt lat="43.11268" lon="3.06523">
        <ele>4.5999999046326</ele>
        <time>2014-11-23T10:46:24.000Z</time>
      </trkpt>
      <trkpt lat="43.11253" lon="3.06533">
        <ele>4.5999999046326</ele>
        <time>2014-11-23T10:46:28.000Z</time>
      </trkpt>
      <trkpt lat="43.11249" lon="3.06536">
        <ele>4.5999999046326</ele>
        <time>2014-11-23T10:46:29.000Z</time>
      </trkpt>
      <trkpt lat="43.11243" lon="3.06543">
        <ele>4.5999999046326</ele>
        <time>2014-11-23T10:46:31.000Z</time>
      </trkpt>
      <trkpt lat="43.11238" lon="3.06553">
        <ele>4.5999999046326</ele>
        <time>2014-11-23T10:46:33.000Z</time>
      </trkpt>
      <trkpt lat="43.11234" lon="3.06575">
        <ele>4.5999999046326</ele>
        <time>2014-11-23T10:46:37.000Z</time>
      </trkpt>
      <trkpt lat="43.11232" lon="3.06586">
        <ele>4.5999999046326</ele>
        <time>2014-11-23T10:46:39.000Z</time>
      </trkpt>
      <trkpt lat="43.1123" lon="3.06608">
        <ele>4.5999999046326</ele>
        <time>2014-11-23T10:46:43.000Z</time>
      </trkpt>
      <trkpt lat="43.11231" lon="3.06614">
        <ele>4.1999998092651</ele>
        <time>2014-11-23T10:46:44.000Z</time>
      </trkpt>
      <trkpt lat="43.11232" lon="3.0662">
        <ele>3.7999999523163</ele>
        <time>2014-11-23T10:46:45.000Z</time>
      </trkpt>
      <trkpt lat="43.11233" lon="3.06625">
        <ele>3.4000000953674</ele>
        <time>2014-11-23T10:46:46.000Z</time>
      </trkpt>
      <trkpt lat="43.11235" lon="3.0663">
        <ele>3</ele>
        <time>2014-11-23T10:46:47.000Z</time>
      </trkpt>
      <trkpt lat="43.11236" lon="3.06635">
        <ele>2.5999999046326</ele>
        <time>2014-11-23T10:46:48.000Z</time>
      </trkpt>
      <trkpt lat="43.11239" lon="3.06646">
        <ele>2.5999999046326</ele>
        <time>2014-11-23T10:46:50.000Z</time>
      </trkpt>
      <trkpt lat="43.1124" lon="3.06651">
        <ele>2.5999999046326</ele>
        <time>2014-11-23T10:46:51.000Z</time>
      </trkpt>
      <trkpt lat="43.11251" lon="3.06661">
        <ele>2.5999999046326</ele>
        <time>2014-11-23T10:46:54.000Z</time>
      </trkpt>
      <trkpt lat="43.11257" lon="3.0667">
        <ele>2.5999999046326</ele>
        <time>2014-11-23T10:46:56.000Z</time>
      </trkpt>
      <trkpt lat="43.11265" lon="3.06683">
        <ele>2.5999999046326</ele>
        <time>2014-11-23T10:46:59.000Z</time>
      </trkpt>
      <trkpt lat="43.11277" lon="3.06712">
        <ele>2.5999999046326</ele>
        <time>2014-11-23T10:47:05.000Z</time>
      </trkpt>
      <trkpt lat="43.11276" lon="3.06729">
        <ele>2.5999999046326</ele>
        <time>2014-11-23T10:47:08.000Z</time>
      </trkpt>
      <trkpt lat="43.11275" lon="3.0674">
        <ele>2.5999999046326</ele>
        <time>2014-11-23T10:47:10.000Z</time>
      </trkpt>
      <trkpt lat="43.11276" lon="3.06751">
        <ele>2.5999999046326</ele>
        <time>2014-11-23T10:47:12.000Z</time>
      </trkpt>
      <trkpt lat="43.11274" lon="3.06779">
        <ele>2.5999999046326</ele>
        <time>2014-11-23T10:47:17.000Z</time>
      </trkpt>
      <trkpt lat="43.11267" lon="3.06805">
        <ele>2.5999999046326</ele>
        <time>2014-11-23T10:47:23.000Z</time>
      </trkpt>
      <trkpt lat="43.1126" lon="3.06811">
        <ele>2.5999999046326</ele>
        <time>2014-11-23T10:47:26.000Z</time>
      </trkpt>
      <trkpt lat="43.11258" lon="3.0681">
        <ele>2.5999999046326</ele>
        <time>2014-11-23T10:47:27.000Z</time>
      </trkpt>
      <trkpt lat="43.11248" lon="3.06796">
        <ele>2.5999999046326</ele>
        <time>2014-11-23T10:47:31.000Z</time>
      </trkpt>
      <trkpt lat="43.11231" lon="3.06771">
        <ele>2.5999999046326</ele>
        <time>2014-11-23T10:47:38.000Z</time>
      </trkpt>
      <trkpt lat="43.11218" lon="3.06753">
        <ele>2.5999999046326</ele>
        <time>2014-11-23T10:47:43.000Z</time>
      </trkpt>
      <trkpt lat="43.11198" lon="3.06725">
        <ele>2.5999999046326</ele>
        <time>2014-11-23T10:47:50.000Z</time>
      </trkpt>
      <trkpt lat="43.11186" lon="3.06706">
        <ele>2.5999999046326</ele>
        <time>2014-11-23T10:47:54.000Z</time>
      </trkpt>
      <trkpt lat="43.11183" lon="3.06701">
        <ele>2.5999999046326</ele>
        <time>2014-11-23T10:47:55.000Z</time>
      </trkpt>
      <trkpt lat="43.11175" lon="3.06691">
        <ele>2.5999999046326</ele>
        <time>2014-11-23T10:47:57.000Z</time>
      </trkpt>
      <trkpt lat="43.11164" lon="3.06676">
        <ele>2.5999999046326</ele>
        <time>2014-11-23T10:48:00.000Z</time>
      </trkpt>
      <trkpt lat="43.1114" lon="3.0664">
        <ele>2.5999999046326</ele>
        <time>2014-11-23T10:48:07.000Z</time>
      </trkpt>
      <trkpt lat="43.11137" lon="3.06636">
        <ele>3</ele>
        <time>2014-11-23T10:48:08.000Z</time>
      </trkpt>
      <trkpt lat="43.11133" lon="3.06631">
        <ele>3.4000000953674</ele>
        <time>2014-11-23T10:48:09.000Z</time>
      </trkpt>
      <trkpt lat="43.1113" lon="3.06626">
        <ele>3.7999999523163</ele>
        <time>2014-11-23T10:48:10.000Z</time>
      </trkpt>
      <trkpt lat="43.11127" lon="3.0662">
        <ele>4.1999998092651</ele>
        <time>2014-11-23T10:48:11.000Z</time>
      </trkpt>
      <trkpt lat="43.11125" lon="3.06614">
        <ele>4.5999999046326</ele>
        <time>2014-11-23T10:48:12.000Z</time>
      </trkpt>
      <trkpt lat="43.11122" lon="3.06608">
        <ele>4.5999999046326</ele>
        <time>2014-11-23T10:48:13.000Z</time>
      </trkpt>
      <trkpt lat="43.11121" lon="3.06602">
        <ele>4.5999999046326</ele>
        <time>2014-11-23T10:48:14.000Z</time>
      </trkpt>
      <trkpt lat="43.11111" lon="3.06592">
        <ele>4.5999999046326</ele>
        <time>2014-11-23T10:48:17.000Z</time>
      </trkpt>
      <trkpt lat="43.11096" lon="3.06588">
        <ele>4.5999999046326</ele>
        <time>2014-11-23T10:48:21.000Z</time>
      </trkpt>
      <trkpt lat="43.11084" lon="3.06583">
        <ele>4.5999999046326</ele>
        <time>2014-11-23T10:48:25.000Z</time>
      </trkpt>
      <trkpt lat="43.11073" lon="3.06574">
        <ele>4.5999999046326</ele>
        <time>2014-11-23T10:48:28.000Z</time>
      </trkpt>
      <trkpt lat="43.11066" lon="3.06566">
        <ele>4.5999999046326</ele>
        <time>2014-11-23T10:48:30.000Z</time>
      </trkpt>
      <trkpt lat="43.11063" lon="3.06561">
        <ele>4.5999999046326</ele>
        <time>2014-11-23T10:48:31.000Z</time>
      </trkpt>
      <trkpt lat="43.11052" lon="3.06539">
        <ele>4.5999999046326</ele>
        <time>2014-11-23T10:48:35.000Z</time>
      </trkpt>
      <trkpt lat="43.11049" lon="3.06535">
        <ele>4.5999999046326</ele>
        <time>2014-11-23T10:48:36.000Z</time>
      </trkpt>
      <trkpt lat="43.11037" lon="3.06514">
        <ele>4.5999999046326</ele>
        <time>2014-11-23T10:48:40.000Z</time>
      </trkpt>
      <trkpt lat="43.11011" lon="3.06468">
        <ele>4.5999999046326</ele>
        <time>2014-11-23T10:48:48.000Z</time>
      </trkpt>
      <trkpt lat="43.10995" lon="3.06434">
        <ele>4.5999999046326</ele>
        <time>2014-11-23T10:48:54.000Z</time>
      </trkpt>
      <trkpt lat="43.10993" lon="3.06429">
        <ele>4.5999999046326</ele>
        <time>2014-11-23T10:48:55.000Z</time>
      </trkpt>
      <trkpt lat="43.10984" lon="3.0641">
        <ele>4.5999999046326</ele>
        <time>2014-11-23T10:48:59.000Z</time>
      </trkpt>
      <trkpt lat="43.10987" lon="3.0639">
        <ele>4.5999999046326</ele>
        <time>2014-11-23T10:49:02.000Z</time>
      </trkpt>
      <trkpt lat="43.10989" lon="3.06376">
        <ele>4.5999999046326</ele>
        <time>2014-11-23T10:49:04.000Z</time>
      </trkpt>
      <trkpt lat="43.10991" lon="3.06357">
        <ele>4.5999999046326</ele>
        <time>2014-11-23T10:49:07.000Z</time>
      </trkpt>
      <trkpt lat="43.10991" lon="3.06345">
        <ele>4.5999999046326</ele>
        <time>2014-11-23T10:49:09.000Z</time>
      </trkpt>
      <trkpt lat="43.10982" lon="3.06332">
        <ele>4.5999999046326</ele>
        <time>2014-11-23T10:49:12.000Z</time>
      </trkpt>
      <trkpt lat="43.10969" lon="3.06333">
        <ele>4.5999999046326</ele>
        <time>2014-11-23T10:49:15.000Z</time>
      </trkpt>
      <trkpt lat="43.10954" lon="3.06334">
        <ele>4.5999999046326</ele>
        <time>2014-11-23T10:49:18.000Z</time>
      </trkpt>
      <trkpt lat="43.10939" lon="3.06335">
        <ele>4.5999999046326</ele>
        <time>2014-11-23T10:49:21.000Z</time>
      </trkpt>
      <trkpt lat="43.10904" lon="3.06336">
        <ele>4.5999999046326</ele>
        <time>2014-11-23T10:49:28.000Z</time>
      </trkpt>
      <trkpt lat="43.10894" lon="3.06336">
        <ele>4.5999999046326</ele>
        <time>2014-11-23T10:49:30.000Z</time>
      </trkpt>
      <trkpt lat="43.1087" lon="3.06337">
        <ele>4.5999999046326</ele>
        <time>2014-11-23T10:49:36.000Z</time>
      </trkpt>
      <trkpt lat="43.10862" lon="3.06336">
        <ele>4.5999999046326</ele>
        <time>2014-11-23T10:49:38.000Z</time>
      </trkpt>
      <trkpt lat="43.10849" lon="3.0634">
        <ele>4.5999999046326</ele>
        <time>2014-11-23T10:49:41.000Z</time>
      </trkpt>
      <trkpt lat="43.10842" lon="3.06351">
        <ele>4.5999999046326</ele>
        <time>2014-11-23T10:49:44.000Z</time>
      </trkpt>
      <trkpt lat="43.10839" lon="3.06361">
        <ele>4.5999999046326</ele>
        <time>2014-11-23T10:49:46.000Z</time>
      </trkpt>
      <trkpt lat="43.10834" lon="3.06375">
        <ele>4.5999999046326</ele>
        <time>2014-11-23T10:49:49.000Z</time>
      </trkpt>
      <trkpt lat="43.10822" lon="3.06388">
        <ele>4.5999999046326</ele>
        <time>2014-11-23T10:49:54.000Z</time>
      </trkpt>
      <trkpt lat="43.10811" lon="3.06397">
        <ele>5</ele>
        <time>2014-11-23T10:49:58.000Z</time>
      </trkpt>
      <trkpt lat="43.10809" lon="3.06399">
        <ele>5.5999999046326</ele>
        <time>2014-11-23T10:49:59.000Z</time>
      </trkpt>
      <trkpt lat="43.10806" lon="3.06402">
        <ele>6</ele>
        <time>2014-11-23T10:50:00.000Z</time>
      </trkpt>
      <trkpt lat="43.10804" lon="3.06405">
        <ele>6.4000000953674</ele>
        <time>2014-11-23T10:50:01.000Z</time>
      </trkpt>
      <trkpt lat="43.10802" lon="3.06407">
        <ele>6.8000001907349</ele>
        <time>2014-11-23T10:50:02.000Z</time>
      </trkpt>
      <trkpt lat="43.10784" lon="3.0643">
        <ele>6.8000001907349</ele>
        <time>2014-11-23T10:50:09.000Z</time>
      </trkpt>
      <trkpt lat="43.10777" lon="3.06447">
        <ele>6.8000001907349</ele>
        <time>2014-11-23T10:50:14.000Z</time>
      </trkpt>
      <trkpt lat="43.10772" lon="3.06465">
        <ele>7.1999998092651</ele>
        <time>2014-11-23T10:50:19.000Z</time>
      </trkpt>
      <trkpt lat="43.10771" lon="3.06468">
        <ele>7.5999999046326</ele>
        <time>2014-11-23T10:50:20.000Z</time>
      </trkpt>
      <trkpt lat="43.1077" lon="3.06472">
        <ele>8</ele>
        <time>2014-11-23T10:50:21.000Z</time>
      </trkpt>
      <trkpt lat="43.10769" lon="3.06476">
        <ele>8.6000003814697</ele>
        <time>2014-11-23T10:50:22.000Z</time>
      </trkpt>
      <trkpt lat="43.10768" lon="3.06479">
        <ele>9</ele>
        <time>2014-11-23T10:50:23.000Z</time>
      </trkpt>
      <trkpt lat="43.10763" lon="3.06494">
        <ele>9</ele>
        <time>2014-11-23T10:50:27.000Z</time>
      </trkpt>
      <trkpt lat="43.10757" lon="3.06516">
        <ele>9</ele>
        <time>2014-11-23T10:50:33.000Z</time>
      </trkpt>
      <trkpt lat="43.10755" lon="3.06522">
        <ele>9.3999996185303</ele>
        <time>2014-11-23T10:50:35.000Z</time>
      </trkpt>
      <trkpt lat="43.10753" lon="3.06525">
        <ele>10</ele>
        <time>2014-11-23T10:50:36.000Z</time>
      </trkpt>
      <trkpt lat="43.10752" lon="3.06529">
        <ele>10.39999961853</ele>
        <time>2014-11-23T10:50:37.000Z</time>
      </trkpt>
      <trkpt lat="43.10752" lon="3.06532">
        <ele>10.800000190735</ele>
        <time>2014-11-23T10:50:38.000Z</time>
      </trkpt>
      <trkpt lat="43.10752" lon="3.06536">
        <ele>11.39999961853</ele>
        <time>2014-11-23T10:50:39.000Z</time>
      </trkpt>
      <trkpt lat="43.10752" lon="3.06557">
        <ele>11.800000190735</ele>
        <time>2014-11-23T10:50:45.000Z</time>
      </trkpt>
      <trkpt lat="43.10751" lon="3.0656">
        <ele>12.199999809265</ele>
        <time>2014-11-23T10:50:46.000Z</time>
      </trkpt>
      <trkpt lat="43.1075" lon="3.06563">
        <ele>12.60000038147</ele>
        <time>2014-11-23T10:50:47.000Z</time>
      </trkpt>
      <trkpt lat="43.1075" lon="3.06567">
        <ele>13</ele>
        <time>2014-11-23T10:50:48.000Z</time>
      </trkpt>
      <trkpt lat="43.10749" lon="3.06569">
        <ele>13.60000038147</ele>
        <time>2014-11-23T10:50:49.000Z</time>
      </trkpt>
      <trkpt lat="43.10747" lon="3.06579">
        <ele>13.60000038147</ele>
        <time>2014-11-23T10:50:52.000Z</time>
      </trkpt>
      <trkpt lat="43.10738" lon="3.06583">
        <ele>13.60000038147</ele>
        <time>2014-11-23T10:50:57.000Z</time>
      </trkpt>
      <trkpt lat="43.10731" lon="3.06575">
        <ele>13.60000038147</ele>
        <time>2014-11-23T10:51:01.000Z</time>
      </trkpt>
      <trkpt lat="43.10729" lon="3.06573">
        <ele>14</ele>
        <time>2014-11-23T10:51:02.000Z</time>
      </trkpt>
      <trkpt lat="43.10728" lon="3.06571">
        <ele>14.39999961853</ele>
        <time>2014-11-23T10:51:03.000Z</time>
      </trkpt>
      <trkpt lat="43.10727" lon="3.06568">
        <ele>15</ele>
        <time>2014-11-23T10:51:04.000Z</time>
      </trkpt>
      <trkpt lat="43.10726" lon="3.06567">
        <ele>15.39999961853</ele>
        <time>2014-11-23T10:51:05.000Z</time>
      </trkpt>
      <trkpt lat="43.10725" lon="3.06565">
        <ele>15.800000190735</ele>
        <time>2014-11-23T10:51:06.000Z</time>
      </trkpt>
      <trkpt lat="43.10724" lon="3.06564">
        <ele>16.39999961853</ele>
        <time>2014-11-23T10:51:07.000Z</time>
      </trkpt>
      <trkpt lat="43.10723" lon="3.06562">
        <ele>17.39999961853</ele>
        <time>2014-11-23T10:51:08.000Z</time>
      </trkpt>
      <trkpt lat="43.10722" lon="3.06561">
        <ele>18</ele>
        <time>2014-11-23T10:51:09.000Z</time>
      </trkpt>
      <trkpt lat="43.1072" lon="3.06557">
        <ele>18</ele>
        <time>2014-11-23T10:51:11.000Z</time>
      </trkpt>
      <trkpt lat="43.10718" lon="3.06552">
        <ele>18.39999961853</ele>
        <time>2014-11-23T10:51:13.000Z</time>
      </trkpt>
      <trkpt lat="43.10718" lon="3.06549">
        <ele>18.799999237061</ele>
        <time>2014-11-23T10:51:14.000Z</time>
      </trkpt>
      <trkpt lat="43.10718" lon="3.06547">
        <ele>19.200000762939</ele>
        <time>2014-11-23T10:51:15.000Z</time>
      </trkpt>
      <trkpt lat="43.10718" lon="3.06544">
        <ele>19.60000038147</ele>
        <time>2014-11-23T10:51:16.000Z</time>
      </trkpt>
      <trkpt lat="43.10718" lon="3.06542">
        <ele>20</ele>
        <time>2014-11-23T10:51:17.000Z</time>
      </trkpt>
      <trkpt lat="43.10718" lon="3.06537">
        <ele>20</ele>
        <time>2014-11-23T10:51:20.000Z</time>
      </trkpt>
      <trkpt lat="43.10717" lon="3.06534">
        <ele>20.39999961853</ele>
        <time>2014-11-23T10:51:21.000Z</time>
      </trkpt>
      <trkpt lat="43.10716" lon="3.06532">
        <ele>20.799999237061</ele>
        <time>2014-11-23T10:51:22.000Z</time>
      </trkpt>
      <trkpt lat="43.10715" lon="3.0653">
        <ele>21.200000762939</ele>
        <time>2014-11-23T10:51:23.000Z</time>
      </trkpt>
      <trkpt lat="43.10714" lon="3.06527">
        <ele>21.60000038147</ele>
        <time>2014-11-23T10:51:24.000Z</time>
      </trkpt>
      <trkpt lat="43.10713" lon="3.06525">
        <ele>22</ele>
        <time>2014-11-23T10:51:25.000Z</time>
      </trkpt>
      <trkpt lat="43.10711" lon="3.06524">
        <ele>22</ele>
        <time>2014-11-23T10:51:26.000Z</time>
      </trkpt>
      <trkpt lat="43.10704" lon="3.06519">
        <ele>22.39999961853</ele>
        <time>2014-11-23T10:51:29.000Z</time>
      </trkpt>
      <trkpt lat="43.10703" lon="3.06518">
        <ele>22.799999237061</ele>
        <time>2014-11-23T10:51:30.000Z</time>
      </trkpt>
      <trkpt lat="43.10701" lon="3.06518">
        <ele>23.200000762939</ele>
        <time>2014-11-23T10:51:31.000Z</time>
      </trkpt>
      <trkpt lat="43.107" lon="3.06515">
        <ele>24.200000762939</ele>
        <time>2014-11-23T10:51:32.000Z</time>
      </trkpt>
      <trkpt lat="43.10699" lon="3.06506">
        <ele>24.200000762939</ele>
        <time>2014-11-23T10:51:35.000Z</time>
      </trkpt>
      <trkpt lat="43.10698" lon="3.06501">
        <ele>24.60000038147</ele>
        <time>2014-11-23T10:51:37.000Z</time>
      </trkpt>
      <trkpt lat="43.10696" lon="3.06499">
        <ele>25</ele>
        <time>2014-11-23T10:51:38.000Z</time>
      </trkpt>
      <trkpt lat="43.10694" lon="3.06498">
        <ele>25.39999961853</ele>
        <time>2014-11-23T10:51:39.000Z</time>
      </trkpt>
      <trkpt lat="43.10692" lon="3.06498">
        <ele>25.799999237061</ele>
        <time>2014-11-23T10:51:40.000Z</time>
      </trkpt>
      <trkpt lat="43.10691" lon="3.06499">
        <ele>26.200000762939</ele>
        <time>2014-11-23T10:51:41.000Z</time>
      </trkpt>
      <trkpt lat="43.10685" lon="3.06504">
        <ele>26.200000762939</ele>
        <time>2014-11-23T10:51:45.000Z</time>
      </trkpt>
      <trkpt lat="43.10672" lon="3.06505">
        <ele>26.200000762939</ele>
        <time>2014-11-23T10:51:51.000Z</time>
      </trkpt>
      <trkpt lat="43.10666" lon="3.06502">
        <ele>26.60000038147</ele>
        <time>2014-11-23T10:51:54.000Z</time>
      </trkpt>
      <trkpt lat="43.10664" lon="3.06502">
        <ele>27</ele>
        <time>2014-11-23T10:51:55.000Z</time>
      </trkpt>
      <trkpt lat="43.10662" lon="3.06502">
        <ele>27.39999961853</ele>
        <time>2014-11-23T10:51:56.000Z</time>
      </trkpt>
      <trkpt lat="43.1066" lon="3.06503">
        <ele>28.200000762939</ele>
        <time>2014-11-23T10:51:57.000Z</time>
      </trkpt>
      <trkpt lat="43.10659" lon="3.06505">
        <ele>28.200000762939</ele>
        <time>2014-11-23T10:51:58.000Z</time>
      </trkpt>
      <trkpt lat="43.10654" lon="3.06513">
        <ele>28.200000762939</ele>
        <time>2014-11-23T10:52:03.000Z</time>
      </trkpt>
      <trkpt lat="43.10656" lon="3.06515">
        <ele>28.200000762939</ele>
        <time>2014-11-23T10:52:07.000Z</time>
      </trkpt>
      <trkpt lat="43.10655" lon="3.06509">
        <ele>28.200000762939</ele>
        <time>2014-11-23T10:52:11.000Z</time>
      </trkpt>
      <trkpt lat="43.10655" lon="3.06508">
        <ele>28.200000762939</ele>
        <time>2014-11-23T10:52:12.000Z</time>
      </trkpt>
      <trkpt lat="43.1066" lon="3.06504">
        <ele>28.200000762939</ele>
        <time>2014-11-23T10:52:16.000Z</time>
      </trkpt>
      <trkpt lat="43.1066" lon="3.06504">
        <ele>28.200000762939</ele>
        <time>2014-11-23T10:52:18.000Z</time>
      </trkpt>
      <trkpt lat="43.1066" lon="3.06501">
        <ele>28.200000762939</ele>
        <time>2014-11-23T10:52:33.000Z</time>
      </trkpt>
      <trkpt lat="43.10659" lon="3.06499">
        <ele>28.200000762939</ele>
        <time>2014-11-23T10:52:34.000Z</time>
      </trkpt>
      <trkpt lat="43.10656" lon="3.06504">
        <ele>28.200000762939</ele>
        <time>2014-11-23T10:52:37.000Z</time>
      </trkpt>
      <trkpt lat="43.10656" lon="3.06506">
        <ele>28.200000762939</ele>
        <time>2014-11-23T10:52:40.000Z</time>
      </trkpt>
      <trkpt lat="43.10656" lon="3.06509">
        <ele>28.200000762939</ele>
        <time>2014-11-23T10:52:53.000Z</time>
      </trkpt>
      <trkpt lat="43.10655" lon="3.06512">
        <ele>28.200000762939</ele>
        <time>2014-11-23T10:52:54.000Z</time>
      </trkpt>
      <trkpt lat="43.10649" lon="3.0653">
        <ele>28.200000762939</ele>
        <time>2014-11-23T10:52:59.000Z</time>
      </trkpt>
      <trkpt lat="43.10644" lon="3.06551">
        <ele>28.60000038147</ele>
        <time>2014-11-23T10:53:04.000Z</time>
      </trkpt>
      <trkpt lat="43.10644" lon="3.06554">
        <ele>29</ele>
        <time>2014-11-23T10:53:05.000Z</time>
      </trkpt>
      <trkpt lat="43.10643" lon="3.06557">
        <ele>29.60000038147</ele>
        <time>2014-11-23T10:53:06.000Z</time>
      </trkpt>
      <trkpt lat="43.10642" lon="3.06561">
        <ele>30</ele>
        <time>2014-11-23T10:53:07.000Z</time>
      </trkpt>
      <trkpt lat="43.10642" lon="3.06565">
        <ele>30.39999961853</ele>
        <time>2014-11-23T10:53:08.000Z</time>
      </trkpt>
      <trkpt lat="43.10641" lon="3.06582">
        <ele>30.39999961853</ele>
        <time>2014-11-23T10:53:12.000Z</time>
      </trkpt>
      <trkpt lat="43.10636" lon="3.06589">
        <ele>30.39999961853</ele>
        <time>2014-11-23T10:53:14.000Z</time>
      </trkpt>
      <trkpt lat="43.10633" lon="3.06591">
        <ele>30.39999961853</ele>
        <time>2014-11-23T10:53:15.000Z</time>
      </trkpt>
      <trkpt lat="43.10617" lon="3.06594">
        <ele>30.39999961853</ele>
        <time>2014-11-23T10:53:20.000Z</time>
      </trkpt>
      <trkpt lat="43.10597" lon="3.06596">
        <ele>30.39999961853</ele>
        <time>2014-11-23T10:53:27.000Z</time>
      </trkpt>
      <trkpt lat="43.10584" lon="3.06601">
        <ele>30.39999961853</ele>
        <time>2014-11-23T10:53:33.000Z</time>
      </trkpt>
      <trkpt lat="43.10566" lon="3.06606">
        <ele>30.39999961853</ele>
        <time>2014-11-23T10:53:40.000Z</time>
      </trkpt>
      <trkpt lat="43.10555" lon="3.06611">
        <ele>30.39999961853</ele>
        <time>2014-11-23T10:53:46.000Z</time>
      </trkpt>
      <trkpt lat="43.10541" lon="3.06614">
        <ele>30.39999961853</ele>
        <time>2014-11-23T10:53:52.000Z</time>
      </trkpt>
      <trkpt lat="43.10529" lon="3.06613">
        <ele>30.39999961853</ele>
        <time>2014-11-23T10:53:58.000Z</time>
      </trkpt>
      <trkpt lat="43.10523" lon="3.06609">
        <ele>31.200000762939</ele>
        <time>2014-11-23T10:54:01.000Z</time>
      </trkpt>
      <trkpt lat="43.10521" lon="3.06608">
        <ele>31.60000038147</ele>
        <time>2014-11-23T10:54:02.000Z</time>
      </trkpt>
      <trkpt lat="43.10518" lon="3.06607">
        <ele>32</ele>
        <time>2014-11-23T10:54:03.000Z</time>
      </trkpt>
      <trkpt lat="43.10516" lon="3.06606">
        <ele>32.400001525879</ele>
        <time>2014-11-23T10:54:04.000Z</time>
      </trkpt>
      <trkpt lat="43.10506" lon="3.066">
        <ele>32.400001525879</ele>
        <time>2014-11-23T10:54:10.000Z</time>
      </trkpt>
      <trkpt lat="43.10499" lon="3.06595">
        <ele>32.799999237061</ele>
        <time>2014-11-23T10:54:14.000Z</time>
      </trkpt>
      <trkpt lat="43.10498" lon="3.06594">
        <ele>33.200000762939</ele>
        <time>2014-11-23T10:54:15.000Z</time>
      </trkpt>
      <trkpt lat="43.10496" lon="3.06593">
        <ele>33.599998474121</ele>
        <time>2014-11-23T10:54:16.000Z</time>
      </trkpt>
      <trkpt lat="43.10495" lon="3.06592">
        <ele>34.200000762939</ele>
        <time>2014-11-23T10:54:17.000Z</time>
      </trkpt>
      <trkpt lat="43.10493" lon="3.06592">
        <ele>34.599998474121</ele>
        <time>2014-11-23T10:54:18.000Z</time>
      </trkpt>
      <trkpt lat="43.10487" lon="3.06593">
        <ele>34.599998474121</ele>
        <time>2014-11-23T10:54:21.000Z</time>
      </trkpt>
      <trkpt lat="43.10482" lon="3.06594">
        <ele>35</ele>
        <time>2014-11-23T10:54:24.000Z</time>
      </trkpt>
      <trkpt lat="43.1048" lon="3.06594">
        <ele>35.400001525879</ele>
        <time>2014-11-23T10:54:25.000Z</time>
      </trkpt>
      <trkpt lat="43.10478" lon="3.06594">
        <ele>36.200000762939</ele>
        <time>2014-11-23T10:54:26.000Z</time>
      </trkpt>
      <trkpt lat="43.10476" lon="3.06595">
        <ele>36.599998474121</ele>
        <time>2014-11-23T10:54:27.000Z</time>
      </trkpt>
      <trkpt lat="43.10473" lon="3.06596">
        <ele>36.599998474121</ele>
        <time>2014-11-23T10:54:29.000Z</time>
      </trkpt>
      <trkpt lat="43.1046" lon="3.066">
        <ele>36.599998474121</ele>
        <time>2014-11-23T10:54:35.000Z</time>
      </trkpt>
      <trkpt lat="43.10454" lon="3.06603">
        <ele>37</ele>
        <time>2014-11-23T10:54:38.000Z</time>
      </trkpt>
      <trkpt lat="43.10452" lon="3.06604">
        <ele>37.400001525879</ele>
        <time>2014-11-23T10:54:39.000Z</time>
      </trkpt>
      <trkpt lat="43.1045" lon="3.06605">
        <ele>38</ele>
        <time>2014-11-23T10:54:40.000Z</time>
      </trkpt>
      <trkpt lat="43.10448" lon="3.06605">
        <ele>38.400001525879</ele>
        <time>2014-11-23T10:54:41.000Z</time>
      </trkpt>
      <trkpt lat="43.10446" lon="3.06606">
        <ele>38.799999237061</ele>
        <time>2014-11-23T10:54:42.000Z</time>
      </trkpt>
      <trkpt lat="43.10434" lon="3.06612">
        <ele>38.799999237061</ele>
        <time>2014-11-23T10:54:48.000Z</time>
      </trkpt>
      <trkpt lat="43.10432" lon="3.06613">
        <ele>39.200000762939</ele>
        <time>2014-11-23T10:54:49.000Z</time>
      </trkpt>
      <trkpt lat="43.10429" lon="3.06614">
        <ele>39.599998474121</ele>
        <time>2014-11-23T10:54:50.000Z</time>
      </trkpt>
      <trkpt lat="43.10427" lon="3.06617">
        <ele>40.400001525879</ele>
        <time>2014-11-23T10:54:51.000Z</time>
      </trkpt>
      <trkpt lat="43.10425" lon="3.0662">
        <ele>40.799999237061</ele>
        <time>2014-11-23T10:54:52.000Z</time>
      </trkpt>
      <trkpt lat="43.10419" lon="3.06625">
        <ele>40.799999237061</ele>
        <time>2014-11-23T10:54:54.000Z</time>
      </trkpt>
      <trkpt lat="43.10409" lon="3.06634">
        <ele>40.799999237061</ele>
        <time>2014-11-23T10:54:59.000Z</time>
      </trkpt>
      <trkpt lat="43.10406" lon="3.06636">
        <ele>40.799999237061</ele>
        <time>2014-11-23T10:55:00.000Z</time>
      </trkpt>
      <trkpt lat="43.10403" lon="3.06642">
        <ele>40.799999237061</ele>
        <time>2014-11-23T10:55:04.000Z</time>
      </trkpt>
      <trkpt lat="43.10408" lon="3.06639">
        <ele>40.799999237061</ele>
        <time>2014-11-23T10:55:07.000Z</time>
      </trkpt>
      <trkpt lat="43.10405" lon="3.06633">
        <ele>40.799999237061</ele>
        <time>2014-11-23T10:55:10.000Z</time>
      </trkpt>
      <trkpt lat="43.10402" lon="3.06643">
        <ele>40.799999237061</ele>
        <time>2014-11-23T10:55:13.000Z</time>
      </trkpt>
      <trkpt lat="43.10401" lon="3.06648">
        <ele>40.799999237061</ele>
        <time>2014-11-23T10:55:14.000Z</time>
      </trkpt>
      <trkpt lat="43.10397" lon="3.0666">
        <ele>40.799999237061</ele>
        <time>2014-11-23T10:55:17.000Z</time>
      </trkpt>
      <trkpt lat="43.10394" lon="3.06662">
        <ele>40.799999237061</ele>
        <time>2014-11-23T10:55:18.000Z</time>
      </trkpt>
      <trkpt lat="43.1038" lon="3.06667">
        <ele>40.799999237061</ele>
        <time>2014-11-23T10:55:22.000Z</time>
      </trkpt>
      <trkpt lat="43.10376" lon="3.0667">
        <ele>40.799999237061</ele>
        <time>2014-11-23T10:55:23.000Z</time>
      </trkpt>
      <trkpt lat="43.10369" lon="3.06676">
        <ele>40.799999237061</ele>
        <time>2014-11-23T10:55:25.000Z</time>
      </trkpt>
      <trkpt lat="43.10361" lon="3.06678">
        <ele>40.799999237061</ele>
        <time>2014-11-23T10:55:27.000Z</time>
      </trkpt>
      <trkpt lat="43.10352" lon="3.06681">
        <ele>40.799999237061</ele>
        <time>2014-11-23T10:55:29.000Z</time>
      </trkpt>
      <trkpt lat="43.10342" lon="3.06695">
        <ele>40.799999237061</ele>
        <time>2014-11-23T10:55:32.000Z</time>
      </trkpt>
      <trkpt lat="43.10339" lon="3.0672">
        <ele>40.799999237061</ele>
        <time>2014-11-23T10:55:36.000Z</time>
      </trkpt>
      <trkpt lat="43.10338" lon="3.06734">
        <ele>40.400001525879</ele>
        <time>2014-11-23T10:55:38.000Z</time>
      </trkpt>
      <trkpt lat="43.10338" lon="3.0674">
        <ele>40</ele>
        <time>2014-11-23T10:55:39.000Z</time>
      </trkpt>
      <trkpt lat="43.10338" lon="3.06746">
        <ele>39.200000762939</ele>
        <time>2014-11-23T10:55:40.000Z</time>
      </trkpt>
      <trkpt lat="43.10339" lon="3.06754">
        <ele>38.799999237061</ele>
        <time>2014-11-23T10:55:41.000Z</time>
      </trkpt>
      <trkpt lat="43.10337" lon="3.06761">
        <ele>38.799999237061</ele>
        <time>2014-11-23T10:55:42.000Z</time>
      </trkpt>
      <trkpt lat="43.10338" lon="3.06785">
        <ele>38.799999237061</ele>
        <time>2014-11-23T10:55:46.000Z</time>
      </trkpt>
      <trkpt lat="43.10339" lon="3.06784">
        <ele>38.799999237061</ele>
        <time>2014-11-23T10:55:48.000Z</time>
      </trkpt>
      <trkpt lat="43.10337" lon="3.06779">
        <ele>38.799999237061</ele>
        <time>2014-11-23T10:55:55.000Z</time>
      </trkpt>
      <trkpt lat="43.10338" lon="3.06763">
        <ele>38.799999237061</ele>
        <time>2014-11-23T10:55:58.000Z</time>
      </trkpt>
      <trkpt lat="43.10339" lon="3.06745">
        <ele>38.799999237061</ele>
        <time>2014-11-23T10:56:01.000Z</time>
      </trkpt>
      <trkpt lat="43.10339" lon="3.06739">
        <ele>38.799999237061</ele>
        <time>2014-11-23T10:56:02.000Z</time>
      </trkpt>
      <trkpt lat="43.10341" lon="3.06705">
        <ele>38.799999237061</ele>
        <time>2014-11-23T10:56:08.000Z</time>
      </trkpt>
      <trkpt lat="43.10344" lon="3.06684">
        <ele>38.799999237061</ele>
        <time>2014-11-23T10:56:13.000Z</time>
      </trkpt>
      <trkpt lat="43.10339" lon="3.06684">
        <ele>38.799999237061</ele>
        <time>2014-11-23T10:56:16.000Z</time>
      </trkpt>
      <trkpt lat="43.10342" lon="3.06692">
        <ele>38.799999237061</ele>
        <time>2014-11-23T10:56:19.000Z</time>
      </trkpt>
      <trkpt lat="43.10338" lon="3.0671">
        <ele>38.799999237061</ele>
        <time>2014-11-23T10:56:23.000Z</time>
      </trkpt>
      <trkpt lat="43.10337" lon="3.06714">
        <ele>38.799999237061</ele>
        <time>2014-11-23T10:56:24.000Z</time>
      </trkpt>
      <trkpt lat="43.10331" lon="3.06719">
        <ele>38.799999237061</ele>
        <time>2014-11-23T10:56:26.000Z</time>
      </trkpt>
      <trkpt lat="43.10327" lon="3.06719">
        <ele>38.799999237061</ele>
        <time>2014-11-23T10:56:27.000Z</time>
      </trkpt>
      <trkpt lat="43.10318" lon="3.06713">
        <ele>38.799999237061</ele>
        <time>2014-11-23T10:56:30.000Z</time>
      </trkpt>
      <trkpt lat="43.10315" lon="3.06712">
        <ele>38.799999237061</ele>
        <time>2014-11-23T10:56:31.000Z</time>
      </trkpt>
      <trkpt lat="43.1031" lon="3.06712">
        <ele>38.799999237061</ele>
        <time>2014-11-23T10:56:33.000Z</time>
      </trkpt>
      <trkpt lat="43.10305" lon="3.0671">
        <ele>38.799999237061</ele>
        <time>2014-11-23T10:56:35.000Z</time>
      </trkpt>
      <trkpt lat="43.10299" lon="3.06706">
        <ele>38.799999237061</ele>
        <time>2014-11-23T10:56:39.000Z</time>
      </trkpt>
      <trkpt lat="43.10294" lon="3.06707">
        <ele>38.799999237061</ele>
        <time>2014-11-23T10:56:42.000Z</time>
      </trkpt>
      <trkpt lat="43.10291" lon="3.06705">
        <ele>38.799999237061</ele>
        <time>2014-11-23T10:56:44.000Z</time>
      </trkpt>
      <trkpt lat="43.10289" lon="3.06704">
        <ele>38.799999237061</ele>
        <time>2014-11-23T10:56:45.000Z</time>
      </trkpt>
      <trkpt lat="43.10283" lon="3.06703">
        <ele>38.799999237061</ele>
        <time>2014-11-23T10:56:50.000Z</time>
      </trkpt>
      <trkpt lat="43.10283" lon="3.06703">
        <ele>38.799999237061</ele>
        <time>2014-11-23T10:56:51.000Z</time>
      </trkpt>
      <trkpt lat="43.10276" lon="3.06701">
        <ele>38.799999237061</ele>
        <time>2014-11-23T10:57:49.000Z</time>
      </trkpt>
      <trkpt lat="43.10273" lon="3.06701">
        <ele>38.799999237061</ele>
        <time>2014-11-23T10:57:50.000Z</time>
      </trkpt>
      <trkpt lat="43.1026" lon="3.06693">
        <ele>38.799999237061</ele>
        <time>2014-11-23T10:57:54.000Z</time>
      </trkpt>
      <trkpt lat="43.10253" lon="3.06686">
        <ele>38.799999237061</ele>
        <time>2014-11-23T10:57:56.000Z</time>
      </trkpt>
      <trkpt lat="43.10246" lon="3.0668">
        <ele>38.799999237061</ele>
        <time>2014-11-23T10:57:58.000Z</time>
      </trkpt>
      <trkpt lat="43.10241" lon="3.06679">
        <ele>38.799999237061</ele>
        <time>2014-11-23T10:57:59.000Z</time>
      </trkpt>
      <trkpt lat="43.10233" lon="3.06673">
        <ele>38.799999237061</ele>
        <time>2014-11-23T10:58:01.000Z</time>
      </trkpt>
      <trkpt lat="43.10219" lon="3.06667">
        <ele>38.799999237061</ele>
        <time>2014-11-23T10:58:04.000Z</time>
      </trkpt>
      <trkpt lat="43.1021" lon="3.06662">
        <ele>38.799999237061</ele>
        <time>2014-11-23T10:58:06.000Z</time>
      </trkpt>
      <trkpt lat="43.10197" lon="3.06656">
        <ele>38.799999237061</ele>
        <time>2014-11-23T10:58:09.000Z</time>
      </trkpt>
      <trkpt lat="43.10193" lon="3.06652">
        <ele>38.799999237061</ele>
        <time>2014-11-23T10:58:10.000Z</time>
      </trkpt>
      <trkpt lat="43.10177" lon="3.06638">
        <ele>38.799999237061</ele>
        <time>2014-11-23T10:58:14.000Z</time>
      </trkpt>
      <trkpt lat="43.10169" lon="3.06628">
        <ele>38.799999237061</ele>
        <time>2014-11-23T10:58:18.000Z</time>
      </trkpt>
      <trkpt lat="43.10162" lon="3.0662">
        <ele>38.799999237061</ele>
        <time>2014-11-23T10:58:22.000Z</time>
      </trkpt>
      <trkpt lat="43.1015" lon="3.06611">
        <ele>38.799999237061</ele>
        <time>2014-11-23T10:58:27.000Z</time>
      </trkpt>
      <trkpt lat="43.10148" lon="3.06607">
        <ele>38.799999237061</ele>
        <time>2014-11-23T10:58:28.000Z</time>
      </trkpt>
      <trkpt lat="43.10145" lon="3.06604">
        <ele>39.200000762939</ele>
        <time>2014-11-23T10:58:30.000Z</time>
      </trkpt>
      <trkpt lat="43.10143" lon="3.06601">
        <ele>39.599998474121</ele>
        <time>2014-11-23T10:58:31.000Z</time>
      </trkpt>
      <trkpt lat="43.10142" lon="3.066">
        <ele>40</ele>
        <time>2014-11-23T10:58:32.000Z</time>
      </trkpt>
      <trkpt lat="43.10141" lon="3.06599">
        <ele>40.400001525879</ele>
        <time>2014-11-23T10:58:33.000Z</time>
      </trkpt>
      <trkpt lat="43.10139" lon="3.06598">
        <ele>40.799999237061</ele>
        <time>2014-11-23T10:58:34.000Z</time>
      </trkpt>
      <trkpt lat="43.10137" lon="3.06599">
        <ele>40.799999237061</ele>
        <time>2014-11-23T10:58:35.000Z</time>
      </trkpt>
      <trkpt lat="43.10135" lon="3.06598">
        <ele>40.799999237061</ele>
        <time>2014-11-23T10:58:36.000Z</time>
      </trkpt>
      <trkpt lat="43.10127" lon="3.06592">
        <ele>40.799999237061</ele>
        <time>2014-11-23T10:58:40.000Z</time>
      </trkpt>
      <trkpt lat="43.1012" lon="3.06584">
        <ele>41.200000762939</ele>
        <time>2014-11-23T10:58:44.000Z</time>
      </trkpt>
      <trkpt lat="43.10117" lon="3.06584">
        <ele>41.599998474121</ele>
        <time>2014-11-23T10:58:45.000Z</time>
      </trkpt>
      <trkpt lat="43.10115" lon="3.06582">
        <ele>42.200000762939</ele>
        <time>2014-11-23T10:58:46.000Z</time>
      </trkpt>
      <trkpt lat="43.10112" lon="3.06581">
        <ele>42.599998474121</ele>
        <time>2014-11-23T10:58:47.000Z</time>
      </trkpt>
      <trkpt lat="43.1011" lon="3.0658">
        <ele>43</ele>
        <time>2014-11-23T10:58:48.000Z</time>
      </trkpt>
      <trkpt lat="43.101" lon="3.06574">
        <ele>43</ele>
        <time>2014-11-23T10:58:51.000Z</time>
      </trkpt>
      <trkpt lat="43.1008" lon="3.06563">
        <ele>43</ele>
        <time>2014-11-23T10:58:58.000Z</time>
      </trkpt>
      <trkpt lat="43.10078" lon="3.0656">
        <ele>43</ele>
        <time>2014-11-23T10:58:59.000Z</time>
      </trkpt>
      <trkpt lat="43.10071" lon="3.06556">
        <ele>43</ele>
        <time>2014-11-23T10:59:02.000Z</time>
      </trkpt>
      <trkpt lat="43.10069" lon="3.06554">
        <ele>43.400001525879</ele>
        <time>2014-11-23T10:59:03.000Z</time>
      </trkpt>
      <trkpt lat="43.10066" lon="3.06552">
        <ele>43.799999237061</ele>
        <time>2014-11-23T10:59:04.000Z</time>
      </trkpt>
      <trkpt lat="43.10064" lon="3.06554">
        <ele>44.200000762939</ele>
        <time>2014-11-23T10:59:05.000Z</time>
      </trkpt>
      <trkpt lat="43.10061" lon="3.06556">
        <ele>44.599998474121</ele>
        <time>2014-11-23T10:59:06.000Z</time>
      </trkpt>
      <trkpt lat="43.10059" lon="3.06557">
        <ele>45</ele>
        <time>2014-11-23T10:59:07.000Z</time>
      </trkpt>
      <trkpt lat="43.10048" lon="3.06555">
        <ele>45</ele>
        <time>2014-11-23T10:59:11.000Z</time>
      </trkpt>
      <trkpt lat="43.10045" lon="3.06555">
        <ele>45</ele>
        <time>2014-11-23T10:59:12.000Z</time>
      </trkpt>
      <trkpt lat="43.10026" lon="3.06552">
        <ele>45</ele>
        <time>2014-11-23T10:59:18.000Z</time>
      </trkpt>
      <trkpt lat="43.10004" lon="3.06556">
        <ele>45</ele>
        <time>2014-11-23T10:59:24.000Z</time>
      </trkpt>
      <trkpt lat="43.09984" lon="3.0656">
        <ele>45.400001525879</ele>
        <time>2014-11-23T10:59:30.000Z</time>
      </trkpt>
      <trkpt lat="43.0998" lon="3.0656">
        <ele>45.799999237061</ele>
        <time>2014-11-23T10:59:31.000Z</time>
      </trkpt>
      <trkpt lat="43.09977" lon="3.06561">
        <ele>46.200000762939</ele>
        <time>2014-11-23T10:59:32.000Z</time>
      </trkpt>
      <trkpt lat="43.09973" lon="3.0656">
        <ele>46.599998474121</ele>
        <time>2014-11-23T10:59:33.000Z</time>
      </trkpt>
      <trkpt lat="43.0997" lon="3.0656">
        <ele>47.200000762939</ele>
        <time>2014-11-23T10:59:34.000Z</time>
      </trkpt>
      <trkpt lat="43.09965" lon="3.0656">
        <ele>47.200000762939</ele>
        <time>2014-11-23T10:59:36.000Z</time>
      </trkpt>
      <trkpt lat="43.0996" lon="3.0656">
        <ele>47.200000762939</ele>
        <time>2014-11-23T10:59:40.000Z</time>
      </trkpt>
      <trkpt lat="43.09957" lon="3.06558">
        <ele>47.200000762939</ele>
        <time>2014-11-23T11:00:18.000Z</time>
      </trkpt>
      <trkpt lat="43.0994" lon="3.06544">
        <ele>47.200000762939</ele>
        <time>2014-11-23T11:00:24.000Z</time>
      </trkpt>
      <trkpt lat="43.0992" lon="3.06525">
        <ele>47.200000762939</ele>
        <time>2014-11-23T11:00:30.000Z</time>
      </trkpt>
      <trkpt lat="43.09907" lon="3.06512">
        <ele>47.200000762939</ele>
        <time>2014-11-23T11:00:33.000Z</time>
      </trkpt>
      <trkpt lat="43.09902" lon="3.06504">
        <ele>47.200000762939</ele>
        <time>2014-11-23T11:00:35.000Z</time>
      </trkpt>
      <trkpt lat="43.09892" lon="3.06492">
        <ele>47.200000762939</ele>
        <time>2014-11-23T11:00:39.000Z</time>
      </trkpt>
      <trkpt lat="43.09881" lon="3.06473">
        <ele>47.200000762939</ele>
        <time>2014-11-23T11:00:43.000Z</time>
      </trkpt>
      <trkpt lat="43.09878" lon="3.06468">
        <ele>47.200000762939</ele>
        <time>2014-11-23T11:00:44.000Z</time>
      </trkpt>
      <trkpt lat="43.09876" lon="3.06457">
        <ele>47.200000762939</ele>
        <time>2014-11-23T11:00:46.000Z</time>
      </trkpt>
      <trkpt lat="43.09868" lon="3.0645">
        <ele>47.200000762939</ele>
        <time>2014-11-23T11:00:49.000Z</time>
      </trkpt>
      <trkpt lat="43.09866" lon="3.0645">
        <ele>47.200000762939</ele>
        <time>2014-11-23T11:00:50.000Z</time>
      </trkpt>
      <trkpt lat="43.09852" lon="3.06446">
        <ele>47.200000762939</ele>
        <time>2014-11-23T11:00:55.000Z</time>
      </trkpt>
      <trkpt lat="43.09842" lon="3.06436">
        <ele>47.200000762939</ele>
        <time>2014-11-23T11:01:00.000Z</time>
      </trkpt>
      <trkpt lat="43.09835" lon="3.06431">
        <ele>47.200000762939</ele>
        <time>2014-11-23T11:01:04.000Z</time>
      </trkpt>
      <trkpt lat="43.09829" lon="3.06423">
        <ele>47.599998474121</ele>
        <time>2014-11-23T11:01:08.000Z</time>
      </trkpt>
      <trkpt lat="43.09828" lon="3.06422">
        <ele>48.200000762939</ele>
        <time>2014-11-23T11:01:09.000Z</time>
      </trkpt>
      <trkpt lat="43.09826" lon="3.06422">
        <ele>48.599998474121</ele>
        <time>2014-11-23T11:01:10.000Z</time>
      </trkpt>
      <trkpt lat="43.09824" lon="3.06421">
        <ele>49.200000762939</ele>
        <time>2014-11-23T11:01:11.000Z</time>
      </trkpt>
      <trkpt lat="43.09822" lon="3.06421">
        <ele>49.799999237061</ele>
        <time>2014-11-23T11:01:12.000Z</time>
      </trkpt>
      <trkpt lat="43.09815" lon="3.06416">
        <ele>49.799999237061</ele>
        <time>2014-11-23T11:01:16.000Z</time>
      </trkpt>
      <trkpt lat="43.09814" lon="3.06415">
        <ele>49.799999237061</ele>
        <time>2014-11-23T11:01:17.000Z</time>
      </trkpt>
      <trkpt lat="43.0981" lon="3.06413">
        <ele>50.200000762939</ele>
        <time>2014-11-23T11:01:19.000Z</time>
      </trkpt>
      <trkpt lat="43.09809" lon="3.06412">
        <ele>50.599998474121</ele>
        <time>2014-11-23T11:01:20.000Z</time>
      </trkpt>
      <trkpt lat="43.09807" lon="3.06411">
        <ele>51</ele>
        <time>2014-11-23T11:01:21.000Z</time>
      </trkpt>
      <trkpt lat="43.09806" lon="3.06411">
        <ele>51.599998474121</ele>
        <time>2014-11-23T11:01:22.000Z</time>
      </trkpt>
      <trkpt lat="43.09804" lon="3.0641">
        <ele>52</ele>
        <time>2014-11-23T11:01:23.000Z</time>
      </trkpt>
      <trkpt lat="43.09799" lon="3.06407">
        <ele>52.400001525879</ele>
        <time>2014-11-23T11:01:26.000Z</time>
      </trkpt>
      <trkpt lat="43.09798" lon="3.06405">
        <ele>52.799999237061</ele>
        <time>2014-11-23T11:01:27.000Z</time>
      </trkpt>
      <trkpt lat="43.09797" lon="3.06402">
        <ele>53.200000762939</ele>
        <time>2014-11-23T11:01:28.000Z</time>
      </trkpt>
      <trkpt lat="43.09796" lon="3.064">
        <ele>54</ele>
        <time>2014-11-23T11:01:29.000Z</time>
      </trkpt>
      <trkpt lat="43.09793" lon="3.06392">
        <ele>54.599998474121</ele>
        <time>2014-11-23T11:01:32.000Z</time>
      </trkpt>
      <trkpt lat="43.09792" lon="3.06389">
        <ele>55</ele>
        <time>2014-11-23T11:01:33.000Z</time>
      </trkpt>
      <trkpt lat="43.09791" lon="3.06387">
        <ele>55.400001525879</ele>
        <time>2014-11-23T11:01:34.000Z</time>
      </trkpt>
      <trkpt lat="43.09789" lon="3.06385">
        <ele>56</ele>
        <time>2014-11-23T11:01:35.000Z</time>
      </trkpt>
      <trkpt lat="43.09788" lon="3.06383">
        <ele>56.400001525879</ele>
        <time>2014-11-23T11:01:36.000Z</time>
      </trkpt>
      <trkpt lat="43.09786" lon="3.06376">
        <ele>56.799999237061</ele>
        <time>2014-11-23T11:01:39.000Z</time>
      </trkpt>
      <trkpt lat="43.09785" lon="3.06373">
        <ele>57.400001525879</ele>
        <time>2014-11-23T11:01:40.000Z</time>
      </trkpt>
      <trkpt lat="43.09784" lon="3.06371">
        <ele>57.799999237061</ele>
        <time>2014-11-23T11:01:41.000Z</time>
      </trkpt>
      <trkpt lat="43.09783" lon="3.06369">
        <ele>58.200000762939</ele>
        <time>2014-11-23T11:01:42.000Z</time>
      </trkpt>
      <trkpt lat="43.09782" lon="3.06367">
        <ele>58.599998474121</ele>
        <time>2014-11-23T11:01:43.000Z</time>
      </trkpt>
      <trkpt lat="43.09779" lon="3.06363">
        <ele>59.200000762939</ele>
        <time>2014-11-23T11:01:45.000Z</time>
      </trkpt>
      <trkpt lat="43.09778" lon="3.06361">
        <ele>59.599998474121</ele>
        <time>2014-11-23T11:01:46.000Z</time>
      </trkpt>
      <trkpt lat="43.09777" lon="3.06359">
        <ele>60</ele>
        <time>2014-11-23T11:01:47.000Z</time>
      </trkpt>
      <trkpt lat="43.09776" lon="3.06356">
        <ele>60.400001525879</ele>
        <time>2014-11-23T11:01:48.000Z</time>
      </trkpt>
      <trkpt lat="43.09775" lon="3.06353">
        <ele>60.799999237061</ele>
        <time>2014-11-23T11:01:49.000Z</time>
      </trkpt>
      <trkpt lat="43.09775" lon="3.0635">
        <ele>60.799999237061</ele>
        <time>2014-11-23T11:01:50.000Z</time>
      </trkpt>
      <trkpt lat="43.09767" lon="3.06339">
        <ele>60.799999237061</ele>
        <time>2014-11-23T11:01:55.000Z</time>
      </trkpt>
      <trkpt lat="43.09761" lon="3.06323">
        <ele>61.200000762939</ele>
        <time>2014-11-23T11:02:01.000Z</time>
      </trkpt>
      <trkpt lat="43.09759" lon="3.06321">
        <ele>61.599998474121</ele>
        <time>2014-11-23T11:02:02.000Z</time>
      </trkpt>
      <trkpt lat="43.09758" lon="3.06319">
        <ele>62</ele>
        <time>2014-11-23T11:02:03.000Z</time>
      </trkpt>
      <trkpt lat="43.09758" lon="3.06317">
        <ele>62.400001525879</ele>
        <time>2014-11-23T11:02:04.000Z</time>
      </trkpt>
      <trkpt lat="43.09758" lon="3.06317">
        <ele>62.799999237061</ele>
        <time>2014-11-23T11:02:05.000Z</time>
      </trkpt>
      <trkpt lat="43.09757" lon="3.06314">
        <ele>62.799999237061</ele>
        <time>2014-11-23T11:03:19.000Z</time>
      </trkpt>
      <trkpt lat="43.09755" lon="3.06298">
        <ele>62.799999237061</ele>
        <time>2014-11-23T11:03:24.000Z</time>
      </trkpt>
      <trkpt lat="43.09752" lon="3.06276">
        <ele>63.400001525879</ele>
        <time>2014-11-23T11:03:31.000Z</time>
      </trkpt>
      <trkpt lat="43.09751" lon="3.06273">
        <ele>64.199996948242</ele>
        <time>2014-11-23T11:03:32.000Z</time>
      </trkpt>
      <trkpt lat="43.0975" lon="3.06271">
        <ele>64.800003051758</ele>
        <time>2014-11-23T11:03:33.000Z</time>
      </trkpt>
      <trkpt lat="43.09749" lon="3.06268">
        <ele>65.199996948242</ele>
        <time>2014-11-23T11:03:34.000Z</time>
      </trkpt>
      <trkpt lat="43.09747" lon="3.06259">
        <ele>65.199996948242</ele>
        <time>2014-11-23T11:03:37.000Z</time>
      </trkpt>
      <trkpt lat="43.09742" lon="3.06242">
        <ele>65.199996948242</ele>
        <time>2014-11-23T11:03:43.000Z</time>
      </trkpt>
      <trkpt lat="43.09741" lon="3.06223">
        <ele>65.599998474121</ele>
        <time>2014-11-23T11:03:48.000Z</time>
      </trkpt>
      <trkpt lat="43.0974" lon="3.06219">
        <ele>66</ele>
        <time>2014-11-23T11:03:49.000Z</time>
      </trkpt>
      <trkpt lat="43.09738" lon="3.06216">
        <ele>66.400001525879</ele>
        <time>2014-11-23T11:03:50.000Z</time>
      </trkpt>
      <trkpt lat="43.09737" lon="3.06214">
        <ele>66.800003051758</ele>
        <time>2014-11-23T11:03:51.000Z</time>
      </trkpt>
      <trkpt lat="43.09736" lon="3.06211">
        <ele>67.199996948242</ele>
        <time>2014-11-23T11:03:52.000Z</time>
      </trkpt>
      <trkpt lat="43.0973" lon="3.06192">
        <ele>67.199996948242</ele>
        <time>2014-11-23T11:03:58.000Z</time>
      </trkpt>
      <trkpt lat="43.09725" lon="3.06183">
        <ele>67.599998474121</ele>
        <time>2014-11-23T11:04:02.000Z</time>
      </trkpt>
      <trkpt lat="43.09724" lon="3.0618">
        <ele>68</ele>
        <time>2014-11-23T11:04:03.000Z</time>
      </trkpt>
      <trkpt lat="43.09723" lon="3.06178">
        <ele>68.400001525879</ele>
        <time>2014-11-23T11:04:04.000Z</time>
      </trkpt>
      <trkpt lat="43.09722" lon="3.06175">
        <ele>68.800003051758</ele>
        <time>2014-11-23T11:04:05.000Z</time>
      </trkpt>
      <trkpt lat="43.09721" lon="3.06172">
        <ele>69.199996948242</ele>
        <time>2014-11-23T11:04:06.000Z</time>
      </trkpt>
      <trkpt lat="43.09719" lon="3.06168">
        <ele>69.199996948242</ele>
        <time>2014-11-23T11:04:08.000Z</time>
      </trkpt>
      <trkpt lat="43.09716" lon="3.06152">
        <ele>69.199996948242</ele>
        <time>2014-11-23T11:04:15.000Z</time>
      </trkpt>
      <trkpt lat="43.09715" lon="3.0615">
        <ele>69.199996948242</ele>
        <time>2014-11-23T11:04:16.000Z</time>
      </trkpt>
      <trkpt lat="43.0971" lon="3.06144">
        <ele>69.199996948242</ele>
        <time>2014-11-23T11:04:19.000Z</time>
      </trkpt>
      <trkpt lat="43.09707" lon="3.06139">
        <ele>69.599998474121</ele>
        <time>2014-11-23T11:04:21.000Z</time>
      </trkpt>
      <trkpt lat="43.09706" lon="3.06136">
        <ele>70.400001525879</ele>
        <time>2014-11-23T11:04:22.000Z</time>
      </trkpt>
      <trkpt lat="43.09705" lon="3.06133">
        <ele>70.800003051758</ele>
        <time>2014-11-23T11:04:23.000Z</time>
      </trkpt>
      <trkpt lat="43.09704" lon="3.0613">
        <ele>71.199996948242</ele>
        <time>2014-11-23T11:04:24.000Z</time>
      </trkpt>
      <trkpt lat="43.09697" lon="3.0611">
        <ele>71.199996948242</ele>
        <time>2014-11-23T11:04:31.000Z</time>
      </trkpt>
      <trkpt lat="43.09696" lon="3.06107">
        <ele>71.199996948242</ele>
        <time>2014-11-23T11:04:32.000Z</time>
      </trkpt>
      <trkpt lat="43.09695" lon="3.06101">
        <ele>71.199996948242</ele>
        <time>2014-11-23T11:04:35.000Z</time>
      </trkpt>
      <trkpt lat="43.09693" lon="3.06097">
        <ele>71.199996948242</ele>
        <time>2014-11-23T11:04:37.000Z</time>
      </trkpt>
      <trkpt lat="43.09688" lon="3.06092">
        <ele>71.199996948242</ele>
        <time>2014-11-23T11:04:40.000Z</time>
      </trkpt>
      <trkpt lat="43.09686" lon="3.0609">
        <ele>71.199996948242</ele>
        <time>2014-11-23T11:04:41.000Z</time>
      </trkpt>
      <trkpt lat="43.09679" lon="3.06076">
        <ele>71.199996948242</ele>
        <time>2014-11-23T11:04:46.000Z</time>
      </trkpt>
      <trkpt lat="43.09676" lon="3.06069">
        <ele>71.199996948242</ele>
        <time>2014-11-23T11:04:49.000Z</time>
      </trkpt>
      <trkpt lat="43.09671" lon="3.06063">
        <ele>71.199996948242</ele>
        <time>2014-11-23T11:04:52.000Z</time>
      </trkpt>
      <trkpt lat="43.09656" lon="3.0605">
        <ele>71.199996948242</ele>
        <time>2014-11-23T11:05:00.000Z</time>
      </trkpt>
      <trkpt lat="43.09647" lon="3.06045">
        <ele>71.199996948242</ele>
        <time>2014-11-23T11:05:04.000Z</time>
      </trkpt>
      <trkpt lat="43.09641" lon="3.06044">
        <ele>71.199996948242</ele>
        <time>2014-11-23T11:05:06.000Z</time>
      </trkpt>
      <trkpt lat="43.09639" lon="3.06041">
        <ele>71.199996948242</ele>
        <time>2014-11-23T11:05:07.000Z</time>
      </trkpt>
      <trkpt lat="43.09636" lon="3.06034">
        <ele>71.199996948242</ele>
        <time>2014-11-23T11:05:09.000Z</time>
      </trkpt>
      <trkpt lat="43.09626" lon="3.06021">
        <ele>71.199996948242</ele>
        <time>2014-11-23T11:05:13.000Z</time>
      </trkpt>
      <trkpt lat="43.09621" lon="3.06017">
        <ele>71.199996948242</ele>
        <time>2014-11-23T11:05:15.000Z</time>
      </trkpt>
      <trkpt lat="43.09606" lon="3.06008">
        <ele>71.199996948242</ele>
        <time>2014-11-23T11:05:20.000Z</time>
      </trkpt>
      <trkpt lat="43.09603" lon="3.06009">
        <ele>71.199996948242</ele>
        <time>2014-11-23T11:05:21.000Z</time>
      </trkpt>
      <trkpt lat="43.09597" lon="3.06009">
        <ele>71.199996948242</ele>
        <time>2014-11-23T11:05:23.000Z</time>
      </trkpt>
      <trkpt lat="43.0958" lon="3.0601">
        <ele>71.199996948242</ele>
        <time>2014-11-23T11:05:28.000Z</time>
      </trkpt>
      <trkpt lat="43.09567" lon="3.06009">
        <ele>71.199996948242</ele>
        <time>2014-11-23T11:05:32.000Z</time>
      </trkpt>
      <trkpt lat="43.09555" lon="3.06006">
        <ele>71.199996948242</ele>
        <time>2014-11-23T11:05:36.000Z</time>
      </trkpt>
      <trkpt lat="43.09545" lon="3.06007">
        <ele>71.199996948242</ele>
        <time>2014-11-23T11:05:39.000Z</time>
      </trkpt>
      <trkpt lat="43.09539" lon="3.06011">
        <ele>71.199996948242</ele>
        <time>2014-11-23T11:05:41.000Z</time>
      </trkpt>
      <trkpt lat="43.09529" lon="3.06021">
        <ele>71.199996948242</ele>
        <time>2014-11-23T11:05:45.000Z</time>
      </trkpt>
      <trkpt lat="43.09516" lon="3.06028">
        <ele>71.199996948242</ele>
        <time>2014-11-23T11:05:50.000Z</time>
      </trkpt>
      <trkpt lat="43.09514" lon="3.0603">
        <ele>70.800003051758</ele>
        <time>2014-11-23T11:05:51.000Z</time>
      </trkpt>
      <trkpt lat="43.09512" lon="3.06031">
        <ele>70.400001525879</ele>
        <time>2014-11-23T11:05:52.000Z</time>
      </trkpt>
      <trkpt lat="43.09512" lon="3.06032">
        <ele>69.800003051758</ele>
        <time>2014-11-23T11:05:53.000Z</time>
      </trkpt>
      <trkpt lat="43.09511" lon="3.06034">
        <ele>69</ele>
        <time>2014-11-23T11:06:25.000Z</time>
      </trkpt>
      <trkpt lat="43.09505" lon="3.06042">
        <ele>69</ele>
        <time>2014-11-23T11:06:28.000Z</time>
      </trkpt>
      <trkpt lat="43.09499" lon="3.06049">
        <ele>68.400001525879</ele>
        <time>2014-11-23T11:06:30.000Z</time>
      </trkpt>
      <trkpt lat="43.09497" lon="3.06054">
        <ele>68</ele>
        <time>2014-11-23T11:06:31.000Z</time>
      </trkpt>
      <trkpt lat="43.09495" lon="3.06058">
        <ele>67.400001525879</ele>
        <time>2014-11-23T11:06:32.000Z</time>
      </trkpt>
      <trkpt lat="43.09492" lon="3.0606">
        <ele>67</ele>
        <time>2014-11-23T11:06:33.000Z</time>
      </trkpt>
      <trkpt lat="43.09488" lon="3.06062">
        <ele>66.599998474121</ele>
        <time>2014-11-23T11:06:34.000Z</time>
      </trkpt>
      <trkpt lat="43.09485" lon="3.06065">
        <ele>66.599998474121</ele>
        <time>2014-11-23T11:06:35.000Z</time>
      </trkpt>
      <trkpt lat="43.09481" lon="3.06068">
        <ele>66.599998474121</ele>
        <time>2014-11-23T11:06:36.000Z</time>
      </trkpt>
      <trkpt lat="43.09468" lon="3.06073">
        <ele>66</ele>
        <time>2014-11-23T11:06:39.000Z</time>
      </trkpt>
      <trkpt lat="43.09464" lon="3.06074">
        <ele>65.599998474121</ele>
        <time>2014-11-23T11:06:40.000Z</time>
      </trkpt>
      <trkpt lat="43.0946" lon="3.06075">
        <ele>65</ele>
        <time>2014-11-23T11:06:41.000Z</time>
      </trkpt>
      <trkpt lat="43.09456" lon="3.06079">
        <ele>64.599998474121</ele>
        <time>2014-11-23T11:06:42.000Z</time>
      </trkpt>
      <trkpt lat="43.09453" lon="3.06081">
        <ele>64</ele>
        <time>2014-11-23T11:06:43.000Z</time>
      </trkpt>
      <trkpt lat="43.09446" lon="3.06085">
        <ele>64</ele>
        <time>2014-11-23T11:06:45.000Z</time>
      </trkpt>
      <trkpt lat="43.09436" lon="3.06089">
        <ele>63.599998474121</ele>
        <time>2014-11-23T11:06:48.000Z</time>
      </trkpt>
      <trkpt lat="43.09433" lon="3.06089">
        <ele>62.799999237061</ele>
        <time>2014-11-23T11:06:49.000Z</time>
      </trkpt>
      <trkpt lat="43.0943" lon="3.06089">
        <ele>62.400001525879</ele>
        <time>2014-11-23T11:06:50.000Z</time>
      </trkpt>
      <trkpt lat="43.09427" lon="3.06089">
        <ele>62</ele>
        <time>2014-11-23T11:06:51.000Z</time>
      </trkpt>
      <trkpt lat="43.09418" lon="3.0609">
        <ele>62</ele>
        <time>2014-11-23T11:06:54.000Z</time>
      </trkpt>
      <trkpt lat="43.09413" lon="3.0609">
        <ele>62</ele>
        <time>2014-11-23T11:06:56.000Z</time>
      </trkpt>
      <trkpt lat="43.09409" lon="3.06086">
        <ele>62</ele>
        <time>2014-11-23T11:06:58.000Z</time>
      </trkpt>
      <trkpt lat="43.094" lon="3.06076">
        <ele>62</ele>
        <time>2014-11-23T11:07:04.000Z</time>
      </trkpt>
      <trkpt lat="43.09397" lon="3.06076">
        <ele>62</ele>
        <time>2014-11-23T11:08:18.000Z</time>
      </trkpt>
      <trkpt lat="43.09393" lon="3.06076">
        <ele>62</ele>
        <time>2014-11-23T11:08:22.000Z</time>
      </trkpt>
      <trkpt lat="43.09393" lon="3.06076">
        <ele>62</ele>
        <time>2014-11-23T11:08:23.000Z</time>
      </trkpt>
      <trkpt lat="43.09392" lon="3.06074">
        <ele>62</ele>
        <time>2014-11-23T11:08:26.000Z</time>
      </trkpt>
      <trkpt lat="43.09391" lon="3.06074">
        <ele>62</ele>
        <time>2014-11-23T11:08:27.000Z</time>
      </trkpt>
      <trkpt lat="43.0939" lon="3.06073">
        <ele>62</ele>
        <time>2014-11-23T11:08:29.000Z</time>
      </trkpt>
      <trkpt lat="43.0939" lon="3.06073">
        <ele>62</ele>
        <time>2014-11-23T11:08:30.000Z</time>
      </trkpt>
      <trkpt lat="43.09388" lon="3.06072">
        <ele>62</ele>
        <time>2014-11-23T11:08:31.000Z</time>
      </trkpt>
      <trkpt lat="43.09385" lon="3.06069">
        <ele>62</ele>
        <time>2014-11-23T11:08:33.000Z</time>
      </trkpt>
      <trkpt lat="43.09381" lon="3.06066">
        <ele>62</ele>
        <time>2014-11-23T11:08:35.000Z</time>
      </trkpt>
      <trkpt lat="43.09374" lon="3.06064">
        <ele>62</ele>
        <time>2014-11-23T11:08:38.000Z</time>
      </trkpt>
      <trkpt lat="43.09369" lon="3.06059">
        <ele>62.400001525879</ele>
        <time>2014-11-23T11:08:41.000Z</time>
      </trkpt>
      <trkpt lat="43.09367" lon="3.06058">
        <ele>62.799999237061</ele>
        <time>2014-11-23T11:08:42.000Z</time>
      </trkpt>
      <trkpt lat="43.09365" lon="3.06057">
        <ele>63.200000762939</ele>
        <time>2014-11-23T11:08:43.000Z</time>
      </trkpt>
      <trkpt lat="43.09363" lon="3.06056">
        <ele>63.599998474121</ele>
        <time>2014-11-23T11:08:44.000Z</time>
      </trkpt>
      <trkpt lat="43.09361" lon="3.06056">
        <ele>64</ele>
        <time>2014-11-23T11:08:45.000Z</time>
      </trkpt>
      <trkpt lat="43.09359" lon="3.06057">
        <ele>64</ele>
        <time>2014-11-23T11:08:46.000Z</time>
      </trkpt>
      <trkpt lat="43.09357" lon="3.06058">
        <ele>64</ele>
        <time>2014-11-23T11:08:47.000Z</time>
      </trkpt>
      <trkpt lat="43.09357" lon="3.06059">
        <ele>64</ele>
        <time>2014-11-23T11:08:48.000Z</time>
      </trkpt>
      <trkpt lat="43.09356" lon="3.0606">
        <ele>65</ele>
        <time>2014-11-23T11:09:03.000Z</time>
      </trkpt>
      <trkpt lat="43.09356" lon="3.06062">
        <ele>65.400001525879</ele>
        <time>2014-11-23T11:09:04.000Z</time>
      </trkpt>
      <trkpt lat="43.09355" lon="3.06064">
        <ele>65.800003051758</ele>
        <time>2014-11-23T11:09:05.000Z</time>
      </trkpt>
      <trkpt lat="43.09355" lon="3.06066">
        <ele>66.199996948242</ele>
        <time>2014-11-23T11:09:06.000Z</time>
      </trkpt>
      <trkpt lat="43.09353" lon="3.06069">
        <ele>66.199996948242</ele>
        <time>2014-11-23T11:09:09.000Z</time>
      </trkpt>
      <trkpt lat="43.09351" lon="3.0607">
        <ele>66.199996948242</ele>
        <time>2014-11-23T11:09:11.000Z</time>
      </trkpt>
      <trkpt lat="43.09347" lon="3.0607">
        <ele>66.199996948242</ele>
        <time>2014-11-23T11:09:14.000Z</time>
      </trkpt>
      <trkpt lat="43.09347" lon="3.0607">
        <ele>66.199996948242</ele>
        <time>2014-11-23T11:09:15.000Z</time>
      </trkpt>
      <trkpt lat="43.09346" lon="3.06071">
        <ele>66.199996948242</ele>
        <time>2014-11-23T11:09:20.000Z</time>
      </trkpt>
      <trkpt lat="43.09344" lon="3.06072">
        <ele>66.199996948242</ele>
        <time>2014-11-23T11:09:21.000Z</time>
      </trkpt>
      <trkpt lat="43.09332" lon="3.06073">
        <ele>66.199996948242</ele>
        <time>2014-11-23T11:09:26.000Z</time>
      </trkpt>
      <trkpt lat="43.09317" lon="3.06073">
        <ele>66.199996948242</ele>
        <time>2014-11-23T11:09:32.000Z</time>
      </trkpt>
      <trkpt lat="43.09315" lon="3.06071">
        <ele>66.199996948242</ele>
        <time>2014-11-23T11:09:33.000Z</time>
      </trkpt>
      <trkpt lat="43.09311" lon="3.06068">
        <ele>66.199996948242</ele>
        <time>2014-11-23T11:09:36.000Z</time>
      </trkpt>
      <trkpt lat="43.09301" lon="3.06065">
        <ele>66.199996948242</ele>
        <time>2014-11-23T11:09:40.000Z</time>
      </trkpt>
      <trkpt lat="43.09296" lon="3.06062">
        <ele>66.199996948242</ele>
        <time>2014-11-23T11:09:43.000Z</time>
      </trkpt>
      <trkpt lat="43.09295" lon="3.06061">
        <ele>66.199996948242</ele>
        <time>2014-11-23T11:10:08.000Z</time>
      </trkpt>
      <trkpt lat="43.09291" lon="3.06058">
        <ele>65.800003051758</ele>
        <time>2014-11-23T11:10:10.000Z</time>
      </trkpt>
      <trkpt lat="43.09289" lon="3.06055">
        <ele>65.400001525879</ele>
        <time>2014-11-23T11:10:11.000Z</time>
      </trkpt>
      <trkpt lat="43.09287" lon="3.06051">
        <ele>65</ele>
        <time>2014-11-23T11:10:12.000Z</time>
      </trkpt>
      <trkpt lat="43.09285" lon="3.06047">
        <ele>64.599998474121</ele>
        <time>2014-11-23T11:10:13.000Z</time>
      </trkpt>
      <trkpt lat="43.09283" lon="3.06043">
        <ele>64.199996948242</ele>
        <time>2014-11-23T11:10:14.000Z</time>
      </trkpt>
      <trkpt lat="43.0928" lon="3.06034">
        <ele>63.599998474121</ele>
        <time>2014-11-23T11:10:16.000Z</time>
      </trkpt>
      <trkpt lat="43.09278" lon="3.0603">
        <ele>63.200000762939</ele>
        <time>2014-11-23T11:10:17.000Z</time>
      </trkpt>
      <trkpt lat="43.09276" lon="3.06025">
        <ele>62.799999237061</ele>
        <time>2014-11-23T11:10:18.000Z</time>
      </trkpt>
      <trkpt lat="43.09275" lon="3.0602">
        <ele>62</ele>
        <time>2014-11-23T11:10:19.000Z</time>
      </trkpt>
      <trkpt lat="43.09274" lon="3.06015">
        <ele>61.400001525879</ele>
        <time>2014-11-23T11:10:20.000Z</time>
      </trkpt>
      <trkpt lat="43.09272" lon="3.06011">
        <ele>60.799999237061</ele>
        <time>2014-11-23T11:10:21.000Z</time>
      </trkpt>
      <trkpt lat="43.0927" lon="3.06008">
        <ele>60.200000762939</ele>
        <time>2014-11-23T11:10:22.000Z</time>
      </trkpt>
      <trkpt lat="43.09267" lon="3.06007">
        <ele>59.599998474121</ele>
        <time>2014-11-23T11:10:23.000Z</time>
      </trkpt>
      <trkpt lat="43.09264" lon="3.06007">
        <ele>59</ele>
        <time>2014-11-23T11:10:24.000Z</time>
      </trkpt>
      <trkpt lat="43.0926" lon="3.06008">
        <ele>58.599998474121</ele>
        <time>2014-11-23T11:10:25.000Z</time>
      </trkpt>
      <trkpt lat="43.09257" lon="3.06008">
        <ele>58.200000762939</ele>
        <time>2014-11-23T11:10:26.000Z</time>
      </trkpt>
      <trkpt lat="43.09255" lon="3.06009">
        <ele>57.799999237061</ele>
        <time>2014-11-23T11:10:27.000Z</time>
      </trkpt>
      <trkpt lat="43.09253" lon="3.06011">
        <ele>57.400001525879</ele>
        <time>2014-11-23T11:10:28.000Z</time>
      </trkpt>
      <trkpt lat="43.09251" lon="3.06013">
        <ele>57.400001525879</ele>
        <time>2014-11-23T11:10:29.000Z</time>
      </trkpt>
      <trkpt lat="43.0924" lon="3.06022">
        <ele>57</ele>
        <time>2014-11-23T11:10:33.000Z</time>
      </trkpt>
      <trkpt lat="43.09238" lon="3.06025">
        <ele>56.599998474121</ele>
        <time>2014-11-23T11:10:34.000Z</time>
      </trkpt>
      <trkpt lat="43.09235" lon="3.06028">
        <ele>56.200000762939</ele>
        <time>2014-11-23T11:10:35.000Z</time>
      </trkpt>
      <trkpt lat="43.09233" lon="3.0603">
        <ele>55.599998474121</ele>
        <time>2014-11-23T11:10:36.000Z</time>
      </trkpt>
      <trkpt lat="43.09231" lon="3.06032">
        <ele>55.200000762939</ele>
        <time>2014-11-23T11:10:37.000Z</time>
      </trkpt>
      <trkpt lat="43.09228" lon="3.06034">
        <ele>55.200000762939</ele>
        <time>2014-11-23T11:10:39.000Z</time>
      </trkpt>
      <trkpt lat="43.09223" lon="3.06034">
        <ele>55.200000762939</ele>
        <time>2014-11-23T11:10:43.000Z</time>
      </trkpt>
      <trkpt lat="43.09221" lon="3.06032">
        <ele>54.799999237061</ele>
        <time>2014-11-23T11:10:44.000Z</time>
      </trkpt>
      <trkpt lat="43.09219" lon="3.0603">
        <ele>54.400001525879</ele>
        <time>2014-11-23T11:10:45.000Z</time>
      </trkpt>
      <trkpt lat="43.09217" lon="3.06029">
        <ele>54</ele>
        <time>2014-11-23T11:10:46.000Z</time>
      </trkpt>
      <trkpt lat="43.09214" lon="3.06028">
        <ele>53.400001525879</ele>
        <time>2014-11-23T11:10:47.000Z</time>
      </trkpt>
      <trkpt lat="43.09212" lon="3.06029">
        <ele>53</ele>
        <time>2014-11-23T11:10:48.000Z</time>
      </trkpt>
      <trkpt lat="43.09206" lon="3.06036">
        <ele>52.599998474121</ele>
        <time>2014-11-23T11:10:52.000Z</time>
      </trkpt>
      <trkpt lat="43.09204" lon="3.06036">
        <ele>52.200000762939</ele>
        <time>2014-11-23T11:10:53.000Z</time>
      </trkpt>
      <trkpt lat="43.09202" lon="3.06035">
        <ele>51.799999237061</ele>
        <time>2014-11-23T11:10:54.000Z</time>
      </trkpt>
      <trkpt lat="43.09201" lon="3.06033">
        <ele>51.400001525879</ele>
        <time>2014-11-23T11:10:55.000Z</time>
      </trkpt>
      <trkpt lat="43.09199" lon="3.0603">
        <ele>51</ele>
        <time>2014-11-23T11:10:56.000Z</time>
      </trkpt>
      <trkpt lat="43.09197" lon="3.06027">
        <ele>50.599998474121</ele>
        <time>2014-11-23T11:10:57.000Z</time>
      </trkpt>
      <trkpt lat="43.09196" lon="3.06023">
        <ele>50</ele>
        <time>2014-11-23T11:10:58.000Z</time>
      </trkpt>
      <trkpt lat="43.09195" lon="3.06021">
        <ele>49.599998474121</ele>
        <time>2014-11-23T11:10:59.000Z</time>
      </trkpt>
      <trkpt lat="43.09193" lon="3.06019">
        <ele>49</ele>
        <time>2014-11-23T11:11:00.000Z</time>
      </trkpt>
      <trkpt lat="43.09192" lon="3.06017">
        <ele>48.400001525879</ele>
        <time>2014-11-23T11:11:01.000Z</time>
      </trkpt>
      <trkpt lat="43.09191" lon="3.06016">
        <ele>47.799999237061</ele>
        <time>2014-11-23T11:11:02.000Z</time>
      </trkpt>
      <trkpt lat="43.0919" lon="3.06014">
        <ele>47.200000762939</ele>
        <time>2014-11-23T11:11:03.000Z</time>
      </trkpt>
      <trkpt lat="43.0919" lon="3.06013">
        <ele>46.599998474121</ele>
        <time>2014-11-23T11:11:04.000Z</time>
      </trkpt>
      <trkpt lat="43.09189" lon="3.06011">
        <ele>46.599998474121</ele>
        <time>2014-11-23T11:11:05.000Z</time>
      </trkpt>
      <trkpt lat="43.09189" lon="3.06009">
        <ele>46.200000762939</ele>
        <time>2014-11-23T11:11:06.000Z</time>
      </trkpt>
      <trkpt lat="43.0919" lon="3.06007">
        <ele>45.799999237061</ele>
        <time>2014-11-23T11:11:07.000Z</time>
      </trkpt>
      <trkpt lat="43.09191" lon="3.06006">
        <ele>45.200000762939</ele>
        <time>2014-11-23T11:11:08.000Z</time>
      </trkpt>
      <trkpt lat="43.09191" lon="3.06005">
        <ele>44.799999237061</ele>
        <time>2014-11-23T11:11:09.000Z</time>
      </trkpt>
      <trkpt lat="43.09192" lon="3.06005">
        <ele>44.400001525879</ele>
        <time>2014-11-23T11:11:10.000Z</time>
      </trkpt>
      <trkpt lat="43.09199" lon="3.06003">
        <ele>44.400001525879</ele>
        <time>2014-11-23T11:11:31.000Z</time>
      </trkpt>
      <trkpt lat="43.09201" lon="3.06003">
        <ele>44.400001525879</ele>
        <time>2014-11-23T11:11:33.000Z</time>
      </trkpt>
      <trkpt lat="43.09202" lon="3.06002">
        <ele>44</ele>
        <time>2014-11-23T11:11:34.000Z</time>
      </trkpt>
      <trkpt lat="43.09203" lon="3.06001">
        <ele>43.599998474121</ele>
        <time>2014-11-23T11:11:35.000Z</time>
      </trkpt>
      <trkpt lat="43.09203" lon="3.05999">
        <ele>43.200000762939</ele>
        <time>2014-11-23T11:11:36.000Z</time>
      </trkpt>
      <trkpt lat="43.09202" lon="3.05998">
        <ele>42.599998474121</ele>
        <time>2014-11-23T11:11:37.000Z</time>
      </trkpt>
      <trkpt lat="43.09202" lon="3.05997">
        <ele>42.200000762939</ele>
        <time>2014-11-23T11:11:38.000Z</time>
      </trkpt>
      <trkpt lat="43.09202" lon="3.05994">
        <ele>42.200000762939</ele>
        <time>2014-11-23T11:11:41.000Z</time>
      </trkpt>
      <trkpt lat="43.09198" lon="3.05994">
        <ele>40</ele>
        <time>2014-11-23T11:12:15.000Z</time>
      </trkpt>
      <trkpt lat="43.09196" lon="3.05994">
        <ele>40</ele>
        <time>2014-11-23T11:12:16.000Z</time>
      </trkpt>
      <trkpt lat="43.09194" lon="3.05995">
        <ele>39.599998474121</ele>
        <time>2014-11-23T11:12:17.000Z</time>
      </trkpt>
      <trkpt lat="43.09192" lon="3.05995">
        <ele>39.200000762939</ele>
        <time>2014-11-23T11:12:18.000Z</time>
      </trkpt>
      <trkpt lat="43.0919" lon="3.05996">
        <ele>38.799999237061</ele>
        <time>2014-11-23T11:12:19.000Z</time>
      </trkpt>
      <trkpt lat="43.09189" lon="3.05997">
        <ele>38.400001525879</ele>
        <time>2014-11-23T11:12:20.000Z</time>
      </trkpt>
      <trkpt lat="43.09187" lon="3.05997">
        <ele>38</ele>
        <time>2014-11-23T11:12:21.000Z</time>
      </trkpt>
      <trkpt lat="43.09185" lon="3.05995">
        <ele>37.400001525879</ele>
        <time>2014-11-23T11:12:22.000Z</time>
      </trkpt>
      <trkpt lat="43.09183" lon="3.05992">
        <ele>37</ele>
        <time>2014-11-23T11:12:23.000Z</time>
      </trkpt>
      <trkpt lat="43.0918" lon="3.05989">
        <ele>36.200000762939</ele>
        <time>2014-11-23T11:12:24.000Z</time>
      </trkpt>
      <trkpt lat="43.09177" lon="3.05987">
        <ele>35.599998474121</ele>
        <time>2014-11-23T11:12:25.000Z</time>
      </trkpt>
      <trkpt lat="43.09174" lon="3.05986">
        <ele>35</ele>
        <time>2014-11-23T11:12:26.000Z</time>
      </trkpt>
      <trkpt lat="43.09172" lon="3.05986">
        <ele>34.400001525879</ele>
        <time>2014-11-23T11:12:27.000Z</time>
      </trkpt>
      <trkpt lat="43.09171" lon="3.05984">
        <ele>33.799999237061</ele>
        <time>2014-11-23T11:12:28.000Z</time>
      </trkpt>
      <trkpt lat="43.0917" lon="3.05982">
        <ele>33.200000762939</ele>
        <time>2014-11-23T11:12:29.000Z</time>
      </trkpt>
      <trkpt lat="43.0917" lon="3.05979">
        <ele>32.799999237061</ele>
        <time>2014-11-23T11:12:30.000Z</time>
      </trkpt>
      <trkpt lat="43.0917" lon="3.05976">
        <ele>32.400001525879</ele>
        <time>2014-11-23T11:12:31.000Z</time>
      </trkpt>
      <trkpt lat="43.09169" lon="3.05974">
        <ele>31.799999237061</ele>
        <time>2014-11-23T11:12:32.000Z</time>
      </trkpt>
      <trkpt lat="43.09167" lon="3.05973">
        <ele>31.39999961853</ele>
        <time>2014-11-23T11:12:33.000Z</time>
      </trkpt>
      <trkpt lat="43.09166" lon="3.05971">
        <ele>31</ele>
        <time>2014-11-23T11:12:34.000Z</time>
      </trkpt>
      <trkpt lat="43.09164" lon="3.05969">
        <ele>30.200000762939</ele>
        <time>2014-11-23T11:12:35.000Z</time>
      </trkpt>
      <trkpt lat="43.09162" lon="3.05968">
        <ele>29.799999237061</ele>
        <time>2014-11-23T11:12:36.000Z</time>
      </trkpt>
      <trkpt lat="43.09162" lon="3.05968">
        <ele>29.200000762939</ele>
        <time>2014-11-23T11:12:37.000Z</time>
      </trkpt>
      <trkpt lat="43.0916" lon="3.05969">
        <ele>28.60000038147</ele>
        <time>2014-11-23T11:12:38.000Z</time>
      </trkpt>
      <trkpt lat="43.09159" lon="3.0597">
        <ele>28.200000762939</ele>
        <time>2014-11-23T11:12:39.000Z</time>
      </trkpt>
      <trkpt lat="43.09158" lon="3.05971">
        <ele>27.60000038147</ele>
        <time>2014-11-23T11:12:40.000Z</time>
      </trkpt>
      <trkpt lat="43.09157" lon="3.05973">
        <ele>27</ele>
        <time>2014-11-23T11:12:41.000Z</time>
      </trkpt>
      <trkpt lat="43.09155" lon="3.05972">
        <ele>27</ele>
        <time>2014-11-23T11:12:42.000Z</time>
      </trkpt>
      <trkpt lat="43.09153" lon="3.05971">
        <ele>26.60000038147</ele>
        <time>2014-11-23T11:12:43.000Z</time>
      </trkpt>
      <trkpt lat="43.09152" lon="3.05969">
        <ele>26</ele>
        <time>2014-11-23T11:12:44.000Z</time>
      </trkpt>
      <trkpt lat="43.0915" lon="3.05966">
        <ele>25.60000038147</ele>
        <time>2014-11-23T11:12:45.000Z</time>
      </trkpt>
      <trkpt lat="43.09149" lon="3.05963">
        <ele>25</ele>
        <time>2014-11-23T11:12:46.000Z</time>
      </trkpt>
      <trkpt lat="43.09148" lon="3.05961">
        <ele>24.39999961853</ele>
        <time>2014-11-23T11:12:47.000Z</time>
      </trkpt>
      <trkpt lat="43.09146" lon="3.05959">
        <ele>23.799999237061</ele>
        <time>2014-11-23T11:12:48.000Z</time>
      </trkpt>
      <trkpt lat="43.09143" lon="3.05957">
        <ele>23.200000762939</ele>
        <time>2014-11-23T11:12:49.000Z</time>
      </trkpt>
      <trkpt lat="43.09139" lon="3.05956">
        <ele>22.60000038147</ele>
        <time>2014-11-23T11:12:50.000Z</time>
      </trkpt>
      <trkpt lat="43.09135" lon="3.05955">
        <ele>22</ele>
        <time>2014-11-23T11:12:51.000Z</time>
      </trkpt>
      <trkpt lat="43.0913" lon="3.05953">
        <ele>21.39999961853</ele>
        <time>2014-11-23T11:12:52.000Z</time>
      </trkpt>
      <trkpt lat="43.09127" lon="3.05952">
        <ele>20.799999237061</ele>
        <time>2014-11-23T11:12:53.000Z</time>
      </trkpt>
      <trkpt lat="43.09125" lon="3.05952">
        <ele>20.39999961853</ele>
        <time>2014-11-23T11:12:54.000Z</time>
      </trkpt>
      <trkpt lat="43.09124" lon="3.05953">
        <ele>19.799999237061</ele>
        <time>2014-11-23T11:12:55.000Z</time>
      </trkpt>
      <trkpt lat="43.09123" lon="3.05952">
        <ele>19.200000762939</ele>
        <time>2014-11-23T11:12:56.000Z</time>
      </trkpt>
      <trkpt lat="43.09123" lon="3.0595">
        <ele>18.799999237061</ele>
        <time>2014-11-23T11:12:57.000Z</time>
      </trkpt>
      <trkpt lat="43.09123" lon="3.05949">
        <ele>18.200000762939</ele>
        <time>2014-11-23T11:12:58.000Z</time>
      </trkpt>
      <trkpt lat="43.09126" lon="3.05945">
        <ele>18.200000762939</ele>
        <time>2014-11-23T11:13:02.000Z</time>
      </trkpt>
      <trkpt lat="43.09126" lon="3.05945">
        <ele>18.200000762939</ele>
        <time>2014-11-23T11:13:03.000Z</time>
      </trkpt>
      <trkpt lat="43.09128" lon="3.05944">
        <ele>18.200000762939</ele>
        <time>2014-11-23T11:13:48.000Z</time>
      </trkpt>
      <trkpt lat="43.09131" lon="3.05941">
        <ele>18.200000762939</ele>
        <time>2014-11-23T11:13:50.000Z</time>
      </trkpt>
      <trkpt lat="43.0914" lon="3.05929">
        <ele>18.200000762939</ele>
        <time>2014-11-23T11:13:56.000Z</time>
      </trkpt>
      <trkpt lat="43.09152" lon="3.05914">
        <ele>18.200000762939</ele>
        <time>2014-11-23T11:14:02.000Z</time>
      </trkpt>
      <trkpt lat="43.09165" lon="3.05891">
        <ele>18.200000762939</ele>
        <time>2014-11-23T11:14:08.000Z</time>
      </trkpt>
      <trkpt lat="43.09174" lon="3.05872">
        <ele>18.200000762939</ele>
        <time>2014-11-23T11:14:13.000Z</time>
      </trkpt>
      <trkpt lat="43.09183" lon="3.05866">
        <ele>18.200000762939</ele>
        <time>2014-11-23T11:14:17.000Z</time>
      </trkpt>
      <trkpt lat="43.09194" lon="3.05862">
        <ele>18.200000762939</ele>
        <time>2014-11-23T11:14:24.000Z</time>
      </trkpt>
      <trkpt lat="43.09196" lon="3.05861">
        <ele>18.60000038147</ele>
        <time>2014-11-23T11:14:25.000Z</time>
      </trkpt>
      <trkpt lat="43.09197" lon="3.05861">
        <ele>19</ele>
        <time>2014-11-23T11:14:26.000Z</time>
      </trkpt>
      <trkpt lat="43.09198" lon="3.05861">
        <ele>19.60000038147</ele>
        <time>2014-11-23T11:14:27.000Z</time>
      </trkpt>
      <trkpt lat="43.092" lon="3.0586">
        <ele>20</ele>
        <time>2014-11-23T11:14:28.000Z</time>
      </trkpt>
      <trkpt lat="43.09202" lon="3.0586">
        <ele>20.39999961853</ele>
        <time>2014-11-23T11:14:29.000Z</time>
      </trkpt>
      <trkpt lat="43.09206" lon="3.05859">
        <ele>20.39999961853</ele>
        <time>2014-11-23T11:14:32.000Z</time>
      </trkpt>
      <trkpt lat="43.09206" lon="3.0586">
        <ele>20.39999961853</ele>
        <time>2014-11-23T11:14:33.000Z</time>
      </trkpt>
      <trkpt lat="43.0921" lon="3.05859">
        <ele>20.39999961853</ele>
        <time>2014-11-23T11:14:36.000Z</time>
      </trkpt>
      <trkpt lat="43.09212" lon="3.05858">
        <ele>20.39999961853</ele>
        <time>2014-11-23T11:14:37.000Z</time>
      </trkpt>
      <trkpt lat="43.09214" lon="3.05858">
        <ele>20.39999961853</ele>
        <time>2014-11-23T11:14:38.000Z</time>
      </trkpt>
      <trkpt lat="43.09219" lon="3.05858">
        <ele>20.39999961853</ele>
        <time>2014-11-23T11:14:41.000Z</time>
      </trkpt>
      <trkpt lat="43.09221" lon="3.05857">
        <ele>20.39999961853</ele>
        <time>2014-11-23T11:14:43.000Z</time>
      </trkpt>
      <trkpt lat="43.09224" lon="3.05855">
        <ele>20.799999237061</ele>
        <time>2014-11-23T11:14:45.000Z</time>
      </trkpt>
      <trkpt lat="43.09225" lon="3.05855">
        <ele>21.200000762939</ele>
        <time>2014-11-23T11:14:46.000Z</time>
      </trkpt>
      <trkpt lat="43.09227" lon="3.05855">
        <ele>21.60000038147</ele>
        <time>2014-11-23T11:14:47.000Z</time>
      </trkpt>
      <trkpt lat="43.09229" lon="3.05854">
        <ele>22</ele>
        <time>2014-11-23T11:14:48.000Z</time>
      </trkpt>
      <trkpt lat="43.09231" lon="3.05852">
        <ele>22.39999961853</ele>
        <time>2014-11-23T11:14:49.000Z</time>
      </trkpt>
      <trkpt lat="43.09234" lon="3.0585">
        <ele>22.39999961853</ele>
        <time>2014-11-23T11:14:50.000Z</time>
      </trkpt>
      <trkpt lat="43.09253" lon="3.05837">
        <ele>22.39999961853</ele>
        <time>2014-11-23T11:14:57.000Z</time>
      </trkpt>
      <trkpt lat="43.09269" lon="3.05823">
        <ele>22.39999961853</ele>
        <time>2014-11-23T11:15:03.000Z</time>
      </trkpt>
      <trkpt lat="43.09287" lon="3.05812">
        <ele>22.39999961853</ele>
        <time>2014-11-23T11:15:08.000Z</time>
      </trkpt>
      <trkpt lat="43.09294" lon="3.05809">
        <ele>22.39999961853</ele>
        <time>2014-11-23T11:15:11.000Z</time>
      </trkpt>
      <trkpt lat="43.09294" lon="3.05808">
        <ele>22.39999961853</ele>
        <time>2014-11-23T11:15:12.000Z</time>
      </trkpt>
      <trkpt lat="43.09296" lon="3.05807">
        <ele>22.39999961853</ele>
        <time>2014-11-23T11:15:43.000Z</time>
      </trkpt>
      <trkpt lat="43.093" lon="3.05805">
        <ele>22.39999961853</ele>
        <time>2014-11-23T11:15:45.000Z</time>
      </trkpt>
      <trkpt lat="43.09302" lon="3.05805">
        <ele>22.39999961853</ele>
        <time>2014-11-23T11:15:46.000Z</time>
      </trkpt>
      <trkpt lat="43.09311" lon="3.05803">
        <ele>22.39999961853</ele>
        <time>2014-11-23T11:15:49.000Z</time>
      </trkpt>
      <trkpt lat="43.09314" lon="3.05792">
        <ele>22.39999961853</ele>
        <time>2014-11-23T11:15:52.000Z</time>
      </trkpt>
      <trkpt lat="43.09308" lon="3.05779">
        <ele>22.39999961853</ele>
        <time>2014-11-23T11:15:55.000Z</time>
      </trkpt>
      <trkpt lat="43.09305" lon="3.05773">
        <ele>22.39999961853</ele>
        <time>2014-11-23T11:15:56.000Z</time>
      </trkpt>
      <trkpt lat="43.09293" lon="3.05748">
        <ele>22</ele>
        <time>2014-11-23T11:16:00.000Z</time>
      </trkpt>
      <trkpt lat="43.0929" lon="3.05741">
        <ele>21.60000038147</ele>
        <time>2014-11-23T11:16:01.000Z</time>
      </trkpt>
      <trkpt lat="43.09287" lon="3.05733">
        <ele>21.200000762939</ele>
        <time>2014-11-23T11:16:02.000Z</time>
      </trkpt>
      <trkpt lat="43.09283" lon="3.05726">
        <ele>20.60000038147</ele>
        <time>2014-11-23T11:16:03.000Z</time>
      </trkpt>
      <trkpt lat="43.0928" lon="3.05717">
        <ele>20.200000762939</ele>
        <time>2014-11-23T11:16:04.000Z</time>
      </trkpt>
      <trkpt lat="43.09276" lon="3.0571">
        <ele>19.799999237061</ele>
        <time>2014-11-23T11:16:05.000Z</time>
      </trkpt>
      <trkpt lat="43.09273" lon="3.05702">
        <ele>19.39999961853</ele>
        <time>2014-11-23T11:16:06.000Z</time>
      </trkpt>
      <trkpt lat="43.0927" lon="3.05694">
        <ele>19</ele>
        <time>2014-11-23T11:16:07.000Z</time>
      </trkpt>
      <trkpt lat="43.09268" lon="3.05685">
        <ele>18.60000038147</ele>
        <time>2014-11-23T11:16:08.000Z</time>
      </trkpt>
      <trkpt lat="43.09266" lon="3.05678">
        <ele>18.200000762939</ele>
        <time>2014-11-23T11:16:09.000Z</time>
      </trkpt>
      <trkpt lat="43.09259" lon="3.05667">
        <ele>18.200000762939</ele>
        <time>2014-11-23T11:16:11.000Z</time>
      </trkpt>
      <trkpt lat="43.09248" lon="3.0566">
        <ele>18.200000762939</ele>
        <time>2014-11-23T11:16:14.000Z</time>
      </trkpt>
      <trkpt lat="43.09244" lon="3.05659">
        <ele>18.200000762939</ele>
        <time>2014-11-23T11:16:15.000Z</time>
      </trkpt>
      <trkpt lat="43.09226" lon="3.05652">
        <ele>18.200000762939</ele>
        <time>2014-11-23T11:16:21.000Z</time>
      </trkpt>
      <trkpt lat="43.09223" lon="3.05652">
        <ele>18.60000038147</ele>
        <time>2014-11-23T11:16:22.000Z</time>
      </trkpt>
      <trkpt lat="43.0922" lon="3.05651">
        <ele>19.200000762939</ele>
        <time>2014-11-23T11:16:23.000Z</time>
      </trkpt>
      <trkpt lat="43.09217" lon="3.0565">
        <ele>19.60000038147</ele>
        <time>2014-11-23T11:16:24.000Z</time>
      </trkpt>
      <trkpt lat="43.09214" lon="3.05649">
        <ele>20</ele>
        <time>2014-11-23T11:16:25.000Z</time>
      </trkpt>
      <trkpt lat="43.09211" lon="3.05649">
        <ele>20.39999961853</ele>
        <time>2014-11-23T11:16:26.000Z</time>
      </trkpt>
      <trkpt lat="43.09209" lon="3.05648">
        <ele>20.39999961853</ele>
        <time>2014-11-23T11:16:27.000Z</time>
      </trkpt>
      <trkpt lat="43.09204" lon="3.05645">
        <ele>20.799999237061</ele>
        <time>2014-11-23T11:16:29.000Z</time>
      </trkpt>
      <trkpt lat="43.09201" lon="3.05644">
        <ele>21.200000762939</ele>
        <time>2014-11-23T11:16:30.000Z</time>
      </trkpt>
      <trkpt lat="43.09198" lon="3.05643">
        <ele>21.60000038147</ele>
        <time>2014-11-23T11:16:31.000Z</time>
      </trkpt>
      <trkpt lat="43.09195" lon="3.05643">
        <ele>22.200000762939</ele>
        <time>2014-11-23T11:16:32.000Z</time>
      </trkpt>
      <trkpt lat="43.09191" lon="3.05644">
        <ele>22.60000038147</ele>
        <time>2014-11-23T11:16:33.000Z</time>
      </trkpt>
      <trkpt lat="43.09187" lon="3.05646">
        <ele>22.60000038147</ele>
        <time>2014-11-23T11:16:34.000Z</time>
      </trkpt>
      <trkpt lat="43.09181" lon="3.05654">
        <ele>22.60000038147</ele>
        <time>2014-11-23T11:16:36.000Z</time>
      </trkpt>
      <trkpt lat="43.09176" lon="3.05665">
        <ele>22.60000038147</ele>
        <time>2014-11-23T11:16:39.000Z</time>
      </trkpt>
      <trkpt lat="43.09171" lon="3.05676">
        <ele>22.60000038147</ele>
        <time>2014-11-23T11:16:41.000Z</time>
      </trkpt>
      <trkpt lat="43.09167" lon="3.05682">
        <ele>22</ele>
        <time>2014-11-23T11:16:42.000Z</time>
      </trkpt>
      <trkpt lat="43.09163" lon="3.05687">
        <ele>21.60000038147</ele>
        <time>2014-11-23T11:16:43.000Z</time>
      </trkpt>
      <trkpt lat="43.09159" lon="3.05691">
        <ele>21.200000762939</ele>
        <time>2014-11-23T11:16:44.000Z</time>
      </trkpt>
      <trkpt lat="43.09154" lon="3.05694">
        <ele>20.799999237061</ele>
        <time>2014-11-23T11:16:45.000Z</time>
      </trkpt>
      <trkpt lat="43.0915" lon="3.05695">
        <ele>20.39999961853</ele>
        <time>2014-11-23T11:16:46.000Z</time>
      </trkpt>
      <trkpt lat="43.09134" lon="3.05697">
        <ele>20.39999961853</ele>
        <time>2014-11-23T11:16:49.000Z</time>
      </trkpt>
      <trkpt lat="43.09124" lon="3.05699">
        <ele>20.39999961853</ele>
        <time>2014-11-23T11:16:51.000Z</time>
      </trkpt>
      <trkpt lat="43.09109" lon="3.057">
        <ele>20.39999961853</ele>
        <time>2014-11-23T11:16:54.000Z</time>
      </trkpt>
      <trkpt lat="43.09093" lon="3.057">
        <ele>20.39999961853</ele>
        <time>2014-11-23T11:16:57.000Z</time>
      </trkpt>
      <trkpt lat="43.0908" lon="3.05701">
        <ele>20.39999961853</ele>
        <time>2014-11-23T11:16:59.000Z</time>
      </trkpt>
      <trkpt lat="43.09061" lon="3.05707">
        <ele>20.39999961853</ele>
        <time>2014-11-23T11:17:02.000Z</time>
      </trkpt>
      <trkpt lat="43.09055" lon="3.0571">
        <ele>19.799999237061</ele>
        <time>2014-11-23T11:17:03.000Z</time>
      </trkpt>
      <trkpt lat="43.09048" lon="3.05712">
        <ele>19.39999961853</ele>
        <time>2014-11-23T11:17:04.000Z</time>
      </trkpt>
      <trkpt lat="43.09041" lon="3.05714">
        <ele>18.799999237061</ele>
        <time>2014-11-23T11:17:05.000Z</time>
      </trkpt>
      <trkpt lat="43.09034" lon="3.05715">
        <ele>18.39999961853</ele>
        <time>2014-11-23T11:17:06.000Z</time>
      </trkpt>
      <trkpt lat="43.09026" lon="3.05715">
        <ele>17.799999237061</ele>
        <time>2014-11-23T11:17:07.000Z</time>
      </trkpt>
      <trkpt lat="43.09019" lon="3.05715">
        <ele>17.200000762939</ele>
        <time>2014-11-23T11:17:08.000Z</time>
      </trkpt>
      <trkpt lat="43.09011" lon="3.05715">
        <ele>16.799999237061</ele>
        <time>2014-11-23T11:17:09.000Z</time>
      </trkpt>
      <trkpt lat="43.09004" lon="3.05715">
        <ele>16.200000762939</ele>
        <time>2014-11-23T11:17:10.000Z</time>
      </trkpt>
      <trkpt lat="43.08997" lon="3.05714">
        <ele>15.800000190735</ele>
        <time>2014-11-23T11:17:11.000Z</time>
      </trkpt>
      <trkpt lat="43.0899" lon="3.05712">
        <ele>15.199999809265</ele>
        <time>2014-11-23T11:17:12.000Z</time>
      </trkpt>
      <trkpt lat="43.08984" lon="3.05708">
        <ele>15.199999809265</ele>
        <time>2014-11-23T11:17:13.000Z</time>
      </trkpt>
      <trkpt lat="43.08967" lon="3.05695">
        <ele>15.199999809265</ele>
        <time>2014-11-23T11:17:16.000Z</time>
      </trkpt>
      <trkpt lat="43.08962" lon="3.0569">
        <ele>15.199999809265</ele>
        <time>2014-11-23T11:17:17.000Z</time>
      </trkpt>
      <trkpt lat="43.08957" lon="3.05683">
        <ele>15.199999809265</ele>
        <time>2014-11-23T11:17:18.000Z</time>
      </trkpt>
      <trkpt lat="43.08947" lon="3.05672">
        <ele>14.800000190735</ele>
        <time>2014-11-23T11:17:20.000Z</time>
      </trkpt>
      <trkpt lat="43.08942" lon="3.05667">
        <ele>14.39999961853</ele>
        <time>2014-11-23T11:17:21.000Z</time>
      </trkpt>
      <trkpt lat="43.08936" lon="3.05662">
        <ele>14</ele>
        <time>2014-11-23T11:17:22.000Z</time>
      </trkpt>
      <trkpt lat="43.08931" lon="3.05658">
        <ele>13.60000038147</ele>
        <time>2014-11-23T11:17:23.000Z</time>
      </trkpt>
      <trkpt lat="43.08926" lon="3.05652">
        <ele>13</ele>
        <time>2014-11-23T11:17:24.000Z</time>
      </trkpt>
      <trkpt lat="43.08909" lon="3.05637">
        <ele>13</ele>
        <time>2014-11-23T11:17:27.000Z</time>
      </trkpt>
      <trkpt lat="43.08903" lon="3.05633">
        <ele>12.60000038147</ele>
        <time>2014-11-23T11:17:28.000Z</time>
      </trkpt>
      <trkpt lat="43.08896" lon="3.0563">
        <ele>12.199999809265</ele>
        <time>2014-11-23T11:17:29.000Z</time>
      </trkpt>
      <trkpt lat="43.0889" lon="3.05628">
        <ele>11.60000038147</ele>
        <time>2014-11-23T11:17:30.000Z</time>
      </trkpt>
      <trkpt lat="43.08883" lon="3.05626">
        <ele>10.60000038147</ele>
        <time>2014-11-23T11:17:31.000Z</time>
      </trkpt>
      <trkpt lat="43.0885" lon="3.05617">
        <ele>10.60000038147</ele>
        <time>2014-11-23T11:17:36.000Z</time>
      </trkpt>
      <trkpt lat="43.08832" lon="3.05623">
        <ele>10.60000038147</ele>
        <time>2014-11-23T11:17:39.000Z</time>
      </trkpt>
      <trkpt lat="43.08826" lon="3.05625">
        <ele>10.60000038147</ele>
        <time>2014-11-23T11:17:40.000Z</time>
      </trkpt>
      <trkpt lat="43.08816" lon="3.05627">
        <ele>10.60000038147</ele>
        <time>2014-11-23T11:17:42.000Z</time>
      </trkpt>
      <trkpt lat="43.08812" lon="3.05625">
        <ele>10.199999809265</ele>
        <time>2014-11-23T11:17:43.000Z</time>
      </trkpt>
      <trkpt lat="43.0881" lon="3.05623">
        <ele>9.8000001907349</ele>
        <time>2014-11-23T11:17:44.000Z</time>
      </trkpt>
      <trkpt lat="43.08808" lon="3.0562">
        <ele>9.1999998092651</ele>
        <time>2014-11-23T11:17:45.000Z</time>
      </trkpt>
      <trkpt lat="43.08808" lon="3.05616">
        <ele>8.8000001907349</ele>
        <time>2014-11-23T11:17:46.000Z</time>
      </trkpt>
      <trkpt lat="43.08807" lon="3.05614">
        <ele>8.3999996185303</ele>
        <time>2014-11-23T11:17:47.000Z</time>
      </trkpt>
      <trkpt lat="43.08807" lon="3.05612">
        <ele>8.3999996185303</ele>
        <time>2014-11-23T11:17:48.000Z</time>
      </trkpt>
      <trkpt lat="43.08807" lon="3.05613">
        <ele>8.3999996185303</ele>
        <time>2014-11-23T11:17:49.000Z</time>
      </trkpt>
      <trkpt lat="43.08808" lon="3.0561">
        <ele>8.3999996185303</ele>
        <time>2014-11-23T11:19:44.000Z</time>
      </trkpt>
      <trkpt lat="43.08814" lon="3.05605">
        <ele>8.3999996185303</ele>
        <time>2014-11-23T11:19:48.000Z</time>
      </trkpt>
      <trkpt lat="43.08821" lon="3.056">
        <ele>8.3999996185303</ele>
        <time>2014-11-23T11:19:52.000Z</time>
      </trkpt>
      <trkpt lat="43.08822" lon="3.05599">
        <ele>8.3999996185303</ele>
        <time>2014-11-23T11:19:53.000Z</time>
      </trkpt>
      <trkpt lat="43.08831" lon="3.0559">
        <ele>8.8000001907349</ele>
        <time>2014-11-23T11:19:59.000Z</time>
      </trkpt>
      <trkpt lat="43.08832" lon="3.05588">
        <ele>9.1999998092651</ele>
        <time>2014-11-23T11:20:00.000Z</time>
      </trkpt>
      <trkpt lat="43.08834" lon="3.05586">
        <ele>9.8000001907349</ele>
        <time>2014-11-23T11:20:01.000Z</time>
      </trkpt>
      <trkpt lat="43.08835" lon="3.05584">
        <ele>10.199999809265</ele>
        <time>2014-11-23T11:20:02.000Z</time>
      </trkpt>
      <trkpt lat="43.08836" lon="3.05582">
        <ele>10.60000038147</ele>
        <time>2014-11-23T11:20:03.000Z</time>
      </trkpt>
      <trkpt lat="43.0884" lon="3.05576">
        <ele>10.60000038147</ele>
        <time>2014-11-23T11:20:06.000Z</time>
      </trkpt>
      <trkpt lat="43.08847" lon="3.05568">
        <ele>11</ele>
        <time>2014-11-23T11:20:10.000Z</time>
      </trkpt>
      <trkpt lat="43.08849" lon="3.05567">
        <ele>11.39999961853</ele>
        <time>2014-11-23T11:20:11.000Z</time>
      </trkpt>
      <trkpt lat="43.08851" lon="3.05567">
        <ele>11.800000190735</ele>
        <time>2014-11-23T11:20:12.000Z</time>
      </trkpt>
      <trkpt lat="43.08854" lon="3.05568">
        <ele>12.39999961853</ele>
        <time>2014-11-23T11:20:13.000Z</time>
      </trkpt>
      <trkpt lat="43.08856" lon="3.05569">
        <ele>12.800000190735</ele>
        <time>2014-11-23T11:20:14.000Z</time>
      </trkpt>
      <trkpt lat="43.08864" lon="3.0557">
        <ele>12.800000190735</ele>
        <time>2014-11-23T11:20:17.000Z</time>
      </trkpt>
      <trkpt lat="43.08872" lon="3.05565">
        <ele>12.800000190735</ele>
        <time>2014-11-23T11:20:21.000Z</time>
      </trkpt>
      <trkpt lat="43.08876" lon="3.05555">
        <ele>12.800000190735</ele>
        <time>2014-11-23T11:20:25.000Z</time>
      </trkpt>
      <trkpt lat="43.08877" lon="3.05553">
        <ele>12.800000190735</ele>
        <time>2014-11-23T11:20:26.000Z</time>
      </trkpt>
      <trkpt lat="43.0888" lon="3.0555">
        <ele>13.199999809265</ele>
        <time>2014-11-23T11:20:28.000Z</time>
      </trkpt>
      <trkpt lat="43.08881" lon="3.05548">
        <ele>13.60000038147</ele>
        <time>2014-11-23T11:20:29.000Z</time>
      </trkpt>
      <trkpt lat="43.08883" lon="3.05547">
        <ele>14</ele>
        <time>2014-11-23T11:20:30.000Z</time>
      </trkpt>
      <trkpt lat="43.08885" lon="3.05546">
        <ele>14.39999961853</ele>
        <time>2014-11-23T11:20:31.000Z</time>
      </trkpt>
      <trkpt lat="43.08885" lon="3.05545">
        <ele>14.800000190735</ele>
        <time>2014-11-23T11:20:32.000Z</time>
      </trkpt>
      <trkpt lat="43.08889" lon="3.05542">
        <ele>14.800000190735</ele>
        <time>2014-11-23T11:20:35.000Z</time>
      </trkpt>
      <trkpt lat="43.08898" lon="3.05531">
        <ele>14.800000190735</ele>
        <time>2014-11-23T11:20:42.000Z</time>
      </trkpt>
      <trkpt lat="43.08906" lon="3.05525">
        <ele>14.800000190735</ele>
        <time>2014-11-23T11:20:47.000Z</time>
      </trkpt>
      <trkpt lat="43.08908" lon="3.05525">
        <ele>14.800000190735</ele>
        <time>2014-11-23T11:20:48.000Z</time>
      </trkpt>
      <trkpt lat="43.08918" lon="3.05519">
        <ele>14.800000190735</ele>
        <time>2014-11-23T11:20:54.000Z</time>
      </trkpt>
      <trkpt lat="43.08926" lon="3.05514">
        <ele>15.199999809265</ele>
        <time>2014-11-23T11:20:59.000Z</time>
      </trkpt>
      <trkpt lat="43.08927" lon="3.05513">
        <ele>15.60000038147</ele>
        <time>2014-11-23T11:21:00.000Z</time>
      </trkpt>
      <trkpt lat="43.08929" lon="3.05512">
        <ele>16</ele>
        <time>2014-11-23T11:21:01.000Z</time>
      </trkpt>
      <trkpt lat="43.08931" lon="3.05511">
        <ele>16.39999961853</ele>
        <time>2014-11-23T11:21:02.000Z</time>
      </trkpt>
      <trkpt lat="43.08933" lon="3.0551">
        <ele>16.799999237061</ele>
        <time>2014-11-23T11:21:03.000Z</time>
      </trkpt>
      <trkpt lat="43.08941" lon="3.05504">
        <ele>16.799999237061</ele>
        <time>2014-11-23T11:21:08.000Z</time>
      </trkpt>
      <trkpt lat="43.08947" lon="3.05495">
        <ele>17.799999237061</ele>
        <time>2014-11-23T11:21:13.000Z</time>
      </trkpt>
      <trkpt lat="43.08948" lon="3.05493">
        <ele>18.200000762939</ele>
        <time>2014-11-23T11:21:14.000Z</time>
      </trkpt>
      <trkpt lat="43.0895" lon="3.05492">
        <ele>18.60000038147</ele>
        <time>2014-11-23T11:21:15.000Z</time>
      </trkpt>
      <trkpt lat="43.08951" lon="3.0549">
        <ele>19</ele>
        <time>2014-11-23T11:21:16.000Z</time>
      </trkpt>
      <trkpt lat="43.08955" lon="3.05482">
        <ele>19</ele>
        <time>2014-11-23T11:21:20.000Z</time>
      </trkpt>
      <trkpt lat="43.08958" lon="3.05472">
        <ele>19</ele>
        <time>2014-11-23T11:21:24.000Z</time>
      </trkpt>
      <trkpt lat="43.08957" lon="3.05471">
        <ele>19</ele>
        <time>2014-11-23T11:21:25.000Z</time>
      </trkpt>
      <trkpt lat="43.08954" lon="3.05465">
        <ele>19.39999961853</ele>
        <time>2014-11-23T11:21:28.000Z</time>
      </trkpt>
      <trkpt lat="43.08954" lon="3.05463">
        <ele>19.799999237061</ele>
        <time>2014-11-23T11:21:29.000Z</time>
      </trkpt>
      <trkpt lat="43.08954" lon="3.05461">
        <ele>20.200000762939</ele>
        <time>2014-11-23T11:21:30.000Z</time>
      </trkpt>
      <trkpt lat="43.08954" lon="3.05458">
        <ele>20.60000038147</ele>
        <time>2014-11-23T11:21:31.000Z</time>
      </trkpt>
      <trkpt lat="43.08954" lon="3.05456">
        <ele>21</ele>
        <time>2014-11-23T11:21:32.000Z</time>
      </trkpt>
      <trkpt lat="43.08954" lon="3.05444">
        <ele>21</ele>
        <time>2014-11-23T11:21:37.000Z</time>
      </trkpt>
      <trkpt lat="43.08954" lon="3.05439">
        <ele>21.39999961853</ele>
        <time>2014-11-23T11:21:39.000Z</time>
      </trkpt>
      <trkpt lat="43.08954" lon="3.05437">
        <ele>21.799999237061</ele>
        <time>2014-11-23T11:21:40.000Z</time>
      </trkpt>
      <trkpt lat="43.08954" lon="3.05435">
        <ele>22.39999961853</ele>
        <time>2014-11-23T11:21:41.000Z</time>
      </trkpt>
      <trkpt lat="43.08955" lon="3.05432">
        <ele>22.799999237061</ele>
        <time>2014-11-23T11:21:42.000Z</time>
      </trkpt>
      <trkpt lat="43.08955" lon="3.0543">
        <ele>23.200000762939</ele>
        <time>2014-11-23T11:21:43.000Z</time>
      </trkpt>
      <trkpt lat="43.08956" lon="3.05427">
        <ele>23.200000762939</ele>
        <time>2014-11-23T11:21:44.000Z</time>
      </trkpt>
      <trkpt lat="43.08963" lon="3.05417">
        <ele>23.200000762939</ele>
        <time>2014-11-23T11:21:50.000Z</time>
      </trkpt>
      <trkpt lat="43.08973" lon="3.05412">
        <ele>23.200000762939</ele>
        <time>2014-11-23T11:21:54.000Z</time>
      </trkpt>
      <trkpt lat="43.08976" lon="3.05406">
        <ele>23.200000762939</ele>
        <time>2014-11-23T11:21:56.000Z</time>
      </trkpt>
      <trkpt lat="43.08975" lon="3.054">
        <ele>23.200000762939</ele>
        <time>2014-11-23T11:21:58.000Z</time>
      </trkpt>
      <trkpt lat="43.08972" lon="3.05382">
        <ele>23.60000038147</ele>
        <time>2014-11-23T11:22:03.000Z</time>
      </trkpt>
      <trkpt lat="43.08972" lon="3.05379">
        <ele>24</ele>
        <time>2014-11-23T11:22:04.000Z</time>
      </trkpt>
      <trkpt lat="43.08972" lon="3.05377">
        <ele>24.39999961853</ele>
        <time>2014-11-23T11:22:05.000Z</time>
      </trkpt>
      <trkpt lat="43.08972" lon="3.05374">
        <ele>24.799999237061</ele>
        <time>2014-11-23T11:22:06.000Z</time>
      </trkpt>
      <trkpt lat="43.08973" lon="3.05372">
        <ele>25.39999961853</ele>
        <time>2014-11-23T11:22:07.000Z</time>
      </trkpt>
      <trkpt lat="43.08975" lon="3.0537">
        <ele>25.39999961853</ele>
        <time>2014-11-23T11:22:08.000Z</time>
      </trkpt>
      <trkpt lat="43.08977" lon="3.05366">
        <ele>25.39999961853</ele>
        <time>2014-11-23T11:22:12.000Z</time>
      </trkpt>
      <trkpt lat="43.08978" lon="3.05363">
        <ele>25.39999961853</ele>
        <time>2014-11-23T11:22:24.000Z</time>
      </trkpt>
      <trkpt lat="43.08978" lon="3.0536">
        <ele>25.39999961853</ele>
        <time>2014-11-23T11:22:25.000Z</time>
      </trkpt>
      <trkpt lat="43.08978" lon="3.05355">
        <ele>25.39999961853</ele>
        <time>2014-11-23T11:22:26.000Z</time>
      </trkpt>
      <trkpt lat="43.08973" lon="3.05333">
        <ele>25.39999961853</ele>
        <time>2014-11-23T11:22:32.000Z</time>
      </trkpt>
      <trkpt lat="43.08959" lon="3.05323">
        <ele>25.39999961853</ele>
        <time>2014-11-23T11:22:36.000Z</time>
      </trkpt>
      <trkpt lat="43.08949" lon="3.05312">
        <ele>25.39999961853</ele>
        <time>2014-11-23T11:22:40.000Z</time>
      </trkpt>
      <trkpt lat="43.08931" lon="3.05301">
        <ele>25.39999961853</ele>
        <time>2014-11-23T11:22:46.000Z</time>
      </trkpt>
      <trkpt lat="43.08915" lon="3.05287">
        <ele>25.39999961853</ele>
        <time>2014-11-23T11:22:52.000Z</time>
      </trkpt>
      <trkpt lat="43.08904" lon="3.0527">
        <ele>25.39999961853</ele>
        <time>2014-11-23T11:22:57.000Z</time>
      </trkpt>
      <trkpt lat="43.08897" lon="3.05256">
        <ele>25.39999961853</ele>
        <time>2014-11-23T11:23:02.000Z</time>
      </trkpt>
      <trkpt lat="43.08897" lon="3.05257">
        <ele>25.39999961853</ele>
        <time>2014-11-23T11:23:03.000Z</time>
      </trkpt>
      <trkpt lat="43.08894" lon="3.05254">
        <ele>25.39999961853</ele>
        <time>2014-11-23T11:30:16.000Z</time>
      </trkpt>
      <trkpt lat="43.08894" lon="3.05251">
        <ele>25.39999961853</ele>
        <time>2014-11-23T11:30:17.000Z</time>
      </trkpt>
      <trkpt lat="43.08891" lon="3.05233">
        <ele>25.39999961853</ele>
        <time>2014-11-23T11:30:23.000Z</time>
      </trkpt>
      <trkpt lat="43.08886" lon="3.05217">
        <ele>25.799999237061</ele>
        <time>2014-11-23T11:30:28.000Z</time>
      </trkpt>
      <trkpt lat="43.08884" lon="3.05215">
        <ele>26.200000762939</ele>
        <time>2014-11-23T11:30:29.000Z</time>
      </trkpt>
      <trkpt lat="43.08882" lon="3.05212">
        <ele>26.60000038147</ele>
        <time>2014-11-23T11:30:30.000Z</time>
      </trkpt>
      <trkpt lat="43.08881" lon="3.05208">
        <ele>27</ele>
        <time>2014-11-23T11:30:31.000Z</time>
      </trkpt>
      <trkpt lat="43.08879" lon="3.05206">
        <ele>27.39999961853</ele>
        <time>2014-11-23T11:30:32.000Z</time>
      </trkpt>
      <trkpt lat="43.08878" lon="3.05203">
        <ele>27.39999961853</ele>
        <time>2014-11-23T11:30:33.000Z</time>
      </trkpt>
      <trkpt lat="43.08876" lon="3.05188">
        <ele>27.39999961853</ele>
        <time>2014-11-23T11:30:37.000Z</time>
      </trkpt>
      <trkpt lat="43.08872" lon="3.05177">
        <ele>27.39999961853</ele>
        <time>2014-11-23T11:30:41.000Z</time>
      </trkpt>
      <trkpt lat="43.08873" lon="3.05165">
        <ele>27.39999961853</ele>
        <time>2014-11-23T11:30:45.000Z</time>
      </trkpt>
      <trkpt lat="43.08874" lon="3.05162">
        <ele>27.39999961853</ele>
        <time>2014-11-23T11:30:46.000Z</time>
      </trkpt>
      <trkpt lat="43.08872" lon="3.05156">
        <ele>27.39999961853</ele>
        <time>2014-11-23T11:30:49.000Z</time>
      </trkpt>
      <trkpt lat="43.0887" lon="3.05155">
        <ele>27.799999237061</ele>
        <time>2014-11-23T11:30:50.000Z</time>
      </trkpt>
      <trkpt lat="43.08868" lon="3.05153">
        <ele>28.200000762939</ele>
        <time>2014-11-23T11:30:51.000Z</time>
      </trkpt>
      <trkpt lat="43.08865" lon="3.05152">
        <ele>28.60000038147</ele>
        <time>2014-11-23T11:30:52.000Z</time>
      </trkpt>
      <trkpt lat="43.08862" lon="3.05151">
        <ele>29</ele>
        <time>2014-11-23T11:30:53.000Z</time>
      </trkpt>
      <trkpt lat="43.08859" lon="3.0515">
        <ele>29.39999961853</ele>
        <time>2014-11-23T11:30:54.000Z</time>
      </trkpt>
      <trkpt lat="43.08856" lon="3.05147">
        <ele>29.39999961853</ele>
        <time>2014-11-23T11:30:55.000Z</time>
      </trkpt>
      <trkpt lat="43.08852" lon="3.0514">
        <ele>29.39999961853</ele>
        <time>2014-11-23T11:30:57.000Z</time>
      </trkpt>
      <trkpt lat="43.08848" lon="3.05129">
        <ele>29.39999961853</ele>
        <time>2014-11-23T11:31:00.000Z</time>
      </trkpt>
      <trkpt lat="43.08844" lon="3.05119">
        <ele>29</ele>
        <time>2014-11-23T11:31:03.000Z</time>
      </trkpt>
      <trkpt lat="43.08843" lon="3.05114">
        <ele>28.60000038147</ele>
        <time>2014-11-23T11:31:04.000Z</time>
      </trkpt>
      <trkpt lat="43.08841" lon="3.05109">
        <ele>27.799999237061</ele>
        <time>2014-11-23T11:31:05.000Z</time>
      </trkpt>
      <trkpt lat="43.08839" lon="3.05104">
        <ele>27.200000762939</ele>
        <time>2014-11-23T11:31:06.000Z</time>
      </trkpt>
      <trkpt lat="43.08837" lon="3.05088">
        <ele>27.200000762939</ele>
        <time>2014-11-23T11:31:09.000Z</time>
      </trkpt>
      <trkpt lat="43.08831" lon="3.05075">
        <ele>27.200000762939</ele>
        <time>2014-11-23T11:31:13.000Z</time>
      </trkpt>
      <trkpt lat="43.08831" lon="3.05071">
        <ele>27.200000762939</ele>
        <time>2014-11-23T11:31:14.000Z</time>
      </trkpt>
      <trkpt lat="43.08828" lon="3.05052">
        <ele>27.200000762939</ele>
        <time>2014-11-23T11:31:19.000Z</time>
      </trkpt>
      <trkpt lat="43.08827" lon="3.05026">
        <ele>27.200000762939</ele>
        <time>2014-11-23T11:31:25.000Z</time>
      </trkpt>
      <trkpt lat="43.08824" lon="3.05014">
        <ele>27.200000762939</ele>
        <time>2014-11-23T11:31:29.000Z</time>
      </trkpt>
      <trkpt lat="43.08823" lon="3.05011">
        <ele>27.200000762939</ele>
        <time>2014-11-23T11:31:30.000Z</time>
      </trkpt>
      <trkpt lat="43.0882" lon="3.05003">
        <ele>26.799999237061</ele>
        <time>2014-11-23T11:31:32.000Z</time>
      </trkpt>
      <trkpt lat="43.08818" lon="3.04998">
        <ele>26.39999961853</ele>
        <time>2014-11-23T11:31:33.000Z</time>
      </trkpt>
      <trkpt lat="43.08818" lon="3.04993">
        <ele>26</ele>
        <time>2014-11-23T11:31:34.000Z</time>
      </trkpt>
      <trkpt lat="43.08817" lon="3.04987">
        <ele>25.39999961853</ele>
        <time>2014-11-23T11:31:35.000Z</time>
      </trkpt>
      <trkpt lat="43.08816" lon="3.04982">
        <ele>25</ele>
        <time>2014-11-23T11:31:36.000Z</time>
      </trkpt>
      <trkpt lat="43.08814" lon="3.04978">
        <ele>25</ele>
        <time>2014-11-23T11:31:37.000Z</time>
      </trkpt>
      <trkpt lat="43.0881" lon="3.04973">
        <ele>25</ele>
        <time>2014-11-23T11:31:39.000Z</time>
      </trkpt>
      <trkpt lat="43.0881" lon="3.04968">
        <ele>24.60000038147</ele>
        <time>2014-11-23T11:31:40.000Z</time>
      </trkpt>
      <trkpt lat="43.0881" lon="3.04964">
        <ele>24.200000762939</ele>
        <time>2014-11-23T11:31:41.000Z</time>
      </trkpt>
      <trkpt lat="43.08809" lon="3.04959">
        <ele>23.799999237061</ele>
        <time>2014-11-23T11:31:42.000Z</time>
      </trkpt>
      <trkpt lat="43.08808" lon="3.04955">
        <ele>23.39999961853</ele>
        <time>2014-11-23T11:31:43.000Z</time>
      </trkpt>
      <trkpt lat="43.08807" lon="3.04949">
        <ele>23</ele>
        <time>2014-11-23T11:31:44.000Z</time>
      </trkpt>
      <trkpt lat="43.08804" lon="3.04939">
        <ele>23</ele>
        <time>2014-11-23T11:31:46.000Z</time>
      </trkpt>
      <trkpt lat="43.08803" lon="3.04934">
        <ele>23</ele>
        <time>2014-11-23T11:31:47.000Z</time>
      </trkpt>
      <trkpt lat="43.08799" lon="3.04915">
        <ele>22.60000038147</ele>
        <time>2014-11-23T11:31:51.000Z</time>
      </trkpt>
      <trkpt lat="43.08798" lon="3.0491">
        <ele>22.200000762939</ele>
        <time>2014-11-23T11:31:52.000Z</time>
      </trkpt>
      <trkpt lat="43.08796" lon="3.04906">
        <ele>21.799999237061</ele>
        <time>2014-11-23T11:31:53.000Z</time>
      </trkpt>
      <trkpt lat="43.08792" lon="3.04902">
        <ele>21</ele>
        <time>2014-11-23T11:31:54.000Z</time>
      </trkpt>
      <trkpt lat="43.08789" lon="3.04897">
        <ele>21</ele>
        <time>2014-11-23T11:31:55.000Z</time>
      </trkpt>
      <trkpt lat="43.08786" lon="3.04892">
        <ele>20.60000038147</ele>
        <time>2014-11-23T11:31:56.000Z</time>
      </trkpt>
      <trkpt lat="43.08783" lon="3.04887">
        <ele>20.200000762939</ele>
        <time>2014-11-23T11:31:57.000Z</time>
      </trkpt>
      <trkpt lat="43.0878" lon="3.04884">
        <ele>19.799999237061</ele>
        <time>2014-11-23T11:31:58.000Z</time>
      </trkpt>
      <trkpt lat="43.08779" lon="3.0488">
        <ele>19.39999961853</ele>
        <time>2014-11-23T11:31:59.000Z</time>
      </trkpt>
      <trkpt lat="43.08779" lon="3.04877">
        <ele>18.799999237061</ele>
        <time>2014-11-23T11:32:00.000Z</time>
      </trkpt>
      <trkpt lat="43.08786" lon="3.04868">
        <ele>18.799999237061</ele>
        <time>2014-11-23T11:32:04.000Z</time>
      </trkpt>
      <trkpt lat="43.08788" lon="3.04863">
        <ele>18.799999237061</ele>
        <time>2014-11-23T11:32:06.000Z</time>
      </trkpt>
      <trkpt lat="43.0879" lon="3.04852">
        <ele>18.799999237061</ele>
        <time>2014-11-23T11:32:09.000Z</time>
      </trkpt>
      <trkpt lat="43.08795" lon="3.04846">
        <ele>18.799999237061</ele>
        <time>2014-11-23T11:32:13.000Z</time>
      </trkpt>
      <trkpt lat="43.08789" lon="3.04842">
        <ele>18.799999237061</ele>
        <time>2014-11-23T11:32:17.000Z</time>
      </trkpt>
      <trkpt lat="43.08781" lon="3.04834">
        <ele>18.799999237061</ele>
        <time>2014-11-23T11:32:22.000Z</time>
      </trkpt>
      <trkpt lat="43.0878" lon="3.0483">
        <ele>18.799999237061</ele>
        <time>2014-11-23T11:32:24.000Z</time>
      </trkpt>
      <trkpt lat="43.0878" lon="3.04831">
        <ele>18.799999237061</ele>
        <time>2014-11-23T11:32:25.000Z</time>
      </trkpt>
      <trkpt lat="43.08779" lon="3.0483">
        <ele>18.799999237061</ele>
        <time>2014-11-23T11:36:00.000Z</time>
      </trkpt>
      <trkpt lat="43.0877" lon="3.04822">
        <ele>18.799999237061</ele>
        <time>2014-11-23T11:36:04.000Z</time>
      </trkpt>
      <trkpt lat="43.08762" lon="3.04812">
        <ele>18.799999237061</ele>
        <time>2014-11-23T11:36:09.000Z</time>
      </trkpt>
      <trkpt lat="43.08761" lon="3.0481">
        <ele>18.799999237061</ele>
        <time>2014-11-23T11:36:10.000Z</time>
      </trkpt>
      <trkpt lat="43.08759" lon="3.04801">
        <ele>18.799999237061</ele>
        <time>2014-11-23T11:36:13.000Z</time>
      </trkpt>
      <trkpt lat="43.08752" lon="3.04789">
        <ele>19.200000762939</ele>
        <time>2014-11-23T11:36:18.000Z</time>
      </trkpt>
      <trkpt lat="43.08752" lon="3.04787">
        <ele>19.60000038147</ele>
        <time>2014-11-23T11:36:19.000Z</time>
      </trkpt>
      <trkpt lat="43.08751" lon="3.04784">
        <ele>20.200000762939</ele>
        <time>2014-11-23T11:36:20.000Z</time>
      </trkpt>
      <trkpt lat="43.0875" lon="3.04782">
        <ele>20.60000038147</ele>
        <time>2014-11-23T11:36:21.000Z</time>
      </trkpt>
      <trkpt lat="43.08748" lon="3.0478">
        <ele>21</ele>
        <time>2014-11-23T11:36:22.000Z</time>
      </trkpt>
      <trkpt lat="43.08745" lon="3.04776">
        <ele>21</ele>
        <time>2014-11-23T11:36:24.000Z</time>
      </trkpt>
      <trkpt lat="43.08745" lon="3.04774">
        <ele>21</ele>
        <time>2014-11-23T11:36:25.000Z</time>
      </trkpt>
      <trkpt lat="43.08742" lon="3.04766">
        <ele>21</ele>
        <time>2014-11-23T11:36:28.000Z</time>
      </trkpt>
      <trkpt lat="43.08733" lon="3.04758">
        <ele>21.39999961853</ele>
        <time>2014-11-23T11:36:33.000Z</time>
      </trkpt>
      <trkpt lat="43.08731" lon="3.04758">
        <ele>21.799999237061</ele>
        <time>2014-11-23T11:36:34.000Z</time>
      </trkpt>
      <trkpt lat="43.0873" lon="3.04758">
        <ele>22.200000762939</ele>
        <time>2014-11-23T11:36:35.000Z</time>
      </trkpt>
      <trkpt lat="43.08729" lon="3.04756">
        <ele>22.60000038147</ele>
        <time>2014-11-23T11:36:36.000Z</time>
      </trkpt>
      <trkpt lat="43.08729" lon="3.04754">
        <ele>23</ele>
        <time>2014-11-23T11:36:37.000Z</time>
      </trkpt>
      <trkpt lat="43.08728" lon="3.04754">
        <ele>23.39999961853</ele>
        <time>2014-11-23T11:36:40.000Z</time>
      </trkpt>
      <trkpt lat="43.08728" lon="3.04751">
        <ele>25.200000762939</ele>
        <time>2014-11-23T11:37:04.000Z</time>
      </trkpt>
      <trkpt lat="43.08727" lon="3.04751">
        <ele>25.200000762939</ele>
        <time>2014-11-23T11:37:05.000Z</time>
      </trkpt>
      <trkpt lat="43.08726" lon="3.04748">
        <ele>25.200000762939</ele>
        <time>2014-11-23T11:37:07.000Z</time>
      </trkpt>
      <trkpt lat="43.08724" lon="3.04741">
        <ele>25.200000762939</ele>
        <time>2014-11-23T11:37:12.000Z</time>
      </trkpt>
      <trkpt lat="43.08722" lon="3.0474">
        <ele>25.60000038147</ele>
        <time>2014-11-23T11:37:13.000Z</time>
      </trkpt>
      <trkpt lat="43.08722" lon="3.04739">
        <ele>26.39999961853</ele>
        <time>2014-11-23T11:37:14.000Z</time>
      </trkpt>
      <trkpt lat="43.08722" lon="3.04737">
        <ele>26.799999237061</ele>
        <time>2014-11-23T11:37:15.000Z</time>
      </trkpt>
      <trkpt lat="43.08721" lon="3.04736">
        <ele>27.200000762939</ele>
        <time>2014-11-23T11:37:16.000Z</time>
      </trkpt>
      <trkpt lat="43.08722" lon="3.04737">
        <ele>27.200000762939</ele>
        <time>2014-11-23T11:37:17.000Z</time>
      </trkpt>
      <trkpt lat="43.08719" lon="3.04733">
        <ele>27.200000762939</ele>
        <time>2014-11-23T11:37:21.000Z</time>
      </trkpt>
      <trkpt lat="43.08717" lon="3.04728">
        <ele>27.200000762939</ele>
        <time>2014-11-23T11:37:23.000Z</time>
      </trkpt>
      <trkpt lat="43.08714" lon="3.04715">
        <ele>27.200000762939</ele>
        <time>2014-11-23T11:37:28.000Z</time>
      </trkpt>
      <trkpt lat="43.08707" lon="3.04704">
        <ele>27.200000762939</ele>
        <time>2014-11-23T11:37:33.000Z</time>
      </trkpt>
      <trkpt lat="43.08698" lon="3.047">
        <ele>27.60000038147</ele>
        <time>2014-11-23T11:37:37.000Z</time>
      </trkpt>
      <trkpt lat="43.08696" lon="3.04701">
        <ele>28</ele>
        <time>2014-11-23T11:37:38.000Z</time>
      </trkpt>
      <trkpt lat="43.08694" lon="3.04702">
        <ele>29</ele>
        <time>2014-11-23T11:37:39.000Z</time>
      </trkpt>
      <trkpt lat="43.08691" lon="3.04704">
        <ele>29.39999961853</ele>
        <time>2014-11-23T11:37:40.000Z</time>
      </trkpt>
      <trkpt lat="43.08684" lon="3.04708">
        <ele>29.39999961853</ele>
        <time>2014-11-23T11:37:43.000Z</time>
      </trkpt>
      <trkpt lat="43.08677" lon="3.04714">
        <ele>29.39999961853</ele>
        <time>2014-11-23T11:37:47.000Z</time>
      </trkpt>
      <trkpt lat="43.08667" lon="3.04718">
        <ele>29.39999961853</ele>
        <time>2014-11-23T11:37:52.000Z</time>
      </trkpt>
      <trkpt lat="43.08663" lon="3.0472">
        <ele>29.39999961853</ele>
        <time>2014-11-23T11:37:55.000Z</time>
      </trkpt>
      <trkpt lat="43.08661" lon="3.04721">
        <ele>29.39999961853</ele>
        <time>2014-11-23T11:37:57.000Z</time>
      </trkpt>
      <trkpt lat="43.08661" lon="3.0472">
        <ele>29.39999961853</ele>
        <time>2014-11-23T11:37:58.000Z</time>
      </trkpt>
      <trkpt lat="43.08659" lon="3.04722">
        <ele>29.39999961853</ele>
        <time>2014-11-23T11:38:26.000Z</time>
      </trkpt>
      <trkpt lat="43.08658" lon="3.04723">
        <ele>29.39999961853</ele>
        <time>2014-11-23T11:38:27.000Z</time>
      </trkpt>
      <trkpt lat="43.08648" lon="3.04732">
        <ele>29.39999961853</ele>
        <time>2014-11-23T11:38:31.000Z</time>
      </trkpt>
      <trkpt lat="43.08633" lon="3.04742">
        <ele>29.39999961853</ele>
        <time>2014-11-23T11:38:36.000Z</time>
      </trkpt>
      <trkpt lat="43.08629" lon="3.04741">
        <ele>29.39999961853</ele>
        <time>2014-11-23T11:38:38.000Z</time>
      </trkpt>
      <trkpt lat="43.08624" lon="3.04741">
        <ele>29.39999961853</ele>
        <time>2014-11-23T11:38:40.000Z</time>
      </trkpt>
      <trkpt lat="43.08617" lon="3.04746">
        <ele>29.39999961853</ele>
        <time>2014-11-23T11:38:44.000Z</time>
      </trkpt>
      <trkpt lat="43.08605" lon="3.04749">
        <ele>29.39999961853</ele>
        <time>2014-11-23T11:38:50.000Z</time>
      </trkpt>
      <trkpt lat="43.08593" lon="3.04742">
        <ele>29.39999961853</ele>
        <time>2014-11-23T11:38:56.000Z</time>
      </trkpt>
      <trkpt lat="43.08578" lon="3.04735">
        <ele>29.39999961853</ele>
        <time>2014-11-23T11:39:03.000Z</time>
      </trkpt>
      <trkpt lat="43.08566" lon="3.04729">
        <ele>29.39999961853</ele>
        <time>2014-11-23T11:39:08.000Z</time>
      </trkpt>
      <trkpt lat="43.08555" lon="3.04727">
        <ele>29.39999961853</ele>
        <time>2014-11-23T11:39:13.000Z</time>
      </trkpt>
      <trkpt lat="43.08555" lon="3.04727">
        <ele>29.39999961853</ele>
        <time>2014-11-23T11:39:14.000Z</time>
      </trkpt>
      <trkpt lat="43.08554" lon="3.04725">
        <ele>27.200000762939</ele>
        <time>2014-11-23T11:41:06.000Z</time>
      </trkpt>
      <trkpt lat="43.08549" lon="3.04724">
        <ele>27.200000762939</ele>
        <time>2014-11-23T11:41:08.000Z</time>
      </trkpt>
      <trkpt lat="43.08535" lon="3.0472">
        <ele>27.200000762939</ele>
        <time>2014-11-23T11:41:13.000Z</time>
      </trkpt>
      <trkpt lat="43.08522" lon="3.04722">
        <ele>27.200000762939</ele>
        <time>2014-11-23T11:41:18.000Z</time>
      </trkpt>
      <trkpt lat="43.08514" lon="3.04729">
        <ele>26.799999237061</ele>
        <time>2014-11-23T11:41:22.000Z</time>
      </trkpt>
      <trkpt lat="43.08513" lon="3.0473">
        <ele>26.39999961853</ele>
        <time>2014-11-23T11:41:23.000Z</time>
      </trkpt>
      <trkpt lat="43.08513" lon="3.04731">
        <ele>25.799999237061</ele>
        <time>2014-11-23T11:41:24.000Z</time>
      </trkpt>
      <trkpt lat="43.08513" lon="3.04731">
        <ele>25.39999961853</ele>
        <time>2014-11-23T11:41:25.000Z</time>
      </trkpt>
      <trkpt lat="43.08513" lon="3.04732">
        <ele>25</ele>
        <time>2014-11-23T11:41:27.000Z</time>
      </trkpt>
      <trkpt lat="43.08512" lon="3.04733">
        <ele>25</ele>
        <time>2014-11-23T11:41:28.000Z</time>
      </trkpt>
      <trkpt lat="43.08511" lon="3.04735">
        <ele>25</ele>
        <time>2014-11-23T11:41:30.000Z</time>
      </trkpt>
      <trkpt lat="43.08509" lon="3.04736">
        <ele>25</ele>
        <time>2014-11-23T11:41:35.000Z</time>
      </trkpt>
      <trkpt lat="43.08508" lon="3.04736">
        <ele>25</ele>
        <time>2014-11-23T11:41:36.000Z</time>
      </trkpt>
      <trkpt lat="43.08507" lon="3.04736">
        <ele>24.60000038147</ele>
        <time>2014-11-23T11:41:37.000Z</time>
      </trkpt>
      <trkpt lat="43.08506" lon="3.04737">
        <ele>24.200000762939</ele>
        <time>2014-11-23T11:41:38.000Z</time>
      </trkpt>
      <trkpt lat="43.08505" lon="3.04738">
        <ele>23.799999237061</ele>
        <time>2014-11-23T11:41:39.000Z</time>
      </trkpt>
      <trkpt lat="43.08505" lon="3.04738">
        <ele>23.39999961853</ele>
        <time>2014-11-23T11:41:40.000Z</time>
      </trkpt>
      <trkpt lat="43.08505" lon="3.04738">
        <ele>23</ele>
        <time>2014-11-23T11:41:42.000Z</time>
      </trkpt>
      <trkpt lat="43.08499" lon="3.04745">
        <ele>22</ele>
        <time>2014-11-23T11:41:46.000Z</time>
      </trkpt>
      <trkpt lat="43.08496" lon="3.04747">
        <ele>21.60000038147</ele>
        <time>2014-11-23T11:41:47.000Z</time>
      </trkpt>
      <trkpt lat="43.08493" lon="3.04749">
        <ele>21.200000762939</ele>
        <time>2014-11-23T11:41:48.000Z</time>
      </trkpt>
      <trkpt lat="43.08491" lon="3.0475">
        <ele>20.799999237061</ele>
        <time>2014-11-23T11:41:49.000Z</time>
      </trkpt>
      <trkpt lat="43.08478" lon="3.04745">
        <ele>20.799999237061</ele>
        <time>2014-11-23T11:42:07.000Z</time>
      </trkpt>
      <trkpt lat="43.08476" lon="3.04745">
        <ele>21.200000762939</ele>
        <time>2014-11-23T11:42:09.000Z</time>
      </trkpt>
      <trkpt lat="43.08475" lon="3.04745">
        <ele>21.60000038147</ele>
        <time>2014-11-23T11:42:10.000Z</time>
      </trkpt>
      <trkpt lat="43.08474" lon="3.04745">
        <ele>22.39999961853</ele>
        <time>2014-11-23T11:42:11.000Z</time>
      </trkpt>
      <trkpt lat="43.08473" lon="3.04746">
        <ele>22.799999237061</ele>
        <time>2014-11-23T11:42:12.000Z</time>
      </trkpt>
      <trkpt lat="43.08472" lon="3.04744">
        <ele>22.799999237061</ele>
        <time>2014-11-23T11:43:03.000Z</time>
      </trkpt>
      <trkpt lat="43.08468" lon="3.04744">
        <ele>22.799999237061</ele>
        <time>2014-11-23T11:43:06.000Z</time>
      </trkpt>
      <trkpt lat="43.08463" lon="3.04745">
        <ele>22.799999237061</ele>
        <time>2014-11-23T11:43:12.000Z</time>
      </trkpt>
      <trkpt lat="43.08455" lon="3.04748">
        <ele>22.799999237061</ele>
        <time>2014-11-23T11:43:18.000Z</time>
      </trkpt>
      <trkpt lat="43.08455" lon="3.04749">
        <ele>22.799999237061</ele>
        <time>2014-11-23T11:43:19.000Z</time>
      </trkpt>
      <trkpt lat="43.08453" lon="3.04752">
        <ele>22.799999237061</ele>
        <time>2014-11-23T11:44:57.000Z</time>
      </trkpt>
      <trkpt lat="43.08451" lon="3.04753">
        <ele>22.799999237061</ele>
        <time>2014-11-23T11:44:58.000Z</time>
      </trkpt>
      <trkpt lat="43.08441" lon="3.0476">
        <ele>22.799999237061</ele>
        <time>2014-11-23T11:45:02.000Z</time>
      </trkpt>
      <trkpt lat="43.08428" lon="3.04774">
        <ele>22.799999237061</ele>
        <time>2014-11-23T11:45:07.000Z</time>
      </trkpt>
      <trkpt lat="43.08418" lon="3.04791">
        <ele>22.799999237061</ele>
        <time>2014-11-23T11:45:12.000Z</time>
      </trkpt>
      <trkpt lat="43.08416" lon="3.04793">
        <ele>22.39999961853</ele>
        <time>2014-11-23T11:45:13.000Z</time>
      </trkpt>
      <trkpt lat="43.08413" lon="3.04794">
        <ele>21.799999237061</ele>
        <time>2014-11-23T11:45:14.000Z</time>
      </trkpt>
      <trkpt lat="43.08411" lon="3.04794">
        <ele>21.39999961853</ele>
        <time>2014-11-23T11:45:15.000Z</time>
      </trkpt>
      <trkpt lat="43.0841" lon="3.04795">
        <ele>21</ele>
        <time>2014-11-23T11:45:16.000Z</time>
      </trkpt>
      <trkpt lat="43.08409" lon="3.04796">
        <ele>20.60000038147</ele>
        <time>2014-11-23T11:45:17.000Z</time>
      </trkpt>
      <trkpt lat="43.08409" lon="3.04795">
        <ele>20.60000038147</ele>
        <time>2014-11-23T11:45:20.000Z</time>
      </trkpt>
      <trkpt lat="43.0841" lon="3.04795">
        <ele>20.60000038147</ele>
        <time>2014-11-23T11:45:21.000Z</time>
      </trkpt>
      <trkpt lat="43.08414" lon="3.04794">
        <ele>20.60000038147</ele>
        <time>2014-11-23T11:45:25.000Z</time>
      </trkpt>
      <trkpt lat="43.08416" lon="3.04793">
        <ele>20.60000038147</ele>
        <time>2014-11-23T11:45:27.000Z</time>
      </trkpt>
      <trkpt lat="43.08417" lon="3.04793">
        <ele>20.60000038147</ele>
        <time>2014-11-23T11:45:28.000Z</time>
      </trkpt>
      <trkpt lat="43.08418" lon="3.04794">
        <ele>20.60000038147</ele>
        <time>2014-11-23T11:45:29.000Z</time>
      </trkpt>
      <trkpt lat="43.08418" lon="3.04798">
        <ele>20.60000038147</ele>
        <time>2014-11-23T11:45:32.000Z</time>
      </trkpt>
      <trkpt lat="43.08416" lon="3.04805">
        <ele>20.60000038147</ele>
        <time>2014-11-23T11:45:36.000Z</time>
      </trkpt>
      <trkpt lat="43.08408" lon="3.04817">
        <ele>20.60000038147</ele>
        <time>2014-11-23T11:45:40.000Z</time>
      </trkpt>
      <trkpt lat="43.08402" lon="3.04826">
        <ele>20.60000038147</ele>
        <time>2014-11-23T11:45:43.000Z</time>
      </trkpt>
      <trkpt lat="43.08401" lon="3.04829">
        <ele>20.200000762939</ele>
        <time>2014-11-23T11:45:44.000Z</time>
      </trkpt>
      <trkpt lat="43.08401" lon="3.04832">
        <ele>19.799999237061</ele>
        <time>2014-11-23T11:45:45.000Z</time>
      </trkpt>
      <trkpt lat="43.08401" lon="3.04836">
        <ele>19.39999961853</ele>
        <time>2014-11-23T11:45:46.000Z</time>
      </trkpt>
      <trkpt lat="43.084" lon="3.0484">
        <ele>18.799999237061</ele>
        <time>2014-11-23T11:45:47.000Z</time>
      </trkpt>
      <trkpt lat="43.08399" lon="3.04844">
        <ele>18.39999961853</ele>
        <time>2014-11-23T11:45:48.000Z</time>
      </trkpt>
      <trkpt lat="43.08398" lon="3.04854">
        <ele>18.39999961853</ele>
        <time>2014-11-23T11:45:50.000Z</time>
      </trkpt>
      <trkpt lat="43.08395" lon="3.04864">
        <ele>18.39999961853</ele>
        <time>2014-11-23T11:45:52.000Z</time>
      </trkpt>
      <trkpt lat="43.08395" lon="3.04874">
        <ele>18</ele>
        <time>2014-11-23T11:45:55.000Z</time>
      </trkpt>
      <trkpt lat="43.08394" lon="3.04878">
        <ele>17.39999961853</ele>
        <time>2014-11-23T11:45:56.000Z</time>
      </trkpt>
      <trkpt lat="43.08393" lon="3.04882">
        <ele>16.799999237061</ele>
        <time>2014-11-23T11:45:57.000Z</time>
      </trkpt>
      <trkpt lat="43.08392" lon="3.04886">
        <ele>16.39999961853</ele>
        <time>2014-11-23T11:45:58.000Z</time>
      </trkpt>
      <trkpt lat="43.0839" lon="3.0489">
        <ele>15.800000190735</ele>
        <time>2014-11-23T11:45:59.000Z</time>
      </trkpt>
      <trkpt lat="43.08387" lon="3.04896">
        <ele>15.39999961853</ele>
        <time>2014-11-23T11:46:01.000Z</time>
      </trkpt>
      <trkpt lat="43.08386" lon="3.04898">
        <ele>15</ele>
        <time>2014-11-23T11:46:02.000Z</time>
      </trkpt>
      <trkpt lat="43.08385" lon="3.04902">
        <ele>14.60000038147</ele>
        <time>2014-11-23T11:46:03.000Z</time>
      </trkpt>
      <trkpt lat="43.08383" lon="3.04906">
        <ele>14.199999809265</ele>
        <time>2014-11-23T11:46:04.000Z</time>
      </trkpt>
      <trkpt lat="43.08381" lon="3.0491">
        <ele>13.800000190735</ele>
        <time>2014-11-23T11:46:05.000Z</time>
      </trkpt>
      <trkpt lat="43.08379" lon="3.04921">
        <ele>13.800000190735</ele>
        <time>2014-11-23T11:46:08.000Z</time>
      </trkpt>
      <trkpt lat="43.08379" lon="3.04927">
        <ele>13.800000190735</ele>
        <time>2014-11-23T11:46:11.000Z</time>
      </trkpt>
      <trkpt lat="43.08378" lon="3.04929">
        <ele>13.800000190735</ele>
        <time>2014-11-23T11:46:15.000Z</time>
      </trkpt>
      <trkpt lat="43.08373" lon="3.04934">
        <ele>13.800000190735</ele>
        <time>2014-11-23T11:46:17.000Z</time>
      </trkpt>
      <trkpt lat="43.08371" lon="3.04938">
        <ele>13.39999961853</ele>
        <time>2014-11-23T11:46:18.000Z</time>
      </trkpt>
      <trkpt lat="43.08369" lon="3.04942">
        <ele>13</ele>
        <time>2014-11-23T11:46:19.000Z</time>
      </trkpt>
      <trkpt lat="43.08368" lon="3.04947">
        <ele>12.60000038147</ele>
        <time>2014-11-23T11:46:20.000Z</time>
      </trkpt>
      <trkpt lat="43.08367" lon="3.04952">
        <ele>12.199999809265</ele>
        <time>2014-11-23T11:46:21.000Z</time>
      </trkpt>
      <trkpt lat="43.08366" lon="3.04956">
        <ele>11.800000190735</ele>
        <time>2014-11-23T11:46:22.000Z</time>
      </trkpt>
      <trkpt lat="43.08364" lon="3.04976">
        <ele>11.800000190735</ele>
        <time>2014-11-23T11:46:26.000Z</time>
      </trkpt>
      <trkpt lat="43.08361" lon="3.04986">
        <ele>11.800000190735</ele>
        <time>2014-11-23T11:46:28.000Z</time>
      </trkpt>
      <trkpt lat="43.08356" lon="3.04994">
        <ele>11.800000190735</ele>
        <time>2014-11-23T11:46:30.000Z</time>
      </trkpt>
      <trkpt lat="43.08352" lon="3.05003">
        <ele>11.800000190735</ele>
        <time>2014-11-23T11:46:32.000Z</time>
      </trkpt>
      <trkpt lat="43.08351" lon="3.05007">
        <ele>11.199999809265</ele>
        <time>2014-11-23T11:46:33.000Z</time>
      </trkpt>
      <trkpt lat="43.0835" lon="3.05008">
        <ele>10.800000190735</ele>
        <time>2014-11-23T11:46:34.000Z</time>
      </trkpt>
      <trkpt lat="43.0835" lon="3.0501">
        <ele>9.6000003814697</ele>
        <time>2014-11-23T11:46:42.000Z</time>
      </trkpt>
      <trkpt lat="43.08346" lon="3.05016">
        <ele>9.6000003814697</ele>
        <time>2014-11-23T11:46:44.000Z</time>
      </trkpt>
      <trkpt lat="43.08339" lon="3.0504">
        <ele>9.6000003814697</ele>
        <time>2014-11-23T11:46:49.000Z</time>
      </trkpt>
      <trkpt lat="43.08337" lon="3.05054">
        <ele>9.6000003814697</ele>
        <time>2014-11-23T11:46:52.000Z</time>
      </trkpt>
      <trkpt lat="43.08338" lon="3.05059">
        <ele>9.6000003814697</ele>
        <time>2014-11-23T11:46:53.000Z</time>
      </trkpt>
      <trkpt lat="43.08344" lon="3.05069">
        <ele>9.6000003814697</ele>
        <time>2014-11-23T11:46:57.000Z</time>
      </trkpt>
      <trkpt lat="43.08353" lon="3.05073">
        <ele>9.6000003814697</ele>
        <time>2014-11-23T11:47:01.000Z</time>
      </trkpt>
      <trkpt lat="43.08354" lon="3.05074">
        <ele>9.6000003814697</ele>
        <time>2014-11-23T11:47:02.000Z</time>
      </trkpt>
      <trkpt lat="43.08357" lon="3.05074">
        <ele>9.6000003814697</ele>
        <time>2014-11-23T11:47:03.000Z</time>
      </trkpt>
      <trkpt lat="43.08361" lon="3.05077">
        <ele>9.6000003814697</ele>
        <time>2014-11-23T11:47:06.000Z</time>
      </trkpt>
      <trkpt lat="43.0836" lon="3.05086">
        <ele>9.6000003814697</ele>
        <time>2014-11-23T11:47:10.000Z</time>
      </trkpt>
      <trkpt lat="43.08358" lon="3.05092">
        <ele>9.6000003814697</ele>
        <time>2014-11-23T11:47:12.000Z</time>
      </trkpt>
      <trkpt lat="43.08356" lon="3.05101">
        <ele>9.6000003814697</ele>
        <time>2014-11-23T11:47:15.000Z</time>
      </trkpt>
      <trkpt lat="43.08355" lon="3.05108">
        <ele>9.6000003814697</ele>
        <time>2014-11-23T11:47:19.000Z</time>
      </trkpt>
      <trkpt lat="43.08354" lon="3.05114">
        <ele>9.6000003814697</ele>
        <time>2014-11-23T11:47:21.000Z</time>
      </trkpt>
      <trkpt lat="43.08354" lon="3.05119">
        <ele>9.6000003814697</ele>
        <time>2014-11-23T11:47:23.000Z</time>
      </trkpt>
      <trkpt lat="43.08354" lon="3.05125">
        <ele>9.6000003814697</ele>
        <time>2014-11-23T11:47:25.000Z</time>
      </trkpt>
      <trkpt lat="43.08355" lon="3.05131">
        <ele>9.1999998092651</ele>
        <time>2014-11-23T11:47:27.000Z</time>
      </trkpt>
      <trkpt lat="43.08356" lon="3.05133">
        <ele>8.8000001907349</ele>
        <time>2014-11-23T11:47:28.000Z</time>
      </trkpt>
      <trkpt lat="43.08356" lon="3.05136">
        <ele>8.1999998092651</ele>
        <time>2014-11-23T11:47:29.000Z</time>
      </trkpt>
      <trkpt lat="43.08356" lon="3.05138">
        <ele>7.8000001907349</ele>
        <time>2014-11-23T11:47:30.000Z</time>
      </trkpt>
      <trkpt lat="43.08356" lon="3.0514">
        <ele>7.4000000953674</ele>
        <time>2014-11-23T11:47:31.000Z</time>
      </trkpt>
      <trkpt lat="43.08355" lon="3.05141">
        <ele>7.4000000953674</ele>
        <time>2014-11-23T11:47:32.000Z</time>
      </trkpt>
      <trkpt lat="43.08354" lon="3.05141">
        <ele>6.4000000953674</ele>
        <time>2014-11-23T11:47:33.000Z</time>
      </trkpt>
      <trkpt lat="43.08352" lon="3.05142">
        <ele>6</ele>
        <time>2014-11-23T11:47:34.000Z</time>
      </trkpt>
      <trkpt lat="43.08351" lon="3.05144">
        <ele>5.5999999046326</ele>
        <time>2014-11-23T11:47:35.000Z</time>
      </trkpt>
      <trkpt lat="43.08348" lon="3.05145">
        <ele>5.1999998092651</ele>
        <time>2014-11-23T11:47:36.000Z</time>
      </trkpt>
      <trkpt lat="43.08335" lon="3.05151">
        <ele>5.1999998092651</ele>
        <time>2014-11-23T11:47:42.000Z</time>
      </trkpt>
      <trkpt lat="43.08334" lon="3.05156">
        <ele>5.1999998092651</ele>
        <time>2014-11-23T11:47:45.000Z</time>
      </trkpt>
      <trkpt lat="43.08334" lon="3.05171">
        <ele>5.1999998092651</ele>
        <time>2014-11-23T11:47:49.000Z</time>
      </trkpt>
      <trkpt lat="43.08334" lon="3.05178">
        <ele>4.8000001907349</ele>
        <time>2014-11-23T11:47:51.000Z</time>
      </trkpt>
      <trkpt lat="43.08334" lon="3.05181">
        <ele>4.4000000953674</ele>
        <time>2014-11-23T11:47:52.000Z</time>
      </trkpt>
      <trkpt lat="43.08334" lon="3.05185">
        <ele>3.7999999523163</ele>
        <time>2014-11-23T11:47:53.000Z</time>
      </trkpt>
      <trkpt lat="43.08334" lon="3.05189">
        <ele>3.4000000953674</ele>
        <time>2014-11-23T11:47:54.000Z</time>
      </trkpt>
      <trkpt lat="43.08334" lon="3.05193">
        <ele>3</ele>
        <time>2014-11-23T11:47:55.000Z</time>
      </trkpt>
      <trkpt lat="43.08334" lon="3.05198">
        <ele>3</ele>
        <time>2014-11-23T11:47:56.000Z</time>
      </trkpt>
      <trkpt lat="43.08336" lon="3.05206">
        <ele>3</ele>
        <time>2014-11-23T11:47:59.000Z</time>
      </trkpt>
      <trkpt lat="43.08343" lon="3.05206">
        <ele>3</ele>
        <time>2014-11-23T11:48:03.000Z</time>
      </trkpt>
      <trkpt lat="43.08352" lon="3.0521">
        <ele>3</ele>
        <time>2014-11-23T11:48:07.000Z</time>
      </trkpt>
      <trkpt lat="43.08354" lon="3.0521">
        <ele>3</ele>
        <time>2014-11-23T11:48:08.000Z</time>
      </trkpt>
      <trkpt lat="43.08353" lon="3.05216">
        <ele>3</ele>
        <time>2014-11-23T11:48:11.000Z</time>
      </trkpt>
      <trkpt lat="43.0835" lon="3.0522">
        <ele>3</ele>
        <time>2014-11-23T11:48:16.000Z</time>
      </trkpt>
      <trkpt lat="43.08352" lon="3.0521">
        <ele>3</ele>
        <time>2014-11-23T11:48:20.000Z</time>
      </trkpt>
      <trkpt lat="43.08345" lon="3.05207">
        <ele>3</ele>
        <time>2014-11-23T11:48:23.000Z</time>
      </trkpt>
      <trkpt lat="43.08342" lon="3.05206">
        <ele>3</ele>
        <time>2014-11-23T11:48:24.000Z</time>
      </trkpt>
      <trkpt lat="43.08336" lon="3.05205">
        <ele>3</ele>
        <time>2014-11-23T11:48:27.000Z</time>
      </trkpt>
      <trkpt lat="43.08335" lon="3.05212">
        <ele>3</ele>
        <time>2014-11-23T11:48:30.000Z</time>
      </trkpt>
      <trkpt lat="43.08336" lon="3.05216">
        <ele>3</ele>
        <time>2014-11-23T11:48:32.000Z</time>
      </trkpt>
      <trkpt lat="43.08338" lon="3.05226">
        <ele>3</ele>
        <time>2014-11-23T11:48:37.000Z</time>
      </trkpt>
      <trkpt lat="43.08343" lon="3.05247">
        <ele>3</ele>
        <time>2014-11-23T11:48:45.000Z</time>
      </trkpt>
      <trkpt lat="43.08346" lon="3.05255">
        <ele>3</ele>
        <time>2014-11-23T11:48:48.000Z</time>
      </trkpt>
      <trkpt lat="43.08347" lon="3.05262">
        <ele>3</ele>
        <time>2014-11-23T11:48:50.000Z</time>
      </trkpt>
      <trkpt lat="43.0835" lon="3.05279">
        <ele>3</ele>
        <time>2014-11-23T11:48:55.000Z</time>
      </trkpt>
      <trkpt lat="43.08354" lon="3.05286">
        <ele>3</ele>
        <time>2014-11-23T11:48:58.000Z</time>
      </trkpt>
      <trkpt lat="43.08356" lon="3.05288">
        <ele>3</ele>
        <time>2014-11-23T11:48:59.000Z</time>
      </trkpt>
      <trkpt lat="43.08357" lon="3.053">
        <ele>3</ele>
        <time>2014-11-23T11:49:03.000Z</time>
      </trkpt>
      <trkpt lat="43.08354" lon="3.05304">
        <ele>3</ele>
        <time>2014-11-23T11:49:06.000Z</time>
      </trkpt>
      <trkpt lat="43.08353" lon="3.05305">
        <ele>3</ele>
        <time>2014-11-23T11:49:07.000Z</time>
      </trkpt>
      <trkpt lat="43.08352" lon="3.05316">
        <ele>3</ele>
        <time>2014-11-23T11:49:12.000Z</time>
      </trkpt>
      <trkpt lat="43.08352" lon="3.05319">
        <ele>3</ele>
        <time>2014-11-23T11:49:13.000Z</time>
      </trkpt>
      <trkpt lat="43.08354" lon="3.05339">
        <ele>3</ele>
        <time>2014-11-23T11:49:19.000Z</time>
      </trkpt>
      <trkpt lat="43.08355" lon="3.05345">
        <ele>3</ele>
        <time>2014-11-23T11:49:21.000Z</time>
      </trkpt>
      <trkpt lat="43.08354" lon="3.05352">
        <ele>3</ele>
        <time>2014-11-23T11:49:23.000Z</time>
      </trkpt>
      <trkpt lat="43.08352" lon="3.05373">
        <ele>3</ele>
        <time>2014-11-23T11:49:29.000Z</time>
      </trkpt>
      <trkpt lat="43.08351" lon="3.05394">
        <ele>3</ele>
        <time>2014-11-23T11:49:35.000Z</time>
      </trkpt>
      <trkpt lat="43.08349" lon="3.05412">
        <ele>3</ele>
        <time>2014-11-23T11:49:41.000Z</time>
      </trkpt>
      <trkpt lat="43.08348" lon="3.05433">
        <ele>3</ele>
        <time>2014-11-23T11:49:47.000Z</time>
      </trkpt>
      <trkpt lat="43.08345" lon="3.05458">
        <ele>3</ele>
        <time>2014-11-23T11:49:54.000Z</time>
      </trkpt>
      <trkpt lat="43.08339" lon="3.05483">
        <ele>3</ele>
        <time>2014-11-23T11:50:01.000Z</time>
      </trkpt>
      <trkpt lat="43.08341" lon="3.055">
        <ele>3</ele>
        <time>2014-11-23T11:50:06.000Z</time>
      </trkpt>
      <trkpt lat="43.08344" lon="3.05518">
        <ele>3</ele>
        <time>2014-11-23T11:50:12.000Z</time>
      </trkpt>
      <trkpt lat="43.08353" lon="3.05545">
        <ele>3</ele>
        <time>2014-11-23T11:50:20.000Z</time>
      </trkpt>
      <trkpt lat="43.08361" lon="3.05565">
        <ele>3</ele>
        <time>2014-11-23T11:50:26.000Z</time>
      </trkpt>
      <trkpt lat="43.08364" lon="3.05575">
        <ele>3</ele>
        <time>2014-11-23T11:50:30.000Z</time>
      </trkpt>
      <trkpt lat="43.08365" lon="3.05577">
        <ele>3</ele>
        <time>2014-11-23T11:51:00.000Z</time>
      </trkpt>
      <trkpt lat="43.08367" lon="3.05586">
        <ele>3</ele>
        <time>2014-11-23T11:51:04.000Z</time>
      </trkpt>
      <trkpt lat="43.08367" lon="3.05589">
        <ele>3</ele>
        <time>2014-11-23T11:51:05.000Z</time>
      </trkpt>
      <trkpt lat="43.0837" lon="3.05602">
        <ele>3</ele>
        <time>2014-11-23T11:51:10.000Z</time>
      </trkpt>
      <trkpt lat="43.08372" lon="3.05608">
        <ele>3</ele>
        <time>2014-11-23T11:51:14.000Z</time>
      </trkpt>
      <trkpt lat="43.08372" lon="3.05607">
        <ele>3</ele>
        <time>2014-11-23T11:51:16.000Z</time>
      </trkpt>
      <trkpt lat="43.08378" lon="3.05606">
        <ele>3</ele>
        <time>2014-11-23T11:51:21.000Z</time>
      </trkpt>
      <trkpt lat="43.0838" lon="3.05607">
        <ele>3</ele>
        <time>2014-11-23T11:51:23.000Z</time>
      </trkpt>
      <trkpt lat="43.0838" lon="3.05607">
        <ele>3</ele>
        <time>2014-11-23T11:51:25.000Z</time>
      </trkpt>
      <trkpt lat="43.0838" lon="3.05611">
        <ele>3</ele>
        <time>2014-11-23T11:52:15.000Z</time>
      </trkpt>
      <trkpt lat="43.08381" lon="3.05624">
        <ele>3</ele>
        <time>2014-11-23T11:52:19.000Z</time>
      </trkpt>
      <trkpt lat="43.08381" lon="3.05629">
        <ele>3</ele>
        <time>2014-11-23T11:52:20.000Z</time>
      </trkpt>
      <trkpt lat="43.08385" lon="3.05646">
        <ele>3</ele>
        <time>2014-11-23T11:52:24.000Z</time>
      </trkpt>
      <trkpt lat="43.08386" lon="3.05665">
        <ele>3</ele>
        <time>2014-11-23T11:52:29.000Z</time>
      </trkpt>
      <trkpt lat="43.08392" lon="3.05676">
        <ele>3</ele>
        <time>2014-11-23T11:52:33.000Z</time>
      </trkpt>
      <trkpt lat="43.08392" lon="3.05683">
        <ele>3</ele>
        <time>2014-11-23T11:52:35.000Z</time>
      </trkpt>
      <trkpt lat="43.08392" lon="3.0569">
        <ele>3</ele>
        <time>2014-11-23T11:52:37.000Z</time>
      </trkpt>
      <trkpt lat="43.0839" lon="3.0571">
        <ele>3</ele>
        <time>2014-11-23T11:52:42.000Z</time>
      </trkpt>
      <trkpt lat="43.08388" lon="3.05732">
        <ele>3</ele>
        <time>2014-11-23T11:52:48.000Z</time>
      </trkpt>
      <trkpt lat="43.08391" lon="3.05748">
        <ele>3</ele>
        <time>2014-11-23T11:52:53.000Z</time>
      </trkpt>
      <trkpt lat="43.08392" lon="3.05752">
        <ele>3</ele>
        <time>2014-11-23T11:52:54.000Z</time>
      </trkpt>
      <trkpt lat="43.08394" lon="3.0576">
        <ele>3</ele>
        <time>2014-11-23T11:52:57.000Z</time>
      </trkpt>
      <trkpt lat="43.08396" lon="3.05765">
        <ele>3</ele>
        <time>2014-11-23T11:52:59.000Z</time>
      </trkpt>
      <trkpt lat="43.08396" lon="3.05766">
        <ele>3</ele>
        <time>2014-11-23T11:53:01.000Z</time>
      </trkpt>
      <trkpt lat="43.08396" lon="3.05766">
        <ele>3</ele>
        <time>2014-11-23T11:53:22.000Z</time>
      </trkpt>
      <trkpt lat="43.08397" lon="3.05766">
        <ele>3</ele>
        <time>2014-11-23T11:53:23.000Z</time>
      </trkpt>
      <trkpt lat="43.08398" lon="3.05768">
        <ele>0.80000001192093</ele>
        <time>2014-11-23T11:53:35.000Z</time>
      </trkpt>
      <trkpt lat="43.084" lon="3.05768">
        <ele>0.80000001192093</ele>
        <time>2014-11-23T11:53:36.000Z</time>
      </trkpt>
      <trkpt lat="43.08407" lon="3.05768">
        <ele>0.80000001192093</ele>
        <time>2014-11-23T11:53:39.000Z</time>
      </trkpt>
      <trkpt lat="43.08423" lon="3.0577">
        <ele>0.80000001192093</ele>
        <time>2014-11-23T11:53:45.000Z</time>
      </trkpt>
      <trkpt lat="43.08432" lon="3.0577">
        <ele>0.80000001192093</ele>
        <time>2014-11-23T11:53:48.000Z</time>
      </trkpt>
      <trkpt lat="43.08442" lon="3.05769">
        <ele>0.80000001192093</ele>
        <time>2014-11-23T11:53:52.000Z</time>
      </trkpt>
      <trkpt lat="43.08449" lon="3.05767">
        <ele>0.80000001192093</ele>
        <time>2014-11-23T11:53:55.000Z</time>
      </trkpt>
      <trkpt lat="43.08452" lon="3.05767">
        <ele>0.80000001192093</ele>
        <time>2014-11-23T11:53:56.000Z</time>
      </trkpt>
      <trkpt lat="43.0846" lon="3.0577">
        <ele>0.80000001192093</ele>
        <time>2014-11-23T11:54:00.000Z</time>
      </trkpt>
      <trkpt lat="43.08469" lon="3.0577">
        <ele>0.80000001192093</ele>
        <time>2014-11-23T11:54:04.000Z</time>
      </trkpt>
      <trkpt lat="43.0848" lon="3.05769">
        <ele>0.80000001192093</ele>
        <time>2014-11-23T11:54:08.000Z</time>
      </trkpt>
      <trkpt lat="43.08488" lon="3.05769">
        <ele>0.80000001192093</ele>
        <time>2014-11-23T11:54:11.000Z</time>
      </trkpt>
      <trkpt lat="43.08496" lon="3.05769">
        <ele>0.80000001192093</ele>
        <time>2014-11-23T11:54:14.000Z</time>
      </trkpt>
      <trkpt lat="43.08501" lon="3.05769">
        <ele>0.80000001192093</ele>
        <time>2014-11-23T11:54:16.000Z</time>
      </trkpt>
      <trkpt lat="43.08506" lon="3.0577">
        <ele>0.80000001192093</ele>
        <time>2014-11-23T11:54:18.000Z</time>
      </trkpt>
      <trkpt lat="43.08515" lon="3.05769">
        <ele>0.80000001192093</ele>
        <time>2014-11-23T11:54:22.000Z</time>
      </trkpt>
      <trkpt lat="43.08521" lon="3.05769">
        <ele>0.80000001192093</ele>
        <time>2014-11-23T11:54:26.000Z</time>
      </trkpt>
      <trkpt lat="43.08522" lon="3.05771">
        <ele>0.80000001192093</ele>
        <time>2014-11-23T11:54:50.000Z</time>
      </trkpt>
      <trkpt lat="43.08527" lon="3.05777">
        <ele>0.80000001192093</ele>
        <time>2014-11-23T11:54:55.000Z</time>
      </trkpt>
      <trkpt lat="43.08531" lon="3.05774">
        <ele>0.80000001192093</ele>
        <time>2014-11-23T11:54:58.000Z</time>
      </trkpt>
      <trkpt lat="43.08532" lon="3.05774">
        <ele>0.80000001192093</ele>
        <time>2014-11-23T11:54:59.000Z</time>
      </trkpt>
      <trkpt lat="43.08533" lon="3.05774">
        <ele>0.80000001192093</ele>
        <time>2014-11-23T11:55:00.000Z</time>
      </trkpt>
      <trkpt lat="43.08539" lon="3.05778">
        <ele>0.80000001192093</ele>
        <time>2014-11-23T11:55:05.000Z</time>
      </trkpt>
      <trkpt lat="43.0854" lon="3.05779">
        <ele>0.80000001192093</ele>
        <time>2014-11-23T11:55:08.000Z</time>
      </trkpt>
      <trkpt lat="43.08544" lon="3.05791">
        <ele>0.80000001192093</ele>
        <time>2014-11-23T11:55:24.000Z</time>
      </trkpt>
      <trkpt lat="43.08546" lon="3.05797">
        <ele>0.80000001192093</ele>
        <time>2014-11-23T11:55:29.000Z</time>
      </trkpt>
      <trkpt lat="43.08547" lon="3.05799">
        <ele>0.80000001192093</ele>
        <time>2014-11-23T11:55:36.000Z</time>
      </trkpt>
      <trkpt lat="43.08551" lon="3.05802">
        <ele>0.80000001192093</ele>
        <time>2014-11-23T11:55:39.000Z</time>
      </trkpt>
      <trkpt lat="43.08552" lon="3.05802">
        <ele>0.80000001192093</ele>
        <time>2014-11-23T11:55:41.000Z</time>
      </trkpt>
      <trkpt lat="43.08555" lon="3.05805">
        <ele>0.80000001192093</ele>
        <time>2014-11-23T11:56:12.000Z</time>
      </trkpt>
      <trkpt lat="43.08557" lon="3.05807">
        <ele>0.80000001192093</ele>
        <time>2014-11-23T11:56:14.000Z</time>
      </trkpt>
      <trkpt lat="43.08559" lon="3.05809">
        <ele>0.80000001192093</ele>
        <time>2014-11-23T11:56:18.000Z</time>
      </trkpt>
      <trkpt lat="43.08556" lon="3.05804">
        <ele>0.80000001192093</ele>
        <time>2014-11-23T11:56:45.000Z</time>
      </trkpt>
      <trkpt lat="43.0855" lon="3.058">
        <ele>0.80000001192093</ele>
        <time>2014-11-23T11:56:50.000Z</time>
      </trkpt>
      <trkpt lat="43.08548" lon="3.05799">
        <ele>0.80000001192093</ele>
        <time>2014-11-23T11:56:51.000Z</time>
      </trkpt>
      <trkpt lat="43.08545" lon="3.05794">
        <ele>0.80000001192093</ele>
        <time>2014-11-23T11:56:56.000Z</time>
      </trkpt>
      <trkpt lat="43.08544" lon="3.05792">
        <ele>0.80000001192093</ele>
        <time>2014-11-23T11:56:58.000Z</time>
      </trkpt>
      <trkpt lat="43.08543" lon="3.05788">
        <ele>0.80000001192093</ele>
        <time>2014-11-23T11:57:01.000Z</time>
      </trkpt>
      <trkpt lat="43.0854" lon="3.05783">
        <ele>0.80000001192093</ele>
        <time>2014-11-23T11:57:06.000Z</time>
      </trkpt>
      <trkpt lat="43.08537" lon="3.05779">
        <ele>0.80000001192093</ele>
        <time>2014-11-23T11:57:09.000Z</time>
      </trkpt>
      <trkpt lat="43.08536" lon="3.05778">
        <ele>0.80000001192093</ele>
        <time>2014-11-23T11:57:10.000Z</time>
      </trkpt>
      <trkpt lat="43.08532" lon="3.0578">
        <ele>0.80000001192093</ele>
        <time>2014-11-23T11:57:14.000Z</time>
      </trkpt>
      <trkpt lat="43.08529" lon="3.0578">
        <ele>0.80000001192093</ele>
        <time>2014-11-23T11:57:18.000Z</time>
      </trkpt>
      <trkpt lat="43.08527" lon="3.0578">
        <ele>0.80000001192093</ele>
        <time>2014-11-23T11:57:25.000Z</time>
      </trkpt>
      <trkpt lat="43.08527" lon="3.05781">
        <ele>0.80000001192093</ele>
        <time>2014-11-23T11:57:26.000Z</time>
      </trkpt>
      <trkpt lat="43.08525" lon="3.05784">
        <ele>1.2000000476837</ele>
        <time>2014-11-23T11:57:28.000Z</time>
      </trkpt>
      <trkpt lat="43.08525" lon="3.05785">
        <ele>1.6000000238419</ele>
        <time>2014-11-23T11:57:29.000Z</time>
      </trkpt>
      <trkpt lat="43.08524" lon="3.05787">
        <ele>2.2000000476837</ele>
        <time>2014-11-23T11:57:30.000Z</time>
      </trkpt>
      <trkpt lat="43.08524" lon="3.05788">
        <ele>2.5999999046326</ele>
        <time>2014-11-23T11:57:31.000Z</time>
      </trkpt>
      <trkpt lat="43.08524" lon="3.0579">
        <ele>3</ele>
        <time>2014-11-23T11:57:32.000Z</time>
      </trkpt>
      <trkpt lat="43.08524" lon="3.05792">
        <ele>3</ele>
        <time>2014-11-23T11:57:33.000Z</time>
      </trkpt>
      <trkpt lat="43.08523" lon="3.05792">
        <ele>3</ele>
        <time>2014-11-23T11:57:34.000Z</time>
      </trkpt>
      <trkpt lat="43.08523" lon="3.05788">
        <ele>0.80000001192093</ele>
        <time>2014-11-23T11:59:05.000Z</time>
      </trkpt>
      <trkpt lat="43.08523" lon="3.05787">
        <ele>0.80000001192093</ele>
        <time>2014-11-23T11:59:06.000Z</time>
      </trkpt>
      <trkpt lat="43.08524" lon="3.05781">
        <ele>0.80000001192093</ele>
        <time>2014-11-23T11:59:10.000Z</time>
      </trkpt>
      <trkpt lat="43.08525" lon="3.05774">
        <ele>0.80000001192093</ele>
        <time>2014-11-23T11:59:15.000Z</time>
      </trkpt>
      <trkpt lat="43.08524" lon="3.05773">
        <ele>0.80000001192093</ele>
        <time>2014-11-23T11:59:16.000Z</time>
      </trkpt>
      <trkpt lat="43.08523" lon="3.05772">
        <ele>0.80000001192093</ele>
        <time>2014-11-23T11:59:19.000Z</time>
      </trkpt>
      <trkpt lat="43.08525" lon="3.05776">
        <ele>0.80000001192093</ele>
        <time>2014-11-23T11:59:40.000Z</time>
      </trkpt>
      <trkpt lat="43.08526" lon="3.05778">
        <ele>0.80000001192093</ele>
        <time>2014-11-23T11:59:41.000Z</time>
      </trkpt>
      <trkpt lat="43.08524" lon="3.05786">
        <ele>0.80000001192093</ele>
        <time>2014-11-23T11:59:46.000Z</time>
      </trkpt>
      <trkpt lat="43.08518" lon="3.05789">
        <ele>0.80000001192093</ele>
        <time>2014-11-23T11:59:51.000Z</time>
      </trkpt>
      <trkpt lat="43.08509" lon="3.05792">
        <ele>0.80000001192093</ele>
        <time>2014-11-23T11:59:58.000Z</time>
      </trkpt>
      <trkpt lat="43.08509" lon="3.05793">
        <ele>0.80000001192093</ele>
        <time>2014-11-23T11:59:59.000Z</time>
      </trkpt>
      <trkpt lat="43.0851" lon="3.05796">
        <ele>0.80000001192093</ele>
        <time>2014-11-23T12:00:02.000Z</time>
      </trkpt>
      <trkpt lat="43.08511" lon="3.05796">
        <ele>0.80000001192093</ele>
        <time>2014-11-23T12:00:03.000Z</time>
      </trkpt>
      <trkpt lat="43.08524" lon="3.0584">
        <ele>0.80000001192093</ele>
        <time>2014-11-23T12:05:53.000Z</time>
      </trkpt>
      <trkpt lat="43.08528" lon="3.05838">
        <ele>0.80000001192093</ele>
        <time>2014-11-23T12:05:55.000Z</time>
      </trkpt>
      <trkpt lat="43.08541" lon="3.05837">
        <ele>0.80000001192093</ele>
        <time>2014-11-23T12:06:01.000Z</time>
      </trkpt>
      <trkpt lat="43.08557" lon="3.05841">
        <ele>0.80000001192093</ele>
        <time>2014-11-23T12:06:07.000Z</time>
      </trkpt>
      <trkpt lat="43.08582" lon="3.05851">
        <ele>0.80000001192093</ele>
        <time>2014-11-23T12:06:15.000Z</time>
      </trkpt>
      <trkpt lat="43.08602" lon="3.0585">
        <ele>0.80000001192093</ele>
        <time>2014-11-23T12:06:21.000Z</time>
      </trkpt>
      <trkpt lat="43.08625" lon="3.05837">
        <ele>0.40000000596046</ele>
        <time>2014-11-23T12:06:28.000Z</time>
      </trkpt>
      <trkpt lat="43.08629" lon="3.05836">
        <ele>-0.40000000596046</ele>
        <time>2014-11-23T12:06:29.000Z</time>
      </trkpt>
      <trkpt lat="43.08633" lon="3.05835">
        <ele>-0.80000001192093</ele>
        <time>2014-11-23T12:06:30.000Z</time>
      </trkpt>
      <trkpt lat="43.08636" lon="3.05835">
        <ele>-1.3999999761581</ele>
        <time>2014-11-23T12:06:31.000Z</time>
      </trkpt>
      <trkpt lat="43.08647" lon="3.05836">
        <ele>-1.3999999761581</ele>
        <time>2014-11-23T12:06:34.000Z</time>
      </trkpt>
      <trkpt lat="43.08669" lon="3.05845">
        <ele>-1.3999999761581</ele>
        <time>2014-11-23T12:06:41.000Z</time>
      </trkpt>
      <trkpt lat="43.08683" lon="3.05851">
        <ele>-1.3999999761581</ele>
        <time>2014-11-23T12:06:47.000Z</time>
      </trkpt>
      <trkpt lat="43.08687" lon="3.05854">
        <ele>-1</ele>
        <time>2014-11-23T12:06:49.000Z</time>
      </trkpt>
      <trkpt lat="43.0869" lon="3.05855">
        <ele>-0.60000002384186</ele>
        <time>2014-11-23T12:06:50.000Z</time>
      </trkpt>
      <trkpt lat="43.08692" lon="3.05856">
        <ele>1.5</ele>
        <time>2014-11-23T12:06:51.000Z</time>
      </trkpt>
      <trkpt lat="43.08696" lon="3.05857">
        <ele>0.40000000596046</ele>
        <time>2014-11-23T12:06:52.000Z</time>
      </trkpt>
      <trkpt lat="43.08698" lon="3.05859">
        <ele>0.80000001192093</ele>
        <time>2014-11-23T12:06:53.000Z</time>
      </trkpt>
      <trkpt lat="43.087" lon="3.05862">
        <ele>0.80000001192093</ele>
        <time>2014-11-23T12:06:54.000Z</time>
      </trkpt>
      <trkpt lat="43.08702" lon="3.05869">
        <ele>0.80000001192093</ele>
        <time>2014-11-23T12:06:56.000Z</time>
      </trkpt>
      <trkpt lat="43.08702" lon="3.0588">
        <ele>0.80000001192093</ele>
        <time>2014-11-23T12:06:59.000Z</time>
      </trkpt>
      <trkpt lat="43.08701" lon="3.05883">
        <ele>0.80000001192093</ele>
        <time>2014-11-23T12:07:00.000Z</time>
      </trkpt>
      <trkpt lat="43.087" lon="3.05902">
        <ele>0.80000001192093</ele>
        <time>2014-11-23T12:07:06.000Z</time>
      </trkpt>
      <trkpt lat="43.087" lon="3.05918">
        <ele>0.80000001192093</ele>
        <time>2014-11-23T12:07:11.000Z</time>
      </trkpt>
      <trkpt lat="43.08699" lon="3.05949">
        <ele>0.80000001192093</ele>
        <time>2014-11-23T12:07:18.000Z</time>
      </trkpt>
      <trkpt lat="43.08698" lon="3.05983">
        <ele>0.80000001192093</ele>
        <time>2014-11-23T12:07:25.000Z</time>
      </trkpt>
      <trkpt lat="43.08697" lon="3.06013">
        <ele>0.80000001192093</ele>
        <time>2014-11-23T12:07:31.000Z</time>
      </trkpt>
      <trkpt lat="43.08697" lon="3.06059">
        <ele>0.80000001192093</ele>
        <time>2014-11-23T12:07:40.000Z</time>
      </trkpt>
      <trkpt lat="43.08695" lon="3.06098">
        <ele>0.80000001192093</ele>
        <time>2014-11-23T12:07:47.000Z</time>
      </trkpt>
      <trkpt lat="43.08695" lon="3.06104">
        <ele>0.80000001192093</ele>
        <time>2014-11-23T12:07:48.000Z</time>
      </trkpt>
      <trkpt lat="43.08693" lon="3.06144">
        <ele>0.80000001192093</ele>
        <time>2014-11-23T12:07:55.000Z</time>
      </trkpt>
      <trkpt lat="43.08692" lon="3.06172">
        <ele>0.80000001192093</ele>
        <time>2014-11-23T12:08:01.000Z</time>
      </trkpt>
      <trkpt lat="43.0869" lon="3.06207">
        <ele>0.80000001192093</ele>
        <time>2014-11-23T12:08:08.000Z</time>
      </trkpt>
      <trkpt lat="43.08681" lon="3.06223">
        <ele>0.80000001192093</ele>
        <time>2014-11-23T12:08:12.000Z</time>
      </trkpt>
      <trkpt lat="43.08662" lon="3.06236">
        <ele>0.80000001192093</ele>
        <time>2014-11-23T12:08:18.000Z</time>
      </trkpt>
      <trkpt lat="43.08651" lon="3.06254">
        <ele>1.2000000476837</ele>
        <time>2014-11-23T12:08:23.000Z</time>
      </trkpt>
      <trkpt lat="43.08651" lon="3.06259">
        <ele>1.6000000238419</ele>
        <time>2014-11-23T12:08:24.000Z</time>
      </trkpt>
      <trkpt lat="43.08649" lon="3.06264">
        <ele>2</ele>
        <time>2014-11-23T12:08:25.000Z</time>
      </trkpt>
      <trkpt lat="43.08647" lon="3.06269">
        <ele>2.4000000953674</ele>
        <time>2014-11-23T12:08:26.000Z</time>
      </trkpt>
      <trkpt lat="43.08645" lon="3.06273">
        <ele>2.7999999523163</ele>
        <time>2014-11-23T12:08:27.000Z</time>
      </trkpt>
      <trkpt lat="43.08642" lon="3.06277">
        <ele>2.7999999523163</ele>
        <time>2014-11-23T12:08:28.000Z</time>
      </trkpt>
      <trkpt lat="43.08629" lon="3.06285">
        <ele>2.7999999523163</ele>
        <time>2014-11-23T12:08:31.000Z</time>
      </trkpt>
      <trkpt lat="43.0862" lon="3.06291">
        <ele>2.7999999523163</ele>
        <time>2014-11-23T12:08:33.000Z</time>
      </trkpt>
      <trkpt lat="43.08604" lon="3.06304">
        <ele>2.7999999523163</ele>
        <time>2014-11-23T12:08:37.000Z</time>
      </trkpt>
      <trkpt lat="43.0859" lon="3.06321">
        <ele>2.7999999523163</ele>
        <time>2014-11-23T12:08:41.000Z</time>
      </trkpt>
      <trkpt lat="43.08581" lon="3.06335">
        <ele>2.7999999523163</ele>
        <time>2014-11-23T12:08:44.000Z</time>
      </trkpt>
      <trkpt lat="43.08576" lon="3.06345">
        <ele>2.7999999523163</ele>
        <time>2014-11-23T12:08:46.000Z</time>
      </trkpt>
      <trkpt lat="43.08569" lon="3.06358">
        <ele>2.7999999523163</ele>
        <time>2014-11-23T12:08:49.000Z</time>
      </trkpt>
      <trkpt lat="43.08552" lon="3.06388">
        <ele>3.2000000476837</ele>
        <time>2014-11-23T12:08:56.000Z</time>
      </trkpt>
      <trkpt lat="43.08551" lon="3.06393">
        <ele>3.5999999046326</ele>
        <time>2014-11-23T12:08:57.000Z</time>
      </trkpt>
      <trkpt lat="43.08549" lon="3.06397">
        <ele>4.4000000953674</ele>
        <time>2014-11-23T12:08:58.000Z</time>
      </trkpt>
      <trkpt lat="43.08548" lon="3.06402">
        <ele>4.8000001907349</ele>
        <time>2014-11-23T12:08:59.000Z</time>
      </trkpt>
      <trkpt lat="43.08547" lon="3.06408">
        <ele>4.8000001907349</ele>
        <time>2014-11-23T12:09:01.000Z</time>
      </trkpt>
      <trkpt lat="43.08548" lon="3.06419">
        <ele>5.1999998092651</ele>
        <time>2014-11-23T12:09:04.000Z</time>
      </trkpt>
      <trkpt lat="43.08548" lon="3.06422">
        <ele>5.8000001907349</ele>
        <time>2014-11-23T12:09:05.000Z</time>
      </trkpt>
      <trkpt lat="43.08548" lon="3.06426">
        <ele>6.1999998092651</ele>
        <time>2014-11-23T12:09:06.000Z</time>
      </trkpt>
      <trkpt lat="43.08549" lon="3.0643">
        <ele>6.5999999046326</ele>
        <time>2014-11-23T12:09:07.000Z</time>
      </trkpt>
      <trkpt lat="43.08549" lon="3.06433">
        <ele>7</ele>
        <time>2014-11-23T12:09:08.000Z</time>
      </trkpt>
      <trkpt lat="43.08555" lon="3.0644">
        <ele>7</ele>
        <time>2014-11-23T12:09:12.000Z</time>
      </trkpt>
      <trkpt lat="43.08568" lon="3.0644">
        <ele>7</ele>
        <time>2014-11-23T12:09:17.000Z</time>
      </trkpt>
      <trkpt lat="43.08574" lon="3.06436">
        <ele>7</ele>
        <time>2014-11-23T12:09:20.000Z</time>
      </trkpt>
      <trkpt lat="43.08578" lon="3.06434">
        <ele>7</ele>
        <time>2014-11-23T12:09:22.000Z</time>
      </trkpt>
      <trkpt lat="43.08583" lon="3.06433">
        <ele>7.4000000953674</ele>
        <time>2014-11-23T12:09:24.000Z</time>
      </trkpt>
      <trkpt lat="43.08585" lon="3.06432">
        <ele>7.8000001907349</ele>
        <time>2014-11-23T12:09:25.000Z</time>
      </trkpt>
      <trkpt lat="43.08588" lon="3.06431">
        <ele>8.3999996185303</ele>
        <time>2014-11-23T12:09:26.000Z</time>
      </trkpt>
      <trkpt lat="43.0859" lon="3.0643">
        <ele>8.8000001907349</ele>
        <time>2014-11-23T12:09:27.000Z</time>
      </trkpt>
      <trkpt lat="43.08592" lon="3.06429">
        <ele>9.1999998092651</ele>
        <time>2014-11-23T12:09:28.000Z</time>
      </trkpt>
      <trkpt lat="43.08607" lon="3.06427">
        <ele>9.1999998092651</ele>
        <time>2014-11-23T12:09:34.000Z</time>
      </trkpt>
      <trkpt lat="43.08617" lon="3.06425">
        <ele>9.6000003814697</ele>
        <time>2014-11-23T12:09:38.000Z</time>
      </trkpt>
      <trkpt lat="43.0862" lon="3.06425">
        <ele>10</ele>
        <time>2014-11-23T12:09:39.000Z</time>
      </trkpt>
      <trkpt lat="43.08622" lon="3.06425">
        <ele>10.39999961853</ele>
        <time>2014-11-23T12:09:40.000Z</time>
      </trkpt>
      <trkpt lat="43.08624" lon="3.06425">
        <ele>10.800000190735</ele>
        <time>2014-11-23T12:09:41.000Z</time>
      </trkpt>
      <trkpt lat="43.08627" lon="3.06425">
        <ele>11.199999809265</ele>
        <time>2014-11-23T12:09:42.000Z</time>
      </trkpt>
      <trkpt lat="43.0864" lon="3.06432">
        <ele>11.199999809265</ele>
        <time>2014-11-23T12:09:48.000Z</time>
      </trkpt>
      <trkpt lat="43.08643" lon="3.06432">
        <ele>11.60000038147</ele>
        <time>2014-11-23T12:09:49.000Z</time>
      </trkpt>
      <trkpt lat="43.08646" lon="3.06434">
        <ele>12</ele>
        <time>2014-11-23T12:09:50.000Z</time>
      </trkpt>
      <trkpt lat="43.08648" lon="3.06435">
        <ele>12.60000038147</ele>
        <time>2014-11-23T12:09:51.000Z</time>
      </trkpt>
      <trkpt lat="43.08651" lon="3.06437">
        <ele>13</ele>
        <time>2014-11-23T12:09:52.000Z</time>
      </trkpt>
      <trkpt lat="43.08653" lon="3.06438">
        <ele>13.39999961853</ele>
        <time>2014-11-23T12:09:53.000Z</time>
      </trkpt>
      <trkpt lat="43.08655" lon="3.06439">
        <ele>13.39999961853</ele>
        <time>2014-11-23T12:09:54.000Z</time>
      </trkpt>
      <trkpt lat="43.08655" lon="3.06436">
        <ele>13.39999961853</ele>
        <time>2014-11-23T12:09:55.000Z</time>
      </trkpt>
      <trkpt lat="43.08653" lon="3.06435">
        <ele>13.39999961853</ele>
        <time>2014-11-23T12:09:56.000Z</time>
      </trkpt>
      <trkpt lat="43.08647" lon="3.06436">
        <ele>13.39999961853</ele>
        <time>2014-11-23T12:10:00.000Z</time>
      </trkpt>
      <trkpt lat="43.08646" lon="3.06445">
        <ele>13.39999961853</ele>
        <time>2014-11-23T12:10:05.000Z</time>
      </trkpt>
      <trkpt lat="43.08646" lon="3.06448">
        <ele>13.39999961853</ele>
        <time>2014-11-23T12:10:06.000Z</time>
      </trkpt>
      <trkpt lat="43.08645" lon="3.06465">
        <ele>13.39999961853</ele>
        <time>2014-11-23T12:10:11.000Z</time>
      </trkpt>
      <trkpt lat="43.08644" lon="3.06479">
        <ele>13</ele>
        <time>2014-11-23T12:10:15.000Z</time>
      </trkpt>
      <trkpt lat="43.08643" lon="3.06485">
        <ele>12.60000038147</ele>
        <time>2014-11-23T12:10:16.000Z</time>
      </trkpt>
      <trkpt lat="43.08642" lon="3.06491">
        <ele>12.199999809265</ele>
        <time>2014-11-23T12:10:17.000Z</time>
      </trkpt>
      <trkpt lat="43.08642" lon="3.06496">
        <ele>11.800000190735</ele>
        <time>2014-11-23T12:10:18.000Z</time>
      </trkpt>
      <trkpt lat="43.08642" lon="3.06502">
        <ele>11.39999961853</ele>
        <time>2014-11-23T12:10:19.000Z</time>
      </trkpt>
      <trkpt lat="43.08641" lon="3.06515">
        <ele>11</ele>
        <time>2014-11-23T12:10:21.000Z</time>
      </trkpt>
      <trkpt lat="43.0864" lon="3.06523">
        <ele>10.60000038147</ele>
        <time>2014-11-23T12:10:22.000Z</time>
      </trkpt>
      <trkpt lat="43.0864" lon="3.0653">
        <ele>10.199999809265</ele>
        <time>2014-11-23T12:10:23.000Z</time>
      </trkpt>
      <trkpt lat="43.08639" lon="3.06538">
        <ele>9.6000003814697</ele>
        <time>2014-11-23T12:10:24.000Z</time>
      </trkpt>
      <trkpt lat="43.08638" lon="3.06545">
        <ele>9.1999998092651</ele>
        <time>2014-11-23T12:10:25.000Z</time>
      </trkpt>
      <trkpt lat="43.08635" lon="3.06568">
        <ele>9.1999998092651</ele>
        <time>2014-11-23T12:10:28.000Z</time>
      </trkpt>
      <trkpt lat="43.08635" lon="3.06589">
        <ele>8.8000001907349</ele>
        <time>2014-11-23T12:10:31.000Z</time>
      </trkpt>
      <trkpt lat="43.08638" lon="3.06594">
        <ele>8.3999996185303</ele>
        <time>2014-11-23T12:10:32.000Z</time>
      </trkpt>
      <trkpt lat="43.08642" lon="3.06596">
        <ele>7.8000001907349</ele>
        <time>2014-11-23T12:10:33.000Z</time>
      </trkpt>
      <trkpt lat="43.08647" lon="3.06596">
        <ele>7.4000000953674</ele>
        <time>2014-11-23T12:10:34.000Z</time>
      </trkpt>
      <trkpt lat="43.0865" lon="3.06596">
        <ele>7</ele>
        <time>2014-11-23T12:10:35.000Z</time>
      </trkpt>
      <trkpt lat="43.08661" lon="3.06602">
        <ele>7</ele>
        <time>2014-11-23T12:10:39.000Z</time>
      </trkpt>
      <trkpt lat="43.08663" lon="3.0662">
        <ele>7</ele>
        <time>2014-11-23T12:10:43.000Z</time>
      </trkpt>
      <trkpt lat="43.08662" lon="3.06638">
        <ele>7</ele>
        <time>2014-11-23T12:10:47.000Z</time>
      </trkpt>
      <trkpt lat="43.08658" lon="3.06669">
        <ele>7</ele>
        <time>2014-11-23T12:10:54.000Z</time>
      </trkpt>
      <trkpt lat="43.08655" lon="3.06695">
        <ele>7</ele>
        <time>2014-11-23T12:11:00.000Z</time>
      </trkpt>
      <trkpt lat="43.08654" lon="3.06721">
        <ele>7</ele>
        <time>2014-11-23T12:11:06.000Z</time>
      </trkpt>
      <trkpt lat="43.08652" lon="3.0673">
        <ele>7.4000000953674</ele>
        <time>2014-11-23T12:11:08.000Z</time>
      </trkpt>
      <trkpt lat="43.08651" lon="3.06734">
        <ele>7.8000001907349</ele>
        <time>2014-11-23T12:11:09.000Z</time>
      </trkpt>
      <trkpt lat="43.0865" lon="3.06738">
        <ele>8.1999998092651</ele>
        <time>2014-11-23T12:11:10.000Z</time>
      </trkpt>
      <trkpt lat="43.08649" lon="3.06742">
        <ele>8.6000003814697</ele>
        <time>2014-11-23T12:11:11.000Z</time>
      </trkpt>
      <trkpt lat="43.08648" lon="3.06745">
        <ele>9</ele>
        <time>2014-11-23T12:11:12.000Z</time>
      </trkpt>
      <trkpt lat="43.08644" lon="3.06758">
        <ele>9</ele>
        <time>2014-11-23T12:11:16.000Z</time>
      </trkpt>
      <trkpt lat="43.08643" lon="3.06774">
        <ele>9</ele>
        <time>2014-11-23T12:11:21.000Z</time>
      </trkpt>
      <trkpt lat="43.08643" lon="3.06789">
        <ele>9.3999996185303</ele>
        <time>2014-11-23T12:11:26.000Z</time>
      </trkpt>
      <trkpt lat="43.08643" lon="3.06791">
        <ele>9.8000001907349</ele>
        <time>2014-11-23T12:11:27.000Z</time>
      </trkpt>
      <trkpt lat="43.08643" lon="3.06794">
        <ele>10.199999809265</ele>
        <time>2014-11-23T12:11:28.000Z</time>
      </trkpt>
      <trkpt lat="43.08642" lon="3.06797">
        <ele>10.60000038147</ele>
        <time>2014-11-23T12:11:29.000Z</time>
      </trkpt>
      <trkpt lat="43.08643" lon="3.068">
        <ele>11</ele>
        <time>2014-11-23T12:11:30.000Z</time>
      </trkpt>
      <trkpt lat="43.08643" lon="3.06808">
        <ele>11.39999961853</ele>
        <time>2014-11-23T12:11:33.000Z</time>
      </trkpt>
      <trkpt lat="43.08642" lon="3.0681">
        <ele>11.800000190735</ele>
        <time>2014-11-23T12:11:34.000Z</time>
      </trkpt>
      <trkpt lat="43.08642" lon="3.06813">
        <ele>12.199999809265</ele>
        <time>2014-11-23T12:11:35.000Z</time>
      </trkpt>
      <trkpt lat="43.08642" lon="3.06815">
        <ele>12.60000038147</ele>
        <time>2014-11-23T12:11:36.000Z</time>
      </trkpt>
      <trkpt lat="43.08643" lon="3.06818">
        <ele>13.199999809265</ele>
        <time>2014-11-23T12:11:37.000Z</time>
      </trkpt>
      <trkpt lat="43.08642" lon="3.06825">
        <ele>13.60000038147</ele>
        <time>2014-11-23T12:11:40.000Z</time>
      </trkpt>
      <trkpt lat="43.08641" lon="3.06828">
        <ele>14</ele>
        <time>2014-11-23T12:11:41.000Z</time>
      </trkpt>
      <trkpt lat="43.08641" lon="3.06831">
        <ele>14.39999961853</ele>
        <time>2014-11-23T12:11:42.000Z</time>
      </trkpt>
      <trkpt lat="43.08641" lon="3.06833">
        <ele>14.800000190735</ele>
        <time>2014-11-23T12:11:43.000Z</time>
      </trkpt>
      <trkpt lat="43.08641" lon="3.06835">
        <ele>15.199999809265</ele>
        <time>2014-11-23T12:11:44.000Z</time>
      </trkpt>
      <trkpt lat="43.08641" lon="3.0684">
        <ele>15.199999809265</ele>
        <time>2014-11-23T12:11:46.000Z</time>
      </trkpt>
      <trkpt lat="43.08642" lon="3.06844">
        <ele>15.199999809265</ele>
        <time>2014-11-23T12:11:48.000Z</time>
      </trkpt>
      <trkpt lat="43.08644" lon="3.06847">
        <ele>15.199999809265</ele>
        <time>2014-11-23T12:11:51.000Z</time>
      </trkpt>
      <trkpt lat="43.08647" lon="3.06852">
        <ele>15.199999809265</ele>
        <time>2014-11-23T12:11:55.000Z</time>
      </trkpt>
      <trkpt lat="43.08648" lon="3.06852">
        <ele>15.60000038147</ele>
        <time>2014-11-23T12:11:56.000Z</time>
      </trkpt>
      <trkpt lat="43.08649" lon="3.06853">
        <ele>16</ele>
        <time>2014-11-23T12:11:57.000Z</time>
      </trkpt>
      <trkpt lat="43.08649" lon="3.06855">
        <ele>16.39999961853</ele>
        <time>2014-11-23T12:11:58.000Z</time>
      </trkpt>
      <trkpt lat="43.0865" lon="3.06856">
        <ele>16.799999237061</ele>
        <time>2014-11-23T12:11:59.000Z</time>
      </trkpt>
      <trkpt lat="43.0865" lon="3.06856">
        <ele>17.200000762939</ele>
        <time>2014-11-23T12:12:00.000Z</time>
      </trkpt>
      <trkpt lat="43.08651" lon="3.06857">
        <ele>17.200000762939</ele>
        <time>2014-11-23T12:12:01.000Z</time>
      </trkpt>
      <trkpt lat="43.08652" lon="3.06857">
        <ele>17.200000762939</ele>
        <time>2014-11-23T12:12:02.000Z</time>
      </trkpt>
      <trkpt lat="43.08658" lon="3.06863">
        <ele>17.200000762939</ele>
        <time>2014-11-23T12:12:08.000Z</time>
      </trkpt>
      <trkpt lat="43.08661" lon="3.06865">
        <ele>17.200000762939</ele>
        <time>2014-11-23T12:12:11.000Z</time>
      </trkpt>
      <trkpt lat="43.08662" lon="3.06866">
        <ele>17.200000762939</ele>
        <time>2014-11-23T12:12:12.000Z</time>
      </trkpt>
      <trkpt lat="43.08663" lon="3.06868">
        <ele>17.200000762939</ele>
        <time>2014-11-23T12:12:13.000Z</time>
      </trkpt>
      <trkpt lat="43.08668" lon="3.06872">
        <ele>17.200000762939</ele>
        <time>2014-11-23T12:12:18.000Z</time>
      </trkpt>
      <trkpt lat="43.08674" lon="3.06876">
        <ele>17.200000762939</ele>
        <time>2014-11-23T12:12:23.000Z</time>
      </trkpt>
      <trkpt lat="43.08675" lon="3.06877">
        <ele>17.200000762939</ele>
        <time>2014-11-23T12:12:24.000Z</time>
      </trkpt>
      <trkpt lat="43.0868" lon="3.0688">
        <ele>17.200000762939</ele>
        <time>2014-11-23T12:12:28.000Z</time>
      </trkpt>
      <trkpt lat="43.08681" lon="3.06882">
        <ele>17.60000038147</ele>
        <time>2014-11-23T12:12:29.000Z</time>
      </trkpt>
      <trkpt lat="43.08682" lon="3.06882">
        <ele>18</ele>
        <time>2014-11-23T12:12:30.000Z</time>
      </trkpt>
      <trkpt lat="43.08683" lon="3.06882">
        <ele>18.39999961853</ele>
        <time>2014-11-23T12:12:31.000Z</time>
      </trkpt>
      <trkpt lat="43.08684" lon="3.06883">
        <ele>18.799999237061</ele>
        <time>2014-11-23T12:12:32.000Z</time>
      </trkpt>
      <trkpt lat="43.08685" lon="3.06883">
        <ele>19.200000762939</ele>
        <time>2014-11-23T12:12:33.000Z</time>
      </trkpt>
      <trkpt lat="43.08691" lon="3.06886">
        <ele>19.200000762939</ele>
        <time>2014-11-23T12:12:37.000Z</time>
      </trkpt>
      <trkpt lat="43.08703" lon="3.06893">
        <ele>19.200000762939</ele>
        <time>2014-11-23T12:12:44.000Z</time>
      </trkpt>
      <trkpt lat="43.08714" lon="3.06907">
        <ele>19.60000038147</ele>
        <time>2014-11-23T12:12:51.000Z</time>
      </trkpt>
      <trkpt lat="43.08715" lon="3.0691">
        <ele>20.200000762939</ele>
        <time>2014-11-23T12:12:52.000Z</time>
      </trkpt>
      <trkpt lat="43.08716" lon="3.06912">
        <ele>20.60000038147</ele>
        <time>2014-11-23T12:12:53.000Z</time>
      </trkpt>
      <trkpt lat="43.08717" lon="3.06913">
        <ele>21</ele>
        <time>2014-11-23T12:12:54.000Z</time>
      </trkpt>
      <trkpt lat="43.08718" lon="3.06916">
        <ele>21.39999961853</ele>
        <time>2014-11-23T12:12:55.000Z</time>
      </trkpt>
      <trkpt lat="43.08718" lon="3.06918">
        <ele>21.39999961853</ele>
        <time>2014-11-23T12:12:56.000Z</time>
      </trkpt>
      <trkpt lat="43.08719" lon="3.06922">
        <ele>22</ele>
        <time>2014-11-23T12:12:58.000Z</time>
      </trkpt>
      <trkpt lat="43.08719" lon="3.06925">
        <ele>22.39999961853</ele>
        <time>2014-11-23T12:12:59.000Z</time>
      </trkpt>
      <trkpt lat="43.08719" lon="3.06927">
        <ele>23</ele>
        <time>2014-11-23T12:13:00.000Z</time>
      </trkpt>
      <trkpt lat="43.0872" lon="3.06929">
        <ele>23.39999961853</ele>
        <time>2014-11-23T12:13:01.000Z</time>
      </trkpt>
      <trkpt lat="43.08721" lon="3.06931">
        <ele>24</ele>
        <time>2014-11-23T12:13:02.000Z</time>
      </trkpt>
      <trkpt lat="43.08724" lon="3.06949">
        <ele>24</ele>
        <time>2014-11-23T12:13:09.000Z</time>
      </trkpt>
      <trkpt lat="43.08725" lon="3.06964">
        <ele>24.39999961853</ele>
        <time>2014-11-23T12:13:15.000Z</time>
      </trkpt>
      <trkpt lat="43.08725" lon="3.06966">
        <ele>25</ele>
        <time>2014-11-23T12:13:16.000Z</time>
      </trkpt>
      <trkpt lat="43.08725" lon="3.06968">
        <ele>25.39999961853</ele>
        <time>2014-11-23T12:13:17.000Z</time>
      </trkpt>
      <trkpt lat="43.08725" lon="3.06968">
        <ele>25.799999237061</ele>
        <time>2014-11-23T12:13:18.000Z</time>
      </trkpt>
      <trkpt lat="43.08725" lon="3.06968">
        <ele>26.200000762939</ele>
        <time>2014-11-23T12:13:19.000Z</time>
      </trkpt>
      <trkpt lat="43.08725" lon="3.0697">
        <ele>26.200000762939</ele>
        <time>2014-11-23T12:13:20.000Z</time>
      </trkpt>
      <trkpt lat="43.08724" lon="3.06972">
        <ele>26.200000762939</ele>
        <time>2014-11-23T12:13:21.000Z</time>
      </trkpt>
      <trkpt lat="43.08723" lon="3.06975">
        <ele>26.200000762939</ele>
        <time>2014-11-23T12:13:25.000Z</time>
      </trkpt>
      <trkpt lat="43.08723" lon="3.0698">
        <ele>25.39999961853</ele>
        <time>2014-11-23T12:16:23.000Z</time>
      </trkpt>
      <trkpt lat="43.08722" lon="3.06981">
        <ele>24.799999237061</ele>
        <time>2014-11-23T12:16:24.000Z</time>
      </trkpt>
      <trkpt lat="43.08722" lon="3.06983">
        <ele>24.39999961853</ele>
        <time>2014-11-23T12:16:25.000Z</time>
      </trkpt>
      <trkpt lat="43.08721" lon="3.06984">
        <ele>24</ele>
        <time>2014-11-23T12:16:26.000Z</time>
      </trkpt>
      <trkpt lat="43.0872" lon="3.0699">
        <ele>24</ele>
        <time>2014-11-23T12:16:28.000Z</time>
      </trkpt>
      <trkpt lat="43.08716" lon="3.07012">
        <ele>24</ele>
        <time>2014-11-23T12:16:34.000Z</time>
      </trkpt>
      <trkpt lat="43.08713" lon="3.07042">
        <ele>23.39999961853</ele>
        <time>2014-11-23T12:16:41.000Z</time>
      </trkpt>
      <trkpt lat="43.08715" lon="3.07047">
        <ele>23</ele>
        <time>2014-11-23T12:16:42.000Z</time>
      </trkpt>
      <trkpt lat="43.08717" lon="3.07051">
        <ele>22.60000038147</ele>
        <time>2014-11-23T12:16:43.000Z</time>
      </trkpt>
      <trkpt lat="43.08721" lon="3.07054">
        <ele>22.200000762939</ele>
        <time>2014-11-23T12:16:44.000Z</time>
      </trkpt>
      <trkpt lat="43.08723" lon="3.07055">
        <ele>21.200000762939</ele>
        <time>2014-11-23T12:16:45.000Z</time>
      </trkpt>
      <trkpt lat="43.08726" lon="3.07057">
        <ele>20.799999237061</ele>
        <time>2014-11-23T12:16:46.000Z</time>
      </trkpt>
      <trkpt lat="43.08728" lon="3.07061">
        <ele>20.39999961853</ele>
        <time>2014-11-23T12:16:47.000Z</time>
      </trkpt>
      <trkpt lat="43.0873" lon="3.07066">
        <ele>20</ele>
        <time>2014-11-23T12:16:48.000Z</time>
      </trkpt>
      <trkpt lat="43.0873" lon="3.07071">
        <ele>19.60000038147</ele>
        <time>2014-11-23T12:16:49.000Z</time>
      </trkpt>
      <trkpt lat="43.08727" lon="3.07083">
        <ele>19.60000038147</ele>
        <time>2014-11-23T12:16:51.000Z</time>
      </trkpt>
      <trkpt lat="43.08726" lon="3.07089">
        <ele>19.60000038147</ele>
        <time>2014-11-23T12:16:52.000Z</time>
      </trkpt>
      <trkpt lat="43.08725" lon="3.07095">
        <ele>19.60000038147</ele>
        <time>2014-11-23T12:16:53.000Z</time>
      </trkpt>
      <trkpt lat="43.08727" lon="3.07115">
        <ele>19.60000038147</ele>
        <time>2014-11-23T12:16:56.000Z</time>
      </trkpt>
      <trkpt lat="43.0873" lon="3.0712">
        <ele>19.200000762939</ele>
        <time>2014-11-23T12:16:57.000Z</time>
      </trkpt>
      <trkpt lat="43.08734" lon="3.07124">
        <ele>18.60000038147</ele>
        <time>2014-11-23T12:16:58.000Z</time>
      </trkpt>
      <trkpt lat="43.08737" lon="3.07127">
        <ele>18</ele>
        <time>2014-11-23T12:16:59.000Z</time>
      </trkpt>
      <trkpt lat="43.08738" lon="3.0713">
        <ele>17.60000038147</ele>
        <time>2014-11-23T12:17:00.000Z</time>
      </trkpt>
      <trkpt lat="43.08738" lon="3.07133">
        <ele>17</ele>
        <time>2014-11-23T12:17:01.000Z</time>
      </trkpt>
      <trkpt lat="43.08737" lon="3.07141">
        <ele>17</ele>
        <time>2014-11-23T12:17:03.000Z</time>
      </trkpt>
      <trkpt lat="43.08733" lon="3.07158">
        <ele>16.60000038147</ele>
        <time>2014-11-23T12:17:06.000Z</time>
      </trkpt>
      <trkpt lat="43.08732" lon="3.07164">
        <ele>16.200000762939</ele>
        <time>2014-11-23T12:17:07.000Z</time>
      </trkpt>
      <trkpt lat="43.08731" lon="3.07169">
        <ele>15.800000190735</ele>
        <time>2014-11-23T12:17:08.000Z</time>
      </trkpt>
      <trkpt lat="43.08731" lon="3.07172">
        <ele>15.39999961853</ele>
        <time>2014-11-23T12:17:09.000Z</time>
      </trkpt>
      <trkpt lat="43.0873" lon="3.07173">
        <ele>14.39999961853</ele>
        <time>2014-11-23T12:17:10.000Z</time>
      </trkpt>
      <trkpt lat="43.08731" lon="3.07174">
        <ele>14</ele>
        <time>2014-11-23T12:17:11.000Z</time>
      </trkpt>
      <trkpt lat="43.08731" lon="3.07173">
        <ele>13.39999961853</ele>
        <time>2014-11-23T12:17:12.000Z</time>
      </trkpt>
      <trkpt lat="43.08732" lon="3.07166">
        <ele>12.60000038147</ele>
        <time>2014-11-23T12:17:18.000Z</time>
      </trkpt>
      <trkpt lat="43.08731" lon="3.07164">
        <ele>12.60000038147</ele>
        <time>2014-11-23T12:17:19.000Z</time>
      </trkpt>
      <trkpt lat="43.08736" lon="3.07151">
        <ele>12.60000038147</ele>
        <time>2014-11-23T12:17:23.000Z</time>
      </trkpt>
      <trkpt lat="43.0874" lon="3.07135">
        <ele>12.60000038147</ele>
        <time>2014-11-23T12:17:27.000Z</time>
      </trkpt>
      <trkpt lat="43.0874" lon="3.07134">
        <ele>13</ele>
        <time>2014-11-23T12:17:28.000Z</time>
      </trkpt>
      <trkpt lat="43.08742" lon="3.07133">
        <ele>13.39999961853</ele>
        <time>2014-11-23T12:17:29.000Z</time>
      </trkpt>
      <trkpt lat="43.08744" lon="3.07133">
        <ele>13.800000190735</ele>
        <time>2014-11-23T12:17:30.000Z</time>
      </trkpt>
      <trkpt lat="43.08745" lon="3.07135">
        <ele>14.199999809265</ele>
        <time>2014-11-23T12:17:31.000Z</time>
      </trkpt>
      <trkpt lat="43.08747" lon="3.07135">
        <ele>14.60000038147</ele>
        <time>2014-11-23T12:17:32.000Z</time>
      </trkpt>
      <trkpt lat="43.08754" lon="3.07141">
        <ele>14.60000038147</ele>
        <time>2014-11-23T12:17:37.000Z</time>
      </trkpt>
      <trkpt lat="43.08766" lon="3.07146">
        <ele>14.60000038147</ele>
        <time>2014-11-23T12:17:42.000Z</time>
      </trkpt>
      <trkpt lat="43.08769" lon="3.07146">
        <ele>14.60000038147</ele>
        <time>2014-11-23T12:17:43.000Z</time>
      </trkpt>
      <trkpt lat="43.08787" lon="3.07148">
        <ele>14.60000038147</ele>
        <time>2014-11-23T12:17:49.000Z</time>
      </trkpt>
      <trkpt lat="43.08801" lon="3.07148">
        <ele>14.60000038147</ele>
        <time>2014-11-23T12:17:53.000Z</time>
      </trkpt>
      <trkpt lat="43.08816" lon="3.07141">
        <ele>14.60000038147</ele>
        <time>2014-11-23T12:17:59.000Z</time>
      </trkpt>
      <trkpt lat="43.08822" lon="3.07132">
        <ele>14.60000038147</ele>
        <time>2014-11-23T12:18:04.000Z</time>
      </trkpt>
      <trkpt lat="43.0883" lon="3.07122">
        <ele>14.60000038147</ele>
        <time>2014-11-23T12:18:10.000Z</time>
      </trkpt>
      <trkpt lat="43.08831" lon="3.07121">
        <ele>15</ele>
        <time>2014-11-23T12:18:11.000Z</time>
      </trkpt>
      <trkpt lat="43.08833" lon="3.07119">
        <ele>15.39999961853</ele>
        <time>2014-11-23T12:18:12.000Z</time>
      </trkpt>
      <trkpt lat="43.08834" lon="3.07118">
        <ele>15.800000190735</ele>
        <time>2014-11-23T12:18:13.000Z</time>
      </trkpt>
      <trkpt lat="43.08836" lon="3.07117">
        <ele>16.200000762939</ele>
        <time>2014-11-23T12:18:14.000Z</time>
      </trkpt>
      <trkpt lat="43.08837" lon="3.07115">
        <ele>16.60000038147</ele>
        <time>2014-11-23T12:18:15.000Z</time>
      </trkpt>
      <trkpt lat="43.08839" lon="3.07114">
        <ele>16.60000038147</ele>
        <time>2014-11-23T12:18:17.000Z</time>
      </trkpt>
      <trkpt lat="43.08842" lon="3.07112">
        <ele>17</ele>
        <time>2014-11-23T12:18:19.000Z</time>
      </trkpt>
      <trkpt lat="43.08843" lon="3.07111">
        <ele>17.60000038147</ele>
        <time>2014-11-23T12:18:20.000Z</time>
      </trkpt>
      <trkpt lat="43.08844" lon="3.0711">
        <ele>18</ele>
        <time>2014-11-23T12:18:21.000Z</time>
      </trkpt>
      <trkpt lat="43.08845" lon="3.07109">
        <ele>18.39999961853</ele>
        <time>2014-11-23T12:18:22.000Z</time>
      </trkpt>
      <trkpt lat="43.08847" lon="3.07108">
        <ele>18.799999237061</ele>
        <time>2014-11-23T12:18:23.000Z</time>
      </trkpt>
      <trkpt lat="43.08854" lon="3.07104">
        <ele>18.799999237061</ele>
        <time>2014-11-23T12:18:28.000Z</time>
      </trkpt>
      <trkpt lat="43.08859" lon="3.0709">
        <ele>18.799999237061</ele>
        <time>2014-11-23T12:18:34.000Z</time>
      </trkpt>
      <trkpt lat="43.08861" lon="3.07087">
        <ele>18.799999237061</ele>
        <time>2014-11-23T12:18:35.000Z</time>
      </trkpt>
      <trkpt lat="43.08865" lon="3.07083">
        <ele>19.200000762939</ele>
        <time>2014-11-23T12:18:38.000Z</time>
      </trkpt>
      <trkpt lat="43.08865" lon="3.07081">
        <ele>19.799999237061</ele>
        <time>2014-11-23T12:18:39.000Z</time>
      </trkpt>
      <trkpt lat="43.08866" lon="3.0708">
        <ele>20.200000762939</ele>
        <time>2014-11-23T12:18:40.000Z</time>
      </trkpt>
      <trkpt lat="43.08867" lon="3.07077">
        <ele>20.60000038147</ele>
        <time>2014-11-23T12:18:41.000Z</time>
      </trkpt>
      <trkpt lat="43.08867" lon="3.07076">
        <ele>21</ele>
        <time>2014-11-23T12:18:42.000Z</time>
      </trkpt>
      <trkpt lat="43.08871" lon="3.0707">
        <ele>21.39999961853</ele>
        <time>2014-11-23T12:18:45.000Z</time>
      </trkpt>
      <trkpt lat="43.08872" lon="3.07069">
        <ele>21.799999237061</ele>
        <time>2014-11-23T12:18:46.000Z</time>
      </trkpt>
      <trkpt lat="43.08872" lon="3.07067">
        <ele>22.200000762939</ele>
        <time>2014-11-23T12:18:47.000Z</time>
      </trkpt>
      <trkpt lat="43.08873" lon="3.07065">
        <ele>22.60000038147</ele>
        <time>2014-11-23T12:18:48.000Z</time>
      </trkpt>
      <trkpt lat="43.08874" lon="3.07063">
        <ele>23</ele>
        <time>2014-11-23T12:18:49.000Z</time>
      </trkpt>
      <trkpt lat="43.08876" lon="3.07059">
        <ele>23</ele>
        <time>2014-11-23T12:18:52.000Z</time>
      </trkpt>
      <trkpt lat="43.08877" lon="3.07054">
        <ele>23.39999961853</ele>
        <time>2014-11-23T12:18:54.000Z</time>
      </trkpt>
      <trkpt lat="43.08879" lon="3.07052">
        <ele>23.799999237061</ele>
        <time>2014-11-23T12:18:55.000Z</time>
      </trkpt>
      <trkpt lat="43.08879" lon="3.07049">
        <ele>24.200000762939</ele>
        <time>2014-11-23T12:18:56.000Z</time>
      </trkpt>
      <trkpt lat="43.0888" lon="3.07047">
        <ele>24.799999237061</ele>
        <time>2014-11-23T12:18:57.000Z</time>
      </trkpt>
      <trkpt lat="43.08881" lon="3.07044">
        <ele>25.200000762939</ele>
        <time>2014-11-23T12:18:58.000Z</time>
      </trkpt>
      <trkpt lat="43.08882" lon="3.0704">
        <ele>25.60000038147</ele>
        <time>2014-11-23T12:19:00.000Z</time>
      </trkpt>
      <trkpt lat="43.08883" lon="3.07038">
        <ele>26</ele>
        <time>2014-11-23T12:19:01.000Z</time>
      </trkpt>
      <trkpt lat="43.08883" lon="3.07035">
        <ele>26.39999961853</ele>
        <time>2014-11-23T12:19:02.000Z</time>
      </trkpt>
      <trkpt lat="43.08883" lon="3.07033">
        <ele>26.799999237061</ele>
        <time>2014-11-23T12:19:03.000Z</time>
      </trkpt>
      <trkpt lat="43.08883" lon="3.07031">
        <ele>27.200000762939</ele>
        <time>2014-11-23T12:19:04.000Z</time>
      </trkpt>
      <trkpt lat="43.08882" lon="3.07025">
        <ele>27.60000038147</ele>
        <time>2014-11-23T12:19:06.000Z</time>
      </trkpt>
      <trkpt lat="43.08882" lon="3.07022">
        <ele>28</ele>
        <time>2014-11-23T12:19:07.000Z</time>
      </trkpt>
      <trkpt lat="43.08883" lon="3.07019">
        <ele>28.60000038147</ele>
        <time>2014-11-23T12:19:08.000Z</time>
      </trkpt>
      <trkpt lat="43.08883" lon="3.07017">
        <ele>29</ele>
        <time>2014-11-23T12:19:09.000Z</time>
      </trkpt>
      <trkpt lat="43.08885" lon="3.07016">
        <ele>29.39999961853</ele>
        <time>2014-11-23T12:19:10.000Z</time>
      </trkpt>
      <trkpt lat="43.08886" lon="3.07014">
        <ele>29.39999961853</ele>
        <time>2014-11-23T12:19:11.000Z</time>
      </trkpt>
      <trkpt lat="43.08887" lon="3.07012">
        <ele>29.799999237061</ele>
        <time>2014-11-23T12:19:12.000Z</time>
      </trkpt>
      <trkpt lat="43.08887" lon="3.07009">
        <ele>30.200000762939</ele>
        <time>2014-11-23T12:19:13.000Z</time>
      </trkpt>
      <trkpt lat="43.08888" lon="3.07006">
        <ele>31.200000762939</ele>
        <time>2014-11-23T12:19:14.000Z</time>
      </trkpt>
      <trkpt lat="43.08888" lon="3.07004">
        <ele>31.60000038147</ele>
        <time>2014-11-23T12:19:15.000Z</time>
      </trkpt>
      <trkpt lat="43.08889" lon="3.07001">
        <ele>31.60000038147</ele>
        <time>2014-11-23T12:19:16.000Z</time>
      </trkpt>
      <trkpt lat="43.08888" lon="3.06997">
        <ele>32.200000762939</ele>
        <time>2014-11-23T12:19:18.000Z</time>
      </trkpt>
      <trkpt lat="43.08888" lon="3.06994">
        <ele>32.599998474121</ele>
        <time>2014-11-23T12:19:19.000Z</time>
      </trkpt>
      <trkpt lat="43.08888" lon="3.06992">
        <ele>33</ele>
        <time>2014-11-23T12:19:20.000Z</time>
      </trkpt>
      <trkpt lat="43.08888" lon="3.0699">
        <ele>33.599998474121</ele>
        <time>2014-11-23T12:19:21.000Z</time>
      </trkpt>
      <trkpt lat="43.08888" lon="3.06987">
        <ele>34</ele>
        <time>2014-11-23T12:19:22.000Z</time>
      </trkpt>
      <trkpt lat="43.08891" lon="3.06982">
        <ele>34.400001525879</ele>
        <time>2014-11-23T12:19:24.000Z</time>
      </trkpt>
      <trkpt lat="43.08891" lon="3.0698">
        <ele>34.799999237061</ele>
        <time>2014-11-23T12:19:25.000Z</time>
      </trkpt>
      <trkpt lat="43.08893" lon="3.06979">
        <ele>35.200000762939</ele>
        <time>2014-11-23T12:19:26.000Z</time>
      </trkpt>
      <trkpt lat="43.08894" lon="3.06977">
        <ele>35.599998474121</ele>
        <time>2014-11-23T12:19:27.000Z</time>
      </trkpt>
      <trkpt lat="43.08895" lon="3.06975">
        <ele>36</ele>
        <time>2014-11-23T12:19:28.000Z</time>
      </trkpt>
      <trkpt lat="43.08898" lon="3.06971">
        <ele>36</ele>
        <time>2014-11-23T12:19:30.000Z</time>
      </trkpt>
      <trkpt lat="43.089" lon="3.06967">
        <ele>36.400001525879</ele>
        <time>2014-11-23T12:19:32.000Z</time>
      </trkpt>
      <trkpt lat="43.089" lon="3.06965">
        <ele>36.799999237061</ele>
        <time>2014-11-23T12:19:33.000Z</time>
      </trkpt>
      <trkpt lat="43.08901" lon="3.06963">
        <ele>37.200000762939</ele>
        <time>2014-11-23T12:19:34.000Z</time>
      </trkpt>
      <trkpt lat="43.08902" lon="3.06961">
        <ele>37.599998474121</ele>
        <time>2014-11-23T12:19:35.000Z</time>
      </trkpt>
      <trkpt lat="43.08902" lon="3.06958">
        <ele>38</ele>
        <time>2014-11-23T12:19:36.000Z</time>
      </trkpt>
      <trkpt lat="43.08904" lon="3.06951">
        <ele>38</ele>
        <time>2014-11-23T12:19:39.000Z</time>
      </trkpt>
      <trkpt lat="43.08903" lon="3.06949">
        <ele>38.599998474121</ele>
        <time>2014-11-23T12:19:40.000Z</time>
      </trkpt>
      <trkpt lat="43.08904" lon="3.06946">
        <ele>39</ele>
        <time>2014-11-23T12:19:41.000Z</time>
      </trkpt>
      <trkpt lat="43.08904" lon="3.06944">
        <ele>39.400001525879</ele>
        <time>2014-11-23T12:19:42.000Z</time>
      </trkpt>
      <trkpt lat="43.08905" lon="3.06942">
        <ele>40</ele>
        <time>2014-11-23T12:19:43.000Z</time>
      </trkpt>
      <trkpt lat="43.08906" lon="3.06941">
        <ele>40.400001525879</ele>
        <time>2014-11-23T12:19:44.000Z</time>
      </trkpt>
      <trkpt lat="43.08912" lon="3.06934">
        <ele>40.400001525879</ele>
        <time>2014-11-23T12:19:48.000Z</time>
      </trkpt>
      <trkpt lat="43.08917" lon="3.06934">
        <ele>40.400001525879</ele>
        <time>2014-11-23T12:19:51.000Z</time>
      </trkpt>
      <trkpt lat="43.0892" lon="3.06934">
        <ele>40.799999237061</ele>
        <time>2014-11-23T12:19:54.000Z</time>
      </trkpt>
      <trkpt lat="43.08921" lon="3.06935">
        <ele>42.599998474121</ele>
        <time>2014-11-23T12:22:00.000Z</time>
      </trkpt>
      <trkpt lat="43.08924" lon="3.06936">
        <ele>42.599998474121</ele>
        <time>2014-11-23T12:22:01.000Z</time>
      </trkpt>
      <trkpt lat="43.08939" lon="3.06937">
        <ele>41.599998474121</ele>
        <time>2014-11-23T12:22:06.000Z</time>
      </trkpt>
      <trkpt lat="43.08941" lon="3.06938">
        <ele>41.200000762939</ele>
        <time>2014-11-23T12:22:07.000Z</time>
      </trkpt>
      <trkpt lat="43.08944" lon="3.06938">
        <ele>40.799999237061</ele>
        <time>2014-11-23T12:22:08.000Z</time>
      </trkpt>
      <trkpt lat="43.08947" lon="3.06939">
        <ele>40.400001525879</ele>
        <time>2014-11-23T12:22:09.000Z</time>
      </trkpt>
      <trkpt lat="43.08954" lon="3.06937">
        <ele>40.400001525879</ele>
        <time>2014-11-23T12:22:12.000Z</time>
      </trkpt>
      <trkpt lat="43.08959" lon="3.06937">
        <ele>40.400001525879</ele>
        <time>2014-11-23T12:22:14.000Z</time>
      </trkpt>
      <trkpt lat="43.08965" lon="3.06941">
        <ele>40.400001525879</ele>
        <time>2014-11-23T12:22:16.000Z</time>
      </trkpt>
      <trkpt lat="43.08975" lon="3.06941">
        <ele>40.400001525879</ele>
        <time>2014-11-23T12:22:20.000Z</time>
      </trkpt>
      <trkpt lat="43.08991" lon="3.06936">
        <ele>40.799999237061</ele>
        <time>2014-11-23T12:22:27.000Z</time>
      </trkpt>
      <trkpt lat="43.08993" lon="3.06934">
        <ele>41.200000762939</ele>
        <time>2014-11-23T12:22:28.000Z</time>
      </trkpt>
      <trkpt lat="43.08995" lon="3.06933">
        <ele>41.599998474121</ele>
        <time>2014-11-23T12:22:29.000Z</time>
      </trkpt>
      <trkpt lat="43.08998" lon="3.06932">
        <ele>42</ele>
        <time>2014-11-23T12:22:30.000Z</time>
      </trkpt>
      <trkpt lat="43.09" lon="3.06931">
        <ele>42.400001525879</ele>
        <time>2014-11-23T12:22:31.000Z</time>
      </trkpt>
      <trkpt lat="43.09002" lon="3.0693">
        <ele>42.400001525879</ele>
        <time>2014-11-23T12:22:32.000Z</time>
      </trkpt>
      <trkpt lat="43.09003" lon="3.06929">
        <ele>42.400001525879</ele>
        <time>2014-11-23T12:22:34.000Z</time>
      </trkpt>
      <trkpt lat="43.09008" lon="3.06926">
        <ele>42.400001525879</ele>
        <time>2014-11-23T12:22:42.000Z</time>
      </trkpt>
      <trkpt lat="43.09009" lon="3.06925">
        <ele>42.400001525879</ele>
        <time>2014-11-23T12:22:43.000Z</time>
      </trkpt>
      <trkpt lat="43.09012" lon="3.06922">
        <ele>42.799999237061</ele>
        <time>2014-11-23T12:22:47.000Z</time>
      </trkpt>
      <trkpt lat="43.09013" lon="3.06921">
        <ele>43.200000762939</ele>
        <time>2014-11-23T12:22:48.000Z</time>
      </trkpt>
      <trkpt lat="43.09013" lon="3.06921">
        <ele>43.599998474121</ele>
        <time>2014-11-23T12:22:49.000Z</time>
      </trkpt>
      <trkpt lat="43.09014" lon="3.0692">
        <ele>44</ele>
        <time>2014-11-23T12:22:50.000Z</time>
      </trkpt>
      <trkpt lat="43.09014" lon="3.0692">
        <ele>44.599998474121</ele>
        <time>2014-11-23T12:22:51.000Z</time>
      </trkpt>
      <trkpt lat="43.09014" lon="3.0692">
        <ele>44.599998474121</ele>
        <time>2014-11-23T12:22:52.000Z</time>
      </trkpt>
      <trkpt lat="43.0904" lon="3.06914">
        <ele>40</ele>
        <time>2014-11-23T12:24:03.000Z</time>
      </trkpt>
      <trkpt lat="43.09041" lon="3.06915">
        <ele>40</ele>
        <time>2014-11-23T12:24:04.000Z</time>
      </trkpt>
      <trkpt lat="43.09042" lon="3.06917">
        <ele>39.599998474121</ele>
        <time>2014-11-23T12:24:05.000Z</time>
      </trkpt>
      <trkpt lat="43.09044" lon="3.06919">
        <ele>39.200000762939</ele>
        <time>2014-11-23T12:24:06.000Z</time>
      </trkpt>
      <trkpt lat="43.09046" lon="3.06922">
        <ele>38.799999237061</ele>
        <time>2014-11-23T12:24:07.000Z</time>
      </trkpt>
      <trkpt lat="43.09048" lon="3.06926">
        <ele>38</ele>
        <time>2014-11-23T12:24:08.000Z</time>
      </trkpt>
      <trkpt lat="43.09051" lon="3.0693">
        <ele>37.400001525879</ele>
        <time>2014-11-23T12:24:09.000Z</time>
      </trkpt>
      <trkpt lat="43.09054" lon="3.06933">
        <ele>36.799999237061</ele>
        <time>2014-11-23T12:24:10.000Z</time>
      </trkpt>
      <trkpt lat="43.09059" lon="3.06936">
        <ele>36.200000762939</ele>
        <time>2014-11-23T12:24:11.000Z</time>
      </trkpt>
      <trkpt lat="43.09065" lon="3.06938">
        <ele>35.599998474121</ele>
        <time>2014-11-23T12:24:12.000Z</time>
      </trkpt>
      <trkpt lat="43.09083" lon="3.06936">
        <ele>35.599998474121</ele>
        <time>2014-11-23T12:24:16.000Z</time>
      </trkpt>
      <trkpt lat="43.09099" lon="3.06935">
        <ele>35.599998474121</ele>
        <time>2014-11-23T12:24:21.000Z</time>
      </trkpt>
      <trkpt lat="43.0912" lon="3.06938">
        <ele>35.599998474121</ele>
        <time>2014-11-23T12:24:28.000Z</time>
      </trkpt>
      <trkpt lat="43.0913" lon="3.06939">
        <ele>35.599998474121</ele>
        <time>2014-11-23T12:24:33.000Z</time>
      </trkpt>
      <trkpt lat="43.09146" lon="3.0694">
        <ele>35.599998474121</ele>
        <time>2014-11-23T12:24:39.000Z</time>
      </trkpt>
      <trkpt lat="43.09163" lon="3.06942">
        <ele>35.599998474121</ele>
        <time>2014-11-23T12:24:45.000Z</time>
      </trkpt>
      <trkpt lat="43.0918" lon="3.06946">
        <ele>35.599998474121</ele>
        <time>2014-11-23T12:24:52.000Z</time>
      </trkpt>
      <trkpt lat="43.0919" lon="3.06952">
        <ele>35.599998474121</ele>
        <time>2014-11-23T12:24:57.000Z</time>
      </trkpt>
      <trkpt lat="43.092" lon="3.0697">
        <ele>35.599998474121</ele>
        <time>2014-11-23T12:25:04.000Z</time>
      </trkpt>
      <trkpt lat="43.09204" lon="3.06988">
        <ele>35.599998474121</ele>
        <time>2014-11-23T12:25:10.000Z</time>
      </trkpt>
      <trkpt lat="43.09212" lon="3.07015">
        <ele>35.599998474121</ele>
        <time>2014-11-23T12:25:17.000Z</time>
      </trkpt>
      <trkpt lat="43.09218" lon="3.07035">
        <ele>35.599998474121</ele>
        <time>2014-11-23T12:25:23.000Z</time>
      </trkpt>
      <trkpt lat="43.09224" lon="3.07048">
        <ele>35.599998474121</ele>
        <time>2014-11-23T12:25:28.000Z</time>
      </trkpt>
      <trkpt lat="43.09223" lon="3.07055">
        <ele>36</ele>
        <time>2014-11-23T12:25:30.000Z</time>
      </trkpt>
      <trkpt lat="43.09224" lon="3.07059">
        <ele>36.400001525879</ele>
        <time>2014-11-23T12:25:31.000Z</time>
      </trkpt>
      <trkpt lat="43.09223" lon="3.07063">
        <ele>36.799999237061</ele>
        <time>2014-11-23T12:25:32.000Z</time>
      </trkpt>
      <trkpt lat="43.09222" lon="3.07066">
        <ele>37.200000762939</ele>
        <time>2014-11-23T12:25:33.000Z</time>
      </trkpt>
      <trkpt lat="43.09222" lon="3.07068">
        <ele>37.799999237061</ele>
        <time>2014-11-23T12:25:34.000Z</time>
      </trkpt>
      <trkpt lat="43.09223" lon="3.0707">
        <ele>38.200000762939</ele>
        <time>2014-11-23T12:25:35.000Z</time>
      </trkpt>
      <trkpt lat="43.09224" lon="3.07072">
        <ele>38.799999237061</ele>
        <time>2014-11-23T12:25:36.000Z</time>
      </trkpt>
      <trkpt lat="43.09225" lon="3.07073">
        <ele>39.200000762939</ele>
        <time>2014-11-23T12:25:37.000Z</time>
      </trkpt>
      <trkpt lat="43.09226" lon="3.07072">
        <ele>39.799999237061</ele>
        <time>2014-11-23T12:25:38.000Z</time>
      </trkpt>
      <trkpt lat="43.09235" lon="3.07068">
        <ele>39.799999237061</ele>
        <time>2014-11-23T12:25:42.000Z</time>
      </trkpt>
      <trkpt lat="43.09236" lon="3.07068">
        <ele>40.200000762939</ele>
        <time>2014-11-23T12:25:43.000Z</time>
      </trkpt>
      <trkpt lat="43.09238" lon="3.07067">
        <ele>40.799999237061</ele>
        <time>2014-11-23T12:25:44.000Z</time>
      </trkpt>
      <trkpt lat="43.0924" lon="3.07067">
        <ele>41.200000762939</ele>
        <time>2014-11-23T12:25:45.000Z</time>
      </trkpt>
      <trkpt lat="43.09242" lon="3.07067">
        <ele>41.799999237061</ele>
        <time>2014-11-23T12:25:46.000Z</time>
      </trkpt>
      <trkpt lat="43.09242" lon="3.07066">
        <ele>42.200000762939</ele>
        <time>2014-11-23T12:25:47.000Z</time>
      </trkpt>
      <trkpt lat="43.09242" lon="3.07066">
        <ele>42.200000762939</ele>
        <time>2014-11-23T12:25:48.000Z</time>
      </trkpt>
      <trkpt lat="43.09243" lon="3.07068">
        <ele>42.200000762939</ele>
        <time>2014-11-23T12:25:50.000Z</time>
      </trkpt>
      <trkpt lat="43.09244" lon="3.07069">
        <ele>42.200000762939</ele>
        <time>2014-11-23T12:25:52.000Z</time>
      </trkpt>
      <trkpt lat="43.09248" lon="3.07071">
        <ele>42.200000762939</ele>
        <time>2014-11-23T12:25:57.000Z</time>
      </trkpt>
      <trkpt lat="43.09251" lon="3.07071">
        <ele>42.200000762939</ele>
        <time>2014-11-23T12:26:02.000Z</time>
      </trkpt>
      <trkpt lat="43.09253" lon="3.0707">
        <ele>42.200000762939</ele>
        <time>2014-11-23T12:26:04.000Z</time>
      </trkpt>
      <trkpt lat="43.09254" lon="3.0707">
        <ele>42.200000762939</ele>
        <time>2014-11-23T12:26:05.000Z</time>
      </trkpt>
      <trkpt lat="43.09258" lon="3.0707">
        <ele>42.599998474121</ele>
        <time>2014-11-23T12:26:10.000Z</time>
      </trkpt>
      <trkpt lat="43.09269" lon="3.07073">
        <ele>44.400001525879</ele>
        <time>2014-11-23T12:28:48.000Z</time>
      </trkpt>
      <trkpt lat="43.09274" lon="3.07073">
        <ele>44.400001525879</ele>
        <time>2014-11-23T12:28:50.000Z</time>
      </trkpt>
      <trkpt lat="43.09286" lon="3.07072">
        <ele>44.799999237061</ele>
        <time>2014-11-23T12:28:55.000Z</time>
      </trkpt>
      <trkpt lat="43.09288" lon="3.07072">
        <ele>45.200000762939</ele>
        <time>2014-11-23T12:28:56.000Z</time>
      </trkpt>
      <trkpt lat="43.09291" lon="3.07072">
        <ele>45.599998474121</ele>
        <time>2014-11-23T12:28:57.000Z</time>
      </trkpt>
      <trkpt lat="43.09294" lon="3.07072">
        <ele>46</ele>
        <time>2014-11-23T12:28:58.000Z</time>
      </trkpt>
      <trkpt lat="43.09297" lon="3.07072">
        <ele>46.599998474121</ele>
        <time>2014-11-23T12:28:59.000Z</time>
      </trkpt>
      <trkpt lat="43.09302" lon="3.07073">
        <ele>46.599998474121</ele>
        <time>2014-11-23T12:29:01.000Z</time>
      </trkpt>
      <trkpt lat="43.09313" lon="3.07079">
        <ele>47</ele>
        <time>2014-11-23T12:29:06.000Z</time>
      </trkpt>
      <trkpt lat="43.09315" lon="3.07082">
        <ele>47.400001525879</ele>
        <time>2014-11-23T12:29:07.000Z</time>
      </trkpt>
      <trkpt lat="43.09317" lon="3.07085">
        <ele>48</ele>
        <time>2014-11-23T12:29:08.000Z</time>
      </trkpt>
      <trkpt lat="43.09319" lon="3.07087">
        <ele>48.400001525879</ele>
        <time>2014-11-23T12:29:09.000Z</time>
      </trkpt>
      <trkpt lat="43.0932" lon="3.07089">
        <ele>49</ele>
        <time>2014-11-23T12:29:10.000Z</time>
      </trkpt>
      <trkpt lat="43.09325" lon="3.07093">
        <ele>49</ele>
        <time>2014-11-23T12:29:12.000Z</time>
      </trkpt>
      <trkpt lat="43.09335" lon="3.07099">
        <ele>49.400001525879</ele>
        <time>2014-11-23T12:29:17.000Z</time>
      </trkpt>
      <trkpt lat="43.09336" lon="3.071">
        <ele>49.799999237061</ele>
        <time>2014-11-23T12:29:18.000Z</time>
      </trkpt>
      <trkpt lat="43.09338" lon="3.07102">
        <ele>50.200000762939</ele>
        <time>2014-11-23T12:29:19.000Z</time>
      </trkpt>
      <trkpt lat="43.09339" lon="3.07105">
        <ele>50.599998474121</ele>
        <time>2014-11-23T12:29:20.000Z</time>
      </trkpt>
      <trkpt lat="43.09341" lon="3.07107">
        <ele>51.200000762939</ele>
        <time>2014-11-23T12:29:21.000Z</time>
      </trkpt>
      <trkpt lat="43.09344" lon="3.07111">
        <ele>51.200000762939</ele>
        <time>2014-11-23T12:29:22.000Z</time>
      </trkpt>
      <trkpt lat="43.09349" lon="3.07126">
        <ele>51.200000762939</ele>
        <time>2014-11-23T12:29:26.000Z</time>
      </trkpt>
      <trkpt lat="43.09351" lon="3.0713">
        <ele>51.200000762939</ele>
        <time>2014-11-23T12:29:28.000Z</time>
      </trkpt>
      <trkpt lat="43.09355" lon="3.0713">
        <ele>51.200000762939</ele>
        <time>2014-11-23T12:29:30.000Z</time>
      </trkpt>
      <trkpt lat="43.09361" lon="3.07129">
        <ele>51.200000762939</ele>
        <time>2014-11-23T12:29:33.000Z</time>
      </trkpt>
      <trkpt lat="43.09364" lon="3.07131">
        <ele>51.599998474121</ele>
        <time>2014-11-23T12:29:35.000Z</time>
      </trkpt>
      <trkpt lat="43.09366" lon="3.07131">
        <ele>52</ele>
        <time>2014-11-23T12:29:36.000Z</time>
      </trkpt>
      <trkpt lat="43.09367" lon="3.0713">
        <ele>52.400001525879</ele>
        <time>2014-11-23T12:29:37.000Z</time>
      </trkpt>
      <trkpt lat="43.09368" lon="3.0713">
        <ele>52.799999237061</ele>
        <time>2014-11-23T12:29:38.000Z</time>
      </trkpt>
      <trkpt lat="43.0937" lon="3.07129">
        <ele>53.200000762939</ele>
        <time>2014-11-23T12:29:39.000Z</time>
      </trkpt>
      <trkpt lat="43.09372" lon="3.0713">
        <ele>53.200000762939</ele>
        <time>2014-11-23T12:29:40.000Z</time>
      </trkpt>
      <trkpt lat="43.09375" lon="3.07131">
        <ele>53.200000762939</ele>
        <time>2014-11-23T12:29:44.000Z</time>
      </trkpt>
      <trkpt lat="43.09378" lon="3.07133">
        <ele>53.200000762939</ele>
        <time>2014-11-23T12:31:31.000Z</time>
      </trkpt>
      <trkpt lat="43.09391" lon="3.07141">
        <ele>53.200000762939</ele>
        <time>2014-11-23T12:31:36.000Z</time>
      </trkpt>
      <trkpt lat="43.09394" lon="3.07142">
        <ele>53.200000762939</ele>
        <time>2014-11-23T12:31:37.000Z</time>
      </trkpt>
      <trkpt lat="43.09408" lon="3.07148">
        <ele>53.200000762939</ele>
        <time>2014-11-23T12:31:41.000Z</time>
      </trkpt>
      <trkpt lat="43.09433" lon="3.07161">
        <ele>53.599998474121</ele>
        <time>2014-11-23T12:31:48.000Z</time>
      </trkpt>
      <trkpt lat="43.09437" lon="3.0716">
        <ele>54</ele>
        <time>2014-11-23T12:31:49.000Z</time>
      </trkpt>
      <trkpt lat="43.09441" lon="3.07161">
        <ele>54.599998474121</ele>
        <time>2014-11-23T12:31:50.000Z</time>
      </trkpt>
      <trkpt lat="43.09444" lon="3.07162">
        <ele>55</ele>
        <time>2014-11-23T12:31:51.000Z</time>
      </trkpt>
      <trkpt lat="43.09448" lon="3.07162">
        <ele>55.400001525879</ele>
        <time>2014-11-23T12:31:52.000Z</time>
      </trkpt>
      <trkpt lat="43.09451" lon="3.07164">
        <ele>55.400001525879</ele>
        <time>2014-11-23T12:31:53.000Z</time>
      </trkpt>
      <trkpt lat="43.09463" lon="3.07176">
        <ele>55.400001525879</ele>
        <time>2014-11-23T12:31:57.000Z</time>
      </trkpt>
      <trkpt lat="43.09476" lon="3.07215">
        <ele>55.400001525879</ele>
        <time>2014-11-23T12:32:05.000Z</time>
      </trkpt>
      <trkpt lat="43.09487" lon="3.0725">
        <ele>55.400001525879</ele>
        <time>2014-11-23T12:32:12.000Z</time>
      </trkpt>
      <trkpt lat="43.09489" lon="3.07254">
        <ele>55</ele>
        <time>2014-11-23T12:32:13.000Z</time>
      </trkpt>
      <trkpt lat="43.09491" lon="3.07259">
        <ele>54.599998474121</ele>
        <time>2014-11-23T12:32:14.000Z</time>
      </trkpt>
      <trkpt lat="43.09494" lon="3.07264">
        <ele>54.200000762939</ele>
        <time>2014-11-23T12:32:15.000Z</time>
      </trkpt>
      <trkpt lat="43.09496" lon="3.07269">
        <ele>53.799999237061</ele>
        <time>2014-11-23T12:32:16.000Z</time>
      </trkpt>
      <trkpt lat="43.09499" lon="3.07273">
        <ele>53.400001525879</ele>
        <time>2014-11-23T12:32:17.000Z</time>
      </trkpt>
      <trkpt lat="43.095" lon="3.07279">
        <ele>53.400001525879</ele>
        <time>2014-11-23T12:32:18.000Z</time>
      </trkpt>
      <trkpt lat="43.09502" lon="3.07282">
        <ele>53.400001525879</ele>
        <time>2014-11-23T12:32:19.000Z</time>
      </trkpt>
      <trkpt lat="43.0952" lon="3.07308">
        <ele>53.400001525879</ele>
        <time>2014-11-23T12:32:26.000Z</time>
      </trkpt>
      <trkpt lat="43.09521" lon="3.07329">
        <ele>53.400001525879</ele>
        <time>2014-11-23T12:32:30.000Z</time>
      </trkpt>
      <trkpt lat="43.0952" lon="3.0734">
        <ele>53.400001525879</ele>
        <time>2014-11-23T12:32:32.000Z</time>
      </trkpt>
      <trkpt lat="43.09527" lon="3.07354">
        <ele>53.400001525879</ele>
        <time>2014-11-23T12:32:35.000Z</time>
      </trkpt>
      <trkpt lat="43.0953" lon="3.07358">
        <ele>53.400001525879</ele>
        <time>2014-11-23T12:32:36.000Z</time>
      </trkpt>
      <trkpt lat="43.09542" lon="3.07367">
        <ele>53.400001525879</ele>
        <time>2014-11-23T12:32:40.000Z</time>
      </trkpt>
      <trkpt lat="43.09566" lon="3.07375">
        <ele>53.400001525879</ele>
        <time>2014-11-23T12:32:46.000Z</time>
      </trkpt>
      <trkpt lat="43.0958" lon="3.07386">
        <ele>53.400001525879</ele>
        <time>2014-11-23T12:32:50.000Z</time>
      </trkpt>
      <trkpt lat="43.09591" lon="3.07395">
        <ele>53.400001525879</ele>
        <time>2014-11-23T12:32:53.000Z</time>
      </trkpt>
      <trkpt lat="43.09601" lon="3.07413">
        <ele>53.400001525879</ele>
        <time>2014-11-23T12:32:57.000Z</time>
      </trkpt>
      <trkpt lat="43.09609" lon="3.07436">
        <ele>53.400001525879</ele>
        <time>2014-11-23T12:33:02.000Z</time>
      </trkpt>
      <trkpt lat="43.09612" lon="3.07438">
        <ele>53.400001525879</ele>
        <time>2014-11-23T12:33:03.000Z</time>
      </trkpt>
      <trkpt lat="43.09622" lon="3.07445">
        <ele>53</ele>
        <time>2014-11-23T12:33:06.000Z</time>
      </trkpt>
      <trkpt lat="43.09626" lon="3.07447">
        <ele>52.599998474121</ele>
        <time>2014-11-23T12:33:07.000Z</time>
      </trkpt>
      <trkpt lat="43.09629" lon="3.0745">
        <ele>52.200000762939</ele>
        <time>2014-11-23T12:33:08.000Z</time>
      </trkpt>
      <trkpt lat="43.09633" lon="3.07452">
        <ele>51.599998474121</ele>
        <time>2014-11-23T12:33:09.000Z</time>
      </trkpt>
      <trkpt lat="43.09637" lon="3.07454">
        <ele>51.200000762939</ele>
        <time>2014-11-23T12:33:10.000Z</time>
      </trkpt>
      <trkpt lat="43.09641" lon="3.07454">
        <ele>51.200000762939</ele>
        <time>2014-11-23T12:33:11.000Z</time>
      </trkpt>
      <trkpt lat="43.09652" lon="3.07459">
        <ele>51.200000762939</ele>
        <time>2014-11-23T12:33:14.000Z</time>
      </trkpt>
      <trkpt lat="43.09658" lon="3.07465">
        <ele>51.200000762939</ele>
        <time>2014-11-23T12:33:16.000Z</time>
      </trkpt>
      <trkpt lat="43.09662" lon="3.07473">
        <ele>51.200000762939</ele>
        <time>2014-11-23T12:33:18.000Z</time>
      </trkpt>
      <trkpt lat="43.09669" lon="3.07482">
        <ele>51.200000762939</ele>
        <time>2014-11-23T12:33:21.000Z</time>
      </trkpt>
      <trkpt lat="43.09683" lon="3.07497">
        <ele>51.200000762939</ele>
        <time>2014-11-23T12:33:28.000Z</time>
      </trkpt>
      <trkpt lat="43.097" lon="3.07506">
        <ele>51.200000762939</ele>
        <time>2014-11-23T12:33:34.000Z</time>
      </trkpt>
      <trkpt lat="43.09714" lon="3.0752">
        <ele>51.200000762939</ele>
        <time>2014-11-23T12:33:41.000Z</time>
      </trkpt>
      <trkpt lat="43.09716" lon="3.07522">
        <ele>51.200000762939</ele>
        <time>2014-11-23T12:33:42.000Z</time>
      </trkpt>
      <trkpt lat="43.09719" lon="3.07524">
        <ele>51.200000762939</ele>
        <time>2014-11-23T12:33:44.000Z</time>
      </trkpt>
      <trkpt lat="43.09721" lon="3.07528">
        <ele>50.799999237061</ele>
        <time>2014-11-23T12:33:46.000Z</time>
      </trkpt>
      <trkpt lat="43.09723" lon="3.07531">
        <ele>50.400001525879</ele>
        <time>2014-11-23T12:33:47.000Z</time>
      </trkpt>
      <trkpt lat="43.09724" lon="3.07533">
        <ele>50</ele>
        <time>2014-11-23T12:33:48.000Z</time>
      </trkpt>
      <trkpt lat="43.09726" lon="3.07536">
        <ele>49.599998474121</ele>
        <time>2014-11-23T12:33:49.000Z</time>
      </trkpt>
      <trkpt lat="43.09728" lon="3.07538">
        <ele>49.200000762939</ele>
        <time>2014-11-23T12:33:50.000Z</time>
      </trkpt>
      <trkpt lat="43.09739" lon="3.07549">
        <ele>49.200000762939</ele>
        <time>2014-11-23T12:33:55.000Z</time>
      </trkpt>
      <trkpt lat="43.09751" lon="3.07559">
        <ele>48.599998474121</ele>
        <time>2014-11-23T12:33:59.000Z</time>
      </trkpt>
      <trkpt lat="43.09754" lon="3.07561">
        <ele>48.200000762939</ele>
        <time>2014-11-23T12:34:00.000Z</time>
      </trkpt>
      <trkpt lat="43.09758" lon="3.07561">
        <ele>47.200000762939</ele>
        <time>2014-11-23T12:34:01.000Z</time>
      </trkpt>
      <trkpt lat="43.09761" lon="3.07561">
        <ele>46.799999237061</ele>
        <time>2014-11-23T12:34:02.000Z</time>
      </trkpt>
      <trkpt lat="43.09768" lon="3.07564">
        <ele>46.799999237061</ele>
        <time>2014-11-23T12:34:04.000Z</time>
      </trkpt>
      <trkpt lat="43.09771" lon="3.07567">
        <ele>46.400001525879</ele>
        <time>2014-11-23T12:34:05.000Z</time>
      </trkpt>
      <trkpt lat="43.09774" lon="3.07571">
        <ele>46</ele>
        <time>2014-11-23T12:34:06.000Z</time>
      </trkpt>
      <trkpt lat="43.09777" lon="3.07574">
        <ele>45.599998474121</ele>
        <time>2014-11-23T12:34:07.000Z</time>
      </trkpt>
      <trkpt lat="43.09779" lon="3.07577">
        <ele>45.200000762939</ele>
        <time>2014-11-23T12:34:08.000Z</time>
      </trkpt>
      <trkpt lat="43.09783" lon="3.0758">
        <ele>44.599998474121</ele>
        <time>2014-11-23T12:34:09.000Z</time>
      </trkpt>
      <trkpt lat="43.09791" lon="3.07592">
        <ele>44.599998474121</ele>
        <time>2014-11-23T12:34:12.000Z</time>
      </trkpt>
      <trkpt lat="43.09794" lon="3.07596">
        <ele>44.200000762939</ele>
        <time>2014-11-23T12:34:13.000Z</time>
      </trkpt>
      <trkpt lat="43.09796" lon="3.076">
        <ele>43.799999237061</ele>
        <time>2014-11-23T12:34:14.000Z</time>
      </trkpt>
      <trkpt lat="43.09798" lon="3.07604">
        <ele>43.400001525879</ele>
        <time>2014-11-23T12:34:15.000Z</time>
      </trkpt>
      <trkpt lat="43.098" lon="3.07607">
        <ele>43</ele>
        <time>2014-11-23T12:34:16.000Z</time>
      </trkpt>
      <trkpt lat="43.09802" lon="3.0761">
        <ele>42.400001525879</ele>
        <time>2014-11-23T12:34:17.000Z</time>
      </trkpt>
      <trkpt lat="43.09809" lon="3.07616">
        <ele>42</ele>
        <time>2014-11-23T12:34:19.000Z</time>
      </trkpt>
      <trkpt lat="43.09812" lon="3.07619">
        <ele>41.599998474121</ele>
        <time>2014-11-23T12:34:20.000Z</time>
      </trkpt>
      <trkpt lat="43.09816" lon="3.0762">
        <ele>41.200000762939</ele>
        <time>2014-11-23T12:34:21.000Z</time>
      </trkpt>
      <trkpt lat="43.09819" lon="3.07622">
        <ele>40.799999237061</ele>
        <time>2014-11-23T12:34:22.000Z</time>
      </trkpt>
      <trkpt lat="43.09823" lon="3.07623">
        <ele>40.400001525879</ele>
        <time>2014-11-23T12:34:23.000Z</time>
      </trkpt>
      <trkpt lat="43.09832" lon="3.07627">
        <ele>39.400001525879</ele>
        <time>2014-11-23T12:34:26.000Z</time>
      </trkpt>
      <trkpt lat="43.09835" lon="3.07629">
        <ele>39</ele>
        <time>2014-11-23T12:34:27.000Z</time>
      </trkpt>
      <trkpt lat="43.09837" lon="3.0763">
        <ele>38.599998474121</ele>
        <time>2014-11-23T12:34:28.000Z</time>
      </trkpt>
      <trkpt lat="43.0984" lon="3.07631">
        <ele>38</ele>
        <time>2014-11-23T12:34:29.000Z</time>
      </trkpt>
      <trkpt lat="43.09849" lon="3.07634">
        <ele>38</ele>
        <time>2014-11-23T12:34:32.000Z</time>
      </trkpt>
      <trkpt lat="43.09858" lon="3.07636">
        <ele>37.599998474121</ele>
        <time>2014-11-23T12:34:35.000Z</time>
      </trkpt>
      <trkpt lat="43.09861" lon="3.07636">
        <ele>37.200000762939</ele>
        <time>2014-11-23T12:34:36.000Z</time>
      </trkpt>
      <trkpt lat="43.09863" lon="3.07635">
        <ele>36.799999237061</ele>
        <time>2014-11-23T12:34:37.000Z</time>
      </trkpt>
      <trkpt lat="43.09866" lon="3.07633">
        <ele>36.400001525879</ele>
        <time>2014-11-23T12:34:38.000Z</time>
      </trkpt>
      <trkpt lat="43.09869" lon="3.07631">
        <ele>36</ele>
        <time>2014-11-23T12:34:39.000Z</time>
      </trkpt>
      <trkpt lat="43.09879" lon="3.07629">
        <ele>36</ele>
        <time>2014-11-23T12:34:42.000Z</time>
      </trkpt>
      <trkpt lat="43.09897" lon="3.07631">
        <ele>36</ele>
        <time>2014-11-23T12:34:46.000Z</time>
      </trkpt>
      <trkpt lat="43.09901" lon="3.0763">
        <ele>36</ele>
        <time>2014-11-23T12:34:47.000Z</time>
      </trkpt>
      <trkpt lat="43.09909" lon="3.07625">
        <ele>35.599998474121</ele>
        <time>2014-11-23T12:34:49.000Z</time>
      </trkpt>
      <trkpt lat="43.09912" lon="3.07622">
        <ele>34.799999237061</ele>
        <time>2014-11-23T12:34:50.000Z</time>
      </trkpt>
      <trkpt lat="43.09913" lon="3.07618">
        <ele>34.400001525879</ele>
        <time>2014-11-23T12:34:51.000Z</time>
      </trkpt>
      <trkpt lat="43.09914" lon="3.07615">
        <ele>34</ele>
        <time>2014-11-23T12:34:52.000Z</time>
      </trkpt>
      <trkpt lat="43.09917" lon="3.0761">
        <ele>34</ele>
        <time>2014-11-23T12:34:54.000Z</time>
      </trkpt>
      <trkpt lat="43.09919" lon="3.07609">
        <ele>34</ele>
        <time>2014-11-23T12:34:55.000Z</time>
      </trkpt>
      <trkpt lat="43.09931" lon="3.07607">
        <ele>34</ele>
        <time>2014-11-23T12:34:59.000Z</time>
      </trkpt>
      <trkpt lat="43.09934" lon="3.07606">
        <ele>34</ele>
        <time>2014-11-23T12:35:00.000Z</time>
      </trkpt>
      <trkpt lat="43.09946" lon="3.07596">
        <ele>34</ele>
        <time>2014-11-23T12:35:05.000Z</time>
      </trkpt>
      <trkpt lat="43.09961" lon="3.07591">
        <ele>34</ele>
        <time>2014-11-23T12:35:10.000Z</time>
      </trkpt>
      <trkpt lat="43.0998" lon="3.07587">
        <ele>34</ele>
        <time>2014-11-23T12:35:16.000Z</time>
      </trkpt>
      <trkpt lat="43.09995" lon="3.07588">
        <ele>34.400001525879</ele>
        <time>2014-11-23T12:35:22.000Z</time>
      </trkpt>
      <trkpt lat="43.09997" lon="3.07587">
        <ele>34.799999237061</ele>
        <time>2014-11-23T12:35:23.000Z</time>
      </trkpt>
      <trkpt lat="43.09998" lon="3.07586">
        <ele>35.200000762939</ele>
        <time>2014-11-23T12:35:24.000Z</time>
      </trkpt>
      <trkpt lat="43.09999" lon="3.07584">
        <ele>35.799999237061</ele>
        <time>2014-11-23T12:35:25.000Z</time>
      </trkpt>
      <trkpt lat="43.1" lon="3.07582">
        <ele>36.200000762939</ele>
        <time>2014-11-23T12:35:26.000Z</time>
      </trkpt>
      <trkpt lat="43.10001" lon="3.07579">
        <ele>36.200000762939</ele>
        <time>2014-11-23T12:35:27.000Z</time>
      </trkpt>
      <trkpt lat="43.10003" lon="3.07565">
        <ele>36.200000762939</ele>
        <time>2014-11-23T12:35:31.000Z</time>
      </trkpt>
      <trkpt lat="43.10005" lon="3.07557">
        <ele>36.200000762939</ele>
        <time>2014-11-23T12:35:33.000Z</time>
      </trkpt>
      <trkpt lat="43.1001" lon="3.07533">
        <ele>36.599998474121</ele>
        <time>2014-11-23T12:35:39.000Z</time>
      </trkpt>
      <trkpt lat="43.10011" lon="3.07528">
        <ele>37.400001525879</ele>
        <time>2014-11-23T12:35:40.000Z</time>
      </trkpt>
      <trkpt lat="43.10012" lon="3.07524">
        <ele>37.799999237061</ele>
        <time>2014-11-23T12:35:41.000Z</time>
      </trkpt>
      <trkpt lat="43.10012" lon="3.07519">
        <ele>38.200000762939</ele>
        <time>2014-11-23T12:35:42.000Z</time>
      </trkpt>
      <trkpt lat="43.1002" lon="3.07499">
        <ele>38.200000762939</ele>
        <time>2014-11-23T12:35:47.000Z</time>
      </trkpt>
      <trkpt lat="43.10032" lon="3.07479">
        <ele>38.200000762939</ele>
        <time>2014-11-23T12:35:53.000Z</time>
      </trkpt>
      <trkpt lat="43.10039" lon="3.0748">
        <ele>38.200000762939</ele>
        <time>2014-11-23T12:35:56.000Z</time>
      </trkpt>
      <trkpt lat="43.10041" lon="3.07484">
        <ele>38.200000762939</ele>
        <time>2014-11-23T12:35:58.000Z</time>
      </trkpt>
      <trkpt lat="43.10045" lon="3.07489">
        <ele>38.200000762939</ele>
        <time>2014-11-23T12:36:01.000Z</time>
      </trkpt>
      <trkpt lat="43.10054" lon="3.07496">
        <ele>38.599998474121</ele>
        <time>2014-11-23T12:36:06.000Z</time>
      </trkpt>
      <trkpt lat="43.10056" lon="3.07498">
        <ele>39</ele>
        <time>2014-11-23T12:36:07.000Z</time>
      </trkpt>
      <trkpt lat="43.10057" lon="3.075">
        <ele>39.400001525879</ele>
        <time>2014-11-23T12:36:08.000Z</time>
      </trkpt>
      <trkpt lat="43.10059" lon="3.07502">
        <ele>39.799999237061</ele>
        <time>2014-11-23T12:36:09.000Z</time>
      </trkpt>
      <trkpt lat="43.1006" lon="3.07504">
        <ele>40.200000762939</ele>
        <time>2014-11-23T12:36:10.000Z</time>
      </trkpt>
      <trkpt lat="43.10062" lon="3.07506">
        <ele>40.200000762939</ele>
        <time>2014-11-23T12:36:11.000Z</time>
      </trkpt>
      <trkpt lat="43.10063" lon="3.07508">
        <ele>40.200000762939</ele>
        <time>2014-11-23T12:36:12.000Z</time>
      </trkpt>
      <trkpt lat="43.10065" lon="3.07512">
        <ele>40.799999237061</ele>
        <time>2014-11-23T12:36:14.000Z</time>
      </trkpt>
      <trkpt lat="43.10067" lon="3.07514">
        <ele>41.200000762939</ele>
        <time>2014-11-23T12:36:15.000Z</time>
      </trkpt>
      <trkpt lat="43.10069" lon="3.07516">
        <ele>41.599998474121</ele>
        <time>2014-11-23T12:36:16.000Z</time>
      </trkpt>
      <trkpt lat="43.1007" lon="3.07517">
        <ele>42</ele>
        <time>2014-11-23T12:36:17.000Z</time>
      </trkpt>
      <trkpt lat="43.10072" lon="3.07519">
        <ele>42.400001525879</ele>
        <time>2014-11-23T12:36:18.000Z</time>
      </trkpt>
      <trkpt lat="43.1008" lon="3.07518">
        <ele>42.799999237061</ele>
        <time>2014-11-23T12:36:22.000Z</time>
      </trkpt>
      <trkpt lat="43.10082" lon="3.07517">
        <ele>43.200000762939</ele>
        <time>2014-11-23T12:36:23.000Z</time>
      </trkpt>
      <trkpt lat="43.10084" lon="3.07517">
        <ele>43.599998474121</ele>
        <time>2014-11-23T12:36:24.000Z</time>
      </trkpt>
      <trkpt lat="43.10086" lon="3.07516">
        <ele>44.200000762939</ele>
        <time>2014-11-23T12:36:25.000Z</time>
      </trkpt>
      <trkpt lat="43.10088" lon="3.07516">
        <ele>44.599998474121</ele>
        <time>2014-11-23T12:36:26.000Z</time>
      </trkpt>
      <trkpt lat="43.10096" lon="3.07514">
        <ele>44.599998474121</ele>
        <time>2014-11-23T12:36:30.000Z</time>
      </trkpt>
      <trkpt lat="43.101" lon="3.07512">
        <ele>45</ele>
        <time>2014-11-23T12:36:32.000Z</time>
      </trkpt>
      <trkpt lat="43.10101" lon="3.07511">
        <ele>45.599998474121</ele>
        <time>2014-11-23T12:36:33.000Z</time>
      </trkpt>
      <trkpt lat="43.10103" lon="3.0751">
        <ele>46</ele>
        <time>2014-11-23T12:36:34.000Z</time>
      </trkpt>
      <trkpt lat="43.10105" lon="3.07509">
        <ele>46.599998474121</ele>
        <time>2014-11-23T12:36:35.000Z</time>
      </trkpt>
      <trkpt lat="43.10107" lon="3.07509">
        <ele>47</ele>
        <time>2014-11-23T12:36:36.000Z</time>
      </trkpt>
      <trkpt lat="43.10109" lon="3.07508">
        <ele>47</ele>
        <time>2014-11-23T12:36:37.000Z</time>
      </trkpt>
      <trkpt lat="43.1012" lon="3.07506">
        <ele>47</ele>
        <time>2014-11-23T12:36:42.000Z</time>
      </trkpt>
      <trkpt lat="43.10122" lon="3.07506">
        <ele>47.400001525879</ele>
        <time>2014-11-23T12:36:43.000Z</time>
      </trkpt>
      <trkpt lat="43.10123" lon="3.07506">
        <ele>47.799999237061</ele>
        <time>2014-11-23T12:36:44.000Z</time>
      </trkpt>
      <trkpt lat="43.10125" lon="3.07506">
        <ele>48.200000762939</ele>
        <time>2014-11-23T12:36:45.000Z</time>
      </trkpt>
      <trkpt lat="43.10127" lon="3.07506">
        <ele>48.599998474121</ele>
        <time>2014-11-23T12:36:46.000Z</time>
      </trkpt>
      <trkpt lat="43.10129" lon="3.07506">
        <ele>49</ele>
        <time>2014-11-23T12:36:47.000Z</time>
      </trkpt>
      <trkpt lat="43.10131" lon="3.07506">
        <ele>49</ele>
        <time>2014-11-23T12:36:48.000Z</time>
      </trkpt>
      <trkpt lat="43.10145" lon="3.07508">
        <ele>49</ele>
        <time>2014-11-23T12:36:55.000Z</time>
      </trkpt>
      <trkpt lat="43.10155" lon="3.07511">
        <ele>49.400001525879</ele>
        <time>2014-11-23T12:37:00.000Z</time>
      </trkpt>
      <trkpt lat="43.10157" lon="3.07511">
        <ele>49.799999237061</ele>
        <time>2014-11-23T12:37:01.000Z</time>
      </trkpt>
      <trkpt lat="43.10159" lon="3.07512">
        <ele>50.400001525879</ele>
        <time>2014-11-23T12:37:02.000Z</time>
      </trkpt>
      <trkpt lat="43.10161" lon="3.07513">
        <ele>50.799999237061</ele>
        <time>2014-11-23T12:37:03.000Z</time>
      </trkpt>
      <trkpt lat="43.10163" lon="3.07513">
        <ele>51.200000762939</ele>
        <time>2014-11-23T12:37:04.000Z</time>
      </trkpt>
      <trkpt lat="43.10169" lon="3.07517">
        <ele>51.200000762939</ele>
        <time>2014-11-23T12:37:09.000Z</time>
      </trkpt>
      <trkpt lat="43.10169" lon="3.07517">
        <ele>51.200000762939</ele>
        <time>2014-11-23T12:38:16.000Z</time>
      </trkpt>
      <trkpt lat="43.10169" lon="3.07517">
        <ele>51.200000762939</ele>
        <time>2014-11-23T12:38:17.000Z</time>
      </trkpt>
      <trkpt lat="43.1017" lon="3.07518">
        <ele>51.200000762939</ele>
        <time>2014-11-23T12:38:31.000Z</time>
      </trkpt>
      <trkpt lat="43.10177" lon="3.07522">
        <ele>51.200000762939</ele>
        <time>2014-11-23T12:38:35.000Z</time>
      </trkpt>
      <trkpt lat="43.10191" lon="3.07533">
        <ele>51.200000762939</ele>
        <time>2014-11-23T12:38:42.000Z</time>
      </trkpt>
      <trkpt lat="43.10198" lon="3.07548">
        <ele>51.599998474121</ele>
        <time>2014-11-23T12:38:47.000Z</time>
      </trkpt>
      <trkpt lat="43.102" lon="3.07551">
        <ele>52</ele>
        <time>2014-11-23T12:38:48.000Z</time>
      </trkpt>
      <trkpt lat="43.10201" lon="3.07555">
        <ele>52.400001525879</ele>
        <time>2014-11-23T12:38:49.000Z</time>
      </trkpt>
      <trkpt lat="43.10202" lon="3.07559">
        <ele>52.799999237061</ele>
        <time>2014-11-23T12:38:50.000Z</time>
      </trkpt>
      <trkpt lat="43.10203" lon="3.07562">
        <ele>53.200000762939</ele>
        <time>2014-11-23T12:38:51.000Z</time>
      </trkpt>
      <trkpt lat="43.10207" lon="3.07577">
        <ele>53.200000762939</ele>
        <time>2014-11-23T12:38:55.000Z</time>
      </trkpt>
      <trkpt lat="43.10215" lon="3.07602">
        <ele>53.200000762939</ele>
        <time>2014-11-23T12:39:02.000Z</time>
      </trkpt>
      <trkpt lat="43.10225" lon="3.07621">
        <ele>53.200000762939</ele>
        <time>2014-11-23T12:39:08.000Z</time>
      </trkpt>
      <trkpt lat="43.10232" lon="3.07638">
        <ele>53.200000762939</ele>
        <time>2014-11-23T12:39:13.000Z</time>
      </trkpt>
      <trkpt lat="43.10233" lon="3.07641">
        <ele>53.599998474121</ele>
        <time>2014-11-23T12:39:14.000Z</time>
      </trkpt>
      <trkpt lat="43.10235" lon="3.07644">
        <ele>54.200000762939</ele>
        <time>2014-11-23T12:39:15.000Z</time>
      </trkpt>
      <trkpt lat="43.10236" lon="3.07647">
        <ele>54.599998474121</ele>
        <time>2014-11-23T12:39:16.000Z</time>
      </trkpt>
      <trkpt lat="43.10237" lon="3.0765">
        <ele>55</ele>
        <time>2014-11-23T12:39:17.000Z</time>
      </trkpt>
      <trkpt lat="43.10239" lon="3.07653">
        <ele>55.400001525879</ele>
        <time>2014-11-23T12:39:18.000Z</time>
      </trkpt>
      <trkpt lat="43.1024" lon="3.07657">
        <ele>55.400001525879</ele>
        <time>2014-11-23T12:39:19.000Z</time>
      </trkpt>
      <trkpt lat="43.10243" lon="3.07667">
        <ele>56</ele>
        <time>2014-11-23T12:39:22.000Z</time>
      </trkpt>
      <trkpt lat="43.10244" lon="3.0767">
        <ele>56.400001525879</ele>
        <time>2014-11-23T12:39:23.000Z</time>
      </trkpt>
      <trkpt lat="43.10245" lon="3.07673">
        <ele>57.200000762939</ele>
        <time>2014-11-23T12:39:24.000Z</time>
      </trkpt>
      <trkpt lat="43.10246" lon="3.07677">
        <ele>57.599998474121</ele>
        <time>2014-11-23T12:39:25.000Z</time>
      </trkpt>
      <trkpt lat="43.10253" lon="3.07696">
        <ele>57.599998474121</ele>
        <time>2014-11-23T12:39:31.000Z</time>
      </trkpt>
      <trkpt lat="43.10261" lon="3.07717">
        <ele>57.599998474121</ele>
        <time>2014-11-23T12:39:37.000Z</time>
      </trkpt>
      <trkpt lat="43.10259" lon="3.07738">
        <ele>57.599998474121</ele>
        <time>2014-11-23T12:39:42.000Z</time>
      </trkpt>
      <trkpt lat="43.10249" lon="3.07765">
        <ele>57.599998474121</ele>
        <time>2014-11-23T12:39:50.000Z</time>
      </trkpt>
      <trkpt lat="43.10246" lon="3.07781">
        <ele>57.599998474121</ele>
        <time>2014-11-23T12:39:54.000Z</time>
      </trkpt>
      <trkpt lat="43.10247" lon="3.07785">
        <ele>57.599998474121</ele>
        <time>2014-11-23T12:39:55.000Z</time>
      </trkpt>
      <trkpt lat="43.10259" lon="3.07801">
        <ele>57.599998474121</ele>
        <time>2014-11-23T12:39:59.000Z</time>
      </trkpt>
      <trkpt lat="43.10263" lon="3.07806">
        <ele>57.599998474121</ele>
        <time>2014-11-23T12:40:00.000Z</time>
      </trkpt>
      <trkpt lat="43.10266" lon="3.07813">
        <ele>57.200000762939</ele>
        <time>2014-11-23T12:40:01.000Z</time>
      </trkpt>
      <trkpt lat="43.1027" lon="3.0782">
        <ele>56.799999237061</ele>
        <time>2014-11-23T12:40:02.000Z</time>
      </trkpt>
      <trkpt lat="43.10274" lon="3.07827">
        <ele>56.200000762939</ele>
        <time>2014-11-23T12:40:03.000Z</time>
      </trkpt>
      <trkpt lat="43.10278" lon="3.07834">
        <ele>55.799999237061</ele>
        <time>2014-11-23T12:40:04.000Z</time>
      </trkpt>
      <trkpt lat="43.10282" lon="3.0784">
        <ele>55.200000762939</ele>
        <time>2014-11-23T12:40:05.000Z</time>
      </trkpt>
      <trkpt lat="43.10285" lon="3.07845">
        <ele>54.799999237061</ele>
        <time>2014-11-23T12:40:06.000Z</time>
      </trkpt>
      <trkpt lat="43.10288" lon="3.07849">
        <ele>54.400001525879</ele>
        <time>2014-11-23T12:40:07.000Z</time>
      </trkpt>
      <trkpt lat="43.1029" lon="3.07853">
        <ele>54</ele>
        <time>2014-11-23T12:40:08.000Z</time>
      </trkpt>
      <trkpt lat="43.10292" lon="3.07855">
        <ele>53.599998474121</ele>
        <time>2014-11-23T12:40:09.000Z</time>
      </trkpt>
      <trkpt lat="43.10293" lon="3.07856">
        <ele>53.200000762939</ele>
        <time>2014-11-23T12:40:10.000Z</time>
      </trkpt>
      <trkpt lat="43.10295" lon="3.07858">
        <ele>53.599998474121</ele>
        <time>2014-11-23T12:40:11.000Z</time>
      </trkpt>
      <trkpt lat="43.10297" lon="3.07859">
        <ele>54</ele>
        <time>2014-11-23T12:40:12.000Z</time>
      </trkpt>
      <trkpt lat="43.10298" lon="3.07861">
        <ele>54.799999237061</ele>
        <time>2014-11-23T12:40:13.000Z</time>
      </trkpt>
      <trkpt lat="43.10299" lon="3.07863">
        <ele>55.200000762939</ele>
        <time>2014-11-23T12:40:14.000Z</time>
      </trkpt>
      <trkpt lat="43.103" lon="3.07864">
        <ele>55.200000762939</ele>
        <time>2014-11-23T12:40:16.000Z</time>
      </trkpt>
      <trkpt lat="43.103" lon="3.07853">
        <ele>55.200000762939</ele>
        <time>2014-11-23T12:40:34.000Z</time>
      </trkpt>
      <trkpt lat="43.10304" lon="3.0785">
        <ele>55.200000762939</ele>
        <time>2014-11-23T12:40:36.000Z</time>
      </trkpt>
      <trkpt lat="43.10315" lon="3.07841">
        <ele>55.200000762939</ele>
        <time>2014-11-23T12:40:42.000Z</time>
      </trkpt>
      <trkpt lat="43.10327" lon="3.07832">
        <ele>55.799999237061</ele>
        <time>2014-11-23T12:40:48.000Z</time>
      </trkpt>
      <trkpt lat="43.10329" lon="3.07831">
        <ele>56.200000762939</ele>
        <time>2014-11-23T12:40:49.000Z</time>
      </trkpt>
      <trkpt lat="43.10332" lon="3.07831">
        <ele>56.599998474121</ele>
        <time>2014-11-23T12:40:50.000Z</time>
      </trkpt>
      <trkpt lat="43.10334" lon="3.0783">
        <ele>57</ele>
        <time>2014-11-23T12:40:51.000Z</time>
      </trkpt>
      <trkpt lat="43.10335" lon="3.07829">
        <ele>57.400001525879</ele>
        <time>2014-11-23T12:40:52.000Z</time>
      </trkpt>
      <trkpt lat="43.10337" lon="3.07829">
        <ele>57.400001525879</ele>
        <time>2014-11-23T12:40:53.000Z</time>
      </trkpt>
      <trkpt lat="43.10345" lon="3.07825">
        <ele>57.400001525879</ele>
        <time>2014-11-23T12:40:57.000Z</time>
      </trkpt>
      <trkpt lat="43.10348" lon="3.07823">
        <ele>57.400001525879</ele>
        <time>2014-11-23T12:40:58.000Z</time>
      </trkpt>
      <trkpt lat="43.10364" lon="3.07821">
        <ele>57.400001525879</ele>
        <time>2014-11-23T12:41:04.000Z</time>
      </trkpt>
      <trkpt lat="43.10366" lon="3.07821">
        <ele>57.400001525879</ele>
        <time>2014-11-23T12:41:05.000Z</time>
      </trkpt>
      <trkpt lat="43.10381" lon="3.07822">
        <ele>57.400001525879</ele>
        <time>2014-11-23T12:41:10.000Z</time>
      </trkpt>
      <trkpt lat="43.10399" lon="3.0782">
        <ele>57.400001525879</ele>
        <time>2014-11-23T12:41:16.000Z</time>
      </trkpt>
      <trkpt lat="43.10401" lon="3.07819">
        <ele>57.400001525879</ele>
        <time>2014-11-23T12:41:17.000Z</time>
      </trkpt>
      <trkpt lat="43.10406" lon="3.07815">
        <ele>57.400001525879</ele>
        <time>2014-11-23T12:41:20.000Z</time>
      </trkpt>
      <trkpt lat="43.1041" lon="3.07815">
        <ele>57.400001525879</ele>
        <time>2014-11-23T12:41:24.000Z</time>
      </trkpt>
      <trkpt lat="43.10418" lon="3.0782">
        <ele>57.400001525879</ele>
        <time>2014-11-23T12:41:28.000Z</time>
      </trkpt>
      <trkpt lat="43.10424" lon="3.07821">
        <ele>57.799999237061</ele>
        <time>2014-11-23T12:41:31.000Z</time>
      </trkpt>
      <trkpt lat="43.10427" lon="3.07821">
        <ele>58.200000762939</ele>
        <time>2014-11-23T12:41:32.000Z</time>
      </trkpt>
      <trkpt lat="43.10429" lon="3.07822">
        <ele>58.599998474121</ele>
        <time>2014-11-23T12:41:33.000Z</time>
      </trkpt>
      <trkpt lat="43.10431" lon="3.07823">
        <ele>59</ele>
        <time>2014-11-23T12:41:34.000Z</time>
      </trkpt>
      <trkpt lat="43.10433" lon="3.07824">
        <ele>59.400001525879</ele>
        <time>2014-11-23T12:41:35.000Z</time>
      </trkpt>
      <trkpt lat="43.10435" lon="3.07825">
        <ele>59.400001525879</ele>
        <time>2014-11-23T12:41:36.000Z</time>
      </trkpt>
      <trkpt lat="43.10436" lon="3.07825">
        <ele>59.400001525879</ele>
        <time>2014-11-23T12:41:37.000Z</time>
      </trkpt>
      <trkpt lat="43.10448" lon="3.07823">
        <ele>59.400001525879</ele>
        <time>2014-11-23T12:41:42.000Z</time>
      </trkpt>
      <trkpt lat="43.10456" lon="3.07822">
        <ele>59.400001525879</ele>
        <time>2014-11-23T12:41:45.000Z</time>
      </trkpt>
      <trkpt lat="43.10463" lon="3.07822">
        <ele>59.400001525879</ele>
        <time>2014-11-23T12:41:48.000Z</time>
      </trkpt>
      <trkpt lat="43.10474" lon="3.07827">
        <ele>59.400001525879</ele>
        <time>2014-11-23T12:41:52.000Z</time>
      </trkpt>
      <trkpt lat="43.10488" lon="3.07838">
        <ele>59.400001525879</ele>
        <time>2014-11-23T12:41:58.000Z</time>
      </trkpt>
      <trkpt lat="43.10491" lon="3.07844">
        <ele>59.400001525879</ele>
        <time>2014-11-23T12:42:01.000Z</time>
      </trkpt>
      <trkpt lat="43.10491" lon="3.07846">
        <ele>59.400001525879</ele>
        <time>2014-11-23T12:42:02.000Z</time>
      </trkpt>
      <trkpt lat="43.10492" lon="3.07858">
        <ele>59.400001525879</ele>
        <time>2014-11-23T12:42:07.000Z</time>
      </trkpt>
      <trkpt lat="43.10492" lon="3.07864">
        <ele>59.400001525879</ele>
        <time>2014-11-23T12:42:10.000Z</time>
      </trkpt>
      <trkpt lat="43.10492" lon="3.07868">
        <ele>59.400001525879</ele>
        <time>2014-11-23T12:44:16.000Z</time>
      </trkpt>
      <trkpt lat="43.10487" lon="3.07882">
        <ele>59.400001525879</ele>
        <time>2014-11-23T12:44:20.000Z</time>
      </trkpt>
      <trkpt lat="43.10478" lon="3.07897">
        <ele>59.400001525879</ele>
        <time>2014-11-23T12:44:24.000Z</time>
      </trkpt>
      <trkpt lat="43.10469" lon="3.07907">
        <ele>59.400001525879</ele>
        <time>2014-11-23T12:44:28.000Z</time>
      </trkpt>
      <trkpt lat="43.1046" lon="3.07919">
        <ele>59.400001525879</ele>
        <time>2014-11-23T12:44:32.000Z</time>
      </trkpt>
      <trkpt lat="43.10451" lon="3.07927">
        <ele>59.400001525879</ele>
        <time>2014-11-23T12:44:37.000Z</time>
      </trkpt>
      <trkpt lat="43.10439" lon="3.07939">
        <ele>59.799999237061</ele>
        <time>2014-11-23T12:44:43.000Z</time>
      </trkpt>
      <trkpt lat="43.10438" lon="3.07942">
        <ele>60.200000762939</ele>
        <time>2014-11-23T12:44:44.000Z</time>
      </trkpt>
      <trkpt lat="43.10436" lon="3.07944">
        <ele>61</ele>
        <time>2014-11-23T12:44:45.000Z</time>
      </trkpt>
      <trkpt lat="43.10434" lon="3.07946">
        <ele>61.400001525879</ele>
        <time>2014-11-23T12:44:46.000Z</time>
      </trkpt>
      <trkpt lat="43.1043" lon="3.07951">
        <ele>61.400001525879</ele>
        <time>2014-11-23T12:44:48.000Z</time>
      </trkpt>
      <trkpt lat="43.10429" lon="3.07953">
        <ele>61.400001525879</ele>
        <time>2014-11-23T12:44:49.000Z</time>
      </trkpt>
      <trkpt lat="43.10426" lon="3.07958">
        <ele>61.400001525879</ele>
        <time>2014-11-23T12:44:53.000Z</time>
      </trkpt>
      <trkpt lat="43.10424" lon="3.07959">
        <ele>61.400001525879</ele>
        <time>2014-11-23T12:45:17.000Z</time>
      </trkpt>
      <trkpt lat="43.10419" lon="3.07964">
        <ele>61.400001525879</ele>
        <time>2014-11-23T12:45:20.000Z</time>
      </trkpt>
      <trkpt lat="43.10406" lon="3.07981">
        <ele>61.400001525879</ele>
        <time>2014-11-23T12:45:26.000Z</time>
      </trkpt>
      <trkpt lat="43.10396" lon="3.07993">
        <ele>61.400001525879</ele>
        <time>2014-11-23T12:45:31.000Z</time>
      </trkpt>
      <trkpt lat="43.10382" lon="3.08007">
        <ele>61.400001525879</ele>
        <time>2014-11-23T12:45:37.000Z</time>
      </trkpt>
      <trkpt lat="43.10378" lon="3.08013">
        <ele>61</ele>
        <time>2014-11-23T12:45:39.000Z</time>
      </trkpt>
      <trkpt lat="43.10377" lon="3.08016">
        <ele>60.599998474121</ele>
        <time>2014-11-23T12:45:40.000Z</time>
      </trkpt>
      <trkpt lat="43.10376" lon="3.08018">
        <ele>60.200000762939</ele>
        <time>2014-11-23T12:45:41.000Z</time>
      </trkpt>
      <trkpt lat="43.10376" lon="3.08018">
        <ele>59.799999237061</ele>
        <time>2014-11-23T12:45:42.000Z</time>
      </trkpt>
      <trkpt lat="43.10376" lon="3.08021">
        <ele>59.400001525879</ele>
        <time>2014-11-23T12:45:47.000Z</time>
      </trkpt>
      <trkpt lat="43.10375" lon="3.08024">
        <ele>59.400001525879</ele>
        <time>2014-11-23T12:45:48.000Z</time>
      </trkpt>
      <trkpt lat="43.10374" lon="3.08027">
        <ele>59.400001525879</ele>
        <time>2014-11-23T12:45:49.000Z</time>
      </trkpt>
      <trkpt lat="43.10371" lon="3.08033">
        <ele>59</ele>
        <time>2014-11-23T12:45:51.000Z</time>
      </trkpt>
      <trkpt lat="43.1037" lon="3.08036">
        <ele>58.599998474121</ele>
        <time>2014-11-23T12:45:52.000Z</time>
      </trkpt>
      <trkpt lat="43.1037" lon="3.08039">
        <ele>58.200000762939</ele>
        <time>2014-11-23T12:45:53.000Z</time>
      </trkpt>
      <trkpt lat="43.10369" lon="3.08041">
        <ele>57.799999237061</ele>
        <time>2014-11-23T12:45:54.000Z</time>
      </trkpt>
      <trkpt lat="43.10368" lon="3.08044">
        <ele>57.400001525879</ele>
        <time>2014-11-23T12:45:55.000Z</time>
      </trkpt>
      <trkpt lat="43.10367" lon="3.08046">
        <ele>57.400001525879</ele>
        <time>2014-11-23T12:45:56.000Z</time>
      </trkpt>
      <trkpt lat="43.10367" lon="3.08048">
        <ele>56.799999237061</ele>
        <time>2014-11-23T12:45:57.000Z</time>
      </trkpt>
      <trkpt lat="43.10366" lon="3.08051">
        <ele>56.400001525879</ele>
        <time>2014-11-23T12:45:58.000Z</time>
      </trkpt>
      <trkpt lat="43.10366" lon="3.08053">
        <ele>55.599998474121</ele>
        <time>2014-11-23T12:45:59.000Z</time>
      </trkpt>
      <trkpt lat="43.10366" lon="3.08054">
        <ele>55.200000762939</ele>
        <time>2014-11-23T12:46:00.000Z</time>
      </trkpt>
      <trkpt lat="43.10366" lon="3.08059">
        <ele>54.799999237061</ele>
        <time>2014-11-23T12:46:02.000Z</time>
      </trkpt>
      <trkpt lat="43.10365" lon="3.08061">
        <ele>54.400001525879</ele>
        <time>2014-11-23T12:46:03.000Z</time>
      </trkpt>
      <trkpt lat="43.10365" lon="3.08063">
        <ele>54</ele>
        <time>2014-11-23T12:46:04.000Z</time>
      </trkpt>
      <trkpt lat="43.10364" lon="3.08065">
        <ele>53.599998474121</ele>
        <time>2014-11-23T12:46:05.000Z</time>
      </trkpt>
      <trkpt lat="43.10364" lon="3.08067">
        <ele>53.200000762939</ele>
        <time>2014-11-23T12:46:06.000Z</time>
      </trkpt>
      <trkpt lat="43.10363" lon="3.0807">
        <ele>52.799999237061</ele>
        <time>2014-11-23T12:46:07.000Z</time>
      </trkpt>
      <trkpt lat="43.10362" lon="3.08072">
        <ele>52.200000762939</ele>
        <time>2014-11-23T12:46:08.000Z</time>
      </trkpt>
      <trkpt lat="43.10362" lon="3.08074">
        <ele>51.799999237061</ele>
        <time>2014-11-23T12:46:09.000Z</time>
      </trkpt>
      <trkpt lat="43.10361" lon="3.08076">
        <ele>51.400001525879</ele>
        <time>2014-11-23T12:46:10.000Z</time>
      </trkpt>
      <trkpt lat="43.10361" lon="3.08078">
        <ele>50.799999237061</ele>
        <time>2014-11-23T12:46:11.000Z</time>
      </trkpt>
      <trkpt lat="43.10361" lon="3.0808">
        <ele>50.799999237061</ele>
        <time>2014-11-23T12:46:12.000Z</time>
      </trkpt>
      <trkpt lat="43.10361" lon="3.08082">
        <ele>50.400001525879</ele>
        <time>2014-11-23T12:46:13.000Z</time>
      </trkpt>
      <trkpt lat="43.10361" lon="3.08083">
        <ele>49.799999237061</ele>
        <time>2014-11-23T12:46:14.000Z</time>
      </trkpt>
      <trkpt lat="43.10361" lon="3.08082">
        <ele>48.400001525879</ele>
        <time>2014-11-23T12:46:45.000Z</time>
      </trkpt>
      <trkpt lat="43.10362" lon="3.08085">
        <ele>48.400001525879</ele>
        <time>2014-11-23T12:46:48.000Z</time>
      </trkpt>
      <trkpt lat="43.10362" lon="3.08088">
        <ele>48</ele>
        <time>2014-11-23T12:46:50.000Z</time>
      </trkpt>
      <trkpt lat="43.10362" lon="3.08089">
        <ele>47.599998474121</ele>
        <time>2014-11-23T12:46:51.000Z</time>
      </trkpt>
      <trkpt lat="43.10362" lon="3.0809">
        <ele>47.200000762939</ele>
        <time>2014-11-23T12:46:52.000Z</time>
      </trkpt>
      <trkpt lat="43.10359" lon="3.08097">
        <ele>44.200000762939</ele>
        <time>2014-11-23T12:47:06.000Z</time>
      </trkpt>
      <trkpt lat="43.10349" lon="3.08103">
        <ele>44.200000762939</ele>
        <time>2014-11-23T12:47:10.000Z</time>
      </trkpt>
      <trkpt lat="43.10346" lon="3.08104">
        <ele>44.200000762939</ele>
        <time>2014-11-23T12:47:11.000Z</time>
      </trkpt>
      <trkpt lat="43.10341" lon="3.08107">
        <ele>43.400001525879</ele>
        <time>2014-11-23T12:47:13.000Z</time>
      </trkpt>
      <trkpt lat="43.10339" lon="3.08109">
        <ele>43</ele>
        <time>2014-11-23T12:47:14.000Z</time>
      </trkpt>
      <trkpt lat="43.10337" lon="3.08111">
        <ele>42.599998474121</ele>
        <time>2014-11-23T12:47:15.000Z</time>
      </trkpt>
      <trkpt lat="43.10336" lon="3.08114">
        <ele>42.200000762939</ele>
        <time>2014-11-23T12:47:16.000Z</time>
      </trkpt>
      <trkpt lat="43.10329" lon="3.08124">
        <ele>41.799999237061</ele>
        <time>2014-11-23T12:47:20.000Z</time>
      </trkpt>
      <trkpt lat="43.10328" lon="3.08126">
        <ele>41.400001525879</ele>
        <time>2014-11-23T12:47:21.000Z</time>
      </trkpt>
      <trkpt lat="43.10326" lon="3.08128">
        <ele>41</ele>
        <time>2014-11-23T12:47:22.000Z</time>
      </trkpt>
      <trkpt lat="43.10325" lon="3.0813">
        <ele>40.599998474121</ele>
        <time>2014-11-23T12:47:23.000Z</time>
      </trkpt>
      <trkpt lat="43.10323" lon="3.0813">
        <ele>40.200000762939</ele>
        <time>2014-11-23T12:47:24.000Z</time>
      </trkpt>
      <trkpt lat="43.1032" lon="3.08131">
        <ele>40.200000762939</ele>
        <time>2014-11-23T12:47:26.000Z</time>
      </trkpt>
      <trkpt lat="43.10315" lon="3.08131">
        <ele>40.200000762939</ele>
        <time>2014-11-23T12:47:28.000Z</time>
      </trkpt>
      <trkpt lat="43.10309" lon="3.08132">
        <ele>40.200000762939</ele>
        <time>2014-11-23T12:47:31.000Z</time>
      </trkpt>
      <trkpt lat="43.10302" lon="3.08139">
        <ele>40.200000762939</ele>
        <time>2014-11-23T12:47:36.000Z</time>
      </trkpt>
      <trkpt lat="43.10292" lon="3.08145">
        <ele>40.200000762939</ele>
        <time>2014-11-23T12:47:41.000Z</time>
      </trkpt>
      <trkpt lat="43.10289" lon="3.08148">
        <ele>39.799999237061</ele>
        <time>2014-11-23T12:47:44.000Z</time>
      </trkpt>
      <trkpt lat="43.10294" lon="3.08143">
        <ele>38</ele>
        <time>2014-11-23T12:47:52.000Z</time>
      </trkpt>
      <trkpt lat="43.10303" lon="3.08136">
        <ele>38</ele>
        <time>2014-11-23T12:47:58.000Z</time>
      </trkpt>
      <trkpt lat="43.10311" lon="3.08133">
        <ele>38</ele>
        <time>2014-11-23T12:48:03.000Z</time>
      </trkpt>
      <trkpt lat="43.10315" lon="3.08133">
        <ele>38</ele>
        <time>2014-11-23T12:48:07.000Z</time>
      </trkpt>
      <trkpt lat="43.10321" lon="3.08122">
        <ele>40.200000762939</ele>
        <time>2014-11-23T12:48:29.000Z</time>
      </trkpt>
      <trkpt lat="43.10326" lon="3.08117">
        <ele>40.200000762939</ele>
        <time>2014-11-23T12:48:34.000Z</time>
      </trkpt>
      <trkpt lat="43.1035" lon="3.0811">
        <ele>42.200000762939</ele>
        <time>2014-11-23T12:49:20.000Z</time>
      </trkpt>
      <trkpt lat="43.10349" lon="3.08112">
        <ele>41.799999237061</ele>
        <time>2014-11-23T12:49:21.000Z</time>
      </trkpt>
      <trkpt lat="43.10348" lon="3.08114">
        <ele>41.400001525879</ele>
        <time>2014-11-23T12:49:22.000Z</time>
      </trkpt>
      <trkpt lat="43.10347" lon="3.08116">
        <ele>41</ele>
        <time>2014-11-23T12:49:23.000Z</time>
      </trkpt>
      <trkpt lat="43.10346" lon="3.08117">
        <ele>40.400001525879</ele>
        <time>2014-11-23T12:49:24.000Z</time>
      </trkpt>
      <trkpt lat="43.10346" lon="3.08119">
        <ele>40</ele>
        <time>2014-11-23T12:49:25.000Z</time>
      </trkpt>
      <trkpt lat="43.10346" lon="3.08123">
        <ele>39.599998474121</ele>
        <time>2014-11-23T12:49:27.000Z</time>
      </trkpt>
      <trkpt lat="43.10346" lon="3.08125">
        <ele>39.200000762939</ele>
        <time>2014-11-23T12:49:28.000Z</time>
      </trkpt>
      <trkpt lat="43.10345" lon="3.08127">
        <ele>38.799999237061</ele>
        <time>2014-11-23T12:49:29.000Z</time>
      </trkpt>
      <trkpt lat="43.10344" lon="3.08128">
        <ele>38.400001525879</ele>
        <time>2014-11-23T12:49:30.000Z</time>
      </trkpt>
      <trkpt lat="43.10343" lon="3.08131">
        <ele>37.799999237061</ele>
        <time>2014-11-23T12:49:31.000Z</time>
      </trkpt>
      <trkpt lat="43.10341" lon="3.08134">
        <ele>37.200000762939</ele>
        <time>2014-11-23T12:49:32.000Z</time>
      </trkpt>
      <trkpt lat="43.10341" lon="3.08137">
        <ele>36.799999237061</ele>
        <time>2014-11-23T12:49:33.000Z</time>
      </trkpt>
      <trkpt lat="43.1034" lon="3.0814">
        <ele>36</ele>
        <time>2014-11-23T12:49:34.000Z</time>
      </trkpt>
      <trkpt lat="43.10339" lon="3.08144">
        <ele>35.400001525879</ele>
        <time>2014-11-23T12:49:35.000Z</time>
      </trkpt>
      <trkpt lat="43.10338" lon="3.08146">
        <ele>34.799999237061</ele>
        <time>2014-11-23T12:49:36.000Z</time>
      </trkpt>
      <trkpt lat="43.10336" lon="3.0815">
        <ele>34</ele>
        <time>2014-11-23T12:49:37.000Z</time>
      </trkpt>
      <trkpt lat="43.10334" lon="3.08154">
        <ele>33.400001525879</ele>
        <time>2014-11-23T12:49:38.000Z</time>
      </trkpt>
      <trkpt lat="43.10332" lon="3.08159">
        <ele>33</ele>
        <time>2014-11-23T12:49:39.000Z</time>
      </trkpt>
      <trkpt lat="43.1033" lon="3.08163">
        <ele>32.400001525879</ele>
        <time>2014-11-23T12:49:40.000Z</time>
      </trkpt>
      <trkpt lat="43.10329" lon="3.08166">
        <ele>32</ele>
        <time>2014-11-23T12:49:41.000Z</time>
      </trkpt>
      <trkpt lat="43.10328" lon="3.08168">
        <ele>31</ele>
        <time>2014-11-23T12:49:42.000Z</time>
      </trkpt>
      <trkpt lat="43.10327" lon="3.0817">
        <ele>30.39999961853</ele>
        <time>2014-11-23T12:49:43.000Z</time>
      </trkpt>
      <trkpt lat="43.10326" lon="3.08172">
        <ele>29.799999237061</ele>
        <time>2014-11-23T12:49:44.000Z</time>
      </trkpt>
      <trkpt lat="43.10325" lon="3.08174">
        <ele>29.200000762939</ele>
        <time>2014-11-23T12:49:45.000Z</time>
      </trkpt>
      <trkpt lat="43.10325" lon="3.08177">
        <ele>28.799999237061</ele>
        <time>2014-11-23T12:49:46.000Z</time>
      </trkpt>
      <trkpt lat="43.10325" lon="3.08179">
        <ele>28.200000762939</ele>
        <time>2014-11-23T12:49:47.000Z</time>
      </trkpt>
      <trkpt lat="43.10326" lon="3.08181">
        <ele>27.799999237061</ele>
        <time>2014-11-23T12:49:48.000Z</time>
      </trkpt>
      <trkpt lat="43.10326" lon="3.08182">
        <ele>27.39999961853</ele>
        <time>2014-11-23T12:49:49.000Z</time>
      </trkpt>
      <trkpt lat="43.10327" lon="3.08184">
        <ele>27</ele>
        <time>2014-11-23T12:49:50.000Z</time>
      </trkpt>
      <trkpt lat="43.10328" lon="3.08185">
        <ele>26.39999961853</ele>
        <time>2014-11-23T12:49:51.000Z</time>
      </trkpt>
      <trkpt lat="43.10328" lon="3.08188">
        <ele>25.799999237061</ele>
        <time>2014-11-23T12:49:52.000Z</time>
      </trkpt>
      <trkpt lat="43.10328" lon="3.08191">
        <ele>25.39999961853</ele>
        <time>2014-11-23T12:49:53.000Z</time>
      </trkpt>
      <trkpt lat="43.10329" lon="3.08195">
        <ele>24.799999237061</ele>
        <time>2014-11-23T12:49:54.000Z</time>
      </trkpt>
      <trkpt lat="43.10329" lon="3.08198">
        <ele>24.200000762939</ele>
        <time>2014-11-23T12:49:55.000Z</time>
      </trkpt>
      <trkpt lat="43.1033" lon="3.08201">
        <ele>23.60000038147</ele>
        <time>2014-11-23T12:49:56.000Z</time>
      </trkpt>
      <trkpt lat="43.1033" lon="3.08203">
        <ele>23</ele>
        <time>2014-11-23T12:49:57.000Z</time>
      </trkpt>
      <trkpt lat="43.10333" lon="3.08206">
        <ele>22.39999961853</ele>
        <time>2014-11-23T12:49:58.000Z</time>
      </trkpt>
      <trkpt lat="43.10335" lon="3.08207">
        <ele>21.60000038147</ele>
        <time>2014-11-23T12:49:59.000Z</time>
      </trkpt>
      <trkpt lat="43.10337" lon="3.08208">
        <ele>21</ele>
        <time>2014-11-23T12:50:00.000Z</time>
      </trkpt>
      <trkpt lat="43.10339" lon="3.08211">
        <ele>20.200000762939</ele>
        <time>2014-11-23T12:50:01.000Z</time>
      </trkpt>
      <trkpt lat="43.1034" lon="3.08215">
        <ele>19.60000038147</ele>
        <time>2014-11-23T12:50:02.000Z</time>
      </trkpt>
      <trkpt lat="43.10341" lon="3.08218">
        <ele>18.799999237061</ele>
        <time>2014-11-23T12:50:03.000Z</time>
      </trkpt>
      <trkpt lat="43.10343" lon="3.08221">
        <ele>18.200000762939</ele>
        <time>2014-11-23T12:50:04.000Z</time>
      </trkpt>
      <trkpt lat="43.10344" lon="3.08225">
        <ele>17.60000038147</ele>
        <time>2014-11-23T12:50:05.000Z</time>
      </trkpt>
      <trkpt lat="43.10345" lon="3.08229">
        <ele>16.60000038147</ele>
        <time>2014-11-23T12:50:06.000Z</time>
      </trkpt>
      <trkpt lat="43.10346" lon="3.08234">
        <ele>16</ele>
        <time>2014-11-23T12:50:07.000Z</time>
      </trkpt>
      <trkpt lat="43.10347" lon="3.0824">
        <ele>15.39999961853</ele>
        <time>2014-11-23T12:50:08.000Z</time>
      </trkpt>
      <trkpt lat="43.10346" lon="3.08246">
        <ele>15</ele>
        <time>2014-11-23T12:50:09.000Z</time>
      </trkpt>
      <trkpt lat="43.10345" lon="3.08252">
        <ele>14.60000038147</ele>
        <time>2014-11-23T12:50:10.000Z</time>
      </trkpt>
      <trkpt lat="43.10345" lon="3.08256">
        <ele>14</ele>
        <time>2014-11-23T12:50:11.000Z</time>
      </trkpt>
      <trkpt lat="43.10345" lon="3.08261">
        <ele>13.60000038147</ele>
        <time>2014-11-23T12:50:12.000Z</time>
      </trkpt>
      <trkpt lat="43.10345" lon="3.08265">
        <ele>13.199999809265</ele>
        <time>2014-11-23T12:50:13.000Z</time>
      </trkpt>
      <trkpt lat="43.10345" lon="3.08268">
        <ele>12.60000038147</ele>
        <time>2014-11-23T12:50:14.000Z</time>
      </trkpt>
      <trkpt lat="43.10344" lon="3.08272">
        <ele>12.199999809265</ele>
        <time>2014-11-23T12:50:15.000Z</time>
      </trkpt>
      <trkpt lat="43.10344" lon="3.08276">
        <ele>11.800000190735</ele>
        <time>2014-11-23T12:50:16.000Z</time>
      </trkpt>
      <trkpt lat="43.10344" lon="3.08279">
        <ele>11.39999961853</ele>
        <time>2014-11-23T12:50:17.000Z</time>
      </trkpt>
      <trkpt lat="43.10344" lon="3.08282">
        <ele>11</ele>
        <time>2014-11-23T12:50:18.000Z</time>
      </trkpt>
      <trkpt lat="43.10344" lon="3.08285">
        <ele>11</ele>
        <time>2014-11-23T12:50:19.000Z</time>
      </trkpt>
      <trkpt lat="43.10344" lon="3.08286">
        <ele>11</ele>
        <time>2014-11-23T12:50:20.000Z</time>
      </trkpt>
      <trkpt lat="43.10344" lon="3.08293">
        <ele>9</ele>
        <time>2014-11-23T12:55:06.000Z</time>
      </trkpt>
      <trkpt lat="43.10344" lon="3.08296">
        <ele>9</ele>
        <time>2014-11-23T12:55:07.000Z</time>
      </trkpt>
      <trkpt lat="43.10341" lon="3.0832">
        <ele>8.3999996185303</ele>
        <time>2014-11-23T12:55:12.000Z</time>
      </trkpt>
      <trkpt lat="43.1034" lon="3.08326">
        <ele>7.8000001907349</ele>
        <time>2014-11-23T12:55:13.000Z</time>
      </trkpt>
      <trkpt lat="43.10339" lon="3.08332">
        <ele>7.1999998092651</ele>
        <time>2014-11-23T12:55:14.000Z</time>
      </trkpt>
      <trkpt lat="43.10337" lon="3.08338">
        <ele>6.5999999046326</ele>
        <time>2014-11-23T12:55:15.000Z</time>
      </trkpt>
      <trkpt lat="43.10336" lon="3.08344">
        <ele>5.8000001907349</ele>
        <time>2014-11-23T12:55:16.000Z</time>
      </trkpt>
      <trkpt lat="43.10334" lon="3.08348">
        <ele>5.1999998092651</ele>
        <time>2014-11-23T12:55:17.000Z</time>
      </trkpt>
      <trkpt lat="43.10331" lon="3.08353">
        <ele>4.5999999046326</ele>
        <time>2014-11-23T12:55:18.000Z</time>
      </trkpt>
      <trkpt lat="43.10329" lon="3.08358">
        <ele>4</ele>
        <time>2014-11-23T12:55:19.000Z</time>
      </trkpt>
      <trkpt lat="43.10321" lon="3.08375">
        <ele>4</ele>
        <time>2014-11-23T12:55:23.000Z</time>
      </trkpt>
      <trkpt lat="43.10318" lon="3.08382">
        <ele>3.5999999046326</ele>
        <time>2014-11-23T12:55:25.000Z</time>
      </trkpt>
      <trkpt lat="43.10317" lon="3.08386">
        <ele>3.2000000476837</ele>
        <time>2014-11-23T12:55:26.000Z</time>
      </trkpt>
      <trkpt lat="43.10316" lon="3.08388">
        <ele>2.5999999046326</ele>
        <time>2014-11-23T12:55:27.000Z</time>
      </trkpt>
      <trkpt lat="43.10316" lon="3.08392">
        <ele>1.7999999523163</ele>
        <time>2014-11-23T12:55:28.000Z</time>
      </trkpt>
      <trkpt lat="43.10317" lon="3.08395">
        <ele>1.3999999761581</ele>
        <time>2014-11-23T12:55:29.000Z</time>
      </trkpt>
      <trkpt lat="43.10319" lon="3.08398">
        <ele>1</ele>
        <time>2014-11-23T12:55:30.000Z</time>
      </trkpt>
      <trkpt lat="43.10321" lon="3.08401">
        <ele>0.60000002384186</ele>
        <time>2014-11-23T12:55:31.000Z</time>
      </trkpt>
      <trkpt lat="43.10323" lon="3.08405">
        <ele>0.20000000298023</ele>
        <time>2014-11-23T12:55:32.000Z</time>
      </trkpt>
      <trkpt lat="43.10326" lon="3.08408">
        <ele>-0.20000000298023</ele>
        <time>2014-11-23T12:55:33.000Z</time>
      </trkpt>
      <trkpt lat="43.10332" lon="3.08416">
        <ele>-0.20000000298023</ele>
        <time>2014-11-23T12:55:36.000Z</time>
      </trkpt>
      <trkpt lat="43.10333" lon="3.08416">
        <ele>-0.60000002384186</ele>
        <time>2014-11-23T12:55:37.000Z</time>
      </trkpt>
      <trkpt lat="43.10333" lon="3.08416">
        <ele>-1.2000000476837</ele>
        <time>2014-11-23T12:55:38.000Z</time>
      </trkpt>
      <trkpt lat="43.10333" lon="3.08416">
        <ele>-1.6000000238419</ele>
        <time>2014-11-23T12:55:39.000Z</time>
      </trkpt>
      <trkpt lat="43.10335" lon="3.08417">
        <ele>-2.4000000953674</ele>
        <time>2014-11-23T12:55:50.000Z</time>
      </trkpt>
      <trkpt lat="43.10339" lon="3.08417">
        <ele>-2.4000000953674</ele>
        <time>2014-11-23T12:55:52.000Z</time>
      </trkpt>
      <trkpt lat="43.10349" lon="3.08406">
        <ele>-2.4000000953674</ele>
        <time>2014-11-23T12:55:56.000Z</time>
      </trkpt>
      <trkpt lat="43.10365" lon="3.08383">
        <ele>-2.4000000953674</ele>
        <time>2014-11-23T12:56:02.000Z</time>
      </trkpt>
      <trkpt lat="43.10369" lon="3.08381">
        <ele>-2.4000000953674</ele>
        <time>2014-11-23T12:56:03.000Z</time>
      </trkpt>
      <trkpt lat="43.10377" lon="3.08384">
        <ele>-2.4000000953674</ele>
        <time>2014-11-23T12:56:05.000Z</time>
      </trkpt>
      <trkpt lat="43.10401" lon="3.08398">
        <ele>-2.4000000953674</ele>
        <time>2014-11-23T12:56:12.000Z</time>
      </trkpt>
      <trkpt lat="43.10425" lon="3.08411">
        <ele>-2.4000000953674</ele>
        <time>2014-11-23T12:56:19.000Z</time>
      </trkpt>
      <trkpt lat="43.10447" lon="3.08422">
        <ele>-2.4000000953674</ele>
        <time>2014-11-23T12:56:25.000Z</time>
      </trkpt>
      <trkpt lat="43.10451" lon="3.08424">
        <ele>-2.4000000953674</ele>
        <time>2014-11-23T12:56:26.000Z</time>
      </trkpt>
      <trkpt lat="43.10476" lon="3.08436">
        <ele>-2.4000000953674</ele>
        <time>2014-11-23T12:56:33.000Z</time>
      </trkpt>
      <trkpt lat="43.10498" lon="3.08444">
        <ele>-2.4000000953674</ele>
        <time>2014-11-23T12:56:40.000Z</time>
      </trkpt>
      <trkpt lat="43.10509" lon="3.08441">
        <ele>-2.4000000953674</ele>
        <time>2014-11-23T12:56:45.000Z</time>
      </trkpt>
      <trkpt lat="43.10513" lon="3.08435">
        <ele>-2.4000000953674</ele>
        <time>2014-11-23T12:56:49.000Z</time>
      </trkpt>
      <trkpt lat="43.10519" lon="3.08431">
        <ele>-2.4000000953674</ele>
        <time>2014-11-23T12:56:55.000Z</time>
      </trkpt>
      <trkpt lat="43.10525" lon="3.08426">
        <ele>-2.4000000953674</ele>
        <time>2014-11-23T12:56:58.000Z</time>
      </trkpt>
      <trkpt lat="43.1054" lon="3.08415">
        <ele>-2.4000000953674</ele>
        <time>2014-11-23T12:57:03.000Z</time>
      </trkpt>
      <trkpt lat="43.10543" lon="3.08411">
        <ele>-2.4000000953674</ele>
        <time>2014-11-23T12:57:04.000Z</time>
      </trkpt>
      <trkpt lat="43.10558" lon="3.08394">
        <ele>-2.4000000953674</ele>
        <time>2014-11-23T12:57:09.000Z</time>
      </trkpt>
      <trkpt lat="43.10582" lon="3.08364">
        <ele>-2.4000000953674</ele>
        <time>2014-11-23T12:57:17.000Z</time>
      </trkpt>
      <trkpt lat="43.10596" lon="3.08351">
        <ele>-2.4000000953674</ele>
        <time>2014-11-23T12:57:21.000Z</time>
      </trkpt>
      <trkpt lat="43.10604" lon="3.08349">
        <ele>-2.4000000953674</ele>
        <time>2014-11-23T12:57:23.000Z</time>
      </trkpt>
      <trkpt lat="43.10627" lon="3.08343">
        <ele>-2.4000000953674</ele>
        <time>2014-11-23T12:57:29.000Z</time>
      </trkpt>
      <trkpt lat="43.10638" lon="3.08332">
        <ele>-2.4000000953674</ele>
        <time>2014-11-23T12:57:32.000Z</time>
      </trkpt>
      <trkpt lat="43.10649" lon="3.08321">
        <ele>-2.4000000953674</ele>
        <time>2014-11-23T12:57:35.000Z</time>
      </trkpt>
      <trkpt lat="43.1068" lon="3.08291">
        <ele>-2.4000000953674</ele>
        <time>2014-11-23T12:57:43.000Z</time>
      </trkpt>
      <trkpt lat="43.10685" lon="3.08289">
        <ele>-2.4000000953674</ele>
        <time>2014-11-23T12:57:44.000Z</time>
      </trkpt>
      <trkpt lat="43.10699" lon="3.08287">
        <ele>-2.4000000953674</ele>
        <time>2014-11-23T12:57:47.000Z</time>
      </trkpt>
      <trkpt lat="43.10734" lon="3.0828">
        <ele>-2.4000000953674</ele>
        <time>2014-11-23T12:57:55.000Z</time>
      </trkpt>
      <trkpt lat="43.10749" lon="3.08286">
        <ele>-2.4000000953674</ele>
        <time>2014-11-23T12:57:59.000Z</time>
      </trkpt>
      <trkpt lat="43.10762" lon="3.08297">
        <ele>-2.4000000953674</ele>
        <time>2014-11-23T12:58:03.000Z</time>
      </trkpt>
      <trkpt lat="43.10788" lon="3.08302">
        <ele>-2.4000000953674</ele>
        <time>2014-11-23T12:58:09.000Z</time>
      </trkpt>
      <trkpt lat="43.10804" lon="3.08304">
        <ele>-2.4000000953674</ele>
        <time>2014-11-23T12:58:13.000Z</time>
      </trkpt>
      <trkpt lat="43.10813" lon="3.08307">
        <ele>-2.4000000953674</ele>
        <time>2014-11-23T12:58:15.000Z</time>
      </trkpt>
      <trkpt lat="43.10817" lon="3.0831">
        <ele>-2.4000000953674</ele>
        <time>2014-11-23T12:58:16.000Z</time>
      </trkpt>
      <trkpt lat="43.10828" lon="3.0832">
        <ele>-2.4000000953674</ele>
        <time>2014-11-23T12:58:19.000Z</time>
      </trkpt>
      <trkpt lat="43.10841" lon="3.08335">
        <ele>-2.4000000953674</ele>
        <time>2014-11-23T12:58:23.000Z</time>
      </trkpt>
      <trkpt lat="43.10862" lon="3.08372">
        <ele>-2.4000000953674</ele>
        <time>2014-11-23T12:58:31.000Z</time>
      </trkpt>
      <trkpt lat="43.10874" lon="3.08406">
        <ele>-2.4000000953674</ele>
        <time>2014-11-23T12:58:38.000Z</time>
      </trkpt>
      <trkpt lat="43.10879" lon="3.08445">
        <ele>-2.4000000953674</ele>
        <time>2014-11-23T12:58:45.000Z</time>
      </trkpt>
      <trkpt lat="43.1088" lon="3.08463">
        <ele>-2.4000000953674</ele>
        <time>2014-11-23T12:58:48.000Z</time>
      </trkpt>
      <trkpt lat="43.10884" lon="3.08474">
        <ele>-2.4000000953674</ele>
        <time>2014-11-23T12:58:50.000Z</time>
      </trkpt>
      <trkpt lat="43.10896" lon="3.0849">
        <ele>-2.4000000953674</ele>
        <time>2014-11-23T12:58:54.000Z</time>
      </trkpt>
      <trkpt lat="43.10902" lon="3.08499">
        <ele>-2.4000000953674</ele>
        <time>2014-11-23T12:58:56.000Z</time>
      </trkpt>
      <trkpt lat="43.10903" lon="3.08517">
        <ele>-2.4000000953674</ele>
        <time>2014-11-23T12:58:59.000Z</time>
      </trkpt>
      <trkpt lat="43.10899" lon="3.08528">
        <ele>-2.4000000953674</ele>
        <time>2014-11-23T12:59:01.000Z</time>
      </trkpt>
      <trkpt lat="43.10893" lon="3.08544">
        <ele>-2.4000000953674</ele>
        <time>2014-11-23T12:59:04.000Z</time>
      </trkpt>
      <trkpt lat="43.10879" lon="3.08587">
        <ele>-2.4000000953674</ele>
        <time>2014-11-23T12:59:12.000Z</time>
      </trkpt>
      <trkpt lat="43.10871" lon="3.08609">
        <ele>-2.4000000953674</ele>
        <time>2014-11-23T12:59:16.000Z</time>
      </trkpt>
      <trkpt lat="43.10872" lon="3.08621">
        <ele>-2.4000000953674</ele>
        <time>2014-11-23T12:59:18.000Z</time>
      </trkpt>
      <trkpt lat="43.10885" lon="3.0864">
        <ele>-2.4000000953674</ele>
        <time>2014-11-23T12:59:22.000Z</time>
      </trkpt>
      <trkpt lat="43.1089" lon="3.08649">
        <ele>-2.4000000953674</ele>
        <time>2014-11-23T12:59:24.000Z</time>
      </trkpt>
      <trkpt lat="43.10893" lon="3.0866">
        <ele>-2.4000000953674</ele>
        <time>2014-11-23T12:59:26.000Z</time>
      </trkpt>
      <trkpt lat="43.10887" lon="3.08675">
        <ele>-2.4000000953674</ele>
        <time>2014-11-23T12:59:29.000Z</time>
      </trkpt>
      <trkpt lat="43.10881" lon="3.08682">
        <ele>-2.4000000953674</ele>
        <time>2014-11-23T12:59:31.000Z</time>
      </trkpt>
      <trkpt lat="43.10864" lon="3.08698">
        <ele>-2.4000000953674</ele>
        <time>2014-11-23T12:59:36.000Z</time>
      </trkpt>
      <trkpt lat="43.10846" lon="3.08717">
        <ele>-2.4000000953674</ele>
        <time>2014-11-23T12:59:42.000Z</time>
      </trkpt>
      <trkpt lat="43.10843" lon="3.08721">
        <ele>-2.4000000953674</ele>
        <time>2014-11-23T12:59:43.000Z</time>
      </trkpt>
      <trkpt lat="43.10824" lon="3.08754">
        <ele>-2.4000000953674</ele>
        <time>2014-11-23T12:59:50.000Z</time>
      </trkpt>
      <trkpt lat="43.108" lon="3.08796">
        <ele>-2.4000000953674</ele>
        <time>2014-11-23T12:59:59.000Z</time>
      </trkpt>
      <trkpt lat="43.10793" lon="3.08812">
        <ele>-2.4000000953674</ele>
        <time>2014-11-23T13:00:02.000Z</time>
      </trkpt>
      <trkpt lat="43.10794" lon="3.08825">
        <ele>-2.4000000953674</ele>
        <time>2014-11-23T13:00:04.000Z</time>
      </trkpt>
      <trkpt lat="43.10802" lon="3.08847">
        <ele>-2.4000000953674</ele>
        <time>2014-11-23T13:00:08.000Z</time>
      </trkpt>
      <trkpt lat="43.10819" lon="3.0889">
        <ele>-2.4000000953674</ele>
        <time>2014-11-23T13:00:16.000Z</time>
      </trkpt>
      <trkpt lat="43.10836" lon="3.0893">
        <ele>-2.4000000953674</ele>
        <time>2014-11-23T13:00:24.000Z</time>
      </trkpt>
      <trkpt lat="43.10853" lon="3.08972">
        <ele>-2.4000000953674</ele>
        <time>2014-11-23T13:00:32.000Z</time>
      </trkpt>
      <trkpt lat="43.10867" lon="3.09004">
        <ele>-2.4000000953674</ele>
        <time>2014-11-23T13:00:38.000Z</time>
      </trkpt>
      <trkpt lat="43.10875" lon="3.0901">
        <ele>-2.4000000953674</ele>
        <time>2014-11-23T13:00:40.000Z</time>
      </trkpt>
      <trkpt lat="43.10886" lon="3.09012">
        <ele>-2.4000000953674</ele>
        <time>2014-11-23T13:00:42.000Z</time>
      </trkpt>
      <trkpt lat="43.10905" lon="3.09019">
        <ele>-2.4000000953674</ele>
        <time>2014-11-23T13:00:46.000Z</time>
      </trkpt>
      <trkpt lat="43.10937" lon="3.09032">
        <ele>-2.4000000953674</ele>
        <time>2014-11-23T13:00:53.000Z</time>
      </trkpt>
      <trkpt lat="43.10964" lon="3.09043">
        <ele>-2.4000000953674</ele>
        <time>2014-11-23T13:00:59.000Z</time>
      </trkpt>
      <trkpt lat="43.10968" lon="3.09045">
        <ele>-2.4000000953674</ele>
        <time>2014-11-23T13:01:00.000Z</time>
      </trkpt>
      <trkpt lat="43.10981" lon="3.0905">
        <ele>-2.7999999523163</ele>
        <time>2014-11-23T13:01:03.000Z</time>
      </trkpt>
      <trkpt lat="43.10986" lon="3.09051">
        <ele>-3.4000000953674</ele>
        <time>2014-11-23T13:01:04.000Z</time>
      </trkpt>
      <trkpt lat="43.1099" lon="3.09053">
        <ele>-3.7999999523163</ele>
        <time>2014-11-23T13:01:05.000Z</time>
      </trkpt>
      <trkpt lat="43.10994" lon="3.09055">
        <ele>-4.1999998092651</ele>
        <time>2014-11-23T13:01:06.000Z</time>
      </trkpt>
      <trkpt lat="43.10999" lon="3.09057">
        <ele>-4.5999999046326</ele>
        <time>2014-11-23T13:01:07.000Z</time>
      </trkpt>
      <trkpt lat="43.11027" lon="3.09067">
        <ele>-4.1999998092651</ele>
        <time>2014-11-23T13:01:13.000Z</time>
      </trkpt>
      <trkpt lat="43.11031" lon="3.09069">
        <ele>-3.7999999523163</ele>
        <time>2014-11-23T13:01:14.000Z</time>
      </trkpt>
      <trkpt lat="43.11036" lon="3.09071">
        <ele>-3</ele>
        <time>2014-11-23T13:01:15.000Z</time>
      </trkpt>
      <trkpt lat="43.1104" lon="3.09074">
        <ele>-2.5999999046326</ele>
        <time>2014-11-23T13:01:16.000Z</time>
      </trkpt>
      <trkpt lat="43.11064" lon="3.0908">
        <ele>-2.5999999046326</ele>
        <time>2014-11-23T13:01:21.000Z</time>
      </trkpt>
      <trkpt lat="43.11095" lon="3.09093">
        <ele>-2.5999999046326</ele>
        <time>2014-11-23T13:01:28.000Z</time>
      </trkpt>
      <trkpt lat="43.111" lon="3.09094">
        <ele>-2.5999999046326</ele>
        <time>2014-11-23T13:01:29.000Z</time>
      </trkpt>
      <trkpt lat="43.11128" lon="3.09104">
        <ele>-2.5999999046326</ele>
        <time>2014-11-23T13:01:35.000Z</time>
      </trkpt>
      <trkpt lat="43.11162" lon="3.09117">
        <ele>-2.5999999046326</ele>
        <time>2014-11-23T13:01:42.000Z</time>
      </trkpt>
      <trkpt lat="43.11207" lon="3.09133">
        <ele>-2.5999999046326</ele>
        <time>2014-11-23T13:01:51.000Z</time>
      </trkpt>
      <trkpt lat="43.11253" lon="3.09149">
        <ele>-2.5999999046326</ele>
        <time>2014-11-23T13:02:00.000Z</time>
      </trkpt>
      <trkpt lat="43.11294" lon="3.09167">
        <ele>-2.5999999046326</ele>
        <time>2014-11-23T13:02:08.000Z</time>
      </trkpt>
      <trkpt lat="43.11341" lon="3.09184">
        <ele>-2.5999999046326</ele>
        <time>2014-11-23T13:02:17.000Z</time>
      </trkpt>
      <trkpt lat="43.11382" lon="3.09199">
        <ele>-2.5999999046326</ele>
        <time>2014-11-23T13:02:25.000Z</time>
      </trkpt>
      <trkpt lat="43.11411" lon="3.09209">
        <ele>-2.5999999046326</ele>
        <time>2014-11-23T13:02:31.000Z</time>
      </trkpt>
      <trkpt lat="43.11431" lon="3.09217">
        <ele>-2.5999999046326</ele>
        <time>2014-11-23T13:02:36.000Z</time>
      </trkpt>
      <trkpt lat="43.11434" lon="3.09226">
        <ele>-2.5999999046326</ele>
        <time>2014-11-23T13:02:38.000Z</time>
      </trkpt>
      <trkpt lat="43.11435" lon="3.09231">
        <ele>-2.5999999046326</ele>
        <time>2014-11-23T13:02:39.000Z</time>
      </trkpt>
      <trkpt lat="43.1144" lon="3.09242">
        <ele>-2.5999999046326</ele>
        <time>2014-11-23T13:02:43.000Z</time>
      </trkpt>
      <trkpt lat="43.11446" lon="3.09253">
        <ele>-2.5999999046326</ele>
        <time>2014-11-23T13:02:48.000Z</time>
      </trkpt>
      <trkpt lat="43.11452" lon="3.09273">
        <ele>-2.5999999046326</ele>
        <time>2014-11-23T13:02:53.000Z</time>
      </trkpt>
      <trkpt lat="43.1145" lon="3.09297">
        <ele>-2.5999999046326</ele>
        <time>2014-11-23T13:02:58.000Z</time>
      </trkpt>
      <trkpt lat="43.11451" lon="3.09302">
        <ele>-2.5999999046326</ele>
        <time>2014-11-23T13:02:59.000Z</time>
      </trkpt>
      <trkpt lat="43.11456" lon="3.0931">
        <ele>-2.5999999046326</ele>
        <time>2014-11-23T13:03:01.000Z</time>
      </trkpt>
      <trkpt lat="43.11462" lon="3.09324">
        <ele>-2.5999999046326</ele>
        <time>2014-11-23T13:03:04.000Z</time>
      </trkpt>
      <trkpt lat="43.11468" lon="3.09332">
        <ele>-2.5999999046326</ele>
        <time>2014-11-23T13:03:06.000Z</time>
      </trkpt>
      <trkpt lat="43.11492" lon="3.09366">
        <ele>-2.5999999046326</ele>
        <time>2014-11-23T13:03:14.000Z</time>
      </trkpt>
      <trkpt lat="43.1151" lon="3.09391">
        <ele>-2.5999999046326</ele>
        <time>2014-11-23T13:03:20.000Z</time>
      </trkpt>
      <trkpt lat="43.11533" lon="3.09422">
        <ele>-2.5999999046326</ele>
        <time>2014-11-23T13:03:28.000Z</time>
      </trkpt>
      <trkpt lat="43.11557" lon="3.09456">
        <ele>-2.5999999046326</ele>
        <time>2014-11-23T13:03:36.000Z</time>
      </trkpt>
      <trkpt lat="43.1156" lon="3.09461">
        <ele>-2.5999999046326</ele>
        <time>2014-11-23T13:03:37.000Z</time>
      </trkpt>
      <trkpt lat="43.11567" lon="3.09484">
        <ele>-2.5999999046326</ele>
        <time>2014-11-23T13:03:41.000Z</time>
      </trkpt>
      <trkpt lat="43.11568" lon="3.0949">
        <ele>-2.5999999046326</ele>
        <time>2014-11-23T13:03:42.000Z</time>
      </trkpt>
      <trkpt lat="43.11567" lon="3.09515">
        <ele>-2.5999999046326</ele>
        <time>2014-11-23T13:03:46.000Z</time>
      </trkpt>
      <trkpt lat="43.11564" lon="3.09526">
        <ele>-2.5999999046326</ele>
        <time>2014-11-23T13:03:48.000Z</time>
      </trkpt>
      <trkpt lat="43.11556" lon="3.09549">
        <ele>-2.5999999046326</ele>
        <time>2014-11-23T13:03:52.000Z</time>
      </trkpt>
      <trkpt lat="43.11542" lon="3.09584">
        <ele>-2.5999999046326</ele>
        <time>2014-11-23T13:03:58.000Z</time>
      </trkpt>
      <trkpt lat="43.11527" lon="3.09627">
        <ele>-2.5999999046326</ele>
        <time>2014-11-23T13:04:05.000Z</time>
      </trkpt>
      <trkpt lat="43.11526" lon="3.09634">
        <ele>-2.5999999046326</ele>
        <time>2014-11-23T13:04:06.000Z</time>
      </trkpt>
      <trkpt lat="43.11529" lon="3.09656">
        <ele>-2.5999999046326</ele>
        <time>2014-11-23T13:04:09.000Z</time>
      </trkpt>
      <trkpt lat="43.11533" lon="3.09669">
        <ele>-2.5999999046326</ele>
        <time>2014-11-23T13:04:11.000Z</time>
      </trkpt>
      <trkpt lat="43.11534" lon="3.09676">
        <ele>-2.5999999046326</ele>
        <time>2014-11-23T13:04:12.000Z</time>
      </trkpt>
      <trkpt lat="43.11534" lon="3.09689">
        <ele>-2.5999999046326</ele>
        <time>2014-11-23T13:04:14.000Z</time>
      </trkpt>
      <trkpt lat="43.11533" lon="3.09704">
        <ele>-2.5999999046326</ele>
        <time>2014-11-23T13:04:16.000Z</time>
      </trkpt>
      <trkpt lat="43.11532" lon="3.09731">
        <ele>-2.5999999046326</ele>
        <time>2014-11-23T13:04:20.000Z</time>
      </trkpt>
      <trkpt lat="43.11534" lon="3.09775">
        <ele>-2.5999999046326</ele>
        <time>2014-11-23T13:04:27.000Z</time>
      </trkpt>
      <trkpt lat="43.11536" lon="3.09837">
        <ele>-2.5999999046326</ele>
        <time>2014-11-23T13:04:36.000Z</time>
      </trkpt>
      <trkpt lat="43.11542" lon="3.09888">
        <ele>-2.5999999046326</ele>
        <time>2014-11-23T13:04:43.000Z</time>
      </trkpt>
      <trkpt lat="43.11552" lon="3.09954">
        <ele>-2.5999999046326</ele>
        <time>2014-11-23T13:04:52.000Z</time>
      </trkpt>
      <trkpt lat="43.11556" lon="3.09977">
        <ele>-2.5999999046326</ele>
        <time>2014-11-23T13:04:55.000Z</time>
      </trkpt>
      <trkpt lat="43.11562" lon="3.1002">
        <ele>-2.5999999046326</ele>
        <time>2014-11-23T13:05:01.000Z</time>
      </trkpt>
      <trkpt lat="43.11577" lon="3.10067">
        <ele>-2.5999999046326</ele>
        <time>2014-11-23T13:05:08.000Z</time>
      </trkpt>
      <trkpt lat="43.11599" lon="3.10116">
        <ele>-2.5999999046326</ele>
        <time>2014-11-23T13:05:16.000Z</time>
      </trkpt>
      <trkpt lat="43.11612" lon="3.10147">
        <ele>-2.5999999046326</ele>
        <time>2014-11-23T13:05:21.000Z</time>
      </trkpt>
      <trkpt lat="43.11615" lon="3.10161">
        <ele>-2.5999999046326</ele>
        <time>2014-11-23T13:05:23.000Z</time>
      </trkpt>
      <trkpt lat="43.11618" lon="3.10191">
        <ele>-2.5999999046326</ele>
        <time>2014-11-23T13:05:27.000Z</time>
      </trkpt>
      <trkpt lat="43.11618" lon="3.10199">
        <ele>-2.5999999046326</ele>
        <time>2014-11-23T13:05:28.000Z</time>
      </trkpt>
      <trkpt lat="43.11623" lon="3.10245">
        <ele>-2.5999999046326</ele>
        <time>2014-11-23T13:05:34.000Z</time>
      </trkpt>
      <trkpt lat="43.11634" lon="3.10305">
        <ele>-2.5999999046326</ele>
        <time>2014-11-23T13:05:42.000Z</time>
      </trkpt>
      <trkpt lat="43.11639" lon="3.10327">
        <ele>-2.5999999046326</ele>
        <time>2014-11-23T13:05:45.000Z</time>
      </trkpt>
      <trkpt lat="43.11646" lon="3.10339">
        <ele>-2.5999999046326</ele>
        <time>2014-11-23T13:05:47.000Z</time>
      </trkpt>
      <trkpt lat="43.11668" lon="3.10354">
        <ele>-2.5999999046326</ele>
        <time>2014-11-23T13:05:51.000Z</time>
      </trkpt>
      <trkpt lat="43.11699" lon="3.10374">
        <ele>-2.5999999046326</ele>
        <time>2014-11-23T13:05:57.000Z</time>
      </trkpt>
      <trkpt lat="43.11739" lon="3.10404">
        <ele>-2.5999999046326</ele>
        <time>2014-11-23T13:06:05.000Z</time>
      </trkpt>
      <trkpt lat="43.11761" lon="3.10415">
        <ele>-2.5999999046326</ele>
        <time>2014-11-23T13:06:09.000Z</time>
      </trkpt>
      <trkpt lat="43.11772" lon="3.10418">
        <ele>-2.5999999046326</ele>
        <time>2014-11-23T13:06:11.000Z</time>
      </trkpt>
      <trkpt lat="43.11777" lon="3.10421">
        <ele>-2.5999999046326</ele>
        <time>2014-11-23T13:06:12.000Z</time>
      </trkpt>
      <trkpt lat="43.11804" lon="3.10431">
        <ele>-2.5999999046326</ele>
        <time>2014-11-23T13:06:17.000Z</time>
      </trkpt>
      <trkpt lat="43.11816" lon="3.10432">
        <ele>-2.5999999046326</ele>
        <time>2014-11-23T13:06:19.000Z</time>
      </trkpt>
      <trkpt lat="43.11832" lon="3.10427">
        <ele>-2.5999999046326</ele>
        <time>2014-11-23T13:06:22.000Z</time>
      </trkpt>
      <trkpt lat="43.11838" lon="3.10424">
        <ele>-2.5999999046326</ele>
        <time>2014-11-23T13:06:23.000Z</time>
      </trkpt>
      <trkpt lat="43.11852" lon="3.10409">
        <ele>-2.5999999046326</ele>
        <time>2014-11-23T13:06:26.000Z</time>
      </trkpt>
      <trkpt lat="43.11891" lon="3.10363">
        <ele>-2.5999999046326</ele>
        <time>2014-11-23T13:06:34.000Z</time>
      </trkpt>
      <trkpt lat="43.11925" lon="3.10315">
        <ele>-2.5999999046326</ele>
        <time>2014-11-23T13:06:42.000Z</time>
      </trkpt>
      <trkpt lat="43.11941" lon="3.1029">
        <ele>-2.5999999046326</ele>
        <time>2014-11-23T13:06:46.000Z</time>
      </trkpt>
      <trkpt lat="43.11949" lon="3.10277">
        <ele>-2.5999999046326</ele>
        <time>2014-11-23T13:06:48.000Z</time>
      </trkpt>
      <trkpt lat="43.11957" lon="3.10264">
        <ele>-2.2000000476837</ele>
        <time>2014-11-23T13:06:50.000Z</time>
      </trkpt>
      <trkpt lat="43.11961" lon="3.10258">
        <ele>-1.7999999523163</ele>
        <time>2014-11-23T13:06:51.000Z</time>
      </trkpt>
      <trkpt lat="43.11964" lon="3.10252">
        <ele>-1.3999999761581</ele>
        <time>2014-11-23T13:06:52.000Z</time>
      </trkpt>
      <trkpt lat="43.11968" lon="3.10245">
        <ele>-1</ele>
        <time>2014-11-23T13:06:53.000Z</time>
      </trkpt>
      <trkpt lat="43.11971" lon="3.10239">
        <ele>-0.60000002384186</ele>
        <time>2014-11-23T13:06:54.000Z</time>
      </trkpt>
      <trkpt lat="43.11973" lon="3.10238">
        <ele>-0.60000002384186</ele>
        <time>2014-11-23T13:06:55.000Z</time>
      </trkpt>
      <trkpt lat="43.11984" lon="3.10245">
        <ele>-0.60000002384186</ele>
        <time>2014-11-23T13:06:58.000Z</time>
      </trkpt>
      <trkpt lat="43.1199" lon="3.10252">
        <ele>-0.60000002384186</ele>
        <time>2014-11-23T13:07:00.000Z</time>
      </trkpt>
      <trkpt lat="43.11997" lon="3.10264">
        <ele>-0.60000002384186</ele>
        <time>2014-11-23T13:07:03.000Z</time>
      </trkpt>
      <trkpt lat="43.1199" lon="3.10276">
        <ele>-0.60000002384186</ele>
        <time>2014-11-23T13:07:06.000Z</time>
      </trkpt>
      <trkpt lat="43.11983" lon="3.10286">
        <ele>-0.60000002384186</ele>
        <time>2014-11-23T13:07:08.000Z</time>
      </trkpt>
      <trkpt lat="43.11972" lon="3.10304">
        <ele>-0.60000002384186</ele>
        <time>2014-11-23T13:07:11.000Z</time>
      </trkpt>
      <trkpt lat="43.11949" lon="3.10344">
        <ele>-0.60000002384186</ele>
        <time>2014-11-23T13:07:17.000Z</time>
      </trkpt>
      <trkpt lat="43.11922" lon="3.10393">
        <ele>-0.60000002384186</ele>
        <time>2014-11-23T13:07:24.000Z</time>
      </trkpt>
      <trkpt lat="43.119" lon="3.10436">
        <ele>-0.60000002384186</ele>
        <time>2014-11-23T13:07:30.000Z</time>
      </trkpt>
      <trkpt lat="43.11899" lon="3.10444">
        <ele>-0.60000002384186</ele>
        <time>2014-11-23T13:07:31.000Z</time>
      </trkpt>
      <trkpt lat="43.11903" lon="3.10471">
        <ele>-1</ele>
        <time>2014-11-23T13:07:35.000Z</time>
      </trkpt>
      <trkpt lat="43.11907" lon="3.10475">
        <ele>-1.3999999761581</ele>
        <time>2014-11-23T13:07:36.000Z</time>
      </trkpt>
      <trkpt lat="43.1191" lon="3.10478">
        <ele>-1.7999999523163</ele>
        <time>2014-11-23T13:07:37.000Z</time>
      </trkpt>
      <trkpt lat="43.11916" lon="3.1048">
        <ele>-2.2000000476837</ele>
        <time>2014-11-23T13:07:38.000Z</time>
      </trkpt>
      <trkpt lat="43.11921" lon="3.10481">
        <ele>-2.5999999046326</ele>
        <time>2014-11-23T13:07:39.000Z</time>
      </trkpt>
      <trkpt lat="43.11946" lon="3.10492">
        <ele>-2.5999999046326</ele>
        <time>2014-11-23T13:07:44.000Z</time>
      </trkpt>
      <trkpt lat="43.11968" lon="3.10508">
        <ele>-2.5999999046326</ele>
        <time>2014-11-23T13:07:49.000Z</time>
      </trkpt>
      <trkpt lat="43.11973" lon="3.10512">
        <ele>-2.5999999046326</ele>
        <time>2014-11-23T13:07:50.000Z</time>
      </trkpt>
      <trkpt lat="43.12006" lon="3.10534">
        <ele>-2.5999999046326</ele>
        <time>2014-11-23T13:07:57.000Z</time>
      </trkpt>
      <trkpt lat="43.12046" lon="3.10556">
        <ele>-2.5999999046326</ele>
        <time>2014-11-23T13:08:05.000Z</time>
      </trkpt>
      <trkpt lat="43.12094" lon="3.10571">
        <ele>-2.5999999046326</ele>
        <time>2014-11-23T13:08:14.000Z</time>
      </trkpt>
      <trkpt lat="43.12134" lon="3.10583">
        <ele>-2.5999999046326</ele>
        <time>2014-11-23T13:08:22.000Z</time>
      </trkpt>
      <trkpt lat="43.12165" lon="3.10597">
        <ele>-2.5999999046326</ele>
        <time>2014-11-23T13:08:28.000Z</time>
      </trkpt>
      <trkpt lat="43.12174" lon="3.10605">
        <ele>-2.5999999046326</ele>
        <time>2014-11-23T13:08:30.000Z</time>
      </trkpt>
      <trkpt lat="43.12183" lon="3.10622">
        <ele>-2.5999999046326</ele>
        <time>2014-11-23T13:08:33.000Z</time>
      </trkpt>
      <trkpt lat="43.12185" lon="3.10627">
        <ele>-2.5999999046326</ele>
        <time>2014-11-23T13:08:34.000Z</time>
      </trkpt>
      <trkpt lat="43.122" lon="3.10651">
        <ele>-2.5999999046326</ele>
        <time>2014-11-23T13:08:39.000Z</time>
      </trkpt>
      <trkpt lat="43.1222" lon="3.10686">
        <ele>-2.5999999046326</ele>
        <time>2014-11-23T13:08:46.000Z</time>
      </trkpt>
      <trkpt lat="43.12225" lon="3.10697">
        <ele>-2.5999999046326</ele>
        <time>2014-11-23T13:08:48.000Z</time>
      </trkpt>
      <trkpt lat="43.12236" lon="3.10718">
        <ele>-2.5999999046326</ele>
        <time>2014-11-23T13:08:52.000Z</time>
      </trkpt>
      <trkpt lat="43.12248" lon="3.10744">
        <ele>-2.2000000476837</ele>
        <time>2014-11-23T13:08:57.000Z</time>
      </trkpt>
      <trkpt lat="43.1225" lon="3.10749">
        <ele>-1.7999999523163</ele>
        <time>2014-11-23T13:08:58.000Z</time>
      </trkpt>
      <trkpt lat="43.12253" lon="3.10755">
        <ele>-1.2000000476837</ele>
        <time>2014-11-23T13:08:59.000Z</time>
      </trkpt>
      <trkpt lat="43.12255" lon="3.1076">
        <ele>-0.80000001192093</ele>
        <time>2014-11-23T13:09:00.000Z</time>
      </trkpt>
      <trkpt lat="43.12257" lon="3.10766">
        <ele>-0.40000000596046</ele>
        <time>2014-11-23T13:09:01.000Z</time>
      </trkpt>
      <trkpt lat="43.12268" lon="3.10792">
        <ele>-0.40000000596046</ele>
        <time>2014-11-23T13:09:06.000Z</time>
      </trkpt>
      <trkpt lat="43.12278" lon="3.10812">
        <ele>-0.40000000596046</ele>
        <time>2014-11-23T13:09:10.000Z</time>
      </trkpt>
      <trkpt lat="43.12283" lon="3.10823">
        <ele>-0.40000000596046</ele>
        <time>2014-11-23T13:09:12.000Z</time>
      </trkpt>
      <trkpt lat="43.1229" lon="3.10839">
        <ele>-0.40000000596046</ele>
        <time>2014-11-23T13:09:15.000Z</time>
      </trkpt>
      <trkpt lat="43.12297" lon="3.10852">
        <ele>-0.40000000596046</ele>
        <time>2014-11-23T13:09:18.000Z</time>
      </trkpt>
      <trkpt lat="43.12314" lon="3.10891">
        <ele>-0.40000000596046</ele>
        <time>2014-11-23T13:09:26.000Z</time>
      </trkpt>
      <trkpt lat="43.12318" lon="3.10902">
        <ele>4.5</ele>
        <time>2014-11-23T13:09:28.000Z</time>
      </trkpt>
      <trkpt lat="43.1232" lon="3.10908">
        <ele>0.40000000596046</ele>
        <time>2014-11-23T13:09:29.000Z</time>
      </trkpt>
      <trkpt lat="43.12323" lon="3.10912">
        <ele>0.80000001192093</ele>
        <time>2014-11-23T13:09:30.000Z</time>
      </trkpt>
      <trkpt lat="43.12325" lon="3.10917">
        <ele>1.2000000476837</ele>
        <time>2014-11-23T13:09:31.000Z</time>
      </trkpt>
      <trkpt lat="43.12327" lon="3.10923">
        <ele>1.6000000238419</ele>
        <time>2014-11-23T13:09:32.000Z</time>
      </trkpt>
      <trkpt lat="43.12329" lon="3.10928">
        <ele>1.6000000238419</ele>
        <time>2014-11-23T13:09:33.000Z</time>
      </trkpt>
      <trkpt lat="43.1235" lon="3.1097">
        <ele>1.6000000238419</ele>
        <time>2014-11-23T13:09:41.000Z</time>
      </trkpt>
      <trkpt lat="43.1237" lon="3.11015">
        <ele>1.6000000238419</ele>
        <time>2014-11-23T13:09:48.000Z</time>
      </trkpt>
      <trkpt lat="43.12389" lon="3.11056">
        <ele>1.6000000238419</ele>
        <time>2014-11-23T13:09:55.000Z</time>
      </trkpt>
      <trkpt lat="43.12394" lon="3.11067">
        <ele>1.6000000238419</ele>
        <time>2014-11-23T13:09:57.000Z</time>
      </trkpt>
      <trkpt lat="43.12399" lon="3.11078">
        <ele>1.2000000476837</ele>
        <time>2014-11-23T13:09:59.000Z</time>
      </trkpt>
      <trkpt lat="43.12402" lon="3.11085">
        <ele>0.80000001192093</ele>
        <time>2014-11-23T13:10:00.000Z</time>
      </trkpt>
      <trkpt lat="43.12404" lon="3.11091">
        <ele>0.40000000596046</ele>
        <time>2014-11-23T13:10:01.000Z</time>
      </trkpt>
      <trkpt lat="43.12406" lon="3.11097">
        <ele>3</ele>
        <time>2014-11-23T13:10:02.000Z</time>
      </trkpt>
      <trkpt lat="43.12409" lon="3.11103">
        <ele>-0.40000000596046</ele>
        <time>2014-11-23T13:10:03.000Z</time>
      </trkpt>
      <trkpt lat="43.12423" lon="3.1114">
        <ele>-0.40000000596046</ele>
        <time>2014-11-23T13:10:09.000Z</time>
      </trkpt>
      <trkpt lat="43.12445" lon="3.11194">
        <ele>-0.40000000596046</ele>
        <time>2014-11-23T13:10:18.000Z</time>
      </trkpt>
      <trkpt lat="43.12458" lon="3.1124">
        <ele>-0.40000000596046</ele>
        <time>2014-11-23T13:10:25.000Z</time>
      </trkpt>
      <trkpt lat="43.12468" lon="3.11288">
        <ele>-0.40000000596046</ele>
        <time>2014-11-23T13:10:32.000Z</time>
      </trkpt>
      <trkpt lat="43.12472" lon="3.113">
        <ele>-0.40000000596046</ele>
        <time>2014-11-23T13:10:34.000Z</time>
      </trkpt>
      <trkpt lat="43.12482" lon="3.11325">
        <ele>-0.40000000596046</ele>
        <time>2014-11-23T13:10:38.000Z</time>
      </trkpt>
      <trkpt lat="43.12497" lon="3.11368">
        <ele>-0.40000000596046</ele>
        <time>2014-11-23T13:10:45.000Z</time>
      </trkpt>
      <trkpt lat="43.12498" lon="3.11374">
        <ele>-0.40000000596046</ele>
        <time>2014-11-23T13:10:46.000Z</time>
      </trkpt>
      <trkpt lat="43.12503" lon="3.11407">
        <ele>-0.40000000596046</ele>
        <time>2014-11-23T13:10:51.000Z</time>
      </trkpt>
      <trkpt lat="43.12513" lon="3.11445">
        <ele>7.7</ele>
        <time>2014-11-23T13:10:57.000Z</time>
      </trkpt>
      <trkpt lat="43.12515" lon="3.11451">
        <ele>0.60000002384186</ele>
        <time>2014-11-23T13:10:58.000Z</time>
      </trkpt>
      <trkpt lat="43.12517" lon="3.11456">
        <ele>1</ele>
        <time>2014-11-23T13:10:59.000Z</time>
      </trkpt>
      <trkpt lat="43.12519" lon="3.11461">
        <ele>1.3999999761581</ele>
        <time>2014-11-23T13:11:00.000Z</time>
      </trkpt>
      <trkpt lat="43.12522" lon="3.11466">
        <ele>1.7999999523163</ele>
        <time>2014-11-23T13:11:01.000Z</time>
      </trkpt>
      <trkpt lat="43.12529" lon="3.11479">
        <ele>1.7999999523163</ele>
        <time>2014-11-23T13:11:04.000Z</time>
      </trkpt>
      <trkpt lat="43.12542" lon="3.11512">
        <ele>1.7999999523163</ele>
        <time>2014-11-23T13:11:11.000Z</time>
      </trkpt>
      <trkpt lat="43.12547" lon="3.11528">
        <ele>2.2000000476837</ele>
        <time>2014-11-23T13:11:14.000Z</time>
      </trkpt>
      <trkpt lat="43.12549" lon="3.11532">
        <ele>2.5999999046326</ele>
        <time>2014-11-23T13:11:15.000Z</time>
      </trkpt>
      <trkpt lat="43.12549" lon="3.11538">
        <ele>3</ele>
        <time>2014-11-23T13:11:16.000Z</time>
      </trkpt>
      <trkpt lat="43.12551" lon="3.11544">
        <ele>3.4000000953674</ele>
        <time>2014-11-23T13:11:17.000Z</time>
      </trkpt>
      <trkpt lat="43.12553" lon="3.11549">
        <ele>3.7999999523163</ele>
        <time>2014-11-23T13:11:18.000Z</time>
      </trkpt>
      <trkpt lat="43.1256" lon="3.11576">
        <ele>3.7999999523163</ele>
        <time>2014-11-23T13:11:23.000Z</time>
      </trkpt>
      <trkpt lat="43.12562" lon="3.11582">
        <ele>3.7999999523163</ele>
        <time>2014-11-23T13:11:24.000Z</time>
      </trkpt>
      <trkpt lat="43.12568" lon="3.11603">
        <ele>3.7999999523163</ele>
        <time>2014-11-23T13:11:28.000Z</time>
      </trkpt>
      <trkpt lat="43.12571" lon="3.11614">
        <ele>3.7999999523163</ele>
        <time>2014-11-23T13:11:30.000Z</time>
      </trkpt>
      <trkpt lat="43.12583" lon="3.11645">
        <ele>3.7999999523163</ele>
        <time>2014-11-23T13:11:36.000Z</time>
      </trkpt>
      <trkpt lat="43.12595" lon="3.11665">
        <ele>3.7999999523163</ele>
        <time>2014-11-23T13:11:41.000Z</time>
      </trkpt>
      <trkpt lat="43.12604" lon="3.11677">
        <ele>3.7999999523163</ele>
        <time>2014-11-23T13:11:46.000Z</time>
      </trkpt>
      <trkpt lat="43.12612" lon="3.1169">
        <ele>3.7999999523163</ele>
        <time>2014-11-23T13:11:51.000Z</time>
      </trkpt>
      <trkpt lat="43.12622" lon="3.11707">
        <ele>3.7999999523163</ele>
        <time>2014-11-23T13:11:55.000Z</time>
      </trkpt>
      <trkpt lat="43.12626" lon="3.11711">
        <ele>3.7999999523163</ele>
        <time>2014-11-23T13:11:56.000Z</time>
      </trkpt>
      <trkpt lat="43.12638" lon="3.1173">
        <ele>3.7999999523163</ele>
        <time>2014-11-23T13:12:00.000Z</time>
      </trkpt>
      <trkpt lat="43.1266" lon="3.11762">
        <ele>3.7999999523163</ele>
        <time>2014-11-23T13:12:06.000Z</time>
      </trkpt>
      <trkpt lat="43.12695" lon="3.11811">
        <ele>3.7999999523163</ele>
        <time>2014-11-23T13:12:15.000Z</time>
      </trkpt>
      <trkpt lat="43.12714" lon="3.11833">
        <ele>3.7999999523163</ele>
        <time>2014-11-23T13:12:20.000Z</time>
      </trkpt>
      <trkpt lat="43.12723" lon="3.11842">
        <ele>3.7999999523163</ele>
        <time>2014-11-23T13:12:22.000Z</time>
      </trkpt>
      <trkpt lat="43.12753" lon="3.11862">
        <ele>3.7999999523163</ele>
        <time>2014-11-23T13:12:28.000Z</time>
      </trkpt>
      <trkpt lat="43.12768" lon="3.11872">
        <ele>3.7999999523163</ele>
        <time>2014-11-23T13:12:31.000Z</time>
      </trkpt>
      <trkpt lat="43.12783" lon="3.11877">
        <ele>3.7999999523163</ele>
        <time>2014-11-23T13:12:34.000Z</time>
      </trkpt>
      <trkpt lat="43.12812" lon="3.11878">
        <ele>3.7999999523163</ele>
        <time>2014-11-23T13:12:40.000Z</time>
      </trkpt>
      <trkpt lat="43.12836" lon="3.11879">
        <ele>3.7999999523163</ele>
        <time>2014-11-23T13:12:45.000Z</time>
      </trkpt>
      <trkpt lat="43.12846" lon="3.1188">
        <ele>3.7999999523163</ele>
        <time>2014-11-23T13:12:47.000Z</time>
      </trkpt>
      <trkpt lat="43.12887" lon="3.11886">
        <ele>3.7999999523163</ele>
        <time>2014-11-23T13:12:55.000Z</time>
      </trkpt>
      <trkpt lat="43.12924" lon="3.11894">
        <ele>3.7999999523163</ele>
        <time>2014-11-23T13:13:02.000Z</time>
      </trkpt>
      <trkpt lat="43.12944" lon="3.11901">
        <ele>3.7999999523163</ele>
        <time>2014-11-23T13:13:06.000Z</time>
      </trkpt>
      <trkpt lat="43.12949" lon="3.11904">
        <ele>3.7999999523163</ele>
        <time>2014-11-23T13:13:07.000Z</time>
      </trkpt>
      <trkpt lat="43.1297" lon="3.1191">
        <ele>3.7999999523163</ele>
        <time>2014-11-23T13:13:11.000Z</time>
      </trkpt>
      <trkpt lat="43.12975" lon="3.11909">
        <ele>3.7999999523163</ele>
        <time>2014-11-23T13:13:12.000Z</time>
      </trkpt>
      <trkpt lat="43.12998" lon="3.11901">
        <ele>3.7999999523163</ele>
        <time>2014-11-23T13:13:16.000Z</time>
      </trkpt>
      <trkpt lat="43.13014" lon="3.11901">
        <ele>3.4000000953674</ele>
        <time>2014-11-23T13:13:19.000Z</time>
      </trkpt>
      <trkpt lat="43.1302" lon="3.11903">
        <ele>3</ele>
        <time>2014-11-23T13:13:20.000Z</time>
      </trkpt>
      <trkpt lat="43.13025" lon="3.11904">
        <ele>2.5999999046326</ele>
        <time>2014-11-23T13:13:21.000Z</time>
      </trkpt>
      <trkpt lat="43.1303" lon="3.11905">
        <ele>2.2000000476837</ele>
        <time>2014-11-23T13:13:22.000Z</time>
      </trkpt>
      <trkpt lat="43.13035" lon="3.11906">
        <ele>1.6000000238419</ele>
        <time>2014-11-23T13:13:23.000Z</time>
      </trkpt>
      <trkpt lat="43.13044" lon="3.11908">
        <ele>1.6000000238419</ele>
        <time>2014-11-23T13:13:25.000Z</time>
      </trkpt>
      <trkpt lat="43.13071" lon="3.11914">
        <ele>2.2000000476837</ele>
        <time>2014-11-23T13:13:31.000Z</time>
      </trkpt>
      <trkpt lat="43.13075" lon="3.11915">
        <ele>2.5999999046326</ele>
        <time>2014-11-23T13:13:32.000Z</time>
      </trkpt>
      <trkpt lat="43.13079" lon="3.11916">
        <ele>3.2000000476837</ele>
        <time>2014-11-23T13:13:33.000Z</time>
      </trkpt>
      <trkpt lat="43.13082" lon="3.11917">
        <ele>4.1999998092651</ele>
        <time>2014-11-23T13:13:34.000Z</time>
      </trkpt>
      <trkpt lat="43.13092" lon="3.1192">
        <ele>4.1999998092651</ele>
        <time>2014-11-23T13:13:37.000Z</time>
      </trkpt>
      <trkpt lat="43.13101" lon="3.11933">
        <ele>4.1999998092651</ele>
        <time>2014-11-23T13:13:41.000Z</time>
      </trkpt>
      <trkpt lat="43.13107" lon="3.11951">
        <ele>4.5999999046326</ele>
        <time>2014-11-23T13:13:46.000Z</time>
      </trkpt>
      <trkpt lat="43.13108" lon="3.11955">
        <ele>5</ele>
        <time>2014-11-23T13:13:47.000Z</time>
      </trkpt>
      <trkpt lat="43.13109" lon="3.11959">
        <ele>5.4000000953674</ele>
        <time>2014-11-23T13:13:48.000Z</time>
      </trkpt>
      <trkpt lat="43.1311" lon="3.11963">
        <ele>5.8000001907349</ele>
        <time>2014-11-23T13:13:49.000Z</time>
      </trkpt>
      <trkpt lat="43.13111" lon="3.11967">
        <ele>6.1999998092651</ele>
        <time>2014-11-23T13:13:50.000Z</time>
      </trkpt>
      <trkpt lat="43.13112" lon="3.11982">
        <ele>6.1999998092651</ele>
        <time>2014-11-23T13:13:53.000Z</time>
      </trkpt>
      <trkpt lat="43.13113" lon="3.12013">
        <ele>6.1999998092651</ele>
        <time>2014-11-23T13:13:59.000Z</time>
      </trkpt>
      <trkpt lat="43.13114" lon="3.12044">
        <ele>6.1999998092651</ele>
        <time>2014-11-23T13:14:04.000Z</time>
      </trkpt>
      <trkpt lat="43.13115" lon="3.12051">
        <ele>6.1999998092651</ele>
        <time>2014-11-23T13:14:05.000Z</time>
      </trkpt>
      <trkpt lat="43.13117" lon="3.12088">
        <ele>5.8000001907349</ele>
        <time>2014-11-23T13:14:10.000Z</time>
      </trkpt>
      <trkpt lat="43.13117" lon="3.12097">
        <ele>5.1999998092651</ele>
        <time>2014-11-23T13:14:11.000Z</time>
      </trkpt>
      <trkpt lat="43.13116" lon="3.12106">
        <ele>4.8000001907349</ele>
        <time>2014-11-23T13:14:12.000Z</time>
      </trkpt>
      <trkpt lat="43.13116" lon="3.12115">
        <ele>4.1999998092651</ele>
        <time>2014-11-23T13:14:13.000Z</time>
      </trkpt>
      <trkpt lat="43.13116" lon="3.12125">
        <ele>3.7999999523163</ele>
        <time>2014-11-23T13:14:14.000Z</time>
      </trkpt>
      <trkpt lat="43.13115" lon="3.12135">
        <ele>3.4000000953674</ele>
        <time>2014-11-23T13:14:15.000Z</time>
      </trkpt>
      <trkpt lat="43.13115" lon="3.12145">
        <ele>2.7999999523163</ele>
        <time>2014-11-23T13:14:16.000Z</time>
      </trkpt>
      <trkpt lat="43.13115" lon="3.12156">
        <ele>2.4000000953674</ele>
        <time>2014-11-23T13:14:17.000Z</time>
      </trkpt>
      <trkpt lat="43.13114" lon="3.12166">
        <ele>1.7999999523163</ele>
        <time>2014-11-23T13:14:18.000Z</time>
      </trkpt>
      <trkpt lat="43.13113" lon="3.12176">
        <ele>1.3999999761581</ele>
        <time>2014-11-23T13:14:19.000Z</time>
      </trkpt>
      <trkpt lat="43.13109" lon="3.12195">
        <ele>1.3999999761581</ele>
        <time>2014-11-23T13:14:21.000Z</time>
      </trkpt>
      <trkpt lat="43.1309" lon="3.12253">
        <ele>1.3999999761581</ele>
        <time>2014-11-23T13:14:28.000Z</time>
      </trkpt>
      <trkpt lat="43.13075" lon="3.12277">
        <ele>1.3999999761581</ele>
        <time>2014-11-23T13:14:32.000Z</time>
      </trkpt>
      <trkpt lat="43.13071" lon="3.12282">
        <ele>1.3999999761581</ele>
        <time>2014-11-23T13:14:33.000Z</time>
      </trkpt>
      <trkpt lat="43.13067" lon="3.12287">
        <ele>1.3999999761581</ele>
        <time>2014-11-23T13:14:34.000Z</time>
      </trkpt>
      <trkpt lat="43.13058" lon="3.12303">
        <ele>1.3999999761581</ele>
        <time>2014-11-23T13:14:37.000Z</time>
      </trkpt>
      <trkpt lat="43.13059" lon="3.12325">
        <ele>1.3999999761581</ele>
        <time>2014-11-23T13:14:40.000Z</time>
      </trkpt>
      <trkpt lat="43.13072" lon="3.12346">
        <ele>1.3999999761581</ele>
        <time>2014-11-23T13:14:43.000Z</time>
      </trkpt>
      <trkpt lat="43.13077" lon="3.12353">
        <ele>1.3999999761581</ele>
        <time>2014-11-23T13:14:44.000Z</time>
      </trkpt>
      <trkpt lat="43.13083" lon="3.1236">
        <ele>1</ele>
        <time>2014-11-23T13:14:45.000Z</time>
      </trkpt>
      <trkpt lat="43.13088" lon="3.12367">
        <ele>0.60000002384186</ele>
        <time>2014-11-23T13:14:46.000Z</time>
      </trkpt>
      <trkpt lat="43.13092" lon="3.12375">
        <ele>0.20000000298023</ele>
        <time>2014-11-23T13:14:47.000Z</time>
      </trkpt>
      <trkpt lat="43.13097" lon="3.12383">
        <ele>-0.20000000298023</ele>
        <time>2014-11-23T13:14:48.000Z</time>
      </trkpt>
      <trkpt lat="43.13101" lon="3.12391">
        <ele>-0.60000002384186</ele>
        <time>2014-11-23T13:14:49.000Z</time>
      </trkpt>
      <trkpt lat="43.13106" lon="3.12399">
        <ele>-0.60000002384186</ele>
        <time>2014-11-23T13:14:50.000Z</time>
      </trkpt>
      <trkpt lat="43.13121" lon="3.12416">
        <ele>-0.60000002384186</ele>
        <time>2014-11-23T13:14:53.000Z</time>
      </trkpt>
      <trkpt lat="43.13126" lon="3.12421">
        <ele>-0.60000002384186</ele>
        <time>2014-11-23T13:14:54.000Z</time>
      </trkpt>
      <trkpt lat="43.13142" lon="3.12431">
        <ele>-0.60000002384186</ele>
        <time>2014-11-23T13:14:57.000Z</time>
      </trkpt>
      <trkpt lat="43.13184" lon="3.12461">
        <ele>-0.60000002384186</ele>
        <time>2014-11-23T13:15:05.000Z</time>
      </trkpt>
      <trkpt lat="43.13206" lon="3.1248">
        <ele>-0.60000002384186</ele>
        <time>2014-11-23T13:15:10.000Z</time>
      </trkpt>
      <trkpt lat="43.1321" lon="3.12484">
        <ele>-0.60000002384186</ele>
        <time>2014-11-23T13:15:11.000Z</time>
      </trkpt>
      <trkpt lat="43.13214" lon="3.12488">
        <ele>-0.60000002384186</ele>
        <time>2014-11-23T13:15:12.000Z</time>
      </trkpt>
      <trkpt lat="43.13231" lon="3.12506">
        <ele>-0.60000002384186</ele>
        <time>2014-11-23T13:15:16.000Z</time>
      </trkpt>
      <trkpt lat="43.1324" lon="3.12512">
        <ele>-0.60000002384186</ele>
        <time>2014-11-23T13:15:18.000Z</time>
      </trkpt>
      <trkpt lat="43.13255" lon="3.12519">
        <ele>-0.60000002384186</ele>
        <time>2014-11-23T13:15:21.000Z</time>
      </trkpt>
      <trkpt lat="43.1326" lon="3.12523">
        <ele>-0.60000002384186</ele>
        <time>2014-11-23T13:15:22.000Z</time>
      </trkpt>
      <trkpt lat="43.13269" lon="3.12539">
        <ele>-0.60000002384186</ele>
        <time>2014-11-23T13:15:25.000Z</time>
      </trkpt>
      <trkpt lat="43.13272" lon="3.12552">
        <ele>-0.60000002384186</ele>
        <time>2014-11-23T13:15:27.000Z</time>
      </trkpt>
      <trkpt lat="43.13273" lon="3.12558">
        <ele>-0.60000002384186</ele>
        <time>2014-11-23T13:15:28.000Z</time>
      </trkpt>
      <trkpt lat="43.13275" lon="3.12569">
        <ele>-0.60000002384186</ele>
        <time>2014-11-23T13:15:30.000Z</time>
      </trkpt>
      <trkpt lat="43.13276" lon="3.1258">
        <ele>-0.60000002384186</ele>
        <time>2014-11-23T13:15:32.000Z</time>
      </trkpt>
      <trkpt lat="43.13279" lon="3.12597">
        <ele>-0.60000002384186</ele>
        <time>2014-11-23T13:15:35.000Z</time>
      </trkpt>
      <trkpt lat="43.1328" lon="3.12602">
        <ele>-0.60000002384186</ele>
        <time>2014-11-23T13:15:36.000Z</time>
      </trkpt>
      <trkpt lat="43.13285" lon="3.12622">
        <ele>-0.60000002384186</ele>
        <time>2014-11-23T13:15:40.000Z</time>
      </trkpt>
      <trkpt lat="43.13293" lon="3.12636">
        <ele>-0.60000002384186</ele>
        <time>2014-11-23T13:15:43.000Z</time>
      </trkpt>
      <trkpt lat="43.13297" lon="3.12639">
        <ele>-0.60000002384186</ele>
        <time>2014-11-23T13:15:44.000Z</time>
      </trkpt>
      <trkpt lat="43.13301" lon="3.12643">
        <ele>-0.60000002384186</ele>
        <time>2014-11-23T13:15:45.000Z</time>
      </trkpt>
      <trkpt lat="43.13313" lon="3.12658">
        <ele>-0.60000002384186</ele>
        <time>2014-11-23T13:15:48.000Z</time>
      </trkpt>
      <trkpt lat="43.13341" lon="3.12687">
        <ele>-0.60000002384186</ele>
        <time>2014-11-23T13:15:54.000Z</time>
      </trkpt>
      <trkpt lat="43.13359" lon="3.12704">
        <ele>-1</ele>
        <time>2014-11-23T13:15:58.000Z</time>
      </trkpt>
      <trkpt lat="43.13364" lon="3.12707">
        <ele>-1.3999999761581</ele>
        <time>2014-11-23T13:15:59.000Z</time>
      </trkpt>
      <trkpt lat="43.13369" lon="3.12708">
        <ele>-1.7999999523163</ele>
        <time>2014-11-23T13:16:00.000Z</time>
      </trkpt>
      <trkpt lat="43.13375" lon="3.12708">
        <ele>-2.2000000476837</ele>
        <time>2014-11-23T13:16:01.000Z</time>
      </trkpt>
      <trkpt lat="43.1338" lon="3.12707">
        <ele>-2.5999999046326</ele>
        <time>2014-11-23T13:16:02.000Z</time>
      </trkpt>
      <trkpt lat="43.13385" lon="3.12706">
        <ele>-2.5999999046326</ele>
        <time>2014-11-23T13:16:03.000Z</time>
      </trkpt>
      <trkpt lat="43.1339" lon="3.12705">
        <ele>-2.5999999046326</ele>
        <time>2014-11-23T13:16:04.000Z</time>
      </trkpt>
      <trkpt lat="43.13404" lon="3.12703">
        <ele>-2.5999999046326</ele>
        <time>2014-11-23T13:16:07.000Z</time>
      </trkpt>
      <trkpt lat="43.13409" lon="3.12703">
        <ele>-2.5999999046326</ele>
        <time>2014-11-23T13:16:08.000Z</time>
      </trkpt>
      <trkpt lat="43.13421" lon="3.12712">
        <ele>-2.5999999046326</ele>
        <time>2014-11-23T13:16:11.000Z</time>
      </trkpt>
      <trkpt lat="43.13425" lon="3.12717">
        <ele>-2.5999999046326</ele>
        <time>2014-11-23T13:16:12.000Z</time>
      </trkpt>
      <trkpt lat="43.13437" lon="3.12737">
        <ele>-2.5999999046326</ele>
        <time>2014-11-23T13:16:16.000Z</time>
      </trkpt>
      <trkpt lat="43.13442" lon="3.12741">
        <ele>-2.5999999046326</ele>
        <time>2014-11-23T13:16:17.000Z</time>
      </trkpt>
      <trkpt lat="43.13455" lon="3.12748">
        <ele>-2.5999999046326</ele>
        <time>2014-11-23T13:16:20.000Z</time>
      </trkpt>
      <trkpt lat="43.1346" lon="3.1275">
        <ele>-2.5999999046326</ele>
        <time>2014-11-23T13:16:21.000Z</time>
      </trkpt>
      <trkpt lat="43.13464" lon="3.12752">
        <ele>-2.5999999046326</ele>
        <time>2014-11-23T13:16:22.000Z</time>
      </trkpt>
      <trkpt lat="43.13482" lon="3.12763">
        <ele>-2.5999999046326</ele>
        <time>2014-11-23T13:16:26.000Z</time>
      </trkpt>
      <trkpt lat="43.13521" lon="3.12783">
        <ele>-2.5999999046326</ele>
        <time>2014-11-23T13:16:34.000Z</time>
      </trkpt>
      <trkpt lat="43.13535" lon="3.12793">
        <ele>-2.5999999046326</ele>
        <time>2014-11-23T13:16:37.000Z</time>
      </trkpt>
      <trkpt lat="43.13542" lon="3.12805">
        <ele>-2.5999999046326</ele>
        <time>2014-11-23T13:16:39.000Z</time>
      </trkpt>
      <trkpt lat="43.13546" lon="3.12817">
        <ele>-2.5999999046326</ele>
        <time>2014-11-23T13:16:41.000Z</time>
      </trkpt>
      <trkpt lat="43.13548" lon="3.12823">
        <ele>-2.5999999046326</ele>
        <time>2014-11-23T13:16:42.000Z</time>
      </trkpt>
      <trkpt lat="43.13555" lon="3.1283">
        <ele>-2.5999999046326</ele>
        <time>2014-11-23T13:16:44.000Z</time>
      </trkpt>
      <trkpt lat="43.13573" lon="3.12832">
        <ele>-2.5999999046326</ele>
        <time>2014-11-23T13:16:48.000Z</time>
      </trkpt>
      <trkpt lat="43.13577" lon="3.12831">
        <ele>-2.5999999046326</ele>
        <time>2014-11-23T13:16:49.000Z</time>
      </trkpt>
      <trkpt lat="43.13588" lon="3.12834">
        <ele>-2.5999999046326</ele>
        <time>2014-11-23T13:16:52.000Z</time>
      </trkpt>
      <trkpt lat="43.13594" lon="3.12852">
        <ele>-2.5999999046326</ele>
        <time>2014-11-23T13:16:55.000Z</time>
      </trkpt>
      <trkpt lat="43.13595" lon="3.12859">
        <ele>-2.5999999046326</ele>
        <time>2014-11-23T13:16:56.000Z</time>
      </trkpt>
      <trkpt lat="43.13596" lon="3.12866">
        <ele>-2.5999999046326</ele>
        <time>2014-11-23T13:16:57.000Z</time>
      </trkpt>
      <trkpt lat="43.13601" lon="3.12879">
        <ele>-2.5999999046326</ele>
        <time>2014-11-23T13:16:59.000Z</time>
      </trkpt>
      <trkpt lat="43.13606" lon="3.12892">
        <ele>-2.5999999046326</ele>
        <time>2014-11-23T13:17:01.000Z</time>
      </trkpt>
      <trkpt lat="43.13613" lon="3.12911">
        <ele>-2.5999999046326</ele>
        <time>2014-11-23T13:17:04.000Z</time>
      </trkpt>
      <trkpt lat="43.13618" lon="3.12931">
        <ele>-2.5999999046326</ele>
        <time>2014-11-23T13:17:07.000Z</time>
      </trkpt>
      <trkpt lat="43.13625" lon="3.12942">
        <ele>-2.5999999046326</ele>
        <time>2014-11-23T13:17:09.000Z</time>
      </trkpt>
      <trkpt lat="43.13641" lon="3.12959">
        <ele>-2.5999999046326</ele>
        <time>2014-11-23T13:17:13.000Z</time>
      </trkpt>
      <trkpt lat="43.13651" lon="3.12965">
        <ele>-2.5999999046326</ele>
        <time>2014-11-23T13:17:15.000Z</time>
      </trkpt>
      <trkpt lat="43.13668" lon="3.12982">
        <ele>-2.5999999046326</ele>
        <time>2014-11-23T13:17:19.000Z</time>
      </trkpt>
      <trkpt lat="43.13672" lon="3.12987">
        <ele>-2.5999999046326</ele>
        <time>2014-11-23T13:17:20.000Z</time>
      </trkpt>
      <trkpt lat="43.13683" lon="3.13001">
        <ele>-2.5999999046326</ele>
        <time>2014-11-23T13:17:23.000Z</time>
      </trkpt>
      <trkpt lat="43.13693" lon="3.13016">
        <ele>-2.5999999046326</ele>
        <time>2014-11-23T13:17:26.000Z</time>
      </trkpt>
      <trkpt lat="43.13717" lon="3.13046">
        <ele>-2.5999999046326</ele>
        <time>2014-11-23T13:17:33.000Z</time>
      </trkpt>
      <trkpt lat="43.13734" lon="3.13063">
        <ele>-2.5999999046326</ele>
        <time>2014-11-23T13:17:38.000Z</time>
      </trkpt>
      <trkpt lat="43.13738" lon="3.13066">
        <ele>-2.5999999046326</ele>
        <time>2014-11-23T13:17:39.000Z</time>
      </trkpt>
      <trkpt lat="43.13754" lon="3.13075">
        <ele>-2.5999999046326</ele>
        <time>2014-11-23T13:17:43.000Z</time>
      </trkpt>
      <trkpt lat="43.13763" lon="3.13078">
        <ele>-2.5999999046326</ele>
        <time>2014-11-23T13:17:45.000Z</time>
      </trkpt>
      <trkpt lat="43.13772" lon="3.13079">
        <ele>-2.5999999046326</ele>
        <time>2014-11-23T13:17:47.000Z</time>
      </trkpt>
      <trkpt lat="43.13788" lon="3.1308">
        <ele>-2.5999999046326</ele>
        <time>2014-11-23T13:17:51.000Z</time>
      </trkpt>
      <trkpt lat="43.13816" lon="3.13083">
        <ele>-2.5999999046326</ele>
        <time>2014-11-23T13:17:58.000Z</time>
      </trkpt>
      <trkpt lat="43.13837" lon="3.13085">
        <ele>-2.5999999046326</ele>
        <time>2014-11-23T13:18:03.000Z</time>
      </trkpt>
      <trkpt lat="43.13845" lon="3.13085">
        <ele>-2.5999999046326</ele>
        <time>2014-11-23T13:18:05.000Z</time>
      </trkpt>
      <trkpt lat="43.1388" lon="3.1309">
        <ele>-2.5999999046326</ele>
        <time>2014-11-23T13:18:13.000Z</time>
      </trkpt>
      <trkpt lat="43.13908" lon="3.13093">
        <ele>-2.5999999046326</ele>
        <time>2014-11-23T13:18:19.000Z</time>
      </trkpt>
      <trkpt lat="43.1395" lon="3.13101">
        <ele>-2.5999999046326</ele>
        <time>2014-11-23T13:18:28.000Z</time>
      </trkpt>
      <trkpt lat="43.13954" lon="3.13102">
        <ele>-2.5999999046326</ele>
        <time>2014-11-23T13:18:29.000Z</time>
      </trkpt>
      <trkpt lat="43.13963" lon="3.13107">
        <ele>-2.5999999046326</ele>
        <time>2014-11-23T13:18:31.000Z</time>
      </trkpt>
      <trkpt lat="43.13971" lon="3.13113">
        <ele>-2.5999999046326</ele>
        <time>2014-11-23T13:18:33.000Z</time>
      </trkpt>
      <trkpt lat="43.14003" lon="3.13139">
        <ele>-2.5999999046326</ele>
        <time>2014-11-23T13:18:41.000Z</time>
      </trkpt>
      <trkpt lat="43.14038" lon="3.13161">
        <ele>-2.5999999046326</ele>
        <time>2014-11-23T13:18:49.000Z</time>
      </trkpt>
      <trkpt lat="43.14074" lon="3.1318">
        <ele>-2.5999999046326</ele>
        <time>2014-11-23T13:18:57.000Z</time>
      </trkpt>
      <trkpt lat="43.14111" lon="3.13192">
        <ele>-2.5999999046326</ele>
        <time>2014-11-23T13:19:05.000Z</time>
      </trkpt>
      <trkpt lat="43.14115" lon="3.13192">
        <ele>-2.5999999046326</ele>
        <time>2014-11-23T13:19:06.000Z</time>
      </trkpt>
      <trkpt lat="43.14124" lon="3.13192">
        <ele>-2.5999999046326</ele>
        <time>2014-11-23T13:19:08.000Z</time>
      </trkpt>
      <trkpt lat="43.14141" lon="3.13188">
        <ele>-2.5999999046326</ele>
        <time>2014-11-23T13:19:12.000Z</time>
      </trkpt>
      <trkpt lat="43.14157" lon="3.13186">
        <ele>-2.5999999046326</ele>
        <time>2014-11-23T13:19:16.000Z</time>
      </trkpt>
      <trkpt lat="43.14165" lon="3.13188">
        <ele>-2.5999999046326</ele>
        <time>2014-11-23T13:19:18.000Z</time>
      </trkpt>
      <trkpt lat="43.14181" lon="3.13202">
        <ele>-2.5999999046326</ele>
        <time>2014-11-23T13:19:23.000Z</time>
      </trkpt>
      <trkpt lat="43.14188" lon="3.13208">
        <ele>-2.5999999046326</ele>
        <time>2014-11-23T13:19:25.000Z</time>
      </trkpt>
      <trkpt lat="43.14201" lon="3.13217">
        <ele>-2.5999999046326</ele>
        <time>2014-11-23T13:19:29.000Z</time>
      </trkpt>
      <trkpt lat="43.14227" lon="3.13227">
        <ele>-2.5999999046326</ele>
        <time>2014-11-23T13:19:36.000Z</time>
      </trkpt>
      <trkpt lat="43.14249" lon="3.13238">
        <ele>-2.5999999046326</ele>
        <time>2014-11-23T13:19:41.000Z</time>
      </trkpt>
      <trkpt lat="43.14275" lon="3.13258">
        <ele>-2.5999999046326</ele>
        <time>2014-11-23T13:19:47.000Z</time>
      </trkpt>
      <trkpt lat="43.14279" lon="3.13262">
        <ele>-2.5999999046326</ele>
        <time>2014-11-23T13:19:48.000Z</time>
      </trkpt>
      <trkpt lat="43.14302" lon="3.13288">
        <ele>-2.5999999046326</ele>
        <time>2014-11-23T13:19:54.000Z</time>
      </trkpt>
      <trkpt lat="43.14307" lon="3.1329">
        <ele>-2.5999999046326</ele>
        <time>2014-11-23T13:19:55.000Z</time>
      </trkpt>
      <trkpt lat="43.14332" lon="3.13299">
        <ele>-2.5999999046326</ele>
        <time>2014-11-23T13:20:00.000Z</time>
      </trkpt>
      <trkpt lat="43.14373" lon="3.13317">
        <ele>-2.5999999046326</ele>
        <time>2014-11-23T13:20:08.000Z</time>
      </trkpt>
      <trkpt lat="43.14413" lon="3.13333">
        <ele>-2.5999999046326</ele>
        <time>2014-11-23T13:20:16.000Z</time>
      </trkpt>
      <trkpt lat="43.14446" lon="3.1335">
        <ele>-2.5999999046326</ele>
        <time>2014-11-23T13:20:23.000Z</time>
      </trkpt>
      <trkpt lat="43.14473" lon="3.13371">
        <ele>-2.5999999046326</ele>
        <time>2014-11-23T13:20:30.000Z</time>
      </trkpt>
      <trkpt lat="43.1448" lon="3.13377">
        <ele>-2.5999999046326</ele>
        <time>2014-11-23T13:20:32.000Z</time>
      </trkpt>
      <trkpt lat="43.14492" lon="3.13392">
        <ele>-2.5999999046326</ele>
        <time>2014-11-23T13:20:36.000Z</time>
      </trkpt>
      <trkpt lat="43.14511" lon="3.13405">
        <ele>-2.5999999046326</ele>
        <time>2014-11-23T13:20:42.000Z</time>
      </trkpt>
      <trkpt lat="43.14514" lon="3.13406">
        <ele>-2.2000000476837</ele>
        <time>2014-11-23T13:20:43.000Z</time>
      </trkpt>
      <trkpt lat="43.14517" lon="3.13407">
        <ele>-1.7999999523163</ele>
        <time>2014-11-23T13:20:44.000Z</time>
      </trkpt>
      <trkpt lat="43.14521" lon="3.13407">
        <ele>-1.3999999761581</ele>
        <time>2014-11-23T13:20:45.000Z</time>
      </trkpt>
      <trkpt lat="43.14525" lon="3.13408">
        <ele>-1</ele>
        <time>2014-11-23T13:20:46.000Z</time>
      </trkpt>
      <trkpt lat="43.14528" lon="3.13407">
        <ele>-0.60000002384186</ele>
        <time>2014-11-23T13:20:47.000Z</time>
      </trkpt>
      <trkpt lat="43.14532" lon="3.13406">
        <ele>-0.60000002384186</ele>
        <time>2014-11-23T13:20:48.000Z</time>
      </trkpt>
      <trkpt lat="43.14544" lon="3.13392">
        <ele>-0.60000002384186</ele>
        <time>2014-11-23T13:20:52.000Z</time>
      </trkpt>
      <trkpt lat="43.1456" lon="3.13366">
        <ele>-0.60000002384186</ele>
        <time>2014-11-23T13:20:58.000Z</time>
      </trkpt>
      <trkpt lat="43.14569" lon="3.13353">
        <ele>-0.60000002384186</ele>
        <time>2014-11-23T13:21:01.000Z</time>
      </trkpt>
      <trkpt lat="43.14577" lon="3.13341">
        <ele>-0.60000002384186</ele>
        <time>2014-11-23T13:21:04.000Z</time>
      </trkpt>
      <trkpt lat="43.14591" lon="3.13338">
        <ele>-0.60000002384186</ele>
        <time>2014-11-23T13:21:08.000Z</time>
      </trkpt>
      <trkpt lat="43.146" lon="3.13351">
        <ele>-0.60000002384186</ele>
        <time>2014-11-23T13:21:11.000Z</time>
      </trkpt>
      <trkpt lat="43.14601" lon="3.13361">
        <ele>-0.60000002384186</ele>
        <time>2014-11-23T13:21:13.000Z</time>
      </trkpt>
      <trkpt lat="43.14604" lon="3.13387">
        <ele>-0.60000002384186</ele>
        <time>2014-11-23T13:21:18.000Z</time>
      </trkpt>
      <trkpt lat="43.14607" lon="3.1341">
        <ele>-0.60000002384186</ele>
        <time>2014-11-23T13:21:23.000Z</time>
      </trkpt>
      <trkpt lat="43.14612" lon="3.13447">
        <ele>-1</ele>
        <time>2014-11-23T13:21:29.000Z</time>
      </trkpt>
      <trkpt lat="43.14613" lon="3.13454">
        <ele>-1.3999999761581</ele>
        <time>2014-11-23T13:21:30.000Z</time>
      </trkpt>
      <trkpt lat="43.14613" lon="3.13461">
        <ele>-1.7999999523163</ele>
        <time>2014-11-23T13:21:31.000Z</time>
      </trkpt>
      <trkpt lat="43.14614" lon="3.13468">
        <ele>-2.2000000476837</ele>
        <time>2014-11-23T13:21:32.000Z</time>
      </trkpt>
      <trkpt lat="43.14615" lon="3.13474">
        <ele>-2.5999999046326</ele>
        <time>2014-11-23T13:21:33.000Z</time>
      </trkpt>
      <trkpt lat="43.14615" lon="3.13481">
        <ele>-2.5999999046326</ele>
        <time>2014-11-23T13:21:34.000Z</time>
      </trkpt>
      <trkpt lat="43.14617" lon="3.13494">
        <ele>-2.5999999046326</ele>
        <time>2014-11-23T13:21:36.000Z</time>
      </trkpt>
      <trkpt lat="43.14622" lon="3.13521">
        <ele>-2.5999999046326</ele>
        <time>2014-11-23T13:21:40.000Z</time>
      </trkpt>
      <trkpt lat="43.14623" lon="3.13528">
        <ele>-2.5999999046326</ele>
        <time>2014-11-23T13:21:41.000Z</time>
      </trkpt>
      <trkpt lat="43.14626" lon="3.13554">
        <ele>-2.5999999046326</ele>
        <time>2014-11-23T13:21:45.000Z</time>
      </trkpt>
      <trkpt lat="43.14631" lon="3.13597">
        <ele>-2.5999999046326</ele>
        <time>2014-11-23T13:21:51.000Z</time>
      </trkpt>
      <trkpt lat="43.14632" lon="3.13604">
        <ele>-2.5999999046326</ele>
        <time>2014-11-23T13:21:52.000Z</time>
      </trkpt>
      <trkpt lat="43.14641" lon="3.1362">
        <ele>-2.5999999046326</ele>
        <time>2014-11-23T13:21:55.000Z</time>
      </trkpt>
      <trkpt lat="43.1465" lon="3.13628">
        <ele>-2.5999999046326</ele>
        <time>2014-11-23T13:21:57.000Z</time>
      </trkpt>
      <trkpt lat="43.14666" lon="3.13643">
        <ele>-2.5999999046326</ele>
        <time>2014-11-23T13:22:01.000Z</time>
      </trkpt>
      <trkpt lat="43.1469" lon="3.13674">
        <ele>-2.5999999046326</ele>
        <time>2014-11-23T13:22:08.000Z</time>
      </trkpt>
      <trkpt lat="43.14714" lon="3.13713">
        <ele>-2.5999999046326</ele>
        <time>2014-11-23T13:22:16.000Z</time>
      </trkpt>
      <trkpt lat="43.14726" lon="3.13733">
        <ele>-2.5999999046326</ele>
        <time>2014-11-23T13:22:20.000Z</time>
      </trkpt>
      <trkpt lat="43.14729" lon="3.13739">
        <ele>-2.5999999046326</ele>
        <time>2014-11-23T13:22:21.000Z</time>
      </trkpt>
      <trkpt lat="43.14744" lon="3.13767">
        <ele>-2.5999999046326</ele>
        <time>2014-11-23T13:22:26.000Z</time>
      </trkpt>
      <trkpt lat="43.14747" lon="3.13773">
        <ele>-2.5999999046326</ele>
        <time>2014-11-23T13:22:27.000Z</time>
      </trkpt>
      <trkpt lat="43.14759" lon="3.13796">
        <ele>-2.5999999046326</ele>
        <time>2014-11-23T13:22:31.000Z</time>
      </trkpt>
      <trkpt lat="43.1477" lon="3.13819">
        <ele>-2.5999999046326</ele>
        <time>2014-11-23T13:22:35.000Z</time>
      </trkpt>
      <trkpt lat="43.14775" lon="3.13836">
        <ele>-2.5999999046326</ele>
        <time>2014-11-23T13:22:38.000Z</time>
      </trkpt>
      <trkpt lat="43.14778" lon="3.13847">
        <ele>-2.5999999046326</ele>
        <time>2014-11-23T13:22:40.000Z</time>
      </trkpt>
      <trkpt lat="43.14784" lon="3.13875">
        <ele>-2.5999999046326</ele>
        <time>2014-11-23T13:22:45.000Z</time>
      </trkpt>
      <trkpt lat="43.14793" lon="3.13906">
        <ele>-2.5999999046326</ele>
        <time>2014-11-23T13:22:50.000Z</time>
      </trkpt>
      <trkpt lat="43.14799" lon="3.13916">
        <ele>-2.5999999046326</ele>
        <time>2014-11-23T13:22:52.000Z</time>
      </trkpt>
      <trkpt lat="43.14815" lon="3.13934">
        <ele>-2.5999999046326</ele>
        <time>2014-11-23T13:22:56.000Z</time>
      </trkpt>
      <trkpt lat="43.14818" lon="3.1394">
        <ele>-2.5999999046326</ele>
        <time>2014-11-23T13:22:57.000Z</time>
      </trkpt>
      <trkpt lat="43.14821" lon="3.13945">
        <ele>-2.5999999046326</ele>
        <time>2014-11-23T13:22:58.000Z</time>
      </trkpt>
      <trkpt lat="43.14833" lon="3.13974">
        <ele>-2.5999999046326</ele>
        <time>2014-11-23T13:23:03.000Z</time>
      </trkpt>
      <trkpt lat="43.14847" lon="3.1401">
        <ele>-2.5999999046326</ele>
        <time>2014-11-23T13:23:10.000Z</time>
      </trkpt>
      <trkpt lat="43.1486" lon="3.14045">
        <ele>-2.5999999046326</ele>
        <time>2014-11-23T13:23:17.000Z</time>
      </trkpt>
      <trkpt lat="43.14876" lon="3.14082">
        <ele>-2.5999999046326</ele>
        <time>2014-11-23T13:23:24.000Z</time>
      </trkpt>
      <trkpt lat="43.14886" lon="3.14103">
        <ele>-2.5999999046326</ele>
        <time>2014-11-23T13:23:28.000Z</time>
      </trkpt>
      <trkpt lat="43.14893" lon="3.1412">
        <ele>-2.5999999046326</ele>
        <time>2014-11-23T13:23:31.000Z</time>
      </trkpt>
      <trkpt lat="43.1491" lon="3.14166">
        <ele>-2.5999999046326</ele>
        <time>2014-11-23T13:23:39.000Z</time>
      </trkpt>
      <trkpt lat="43.14918" lon="3.14189">
        <ele>-2.5999999046326</ele>
        <time>2014-11-23T13:23:43.000Z</time>
      </trkpt>
      <trkpt lat="43.14919" lon="3.142">
        <ele>-2.5999999046326</ele>
        <time>2014-11-23T13:23:45.000Z</time>
      </trkpt>
      <trkpt lat="43.14912" lon="3.14217">
        <ele>-2.5999999046326</ele>
        <time>2014-11-23T13:23:48.000Z</time>
      </trkpt>
      <trkpt lat="43.14909" lon="3.14221">
        <ele>-2.5999999046326</ele>
        <time>2014-11-23T13:23:49.000Z</time>
      </trkpt>
      <trkpt lat="43.14906" lon="3.14226">
        <ele>-2.5999999046326</ele>
        <time>2014-11-23T13:23:50.000Z</time>
      </trkpt>
      <trkpt lat="43.14888" lon="3.14247">
        <ele>-2.5999999046326</ele>
        <time>2014-11-23T13:23:55.000Z</time>
      </trkpt>
      <trkpt lat="43.14881" lon="3.14256">
        <ele>-2.5999999046326</ele>
        <time>2014-11-23T13:23:57.000Z</time>
      </trkpt>
      <trkpt lat="43.1487" lon="3.14272">
        <ele>-2.5999999046326</ele>
        <time>2014-11-23T13:24:00.000Z</time>
      </trkpt>
      <trkpt lat="43.14842" lon="3.1431">
        <ele>-2.5999999046326</ele>
        <time>2014-11-23T13:24:07.000Z</time>
      </trkpt>
      <trkpt lat="43.14813" lon="3.14338">
        <ele>-2.5999999046326</ele>
        <time>2014-11-23T13:24:13.000Z</time>
      </trkpt>
      <trkpt lat="43.1481" lon="3.14344">
        <ele>-2.5999999046326</ele>
        <time>2014-11-23T13:24:14.000Z</time>
      </trkpt>
      <trkpt lat="43.14806" lon="3.14366">
        <ele>-2.5999999046326</ele>
        <time>2014-11-23T13:24:17.000Z</time>
      </trkpt>
      <trkpt lat="43.14811" lon="3.14388">
        <ele>-2.5999999046326</ele>
        <time>2014-11-23T13:24:20.000Z</time>
      </trkpt>
      <trkpt lat="43.14817" lon="3.144">
        <ele>-2.5999999046326</ele>
        <time>2014-11-23T13:24:22.000Z</time>
      </trkpt>
      <trkpt lat="43.14834" lon="3.14438">
        <ele>-2.5999999046326</ele>
        <time>2014-11-23T13:24:28.000Z</time>
      </trkpt>
      <trkpt lat="43.14846" lon="3.14463">
        <ele>-2.5999999046326</ele>
        <time>2014-11-23T13:24:32.000Z</time>
      </trkpt>
      <trkpt lat="43.14855" lon="3.14471">
        <ele>-2.5999999046326</ele>
        <time>2014-11-23T13:24:34.000Z</time>
      </trkpt>
      <trkpt lat="43.14865" lon="3.14476">
        <ele>-2.5999999046326</ele>
        <time>2014-11-23T13:24:36.000Z</time>
      </trkpt>
      <trkpt lat="43.14874" lon="3.14483">
        <ele>-2.5999999046326</ele>
        <time>2014-11-23T13:24:38.000Z</time>
      </trkpt>
      <trkpt lat="43.14883" lon="3.14492">
        <ele>-2.5999999046326</ele>
        <time>2014-11-23T13:24:40.000Z</time>
      </trkpt>
      <trkpt lat="43.14892" lon="3.14518">
        <ele>-2.5999999046326</ele>
        <time>2014-11-23T13:24:44.000Z</time>
      </trkpt>
      <trkpt lat="43.14893" lon="3.14525">
        <ele>-2.5999999046326</ele>
        <time>2014-11-23T13:24:45.000Z</time>
      </trkpt>
      <trkpt lat="43.14905" lon="3.14569">
        <ele>-2.5999999046326</ele>
        <time>2014-11-23T13:24:52.000Z</time>
      </trkpt>
      <trkpt lat="43.1492" lon="3.14618">
        <ele>-2.5999999046326</ele>
        <time>2014-11-23T13:25:00.000Z</time>
      </trkpt>
      <trkpt lat="43.14928" lon="3.14635">
        <ele>-2.5999999046326</ele>
        <time>2014-11-23T13:25:03.000Z</time>
      </trkpt>
      <trkpt lat="43.14936" lon="3.14651">
        <ele>-2.5999999046326</ele>
        <time>2014-11-23T13:25:06.000Z</time>
      </trkpt>
      <trkpt lat="43.14952" lon="3.1468">
        <ele>-2.5999999046326</ele>
        <time>2014-11-23T13:25:12.000Z</time>
      </trkpt>
      <trkpt lat="43.14955" lon="3.14685">
        <ele>-2.5999999046326</ele>
        <time>2014-11-23T13:25:13.000Z</time>
      </trkpt>
      <trkpt lat="43.14967" lon="3.14704">
        <ele>-2.5999999046326</ele>
        <time>2014-11-23T13:25:17.000Z</time>
      </trkpt>
      <trkpt lat="43.14973" lon="3.14713">
        <ele>-2.5999999046326</ele>
        <time>2014-11-23T13:25:19.000Z</time>
      </trkpt>
      <trkpt lat="43.14983" lon="3.14726">
        <ele>-2.5999999046326</ele>
        <time>2014-11-23T13:25:22.000Z</time>
      </trkpt>
      <trkpt lat="43.14991" lon="3.14738">
        <ele>-2.5999999046326</ele>
        <time>2014-11-23T13:25:25.000Z</time>
      </trkpt>
      <trkpt lat="43.15003" lon="3.14756">
        <ele>-2.5999999046326</ele>
        <time>2014-11-23T13:25:30.000Z</time>
      </trkpt>
      <trkpt lat="43.15017" lon="3.14776">
        <ele>-2.5999999046326</ele>
        <time>2014-11-23T13:25:36.000Z</time>
      </trkpt>
      <trkpt lat="43.15027" lon="3.14791">
        <ele>-2.5999999046326</ele>
        <time>2014-11-23T13:25:42.000Z</time>
      </trkpt>
      <trkpt lat="43.15036" lon="3.14804">
        <ele>-2.5999999046326</ele>
        <time>2014-11-23T13:25:46.000Z</time>
      </trkpt>
      <trkpt lat="43.15049" lon="3.14827">
        <ele>-2.5999999046326</ele>
        <time>2014-11-23T13:25:51.000Z</time>
      </trkpt>
      <trkpt lat="43.15058" lon="3.14841">
        <ele>-2.5999999046326</ele>
        <time>2014-11-23T13:25:54.000Z</time>
      </trkpt>
      <trkpt lat="43.15067" lon="3.14856">
        <ele>-2.5999999046326</ele>
        <time>2014-11-23T13:25:57.000Z</time>
      </trkpt>
      <trkpt lat="43.15084" lon="3.14885">
        <ele>-2.5999999046326</ele>
        <time>2014-11-23T13:26:03.000Z</time>
      </trkpt>
      <trkpt lat="43.15093" lon="3.14897">
        <ele>-2.5999999046326</ele>
        <time>2014-11-23T13:26:06.000Z</time>
      </trkpt>
      <trkpt lat="43.15099" lon="3.14907">
        <ele>-2.5999999046326</ele>
        <time>2014-11-23T13:26:08.000Z</time>
      </trkpt>
      <trkpt lat="43.15114" lon="3.14931">
        <ele>-2.5999999046326</ele>
        <time>2014-11-23T13:26:13.000Z</time>
      </trkpt>
      <trkpt lat="43.1512" lon="3.14941">
        <ele>-2.5999999046326</ele>
        <time>2014-11-23T13:26:15.000Z</time>
      </trkpt>
      <trkpt lat="43.15137" lon="3.14962">
        <ele>-2.5999999046326</ele>
        <time>2014-11-23T13:26:20.000Z</time>
      </trkpt>
      <trkpt lat="43.15147" lon="3.14963">
        <ele>-2.5999999046326</ele>
        <time>2014-11-23T13:26:22.000Z</time>
      </trkpt>
      <trkpt lat="43.15156" lon="3.14963">
        <ele>-2.5999999046326</ele>
        <time>2014-11-23T13:26:24.000Z</time>
      </trkpt>
      <trkpt lat="43.15188" lon="3.1496">
        <ele>-2.5999999046326</ele>
        <time>2014-11-23T13:26:31.000Z</time>
      </trkpt>
      <trkpt lat="43.15211" lon="3.14953">
        <ele>-2.5999999046326</ele>
        <time>2014-11-23T13:26:36.000Z</time>
      </trkpt>
      <trkpt lat="43.15225" lon="3.14948">
        <ele>-2.5999999046326</ele>
        <time>2014-11-23T13:26:39.000Z</time>
      </trkpt>
      <trkpt lat="43.15234" lon="3.14949">
        <ele>-2.5999999046326</ele>
        <time>2014-11-23T13:26:41.000Z</time>
      </trkpt>
      <trkpt lat="43.15242" lon="3.14964">
        <ele>-2.5999999046326</ele>
        <time>2014-11-23T13:26:44.000Z</time>
      </trkpt>
      <trkpt lat="43.15238" lon="3.14984">
        <ele>-2.5999999046326</ele>
        <time>2014-11-23T13:26:47.000Z</time>
      </trkpt>
      <trkpt lat="43.15233" lon="3.15004">
        <ele>-2.5999999046326</ele>
        <time>2014-11-23T13:26:50.000Z</time>
      </trkpt>
      <trkpt lat="43.15233" lon="3.15011">
        <ele>-2.5999999046326</ele>
        <time>2014-11-23T13:26:51.000Z</time>
      </trkpt>
      <trkpt lat="43.15233" lon="3.15018">
        <ele>-2.5999999046326</ele>
        <time>2014-11-23T13:26:52.000Z</time>
      </trkpt>
      <trkpt lat="43.15235" lon="3.15039">
        <ele>-2.5999999046326</ele>
        <time>2014-11-23T13:26:55.000Z</time>
      </trkpt>
      <trkpt lat="43.15238" lon="3.15053">
        <ele>-2.5999999046326</ele>
        <time>2014-11-23T13:26:57.000Z</time>
      </trkpt>
      <trkpt lat="43.1524" lon="3.15059">
        <ele>-2.5999999046326</ele>
        <time>2014-11-23T13:26:58.000Z</time>
      </trkpt>
      <trkpt lat="43.15249" lon="3.15077">
        <ele>-2.5999999046326</ele>
        <time>2014-11-23T13:27:01.000Z</time>
      </trkpt>
      <trkpt lat="43.15256" lon="3.15086">
        <ele>-2.5999999046326</ele>
        <time>2014-11-23T13:27:03.000Z</time>
      </trkpt>
      <trkpt lat="43.15269" lon="3.15097">
        <ele>-2.5999999046326</ele>
        <time>2014-11-23T13:27:06.000Z</time>
      </trkpt>
      <trkpt lat="43.15285" lon="3.15113">
        <ele>-2.5999999046326</ele>
        <time>2014-11-23T13:27:10.000Z</time>
      </trkpt>
      <trkpt lat="43.15295" lon="3.15128">
        <ele>-2.5999999046326</ele>
        <time>2014-11-23T13:27:13.000Z</time>
      </trkpt>
      <trkpt lat="43.15297" lon="3.15133">
        <ele>-2.5999999046326</ele>
        <time>2014-11-23T13:27:14.000Z</time>
      </trkpt>
      <trkpt lat="43.15302" lon="3.15153">
        <ele>-2.5999999046326</ele>
        <time>2014-11-23T13:27:17.000Z</time>
      </trkpt>
      <trkpt lat="43.15304" lon="3.15159">
        <ele>-2.5999999046326</ele>
        <time>2014-11-23T13:27:18.000Z</time>
      </trkpt>
      <trkpt lat="43.15314" lon="3.15189">
        <ele>-2.5999999046326</ele>
        <time>2014-11-23T13:27:23.000Z</time>
      </trkpt>
      <trkpt lat="43.15322" lon="3.15214">
        <ele>-2.5999999046326</ele>
        <time>2014-11-23T13:27:27.000Z</time>
      </trkpt>
      <trkpt lat="43.15326" lon="3.15226">
        <ele>-2.5999999046326</ele>
        <time>2014-11-23T13:27:29.000Z</time>
      </trkpt>
      <trkpt lat="43.15328" lon="3.15232">
        <ele>-2.5999999046326</ele>
        <time>2014-11-23T13:27:30.000Z</time>
      </trkpt>
      <trkpt lat="43.15342" lon="3.15266">
        <ele>-2.5999999046326</ele>
        <time>2014-11-23T13:27:36.000Z</time>
      </trkpt>
      <trkpt lat="43.15348" lon="3.15276">
        <ele>-2.5999999046326</ele>
        <time>2014-11-23T13:27:38.000Z</time>
      </trkpt>
      <trkpt lat="43.15357" lon="3.15286">
        <ele>-2.5999999046326</ele>
        <time>2014-11-23T13:27:41.000Z</time>
      </trkpt>
      <trkpt lat="43.15371" lon="3.15303">
        <ele>-2.5999999046326</ele>
        <time>2014-11-23T13:27:48.000Z</time>
      </trkpt>
      <trkpt lat="43.15382" lon="3.15317">
        <ele>-2.5999999046326</ele>
        <time>2014-11-23T13:27:53.000Z</time>
      </trkpt>
      <trkpt lat="43.15395" lon="3.15335">
        <ele>-2.5999999046326</ele>
        <time>2014-11-23T13:27:58.000Z</time>
      </trkpt>
      <trkpt lat="43.1542" lon="3.15368">
        <ele>-2.5999999046326</ele>
        <time>2014-11-23T13:28:06.000Z</time>
      </trkpt>
      <trkpt lat="43.15434" lon="3.15393">
        <ele>-2.5999999046326</ele>
        <time>2014-11-23T13:28:12.000Z</time>
      </trkpt>
      <trkpt lat="43.15443" lon="3.15411">
        <ele>-2.5999999046326</ele>
        <time>2014-11-23T13:28:16.000Z</time>
      </trkpt>
      <trkpt lat="43.15447" lon="3.15421">
        <ele>-2.5999999046326</ele>
        <time>2014-11-23T13:28:18.000Z</time>
      </trkpt>
      <trkpt lat="43.15463" lon="3.1545">
        <ele>-2.5999999046326</ele>
        <time>2014-11-23T13:28:25.000Z</time>
      </trkpt>
      <trkpt lat="43.15475" lon="3.1547">
        <ele>-2.5999999046326</ele>
        <time>2014-11-23T13:28:31.000Z</time>
      </trkpt>
      <trkpt lat="43.15483" lon="3.15485">
        <ele>-2.5999999046326</ele>
        <time>2014-11-23T13:28:37.000Z</time>
      </trkpt>
      <trkpt lat="43.15484" lon="3.15487">
        <ele>-2.5999999046326</ele>
        <time>2014-11-23T13:28:38.000Z</time>
      </trkpt>
      <trkpt lat="43.15485" lon="3.1549">
        <ele>-2.5999999046326</ele>
        <time>2014-11-23T13:28:40.000Z</time>
      </trkpt>
      <trkpt lat="43.15486" lon="3.15491">
        <ele>-1.6000000238419</ele>
        <time>2014-11-23T13:28:53.000Z</time>
      </trkpt>
      <trkpt lat="43.15486" lon="3.15491">
        <ele>-1.2000000476837</ele>
        <time>2014-11-23T13:28:54.000Z</time>
      </trkpt>
    </trkseg>
  </trk>
</gpx>